<?xml version='1.0' encoding='UTF-8'?><gpx version="1.1" creator="JPX - https://github.com/jenetics/jpx" xmlns="http://www.topografix.com/GPX/1/1"><trk><trkseg><trkpt lat="44.7311033" lon="10.3742832"><ele>91.0</ele><time>2026-04-10T12:47:18.026Z</time></trkpt><trkpt lat="44.7311718" lon="10.3742741"><ele>91.0</ele><time>2026-04-10T12:47:22.071Z</time></trkpt><trkpt lat="44.731216" lon="10.3741936"><ele>91.0</ele><time>2026-04-10T12:47:34.072Z</time></trkpt><trkpt lat="44.7312489" lon="10.3741021"><ele>91.0</ele><time>2026-04-10T12:47:35.072Z</time></trkpt><trkpt lat="44.7313128" lon="10.3739346"><ele>91.0</ele><time>2026-04-10T12:47:37.071Z</time></trkpt><trkpt lat="44.7313583" lon="10.3738419"><ele>91.0</ele><time>2026-04-10T12:47:38.073Z</time></trkpt><trkpt lat="44.7313977" lon="10.3737471"><ele>91.6</ele><time>2026-04-10T12:47:39.073Z</time></trkpt><trkpt lat="44.731436" lon="10.3736408"><ele>92.19999999999999</ele><time>2026-04-10T12:47:40.073Z</time></trkpt><trkpt lat="44.7314723" lon="10.3735194"><ele>92.80000000000001</ele><time>2026-04-10T12:47:41.072Z</time></trkpt><trkpt lat="44.731509" lon="10.3733889"><ele>93.4</ele><time>2026-04-10T12:47:42.071Z</time></trkpt><trkpt lat="44.7315479" lon="10.3732526"><ele>94.0</ele><time>2026-04-10T12:47:43.071Z</time></trkpt><trkpt lat="44.7315874" lon="10.3731124"><ele>94.25</ele><time>2026-04-10T12:47:44.072Z</time></trkpt><trkpt lat="44.7316283" lon="10.37297"><ele>94.5</ele><time>2026-04-10T12:47:45.072Z</time></trkpt><trkpt lat="44.731668" lon="10.3728213"><ele>94.75</ele><time>2026-04-10T12:47:46.072Z</time></trkpt><trkpt lat="44.7317068" lon="10.3726692"><ele>95.0</ele><time>2026-04-10T12:47:47.071Z</time></trkpt><trkpt lat="44.7317467" lon="10.3725087"><ele>95.0</ele><time>2026-04-10T12:47:48.072Z</time></trkpt><trkpt lat="44.7317881" lon="10.3723471"><ele>95.0</ele><time>2026-04-10T12:47:49.072Z</time></trkpt><trkpt lat="44.7318287" lon="10.3721935"><ele>95.0</ele><time>2026-04-10T12:47:50.072Z</time></trkpt><trkpt lat="44.731864" lon="10.3720539"><ele>95.0</ele><time>2026-04-10T12:47:51.072Z</time></trkpt><trkpt lat="44.731904" lon="10.3719162"><ele>95.0</ele><time>2026-04-10T12:47:52.072Z</time></trkpt><trkpt lat="44.7319479" lon="10.3717666"><ele>94.8</ele><time>2026-04-10T12:47:53.071Z</time></trkpt><trkpt lat="44.7319895" lon="10.3716192"><ele>94.6</ele><time>2026-04-10T12:47:54.072Z</time></trkpt><trkpt lat="44.7320254" lon="10.3714948"><ele>94.4</ele><time>2026-04-10T12:47:55.072Z</time></trkpt><trkpt lat="44.7320556" lon="10.3713892"><ele>94.2</ele><time>2026-04-10T12:47:56.072Z</time></trkpt><trkpt lat="44.7320914" lon="10.3712574"><ele>94.0</ele><time>2026-04-10T12:47:58.072Z</time></trkpt><trkpt lat="44.7321293" lon="10.3711629"><ele>93.80000000000001</ele><time>2026-04-10T12:48:01.072Z</time></trkpt><trkpt lat="44.7321673" lon="10.3710365"><ele>93.60000000000001</ele><time>2026-04-10T12:48:03.072Z</time></trkpt><trkpt lat="44.7321652" lon="10.3708611"><ele>93.4</ele><time>2026-04-10T12:48:05.072Z</time></trkpt><trkpt lat="44.7321353" lon="10.3707591"><ele>93.2</ele><time>2026-04-10T12:48:06.071Z</time></trkpt><trkpt lat="44.7320797" lon="10.370677"><ele>93.0</ele><time>2026-04-10T12:48:07.072Z</time></trkpt><trkpt lat="44.7320146" lon="10.370641"><ele>93.0</ele><time>2026-04-10T12:48:08.072Z</time></trkpt><trkpt lat="44.7319471" lon="10.3706396"><ele>93.0</ele><time>2026-04-10T12:48:09.072Z</time></trkpt><trkpt lat="44.7318773" lon="10.3706632"><ele>93.0</ele><time>2026-04-10T12:48:10.071Z</time></trkpt><trkpt lat="44.7318212" lon="10.3707232"><ele>93.0</ele><time>2026-04-10T12:48:11.072Z</time></trkpt><trkpt lat="44.7317648" lon="10.3708122"><ele>93.0</ele><time>2026-04-10T12:48:12.072Z</time></trkpt><trkpt lat="44.7317239" lon="10.3709382"><ele>93.0</ele><time>2026-04-10T12:48:13.072Z</time></trkpt><trkpt lat="44.7316855" lon="10.3710762"><ele>93.25</ele><time>2026-04-10T12:48:14.072Z</time></trkpt><trkpt lat="44.7316252" lon="10.3712153"><ele>93.5</ele><time>2026-04-10T12:48:15.072Z</time></trkpt><trkpt lat="44.7315396" lon="10.3713283"><ele>93.75</ele><time>2026-04-10T12:48:16.072Z</time></trkpt><trkpt lat="44.7314482" lon="10.3714107"><ele>94.0</ele><time>2026-04-10T12:48:17.072Z</time></trkpt><trkpt lat="44.7313397" lon="10.3714899"><ele>94.0</ele><time>2026-04-10T12:48:18.072Z</time></trkpt><trkpt lat="44.7312222" lon="10.3715693"><ele>94.0</ele><time>2026-04-10T12:48:19.072Z</time></trkpt><trkpt lat="44.731112" lon="10.3716369"><ele>94.0</ele><time>2026-04-10T12:48:20.072Z</time></trkpt><trkpt lat="44.731038" lon="10.3716804"><ele>94.0</ele><time>2026-04-10T12:48:21.072Z</time></trkpt><trkpt lat="44.7309751" lon="10.3717206"><ele>94.0</ele><time>2026-04-10T12:48:22.071Z</time></trkpt><trkpt lat="44.7308814" lon="10.3717158"><ele>94.0</ele><time>2026-04-10T12:48:24.072Z</time></trkpt><trkpt lat="44.7308404" lon="10.3715864"><ele>94.0</ele><time>2026-04-10T12:48:26.072Z</time></trkpt><trkpt lat="44.7308308" lon="10.3714686"><ele>94.0</ele><time>2026-04-10T12:48:27.072Z</time></trkpt><trkpt lat="44.7308384" lon="10.3713287"><ele>94.0</ele><time>2026-04-10T12:48:28.071Z</time></trkpt><trkpt lat="44.7308439" lon="10.3711896"><ele>94.0</ele><time>2026-04-10T12:48:29.072Z</time></trkpt><trkpt lat="44.7308597" lon="10.371043"><ele>94.25</ele><time>2026-04-10T12:48:30.072Z</time></trkpt><trkpt lat="44.7308915" lon="10.3708837"><ele>94.5</ele><time>2026-04-10T12:48:31.072Z</time></trkpt><trkpt lat="44.7309264" lon="10.3707326"><ele>94.75</ele><time>2026-04-10T12:48:32.072Z</time></trkpt><trkpt lat="44.7309654" lon="10.3705809"><ele>95.0</ele><time>2026-04-10T12:48:33.072Z</time></trkpt><trkpt lat="44.7310037" lon="10.3704205"><ele>95.0</ele><time>2026-04-10T12:48:34.072Z</time></trkpt><trkpt lat="44.7310428" lon="10.3702596"><ele>95.0</ele><time>2026-04-10T12:48:35.072Z</time></trkpt><trkpt lat="44.7310833" lon="10.3700908"><ele>95.0</ele><time>2026-04-10T12:48:36.071Z</time></trkpt><trkpt lat="44.7311281" lon="10.3699169"><ele>95.0</ele><time>2026-04-10T12:48:37.072Z</time></trkpt><trkpt lat="44.7311734" lon="10.3697376"><ele>95.0</ele><time>2026-04-10T12:48:38.071Z</time></trkpt><trkpt lat="44.7312155" lon="10.3695534"><ele>95.0</ele><time>2026-04-10T12:48:39.071Z</time></trkpt><trkpt lat="44.7312556" lon="10.3693821"><ele>95.0</ele><time>2026-04-10T12:48:40.072Z</time></trkpt><trkpt lat="44.7312917" lon="10.3692269"><ele>95.0</ele><time>2026-04-10T12:48:41.072Z</time></trkpt><trkpt lat="44.7313299" lon="10.3690853"><ele>95.0</ele><time>2026-04-10T12:48:42.071Z</time></trkpt><trkpt lat="44.7313624" lon="10.3689696"><ele>95.0</ele><time>2026-04-10T12:48:43.071Z</time></trkpt><trkpt lat="44.7313838" lon="10.3688666"><ele>95.0</ele><time>2026-04-10T12:48:44.071Z</time></trkpt><trkpt lat="44.7313919" lon="10.3687645"><ele>95.0</ele><time>2026-04-10T12:48:45.071Z</time></trkpt><trkpt lat="44.7313446" lon="10.3685983"><ele>95.0</ele><time>2026-04-10T12:48:47.072Z</time></trkpt><trkpt lat="44.7312861" lon="10.3685339"><ele>95.0</ele><time>2026-04-10T12:48:48.071Z</time></trkpt><trkpt lat="44.7312064" lon="10.3684893"><ele>95.0</ele><time>2026-04-10T12:48:49.072Z</time></trkpt><trkpt lat="44.73112" lon="10.3684383"><ele>95.0</ele><time>2026-04-10T12:48:50.072Z</time></trkpt><trkpt lat="44.7310322" lon="10.3683909"><ele>95.0</ele><time>2026-04-10T12:48:51.072Z</time></trkpt><trkpt lat="44.7309647" lon="10.3683323"><ele>95.0</ele><time>2026-04-10T12:48:52.071Z</time></trkpt><trkpt lat="44.730922" lon="10.3682642"><ele>95.0</ele><time>2026-04-10T12:48:53.072Z</time></trkpt><trkpt lat="44.7309068" lon="10.3680748"><ele>95.0</ele><time>2026-04-10T12:48:55.072Z</time></trkpt><trkpt lat="44.7309364" lon="10.3679464"><ele>95.0</ele><time>2026-04-10T12:48:56.072Z</time></trkpt><trkpt lat="44.7309665" lon="10.367809"><ele>95.0</ele><time>2026-04-10T12:48:57.071Z</time></trkpt><trkpt lat="44.7310037" lon="10.3676614"><ele>95.0</ele><time>2026-04-10T12:48:58.072Z</time></trkpt><trkpt lat="44.7310416" lon="10.3674969"><ele>95.0</ele><time>2026-04-10T12:48:59.072Z</time></trkpt><trkpt lat="44.731086" lon="10.3673267"><ele>95.2</ele><time>2026-04-10T12:49:00.072Z</time></trkpt><trkpt lat="44.7311283" lon="10.3671586"><ele>95.4</ele><time>2026-04-10T12:49:01.071Z</time></trkpt><trkpt lat="44.7311677" lon="10.3670116"><ele>95.6</ele><time>2026-04-10T12:49:02.071Z</time></trkpt><trkpt lat="44.7312026" lon="10.366879"><ele>95.8</ele><time>2026-04-10T12:49:03.071Z</time></trkpt><trkpt lat="44.7312259" lon="10.3667589"><ele>96.0</ele><time>2026-04-10T12:49:04.071Z</time></trkpt><trkpt lat="44.7312313" lon="10.3666509"><ele>96.0</ele><time>2026-04-10T12:49:05.071Z</time></trkpt><trkpt lat="44.7312174" lon="10.3665552"><ele>96.0</ele><time>2026-04-10T12:49:06.071Z</time></trkpt><trkpt lat="44.7311816" lon="10.3664661"><ele>96.0</ele><time>2026-04-10T12:49:07.071Z</time></trkpt><trkpt lat="44.7311354" lon="10.3663881"><ele>96.0</ele><time>2026-04-10T12:49:08.071Z</time></trkpt><trkpt lat="44.7310523" lon="10.3663102"><ele>96.0</ele><time>2026-04-10T12:49:09.07Z</time></trkpt><trkpt lat="44.7309611" lon="10.3662354"><ele>96.0</ele><time>2026-04-10T12:49:10.071Z</time></trkpt><trkpt lat="44.7308499" lon="10.3661453"><ele>96.0</ele><time>2026-04-10T12:49:11.07Z</time></trkpt><trkpt lat="44.7307351" lon="10.3660534"><ele>96.0</ele><time>2026-04-10T12:49:12.071Z</time></trkpt><trkpt lat="44.7306166" lon="10.365964"><ele>96.0</ele><time>2026-04-10T12:49:13.071Z</time></trkpt><trkpt lat="44.7304956" lon="10.3658657"><ele>96.0</ele><time>2026-04-10T12:49:14.071Z</time></trkpt><trkpt lat="44.7303794" lon="10.365776"><ele>96.0</ele><time>2026-04-10T12:49:15.071Z</time></trkpt><trkpt lat="44.7302721" lon="10.3656986"><ele>96.0</ele><time>2026-04-10T12:49:16.07Z</time></trkpt><trkpt lat="44.730175" lon="10.3656253"><ele>96.0</ele><time>2026-04-10T12:49:17.071Z</time></trkpt><trkpt lat="44.7300865" lon="10.3655458"><ele>96.0</ele><time>2026-04-10T12:49:18.071Z</time></trkpt><trkpt lat="44.7300134" lon="10.3654577"><ele>96.0</ele><time>2026-04-10T12:49:19.07Z</time></trkpt><trkpt lat="44.7299674" lon="10.3653654"><ele>96.19999999999999</ele><time>2026-04-10T12:49:20.071Z</time></trkpt><trkpt lat="44.7299439" lon="10.3652592"><ele>96.39999999999999</ele><time>2026-04-10T12:49:21.071Z</time></trkpt><trkpt lat="44.7299417" lon="10.3651269"><ele>96.6</ele><time>2026-04-10T12:49:22.071Z</time></trkpt><trkpt lat="44.7299583" lon="10.3649694"><ele>96.8</ele><time>2026-04-10T12:49:23.07Z</time></trkpt><trkpt lat="44.729984" lon="10.3647881"><ele>97.0</ele><time>2026-04-10T12:49:24.071Z</time></trkpt><trkpt lat="44.7300162" lon="10.3645962"><ele>97.5</ele><time>2026-04-10T12:49:25.071Z</time></trkpt><trkpt lat="44.7300547" lon="10.3644069"><ele>98.0</ele><time>2026-04-10T12:49:26.071Z</time></trkpt><trkpt lat="44.7301" lon="10.3642201"><ele>98.5</ele><time>2026-04-10T12:49:27.07Z</time></trkpt><trkpt lat="44.7301546" lon="10.364037"><ele>99.0</ele><time>2026-04-10T12:49:28.071Z</time></trkpt><trkpt lat="44.7302036" lon="10.3638754"><ele>98.6</ele><time>2026-04-10T12:49:29.071Z</time></trkpt><trkpt lat="44.7302505" lon="10.3637242"><ele>98.2</ele><time>2026-04-10T12:49:30.07Z</time></trkpt><trkpt lat="44.7302905" lon="10.3635809"><ele>97.8</ele><time>2026-04-10T12:49:31.071Z</time></trkpt><trkpt lat="44.7303233" lon="10.3634464"><ele>97.39999999999999</ele><time>2026-04-10T12:49:32.071Z</time></trkpt><trkpt lat="44.730344" lon="10.363324"><ele>97.0</ele><time>2026-04-10T12:49:33.071Z</time></trkpt><trkpt lat="44.7303485" lon="10.3632119"><ele>97.00000000000001</ele><time>2026-04-10T12:49:34.071Z</time></trkpt><trkpt lat="44.7303159" lon="10.3630996"><ele>97.0</ele><time>2026-04-10T12:49:35.071Z</time></trkpt><trkpt lat="44.7302753" lon="10.3630182"><ele>97.0</ele><time>2026-04-10T12:49:36.071Z</time></trkpt><trkpt lat="44.7302171" lon="10.3629329"><ele>97.0</ele><time>2026-04-10T12:49:37.071Z</time></trkpt><trkpt lat="44.7301539" lon="10.3628398"><ele>97.00000000000001</ele><time>2026-04-10T12:49:38.071Z</time></trkpt><trkpt lat="44.7301118" lon="10.3627333"><ele>97.0</ele><time>2026-04-10T12:49:39.071Z</time></trkpt><trkpt lat="44.7300969" lon="10.3626241"><ele>97.5</ele><time>2026-04-10T12:49:40.071Z</time></trkpt><trkpt lat="44.730109" lon="10.3625012"><ele>98.0</ele><time>2026-04-10T12:49:41.071Z</time></trkpt><trkpt lat="44.7301388" lon="10.3623498"><ele>98.5</ele><time>2026-04-10T12:49:42.071Z</time></trkpt><trkpt lat="44.730175" lon="10.3621732"><ele>99.0</ele><time>2026-04-10T12:49:43.071Z</time></trkpt><trkpt lat="44.7302131" lon="10.3619996"><ele>99.0</ele><time>2026-04-10T12:49:44.071Z</time></trkpt><trkpt lat="44.7302552" lon="10.3618236"><ele>99.0</ele><time>2026-04-10T12:49:45.071Z</time></trkpt><trkpt lat="44.7302971" lon="10.3616499"><ele>99.0</ele><time>2026-04-10T12:49:46.071Z</time></trkpt><trkpt lat="44.730339" lon="10.3614697"><ele>99.0</ele><time>2026-04-10T12:49:47.071Z</time></trkpt><trkpt lat="44.7303809" lon="10.3612782"><ele>99.0</ele><time>2026-04-10T12:49:48.071Z</time></trkpt><trkpt lat="44.7304233" lon="10.3610779"><ele>99.0</ele><time>2026-04-10T12:49:49.07Z</time></trkpt><trkpt lat="44.7304674" lon="10.3608762"><ele>99.0</ele><time>2026-04-10T12:49:50.07Z</time></trkpt><trkpt lat="44.7305103" lon="10.3606803"><ele>99.0</ele><time>2026-04-10T12:49:51.071Z</time></trkpt><trkpt lat="44.7305494" lon="10.3604798"><ele>99.0</ele><time>2026-04-10T12:49:52.071Z</time></trkpt><trkpt lat="44.7305943" lon="10.3602821"><ele>99.0</ele><time>2026-04-10T12:49:53.07Z</time></trkpt><trkpt lat="44.7306389" lon="10.3600831"><ele>99.0</ele><time>2026-04-10T12:49:54.071Z</time></trkpt><trkpt lat="44.7306819" lon="10.3598872"><ele>99.0</ele><time>2026-04-10T12:49:55.071Z</time></trkpt><trkpt lat="44.7307301" lon="10.3596864"><ele>98.75</ele><time>2026-04-10T12:49:56.071Z</time></trkpt><trkpt lat="44.7307719" lon="10.3594946"><ele>98.5</ele><time>2026-04-10T12:49:57.071Z</time></trkpt><trkpt lat="44.7308128" lon="10.3593033"><ele>98.25</ele><time>2026-04-10T12:49:58.071Z</time></trkpt><trkpt lat="44.7308543" lon="10.3591091"><ele>98.0</ele><time>2026-04-10T12:49:59.071Z</time></trkpt><trkpt lat="44.7308961" lon="10.3589147"><ele>98.25</ele><time>2026-04-10T12:50:00.07Z</time></trkpt><trkpt lat="44.730937" lon="10.3587243"><ele>98.5</ele><time>2026-04-10T12:50:01.07Z</time></trkpt><trkpt lat="44.7309735" lon="10.3585537"><ele>98.75</ele><time>2026-04-10T12:50:02.071Z</time></trkpt><trkpt lat="44.7310067" lon="10.3583907"><ele>99.0</ele><time>2026-04-10T12:50:03.071Z</time></trkpt><trkpt lat="44.7310409" lon="10.3582331"><ele>99.0</ele><time>2026-04-10T12:50:04.071Z</time></trkpt><trkpt lat="44.7310753" lon="10.3580869"><ele>99.0</ele><time>2026-04-10T12:50:05.07Z</time></trkpt><trkpt lat="44.7311023" lon="10.357958"><ele>99.0</ele><time>2026-04-10T12:50:06.072Z</time></trkpt><trkpt lat="44.7311294" lon="10.357846"><ele>99.0</ele><time>2026-04-10T12:50:07.072Z</time></trkpt><trkpt lat="44.7311429" lon="10.3577452"><ele>99.0</ele><time>2026-04-10T12:50:08.071Z</time></trkpt><trkpt lat="44.7311417" lon="10.3576514"><ele>99.0</ele><time>2026-04-10T12:50:09.07Z</time></trkpt><trkpt lat="44.7310821" lon="10.357508"><ele>99.16666666666667</ele><time>2026-04-10T12:50:11.07Z</time></trkpt><trkpt lat="44.7310216" lon="10.3574545"><ele>99.33333333333334</ele><time>2026-04-10T12:50:12.07Z</time></trkpt><trkpt lat="44.730945" lon="10.3574143"><ele>99.5</ele><time>2026-04-10T12:50:13.071Z</time></trkpt><trkpt lat="44.730853" lon="10.357382"><ele>99.66666666666667</ele><time>2026-04-10T12:50:14.071Z</time></trkpt><trkpt lat="44.7307675" lon="10.357353"><ele>99.83333333333334</ele><time>2026-04-10T12:50:15.07Z</time></trkpt><trkpt lat="44.7306833" lon="10.3573183"><ele>100.0</ele><time>2026-04-10T12:50:16.071Z</time></trkpt><trkpt lat="44.730621" lon="10.357278"><ele>100.0</ele><time>2026-04-10T12:50:17.071Z</time></trkpt><trkpt lat="44.7306434" lon="10.3571459"><ele>100.0</ele><time>2026-04-10T12:50:18.071Z</time></trkpt><trkpt lat="44.7306394" lon="10.3570447"><ele>100.0</ele><time>2026-04-10T12:50:19.071Z</time></trkpt><trkpt lat="44.7306582" lon="10.3569153"><ele>100.0</ele><time>2026-04-10T12:50:20.071Z</time></trkpt><trkpt lat="44.7306827" lon="10.3567921"><ele>100.0</ele><time>2026-04-10T12:50:21.07Z</time></trkpt><trkpt lat="44.7307174" lon="10.3566381"><ele>100.0</ele><time>2026-04-10T12:50:22.07Z</time></trkpt><trkpt lat="44.7307639" lon="10.3564405"><ele>100.0</ele><time>2026-04-10T12:50:23.071Z</time></trkpt><trkpt lat="44.7308091" lon="10.3562359"><ele>100.0</ele><time>2026-04-10T12:50:24.071Z</time></trkpt><trkpt lat="44.7308666" lon="10.3560023"><ele>100.0</ele><time>2026-04-10T12:50:25.071Z</time></trkpt><trkpt lat="44.7309227" lon="10.3557544"><ele>100.0</ele><time>2026-04-10T12:50:26.071Z</time></trkpt><trkpt lat="44.730971" lon="10.3555357"><ele>100.0</ele><time>2026-04-10T12:50:27.07Z</time></trkpt><trkpt lat="44.7310177" lon="10.3553327"><ele>100.25</ele><time>2026-04-10T12:50:28.071Z</time></trkpt><trkpt lat="44.7310613" lon="10.3551325"><ele>100.5</ele><time>2026-04-10T12:50:29.072Z</time></trkpt><trkpt lat="44.7311055" lon="10.354943"><ele>100.75</ele><time>2026-04-10T12:50:30.071Z</time></trkpt><trkpt lat="44.7311432" lon="10.3547671"><ele>101.0</ele><time>2026-04-10T12:50:31.07Z</time></trkpt><trkpt lat="44.7311744" lon="10.3546034"><ele>101.0</ele><time>2026-04-10T12:50:32.071Z</time></trkpt><trkpt lat="44.7311874" lon="10.3544487"><ele>101.0</ele><time>2026-04-10T12:50:33.071Z</time></trkpt><trkpt lat="44.7311806" lon="10.3542894"><ele>101.0</ele><time>2026-04-10T12:50:34.071Z</time></trkpt><trkpt lat="44.7311585" lon="10.3541287"><ele>101.0</ele><time>2026-04-10T12:50:35.071Z</time></trkpt><trkpt lat="44.7311302" lon="10.3539611"><ele>101.19999999999999</ele><time>2026-04-10T12:50:36.071Z</time></trkpt><trkpt lat="44.7311004" lon="10.3537958"><ele>101.39999999999999</ele><time>2026-04-10T12:50:37.071Z</time></trkpt><trkpt lat="44.7310701" lon="10.3536471"><ele>101.6</ele><time>2026-04-10T12:50:38.071Z</time></trkpt><trkpt lat="44.7310419" lon="10.3534988"><ele>101.8</ele><time>2026-04-10T12:50:39.071Z</time></trkpt><trkpt lat="44.7310179" lon="10.3533726"><ele>102.0</ele><time>2026-04-10T12:50:40.071Z</time></trkpt><trkpt lat="44.7309948" lon="10.3532351"><ele>102.0</ele><time>2026-04-10T12:50:41.071Z</time></trkpt><trkpt lat="44.7309694" lon="10.3531019"><ele>102.0</ele><time>2026-04-10T12:50:43.071Z</time></trkpt><trkpt lat="44.7309386" lon="10.3530191"><ele>102.0</ele><time>2026-04-10T12:50:46.071Z</time></trkpt><trkpt lat="44.7308692" lon="10.3529755"><ele>102.0</ele><time>2026-04-10T12:50:48.071Z</time></trkpt><trkpt lat="44.7308008" lon="10.3529867"><ele>102.0</ele><time>2026-04-10T12:50:49.071Z</time></trkpt><trkpt lat="44.7307115" lon="10.3530194"><ele>102.0</ele><time>2026-04-10T12:50:50.071Z</time></trkpt><trkpt lat="44.7305943" lon="10.3530636"><ele>102.0</ele><time>2026-04-10T12:50:51.071Z</time></trkpt><trkpt lat="44.7304947" lon="10.3530995"><ele>102.0</ele><time>2026-04-10T12:50:52.07Z</time></trkpt><trkpt lat="44.7303898" lon="10.3531389"><ele>102.0</ele><time>2026-04-10T12:50:53.07Z</time></trkpt><trkpt lat="44.7302808" lon="10.3531801"><ele>102.0</ele><time>2026-04-10T12:50:54.07Z</time></trkpt><trkpt lat="44.7301684" lon="10.3532241"><ele>102.0</ele><time>2026-04-10T12:50:55.071Z</time></trkpt><trkpt lat="44.7300591" lon="10.3532666"><ele>102.5</ele><time>2026-04-10T12:50:56.071Z</time></trkpt><trkpt lat="44.7299456" lon="10.3533148"><ele>103.0</ele><time>2026-04-10T12:50:57.07Z</time></trkpt><trkpt lat="44.729821" lon="10.3533658"><ele>103.5</ele><time>2026-04-10T12:50:58.07Z</time></trkpt><trkpt lat="44.729689" lon="10.3534229"><ele>104.0</ele><time>2026-04-10T12:50:59.07Z</time></trkpt><trkpt lat="44.7295568" lon="10.3534745"><ele>104.0</ele><time>2026-04-10T12:51:00.07Z</time></trkpt><trkpt lat="44.729422" lon="10.3535265"><ele>104.0</ele><time>2026-04-10T12:51:01.071Z</time></trkpt><trkpt lat="44.7292837" lon="10.3535799"><ele>104.0</ele><time>2026-04-10T12:51:02.071Z</time></trkpt><trkpt lat="44.7291458" lon="10.3536347"><ele>104.0</ele><time>2026-04-10T12:51:03.071Z</time></trkpt><trkpt lat="44.7290048" lon="10.3536945"><ele>104.33333333333333</ele><time>2026-04-10T12:51:04.071Z</time></trkpt><trkpt lat="44.7288604" lon="10.3537548"><ele>104.66666666666666</ele><time>2026-04-10T12:51:05.071Z</time></trkpt><trkpt lat="44.7287119" lon="10.3538158"><ele>105.0</ele><time>2026-04-10T12:51:06.07Z</time></trkpt><trkpt lat="44.7285651" lon="10.353873"><ele>104.0</ele><time>2026-04-10T12:51:07.072Z</time></trkpt><trkpt lat="44.7284117" lon="10.353934"><ele>103.0</ele><time>2026-04-10T12:51:08.071Z</time></trkpt><trkpt lat="44.7282578" lon="10.3539915"><ele>102.0</ele><time>2026-04-10T12:51:09.071Z</time></trkpt><trkpt lat="44.7281002" lon="10.3540557"><ele>102.0</ele><time>2026-04-10T12:51:10.07Z</time></trkpt><trkpt lat="44.7279426" lon="10.3541185"><ele>102.0</ele><time>2026-04-10T12:51:11.071Z</time></trkpt><trkpt lat="44.7277843" lon="10.3541853"><ele>102.0</ele><time>2026-04-10T12:51:12.07Z</time></trkpt><trkpt lat="44.7276252" lon="10.3542521"><ele>102.5</ele><time>2026-04-10T12:51:13.071Z</time></trkpt><trkpt lat="44.7274727" lon="10.3543163"><ele>103.0</ele><time>2026-04-10T12:51:14.071Z</time></trkpt><trkpt lat="44.7273303" lon="10.3543728"><ele>103.5</ele><time>2026-04-10T12:51:15.071Z</time></trkpt><trkpt lat="44.7271978" lon="10.3544286"><ele>104.0</ele><time>2026-04-10T12:51:16.071Z</time></trkpt><trkpt lat="44.7270658" lon="10.3544749"><ele>104.0</ele><time>2026-04-10T12:51:17.071Z</time></trkpt><trkpt lat="44.7269267" lon="10.3545231"><ele>104.0</ele><time>2026-04-10T12:51:18.071Z</time></trkpt><trkpt lat="44.7267817" lon="10.3545765"><ele>104.0</ele><time>2026-04-10T12:51:19.071Z</time></trkpt><trkpt lat="44.7266336" lon="10.3546284"><ele>104.0</ele><time>2026-04-10T12:51:20.07Z</time></trkpt><trkpt lat="44.7264884" lon="10.3546783"><ele>105.33333333333333</ele><time>2026-04-10T12:51:21.071Z</time></trkpt><trkpt lat="44.7263405" lon="10.3547309"><ele>106.66666666666666</ele><time>2026-04-10T12:51:22.071Z</time></trkpt><trkpt lat="44.7261906" lon="10.3547809"><ele>108.0</ele><time>2026-04-10T12:51:23.072Z</time></trkpt><trkpt lat="44.7260416" lon="10.3548283"><ele>108.0</ele><time>2026-04-10T12:51:24.071Z</time></trkpt><trkpt lat="44.7258924" lon="10.3548787"><ele>108.0</ele><time>2026-04-10T12:51:25.071Z</time></trkpt><trkpt lat="44.7257443" lon="10.35492"><ele>108.0</ele><time>2026-04-10T12:51:26.071Z</time></trkpt><trkpt lat="44.7255982" lon="10.3549645"><ele>108.0</ele><time>2026-04-10T12:51:27.071Z</time></trkpt><trkpt lat="44.7254545" lon="10.3550146"><ele>108.0</ele><time>2026-04-10T12:51:28.071Z</time></trkpt><trkpt lat="44.725306" lon="10.3550583"><ele>108.0</ele><time>2026-04-10T12:51:29.07Z</time></trkpt><trkpt lat="44.7251531" lon="10.3551068"><ele>108.0</ele><time>2026-04-10T12:51:30.071Z</time></trkpt><trkpt lat="44.7250028" lon="10.3551508"><ele>108.0</ele><time>2026-04-10T12:51:31.071Z</time></trkpt><trkpt lat="44.7248604" lon="10.3551921"><ele>108.0</ele><time>2026-04-10T12:51:32.07Z</time></trkpt><trkpt lat="44.7247448" lon="10.3552256"><ele>108.0</ele><time>2026-04-10T12:51:33.071Z</time></trkpt><trkpt lat="44.7246527" lon="10.3552484"><ele>108.0</ele><time>2026-04-10T12:51:34.071Z</time></trkpt><trkpt lat="44.7245759" lon="10.3552691"><ele>108.0</ele><time>2026-04-10T12:51:35.071Z</time></trkpt><trkpt lat="44.7244695" lon="10.3552443"><ele>108.0</ele><time>2026-04-10T12:51:37.07Z</time></trkpt><trkpt lat="44.7244321" lon="10.3551272"><ele>108.0</ele><time>2026-04-10T12:51:39.071Z</time></trkpt><trkpt lat="44.7244274" lon="10.3550161"><ele>108.0</ele><time>2026-04-10T12:51:40.07Z</time></trkpt><trkpt lat="44.7244262" lon="10.3548911"><ele>108.0</ele><time>2026-04-10T12:51:41.071Z</time></trkpt><trkpt lat="44.7244273" lon="10.3547329"><ele>108.0</ele><time>2026-04-10T12:51:42.07Z</time></trkpt><trkpt lat="44.7244284" lon="10.3545614"><ele>108.0</ele><time>2026-04-10T12:51:43.071Z</time></trkpt><trkpt lat="44.7244318" lon="10.3543911"><ele>108.0</ele><time>2026-04-10T12:51:44.071Z</time></trkpt><trkpt lat="44.7244462" lon="10.3542167"><ele>108.0</ele><time>2026-04-10T12:51:45.071Z</time></trkpt><trkpt lat="44.7244716" lon="10.3540338"><ele>108.25</ele><time>2026-04-10T12:51:46.071Z</time></trkpt><trkpt lat="44.7245055" lon="10.3538406"><ele>108.5</ele><time>2026-04-10T12:51:47.072Z</time></trkpt><trkpt lat="44.7245397" lon="10.3536564"><ele>108.75</ele><time>2026-04-10T12:51:48.07Z</time></trkpt><trkpt lat="44.7245814" lon="10.3534624"><ele>109.0</ele><time>2026-04-10T12:51:49.071Z</time></trkpt><trkpt lat="44.7246228" lon="10.3532718"><ele>109.0</ele><time>2026-04-10T12:51:50.071Z</time></trkpt><trkpt lat="44.724666" lon="10.3530732"><ele>109.0</ele><time>2026-04-10T12:51:51.071Z</time></trkpt><trkpt lat="44.7247093" lon="10.3528664"><ele>109.0</ele><time>2026-04-10T12:51:52.07Z</time></trkpt><trkpt lat="44.7247533" lon="10.3526485"><ele>109.0</ele><time>2026-04-10T12:51:53.071Z</time></trkpt><trkpt lat="44.7247981" lon="10.3524251"><ele>109.0</ele><time>2026-04-10T12:51:54.071Z</time></trkpt><trkpt lat="44.7248436" lon="10.3522008"><ele>109.0</ele><time>2026-04-10T12:51:55.071Z</time></trkpt><trkpt lat="44.7248905" lon="10.3519769"><ele>109.0</ele><time>2026-04-10T12:51:56.07Z</time></trkpt><trkpt lat="44.724939" lon="10.3517615"><ele>109.0</ele><time>2026-04-10T12:51:57.071Z</time></trkpt><trkpt lat="44.7249823" lon="10.3515591"><ele>109.0</ele><time>2026-04-10T12:51:58.071Z</time></trkpt><trkpt lat="44.7250205" lon="10.3513726"><ele>109.0</ele><time>2026-04-10T12:51:59.071Z</time></trkpt><trkpt lat="44.7250558" lon="10.3511836"><ele>109.0</ele><time>2026-04-10T12:52:00.071Z</time></trkpt><trkpt lat="44.7250941" lon="10.350987"><ele>109.0</ele><time>2026-04-10T12:52:01.07Z</time></trkpt><trkpt lat="44.7251316" lon="10.3507976"><ele>109.0</ele><time>2026-04-10T12:52:02.071Z</time></trkpt><trkpt lat="44.7251687" lon="10.3506188"><ele>109.0</ele><time>2026-04-10T12:52:03.07Z</time></trkpt><trkpt lat="44.725204" lon="10.3504448"><ele>108.6</ele><time>2026-04-10T12:52:04.071Z</time></trkpt><trkpt lat="44.7252424" lon="10.3502777"><ele>108.2</ele><time>2026-04-10T12:52:05.07Z</time></trkpt><trkpt lat="44.7252756" lon="10.3501278"><ele>107.79999999999998</ele><time>2026-04-10T12:52:06.071Z</time></trkpt><trkpt lat="44.7253059" lon="10.3499992"><ele>107.39999999999999</ele><time>2026-04-10T12:52:07.071Z</time></trkpt><trkpt lat="44.7253315" lon="10.3498861"><ele>107.0</ele><time>2026-04-10T12:52:08.071Z</time></trkpt><trkpt lat="44.7253582" lon="10.3497908"><ele>106.99999999999999</ele><time>2026-04-10T12:52:09.071Z</time></trkpt><trkpt lat="44.7254017" lon="10.3496489"><ele>107.0</ele><time>2026-04-10T12:52:11.071Z</time></trkpt><trkpt lat="44.7254234" lon="10.3495389"><ele>107.0</ele><time>2026-04-10T12:52:13.07Z</time></trkpt><trkpt lat="44.7254326" lon="10.3494088"><ele>107.0</ele><time>2026-04-10T12:52:15.071Z</time></trkpt><trkpt lat="44.7254209" lon="10.3492891"><ele>106.99999999999999</ele><time>2026-04-10T12:52:17.071Z</time></trkpt><trkpt lat="44.7253582" lon="10.3492454"><ele>107.0</ele><time>2026-04-10T12:52:19.071Z</time></trkpt><trkpt lat="44.7252178" lon="10.3492519"><ele>107.19999999999999</ele><time>2026-04-10T12:52:21.071Z</time></trkpt><trkpt lat="44.7251133" lon="10.3492591"><ele>107.39999999999999</ele><time>2026-04-10T12:52:22.071Z</time></trkpt><trkpt lat="44.7250006" lon="10.3492553"><ele>107.60000000000001</ele><time>2026-04-10T12:52:23.071Z</time></trkpt><trkpt lat="44.7248796" lon="10.349229"><ele>107.80000000000001</ele><time>2026-04-10T12:52:24.071Z</time></trkpt><trkpt lat="44.7247733" lon="10.3491915"><ele>108.0</ele><time>2026-04-10T12:52:25.07Z</time></trkpt><trkpt lat="44.7246683" lon="10.3491363"><ele>108.0</ele><time>2026-04-10T12:52:26.071Z</time></trkpt><trkpt lat="44.7245735" lon="10.3490603"><ele>108.00000000000001</ele><time>2026-04-10T12:52:27.071Z</time></trkpt><trkpt lat="44.7244877" lon="10.3489632"><ele>108.00000000000001</ele><time>2026-04-10T12:52:28.071Z</time></trkpt><trkpt lat="44.7244078" lon="10.3488454"><ele>108.0</ele><time>2026-04-10T12:52:29.071Z</time></trkpt><trkpt lat="44.7243544" lon="10.3487192"><ele>108.0</ele><time>2026-04-10T12:52:30.071Z</time></trkpt><trkpt lat="44.7243114" lon="10.3485828"><ele>108.0</ele><time>2026-04-10T12:52:31.071Z</time></trkpt><trkpt lat="44.7242822" lon="10.3484413"><ele>108.0</ele><time>2026-04-10T12:52:32.071Z</time></trkpt><trkpt lat="44.724273" lon="10.348284"><ele>108.0</ele><time>2026-04-10T12:52:33.071Z</time></trkpt><trkpt lat="44.7242779" lon="10.3481187"><ele>108.0</ele><time>2026-04-10T12:52:34.072Z</time></trkpt><trkpt lat="44.724301" lon="10.347933"><ele>108.0</ele><time>2026-04-10T12:52:35.07Z</time></trkpt><trkpt lat="44.7243339" lon="10.3477442"><ele>108.0</ele><time>2026-04-10T12:52:36.071Z</time></trkpt><trkpt lat="44.7243689" lon="10.3475397"><ele>108.0</ele><time>2026-04-10T12:52:37.072Z</time></trkpt><trkpt lat="44.7244002" lon="10.3473301"><ele>108.0</ele><time>2026-04-10T12:52:38.071Z</time></trkpt><trkpt lat="44.7244422" lon="10.3471102"><ele>108.25</ele><time>2026-04-10T12:52:39.07Z</time></trkpt><trkpt lat="44.7244743" lon="10.346923"><ele>108.5</ele><time>2026-04-10T12:52:40.069Z</time></trkpt><trkpt lat="44.7245118" lon="10.3467157"><ele>108.75</ele><time>2026-04-10T12:52:41.07Z</time></trkpt><trkpt lat="44.724545" lon="10.3465313"><ele>109.0</ele><time>2026-04-10T12:52:42.07Z</time></trkpt><trkpt lat="44.7245754" lon="10.3463706"><ele>108.6</ele><time>2026-04-10T12:52:43.07Z</time></trkpt><trkpt lat="44.7246005" lon="10.3462362"><ele>108.2</ele><time>2026-04-10T12:52:44.07Z</time></trkpt><trkpt lat="44.7246199" lon="10.3461251"><ele>107.79999999999998</ele><time>2026-04-10T12:52:45.07Z</time></trkpt><trkpt lat="44.724604" lon="10.3459775"><ele>107.39999999999999</ele><time>2026-04-10T12:52:47.07Z</time></trkpt><trkpt lat="44.7244929" lon="10.3458721"><ele>107.0</ele><time>2026-04-10T12:52:49.07Z</time></trkpt><trkpt lat="44.7244071" lon="10.3458427"><ele>107.0</ele><time>2026-04-10T12:52:50.069Z</time></trkpt><trkpt lat="44.7243013" lon="10.34581"><ele>106.99999999999999</ele><time>2026-04-10T12:52:51.07Z</time></trkpt><trkpt lat="44.7242001" lon="10.3457616"><ele>106.99999999999999</ele><time>2026-04-10T12:52:52.071Z</time></trkpt><trkpt lat="44.7240981" lon="10.3456995"><ele>107.0</ele><time>2026-04-10T12:52:53.07Z</time></trkpt><trkpt lat="44.7239977" lon="10.3456351"><ele>107.0</ele><time>2026-04-10T12:52:54.069Z</time></trkpt><trkpt lat="44.7238881" lon="10.3455805"><ele>107.25</ele><time>2026-04-10T12:52:55.069Z</time></trkpt><trkpt lat="44.7237701" lon="10.3455385"><ele>107.5</ele><time>2026-04-10T12:52:56.069Z</time></trkpt><trkpt lat="44.7236388" lon="10.3454927"><ele>107.75</ele><time>2026-04-10T12:52:57.069Z</time></trkpt><trkpt lat="44.7235056" lon="10.345467"><ele>108.0</ele><time>2026-04-10T12:52:58.069Z</time></trkpt><trkpt lat="44.7233604" lon="10.3454226"><ele>108.25</ele><time>2026-04-10T12:52:59.069Z</time></trkpt><trkpt lat="44.7232082" lon="10.3454218"><ele>108.5</ele><time>2026-04-10T12:53:00.069Z</time></trkpt><trkpt lat="44.7230629" lon="10.3453866"><ele>108.75</ele><time>2026-04-10T12:53:01.07Z</time></trkpt><trkpt lat="44.7229359" lon="10.345335"><ele>109.0</ele><time>2026-04-10T12:53:02.07Z</time></trkpt><trkpt lat="44.7228273" lon="10.3452955"><ele>109.2</ele><time>2026-04-10T12:53:03.07Z</time></trkpt><trkpt lat="44.7227284" lon="10.3452621"><ele>109.4</ele><time>2026-04-10T12:53:04.07Z</time></trkpt><trkpt lat="44.7226408" lon="10.3452257"><ele>109.6</ele><time>2026-04-10T12:53:05.07Z</time></trkpt><trkpt lat="44.7225676" lon="10.3451827"><ele>109.8</ele><time>2026-04-10T12:53:06.07Z</time></trkpt><trkpt lat="44.7225129" lon="10.3451276"><ele>110.0</ele><time>2026-04-10T12:53:07.07Z</time></trkpt><trkpt lat="44.722467" lon="10.3449856"><ele>110.0</ele><time>2026-04-10T12:53:09.07Z</time></trkpt><trkpt lat="44.7224609" lon="10.344891"><ele>110.0</ele><time>2026-04-10T12:53:10.07Z</time></trkpt><trkpt lat="44.722464" lon="10.3447892"><ele>110.0</ele><time>2026-04-10T12:53:11.07Z</time></trkpt><trkpt lat="44.7224788" lon="10.344659"><ele>110.0</ele><time>2026-04-10T12:53:12.07Z</time></trkpt><trkpt lat="44.7225007" lon="10.344515"><ele>110.0</ele><time>2026-04-10T12:53:13.07Z</time></trkpt><trkpt lat="44.7225173" lon="10.3443583"><ele>110.0</ele><time>2026-04-10T12:53:14.07Z</time></trkpt><trkpt lat="44.7225313" lon="10.344188"><ele>110.0</ele><time>2026-04-10T12:53:15.07Z</time></trkpt><trkpt lat="44.7225507" lon="10.3440043"><ele>110.0</ele><time>2026-04-10T12:53:16.071Z</time></trkpt><trkpt lat="44.7225731" lon="10.3438354"><ele>110.0</ele><time>2026-04-10T12:53:17.07Z</time></trkpt><trkpt lat="44.722598" lon="10.3436792"><ele>109.83333333333333</ele><time>2026-04-10T12:53:18.069Z</time></trkpt><trkpt lat="44.7226229" lon="10.3435385"><ele>109.66666666666666</ele><time>2026-04-10T12:53:19.07Z</time></trkpt><trkpt lat="44.7226462" lon="10.3434105"><ele>109.5</ele><time>2026-04-10T12:53:20.07Z</time></trkpt><trkpt lat="44.7226654" lon="10.3432927"><ele>109.33333333333334</ele><time>2026-04-10T12:53:21.07Z</time></trkpt><trkpt lat="44.7226802" lon="10.3431883"><ele>109.16666666666667</ele><time>2026-04-10T12:53:22.069Z</time></trkpt><trkpt lat="44.7226934" lon="10.3431002"><ele>109.0</ele><time>2026-04-10T12:53:23.069Z</time></trkpt><trkpt lat="44.722709" lon="10.3429701"><ele>108.83333333333334</ele><time>2026-04-10T12:53:25.07Z</time></trkpt><trkpt lat="44.7227096" lon="10.3428755"><ele>108.66666666666667</ele><time>2026-04-10T12:56:12.069Z</time></trkpt><trkpt lat="44.7227098" lon="10.3427582"><ele>108.5</ele><time>2026-04-10T12:56:15.07Z</time></trkpt><trkpt lat="44.7227677" lon="10.3426409"><ele>108.33333333333334</ele><time>2026-04-10T12:56:17.068Z</time></trkpt><trkpt lat="44.7227799" lon="10.3425267"><ele>108.16666666666667</ele><time>2026-04-10T12:56:19.068Z</time></trkpt><trkpt lat="44.722734" lon="10.3424636"><ele>108.0</ele><time>2026-04-10T12:56:20.069Z</time></trkpt><trkpt lat="44.7226226" lon="10.3423628"><ele>108.0</ele><time>2026-04-10T12:56:22.068Z</time></trkpt><trkpt lat="44.7225458" lon="10.3423137"><ele>108.00000000000001</ele><time>2026-04-10T12:56:23.069Z</time></trkpt><trkpt lat="44.7224536" lon="10.3422661"><ele>108.00000000000001</ele><time>2026-04-10T12:56:24.068Z</time></trkpt><trkpt lat="44.7223489" lon="10.3422128"><ele>108.0</ele><time>2026-04-10T12:56:25.069Z</time></trkpt><trkpt lat="44.7222392" lon="10.3421532"><ele>108.0</ele><time>2026-04-10T12:56:26.069Z</time></trkpt><trkpt lat="44.7221304" lon="10.3420861"><ele>107.75</ele><time>2026-04-10T12:56:27.069Z</time></trkpt><trkpt lat="44.7220145" lon="10.3420101"><ele>107.5</ele><time>2026-04-10T12:56:28.069Z</time></trkpt><trkpt lat="44.7218981" lon="10.3419298"><ele>107.25</ele><time>2026-04-10T12:56:29.069Z</time></trkpt><trkpt lat="44.7217761" lon="10.3418484"><ele>107.0</ele><time>2026-04-10T12:56:30.07Z</time></trkpt><trkpt lat="44.7216579" lon="10.3417666"><ele>107.0</ele><time>2026-04-10T12:56:31.07Z</time></trkpt><trkpt lat="44.7215368" lon="10.3416856"><ele>107.0</ele><time>2026-04-10T12:56:32.069Z</time></trkpt><trkpt lat="44.7214138" lon="10.3416142"><ele>107.0</ele><time>2026-04-10T12:56:33.069Z</time></trkpt><trkpt lat="44.7212935" lon="10.3415432"><ele>107.0</ele><time>2026-04-10T12:56:34.069Z</time></trkpt><trkpt lat="44.7211699" lon="10.3414841"><ele>107.6</ele><time>2026-04-10T12:56:35.068Z</time></trkpt><trkpt lat="44.7210462" lon="10.3414401"><ele>108.19999999999999</ele><time>2026-04-10T12:56:36.068Z</time></trkpt><trkpt lat="44.7209388" lon="10.3414094"><ele>108.8</ele><time>2026-04-10T12:56:37.069Z</time></trkpt><trkpt lat="44.7208456" lon="10.3413861"><ele>109.4</ele><time>2026-04-10T12:56:38.069Z</time></trkpt><trkpt lat="44.7207561" lon="10.3413704"><ele>110.0</ele><time>2026-04-10T12:56:39.069Z</time></trkpt><trkpt lat="44.7206807" lon="10.3413692"><ele>109.99999999999999</ele><time>2026-04-10T12:56:40.069Z</time></trkpt><trkpt lat="44.720618" lon="10.341383"><ele>110.0</ele><time>2026-04-10T12:56:41.068Z</time></trkpt><trkpt lat="44.7205565" lon="10.3414174"><ele>110.0</ele><time>2026-04-10T12:56:42.068Z</time></trkpt><trkpt lat="44.7204991" lon="10.3414862"><ele>110.0</ele><time>2026-04-10T12:56:43.069Z</time></trkpt><trkpt lat="44.7204426" lon="10.3415755"><ele>110.0</ele><time>2026-04-10T12:56:44.069Z</time></trkpt><trkpt lat="44.7203967" lon="10.3416521"><ele>109.99999999999999</ele><time>2026-04-10T12:56:45.07Z</time></trkpt><trkpt lat="44.7203437" lon="10.3417139"><ele>110.0</ele><time>2026-04-10T12:56:46.069Z</time></trkpt><trkpt lat="44.7202192" lon="10.3417837"><ele>110.5</ele><time>2026-04-10T12:56:48.069Z</time></trkpt><trkpt lat="44.7201265" lon="10.3417911"><ele>111.0</ele><time>2026-04-10T12:56:49.068Z</time></trkpt><trkpt lat="44.7200245" lon="10.3417783"><ele>111.5</ele><time>2026-04-10T12:56:50.069Z</time></trkpt><trkpt lat="44.7199042" lon="10.3417507"><ele>112.0</ele><time>2026-04-10T12:56:51.068Z</time></trkpt><trkpt lat="44.7197742" lon="10.3417124"><ele>112.0</ele><time>2026-04-10T12:56:52.069Z</time></trkpt><trkpt lat="44.719648" lon="10.3416735"><ele>112.0</ele><time>2026-04-10T12:56:53.069Z</time></trkpt><trkpt lat="44.7195277" lon="10.3416387"><ele>112.0</ele><time>2026-04-10T12:56:54.069Z</time></trkpt><trkpt lat="44.719425" lon="10.3416124"><ele>112.0</ele><time>2026-04-10T12:56:55.068Z</time></trkpt><trkpt lat="44.7193317" lon="10.3415949"><ele>112.19999999999999</ele><time>2026-04-10T12:56:56.069Z</time></trkpt><trkpt lat="44.7192378" lon="10.3415948"><ele>112.39999999999999</ele><time>2026-04-10T12:56:57.069Z</time></trkpt><trkpt lat="44.7191395" lon="10.3416034"><ele>112.60000000000001</ele><time>2026-04-10T12:56:58.069Z</time></trkpt><trkpt lat="44.719042" lon="10.341637"><ele>112.80000000000001</ele><time>2026-04-10T12:56:59.069Z</time></trkpt><trkpt lat="44.7189428" lon="10.341712"><ele>113.0</ele><time>2026-04-10T12:57:00.068Z</time></trkpt><trkpt lat="44.7188618" lon="10.3417767"><ele>113.0</ele><time>2026-04-10T12:57:01.068Z</time></trkpt><trkpt lat="44.7187831" lon="10.3418667"><ele>113.00000000000001</ele><time>2026-04-10T12:57:02.069Z</time></trkpt><trkpt lat="44.7187255" lon="10.3419472"><ele>113.00000000000001</ele><time>2026-04-10T12:57:03.069Z</time></trkpt><trkpt lat="44.7186765" lon="10.3420115"><ele>113.0</ele><time>2026-04-10T12:57:04.068Z</time></trkpt><trkpt lat="44.7186182" lon="10.3421644"><ele>113.0</ele><time>2026-04-10T12:57:06.069Z</time></trkpt><trkpt lat="44.7185613" lon="10.3422947"><ele>113.83333333333333</ele><time>2026-04-10T12:57:08.069Z</time></trkpt><trkpt lat="44.7184991" lon="10.3423386"><ele>114.66666666666666</ele><time>2026-04-10T12:57:10.069Z</time></trkpt><trkpt lat="44.7184142" lon="10.3423673"><ele>115.5</ele><time>2026-04-10T12:57:15.069Z</time></trkpt><trkpt lat="44.7183505" lon="10.3424699"><ele>116.33333333333334</ele><time>2026-04-10T12:57:17.068Z</time></trkpt><trkpt lat="44.7183123" lon="10.3425599"><ele>117.16666666666667</ele><time>2026-04-10T12:57:18.068Z</time></trkpt><trkpt lat="44.7182759" lon="10.3426784"><ele>118.0</ele><time>2026-04-10T12:57:19.069Z</time></trkpt><trkpt lat="44.7182292" lon="10.342816"><ele>118.0</ele><time>2026-04-10T12:57:20.069Z</time></trkpt><trkpt lat="44.7181853" lon="10.3429468"><ele>118.0</ele><time>2026-04-10T12:57:21.069Z</time></trkpt><trkpt lat="44.7181308" lon="10.3430993"><ele>118.0</ele><time>2026-04-10T12:57:22.068Z</time></trkpt><trkpt lat="44.7180744" lon="10.3432639"><ele>118.0</ele><time>2026-04-10T12:57:23.069Z</time></trkpt><trkpt lat="44.7180182" lon="10.3434312"><ele>117.5</ele><time>2026-04-10T12:57:24.069Z</time></trkpt><trkpt lat="44.7179613" lon="10.3435913"><ele>117.0</ele><time>2026-04-10T12:57:25.069Z</time></trkpt><trkpt lat="44.7178996" lon="10.3437619"><ele>116.5</ele><time>2026-04-10T12:57:26.069Z</time></trkpt><trkpt lat="44.7178367" lon="10.3439373"><ele>116.0</ele><time>2026-04-10T12:57:27.069Z</time></trkpt><trkpt lat="44.7177753" lon="10.344117"><ele>116.0</ele><time>2026-04-10T12:57:28.069Z</time></trkpt><trkpt lat="44.7177134" lon="10.3442882"><ele>116.0</ele><time>2026-04-10T12:57:29.069Z</time></trkpt><trkpt lat="44.7176564" lon="10.3444627"><ele>116.0</ele><time>2026-04-10T12:57:30.068Z</time></trkpt><trkpt lat="44.7175947" lon="10.3446388"><ele>116.0</ele><time>2026-04-10T12:57:31.069Z</time></trkpt><trkpt lat="44.7175379" lon="10.3448117"><ele>116.0</ele><time>2026-04-10T12:57:32.068Z</time></trkpt><trkpt lat="44.7174849" lon="10.3449786"><ele>116.0</ele><time>2026-04-10T12:57:33.069Z</time></trkpt><trkpt lat="44.7174326" lon="10.3451485"><ele>116.0</ele><time>2026-04-10T12:57:34.068Z</time></trkpt><trkpt lat="44.717375" lon="10.3453178"><ele>116.0</ele><time>2026-04-10T12:57:35.069Z</time></trkpt><trkpt lat="44.7173191" lon="10.3454899"><ele>115.75</ele><time>2026-04-10T12:57:36.069Z</time></trkpt><trkpt lat="44.7172561" lon="10.3456658"><ele>115.5</ele><time>2026-04-10T12:57:37.069Z</time></trkpt><trkpt lat="44.7171959" lon="10.3458411"><ele>115.25</ele><time>2026-04-10T12:57:38.069Z</time></trkpt><trkpt lat="44.7171408" lon="10.3459971"><ele>115.0</ele><time>2026-04-10T12:57:39.069Z</time></trkpt><trkpt lat="44.7170921" lon="10.3461421"><ele>115.00000000000001</ele><time>2026-04-10T12:57:40.069Z</time></trkpt><trkpt lat="44.7170523" lon="10.3462791"><ele>115.0</ele><time>2026-04-10T12:57:41.07Z</time></trkpt><trkpt lat="44.7170124" lon="10.3464002"><ele>115.0</ele><time>2026-04-10T12:57:42.068Z</time></trkpt><trkpt lat="44.7169754" lon="10.3465116"><ele>115.0</ele><time>2026-04-10T12:57:43.07Z</time></trkpt><trkpt lat="44.7169446" lon="10.3466102"><ele>115.00000000000001</ele><time>2026-04-10T12:57:44.068Z</time></trkpt><trkpt lat="44.7169272" lon="10.3467002"><ele>115.0</ele><time>2026-04-10T12:57:45.069Z</time></trkpt><trkpt lat="44.7168624" lon="10.3467922"><ele>115.16666666666667</ele><time>2026-04-10T12:57:47.068Z</time></trkpt><trkpt lat="44.7167559" lon="10.3467718"><ele>115.33333333333334</ele><time>2026-04-10T12:57:49.069Z</time></trkpt><trkpt lat="44.7166795" lon="10.3467483"><ele>115.5</ele><time>2026-04-10T12:57:50.069Z</time></trkpt><trkpt lat="44.7166108" lon="10.3467222"><ele>115.66666666666666</ele><time>2026-04-10T12:57:51.069Z</time></trkpt><trkpt lat="44.7165215" lon="10.3466736"><ele>115.83333333333333</ele><time>2026-04-10T12:57:53.069Z</time></trkpt><trkpt lat="44.7164681" lon="10.3467315"><ele>116.0</ele><time>2026-04-10T12:57:56.069Z</time></trkpt><trkpt lat="44.716435" lon="10.3468709"><ele>116.0</ele><time>2026-04-10T12:57:58.069Z</time></trkpt><trkpt lat="44.7164036" lon="10.3469812"><ele>116.0</ele><time>2026-04-10T12:57:59.069Z</time></trkpt><trkpt lat="44.7163377" lon="10.3471236"><ele>116.0</ele><time>2026-04-10T12:58:01.07Z</time></trkpt><trkpt lat="44.716244" lon="10.3471537"><ele>116.0</ele><time>2026-04-10T12:58:03.068Z</time></trkpt><trkpt lat="44.7161762" lon="10.3471415"><ele>116.0</ele><time>2026-04-10T12:58:04.069Z</time></trkpt><trkpt lat="44.7160896" lon="10.3471163"><ele>116.33333333333333</ele><time>2026-04-10T12:58:05.069Z</time></trkpt><trkpt lat="44.7160105" lon="10.3470907"><ele>116.66666666666666</ele><time>2026-04-10T12:58:06.068Z</time></trkpt><trkpt lat="44.7158962" lon="10.3470636"><ele>117.0</ele><time>2026-04-10T12:58:08.069Z</time></trkpt><trkpt lat="44.7158148" lon="10.3470319"><ele>117.33333333333334</ele><time>2026-04-10T12:58:10.068Z</time></trkpt><trkpt lat="44.7157318" lon="10.3470195"><ele>117.66666666666667</ele><time>2026-04-10T12:58:12.068Z</time></trkpt><trkpt lat="44.7156591" lon="10.3470015"><ele>118.0</ele><time>2026-04-10T12:58:13.069Z</time></trkpt><trkpt lat="44.7155722" lon="10.3469687"><ele>118.00000000000001</ele><time>2026-04-10T12:58:14.069Z</time></trkpt><trkpt lat="44.7154828" lon="10.3469345"><ele>118.0</ele><time>2026-04-10T12:58:15.068Z</time></trkpt><trkpt lat="44.7154018" lon="10.3469079"><ele>118.0</ele><time>2026-04-10T12:58:16.069Z</time></trkpt><trkpt lat="44.7153155" lon="10.3468809"><ele>118.0</ele><time>2026-04-10T12:58:17.069Z</time></trkpt><trkpt lat="44.7152338" lon="10.3468535"><ele>118.00000000000001</ele><time>2026-04-10T12:58:18.069Z</time></trkpt><trkpt lat="44.7151633" lon="10.3468319"><ele>118.0</ele><time>2026-04-10T12:58:19.068Z</time></trkpt><trkpt lat="44.7150654" lon="10.3467929"><ele>117.80000000000001</ele><time>2026-04-10T12:58:21.069Z</time></trkpt><trkpt lat="44.7149522" lon="10.3467637"><ele>117.60000000000001</ele><time>2026-04-10T12:58:23.069Z</time></trkpt><trkpt lat="44.7148729" lon="10.3467593"><ele>117.39999999999999</ele><time>2026-04-10T12:58:24.069Z</time></trkpt><trkpt lat="44.7147765" lon="10.3467554"><ele>117.19999999999999</ele><time>2026-04-10T12:58:25.069Z</time></trkpt><trkpt lat="44.714672" lon="10.3467474"><ele>117.0</ele><time>2026-04-10T12:58:26.069Z</time></trkpt><trkpt lat="44.7145559" lon="10.3467412"><ele>117.0</ele><time>2026-04-10T12:58:27.069Z</time></trkpt><trkpt lat="44.714429" lon="10.3467321"><ele>117.0</ele><time>2026-04-10T12:58:28.069Z</time></trkpt><trkpt lat="44.7142881" lon="10.3467241"><ele>117.0</ele><time>2026-04-10T12:58:29.069Z</time></trkpt><trkpt lat="44.714153" lon="10.3467123"><ele>117.0</ele><time>2026-04-10T12:58:30.069Z</time></trkpt><trkpt lat="44.7140198" lon="10.3467037"><ele>117.0</ele><time>2026-04-10T12:58:31.069Z</time></trkpt><trkpt lat="44.7139021" lon="10.3466974"><ele>117.0</ele><time>2026-04-10T12:58:32.068Z</time></trkpt><trkpt lat="44.7137809" lon="10.346692"><ele>117.0</ele><time>2026-04-10T12:58:33.069Z</time></trkpt><trkpt lat="44.7136511" lon="10.3466821"><ele>117.0</ele><time>2026-04-10T12:58:34.069Z</time></trkpt><trkpt lat="44.7135309" lon="10.3466615"><ele>117.75</ele><time>2026-04-10T12:58:35.069Z</time></trkpt><trkpt lat="44.7134247" lon="10.3466334"><ele>118.5</ele><time>2026-04-10T12:58:36.07Z</time></trkpt><trkpt lat="44.7133143" lon="10.3466076"><ele>119.25</ele><time>2026-04-10T12:58:37.069Z</time></trkpt><trkpt lat="44.7131983" lon="10.346601"><ele>120.0</ele><time>2026-04-10T12:58:38.069Z</time></trkpt><trkpt lat="44.7130692" lon="10.3466052"><ele>120.0</ele><time>2026-04-10T12:58:39.068Z</time></trkpt><trkpt lat="44.7129547" lon="10.3466107"><ele>120.0</ele><time>2026-04-10T12:58:40.069Z</time></trkpt><trkpt lat="44.7128462" lon="10.3466091"><ele>120.0</ele><time>2026-04-10T12:58:41.069Z</time></trkpt><trkpt lat="44.7127216" lon="10.3466077"><ele>120.0</ele><time>2026-04-10T12:58:42.069Z</time></trkpt><trkpt lat="44.7125906" lon="10.3465896"><ele>119.75</ele><time>2026-04-10T12:58:43.069Z</time></trkpt><trkpt lat="44.7124503" lon="10.3465811"><ele>119.5</ele><time>2026-04-10T12:58:44.069Z</time></trkpt><trkpt lat="44.7123083" lon="10.3465704"><ele>119.25</ele><time>2026-04-10T12:58:45.069Z</time></trkpt><trkpt lat="44.7121647" lon="10.3465655"><ele>119.0</ele><time>2026-04-10T12:58:46.069Z</time></trkpt><trkpt lat="44.7120163" lon="10.3465646"><ele>119.66666666666666</ele><time>2026-04-10T12:58:47.069Z</time></trkpt><trkpt lat="44.7118631" lon="10.3465666"><ele>120.33333333333334</ele><time>2026-04-10T12:58:48.069Z</time></trkpt><trkpt lat="44.7117112" lon="10.3465687"><ele>121.0</ele><time>2026-04-10T12:58:49.069Z</time></trkpt><trkpt lat="44.7115641" lon="10.3465599"><ele>121.0</ele><time>2026-04-10T12:58:50.068Z</time></trkpt><trkpt lat="44.71142" lon="10.3465483"><ele>121.0</ele><time>2026-04-10T12:58:51.07Z</time></trkpt><trkpt lat="44.7112844" lon="10.3465327"><ele>121.0</ele><time>2026-04-10T12:58:52.069Z</time></trkpt><trkpt lat="44.7111688" lon="10.3465106"><ele>121.0</ele><time>2026-04-10T12:58:53.069Z</time></trkpt><trkpt lat="44.7110644" lon="10.3465008"><ele>120.83333333333334</ele><time>2026-04-10T12:58:54.069Z</time></trkpt><trkpt lat="44.710986" lon="10.3464875"><ele>120.66666666666667</ele><time>2026-04-10T12:58:55.069Z</time></trkpt><trkpt lat="44.7109138" lon="10.3464685"><ele>120.5</ele><time>2026-04-10T12:58:56.069Z</time></trkpt><trkpt lat="44.7107987" lon="10.3464181"><ele>120.33333333333334</ele><time>2026-04-10T12:58:58.068Z</time></trkpt><trkpt lat="44.7107194" lon="10.3464051"><ele>120.16666666666667</ele><time>2026-04-10T12:59:00.068Z</time></trkpt><trkpt lat="44.7106564" lon="10.3463946"><ele>120.0</ele><time>2026-04-10T12:59:02.068Z</time></trkpt><trkpt lat="44.7105832" lon="10.3464378"><ele>120.0</ele><time>2026-04-10T12:59:04.068Z</time></trkpt><trkpt lat="44.7104832" lon="10.3464223"><ele>120.0</ele><time>2026-04-10T12:59:06.068Z</time></trkpt><trkpt lat="44.7104074" lon="10.3463965"><ele>120.0</ele><time>2026-04-10T12:59:07.068Z</time></trkpt><trkpt lat="44.7103321" lon="10.3463746"><ele>120.0</ele><time>2026-04-10T12:59:08.067Z</time></trkpt><trkpt lat="44.7102589" lon="10.346364"><ele>120.0</ele><time>2026-04-10T12:59:09.067Z</time></trkpt><trkpt lat="44.7101769" lon="10.3463501"><ele>120.0</ele><time>2026-04-10T12:59:10.067Z</time></trkpt><trkpt lat="44.7100817" lon="10.3463395"><ele>120.6</ele><time>2026-04-10T12:59:11.067Z</time></trkpt><trkpt lat="44.7099915" lon="10.3463352"><ele>121.2</ele><time>2026-04-10T12:59:12.069Z</time></trkpt><trkpt lat="44.7098965" lon="10.3463348"><ele>121.80000000000001</ele><time>2026-04-10T12:59:13.068Z</time></trkpt><trkpt lat="44.7098111" lon="10.3463436"><ele>122.4</ele><time>2026-04-10T12:59:14.068Z</time></trkpt><trkpt lat="44.7097156" lon="10.3463522"><ele>123.0</ele><time>2026-04-10T12:59:15.068Z</time></trkpt><trkpt lat="44.7096191" lon="10.3463638"><ele>122.66666666666667</ele><time>2026-04-10T12:59:16.069Z</time></trkpt><trkpt lat="44.7095443" lon="10.346381"><ele>122.33333333333334</ele><time>2026-04-10T12:59:17.068Z</time></trkpt><trkpt lat="44.7094595" lon="10.3463943"><ele>122.0</ele><time>2026-04-10T12:59:18.067Z</time></trkpt><trkpt lat="44.7093662" lon="10.3464069"><ele>121.66666666666667</ele><time>2026-04-10T12:59:19.068Z</time></trkpt><trkpt lat="44.7092722" lon="10.3464204"><ele>121.33333333333334</ele><time>2026-04-10T12:59:20.068Z</time></trkpt><trkpt lat="44.7091902" lon="10.3464315"><ele>121.0</ele><time>2026-04-10T12:59:21.068Z</time></trkpt><trkpt lat="44.7091171" lon="10.3464405"><ele>121.66666666666667</ele><time>2026-04-10T12:59:22.068Z</time></trkpt><trkpt lat="44.7090462" lon="10.346442"><ele>122.33333333333334</ele><time>2026-04-10T12:59:23.068Z</time></trkpt><trkpt lat="44.7089656" lon="10.3464425"><ele>123.0</ele><time>2026-04-10T12:59:24.068Z</time></trkpt><trkpt lat="44.7088898" lon="10.3464504"><ele>123.66666666666666</ele><time>2026-04-10T12:59:25.068Z</time></trkpt><trkpt lat="44.7088042" lon="10.3464557"><ele>124.33333333333333</ele><time>2026-04-10T12:59:26.068Z</time></trkpt><trkpt lat="44.7087293" lon="10.3464624"><ele>125.0</ele><time>2026-04-10T12:59:27.068Z</time></trkpt><trkpt lat="44.7086516" lon="10.3464745"><ele>125.0</ele><time>2026-04-10T12:59:28.068Z</time></trkpt><trkpt lat="44.7085779" lon="10.3465018"><ele>125.0</ele><time>2026-04-10T12:59:29.068Z</time></trkpt><trkpt lat="44.7084991" lon="10.3465426"><ele>125.0</ele><time>2026-04-10T12:59:30.068Z</time></trkpt><trkpt lat="44.7084073" lon="10.3465956"><ele>125.0</ele><time>2026-04-10T12:59:31.068Z</time></trkpt><trkpt lat="44.7083128" lon="10.3466508"><ele>125.0</ele><time>2026-04-10T12:59:32.069Z</time></trkpt><trkpt lat="44.7082146" lon="10.3467061"><ele>125.0</ele><time>2026-04-10T12:59:33.068Z</time></trkpt><trkpt lat="44.7081027" lon="10.3467575"><ele>125.0</ele><time>2026-04-10T12:59:34.068Z</time></trkpt><trkpt lat="44.7079843" lon="10.3467934"><ele>125.0</ele><time>2026-04-10T12:59:35.068Z</time></trkpt><trkpt lat="44.7078639" lon="10.3468107"><ele>125.0</ele><time>2026-04-10T12:59:36.067Z</time></trkpt><trkpt lat="44.7077437" lon="10.3468087"><ele>125.0</ele><time>2026-04-10T12:59:37.068Z</time></trkpt><trkpt lat="44.7076177" lon="10.3467922"><ele>125.0</ele><time>2026-04-10T12:59:38.068Z</time></trkpt><trkpt lat="44.7075018" lon="10.3467562"><ele>125.0</ele><time>2026-04-10T12:59:39.068Z</time></trkpt><trkpt lat="44.7073711" lon="10.3467051"><ele>125.0</ele><time>2026-04-10T12:59:40.068Z</time></trkpt><trkpt lat="44.7072354" lon="10.3466397"><ele>125.0</ele><time>2026-04-10T12:59:41.068Z</time></trkpt><trkpt lat="44.7070949" lon="10.3465627"><ele>125.0</ele><time>2026-04-10T12:59:42.068Z</time></trkpt><trkpt lat="44.706943" lon="10.3464799"><ele>125.0</ele><time>2026-04-10T12:59:43.067Z</time></trkpt><trkpt lat="44.7068089" lon="10.346406"><ele>125.25</ele><time>2026-04-10T12:59:44.068Z</time></trkpt><trkpt lat="44.7066849" lon="10.346331"><ele>125.5</ele><time>2026-04-10T12:59:45.068Z</time></trkpt><trkpt lat="44.706557" lon="10.3462521"><ele>125.75</ele><time>2026-04-10T12:59:46.068Z</time></trkpt><trkpt lat="44.7064275" lon="10.3461827"><ele>126.0</ele><time>2026-04-10T12:59:47.068Z</time></trkpt><trkpt lat="44.7062958" lon="10.3461113"><ele>126.0</ele><time>2026-04-10T12:59:48.068Z</time></trkpt><trkpt lat="44.706167" lon="10.3460421"><ele>126.0</ele><time>2026-04-10T12:59:49.068Z</time></trkpt><trkpt lat="44.7060525" lon="10.3459813"><ele>126.0</ele><time>2026-04-10T12:59:50.068Z</time></trkpt><trkpt lat="44.7059457" lon="10.3459194"><ele>126.0</ele><time>2026-04-10T12:59:51.068Z</time></trkpt><trkpt lat="44.7058426" lon="10.3458579"><ele>126.0</ele><time>2026-04-10T12:59:52.069Z</time></trkpt><trkpt lat="44.7057491" lon="10.3458056"><ele>126.0</ele><time>2026-04-10T12:59:53.067Z</time></trkpt><trkpt lat="44.7056655" lon="10.345752"><ele>126.0</ele><time>2026-04-10T12:59:54.067Z</time></trkpt><trkpt lat="44.7055942" lon="10.3457028"><ele>126.0</ele><time>2026-04-10T12:59:55.068Z</time></trkpt><trkpt lat="44.7055331" lon="10.345656"><ele>126.0</ele><time>2026-04-10T12:59:56.067Z</time></trkpt><trkpt lat="44.705438" lon="10.345577"><ele>126.0</ele><time>2026-04-10T12:59:58.068Z</time></trkpt><trkpt lat="44.7053823" lon="10.3455254"><ele>126.0</ele><time>2026-04-10T12:59:59.068Z</time></trkpt><trkpt lat="44.7053013" lon="10.3454793"><ele>126.0</ele><time>2026-04-10T13:00:00.068Z</time></trkpt><trkpt lat="44.7052137" lon="10.3454312"><ele>126.0</ele><time>2026-04-10T13:00:01.068Z</time></trkpt><trkpt lat="44.7051168" lon="10.3453907"><ele>126.0</ele><time>2026-04-10T13:00:02.068Z</time></trkpt><trkpt lat="44.7050119" lon="10.3453446"><ele>126.75</ele><time>2026-04-10T13:00:03.068Z</time></trkpt><trkpt lat="44.7049028" lon="10.3452966"><ele>127.5</ele><time>2026-04-10T13:00:04.067Z</time></trkpt><trkpt lat="44.7047935" lon="10.3452549"><ele>128.25</ele><time>2026-04-10T13:00:05.068Z</time></trkpt><trkpt lat="44.7046798" lon="10.3452286"><ele>129.0</ele><time>2026-04-10T13:00:06.068Z</time></trkpt><trkpt lat="44.7045671" lon="10.3452121"><ele>129.0</ele><time>2026-04-10T13:00:07.068Z</time></trkpt><trkpt lat="44.7044533" lon="10.3452322"><ele>129.0</ele><time>2026-04-10T13:00:08.068Z</time></trkpt><trkpt lat="44.7043281" lon="10.3452896"><ele>129.0</ele><time>2026-04-10T13:00:09.067Z</time></trkpt><trkpt lat="44.7042088" lon="10.3453434"><ele>129.0</ele><time>2026-04-10T13:00:10.067Z</time></trkpt><trkpt lat="44.7040864" lon="10.3454173"><ele>129.0</ele><time>2026-04-10T13:00:11.068Z</time></trkpt><trkpt lat="44.7039754" lon="10.3454825"><ele>129.0</ele><time>2026-04-10T13:00:12.067Z</time></trkpt><trkpt lat="44.7038858" lon="10.345531"><ele>129.0</ele><time>2026-04-10T13:00:13.068Z</time></trkpt><trkpt lat="44.7037902" lon="10.3455775"><ele>129.0</ele><time>2026-04-10T13:00:14.067Z</time></trkpt><trkpt lat="44.7037041" lon="10.3455984"><ele>129.0</ele><time>2026-04-10T13:00:15.067Z</time></trkpt><trkpt lat="44.703606" lon="10.3456069"><ele>129.0</ele><time>2026-04-10T13:00:16.068Z</time></trkpt><trkpt lat="44.7035036" lon="10.3455268"><ele>129.0</ele><time>2026-04-10T13:00:17.068Z</time></trkpt><trkpt lat="44.7034022" lon="10.3454385"><ele>129.0</ele><time>2026-04-10T13:00:18.067Z</time></trkpt><trkpt lat="44.703295" lon="10.3453449"><ele>129.0</ele><time>2026-04-10T13:00:19.068Z</time></trkpt><trkpt lat="44.7031836" lon="10.3452398"><ele>129.0</ele><time>2026-04-10T13:00:20.068Z</time></trkpt><trkpt lat="44.7030764" lon="10.345148"><ele>129.0</ele><time>2026-04-10T13:00:21.068Z</time></trkpt><trkpt lat="44.7029609" lon="10.3450616"><ele>129.0</ele><time>2026-04-10T13:00:22.068Z</time></trkpt><trkpt lat="44.7028376" lon="10.3449737"><ele>129.0</ele><time>2026-04-10T13:00:23.068Z</time></trkpt><trkpt lat="44.7027102" lon="10.3448841"><ele>129.0</ele><time>2026-04-10T13:00:24.068Z</time></trkpt><trkpt lat="44.7025783" lon="10.3447927"><ele>129.0</ele><time>2026-04-10T13:00:25.068Z</time></trkpt><trkpt lat="44.702443" lon="10.3446911"><ele>129.0</ele><time>2026-04-10T13:00:26.068Z</time></trkpt><trkpt lat="44.7023186" lon="10.3445771"><ele>129.0</ele><time>2026-04-10T13:00:27.069Z</time></trkpt><trkpt lat="44.7021977" lon="10.344449"><ele>129.25</ele><time>2026-04-10T13:00:28.069Z</time></trkpt><trkpt lat="44.7020864" lon="10.3443166"><ele>129.5</ele><time>2026-04-10T13:00:29.067Z</time></trkpt><trkpt lat="44.7019734" lon="10.3441875"><ele>129.75</ele><time>2026-04-10T13:00:30.068Z</time></trkpt><trkpt lat="44.7018623" lon="10.3440517"><ele>130.0</ele><time>2026-04-10T13:00:31.068Z</time></trkpt><trkpt lat="44.7017502" lon="10.3439131"><ele>130.33333333333334</ele><time>2026-04-10T13:00:32.068Z</time></trkpt><trkpt lat="44.7016327" lon="10.3437749"><ele>130.66666666666666</ele><time>2026-04-10T13:00:33.068Z</time></trkpt><trkpt lat="44.70151" lon="10.343635"><ele>131.0</ele><time>2026-04-10T13:00:34.068Z</time></trkpt><trkpt lat="44.7013848" lon="10.3435024"><ele>131.0</ele><time>2026-04-10T13:00:35.067Z</time></trkpt><trkpt lat="44.7012564" lon="10.3433718"><ele>131.0</ele><time>2026-04-10T13:00:36.068Z</time></trkpt><trkpt lat="44.7011241" lon="10.3432444"><ele>131.0</ele><time>2026-04-10T13:00:37.068Z</time></trkpt><trkpt lat="44.7010019" lon="10.3431308"><ele>130.75</ele><time>2026-04-10T13:00:38.068Z</time></trkpt><trkpt lat="44.7008932" lon="10.3430289"><ele>130.5</ele><time>2026-04-10T13:00:39.067Z</time></trkpt><trkpt lat="44.7007958" lon="10.3429343"><ele>130.25</ele><time>2026-04-10T13:00:40.068Z</time></trkpt><trkpt lat="44.7007012" lon="10.34284"><ele>130.0</ele><time>2026-04-10T13:00:41.068Z</time></trkpt><trkpt lat="44.7006126" lon="10.3427522"><ele>130.0</ele><time>2026-04-10T13:00:42.067Z</time></trkpt><trkpt lat="44.7005328" lon="10.3426822"><ele>130.0</ele><time>2026-04-10T13:00:43.067Z</time></trkpt><trkpt lat="44.700461" lon="10.3426223"><ele>130.0</ele><time>2026-04-10T13:00:44.068Z</time></trkpt><trkpt lat="44.7004007" lon="10.3425825"><ele>130.0</ele><time>2026-04-10T13:00:45.067Z</time></trkpt><trkpt lat="44.7003195" lon="10.342557"><ele>130.0</ele><time>2026-04-10T13:00:47.068Z</time></trkpt><trkpt lat="44.700214" lon="10.3425565"><ele>130.0</ele><time>2026-04-10T13:00:59.068Z</time></trkpt><trkpt lat="44.7001054" lon="10.3426214"><ele>130.83333333333334</ele><time>2026-04-10T13:01:01.068Z</time></trkpt><trkpt lat="44.7000382" lon="10.3426663"><ele>131.66666666666669</ele><time>2026-04-10T13:01:02.069Z</time></trkpt><trkpt lat="44.6999747" lon="10.3427031"><ele>132.5</ele><time>2026-04-10T13:01:03.068Z</time></trkpt><trkpt lat="44.6998578" lon="10.3427284"><ele>133.33333333333334</ele><time>2026-04-10T13:01:05.068Z</time></trkpt><trkpt lat="44.6997492" lon="10.3427044"><ele>134.16666666666666</ele><time>2026-04-10T13:01:07.068Z</time></trkpt><trkpt lat="44.6996866" lon="10.3426759"><ele>135.0</ele><time>2026-04-10T13:01:08.068Z</time></trkpt><trkpt lat="44.6995815" lon="10.3426168"><ele>135.0</ele><time>2026-04-10T13:01:10.067Z</time></trkpt><trkpt lat="44.6994983" lon="10.3425528"><ele>135.0</ele><time>2026-04-10T13:01:12.068Z</time></trkpt><trkpt lat="44.6993991" lon="10.3424787"><ele>135.0</ele><time>2026-04-10T13:01:14.068Z</time></trkpt><trkpt lat="44.699342" lon="10.3424254"><ele>135.0</ele><time>2026-04-10T13:01:15.068Z</time></trkpt><trkpt lat="44.6992787" lon="10.3423626"><ele>135.0</ele><time>2026-04-10T13:01:16.068Z</time></trkpt><trkpt lat="44.6992151" lon="10.3423026"><ele>135.0</ele><time>2026-04-10T13:01:17.067Z</time></trkpt><trkpt lat="44.699158" lon="10.3422421"><ele>135.0</ele><time>2026-04-10T13:01:18.068Z</time></trkpt><trkpt lat="44.6991078" lon="10.3421845"><ele>135.0</ele><time>2026-04-10T13:01:19.067Z</time></trkpt><trkpt lat="44.699032" lon="10.342105"><ele>135.0</ele><time>2026-04-10T13:01:21.068Z</time></trkpt><trkpt lat="44.6989252" lon="10.3420145"><ele>135.0</ele><time>2026-04-10T13:01:23.068Z</time></trkpt><trkpt lat="44.6988667" lon="10.3419621"><ele>135.0</ele><time>2026-04-10T13:01:24.068Z</time></trkpt><trkpt lat="44.6988032" lon="10.341905"><ele>135.0</ele><time>2026-04-10T13:01:25.067Z</time></trkpt><trkpt lat="44.6986895" lon="10.3418475"><ele>135.0</ele><time>2026-04-10T13:01:27.067Z</time></trkpt><trkpt lat="44.6986234" lon="10.3417894"><ele>135.0</ele><time>2026-04-10T13:01:28.068Z</time></trkpt><trkpt lat="44.6985378" lon="10.3417537"><ele>135.0</ele><time>2026-04-10T13:01:29.068Z</time></trkpt><trkpt lat="44.6984565" lon="10.3417112"><ele>135.0</ele><time>2026-04-10T13:01:30.067Z</time></trkpt><trkpt lat="44.6983728" lon="10.3416644"><ele>135.0</ele><time>2026-04-10T13:01:31.068Z</time></trkpt><trkpt lat="44.6982903" lon="10.3416146"><ele>135.0</ele><time>2026-04-10T13:01:32.069Z</time></trkpt><trkpt lat="44.698208" lon="10.3415641"><ele>135.0</ele><time>2026-04-10T13:01:33.068Z</time></trkpt><trkpt lat="44.698137" lon="10.3415204"><ele>135.0</ele><time>2026-04-10T13:01:34.068Z</time></trkpt><trkpt lat="44.6980806" lon="10.3414739"><ele>135.0</ele><time>2026-04-10T13:01:35.068Z</time></trkpt><trkpt lat="44.6980206" lon="10.3414069"><ele>135.0</ele><time>2026-04-10T13:01:37.069Z</time></trkpt><trkpt lat="44.697936" lon="10.3413454"><ele>135.0</ele><time>2026-04-10T13:01:39.068Z</time></trkpt><trkpt lat="44.6978345" lon="10.3412856"><ele>135.0</ele><time>2026-04-10T13:01:41.068Z</time></trkpt><trkpt lat="44.6977134" lon="10.3412014"><ele>135.2</ele><time>2026-04-10T13:01:42.067Z</time></trkpt><trkpt lat="44.6976211" lon="10.3411312"><ele>135.4</ele><time>2026-04-10T13:01:43.068Z</time></trkpt><trkpt lat="44.6975386" lon="10.3410709"><ele>135.6</ele><time>2026-04-10T13:01:44.068Z</time></trkpt><trkpt lat="44.697462" lon="10.3410125"><ele>135.8</ele><time>2026-04-10T13:01:45.068Z</time></trkpt><trkpt lat="44.6973849" lon="10.3409629"><ele>136.0</ele><time>2026-04-10T13:01:46.067Z</time></trkpt><trkpt lat="44.6973055" lon="10.3409156"><ele>136.0</ele><time>2026-04-10T13:01:47.068Z</time></trkpt><trkpt lat="44.6972284" lon="10.3408851"><ele>136.0</ele><time>2026-04-10T13:01:48.068Z</time></trkpt><trkpt lat="44.697146" lon="10.3408596"><ele>136.0</ele><time>2026-04-10T13:01:49.068Z</time></trkpt><trkpt lat="44.69705" lon="10.3408325"><ele>136.0</ele><time>2026-04-10T13:01:50.068Z</time></trkpt><trkpt lat="44.6969403" lon="10.340826"><ele>136.0</ele><time>2026-04-10T13:01:52.068Z</time></trkpt><trkpt lat="44.6968459" lon="10.3407953"><ele>135.83333333333334</ele><time>2026-04-10T13:01:53.067Z</time></trkpt><trkpt lat="44.6967646" lon="10.3407763"><ele>135.66666666666669</ele><time>2026-04-10T13:01:54.067Z</time></trkpt><trkpt lat="44.6966836" lon="10.3407569"><ele>135.5</ele><time>2026-04-10T13:01:55.068Z</time></trkpt><trkpt lat="44.6966006" lon="10.3407339"><ele>135.33333333333334</ele><time>2026-04-10T13:01:56.068Z</time></trkpt><trkpt lat="44.6964926" lon="10.3407041"><ele>135.16666666666666</ele><time>2026-04-10T13:01:58.068Z</time></trkpt><trkpt lat="44.6964248" lon="10.3407069"><ele>135.0</ele><time>2026-04-10T13:01:59.068Z</time></trkpt><trkpt lat="44.6963644" lon="10.3406698"><ele>135.0</ele><time>2026-04-10T13:02:00.068Z</time></trkpt><trkpt lat="44.6962894" lon="10.340644"><ele>135.0</ele><time>2026-04-10T13:02:01.068Z</time></trkpt><trkpt lat="44.6962212" lon="10.3406051"><ele>135.0</ele><time>2026-04-10T13:02:02.069Z</time></trkpt><trkpt lat="44.6961571" lon="10.3405538"><ele>135.0</ele><time>2026-04-10T13:02:03.068Z</time></trkpt><trkpt lat="44.6960478" lon="10.3404856"><ele>135.0</ele><time>2026-04-10T13:02:05.068Z</time></trkpt><trkpt lat="44.6959553" lon="10.3403741"><ele>136.0</ele><time>2026-04-10T13:02:07.068Z</time></trkpt><trkpt lat="44.6959038" lon="10.3402908"><ele>137.0</ele><time>2026-04-10T13:02:08.068Z</time></trkpt><trkpt lat="44.6958373" lon="10.3402005"><ele>138.0</ele><time>2026-04-10T13:02:09.068Z</time></trkpt><trkpt lat="44.6957892" lon="10.3401295"><ele>139.0</ele><time>2026-04-10T13:02:10.068Z</time></trkpt><trkpt lat="44.6957396" lon="10.3400725"><ele>140.0</ele><time>2026-04-10T13:02:11.067Z</time></trkpt><trkpt lat="44.6956766" lon="10.3400276"><ele>141.0</ele><time>2026-04-10T13:02:13.068Z</time></trkpt><trkpt lat="44.6955835" lon="10.3400077"><ele>141.0</ele><time>2026-04-10T13:02:16.068Z</time></trkpt><trkpt lat="44.6954593" lon="10.339962"><ele>141.0</ele><time>2026-04-10T13:02:18.068Z</time></trkpt><trkpt lat="44.6953807" lon="10.3399275"><ele>141.0</ele><time>2026-04-10T13:02:19.067Z</time></trkpt><trkpt lat="44.695289" lon="10.3398846"><ele>141.0</ele><time>2026-04-10T13:02:20.068Z</time></trkpt><trkpt lat="44.6951869" lon="10.3398371"><ele>141.0</ele><time>2026-04-10T13:02:21.067Z</time></trkpt><trkpt lat="44.6950793" lon="10.3397857"><ele>141.5</ele><time>2026-04-10T13:02:22.068Z</time></trkpt><trkpt lat="44.6949709" lon="10.339737"><ele>142.0</ele><time>2026-04-10T13:02:23.068Z</time></trkpt><trkpt lat="44.6948514" lon="10.3396867"><ele>142.5</ele><time>2026-04-10T13:02:24.068Z</time></trkpt><trkpt lat="44.6947302" lon="10.3396344"><ele>143.0</ele><time>2026-04-10T13:02:25.067Z</time></trkpt><trkpt lat="44.6946097" lon="10.339574"><ele>143.0</ele><time>2026-04-10T13:02:26.068Z</time></trkpt><trkpt lat="44.6945119" lon="10.3395257"><ele>143.0</ele><time>2026-04-10T13:02:27.068Z</time></trkpt><trkpt lat="44.694423" lon="10.3394922"><ele>143.0</ele><time>2026-04-10T13:02:28.067Z</time></trkpt><trkpt lat="44.6943387" lon="10.3394498"><ele>143.0</ele><time>2026-04-10T13:02:29.067Z</time></trkpt><trkpt lat="44.6942328" lon="10.3393987"><ele>143.0</ele><time>2026-04-10T13:02:30.067Z</time></trkpt><trkpt lat="44.6941209" lon="10.3393453"><ele>143.0</ele><time>2026-04-10T13:02:31.067Z</time></trkpt><trkpt lat="44.6940021" lon="10.3392868"><ele>143.0</ele><time>2026-04-10T13:02:32.067Z</time></trkpt><trkpt lat="44.693895" lon="10.3392277"><ele>143.0</ele><time>2026-04-10T13:02:33.067Z</time></trkpt><trkpt lat="44.6937931" lon="10.3391723"><ele>143.0</ele><time>2026-04-10T13:02:34.066Z</time></trkpt><trkpt lat="44.6937115" lon="10.3391258"><ele>143.0</ele><time>2026-04-10T13:02:35.067Z</time></trkpt><trkpt lat="44.6936354" lon="10.3390867"><ele>143.0</ele><time>2026-04-10T13:02:36.067Z</time></trkpt><trkpt lat="44.6935699" lon="10.3390318"><ele>143.0</ele><time>2026-04-10T13:02:37.067Z</time></trkpt><trkpt lat="44.693509" lon="10.3390092"><ele>143.0</ele><time>2026-04-10T13:02:38.066Z</time></trkpt><trkpt lat="44.69344" lon="10.338956"><ele>143.0</ele><time>2026-04-10T13:02:40.067Z</time></trkpt><trkpt lat="44.6933731" lon="10.3389017"><ele>143.0</ele><time>2026-04-10T13:02:42.066Z</time></trkpt><trkpt lat="44.6932361" lon="10.3388382"><ele>143.0</ele><time>2026-04-10T13:02:44.066Z</time></trkpt><trkpt lat="44.6931621" lon="10.3388134"><ele>142.8</ele><time>2026-04-10T13:02:45.067Z</time></trkpt><trkpt lat="44.6930474" lon="10.3387406"><ele>142.60000000000002</ele><time>2026-04-10T13:02:47.067Z</time></trkpt><trkpt lat="44.6929696" lon="10.3386953"><ele>142.39999999999998</ele><time>2026-04-10T13:02:48.066Z</time></trkpt><trkpt lat="44.6928859" lon="10.3386402"><ele>142.2</ele><time>2026-04-10T13:02:49.067Z</time></trkpt><trkpt lat="44.6927957" lon="10.3385849"><ele>142.0</ele><time>2026-04-10T13:02:50.067Z</time></trkpt><trkpt lat="44.6927086" lon="10.3385351"><ele>141.83333333333334</ele><time>2026-04-10T13:02:51.067Z</time></trkpt><trkpt lat="44.6926323" lon="10.3384843"><ele>141.66666666666669</ele><time>2026-04-10T13:02:52.067Z</time></trkpt><trkpt lat="44.6925787" lon="10.3384321"><ele>141.5</ele><time>2026-04-10T13:02:53.067Z</time></trkpt><trkpt lat="44.6925225" lon="10.3383785"><ele>141.33333333333334</ele><time>2026-04-10T13:02:54.066Z</time></trkpt><trkpt lat="44.6924509" lon="10.33824"><ele>141.16666666666666</ele><time>2026-04-10T13:02:56.067Z</time></trkpt><trkpt lat="44.6924062" lon="10.3381676"><ele>141.0</ele><time>2026-04-10T13:02:57.068Z</time></trkpt><trkpt lat="44.6923586" lon="10.3381008"><ele>141.2</ele><time>2026-04-10T13:02:58.066Z</time></trkpt><trkpt lat="44.6923043" lon="10.3380474"><ele>141.39999999999998</ele><time>2026-04-10T13:02:59.067Z</time></trkpt><trkpt lat="44.6922287" lon="10.3379961"><ele>141.6</ele><time>2026-04-10T13:03:00.068Z</time></trkpt><trkpt lat="44.6921336" lon="10.3379582"><ele>141.79999999999998</ele><time>2026-04-10T13:03:01.067Z</time></trkpt><trkpt lat="44.6920304" lon="10.3379229"><ele>142.0</ele><time>2026-04-10T13:03:02.067Z</time></trkpt><trkpt lat="44.6919235" lon="10.3378781"><ele>141.5</ele><time>2026-04-10T13:03:03.066Z</time></trkpt><trkpt lat="44.6918099" lon="10.337825"><ele>141.0</ele><time>2026-04-10T13:03:04.067Z</time></trkpt><trkpt lat="44.6916969" lon="10.3377523"><ele>140.5</ele><time>2026-04-10T13:03:05.067Z</time></trkpt><trkpt lat="44.6915813" lon="10.3376606"><ele>140.0</ele><time>2026-04-10T13:03:06.067Z</time></trkpt><trkpt lat="44.6914595" lon="10.3375658"><ele>140.0</ele><time>2026-04-10T13:03:07.066Z</time></trkpt><trkpt lat="44.6913326" lon="10.3374692"><ele>140.0</ele><time>2026-04-10T13:03:08.067Z</time></trkpt><trkpt lat="44.6911971" lon="10.3373683"><ele>140.0</ele><time>2026-04-10T13:03:09.067Z</time></trkpt><trkpt lat="44.6910602" lon="10.3372675"><ele>141.33333333333331</ele><time>2026-04-10T13:03:10.068Z</time></trkpt><trkpt lat="44.6909228" lon="10.3371644"><ele>142.66666666666666</ele><time>2026-04-10T13:03:11.066Z</time></trkpt><trkpt lat="44.6907813" lon="10.3370643"><ele>144.0</ele><time>2026-04-10T13:03:12.066Z</time></trkpt><trkpt lat="44.6906531" lon="10.3369762"><ele>144.0</ele><time>2026-04-10T13:03:13.067Z</time></trkpt><trkpt lat="44.6905397" lon="10.3368926"><ele>144.0</ele><time>2026-04-10T13:03:14.068Z</time></trkpt><trkpt lat="44.6904391" lon="10.3368161"><ele>144.0</ele><time>2026-04-10T13:03:15.068Z</time></trkpt><trkpt lat="44.6903616" lon="10.336751"><ele>144.0</ele><time>2026-04-10T13:03:16.066Z</time></trkpt><trkpt lat="44.6903068" lon="10.3367"><ele>144.0</ele><time>2026-04-10T13:03:17.066Z</time></trkpt><trkpt lat="44.6902482" lon="10.3366512"><ele>144.0</ele><time>2026-04-10T13:03:19.067Z</time></trkpt><trkpt lat="44.6901719" lon="10.3366794"><ele>144.0</ele><time>2026-04-10T13:03:22.066Z</time></trkpt><trkpt lat="44.6901081" lon="10.3366828"><ele>144.0</ele><time>2026-04-10T13:03:24.066Z</time></trkpt><trkpt lat="44.6900125" lon="10.3366121"><ele>144.0</ele><time>2026-04-10T13:03:26.067Z</time></trkpt><trkpt lat="44.689919" lon="10.3365396"><ele>144.0</ele><time>2026-04-10T13:03:28.066Z</time></trkpt><trkpt lat="44.6898629" lon="10.3364956"><ele>144.0</ele><time>2026-04-10T13:03:29.067Z</time></trkpt><trkpt lat="44.689796" lon="10.3364494"><ele>144.0</ele><time>2026-04-10T13:03:30.067Z</time></trkpt><trkpt lat="44.6897306" lon="10.336396"><ele>144.0</ele><time>2026-04-10T13:03:31.067Z</time></trkpt><trkpt lat="44.6896588" lon="10.3363462"><ele>144.0</ele><time>2026-04-10T13:03:32.067Z</time></trkpt><trkpt lat="44.689586" lon="10.3362965"><ele>144.0</ele><time>2026-04-10T13:03:33.067Z</time></trkpt><trkpt lat="44.6895143" lon="10.3362435"><ele>144.0</ele><time>2026-04-10T13:03:34.067Z</time></trkpt><trkpt lat="44.6894539" lon="10.3361981"><ele>144.0</ele><time>2026-04-10T13:03:35.067Z</time></trkpt><trkpt lat="44.6893924" lon="10.3361611"><ele>144.5</ele><time>2026-04-10T13:03:36.067Z</time></trkpt><trkpt lat="44.6893217" lon="10.3361274"><ele>145.0</ele><time>2026-04-10T13:03:37.067Z</time></trkpt><trkpt lat="44.6892382" lon="10.3360897"><ele>145.5</ele><time>2026-04-10T13:03:38.066Z</time></trkpt><trkpt lat="44.6891593" lon="10.3360495"><ele>146.0</ele><time>2026-04-10T13:03:39.067Z</time></trkpt><trkpt lat="44.6890689" lon="10.3360022"><ele>146.5</ele><time>2026-04-10T13:03:40.067Z</time></trkpt><trkpt lat="44.6889717" lon="10.3359491"><ele>147.0</ele><time>2026-04-10T13:03:41.067Z</time></trkpt><trkpt lat="44.6888748" lon="10.3358957"><ele>147.0</ele><time>2026-04-10T13:03:42.067Z</time></trkpt><trkpt lat="44.6887869" lon="10.3358459"><ele>147.0</ele><time>2026-04-10T13:03:43.067Z</time></trkpt><trkpt lat="44.688715" lon="10.3358016"><ele>147.0</ele><time>2026-04-10T13:03:44.067Z</time></trkpt><trkpt lat="44.6886293" lon="10.3357634"><ele>147.0</ele><time>2026-04-10T13:03:46.067Z</time></trkpt><trkpt lat="44.6885597" lon="10.3357206"><ele>147.0</ele><time>2026-04-10T13:03:48.067Z</time></trkpt><trkpt lat="44.6884545" lon="10.3356498"><ele>146.83333333333334</ele><time>2026-04-10T13:03:50.067Z</time></trkpt><trkpt lat="44.6883984" lon="10.3356066"><ele>146.66666666666666</ele><time>2026-04-10T13:03:51.067Z</time></trkpt><trkpt lat="44.6883118" lon="10.3355526"><ele>146.5</ele><time>2026-04-10T13:03:53.067Z</time></trkpt><trkpt lat="44.6882369" lon="10.3355301"><ele>146.33333333333331</ele><time>2026-04-10T13:03:55.066Z</time></trkpt><trkpt lat="44.6881354" lon="10.3355269"><ele>146.16666666666666</ele><time>2026-04-10T13:03:57.067Z</time></trkpt><trkpt lat="44.6880686" lon="10.3355132"><ele>146.0</ele><time>2026-04-10T13:03:58.067Z</time></trkpt><trkpt lat="44.6879331" lon="10.3355432"><ele>145.8</ele><time>2026-04-10T13:04:00.067Z</time></trkpt><trkpt lat="44.6878648" lon="10.3355363"><ele>145.6</ele><time>2026-04-10T13:04:01.067Z</time></trkpt><trkpt lat="44.6877962" lon="10.3355399"><ele>145.4</ele><time>2026-04-10T13:04:02.067Z</time></trkpt><trkpt lat="44.6876948" lon="10.3355579"><ele>145.2</ele><time>2026-04-10T13:04:04.066Z</time></trkpt><trkpt lat="44.687571" lon="10.3355823"><ele>145.0</ele><time>2026-04-10T13:04:06.067Z</time></trkpt><trkpt lat="44.6874394" lon="10.3355955"><ele>145.6</ele><time>2026-04-10T13:04:08.068Z</time></trkpt><trkpt lat="44.6873742" lon="10.3355936"><ele>146.2</ele><time>2026-04-10T13:04:09.067Z</time></trkpt><trkpt lat="44.687285" lon="10.3355686"><ele>146.8</ele><time>2026-04-10T13:04:10.067Z</time></trkpt><trkpt lat="44.6871752" lon="10.3356212"><ele>147.4</ele><time>2026-04-10T13:04:11.067Z</time></trkpt><trkpt lat="44.6870818" lon="10.3356443"><ele>148.0</ele><time>2026-04-10T13:04:12.066Z</time></trkpt><trkpt lat="44.6869847" lon="10.33566"><ele>148.20000000000002</ele><time>2026-04-10T13:04:13.067Z</time></trkpt><trkpt lat="44.6868798" lon="10.3356783"><ele>148.4</ele><time>2026-04-10T13:04:14.068Z</time></trkpt><trkpt lat="44.6867904" lon="10.3356797"><ele>148.60000000000002</ele><time>2026-04-10T13:04:15.068Z</time></trkpt><trkpt lat="44.6867144" lon="10.3356862"><ele>148.8</ele><time>2026-04-10T13:04:16.067Z</time></trkpt><trkpt lat="44.6866364" lon="10.335705"><ele>149.0</ele><time>2026-04-10T13:04:17.066Z</time></trkpt><trkpt lat="44.6864909" lon="10.3357332"><ele>149.0</ele><time>2026-04-10T13:04:19.067Z</time></trkpt><trkpt lat="44.6864015" lon="10.3357566"><ele>149.0</ele><time>2026-04-10T13:04:20.067Z</time></trkpt><trkpt lat="44.6863152" lon="10.3357657"><ele>149.0</ele><time>2026-04-10T13:04:21.067Z</time></trkpt><trkpt lat="44.6862369" lon="10.335774"><ele>149.0</ele><time>2026-04-10T13:04:22.067Z</time></trkpt><trkpt lat="44.686173" lon="10.3357734"><ele>149.0</ele><time>2026-04-10T13:04:23.066Z</time></trkpt><trkpt lat="44.6860988" lon="10.3357746"><ele>149.0</ele><time>2026-04-10T13:04:24.067Z</time></trkpt><trkpt lat="44.6860233" lon="10.335785"><ele>149.2</ele><time>2026-04-10T13:04:25.067Z</time></trkpt><trkpt lat="44.6859338" lon="10.3357617"><ele>149.4</ele><time>2026-04-10T13:04:26.066Z</time></trkpt><trkpt lat="44.6858497" lon="10.3357303"><ele>149.6</ele><time>2026-04-10T13:04:27.067Z</time></trkpt><trkpt lat="44.6857464" lon="10.335684"><ele>149.8</ele><time>2026-04-10T13:04:28.067Z</time></trkpt><trkpt lat="44.6856489" lon="10.3356465"><ele>150.0</ele><time>2026-04-10T13:04:29.067Z</time></trkpt><trkpt lat="44.6855673" lon="10.3356191"><ele>150.0</ele><time>2026-04-10T13:04:30.067Z</time></trkpt><trkpt lat="44.6854792" lon="10.3356067"><ele>150.0</ele><time>2026-04-10T13:04:31.068Z</time></trkpt><trkpt lat="44.6854096" lon="10.3355909"><ele>150.0</ele><time>2026-04-10T13:04:32.067Z</time></trkpt><trkpt lat="44.6853305" lon="10.335554"><ele>150.0</ele><time>2026-04-10T13:04:34.066Z</time></trkpt><trkpt lat="44.6851889" lon="10.3355118"><ele>150.0</ele><time>2026-04-10T13:04:36.066Z</time></trkpt><trkpt lat="44.6851122" lon="10.3354748"><ele>149.8</ele><time>2026-04-10T13:04:37.066Z</time></trkpt><trkpt lat="44.685026" lon="10.3354473"><ele>149.6</ele><time>2026-04-10T13:04:38.066Z</time></trkpt><trkpt lat="44.6849313" lon="10.3354193"><ele>149.4</ele><time>2026-04-10T13:04:39.066Z</time></trkpt><trkpt lat="44.6848351" lon="10.3353954"><ele>149.2</ele><time>2026-04-10T13:04:40.067Z</time></trkpt><trkpt lat="44.6847413" lon="10.335371"><ele>149.0</ele><time>2026-04-10T13:04:41.067Z</time></trkpt><trkpt lat="44.6846518" lon="10.3353599"><ele>149.0</ele><time>2026-04-10T13:04:42.067Z</time></trkpt><trkpt lat="44.6845612" lon="10.3353489"><ele>149.0</ele><time>2026-04-10T13:04:43.067Z</time></trkpt><trkpt lat="44.6844935" lon="10.3353566"><ele>149.0</ele><time>2026-04-10T13:04:44.066Z</time></trkpt><trkpt lat="44.6844075" lon="10.3353794"><ele>149.0</ele><time>2026-04-10T13:04:45.066Z</time></trkpt><trkpt lat="44.6842838" lon="10.3354125"><ele>149.0</ele><time>2026-04-10T13:04:47.068Z</time></trkpt><trkpt lat="44.6841464" lon="10.3354483"><ele>149.16666666666666</ele><time>2026-04-10T13:04:49.067Z</time></trkpt><trkpt lat="44.684078" lon="10.3354641"><ele>149.33333333333331</ele><time>2026-04-10T13:04:50.067Z</time></trkpt><trkpt lat="44.6840006" lon="10.3354747"><ele>149.5</ele><time>2026-04-10T13:04:51.067Z</time></trkpt><trkpt lat="44.6839121" lon="10.3354753"><ele>149.66666666666666</ele><time>2026-04-10T13:04:52.067Z</time></trkpt><trkpt lat="44.68385" lon="10.3355049"><ele>149.83333333333334</ele><time>2026-04-10T13:04:53.067Z</time></trkpt><trkpt lat="44.6837647" lon="10.3355171"><ele>150.0</ele><time>2026-04-10T13:04:54.066Z</time></trkpt><trkpt lat="44.6836954" lon="10.3355401"><ele>150.0</ele><time>2026-04-10T13:04:55.067Z</time></trkpt><trkpt lat="44.6836277" lon="10.3355497"><ele>150.0</ele><time>2026-04-10T13:04:56.066Z</time></trkpt><trkpt lat="44.6835626" lon="10.3355501"><ele>150.0</ele><time>2026-04-10T13:04:57.067Z</time></trkpt><trkpt lat="44.6834773" lon="10.3355718"><ele>150.0</ele><time>2026-04-10T13:04:58.067Z</time></trkpt><trkpt lat="44.6833849" lon="10.3355944"><ele>150.0</ele><time>2026-04-10T13:04:59.067Z</time></trkpt><trkpt lat="44.6832995" lon="10.3356218"><ele>150.0</ele><time>2026-04-10T13:05:00.066Z</time></trkpt><trkpt lat="44.6832099" lon="10.3356633"><ele>150.8</ele><time>2026-04-10T13:05:01.066Z</time></trkpt><trkpt lat="44.6831036" lon="10.3356583"><ele>151.6</ele><time>2026-04-10T13:05:03.066Z</time></trkpt><trkpt lat="44.6829754" lon="10.3356576"><ele>152.4</ele><time>2026-04-10T13:05:05.066Z</time></trkpt><trkpt lat="44.6828856" lon="10.3356038"><ele>153.2</ele><time>2026-04-10T13:05:07.067Z</time></trkpt><trkpt lat="44.6828351" lon="10.3356834"><ele>154.0</ele><time>2026-04-10T13:05:10.066Z</time></trkpt><trkpt lat="44.6827391" lon="10.3357118"><ele>154.0</ele><time>2026-04-10T13:05:13.067Z</time></trkpt><trkpt lat="44.6826764" lon="10.3356845"><ele>154.0</ele><time>2026-04-10T13:05:14.067Z</time></trkpt><trkpt lat="44.6825896" lon="10.3356486"><ele>154.0</ele><time>2026-04-10T13:05:15.067Z</time></trkpt><trkpt lat="44.6824771" lon="10.3356016"><ele>154.0</ele><time>2026-04-10T13:05:16.067Z</time></trkpt><trkpt lat="44.6823557" lon="10.3355483"><ele>154.0</ele><time>2026-04-10T13:05:17.067Z</time></trkpt><trkpt lat="44.68221" lon="10.3354829"><ele>153.66666666666669</ele><time>2026-04-10T13:05:18.067Z</time></trkpt><trkpt lat="44.6820534" lon="10.3354182"><ele>153.33333333333334</ele><time>2026-04-10T13:05:19.067Z</time></trkpt><trkpt lat="44.6818931" lon="10.3353473"><ele>153.0</ele><time>2026-04-10T13:05:20.067Z</time></trkpt><trkpt lat="44.6817351" lon="10.3352743"><ele>152.75</ele><time>2026-04-10T13:05:21.066Z</time></trkpt><trkpt lat="44.6815821" lon="10.3352093"><ele>152.5</ele><time>2026-04-10T13:05:22.066Z</time></trkpt><trkpt lat="44.6814383" lon="10.3351463"><ele>152.25</ele><time>2026-04-10T13:05:23.067Z</time></trkpt><trkpt lat="44.681308" lon="10.3350906"><ele>152.0</ele><time>2026-04-10T13:05:24.067Z</time></trkpt><trkpt lat="44.6811872" lon="10.3350403"><ele>152.6</ele><time>2026-04-10T13:05:25.067Z</time></trkpt><trkpt lat="44.6810747" lon="10.3349926"><ele>153.2</ele><time>2026-04-10T13:05:26.067Z</time></trkpt><trkpt lat="44.6809743" lon="10.3349565"><ele>153.8</ele><time>2026-04-10T13:05:27.066Z</time></trkpt><trkpt lat="44.6808688" lon="10.3349193"><ele>154.4</ele><time>2026-04-10T13:05:28.066Z</time></trkpt><trkpt lat="44.6807536" lon="10.3348877"><ele>155.0</ele><time>2026-04-10T13:05:29.067Z</time></trkpt><trkpt lat="44.6806521" lon="10.3348577"><ele>155.0</ele><time>2026-04-10T13:05:30.067Z</time></trkpt><trkpt lat="44.6805467" lon="10.334825"><ele>155.0</ele><time>2026-04-10T13:05:31.067Z</time></trkpt><trkpt lat="44.6804361" lon="10.3347833"><ele>155.0</ele><time>2026-04-10T13:05:32.067Z</time></trkpt><trkpt lat="44.6803232" lon="10.3347295"><ele>155.0</ele><time>2026-04-10T13:05:33.067Z</time></trkpt><trkpt lat="44.6802296" lon="10.3346598"><ele>155.0</ele><time>2026-04-10T13:05:34.067Z</time></trkpt><trkpt lat="44.6801449" lon="10.3346007"><ele>155.16666666666666</ele><time>2026-04-10T13:05:35.067Z</time></trkpt><trkpt lat="44.6800692" lon="10.3345499"><ele>155.33333333333331</ele><time>2026-04-10T13:05:36.067Z</time></trkpt><trkpt lat="44.6800049" lon="10.3345134"><ele>155.5</ele><time>2026-04-10T13:05:37.066Z</time></trkpt><trkpt lat="44.6799371" lon="10.3345032"><ele>155.66666666666666</ele><time>2026-04-10T13:05:38.067Z</time></trkpt><trkpt lat="44.6798712" lon="10.3345137"><ele>155.83333333333334</ele><time>2026-04-10T13:05:39.066Z</time></trkpt><trkpt lat="44.679795" lon="10.3345617"><ele>156.0</ele><time>2026-04-10T13:05:40.067Z</time></trkpt><trkpt lat="44.6797054" lon="10.3346234"><ele>156.0</ele><time>2026-04-10T13:05:41.067Z</time></trkpt><trkpt lat="44.6796036" lon="10.334695"><ele>156.0</ele><time>2026-04-10T13:05:42.067Z</time></trkpt><trkpt lat="44.6794965" lon="10.3347738"><ele>156.0</ele><time>2026-04-10T13:05:43.067Z</time></trkpt><trkpt lat="44.6793817" lon="10.3348555"><ele>156.0</ele><time>2026-04-10T13:05:44.067Z</time></trkpt><trkpt lat="44.6792702" lon="10.3349366"><ele>155.8</ele><time>2026-04-10T13:05:45.066Z</time></trkpt><trkpt lat="44.6791717" lon="10.3350114"><ele>155.6</ele><time>2026-04-10T13:05:46.067Z</time></trkpt><trkpt lat="44.6790799" lon="10.3350626"><ele>155.4</ele><time>2026-04-10T13:05:47.066Z</time></trkpt><trkpt lat="44.6789885" lon="10.3350611"><ele>155.2</ele><time>2026-04-10T13:05:48.066Z</time></trkpt><trkpt lat="44.678875" lon="10.3350245"><ele>155.0</ele><time>2026-04-10T13:05:49.066Z</time></trkpt><trkpt lat="44.6787488" lon="10.3349636"><ele>155.0</ele><time>2026-04-10T13:05:50.067Z</time></trkpt><trkpt lat="44.6786152" lon="10.334885"><ele>155.0</ele><time>2026-04-10T13:05:51.066Z</time></trkpt><trkpt lat="44.678478" lon="10.3347977"><ele>155.0</ele><time>2026-04-10T13:05:52.067Z</time></trkpt><trkpt lat="44.6783401" lon="10.3347146"><ele>155.0</ele><time>2026-04-10T13:05:53.067Z</time></trkpt><trkpt lat="44.6781995" lon="10.334638"><ele>155.33333333333331</ele><time>2026-04-10T13:05:54.067Z</time></trkpt><trkpt lat="44.6780536" lon="10.3345549"><ele>155.66666666666666</ele><time>2026-04-10T13:05:55.067Z</time></trkpt><trkpt lat="44.6779154" lon="10.3344716"><ele>156.0</ele><time>2026-04-10T13:05:56.067Z</time></trkpt><trkpt lat="44.6777747" lon="10.3343936"><ele>156.5</ele><time>2026-04-10T13:05:57.067Z</time></trkpt><trkpt lat="44.6776368" lon="10.3343292"><ele>157.0</ele><time>2026-04-10T13:05:58.066Z</time></trkpt><trkpt lat="44.6775004" lon="10.3342723"><ele>157.5</ele><time>2026-04-10T13:05:59.067Z</time></trkpt><trkpt lat="44.6773706" lon="10.3342236"><ele>158.0</ele><time>2026-04-10T13:06:00.067Z</time></trkpt><trkpt lat="44.6772391" lon="10.3341701"><ele>158.0</ele><time>2026-04-10T13:06:01.067Z</time></trkpt><trkpt lat="44.677109" lon="10.334104"><ele>158.0</ele><time>2026-04-10T13:06:02.067Z</time></trkpt><trkpt lat="44.676982" lon="10.3340267"><ele>158.0</ele><time>2026-04-10T13:06:03.067Z</time></trkpt><trkpt lat="44.6768788" lon="10.3339427"><ele>158.0</ele><time>2026-04-10T13:06:04.067Z</time></trkpt><trkpt lat="44.6767855" lon="10.3338616"><ele>158.0</ele><time>2026-04-10T13:06:05.066Z</time></trkpt><trkpt lat="44.6767039" lon="10.3337815"><ele>158.0</ele><time>2026-04-10T13:06:06.067Z</time></trkpt><trkpt lat="44.6766305" lon="10.3337099"><ele>158.0</ele><time>2026-04-10T13:06:07.067Z</time></trkpt><trkpt lat="44.6765587" lon="10.3336345"><ele>158.0</ele><time>2026-04-10T13:06:08.067Z</time></trkpt><trkpt lat="44.6764676" lon="10.3335356"><ele>158.0</ele><time>2026-04-10T13:06:09.067Z</time></trkpt><trkpt lat="44.6763754" lon="10.3334319"><ele>158.0</ele><time>2026-04-10T13:06:10.066Z</time></trkpt><trkpt lat="44.676282" lon="10.3333261"><ele>158.0</ele><time>2026-04-10T13:06:11.066Z</time></trkpt><trkpt lat="44.6761739" lon="10.3332077"><ele>158.0</ele><time>2026-04-10T13:06:12.066Z</time></trkpt><trkpt lat="44.6760618" lon="10.3330794"><ele>158.0</ele><time>2026-04-10T13:06:13.067Z</time></trkpt><trkpt lat="44.6759428" lon="10.3329494"><ele>158.33333333333331</ele><time>2026-04-10T13:06:14.067Z</time></trkpt><trkpt lat="44.675815" lon="10.3328158"><ele>158.66666666666666</ele><time>2026-04-10T13:06:15.067Z</time></trkpt><trkpt lat="44.6756825" lon="10.3326745"><ele>159.0</ele><time>2026-04-10T13:06:16.066Z</time></trkpt><trkpt lat="44.6755418" lon="10.3325243"><ele>159.0</ele><time>2026-04-10T13:06:17.066Z</time></trkpt><trkpt lat="44.6754034" lon="10.3323798"><ele>159.0</ele><time>2026-04-10T13:06:18.067Z</time></trkpt><trkpt lat="44.6752659" lon="10.3322459"><ele>159.0</ele><time>2026-04-10T13:06:19.067Z</time></trkpt><trkpt lat="44.6751579" lon="10.3321245"><ele>159.5</ele><time>2026-04-10T13:06:20.067Z</time></trkpt><trkpt lat="44.6750483" lon="10.3320067"><ele>160.0</ele><time>2026-04-10T13:06:21.067Z</time></trkpt><trkpt lat="44.6749514" lon="10.3319002"><ele>160.5</ele><time>2026-04-10T13:06:22.067Z</time></trkpt><trkpt lat="44.67487" lon="10.3318096"><ele>161.0</ele><time>2026-04-10T13:06:23.066Z</time></trkpt><trkpt lat="44.6747935" lon="10.3317342"><ele>161.0</ele><time>2026-04-10T13:06:24.068Z</time></trkpt><trkpt lat="44.6747139" lon="10.3316749"><ele>161.0</ele><time>2026-04-10T13:06:25.066Z</time></trkpt><trkpt lat="44.6746248" lon="10.3316321"><ele>161.0</ele><time>2026-04-10T13:06:26.065Z</time></trkpt><trkpt lat="44.6745349" lon="10.3316124"><ele>161.0</ele><time>2026-04-10T13:06:27.066Z</time></trkpt><trkpt lat="44.6744618" lon="10.3316013"><ele>161.0</ele><time>2026-04-10T13:06:28.066Z</time></trkpt><trkpt lat="44.6743908" lon="10.331597"><ele>161.0</ele><time>2026-04-10T13:06:29.066Z</time></trkpt><trkpt lat="44.6742721" lon="10.331595"><ele>160.83333333333331</ele><time>2026-04-10T13:06:31.066Z</time></trkpt><trkpt lat="44.674174" lon="10.3315977"><ele>160.66666666666666</ele><time>2026-04-10T13:06:33.066Z</time></trkpt><trkpt lat="44.6740553" lon="10.3315959"><ele>160.5</ele><time>2026-04-10T13:06:35.065Z</time></trkpt><trkpt lat="44.6739839" lon="10.3316061"><ele>160.33333333333334</ele><time>2026-04-10T13:06:36.066Z</time></trkpt><trkpt lat="44.6739067" lon="10.3316102"><ele>160.16666666666669</ele><time>2026-04-10T13:06:37.066Z</time></trkpt><trkpt lat="44.6738294" lon="10.3316041"><ele>160.0</ele><time>2026-04-10T13:06:38.066Z</time></trkpt><trkpt lat="44.6737434" lon="10.3316013"><ele>160.0</ele><time>2026-04-10T13:06:39.066Z</time></trkpt><trkpt lat="44.6736463" lon="10.3315969"><ele>160.0</ele><time>2026-04-10T13:06:40.066Z</time></trkpt><trkpt lat="44.6735358" lon="10.3315916"><ele>160.0</ele><time>2026-04-10T13:06:41.066Z</time></trkpt><trkpt lat="44.6734085" lon="10.3315858"><ele>160.0</ele><time>2026-04-10T13:06:42.066Z</time></trkpt><trkpt lat="44.6732807" lon="10.3315742"><ele>160.0</ele><time>2026-04-10T13:06:43.066Z</time></trkpt><trkpt lat="44.6731834" lon="10.331553"><ele>160.0</ele><time>2026-04-10T13:06:44.066Z</time></trkpt><trkpt lat="44.6730986" lon="10.3315073"><ele>160.0</ele><time>2026-04-10T13:06:45.066Z</time></trkpt><trkpt lat="44.6730247" lon="10.3314251"><ele>160.0</ele><time>2026-04-10T13:06:46.066Z</time></trkpt><trkpt lat="44.6729396" lon="10.3313115"><ele>160.0</ele><time>2026-04-10T13:06:47.066Z</time></trkpt><trkpt lat="44.6728458" lon="10.3311664"><ele>161.25</ele><time>2026-04-10T13:06:48.066Z</time></trkpt><trkpt lat="44.6727649" lon="10.3310326"><ele>162.5</ele><time>2026-04-10T13:06:49.066Z</time></trkpt><trkpt lat="44.6726921" lon="10.3309049"><ele>163.75</ele><time>2026-04-10T13:06:50.066Z</time></trkpt><trkpt lat="44.672623" lon="10.3307838"><ele>165.0</ele><time>2026-04-10T13:06:51.066Z</time></trkpt><trkpt lat="44.6725574" lon="10.3306785"><ele>165.0</ele><time>2026-04-10T13:06:52.066Z</time></trkpt><trkpt lat="44.6725023" lon="10.3305851"><ele>165.0</ele><time>2026-04-10T13:06:53.065Z</time></trkpt><trkpt lat="44.6724383" lon="10.3305191"><ele>165.0</ele><time>2026-04-10T13:06:54.065Z</time></trkpt><trkpt lat="44.6723616" lon="10.3304368"><ele>165.0</ele><time>2026-04-10T13:06:55.065Z</time></trkpt><trkpt lat="44.6722602" lon="10.3303891"><ele>165.0</ele><time>2026-04-10T13:06:56.065Z</time></trkpt><trkpt lat="44.6721001" lon="10.3304341"><ele>165.0</ele><time>2026-04-10T13:06:57.066Z</time></trkpt><trkpt lat="44.6719851" lon="10.3304479"><ele>165.0</ele><time>2026-04-10T13:06:58.066Z</time></trkpt><trkpt lat="44.6718755" lon="10.3304503"><ele>165.0</ele><time>2026-04-10T13:06:59.066Z</time></trkpt><trkpt lat="44.6717894" lon="10.3304477"><ele>165.0</ele><time>2026-04-10T13:07:00.065Z</time></trkpt><trkpt lat="44.6717142" lon="10.330441"><ele>165.0</ele><time>2026-04-10T13:07:01.065Z</time></trkpt><trkpt lat="44.6716395" lon="10.3304361"><ele>165.2</ele><time>2026-04-10T13:07:02.065Z</time></trkpt><trkpt lat="44.6715236" lon="10.3304107"><ele>165.4</ele><time>2026-04-10T13:07:04.065Z</time></trkpt><trkpt lat="44.6714605" lon="10.330423"><ele>165.60000000000002</ele><time>2026-04-10T13:07:06.066Z</time></trkpt><trkpt lat="44.6713776" lon="10.3304827"><ele>165.8</ele><time>2026-04-10T13:07:11.066Z</time></trkpt><trkpt lat="44.6713138" lon="10.330638"><ele>166.0</ele><time>2026-04-10T13:07:13.066Z</time></trkpt><trkpt lat="44.6712784" lon="10.3307714"><ele>166.0</ele><time>2026-04-10T13:07:14.066Z</time></trkpt><trkpt lat="44.6712446" lon="10.3309186"><ele>166.0</ele><time>2026-04-10T13:07:15.065Z</time></trkpt><trkpt lat="44.6712008" lon="10.3310822"><ele>166.0</ele><time>2026-04-10T13:07:16.066Z</time></trkpt><trkpt lat="44.6711625" lon="10.3312565"><ele>166.0</ele><time>2026-04-10T13:07:17.067Z</time></trkpt><trkpt lat="44.6711239" lon="10.3314214"><ele>166.0</ele><time>2026-04-10T13:07:18.065Z</time></trkpt><trkpt lat="44.6710869" lon="10.3315928"><ele>166.0</ele><time>2026-04-10T13:07:19.066Z</time></trkpt><trkpt lat="44.6710492" lon="10.3317756"><ele>166.0</ele><time>2026-04-10T13:07:20.065Z</time></trkpt><trkpt lat="44.67101" lon="10.3319606"><ele>166.0</ele><time>2026-04-10T13:07:21.066Z</time></trkpt><trkpt lat="44.6709645" lon="10.3321537"><ele>165.75</ele><time>2026-04-10T13:07:22.066Z</time></trkpt><trkpt lat="44.6709174" lon="10.3323529"><ele>165.5</ele><time>2026-04-10T13:07:23.066Z</time></trkpt><trkpt lat="44.6708692" lon="10.3325528"><ele>165.25</ele><time>2026-04-10T13:07:24.066Z</time></trkpt><trkpt lat="44.6708225" lon="10.3327397"><ele>165.0</ele><time>2026-04-10T13:07:25.066Z</time></trkpt><trkpt lat="44.6707771" lon="10.3329172"><ele>165.0</ele><time>2026-04-10T13:07:26.065Z</time></trkpt><trkpt lat="44.6707225" lon="10.3330881"><ele>165.0</ele><time>2026-04-10T13:07:27.066Z</time></trkpt><trkpt lat="44.6706564" lon="10.3332599"><ele>165.0</ele><time>2026-04-10T13:07:28.066Z</time></trkpt><trkpt lat="44.6705834" lon="10.3334313"><ele>165.0</ele><time>2026-04-10T13:07:29.066Z</time></trkpt><trkpt lat="44.6705065" lon="10.3335977"><ele>165.0</ele><time>2026-04-10T13:07:30.066Z</time></trkpt><trkpt lat="44.6704216" lon="10.33377"><ele>165.0</ele><time>2026-04-10T13:07:31.065Z</time></trkpt><trkpt lat="44.6703361" lon="10.3339471"><ele>165.0</ele><time>2026-04-10T13:07:32.066Z</time></trkpt><trkpt lat="44.6702499" lon="10.3341271"><ele>165.66666666666666</ele><time>2026-04-10T13:07:33.066Z</time></trkpt><trkpt lat="44.6701622" lon="10.3343218"><ele>166.33333333333331</ele><time>2026-04-10T13:07:34.065Z</time></trkpt><trkpt lat="44.6700851" lon="10.334517"><ele>167.0</ele><time>2026-04-10T13:07:35.066Z</time></trkpt><trkpt lat="44.6700113" lon="10.33472"><ele>166.5</ele><time>2026-04-10T13:07:36.066Z</time></trkpt><trkpt lat="44.6699364" lon="10.3349235"><ele>166.0</ele><time>2026-04-10T13:07:37.065Z</time></trkpt><trkpt lat="44.669855" lon="10.3350924"><ele>165.5</ele><time>2026-04-10T13:07:38.066Z</time></trkpt><trkpt lat="44.6697649" lon="10.3352376"><ele>165.0</ele><time>2026-04-10T13:07:39.066Z</time></trkpt><trkpt lat="44.6696913" lon="10.3354064"><ele>164.66666666666666</ele><time>2026-04-10T13:07:40.066Z</time></trkpt><trkpt lat="44.6696285" lon="10.3355937"><ele>164.33333333333331</ele><time>2026-04-10T13:07:41.066Z</time></trkpt><trkpt lat="44.6695578" lon="10.3357868"><ele>164.0</ele><time>2026-04-10T13:07:42.065Z</time></trkpt><trkpt lat="44.6694672" lon="10.3359752"><ele>165.33333333333331</ele><time>2026-04-10T13:07:43.066Z</time></trkpt><trkpt lat="44.6693637" lon="10.3361551"><ele>166.66666666666666</ele><time>2026-04-10T13:07:44.066Z</time></trkpt><trkpt lat="44.6692621" lon="10.3363448"><ele>168.0</ele><time>2026-04-10T13:07:45.066Z</time></trkpt><trkpt lat="44.6691638" lon="10.3365477"><ele>168.0</ele><time>2026-04-10T13:07:46.065Z</time></trkpt><trkpt lat="44.6690661" lon="10.3367496"><ele>168.0</ele><time>2026-04-10T13:07:47.065Z</time></trkpt><trkpt lat="44.6689683" lon="10.3369585"><ele>168.0</ele><time>2026-04-10T13:07:48.065Z</time></trkpt><trkpt lat="44.6688694" lon="10.3371684"><ele>168.33333333333334</ele><time>2026-04-10T13:07:49.066Z</time></trkpt><trkpt lat="44.6687687" lon="10.3373753"><ele>168.66666666666669</ele><time>2026-04-10T13:07:50.066Z</time></trkpt><trkpt lat="44.6686646" lon="10.3375924"><ele>169.0</ele><time>2026-04-10T13:07:51.066Z</time></trkpt><trkpt lat="44.6685598" lon="10.3378088"><ele>169.0</ele><time>2026-04-10T13:07:52.066Z</time></trkpt><trkpt lat="44.6684511" lon="10.3380271"><ele>169.0</ele><time>2026-04-10T13:07:53.066Z</time></trkpt><trkpt lat="44.6683388" lon="10.338245"><ele>169.0</ele><time>2026-04-10T13:07:54.066Z</time></trkpt><trkpt lat="44.6682273" lon="10.3384622"><ele>169.0</ele><time>2026-04-10T13:07:55.065Z</time></trkpt><trkpt lat="44.6681116" lon="10.3386823"><ele>169.0</ele><time>2026-04-10T13:07:56.065Z</time></trkpt><trkpt lat="44.667996" lon="10.3389031"><ele>169.0</ele><time>2026-04-10T13:07:57.066Z</time></trkpt><trkpt lat="44.667878" lon="10.3391187"><ele>169.0</ele><time>2026-04-10T13:07:58.066Z</time></trkpt><trkpt lat="44.6677596" lon="10.3393346"><ele>169.0</ele><time>2026-04-10T13:07:59.066Z</time></trkpt><trkpt lat="44.6676385" lon="10.3395464"><ele>169.0</ele><time>2026-04-10T13:08:00.065Z</time></trkpt><trkpt lat="44.6675139" lon="10.3397483"><ele>169.66666666666669</ele><time>2026-04-10T13:08:01.066Z</time></trkpt><trkpt lat="44.6673851" lon="10.3399544"><ele>170.33333333333334</ele><time>2026-04-10T13:08:02.065Z</time></trkpt><trkpt lat="44.6672617" lon="10.3401531"><ele>171.0</ele><time>2026-04-10T13:08:03.066Z</time></trkpt><trkpt lat="44.6671375" lon="10.3403492"><ele>171.0</ele><time>2026-04-10T13:08:04.066Z</time></trkpt><trkpt lat="44.6670194" lon="10.3405368"><ele>171.0</ele><time>2026-04-10T13:08:05.066Z</time></trkpt><trkpt lat="44.6669005" lon="10.3407251"><ele>171.0</ele><time>2026-04-10T13:08:06.065Z</time></trkpt><trkpt lat="44.6667893" lon="10.3409182"><ele>171.33333333333334</ele><time>2026-04-10T13:08:07.066Z</time></trkpt><trkpt lat="44.6666821" lon="10.3411182"><ele>171.66666666666669</ele><time>2026-04-10T13:08:08.066Z</time></trkpt><trkpt lat="44.6665865" lon="10.3413202"><ele>172.0</ele><time>2026-04-10T13:08:09.066Z</time></trkpt><trkpt lat="44.6664908" lon="10.3415276"><ele>172.0</ele><time>2026-04-10T13:08:10.066Z</time></trkpt><trkpt lat="44.6663931" lon="10.3417367"><ele>172.0</ele><time>2026-04-10T13:08:11.066Z</time></trkpt><trkpt lat="44.6662979" lon="10.3419509"><ele>172.0</ele><time>2026-04-10T13:08:12.066Z</time></trkpt><trkpt lat="44.6661961" lon="10.3421617"><ele>172.66666666666669</ele><time>2026-04-10T13:08:13.066Z</time></trkpt><trkpt lat="44.6660968" lon="10.3423736"><ele>173.33333333333334</ele><time>2026-04-10T13:08:14.066Z</time></trkpt><trkpt lat="44.6660012" lon="10.3425895"><ele>174.0</ele><time>2026-04-10T13:08:15.067Z</time></trkpt><trkpt lat="44.6659144" lon="10.3428139"><ele>174.0</ele><time>2026-04-10T13:08:16.066Z</time></trkpt><trkpt lat="44.6658436" lon="10.3430422"><ele>174.0</ele><time>2026-04-10T13:08:17.065Z</time></trkpt><trkpt lat="44.6657977" lon="10.3432803"><ele>174.0</ele><time>2026-04-10T13:08:18.066Z</time></trkpt><trkpt lat="44.6657546" lon="10.3435176"><ele>174.0</ele><time>2026-04-10T13:08:19.066Z</time></trkpt><trkpt lat="44.6657143" lon="10.3437575"><ele>174.0</ele><time>2026-04-10T13:08:20.065Z</time></trkpt><trkpt lat="44.6656745" lon="10.3439955"><ele>174.0</ele><time>2026-04-10T13:08:21.066Z</time></trkpt><trkpt lat="44.6656346" lon="10.3442393"><ele>173.33333333333334</ele><time>2026-04-10T13:08:22.065Z</time></trkpt><trkpt lat="44.6655921" lon="10.3444847"><ele>172.66666666666669</ele><time>2026-04-10T13:08:23.066Z</time></trkpt><trkpt lat="44.6655482" lon="10.3447333"><ele>172.0</ele><time>2026-04-10T13:08:24.065Z</time></trkpt><trkpt lat="44.665498" lon="10.3449837"><ele>171.66666666666669</ele><time>2026-04-10T13:08:25.066Z</time></trkpt><trkpt lat="44.6654422" lon="10.3452305"><ele>171.33333333333334</ele><time>2026-04-10T13:08:26.066Z</time></trkpt><trkpt lat="44.6653876" lon="10.3454806"><ele>171.0</ele><time>2026-04-10T13:08:27.066Z</time></trkpt><trkpt lat="44.6653338" lon="10.3457341"><ele>171.0</ele><time>2026-04-10T13:08:28.066Z</time></trkpt><trkpt lat="44.6652758" lon="10.3459908"><ele>171.0</ele><time>2026-04-10T13:08:29.065Z</time></trkpt><trkpt lat="44.6652218" lon="10.3462444"><ele>171.0</ele><time>2026-04-10T13:08:30.066Z</time></trkpt><trkpt lat="44.6651657" lon="10.3464992"><ele>171.0</ele><time>2026-04-10T13:08:31.066Z</time></trkpt><trkpt lat="44.6651088" lon="10.3467485"><ele>171.0</ele><time>2026-04-10T13:08:32.065Z</time></trkpt><trkpt lat="44.6650574" lon="10.3469966"><ele>171.0</ele><time>2026-04-10T13:08:33.066Z</time></trkpt><trkpt lat="44.6650056" lon="10.3472378"><ele>171.66666666666666</ele><time>2026-04-10T13:08:34.066Z</time></trkpt><trkpt lat="44.6649654" lon="10.3474811"><ele>172.33333333333331</ele><time>2026-04-10T13:08:35.065Z</time></trkpt><trkpt lat="44.664914" lon="10.3477145"><ele>173.0</ele><time>2026-04-10T13:08:36.066Z</time></trkpt><trkpt lat="44.6648623" lon="10.3479524"><ele>173.0</ele><time>2026-04-10T13:08:37.066Z</time></trkpt><trkpt lat="44.6648118" lon="10.3481911"><ele>173.0</ele><time>2026-04-10T13:08:38.066Z</time></trkpt><trkpt lat="44.6647567" lon="10.3484316"><ele>173.0</ele><time>2026-04-10T13:08:39.065Z</time></trkpt><trkpt lat="44.6647041" lon="10.3486784"><ele>173.0</ele><time>2026-04-10T13:08:40.066Z</time></trkpt><trkpt lat="44.6646515" lon="10.3489254"><ele>173.0</ele><time>2026-04-10T13:08:41.066Z</time></trkpt><trkpt lat="44.6645977" lon="10.3491807"><ele>173.0</ele><time>2026-04-10T13:08:42.066Z</time></trkpt><trkpt lat="44.6645422" lon="10.34943"><ele>173.0</ele><time>2026-04-10T13:08:43.066Z</time></trkpt><trkpt lat="44.6644931" lon="10.3496847"><ele>173.0</ele><time>2026-04-10T13:08:44.066Z</time></trkpt><trkpt lat="44.6644387" lon="10.3499412"><ele>173.0</ele><time>2026-04-10T13:08:45.067Z</time></trkpt><trkpt lat="44.664385" lon="10.350194"><ele>172.33333333333331</ele><time>2026-04-10T13:08:46.066Z</time></trkpt><trkpt lat="44.6643181" lon="10.3504495"><ele>171.66666666666666</ele><time>2026-04-10T13:08:47.066Z</time></trkpt><trkpt lat="44.6642522" lon="10.3506958"><ele>171.0</ele><time>2026-04-10T13:08:48.066Z</time></trkpt><trkpt lat="44.6641753" lon="10.3509333"><ele>170.0</ele><time>2026-04-10T13:08:49.066Z</time></trkpt><trkpt lat="44.6640813" lon="10.3511598"><ele>169.0</ele><time>2026-04-10T13:08:50.066Z</time></trkpt><trkpt lat="44.6639831" lon="10.3513807"><ele>168.0</ele><time>2026-04-10T13:08:51.066Z</time></trkpt><trkpt lat="44.6638838" lon="10.3516026"><ele>168.0</ele><time>2026-04-10T13:08:52.065Z</time></trkpt><trkpt lat="44.663785" lon="10.3518259"><ele>168.0</ele><time>2026-04-10T13:08:53.066Z</time></trkpt><trkpt lat="44.6636949" lon="10.3520609"><ele>168.0</ele><time>2026-04-10T13:08:54.066Z</time></trkpt><trkpt lat="44.6636188" lon="10.3523093"><ele>167.66666666666666</ele><time>2026-04-10T13:08:55.066Z</time></trkpt><trkpt lat="44.6635713" lon="10.3525624"><ele>167.33333333333331</ele><time>2026-04-10T13:08:56.066Z</time></trkpt><trkpt lat="44.663532" lon="10.3528216"><ele>167.0</ele><time>2026-04-10T13:08:57.066Z</time></trkpt><trkpt lat="44.6634977" lon="10.3530887"><ele>167.0</ele><time>2026-04-10T13:08:58.066Z</time></trkpt><trkpt lat="44.6634649" lon="10.3533543"><ele>167.0</ele><time>2026-04-10T13:08:59.066Z</time></trkpt><trkpt lat="44.6634334" lon="10.3536144"><ele>167.0</ele><time>2026-04-10T13:09:00.066Z</time></trkpt><trkpt lat="44.6634027" lon="10.3538741"><ele>167.33333333333331</ele><time>2026-04-10T13:09:01.066Z</time></trkpt><trkpt lat="44.6633715" lon="10.3541349"><ele>167.66666666666666</ele><time>2026-04-10T13:09:02.065Z</time></trkpt><trkpt lat="44.6633442" lon="10.3543924"><ele>168.0</ele><time>2026-04-10T13:09:03.066Z</time></trkpt><trkpt lat="44.6633142" lon="10.3546522"><ele>167.66666666666666</ele><time>2026-04-10T13:09:04.065Z</time></trkpt><trkpt lat="44.6632872" lon="10.354913"><ele>167.33333333333331</ele><time>2026-04-10T13:09:05.066Z</time></trkpt><trkpt lat="44.6632555" lon="10.3551748"><ele>167.0</ele><time>2026-04-10T13:09:06.065Z</time></trkpt><trkpt lat="44.6632179" lon="10.3554349"><ele>166.66666666666666</ele><time>2026-04-10T13:09:07.067Z</time></trkpt><trkpt lat="44.6631631" lon="10.3556862"><ele>166.33333333333334</ele><time>2026-04-10T13:09:08.066Z</time></trkpt><trkpt lat="44.6630857" lon="10.3559327"><ele>166.0</ele><time>2026-04-10T13:09:09.066Z</time></trkpt><trkpt lat="44.6629956" lon="10.3561711"><ele>165.33333333333334</ele><time>2026-04-10T13:09:10.065Z</time></trkpt><trkpt lat="44.6629017" lon="10.3564038"><ele>164.66666666666666</ele><time>2026-04-10T13:09:11.067Z</time></trkpt><trkpt lat="44.6628048" lon="10.3566376"><ele>164.0</ele><time>2026-04-10T13:09:12.066Z</time></trkpt><trkpt lat="44.6627104" lon="10.3568707"><ele>165.0</ele><time>2026-04-10T13:09:13.065Z</time></trkpt><trkpt lat="44.6626167" lon="10.3571052"><ele>166.0</ele><time>2026-04-10T13:09:14.066Z</time></trkpt><trkpt lat="44.6625205" lon="10.3573443"><ele>167.0</ele><time>2026-04-10T13:09:15.066Z</time></trkpt><trkpt lat="44.6624283" lon="10.3575868"><ele>167.0</ele><time>2026-04-10T13:09:16.066Z</time></trkpt><trkpt lat="44.6623583" lon="10.3578349"><ele>167.0</ele><time>2026-04-10T13:09:17.065Z</time></trkpt><trkpt lat="44.6623189" lon="10.3580972"><ele>167.0</ele><time>2026-04-10T13:09:18.066Z</time></trkpt><trkpt lat="44.6623055" lon="10.3583618"><ele>166.33333333333331</ele><time>2026-04-10T13:09:19.066Z</time></trkpt><trkpt lat="44.6623059" lon="10.3586258"><ele>165.66666666666666</ele><time>2026-04-10T13:09:20.066Z</time></trkpt><trkpt lat="44.6623159" lon="10.3588897"><ele>165.0</ele><time>2026-04-10T13:09:21.066Z</time></trkpt><trkpt lat="44.6623338" lon="10.3591535"><ele>164.66666666666666</ele><time>2026-04-10T13:09:22.066Z</time></trkpt><trkpt lat="44.6623468" lon="10.3594258"><ele>164.33333333333331</ele><time>2026-04-10T13:09:23.065Z</time></trkpt><trkpt lat="44.6623584" lon="10.3596986"><ele>164.0</ele><time>2026-04-10T13:09:24.067Z</time></trkpt><trkpt lat="44.6623693" lon="10.3599673"><ele>164.0</ele><time>2026-04-10T13:09:25.066Z</time></trkpt><trkpt lat="44.6623663" lon="10.3602202"><ele>164.0</ele><time>2026-04-10T13:09:26.065Z</time></trkpt><trkpt lat="44.6623296" lon="10.3604434"><ele>164.0</ele><time>2026-04-10T13:09:27.066Z</time></trkpt><trkpt lat="44.6622558" lon="10.3606389"><ele>164.0</ele><time>2026-04-10T13:09:28.066Z</time></trkpt><trkpt lat="44.662145" lon="10.3607997"><ele>164.0</ele><time>2026-04-10T13:09:29.066Z</time></trkpt><trkpt lat="44.6620095" lon="10.3609238"><ele>164.0</ele><time>2026-04-10T13:09:30.066Z</time></trkpt><trkpt lat="44.6618559" lon="10.3610239"><ele>164.33333333333331</ele><time>2026-04-10T13:09:31.066Z</time></trkpt><trkpt lat="44.6616976" lon="10.3611247"><ele>164.66666666666666</ele><time>2026-04-10T13:09:32.067Z</time></trkpt><trkpt lat="44.6615374" lon="10.3612262"><ele>165.0</ele><time>2026-04-10T13:09:33.066Z</time></trkpt><trkpt lat="44.6613713" lon="10.3613311"><ele>166.0</ele><time>2026-04-10T13:09:34.066Z</time></trkpt><trkpt lat="44.6612014" lon="10.3614381"><ele>167.0</ele><time>2026-04-10T13:09:35.066Z</time></trkpt><trkpt lat="44.6610331" lon="10.3615448"><ele>168.0</ele><time>2026-04-10T13:09:36.066Z</time></trkpt><trkpt lat="44.6608689" lon="10.361651"><ele>169.66666666666666</ele><time>2026-04-10T13:09:37.065Z</time></trkpt><trkpt lat="44.6607097" lon="10.361762"><ele>171.33333333333331</ele><time>2026-04-10T13:09:38.066Z</time></trkpt><trkpt lat="44.6605543" lon="10.3618753"><ele>173.0</ele><time>2026-04-10T13:09:39.066Z</time></trkpt><trkpt lat="44.6604064" lon="10.3619913"><ele>173.33333333333331</ele><time>2026-04-10T13:09:40.066Z</time></trkpt><trkpt lat="44.6602535" lon="10.3621168"><ele>173.66666666666666</ele><time>2026-04-10T13:09:41.066Z</time></trkpt><trkpt lat="44.6600932" lon="10.3622445"><ele>174.0</ele><time>2026-04-10T13:09:42.066Z</time></trkpt><trkpt lat="44.6599339" lon="10.362375"><ele>174.0</ele><time>2026-04-10T13:09:43.066Z</time></trkpt><trkpt lat="44.6597789" lon="10.3625039"><ele>174.0</ele><time>2026-04-10T13:09:44.066Z</time></trkpt><trkpt lat="44.6596318" lon="10.3626269"><ele>174.0</ele><time>2026-04-10T13:09:45.065Z</time></trkpt><trkpt lat="44.6594899" lon="10.3627448"><ele>173.33333333333334</ele><time>2026-04-10T13:09:46.066Z</time></trkpt><trkpt lat="44.6593539" lon="10.3628572"><ele>172.66666666666669</ele><time>2026-04-10T13:09:47.065Z</time></trkpt><trkpt lat="44.6592175" lon="10.3629745"><ele>172.0</ele><time>2026-04-10T13:09:48.066Z</time></trkpt><trkpt lat="44.6590741" lon="10.363098"><ele>171.0</ele><time>2026-04-10T13:09:49.065Z</time></trkpt><trkpt lat="44.6589251" lon="10.3632303"><ele>170.0</ele><time>2026-04-10T13:09:50.066Z</time></trkpt><trkpt lat="44.6587699" lon="10.3633624"><ele>169.0</ele><time>2026-04-10T13:09:51.065Z</time></trkpt><trkpt lat="44.6586096" lon="10.3634905"><ele>167.66666666666669</ele><time>2026-04-10T13:09:52.066Z</time></trkpt><trkpt lat="44.6584462" lon="10.3636215"><ele>166.33333333333334</ele><time>2026-04-10T13:09:53.065Z</time></trkpt><trkpt lat="44.6582936" lon="10.3637467"><ele>165.0</ele><time>2026-04-10T13:09:54.067Z</time></trkpt><trkpt lat="44.658149" lon="10.3638609"><ele>164.5</ele><time>2026-04-10T13:09:55.066Z</time></trkpt><trkpt lat="44.6580173" lon="10.3639701"><ele>164.0</ele><time>2026-04-10T13:09:56.065Z</time></trkpt><trkpt lat="44.657891" lon="10.3640722"><ele>163.5</ele><time>2026-04-10T13:09:57.066Z</time></trkpt><trkpt lat="44.6577676" lon="10.3641748"><ele>163.0</ele><time>2026-04-10T13:09:58.066Z</time></trkpt><trkpt lat="44.6576409" lon="10.3642814"><ele>162.75</ele><time>2026-04-10T13:09:59.066Z</time></trkpt><trkpt lat="44.6575119" lon="10.3643888"><ele>162.5</ele><time>2026-04-10T13:10:00.066Z</time></trkpt><trkpt lat="44.657387" lon="10.3644906"><ele>162.25</ele><time>2026-04-10T13:10:01.066Z</time></trkpt><trkpt lat="44.6572659" lon="10.3645864"><ele>162.0</ele><time>2026-04-10T13:10:02.066Z</time></trkpt><trkpt lat="44.6571529" lon="10.3646847"><ele>161.66666666666666</ele><time>2026-04-10T13:10:03.065Z</time></trkpt><trkpt lat="44.657032" lon="10.3647882"><ele>161.33333333333331</ele><time>2026-04-10T13:10:04.066Z</time></trkpt><trkpt lat="44.6568995" lon="10.3648981"><ele>161.0</ele><time>2026-04-10T13:10:05.065Z</time></trkpt><trkpt lat="44.6567576" lon="10.3650117"><ele>160.66666666666666</ele><time>2026-04-10T13:10:06.066Z</time></trkpt><trkpt lat="44.6566146" lon="10.3651298"><ele>160.33333333333334</ele><time>2026-04-10T13:10:07.066Z</time></trkpt><trkpt lat="44.6564704" lon="10.3652491"><ele>160.0</ele><time>2026-04-10T13:10:08.066Z</time></trkpt><trkpt lat="44.6563366" lon="10.3653592"><ele>160.0</ele><time>2026-04-10T13:10:09.066Z</time></trkpt><trkpt lat="44.6562132" lon="10.3654587"><ele>160.0</ele><time>2026-04-10T13:10:10.067Z</time></trkpt><trkpt lat="44.6561071" lon="10.3655437"><ele>160.0</ele><time>2026-04-10T13:10:11.066Z</time></trkpt><trkpt lat="44.6560083" lon="10.365623"><ele>160.0</ele><time>2026-04-10T13:10:12.066Z</time></trkpt><trkpt lat="44.6559179" lon="10.3656885"><ele>160.4</ele><time>2026-04-10T13:10:13.066Z</time></trkpt><trkpt lat="44.6558317" lon="10.365755"><ele>160.8</ele><time>2026-04-10T13:10:14.066Z</time></trkpt><trkpt lat="44.6557428" lon="10.365828"><ele>161.2</ele><time>2026-04-10T13:10:15.066Z</time></trkpt><trkpt lat="44.6556529" lon="10.365921"><ele>161.6</ele><time>2026-04-10T13:10:16.065Z</time></trkpt><trkpt lat="44.6555667" lon="10.3660449"><ele>162.0</ele><time>2026-04-10T13:10:17.066Z</time></trkpt><trkpt lat="44.6554921" lon="10.3661873"><ele>162.0</ele><time>2026-04-10T13:10:18.066Z</time></trkpt><trkpt lat="44.655431" lon="10.3663434"><ele>162.0</ele><time>2026-04-10T13:10:19.066Z</time></trkpt><trkpt lat="44.6553709" lon="10.3665112"><ele>162.0</ele><time>2026-04-10T13:10:20.066Z</time></trkpt><trkpt lat="44.6553045" lon="10.366682"><ele>162.0</ele><time>2026-04-10T13:10:21.067Z</time></trkpt><trkpt lat="44.655237" lon="10.3668645"><ele>162.0</ele><time>2026-04-10T13:10:22.066Z</time></trkpt><trkpt lat="44.6551739" lon="10.3670446"><ele>162.0</ele><time>2026-04-10T13:10:23.066Z</time></trkpt><trkpt lat="44.6551069" lon="10.367233"><ele>162.0</ele><time>2026-04-10T13:10:24.066Z</time></trkpt><trkpt lat="44.6550419" lon="10.3674193"><ele>162.0</ele><time>2026-04-10T13:10:25.065Z</time></trkpt><trkpt lat="44.6549773" lon="10.3676021"><ele>162.75</ele><time>2026-04-10T13:10:26.066Z</time></trkpt><trkpt lat="44.6549135" lon="10.3677829"><ele>163.5</ele><time>2026-04-10T13:10:27.066Z</time></trkpt><trkpt lat="44.6548527" lon="10.3679615"><ele>164.25</ele><time>2026-04-10T13:10:28.066Z</time></trkpt><trkpt lat="44.6547928" lon="10.3681416"><ele>165.0</ele><time>2026-04-10T13:10:29.066Z</time></trkpt><trkpt lat="44.6547354" lon="10.3683124"><ele>165.0</ele><time>2026-04-10T13:10:30.066Z</time></trkpt><trkpt lat="44.6546714" lon="10.3684881"><ele>165.0</ele><time>2026-04-10T13:10:31.066Z</time></trkpt><trkpt lat="44.6546079" lon="10.368665"><ele>165.0</ele><time>2026-04-10T13:10:32.066Z</time></trkpt><trkpt lat="44.6545448" lon="10.3688372"><ele>165.0</ele><time>2026-04-10T13:10:33.065Z</time></trkpt><trkpt lat="44.6544767" lon="10.3690147"><ele>166.0</ele><time>2026-04-10T13:10:34.065Z</time></trkpt><trkpt lat="44.6544025" lon="10.3691939"><ele>167.0</ele><time>2026-04-10T13:10:35.066Z</time></trkpt><trkpt lat="44.6543202" lon="10.3693717"><ele>168.0</ele><time>2026-04-10T13:10:36.065Z</time></trkpt><trkpt lat="44.6542307" lon="10.3695434"><ele>168.33333333333334</ele><time>2026-04-10T13:10:37.064Z</time></trkpt><trkpt lat="44.6541274" lon="10.3697116"><ele>168.66666666666669</ele><time>2026-04-10T13:10:38.065Z</time></trkpt><trkpt lat="44.654008" lon="10.3698665"><ele>169.0</ele><time>2026-04-10T13:10:39.064Z</time></trkpt><trkpt lat="44.6538843" lon="10.370018"><ele>169.0</ele><time>2026-04-10T13:10:40.065Z</time></trkpt><trkpt lat="44.6537587" lon="10.3701687"><ele>169.0</ele><time>2026-04-10T13:10:41.065Z</time></trkpt><trkpt lat="44.6536288" lon="10.3703226"><ele>169.0</ele><time>2026-04-10T13:10:42.065Z</time></trkpt><trkpt lat="44.6534981" lon="10.370479"><ele>167.66666666666669</ele><time>2026-04-10T13:10:43.064Z</time></trkpt><trkpt lat="44.6533745" lon="10.3706294"><ele>166.33333333333334</ele><time>2026-04-10T13:10:44.065Z</time></trkpt><trkpt lat="44.6532526" lon="10.3707755"><ele>165.0</ele><time>2026-04-10T13:10:45.065Z</time></trkpt><trkpt lat="44.6531362" lon="10.3709143"><ele>165.0</ele><time>2026-04-10T13:10:46.065Z</time></trkpt><trkpt lat="44.6530197" lon="10.3710472"><ele>165.0</ele><time>2026-04-10T13:10:47.065Z</time></trkpt><trkpt lat="44.6528994" lon="10.371186"><ele>165.0</ele><time>2026-04-10T13:10:48.064Z</time></trkpt><trkpt lat="44.6527762" lon="10.3713329"><ele>165.0</ele><time>2026-04-10T13:10:49.065Z</time></trkpt><trkpt lat="44.652656" lon="10.371479"><ele>165.0</ele><time>2026-04-10T13:10:50.065Z</time></trkpt><trkpt lat="44.6525358" lon="10.3716066"><ele>165.0</ele><time>2026-04-10T13:10:51.065Z</time></trkpt><trkpt lat="44.6524208" lon="10.3717068"><ele>165.0</ele><time>2026-04-10T13:10:52.064Z</time></trkpt><trkpt lat="44.6523003" lon="10.3717815"><ele>165.0</ele><time>2026-04-10T13:10:53.065Z</time></trkpt><trkpt lat="44.6521773" lon="10.3718393"><ele>165.0</ele><time>2026-04-10T13:10:54.065Z</time></trkpt><trkpt lat="44.6520509" lon="10.3718824"><ele>165.0</ele><time>2026-04-10T13:10:55.065Z</time></trkpt><trkpt lat="44.6519242" lon="10.3719265"><ele>165.0</ele><time>2026-04-10T13:10:56.065Z</time></trkpt><trkpt lat="44.6518066" lon="10.3719644"><ele>165.2</ele><time>2026-04-10T13:10:57.065Z</time></trkpt><trkpt lat="44.6516939" lon="10.3720003"><ele>165.4</ele><time>2026-04-10T13:10:58.064Z</time></trkpt><trkpt lat="44.6515881" lon="10.3720379"><ele>165.60000000000002</ele><time>2026-04-10T13:10:59.065Z</time></trkpt><trkpt lat="44.651505" lon="10.3720712"><ele>165.8</ele><time>2026-04-10T13:11:00.065Z</time></trkpt><trkpt lat="44.6514447" lon="10.3721039"><ele>166.0</ele><time>2026-04-10T13:11:01.065Z</time></trkpt><trkpt lat="44.6513873" lon="10.3721799"><ele>166.0</ele><time>2026-04-10T13:11:03.065Z</time></trkpt><trkpt lat="44.6514575" lon="10.3720956"><ele>166.0</ele><time>2026-04-10T13:11:24.066Z</time></trkpt><trkpt lat="44.6515846" lon="10.3720381"><ele>166.0</ele><time>2026-04-10T13:11:26.064Z</time></trkpt><trkpt lat="44.6516724" lon="10.3720248"><ele>166.0</ele><time>2026-04-10T13:11:27.065Z</time></trkpt><trkpt lat="44.6517653" lon="10.372002"><ele>166.0</ele><time>2026-04-10T13:11:28.065Z</time></trkpt><trkpt lat="44.651868" lon="10.3719718"><ele>165.75</ele><time>2026-04-10T13:11:29.064Z</time></trkpt><trkpt lat="44.6519787" lon="10.3719382"><ele>165.5</ele><time>2026-04-10T13:11:30.065Z</time></trkpt><trkpt lat="44.6520964" lon="10.3718991"><ele>165.25</ele><time>2026-04-10T13:11:31.065Z</time></trkpt><trkpt lat="44.6522133" lon="10.3718544"><ele>165.0</ele><time>2026-04-10T13:11:32.064Z</time></trkpt><trkpt lat="44.6523296" lon="10.3717937"><ele>165.0</ele><time>2026-04-10T13:11:33.065Z</time></trkpt><trkpt lat="44.6524429" lon="10.3717144"><ele>165.0</ele><time>2026-04-10T13:11:34.066Z</time></trkpt><trkpt lat="44.6525529" lon="10.371617"><ele>165.0</ele><time>2026-04-10T13:11:35.064Z</time></trkpt><trkpt lat="44.6526611" lon="10.3715009"><ele>165.0</ele><time>2026-04-10T13:11:36.064Z</time></trkpt><trkpt lat="44.6527683" lon="10.371377"><ele>165.0</ele><time>2026-04-10T13:11:37.065Z</time></trkpt><trkpt lat="44.6528844" lon="10.3712447"><ele>165.0</ele><time>2026-04-10T13:11:38.065Z</time></trkpt><trkpt lat="44.6530032" lon="10.3711119"><ele>165.0</ele><time>2026-04-10T13:11:39.064Z</time></trkpt><trkpt lat="44.6531251" lon="10.3709682"><ele>165.0</ele><time>2026-04-10T13:11:40.065Z</time></trkpt><trkpt lat="44.6532463" lon="10.3708269"><ele>165.0</ele><time>2026-04-10T13:11:41.064Z</time></trkpt><trkpt lat="44.6533695" lon="10.3706839"><ele>165.0</ele><time>2026-04-10T13:11:42.065Z</time></trkpt><trkpt lat="44.6534925" lon="10.370538"><ele>166.0</ele><time>2026-04-10T13:11:43.065Z</time></trkpt><trkpt lat="44.6536158" lon="10.3703931"><ele>167.0</ele><time>2026-04-10T13:11:44.064Z</time></trkpt><trkpt lat="44.6537423" lon="10.3702486"><ele>168.0</ele><time>2026-04-10T13:11:45.065Z</time></trkpt><trkpt lat="44.6538663" lon="10.3701025"><ele>168.0</ele><time>2026-04-10T13:11:46.064Z</time></trkpt><trkpt lat="44.6539852" lon="10.3699601"><ele>168.0</ele><time>2026-04-10T13:11:47.065Z</time></trkpt><trkpt lat="44.654105" lon="10.3698042"><ele>168.0</ele><time>2026-04-10T13:11:48.065Z</time></trkpt><trkpt lat="44.6542197" lon="10.3696314"><ele>168.0</ele><time>2026-04-10T13:11:49.065Z</time></trkpt><trkpt lat="44.6543305" lon="10.3694323"><ele>168.0</ele><time>2026-04-10T13:11:50.065Z</time></trkpt><trkpt lat="44.6544312" lon="10.3692105"><ele>168.0</ele><time>2026-04-10T13:11:51.065Z</time></trkpt><trkpt lat="44.6545287" lon="10.3689706"><ele>167.0</ele><time>2026-04-10T13:11:52.064Z</time></trkpt><trkpt lat="44.6546187" lon="10.3687307"><ele>166.0</ele><time>2026-04-10T13:11:53.065Z</time></trkpt><trkpt lat="44.6547021" lon="10.3685023"><ele>165.0</ele><time>2026-04-10T13:11:54.065Z</time></trkpt><trkpt lat="44.6547847" lon="10.368264"><ele>165.0</ele><time>2026-04-10T13:11:55.064Z</time></trkpt><trkpt lat="44.6548658" lon="10.3680269"><ele>165.0</ele><time>2026-04-10T13:11:56.065Z</time></trkpt><trkpt lat="44.6549515" lon="10.367782"><ele>165.0</ele><time>2026-04-10T13:11:57.064Z</time></trkpt><trkpt lat="44.6550409" lon="10.3675386"><ele>165.0</ele><time>2026-04-10T13:11:58.065Z</time></trkpt><trkpt lat="44.6551222" lon="10.3673059"><ele>165.0</ele><time>2026-04-10T13:11:59.065Z</time></trkpt><trkpt lat="44.655205" lon="10.3670847"><ele>165.0</ele><time>2026-04-10T13:12:00.065Z</time></trkpt><trkpt lat="44.6552879" lon="10.3668621"><ele>164.66666666666666</ele><time>2026-04-10T13:12:01.064Z</time></trkpt><trkpt lat="44.655361" lon="10.366654"><ele>164.33333333333331</ele><time>2026-04-10T13:12:02.065Z</time></trkpt><trkpt lat="44.6554282" lon="10.3664553"><ele>164.0</ele><time>2026-04-10T13:12:03.065Z</time></trkpt><trkpt lat="44.6555004" lon="10.3662684"><ele>163.33333333333331</ele><time>2026-04-10T13:12:04.064Z</time></trkpt><trkpt lat="44.6555913" lon="10.3660955"><ele>162.66666666666666</ele><time>2026-04-10T13:12:05.065Z</time></trkpt><trkpt lat="44.6557038" lon="10.3659491"><ele>162.0</ele><time>2026-04-10T13:12:06.065Z</time></trkpt><trkpt lat="44.6558346" lon="10.365829"><ele>162.0</ele><time>2026-04-10T13:12:07.065Z</time></trkpt><trkpt lat="44.6559747" lon="10.3657176"><ele>162.0</ele><time>2026-04-10T13:12:08.065Z</time></trkpt><trkpt lat="44.6561061" lon="10.3655971"><ele>162.0</ele><time>2026-04-10T13:12:09.065Z</time></trkpt><trkpt lat="44.6562532" lon="10.3654732"><ele>161.33333333333334</ele><time>2026-04-10T13:12:10.065Z</time></trkpt><trkpt lat="44.6564069" lon="10.3653462"><ele>160.66666666666669</ele><time>2026-04-10T13:12:11.065Z</time></trkpt><trkpt lat="44.6565638" lon="10.3652188"><ele>160.0</ele><time>2026-04-10T13:12:12.065Z</time></trkpt><trkpt lat="44.6567214" lon="10.3650857"><ele>160.0</ele><time>2026-04-10T13:12:13.065Z</time></trkpt><trkpt lat="44.6568859" lon="10.3649528"><ele>160.0</ele><time>2026-04-10T13:12:14.065Z</time></trkpt><trkpt lat="44.6570494" lon="10.3648209"><ele>160.0</ele><time>2026-04-10T13:12:15.065Z</time></trkpt><trkpt lat="44.6572134" lon="10.3646904"><ele>160.66666666666669</ele><time>2026-04-10T13:12:16.065Z</time></trkpt><trkpt lat="44.6573727" lon="10.3645593"><ele>161.33333333333334</ele><time>2026-04-10T13:12:17.064Z</time></trkpt><trkpt lat="44.6575289" lon="10.3644285"><ele>162.0</ele><time>2026-04-10T13:12:18.065Z</time></trkpt><trkpt lat="44.6576792" lon="10.3642936"><ele>162.33333333333334</ele><time>2026-04-10T13:12:19.064Z</time></trkpt><trkpt lat="44.6578269" lon="10.3641691"><ele>162.66666666666669</ele><time>2026-04-10T13:12:20.065Z</time></trkpt><trkpt lat="44.6579731" lon="10.3640489"><ele>163.0</ele><time>2026-04-10T13:12:21.065Z</time></trkpt><trkpt lat="44.6581164" lon="10.3639322"><ele>163.66666666666669</ele><time>2026-04-10T13:12:22.065Z</time></trkpt><trkpt lat="44.6582564" lon="10.3638163"><ele>164.33333333333334</ele><time>2026-04-10T13:12:23.065Z</time></trkpt><trkpt lat="44.6583956" lon="10.3636992"><ele>165.0</ele><time>2026-04-10T13:12:24.065Z</time></trkpt><trkpt lat="44.6585355" lon="10.3635848"><ele>166.33333333333334</ele><time>2026-04-10T13:12:25.065Z</time></trkpt><trkpt lat="44.6586755" lon="10.3634686"><ele>167.66666666666669</ele><time>2026-04-10T13:12:26.064Z</time></trkpt><trkpt lat="44.6588183" lon="10.3633529"><ele>169.0</ele><time>2026-04-10T13:12:27.065Z</time></trkpt><trkpt lat="44.6589595" lon="10.3632368"><ele>169.0</ele><time>2026-04-10T13:12:28.064Z</time></trkpt><trkpt lat="44.6591015" lon="10.3631136"><ele>169.0</ele><time>2026-04-10T13:12:29.065Z</time></trkpt><trkpt lat="44.6592323" lon="10.3630037"><ele>169.0</ele><time>2026-04-10T13:12:30.064Z</time></trkpt><trkpt lat="44.6593601" lon="10.362892"><ele>170.25</ele><time>2026-04-10T13:12:31.065Z</time></trkpt><trkpt lat="44.6594832" lon="10.3627919"><ele>171.5</ele><time>2026-04-10T13:12:32.065Z</time></trkpt><trkpt lat="44.6596024" lon="10.3626898"><ele>172.75</ele><time>2026-04-10T13:12:33.065Z</time></trkpt><trkpt lat="44.6597177" lon="10.3625919"><ele>174.0</ele><time>2026-04-10T13:12:34.064Z</time></trkpt><trkpt lat="44.6598251" lon="10.3624992"><ele>174.0</ele><time>2026-04-10T13:12:35.065Z</time></trkpt><trkpt lat="44.6599251" lon="10.3624131"><ele>174.0</ele><time>2026-04-10T13:12:36.065Z</time></trkpt><trkpt lat="44.6600163" lon="10.3623391"><ele>174.0</ele><time>2026-04-10T13:12:37.064Z</time></trkpt><trkpt lat="44.6600962" lon="10.3622739"><ele>174.0</ele><time>2026-04-10T13:12:38.065Z</time></trkpt><trkpt lat="44.6601681" lon="10.3622141"><ele>174.0</ele><time>2026-04-10T13:12:39.064Z</time></trkpt><trkpt lat="44.6602359" lon="10.3621548"><ele>173.83333333333334</ele><time>2026-04-10T13:12:40.065Z</time></trkpt><trkpt lat="44.6603046" lon="10.3620989"><ele>173.66666666666666</ele><time>2026-04-10T13:12:41.065Z</time></trkpt><trkpt lat="44.6603682" lon="10.3620524"><ele>173.5</ele><time>2026-04-10T13:12:42.065Z</time></trkpt><trkpt lat="44.660463" lon="10.3619773"><ele>173.33333333333331</ele><time>2026-04-10T13:12:44.065Z</time></trkpt><trkpt lat="44.6605327" lon="10.361921"><ele>173.16666666666666</ele><time>2026-04-10T13:12:46.065Z</time></trkpt><trkpt lat="44.6606184" lon="10.3618479"><ele>173.0</ele><time>2026-04-10T13:12:48.065Z</time></trkpt><trkpt lat="44.6606834" lon="10.3618174"><ele>173.0</ele><time>2026-04-10T13:13:11.066Z</time></trkpt><trkpt lat="44.6607576" lon="10.3617687"><ele>173.0</ele><time>2026-04-10T13:13:12.065Z</time></trkpt><trkpt lat="44.6608517" lon="10.3617039"><ele>173.0</ele><time>2026-04-10T13:13:13.065Z</time></trkpt><trkpt lat="44.6609549" lon="10.3616347"><ele>173.0</ele><time>2026-04-10T13:13:14.065Z</time></trkpt><trkpt lat="44.6610796" lon="10.3615582"><ele>173.0</ele><time>2026-04-10T13:13:15.065Z</time></trkpt><trkpt lat="44.6612202" lon="10.361474"><ele>171.75</ele><time>2026-04-10T13:13:16.065Z</time></trkpt><trkpt lat="44.6613512" lon="10.3613935"><ele>170.5</ele><time>2026-04-10T13:13:17.066Z</time></trkpt><trkpt lat="44.6614843" lon="10.3613091"><ele>169.25</ele><time>2026-04-10T13:13:18.065Z</time></trkpt><trkpt lat="44.6616168" lon="10.361225"><ele>168.0</ele><time>2026-04-10T13:13:19.064Z</time></trkpt><trkpt lat="44.6617527" lon="10.361135"><ele>167.0</ele><time>2026-04-10T13:13:20.065Z</time></trkpt><trkpt lat="44.6618909" lon="10.3610416"><ele>166.0</ele><time>2026-04-10T13:13:21.065Z</time></trkpt><trkpt lat="44.6620267" lon="10.3609426"><ele>165.0</ele><time>2026-04-10T13:13:22.065Z</time></trkpt><trkpt lat="44.6621505" lon="10.360834"><ele>164.75</ele><time>2026-04-10T13:13:23.065Z</time></trkpt><trkpt lat="44.6622523" lon="10.3607064"><ele>164.5</ele><time>2026-04-10T13:13:24.065Z</time></trkpt><trkpt lat="44.6623258" lon="10.3605628"><ele>164.25</ele><time>2026-04-10T13:13:25.065Z</time></trkpt><trkpt lat="44.6623711" lon="10.3604041"><ele>164.0</ele><time>2026-04-10T13:13:26.065Z</time></trkpt><trkpt lat="44.6623926" lon="10.360223"><ele>164.0</ele><time>2026-04-10T13:13:27.065Z</time></trkpt><trkpt lat="44.6623953" lon="10.3600186"><ele>164.0</ele><time>2026-04-10T13:13:28.065Z</time></trkpt><trkpt lat="44.6623924" lon="10.3598045"><ele>164.0</ele><time>2026-04-10T13:13:29.064Z</time></trkpt><trkpt lat="44.6623824" lon="10.3595791"><ele>164.0</ele><time>2026-04-10T13:13:30.064Z</time></trkpt><trkpt lat="44.6623701" lon="10.3593455"><ele>164.0</ele><time>2026-04-10T13:13:31.065Z</time></trkpt><trkpt lat="44.6623575" lon="10.3591008"><ele>164.0</ele><time>2026-04-10T13:13:32.065Z</time></trkpt><trkpt lat="44.6623455" lon="10.3588551"><ele>164.33333333333331</ele><time>2026-04-10T13:13:33.065Z</time></trkpt><trkpt lat="44.6623345" lon="10.3586195"><ele>164.66666666666666</ele><time>2026-04-10T13:13:34.065Z</time></trkpt><trkpt lat="44.6623305" lon="10.3583782"><ele>165.0</ele><time>2026-04-10T13:13:35.065Z</time></trkpt><trkpt lat="44.6623456" lon="10.3581297"><ele>165.66666666666666</ele><time>2026-04-10T13:13:36.065Z</time></trkpt><trkpt lat="44.6623858" lon="10.3578927"><ele>166.33333333333331</ele><time>2026-04-10T13:13:37.065Z</time></trkpt><trkpt lat="44.6624504" lon="10.3576663"><ele>167.0</ele><time>2026-04-10T13:13:38.065Z</time></trkpt><trkpt lat="44.6625267" lon="10.3574449"><ele>167.0</ele><time>2026-04-10T13:13:39.065Z</time></trkpt><trkpt lat="44.6626148" lon="10.3572257"><ele>167.0</ele><time>2026-04-10T13:13:40.064Z</time></trkpt><trkpt lat="44.6627056" lon="10.357007"><ele>167.0</ele><time>2026-04-10T13:13:41.064Z</time></trkpt><trkpt lat="44.6627946" lon="10.3567887"><ele>166.66666666666666</ele><time>2026-04-10T13:13:42.065Z</time></trkpt><trkpt lat="44.6628864" lon="10.3565575"><ele>166.33333333333334</ele><time>2026-04-10T13:13:43.065Z</time></trkpt><trkpt lat="44.6629814" lon="10.3563126"><ele>166.0</ele><time>2026-04-10T13:13:44.064Z</time></trkpt><trkpt lat="44.6630744" lon="10.356067"><ele>166.0</ele><time>2026-04-10T13:13:45.065Z</time></trkpt><trkpt lat="44.6631588" lon="10.3558171"><ele>166.0</ele><time>2026-04-10T13:13:46.065Z</time></trkpt><trkpt lat="44.6632272" lon="10.3555534"><ele>166.0</ele><time>2026-04-10T13:13:47.065Z</time></trkpt><trkpt lat="44.6632739" lon="10.3552915"><ele>166.33333333333334</ele><time>2026-04-10T13:13:48.064Z</time></trkpt><trkpt lat="44.6633084" lon="10.3550302"><ele>166.66666666666666</ele><time>2026-04-10T13:13:49.064Z</time></trkpt><trkpt lat="44.6633389" lon="10.3547719"><ele>167.0</ele><time>2026-04-10T13:13:50.065Z</time></trkpt><trkpt lat="44.66337" lon="10.3545062"><ele>167.0</ele><time>2026-04-10T13:13:51.065Z</time></trkpt><trkpt lat="44.6634025" lon="10.3542286"><ele>167.0</ele><time>2026-04-10T13:13:52.065Z</time></trkpt><trkpt lat="44.6634366" lon="10.3539534"><ele>167.0</ele><time>2026-04-10T13:13:53.065Z</time></trkpt><trkpt lat="44.66347" lon="10.3536789"><ele>167.0</ele><time>2026-04-10T13:13:54.065Z</time></trkpt><trkpt lat="44.6635042" lon="10.353398"><ele>167.0</ele><time>2026-04-10T13:13:55.065Z</time></trkpt><trkpt lat="44.6635379" lon="10.3531206"><ele>167.0</ele><time>2026-04-10T13:13:56.065Z</time></trkpt><trkpt lat="44.6635708" lon="10.352858"><ele>167.0</ele><time>2026-04-10T13:13:57.065Z</time></trkpt><trkpt lat="44.6636057" lon="10.3526185"><ele>167.0</ele><time>2026-04-10T13:13:58.065Z</time></trkpt><trkpt lat="44.6636476" lon="10.352394"><ele>167.0</ele><time>2026-04-10T13:13:59.065Z</time></trkpt><trkpt lat="44.6637034" lon="10.3521771"><ele>167.33333333333331</ele><time>2026-04-10T13:14:00.065Z</time></trkpt><trkpt lat="44.6637708" lon="10.3519827"><ele>167.66666666666666</ele><time>2026-04-10T13:14:01.065Z</time></trkpt><trkpt lat="44.6638474" lon="10.3517971"><ele>168.0</ele><time>2026-04-10T13:14:02.065Z</time></trkpt><trkpt lat="44.6639318" lon="10.3516074"><ele>168.0</ele><time>2026-04-10T13:14:03.065Z</time></trkpt><trkpt lat="44.6640188" lon="10.3514135"><ele>168.0</ele><time>2026-04-10T13:14:04.065Z</time></trkpt><trkpt lat="44.6641032" lon="10.3512213"><ele>168.0</ele><time>2026-04-10T13:14:05.065Z</time></trkpt><trkpt lat="44.6641777" lon="10.351039"><ele>168.0</ele><time>2026-04-10T13:14:06.065Z</time></trkpt><trkpt lat="44.6642459" lon="10.3508518"><ele>168.0</ele><time>2026-04-10T13:14:07.065Z</time></trkpt><trkpt lat="44.6643073" lon="10.3506512"><ele>168.0</ele><time>2026-04-10T13:14:08.064Z</time></trkpt><trkpt lat="44.6643597" lon="10.3504503"><ele>169.0</ele><time>2026-04-10T13:14:09.064Z</time></trkpt><trkpt lat="44.6644092" lon="10.3502412"><ele>170.0</ele><time>2026-04-10T13:14:10.065Z</time></trkpt><trkpt lat="44.6644586" lon="10.3500209"><ele>171.0</ele><time>2026-04-10T13:14:11.065Z</time></trkpt><trkpt lat="44.664505" lon="10.3498011"><ele>171.5</ele><time>2026-04-10T13:14:12.065Z</time></trkpt><trkpt lat="44.6645483" lon="10.3495914"><ele>172.0</ele><time>2026-04-10T13:14:13.064Z</time></trkpt><trkpt lat="44.6645882" lon="10.3493975"><ele>172.5</ele><time>2026-04-10T13:14:14.064Z</time></trkpt><trkpt lat="44.6646243" lon="10.3492263"><ele>173.0</ele><time>2026-04-10T13:14:15.065Z</time></trkpt><trkpt lat="44.6646607" lon="10.349056"><ele>173.0</ele><time>2026-04-10T13:14:16.065Z</time></trkpt><trkpt lat="44.6646927" lon="10.3489039"><ele>173.0</ele><time>2026-04-10T13:14:17.065Z</time></trkpt><trkpt lat="44.6647203" lon="10.3487723"><ele>173.0</ele><time>2026-04-10T13:14:18.065Z</time></trkpt><trkpt lat="44.6647463" lon="10.3486615"><ele>173.0</ele><time>2026-04-10T13:14:19.064Z</time></trkpt><trkpt lat="44.6647673" lon="10.3485709"><ele>173.0</ele><time>2026-04-10T13:14:20.064Z</time></trkpt><trkpt lat="44.6647756" lon="10.3484301"><ele>173.0</ele><time>2026-04-10T13:14:22.065Z</time></trkpt><trkpt lat="44.6647107" lon="10.3483767"><ele>173.0</ele><time>2026-04-10T13:14:24.064Z</time></trkpt><trkpt lat="44.6645667" lon="10.3483605"><ele>173.0</ele><time>2026-04-10T13:14:26.065Z</time></trkpt><trkpt lat="44.6644515" lon="10.3483571"><ele>173.0</ele><time>2026-04-10T13:14:27.063Z</time></trkpt><trkpt lat="44.6643323" lon="10.3483448"><ele>173.0</ele><time>2026-04-10T13:14:28.064Z</time></trkpt><trkpt lat="44.6641956" lon="10.348334"><ele>173.0</ele><time>2026-04-10T13:14:29.064Z</time></trkpt><trkpt lat="44.664041" lon="10.3483251"><ele>173.0</ele><time>2026-04-10T13:14:30.064Z</time></trkpt><trkpt lat="44.6638869" lon="10.3483239"><ele>173.0</ele><time>2026-04-10T13:14:31.063Z</time></trkpt><trkpt lat="44.6637122" lon="10.3483403"><ele>173.0</ele><time>2026-04-10T13:14:32.064Z</time></trkpt><trkpt lat="44.6635401" lon="10.3483722"><ele>173.0</ele><time>2026-04-10T13:14:33.064Z</time></trkpt><trkpt lat="44.6633651" lon="10.3484097"><ele>173.0</ele><time>2026-04-10T13:14:34.064Z</time></trkpt><trkpt lat="44.6631808" lon="10.3484454"><ele>173.0</ele><time>2026-04-10T13:14:35.064Z</time></trkpt><trkpt lat="44.6630134" lon="10.3484691"><ele>173.0</ele><time>2026-04-10T13:14:36.063Z</time></trkpt><trkpt lat="44.6628641" lon="10.3484904"><ele>173.0</ele><time>2026-04-10T13:14:37.064Z</time></trkpt><trkpt lat="44.6627342" lon="10.3485247"><ele>173.75</ele><time>2026-04-10T13:14:38.063Z</time></trkpt><trkpt lat="44.6626269" lon="10.3485882"><ele>174.5</ele><time>2026-04-10T13:14:39.064Z</time></trkpt><trkpt lat="44.6625257" lon="10.3486957"><ele>175.25</ele><time>2026-04-10T13:14:40.064Z</time></trkpt><trkpt lat="44.6624256" lon="10.3488168"><ele>176.0</ele><time>2026-04-10T13:14:41.064Z</time></trkpt><trkpt lat="44.6623158" lon="10.3489233"><ele>176.0</ele><time>2026-04-10T13:14:42.064Z</time></trkpt><trkpt lat="44.6621825" lon="10.3490105"><ele>176.0</ele><time>2026-04-10T13:14:43.064Z</time></trkpt><trkpt lat="44.6620447" lon="10.3490808"><ele>176.0</ele><time>2026-04-10T13:14:44.064Z</time></trkpt><trkpt lat="44.6618973" lon="10.3491479"><ele>176.0</ele><time>2026-04-10T13:14:45.063Z</time></trkpt><trkpt lat="44.6617465" lon="10.3492136"><ele>178.0</ele><time>2026-04-10T13:14:46.064Z</time></trkpt><trkpt lat="44.6615947" lon="10.3492955"><ele>180.0</ele><time>2026-04-10T13:14:47.064Z</time></trkpt><trkpt lat="44.661451" lon="10.3493647"><ele>182.0</ele><time>2026-04-10T13:14:48.064Z</time></trkpt><trkpt lat="44.6613283" lon="10.3494079"><ele>184.0</ele><time>2026-04-10T13:14:49.064Z</time></trkpt><trkpt lat="44.6612239" lon="10.3494118"><ele>184.0</ele><time>2026-04-10T13:14:50.064Z</time></trkpt><trkpt lat="44.6611227" lon="10.3493736"><ele>184.0</ele><time>2026-04-10T13:14:51.063Z</time></trkpt><trkpt lat="44.6610238" lon="10.3492901"><ele>184.0</ele><time>2026-04-10T13:14:52.064Z</time></trkpt><trkpt lat="44.6609213" lon="10.349169"><ele>184.0</ele><time>2026-04-10T13:14:53.064Z</time></trkpt><trkpt lat="44.6608101" lon="10.3490276"><ele>184.75</ele><time>2026-04-10T13:14:54.063Z</time></trkpt><trkpt lat="44.6607074" lon="10.3488969"><ele>185.5</ele><time>2026-04-10T13:14:55.064Z</time></trkpt><trkpt lat="44.6606053" lon="10.3487686"><ele>186.25</ele><time>2026-04-10T13:14:56.063Z</time></trkpt><trkpt lat="44.6605124" lon="10.3486574"><ele>187.0</ele><time>2026-04-10T13:14:57.064Z</time></trkpt><trkpt lat="44.6604252" lon="10.3485735"><ele>187.0</ele><time>2026-04-10T13:14:58.064Z</time></trkpt><trkpt lat="44.6603314" lon="10.3485216"><ele>187.0</ele><time>2026-04-10T13:14:59.063Z</time></trkpt><trkpt lat="44.6602411" lon="10.3485103"><ele>187.0</ele><time>2026-04-10T13:15:00.064Z</time></trkpt><trkpt lat="44.6601411" lon="10.3485096"><ele>187.0</ele><time>2026-04-10T13:15:01.064Z</time></trkpt><trkpt lat="44.6600263" lon="10.3485108"><ele>187.0</ele><time>2026-04-10T13:15:02.064Z</time></trkpt><trkpt lat="44.6598954" lon="10.3485125"><ele>188.0</ele><time>2026-04-10T13:15:03.063Z</time></trkpt><trkpt lat="44.6597464" lon="10.3485145"><ele>189.0</ele><time>2026-04-10T13:15:04.063Z</time></trkpt><trkpt lat="44.6595888" lon="10.3485128"><ele>190.0</ele><time>2026-04-10T13:15:05.063Z</time></trkpt><trkpt lat="44.6594372" lon="10.3485097"><ele>190.75</ele><time>2026-04-10T13:15:06.064Z</time></trkpt><trkpt lat="44.6592889" lon="10.3485136"><ele>191.5</ele><time>2026-04-10T13:15:07.063Z</time></trkpt><trkpt lat="44.6591618" lon="10.3485486"><ele>192.25</ele><time>2026-04-10T13:15:08.064Z</time></trkpt><trkpt lat="44.6590398" lon="10.3486207"><ele>193.0</ele><time>2026-04-10T13:15:09.064Z</time></trkpt><trkpt lat="44.658912" lon="10.3487146"><ele>193.0</ele><time>2026-04-10T13:15:10.063Z</time></trkpt><trkpt lat="44.6587899" lon="10.3488124"><ele>193.0</ele><time>2026-04-10T13:15:11.064Z</time></trkpt><trkpt lat="44.6586743" lon="10.3489074"><ele>193.0</ele><time>2026-04-10T13:15:12.063Z</time></trkpt><trkpt lat="44.6585805" lon="10.3489835"><ele>193.0</ele><time>2026-04-10T13:15:13.064Z</time></trkpt><trkpt lat="44.6585016" lon="10.3490499"><ele>194.0</ele><time>2026-04-10T13:15:14.064Z</time></trkpt><trkpt lat="44.6584215" lon="10.3491237"><ele>195.0</ele><time>2026-04-10T13:15:15.064Z</time></trkpt><trkpt lat="44.6583419" lon="10.349195"><ele>196.0</ele><time>2026-04-10T13:15:16.064Z</time></trkpt><trkpt lat="44.6582554" lon="10.3492713"><ele>197.0</ele><time>2026-04-10T13:15:17.065Z</time></trkpt><trkpt lat="44.6581691" lon="10.3493469"><ele>198.0</ele><time>2026-04-10T13:15:18.064Z</time></trkpt><trkpt lat="44.6580885" lon="10.3494161"><ele>198.0</ele><time>2026-04-10T13:15:19.064Z</time></trkpt><trkpt lat="44.65802" lon="10.3494738"><ele>198.0</ele><time>2026-04-10T13:15:20.064Z</time></trkpt><trkpt lat="44.6579597" lon="10.3495248"><ele>198.0</ele><time>2026-04-10T13:15:21.064Z</time></trkpt><trkpt lat="44.6578949" lon="10.3495791"><ele>198.0</ele><time>2026-04-10T13:15:22.064Z</time></trkpt><trkpt lat="44.657822" lon="10.349642"><ele>198.0</ele><time>2026-04-10T13:15:23.064Z</time></trkpt><trkpt lat="44.6577372" lon="10.3497115"><ele>198.0</ele><time>2026-04-10T13:15:24.064Z</time></trkpt><trkpt lat="44.6576423" lon="10.3497867"><ele>198.4</ele><time>2026-04-10T13:15:25.063Z</time></trkpt><trkpt lat="44.6575422" lon="10.3498596"><ele>198.8</ele><time>2026-04-10T13:15:26.063Z</time></trkpt><trkpt lat="44.6574402" lon="10.349925"><ele>199.2</ele><time>2026-04-10T13:15:27.064Z</time></trkpt><trkpt lat="44.6573401" lon="10.3499766"><ele>199.6</ele><time>2026-04-10T13:15:28.064Z</time></trkpt><trkpt lat="44.6572459" lon="10.3500032"><ele>200.0</ele><time>2026-04-10T13:15:29.063Z</time></trkpt><trkpt lat="44.6571561" lon="10.3499952"><ele>200.0</ele><time>2026-04-10T13:15:30.064Z</time></trkpt><trkpt lat="44.6570708" lon="10.3499498"><ele>200.0</ele><time>2026-04-10T13:15:31.063Z</time></trkpt><trkpt lat="44.6569887" lon="10.3498717"><ele>200.0</ele><time>2026-04-10T13:15:32.064Z</time></trkpt><trkpt lat="44.6569063" lon="10.3497616"><ele>200.0</ele><time>2026-04-10T13:15:33.064Z</time></trkpt><trkpt lat="44.6568259" lon="10.3496414"><ele>200.0</ele><time>2026-04-10T13:15:34.063Z</time></trkpt><trkpt lat="44.6567434" lon="10.3495156"><ele>198.5</ele><time>2026-04-10T13:15:35.064Z</time></trkpt><trkpt lat="44.6566579" lon="10.3493836"><ele>197.0</ele><time>2026-04-10T13:15:36.063Z</time></trkpt><trkpt lat="44.6565774" lon="10.3492517"><ele>195.5</ele><time>2026-04-10T13:15:37.063Z</time></trkpt><trkpt lat="44.6564893" lon="10.3491081"><ele>194.0</ele><time>2026-04-10T13:15:38.064Z</time></trkpt><trkpt lat="44.6563908" lon="10.3489536"><ele>195.33333333333334</ele><time>2026-04-10T13:15:39.063Z</time></trkpt><trkpt lat="44.6562838" lon="10.3487942"><ele>196.66666666666669</ele><time>2026-04-10T13:15:40.064Z</time></trkpt><trkpt lat="44.6561702" lon="10.34863"><ele>198.0</ele><time>2026-04-10T13:15:41.064Z</time></trkpt><trkpt lat="44.6560503" lon="10.3484709"><ele>193.0</ele><time>2026-04-10T13:15:42.063Z</time></trkpt><trkpt lat="44.6559121" lon="10.3483235"><ele>188.0</ele><time>2026-04-10T13:15:43.064Z</time></trkpt><trkpt lat="44.6557529" lon="10.3481912"><ele>183.0</ele><time>2026-04-10T13:15:44.064Z</time></trkpt><trkpt lat="44.6555922" lon="10.3480784"><ele>182.66666666666666</ele><time>2026-04-10T13:15:45.064Z</time></trkpt><trkpt lat="44.6554393" lon="10.3479747"><ele>182.33333333333331</ele><time>2026-04-10T13:15:46.064Z</time></trkpt><trkpt lat="44.6552959" lon="10.3478688"><ele>182.0</ele><time>2026-04-10T13:15:47.064Z</time></trkpt><trkpt lat="44.6551753" lon="10.3477469"><ele>182.0</ele><time>2026-04-10T13:15:48.065Z</time></trkpt><trkpt lat="44.6550591" lon="10.3476125"><ele>182.0</ele><time>2026-04-10T13:15:49.064Z</time></trkpt><trkpt lat="44.6549611" lon="10.3474788"><ele>182.0</ele><time>2026-04-10T13:15:50.064Z</time></trkpt><trkpt lat="44.6549142" lon="10.347399"><ele>182.0</ele><time>2026-04-10T13:15:51.063Z</time></trkpt><trkpt lat="44.6548336" lon="10.3472543"><ele>183.75</ele><time>2026-04-10T13:15:52.064Z</time></trkpt><trkpt lat="44.6547496" lon="10.347096"><ele>185.5</ele><time>2026-04-10T13:15:53.064Z</time></trkpt><trkpt lat="44.6546632" lon="10.3469258"><ele>187.25</ele><time>2026-04-10T13:15:54.063Z</time></trkpt><trkpt lat="44.6545813" lon="10.3467417"><ele>189.0</ele><time>2026-04-10T13:15:55.064Z</time></trkpt><trkpt lat="44.6544972" lon="10.3465493"><ele>188.0</ele><time>2026-04-10T13:15:56.064Z</time></trkpt><trkpt lat="44.654407" lon="10.3463469"><ele>187.0</ele><time>2026-04-10T13:15:57.064Z</time></trkpt><trkpt lat="44.654315" lon="10.3461378"><ele>186.0</ele><time>2026-04-10T13:15:58.064Z</time></trkpt><trkpt lat="44.6542176" lon="10.3459238"><ele>186.0</ele><time>2026-04-10T13:15:59.064Z</time></trkpt><trkpt lat="44.6541207" lon="10.3457093"><ele>186.0</ele><time>2026-04-10T13:16:00.063Z</time></trkpt><trkpt lat="44.6540276" lon="10.3454918"><ele>186.0</ele><time>2026-04-10T13:16:01.064Z</time></trkpt><trkpt lat="44.6539393" lon="10.3452664"><ele>187.33333333333334</ele><time>2026-04-10T13:16:02.064Z</time></trkpt><trkpt lat="44.653873" lon="10.3450308"><ele>188.66666666666669</ele><time>2026-04-10T13:16:03.064Z</time></trkpt><trkpt lat="44.6538225" lon="10.3448056"><ele>190.0</ele><time>2026-04-10T13:16:04.064Z</time></trkpt><trkpt lat="44.6537786" lon="10.3445739"><ele>192.66666666666669</ele><time>2026-04-10T13:16:05.064Z</time></trkpt><trkpt lat="44.6537298" lon="10.3443499"><ele>195.33333333333334</ele><time>2026-04-10T13:16:06.064Z</time></trkpt><trkpt lat="44.6536812" lon="10.3441285"><ele>198.0</ele><time>2026-04-10T13:16:07.063Z</time></trkpt><trkpt lat="44.6536253" lon="10.3439125"><ele>195.33333333333334</ele><time>2026-04-10T13:16:08.064Z</time></trkpt><trkpt lat="44.6535554" lon="10.3436982"><ele>192.66666666666669</ele><time>2026-04-10T13:16:09.064Z</time></trkpt><trkpt lat="44.6534677" lon="10.3434851"><ele>190.0</ele><time>2026-04-10T13:16:10.063Z</time></trkpt><trkpt lat="44.6533779" lon="10.3432689"><ele>190.0</ele><time>2026-04-10T13:16:11.064Z</time></trkpt><trkpt lat="44.6532863" lon="10.3430547"><ele>190.0</ele><time>2026-04-10T13:16:12.063Z</time></trkpt><trkpt lat="44.6531956" lon="10.3428435"><ele>190.0</ele><time>2026-04-10T13:16:13.065Z</time></trkpt><trkpt lat="44.6531079" lon="10.342628"><ele>193.66666666666669</ele><time>2026-04-10T13:16:14.063Z</time></trkpt><trkpt lat="44.6530208" lon="10.3424139"><ele>197.33333333333334</ele><time>2026-04-10T13:16:15.064Z</time></trkpt><trkpt lat="44.6529376" lon="10.3422"><ele>201.0</ele><time>2026-04-10T13:16:16.064Z</time></trkpt><trkpt lat="44.6528544" lon="10.3419903"><ele>200.25</ele><time>2026-04-10T13:16:17.064Z</time></trkpt><trkpt lat="44.6527747" lon="10.341803"><ele>199.5</ele><time>2026-04-10T13:16:18.064Z</time></trkpt><trkpt lat="44.6526924" lon="10.3416379"><ele>198.75</ele><time>2026-04-10T13:16:19.063Z</time></trkpt><trkpt lat="44.6526051" lon="10.3414968"><ele>198.0</ele><time>2026-04-10T13:16:20.064Z</time></trkpt><trkpt lat="44.6525157" lon="10.3413762"><ele>198.0</ele><time>2026-04-10T13:16:21.064Z</time></trkpt><trkpt lat="44.6524211" lon="10.3412669"><ele>198.0</ele><time>2026-04-10T13:16:22.064Z</time></trkpt><trkpt lat="44.6523264" lon="10.3411529"><ele>198.0</ele><time>2026-04-10T13:16:23.064Z</time></trkpt><trkpt lat="44.6522276" lon="10.3410338"><ele>198.0</ele><time>2026-04-10T13:16:24.064Z</time></trkpt><trkpt lat="44.6521308" lon="10.3409105"><ele>198.0</ele><time>2026-04-10T13:16:25.064Z</time></trkpt><trkpt lat="44.6520344" lon="10.3407961"><ele>198.0</ele><time>2026-04-10T13:16:26.063Z</time></trkpt><trkpt lat="44.651948" lon="10.3406809"><ele>198.0</ele><time>2026-04-10T13:16:27.064Z</time></trkpt><trkpt lat="44.6518544" lon="10.3405741"><ele>198.0</ele><time>2026-04-10T13:16:28.064Z</time></trkpt><trkpt lat="44.6517557" lon="10.340488"><ele>197.5</ele><time>2026-04-10T13:16:29.063Z</time></trkpt><trkpt lat="44.6516399" lon="10.3404168"><ele>197.0</ele><time>2026-04-10T13:16:30.064Z</time></trkpt><trkpt lat="44.6515" lon="10.3403529"><ele>196.5</ele><time>2026-04-10T13:16:31.063Z</time></trkpt><trkpt lat="44.651353" lon="10.3402761"><ele>196.0</ele><time>2026-04-10T13:16:32.064Z</time></trkpt><trkpt lat="44.6511987" lon="10.3401903"><ele>194.33333333333331</ele><time>2026-04-10T13:16:33.064Z</time></trkpt><trkpt lat="44.651047" lon="10.3401059"><ele>192.66666666666666</ele><time>2026-04-10T13:16:34.064Z</time></trkpt><trkpt lat="44.6508929" lon="10.3400138"><ele>191.0</ele><time>2026-04-10T13:16:35.063Z</time></trkpt><trkpt lat="44.6507365" lon="10.3399149"><ele>191.0</ele><time>2026-04-10T13:16:36.063Z</time></trkpt><trkpt lat="44.6505895" lon="10.3397771"><ele>191.0</ele><time>2026-04-10T13:16:37.063Z</time></trkpt><trkpt lat="44.6504579" lon="10.3396154"><ele>191.0</ele><time>2026-04-10T13:16:38.063Z</time></trkpt><trkpt lat="44.6503465" lon="10.3394223"><ele>191.0</ele><time>2026-04-10T13:16:39.063Z</time></trkpt><trkpt lat="44.6502412" lon="10.3392224"><ele>191.0</ele><time>2026-04-10T13:16:40.063Z</time></trkpt><trkpt lat="44.6501293" lon="10.3390469"><ele>191.0</ele><time>2026-04-10T13:16:41.063Z</time></trkpt><trkpt lat="44.6500162" lon="10.3388953"><ele>191.25</ele><time>2026-04-10T13:16:42.064Z</time></trkpt><trkpt lat="44.6499051" lon="10.3387397"><ele>191.5</ele><time>2026-04-10T13:16:43.064Z</time></trkpt><trkpt lat="44.6498115" lon="10.3385931"><ele>191.75</ele><time>2026-04-10T13:16:44.064Z</time></trkpt><trkpt lat="44.6497387" lon="10.3384423"><ele>192.0</ele><time>2026-04-10T13:16:45.064Z</time></trkpt><trkpt lat="44.6496776" lon="10.3382946"><ele>192.0</ele><time>2026-04-10T13:16:46.064Z</time></trkpt><trkpt lat="44.6496301" lon="10.3381488"><ele>192.0</ele><time>2026-04-10T13:16:47.063Z</time></trkpt><trkpt lat="44.6495973" lon="10.3380121"><ele>192.0</ele><time>2026-04-10T13:16:48.064Z</time></trkpt><trkpt lat="44.6495615" lon="10.3378631"><ele>192.0</ele><time>2026-04-10T13:16:49.064Z</time></trkpt><trkpt lat="44.6495212" lon="10.337703"><ele>192.0</ele><time>2026-04-10T13:16:50.064Z</time></trkpt><trkpt lat="44.649481" lon="10.337523"><ele>192.0</ele><time>2026-04-10T13:16:51.064Z</time></trkpt><trkpt lat="44.6494369" lon="10.3373307"><ele>192.0</ele><time>2026-04-10T13:16:52.064Z</time></trkpt><trkpt lat="44.6493894" lon="10.3371228"><ele>192.0</ele><time>2026-04-10T13:16:53.064Z</time></trkpt><trkpt lat="44.649338" lon="10.3369135"><ele>192.0</ele><time>2026-04-10T13:16:54.064Z</time></trkpt><trkpt lat="44.6492905" lon="10.3367124"><ele>192.0</ele><time>2026-04-10T13:16:55.064Z</time></trkpt><trkpt lat="44.6492478" lon="10.3365185"><ele>192.0</ele><time>2026-04-10T13:16:56.064Z</time></trkpt><trkpt lat="44.6492026" lon="10.3363157"><ele>192.0</ele><time>2026-04-10T13:16:57.064Z</time></trkpt><trkpt lat="44.6491514" lon="10.3361092"><ele>192.33333333333331</ele><time>2026-04-10T13:16:58.064Z</time></trkpt><trkpt lat="44.6491004" lon="10.3358947"><ele>192.66666666666666</ele><time>2026-04-10T13:16:59.064Z</time></trkpt><trkpt lat="44.6490488" lon="10.3356767"><ele>193.0</ele><time>2026-04-10T13:17:00.064Z</time></trkpt><trkpt lat="44.6489986" lon="10.3354591"><ele>193.25</ele><time>2026-04-10T13:17:01.064Z</time></trkpt><trkpt lat="44.6489423" lon="10.335244"><ele>193.5</ele><time>2026-04-10T13:17:02.064Z</time></trkpt><trkpt lat="44.6488964" lon="10.3350478"><ele>193.75</ele><time>2026-04-10T13:17:03.064Z</time></trkpt><trkpt lat="44.6488509" lon="10.33487"><ele>194.0</ele><time>2026-04-10T13:17:04.064Z</time></trkpt><trkpt lat="44.6488107" lon="10.3347095"><ele>194.5</ele><time>2026-04-10T13:17:05.064Z</time></trkpt><trkpt lat="44.648763" lon="10.3345331"><ele>195.0</ele><time>2026-04-10T13:17:06.064Z</time></trkpt><trkpt lat="44.6487182" lon="10.3343588"><ele>195.5</ele><time>2026-04-10T13:17:07.063Z</time></trkpt><trkpt lat="44.6486724" lon="10.3341736"><ele>196.0</ele><time>2026-04-10T13:17:08.063Z</time></trkpt><trkpt lat="44.6486287" lon="10.3339796"><ele>195.5</ele><time>2026-04-10T13:17:09.063Z</time></trkpt><trkpt lat="44.6485852" lon="10.3338007"><ele>195.0</ele><time>2026-04-10T13:17:10.063Z</time></trkpt><trkpt lat="44.6485449" lon="10.3336423"><ele>194.5</ele><time>2026-04-10T13:17:11.064Z</time></trkpt><trkpt lat="44.6485034" lon="10.3334961"><ele>194.0</ele><time>2026-04-10T13:17:12.063Z</time></trkpt><trkpt lat="44.6484646" lon="10.3333504"><ele>194.0</ele><time>2026-04-10T13:17:13.064Z</time></trkpt><trkpt lat="44.6484234" lon="10.3332023"><ele>194.0</ele><time>2026-04-10T13:17:14.064Z</time></trkpt><trkpt lat="44.6483855" lon="10.3330569"><ele>194.0</ele><time>2026-04-10T13:17:15.064Z</time></trkpt><trkpt lat="44.6483511" lon="10.3329241"><ele>194.0</ele><time>2026-04-10T13:17:16.064Z</time></trkpt><trkpt lat="44.6483241" lon="10.3327866"><ele>194.0</ele><time>2026-04-10T13:17:17.064Z</time></trkpt><trkpt lat="44.6483013" lon="10.3326446"><ele>194.0</ele><time>2026-04-10T13:17:18.063Z</time></trkpt><trkpt lat="44.6482957" lon="10.3325041"><ele>194.0</ele><time>2026-04-10T13:17:19.064Z</time></trkpt><trkpt lat="44.648289" lon="10.3323574"><ele>194.0</ele><time>2026-04-10T13:17:20.064Z</time></trkpt><trkpt lat="44.6482838" lon="10.3322043"><ele>194.0</ele><time>2026-04-10T13:17:21.063Z</time></trkpt><trkpt lat="44.6482585" lon="10.3320512"><ele>194.0</ele><time>2026-04-10T13:17:22.063Z</time></trkpt><trkpt lat="44.6482222" lon="10.3319043"><ele>194.39999999999998</ele><time>2026-04-10T13:17:23.064Z</time></trkpt><trkpt lat="44.6481752" lon="10.331776"><ele>194.8</ele><time>2026-04-10T13:17:24.064Z</time></trkpt><trkpt lat="44.6481324" lon="10.3316815"><ele>195.2</ele><time>2026-04-10T13:17:25.063Z</time></trkpt><trkpt lat="44.6480921" lon="10.3315943"><ele>195.60000000000002</ele><time>2026-04-10T13:17:26.064Z</time></trkpt><trkpt lat="44.6480124" lon="10.3315127"><ele>196.0</ele><time>2026-04-10T13:17:28.064Z</time></trkpt><trkpt lat="44.6479207" lon="10.3315599"><ele>195.99999999999997</ele><time>2026-04-10T13:17:30.064Z</time></trkpt><trkpt lat="44.6478433" lon="10.3315959"><ele>196.0</ele><time>2026-04-10T13:17:32.064Z</time></trkpt><trkpt lat="44.6477636" lon="10.3316175"><ele>196.0</ele><time>2026-04-10T13:17:35.064Z</time></trkpt><trkpt lat="44.6476768" lon="10.3316185"><ele>196.0</ele><time>2026-04-10T13:17:39.064Z</time></trkpt><trkpt lat="44.6476069" lon="10.3316193"><ele>195.99999999999997</ele><time>2026-04-10T13:17:40.065Z</time></trkpt><trkpt lat="44.6475317" lon="10.3316171"><ele>196.0</ele><time>2026-04-10T13:17:41.063Z</time></trkpt><trkpt lat="44.6474426" lon="10.3316299"><ele>196.60000000000002</ele><time>2026-04-10T13:17:42.064Z</time></trkpt><trkpt lat="44.6473381" lon="10.3316317"><ele>197.2</ele><time>2026-04-10T13:17:43.064Z</time></trkpt><trkpt lat="44.6472304" lon="10.3316413"><ele>197.8</ele><time>2026-04-10T13:17:44.064Z</time></trkpt><trkpt lat="44.6471303" lon="10.3316507"><ele>198.39999999999998</ele><time>2026-04-10T13:17:45.063Z</time></trkpt><trkpt lat="44.6470561" lon="10.3316448"><ele>199.0</ele><time>2026-04-10T13:17:46.064Z</time></trkpt><trkpt lat="44.6469798" lon="10.3316213"><ele>201.99999999999997</ele><time>2026-04-10T13:17:47.064Z</time></trkpt><trkpt lat="44.6469044" lon="10.3315849"><ele>205.0</ele><time>2026-04-10T13:17:48.064Z</time></trkpt><trkpt lat="44.6468328" lon="10.331463"><ele>208.0</ele><time>2026-04-10T13:17:50.064Z</time></trkpt><trkpt lat="44.6467414" lon="10.3314943"><ele>211.0</ele><time>2026-04-10T13:17:52.064Z</time></trkpt><trkpt lat="44.6466922" lon="10.3316021"><ele>213.99999999999997</ele><time>2026-04-10T13:17:53.065Z</time></trkpt><trkpt lat="44.6466518" lon="10.3316774"><ele>217.0</ele><time>2026-04-10T13:17:54.064Z</time></trkpt><trkpt lat="44.6466158" lon="10.3317581"><ele>216.99999999999997</ele><time>2026-04-10T13:17:55.064Z</time></trkpt><trkpt lat="44.6465765" lon="10.3318363"><ele>217.0</ele><time>2026-04-10T13:17:56.064Z</time></trkpt><trkpt lat="44.6465317" lon="10.3319165"><ele>217.0</ele><time>2026-04-10T13:17:57.063Z</time></trkpt><trkpt lat="44.6464768" lon="10.3320088"><ele>217.0</ele><time>2026-04-10T13:17:58.064Z</time></trkpt><trkpt lat="44.6464113" lon="10.332113"><ele>216.99999999999997</ele><time>2026-04-10T13:17:59.064Z</time></trkpt><trkpt lat="44.6463406" lon="10.3322254"><ele>217.0</ele><time>2026-04-10T13:18:00.064Z</time></trkpt><trkpt lat="44.6462591" lon="10.3323494"><ele>218.5</ele><time>2026-04-10T13:18:01.064Z</time></trkpt><trkpt lat="44.6461783" lon="10.3324774"><ele>220.0</ele><time>2026-04-10T13:18:02.064Z</time></trkpt><trkpt lat="44.6461058" lon="10.3325847"><ele>221.5</ele><time>2026-04-10T13:18:03.064Z</time></trkpt><trkpt lat="44.6460277" lon="10.3327019"><ele>223.0</ele><time>2026-04-10T13:18:04.063Z</time></trkpt><trkpt lat="44.6459497" lon="10.3328195"><ele>225.25</ele><time>2026-04-10T13:18:05.064Z</time></trkpt><trkpt lat="44.6458741" lon="10.3329401"><ele>227.5</ele><time>2026-04-10T13:18:06.063Z</time></trkpt><trkpt lat="44.6457978" lon="10.3330676"><ele>229.75</ele><time>2026-04-10T13:18:07.063Z</time></trkpt><trkpt lat="44.6457233" lon="10.3331946"><ele>232.0</ele><time>2026-04-10T13:18:08.064Z</time></trkpt><trkpt lat="44.6456431" lon="10.3333245"><ele>233.6</ele><time>2026-04-10T13:18:09.064Z</time></trkpt><trkpt lat="44.6455684" lon="10.3334456"><ele>235.2</ele><time>2026-04-10T13:18:10.064Z</time></trkpt><trkpt lat="44.6455044" lon="10.3335496"><ele>236.8</ele><time>2026-04-10T13:18:11.065Z</time></trkpt><trkpt lat="44.6454407" lon="10.3336636"><ele>238.4</ele><time>2026-04-10T13:18:12.063Z</time></trkpt><trkpt lat="44.6453781" lon="10.3337806"><ele>240.0</ele><time>2026-04-10T13:18:13.063Z</time></trkpt><trkpt lat="44.6453381" lon="10.3338896"><ele>241.16666666666666</ele><time>2026-04-10T13:18:14.063Z</time></trkpt><trkpt lat="44.6453024" lon="10.3339888"><ele>242.33333333333331</ele><time>2026-04-10T13:18:15.064Z</time></trkpt><trkpt lat="44.6452754" lon="10.3340806"><ele>243.5</ele><time>2026-04-10T13:18:16.064Z</time></trkpt><trkpt lat="44.6452887" lon="10.3342833"><ele>244.66666666666666</ele><time>2026-04-10T13:18:18.064Z</time></trkpt><trkpt lat="44.645307" lon="10.3344021"><ele>245.83333333333331</ele><time>2026-04-10T13:18:20.063Z</time></trkpt><trkpt lat="44.6452427" lon="10.3343971"><ele>247.0</ele><time>2026-04-10T13:18:23.064Z</time></trkpt><trkpt lat="44.6451669" lon="10.3342957"><ele>248.6</ele><time>2026-04-10T13:18:25.064Z</time></trkpt><trkpt lat="44.6451129" lon="10.3342172"><ele>250.2</ele><time>2026-04-10T13:18:26.064Z</time></trkpt><trkpt lat="44.6450524" lon="10.334126"><ele>251.8</ele><time>2026-04-10T13:18:27.062Z</time></trkpt><trkpt lat="44.6449886" lon="10.3340158"><ele>253.4</ele><time>2026-04-10T13:18:28.062Z</time></trkpt><trkpt lat="44.6448866" lon="10.3339088"><ele>255.0</ele><time>2026-04-10T13:18:29.062Z</time></trkpt><trkpt lat="44.6448022" lon="10.3337916"><ele>255.0</ele><time>2026-04-10T13:18:30.062Z</time></trkpt><trkpt lat="44.6447224" lon="10.3336784"><ele>255.0</ele><time>2026-04-10T13:18:31.063Z</time></trkpt><trkpt lat="44.6446336" lon="10.3335737"><ele>255.0</ele><time>2026-04-10T13:18:32.063Z</time></trkpt><trkpt lat="44.6445638" lon="10.3334794"><ele>255.0</ele><time>2026-04-10T13:18:33.063Z</time></trkpt><trkpt lat="44.6444799" lon="10.3333717"><ele>255.0</ele><time>2026-04-10T13:18:34.063Z</time></trkpt><trkpt lat="44.644398" lon="10.3332753"><ele>256.3333333333333</ele><time>2026-04-10T13:18:35.063Z</time></trkpt><trkpt lat="44.6443256" lon="10.3332063"><ele>257.6666666666667</ele><time>2026-04-10T13:18:36.063Z</time></trkpt><trkpt lat="44.6442636" lon="10.3331643"><ele>259.0</ele><time>2026-04-10T13:18:37.063Z</time></trkpt><trkpt lat="44.6441822" lon="10.3331244"><ele>260.33333333333337</ele><time>2026-04-10T13:18:38.063Z</time></trkpt><trkpt lat="44.6441018" lon="10.3330786"><ele>261.6666666666667</ele><time>2026-04-10T13:18:39.062Z</time></trkpt><trkpt lat="44.6440156" lon="10.3330315"><ele>263.0</ele><time>2026-04-10T13:18:40.063Z</time></trkpt><trkpt lat="44.6439439" lon="10.3329919"><ele>263.0</ele><time>2026-04-10T13:18:41.063Z</time></trkpt><trkpt lat="44.6438693" lon="10.3329642"><ele>263.0</ele><time>2026-04-10T13:18:42.063Z</time></trkpt><trkpt lat="44.6438072" lon="10.3329841"><ele>263.0</ele><time>2026-04-10T13:18:43.063Z</time></trkpt><trkpt lat="44.6437243" lon="10.3330697"><ele>263.0</ele><time>2026-04-10T13:18:45.063Z</time></trkpt><trkpt lat="44.6437223" lon="10.3332292"><ele>263.0</ele><time>2026-04-10T13:18:47.062Z</time></trkpt><trkpt lat="44.6437032" lon="10.3333181"><ele>263.0</ele><time>2026-04-10T13:18:48.063Z</time></trkpt><trkpt lat="44.6436078" lon="10.3334255"><ele>266.5</ele><time>2026-04-10T13:18:50.063Z</time></trkpt><trkpt lat="44.6435295" lon="10.3334637"><ele>270.0</ele><time>2026-04-10T13:18:51.063Z</time></trkpt><trkpt lat="44.6434507" lon="10.3334996"><ele>273.5</ele><time>2026-04-10T13:18:52.062Z</time></trkpt><trkpt lat="44.6433641" lon="10.3335531"><ele>277.0</ele><time>2026-04-10T13:18:53.063Z</time></trkpt><trkpt lat="44.6432763" lon="10.333618"><ele>280.5</ele><time>2026-04-10T13:18:54.063Z</time></trkpt><trkpt lat="44.6432127" lon="10.3336872"><ele>284.0</ele><time>2026-04-10T13:18:55.062Z</time></trkpt><trkpt lat="44.6431335" lon="10.3337605"><ele>284.0</ele><time>2026-04-10T13:18:56.062Z</time></trkpt><trkpt lat="44.6430468" lon="10.3338278"><ele>284.0</ele><time>2026-04-10T13:18:57.062Z</time></trkpt><trkpt lat="44.6429458" lon="10.3339036"><ele>284.0</ele><time>2026-04-10T13:18:58.062Z</time></trkpt><trkpt lat="44.6428404" lon="10.3339835"><ele>284.0</ele><time>2026-04-10T13:18:59.062Z</time></trkpt><trkpt lat="44.6427396" lon="10.3340494"><ele>284.0</ele><time>2026-04-10T13:19:00.063Z</time></trkpt><trkpt lat="44.6426553" lon="10.3340906"><ele>284.1666666666667</ele><time>2026-04-10T13:19:01.063Z</time></trkpt><trkpt lat="44.6425844" lon="10.3341087"><ele>284.33333333333337</ele><time>2026-04-10T13:19:02.063Z</time></trkpt><trkpt lat="44.6424848" lon="10.3340505"><ele>284.5</ele><time>2026-04-10T13:19:04.063Z</time></trkpt><trkpt lat="44.6424468" lon="10.3339693"><ele>284.6666666666667</ele><time>2026-04-10T13:19:05.063Z</time></trkpt><trkpt lat="44.6424142" lon="10.3338611"><ele>284.8333333333333</ele><time>2026-04-10T13:19:06.063Z</time></trkpt><trkpt lat="44.642371" lon="10.3337355"><ele>285.0</ele><time>2026-04-10T13:19:07.062Z</time></trkpt><trkpt lat="44.6423034" lon="10.333603"><ele>285.6</ele><time>2026-04-10T13:19:08.063Z</time></trkpt><trkpt lat="44.6422366" lon="10.3334867"><ele>286.2</ele><time>2026-04-10T13:19:09.063Z</time></trkpt><trkpt lat="44.6421684" lon="10.3333824"><ele>286.8</ele><time>2026-04-10T13:19:10.062Z</time></trkpt><trkpt lat="44.6420884" lon="10.3332882"><ele>287.4</ele><time>2026-04-10T13:19:11.063Z</time></trkpt><trkpt lat="44.6420198" lon="10.3332096"><ele>288.0</ele><time>2026-04-10T13:19:12.063Z</time></trkpt><trkpt lat="44.6419765" lon="10.3331244"><ele>287.2</ele><time>2026-04-10T13:19:13.063Z</time></trkpt><trkpt lat="44.6419442" lon="10.3329985"><ele>286.4</ele><time>2026-04-10T13:19:14.063Z</time></trkpt><trkpt lat="44.6419138" lon="10.3328452"><ele>285.59999999999997</ele><time>2026-04-10T13:19:15.063Z</time></trkpt><trkpt lat="44.6418644" lon="10.3327081"><ele>284.8</ele><time>2026-04-10T13:19:16.063Z</time></trkpt><trkpt lat="44.641802" lon="10.3325725"><ele>284.0</ele><time>2026-04-10T13:19:17.063Z</time></trkpt><trkpt lat="44.6417332" lon="10.3324332"><ele>284.0</ele><time>2026-04-10T13:19:18.062Z</time></trkpt><trkpt lat="44.6416721" lon="10.332296"><ele>284.0</ele><time>2026-04-10T13:19:19.063Z</time></trkpt><trkpt lat="44.6416258" lon="10.332169"><ele>284.0</ele><time>2026-04-10T13:19:20.063Z</time></trkpt><trkpt lat="44.6415848" lon="10.3320509"><ele>284.0</ele><time>2026-04-10T13:19:21.063Z</time></trkpt><trkpt lat="44.6415456" lon="10.3319509"><ele>284.0</ele><time>2026-04-10T13:19:22.062Z</time></trkpt><trkpt lat="44.6414883" lon="10.3318593"><ele>283.25</ele><time>2026-04-10T13:19:23.062Z</time></trkpt><trkpt lat="44.6414079" lon="10.3317699"><ele>282.5</ele><time>2026-04-10T13:19:24.063Z</time></trkpt><trkpt lat="44.6413199" lon="10.3316662"><ele>281.75</ele><time>2026-04-10T13:19:25.063Z</time></trkpt><trkpt lat="44.6412294" lon="10.3315341"><ele>281.0</ele><time>2026-04-10T13:19:26.063Z</time></trkpt><trkpt lat="44.6411568" lon="10.331387"><ele>284.8</ele><time>2026-04-10T13:19:27.063Z</time></trkpt><trkpt lat="44.6410865" lon="10.3312384"><ele>288.6</ele><time>2026-04-10T13:19:28.062Z</time></trkpt><trkpt lat="44.64103" lon="10.3311211"><ele>292.4</ele><time>2026-04-10T13:19:29.063Z</time></trkpt><trkpt lat="44.6409586" lon="10.3310153"><ele>296.2</ele><time>2026-04-10T13:19:30.063Z</time></trkpt><trkpt lat="44.640885" lon="10.3308988"><ele>300.0</ele><time>2026-04-10T13:19:31.063Z</time></trkpt><trkpt lat="44.6408027" lon="10.3307679"><ele>300.0</ele><time>2026-04-10T13:19:32.063Z</time></trkpt><trkpt lat="44.640717" lon="10.330637"><ele>300.0</ele><time>2026-04-10T13:19:33.062Z</time></trkpt><trkpt lat="44.6406422" lon="10.3305308"><ele>300.0</ele><time>2026-04-10T13:19:34.062Z</time></trkpt><trkpt lat="44.6405737" lon="10.3304401"><ele>300.0</ele><time>2026-04-10T13:19:35.062Z</time></trkpt><trkpt lat="44.640491" lon="10.3303574"><ele>300.0</ele><time>2026-04-10T13:19:36.062Z</time></trkpt><trkpt lat="44.64041" lon="10.3302708"><ele>301.0</ele><time>2026-04-10T13:19:37.062Z</time></trkpt><trkpt lat="44.6403369" lon="10.3301678"><ele>302.0</ele><time>2026-04-10T13:19:38.062Z</time></trkpt><trkpt lat="44.6402699" lon="10.3300462"><ele>303.0</ele><time>2026-04-10T13:19:39.063Z</time></trkpt><trkpt lat="44.6402169" lon="10.3299162"><ele>304.0</ele><time>2026-04-10T13:19:40.063Z</time></trkpt><trkpt lat="44.6401661" lon="10.3298116"><ele>305.0</ele><time>2026-04-10T13:19:41.063Z</time></trkpt><trkpt lat="44.64011" lon="10.3297232"><ele>307.0</ele><time>2026-04-10T13:19:42.063Z</time></trkpt><trkpt lat="44.6400419" lon="10.3296357"><ele>309.0</ele><time>2026-04-10T13:19:43.062Z</time></trkpt><trkpt lat="44.6399643" lon="10.3295462"><ele>311.0</ele><time>2026-04-10T13:19:44.063Z</time></trkpt><trkpt lat="44.6398801" lon="10.3294448"><ele>313.0</ele><time>2026-04-10T13:19:45.063Z</time></trkpt><trkpt lat="44.6397928" lon="10.3293356"><ele>315.0</ele><time>2026-04-10T13:19:46.063Z</time></trkpt><trkpt lat="44.639709" lon="10.3292199"><ele>315.0</ele><time>2026-04-10T13:19:47.063Z</time></trkpt><trkpt lat="44.639626" lon="10.3291054"><ele>315.0</ele><time>2026-04-10T13:19:48.062Z</time></trkpt><trkpt lat="44.6395585" lon="10.3289903"><ele>315.0</ele><time>2026-04-10T13:19:49.063Z</time></trkpt><trkpt lat="44.6395135" lon="10.3288779"><ele>315.0</ele><time>2026-04-10T13:19:50.063Z</time></trkpt><trkpt lat="44.6394987" lon="10.3287808"><ele>315.0</ele><time>2026-04-10T13:19:51.063Z</time></trkpt><trkpt lat="44.6395211" lon="10.3285864"><ele>315.8333333333333</ele><time>2026-04-10T13:19:53.063Z</time></trkpt><trkpt lat="44.6395488" lon="10.3284674"><ele>316.6666666666667</ele><time>2026-04-10T13:19:54.063Z</time></trkpt><trkpt lat="44.6395556" lon="10.3283607"><ele>317.5</ele><time>2026-04-10T13:19:55.063Z</time></trkpt><trkpt lat="44.6395505" lon="10.3282345"><ele>318.33333333333337</ele><time>2026-04-10T13:19:56.063Z</time></trkpt><trkpt lat="44.6395378" lon="10.3281026"><ele>319.1666666666667</ele><time>2026-04-10T13:19:57.063Z</time></trkpt><trkpt lat="44.639538" lon="10.327965"><ele>320.0</ele><time>2026-04-10T13:19:58.062Z</time></trkpt><trkpt lat="44.6395293" lon="10.3278303"><ele>320.4</ele><time>2026-04-10T13:19:59.063Z</time></trkpt><trkpt lat="44.6395055" lon="10.3276782"><ele>320.8</ele><time>2026-04-10T13:20:00.063Z</time></trkpt><trkpt lat="44.6394767" lon="10.3275399"><ele>321.20000000000005</ele><time>2026-04-10T13:20:01.063Z</time></trkpt><trkpt lat="44.6394413" lon="10.3274018"><ele>321.6</ele><time>2026-04-10T13:20:02.063Z</time></trkpt><trkpt lat="44.6394059" lon="10.3272645"><ele>322.0</ele><time>2026-04-10T13:20:03.063Z</time></trkpt><trkpt lat="44.6393828" lon="10.3271352"><ele>322.85714285714283</ele><time>2026-04-10T13:20:04.063Z</time></trkpt><trkpt lat="44.6393644" lon="10.3270184"><ele>323.7142857142857</ele><time>2026-04-10T13:20:05.063Z</time></trkpt><trkpt lat="44.6393477" lon="10.3269214"><ele>324.57142857142856</ele><time>2026-04-10T13:20:06.063Z</time></trkpt><trkpt lat="44.6393252" lon="10.3268296"><ele>325.42857142857144</ele><time>2026-04-10T13:20:07.063Z</time></trkpt><trkpt lat="44.639292" lon="10.3267333"><ele>326.2857142857143</ele><time>2026-04-10T13:20:08.063Z</time></trkpt><trkpt lat="44.6392504" lon="10.3266479"><ele>327.1428571428571</ele><time>2026-04-10T13:20:09.063Z</time></trkpt><trkpt lat="44.6392045" lon="10.32657"><ele>328.0</ele><time>2026-04-10T13:20:10.063Z</time></trkpt><trkpt lat="44.6391582" lon="10.3265056"><ele>328.0</ele><time>2026-04-10T13:20:11.062Z</time></trkpt><trkpt lat="44.6391046" lon="10.3264574"><ele>328.0</ele><time>2026-04-10T13:20:12.063Z</time></trkpt><trkpt lat="44.639043" lon="10.3264056"><ele>328.0</ele><time>2026-04-10T13:20:13.064Z</time></trkpt><trkpt lat="44.6389709" lon="10.3263508"><ele>328.0</ele><time>2026-04-10T13:20:14.062Z</time></trkpt><trkpt lat="44.6388926" lon="10.3262918"><ele>328.0</ele><time>2026-04-10T13:20:15.063Z</time></trkpt><trkpt lat="44.6388245" lon="10.3262309"><ele>328.0</ele><time>2026-04-10T13:20:16.063Z</time></trkpt><trkpt lat="44.6387559" lon="10.3261694"><ele>327.66666666666663</ele><time>2026-04-10T13:20:17.063Z</time></trkpt><trkpt lat="44.6386861" lon="10.3261137"><ele>327.3333333333333</ele><time>2026-04-10T13:20:18.063Z</time></trkpt><trkpt lat="44.6386245" lon="10.3260538"><ele>327.0</ele><time>2026-04-10T13:20:19.063Z</time></trkpt><trkpt lat="44.6385521" lon="10.3259787"><ele>326.6666666666667</ele><time>2026-04-10T13:20:20.063Z</time></trkpt><trkpt lat="44.6384836" lon="10.3258918"><ele>326.33333333333337</ele><time>2026-04-10T13:20:21.063Z</time></trkpt><trkpt lat="44.6384147" lon="10.325804"><ele>326.0</ele><time>2026-04-10T13:20:22.063Z</time></trkpt><trkpt lat="44.6383482" lon="10.3257122"><ele>326.0</ele><time>2026-04-10T13:20:23.063Z</time></trkpt><trkpt lat="44.6382943" lon="10.3256116"><ele>326.0</ele><time>2026-04-10T13:20:24.063Z</time></trkpt><trkpt lat="44.6382565" lon="10.3255045"><ele>326.0</ele><time>2026-04-10T13:20:25.063Z</time></trkpt><trkpt lat="44.6382188" lon="10.3253796"><ele>326.0</ele><time>2026-04-10T13:20:26.062Z</time></trkpt><trkpt lat="44.6381764" lon="10.3252537"><ele>326.0</ele><time>2026-04-10T13:20:27.062Z</time></trkpt><trkpt lat="44.6381273" lon="10.3251338"><ele>325.33333333333337</ele><time>2026-04-10T13:20:28.062Z</time></trkpt><trkpt lat="44.6380855" lon="10.3250231"><ele>324.6666666666667</ele><time>2026-04-10T13:20:29.062Z</time></trkpt><trkpt lat="44.6380344" lon="10.324958"><ele>324.0</ele><time>2026-04-10T13:20:30.062Z</time></trkpt><trkpt lat="44.6379385" lon="10.3248496"><ele>323.3333333333333</ele><time>2026-04-10T13:20:32.062Z</time></trkpt><trkpt lat="44.6378801" lon="10.324798"><ele>322.66666666666663</ele><time>2026-04-10T13:20:33.062Z</time></trkpt><trkpt lat="44.6378194" lon="10.3247498"><ele>322.0</ele><time>2026-04-10T13:20:34.062Z</time></trkpt><trkpt lat="44.6377331" lon="10.3246609"><ele>325.20000000000005</ele><time>2026-04-10T13:20:35.062Z</time></trkpt><trkpt lat="44.6376613" lon="10.324581"><ele>328.4</ele><time>2026-04-10T13:20:36.062Z</time></trkpt><trkpt lat="44.6375896" lon="10.3244999"><ele>331.6</ele><time>2026-04-10T13:20:37.062Z</time></trkpt><trkpt lat="44.6375083" lon="10.3243956"><ele>334.79999999999995</ele><time>2026-04-10T13:20:38.062Z</time></trkpt><trkpt lat="44.6374129" lon="10.3242713"><ele>338.0</ele><time>2026-04-10T13:20:39.062Z</time></trkpt><trkpt lat="44.637334" lon="10.3241502"><ele>338.0</ele><time>2026-04-10T13:20:40.062Z</time></trkpt><trkpt lat="44.6372796" lon="10.3240313"><ele>338.0</ele><time>2026-04-10T13:20:41.062Z</time></trkpt><trkpt lat="44.6372186" lon="10.323908"><ele>338.0</ele><time>2026-04-10T13:20:42.062Z</time></trkpt><trkpt lat="44.637162" lon="10.3237896"><ele>338.0</ele><time>2026-04-10T13:20:43.063Z</time></trkpt><trkpt lat="44.637088" lon="10.323674"><ele>338.0</ele><time>2026-04-10T13:20:44.063Z</time></trkpt><trkpt lat="44.6370105" lon="10.3235722"><ele>340.0</ele><time>2026-04-10T13:20:45.063Z</time></trkpt><trkpt lat="44.6369424" lon="10.3234918"><ele>342.0</ele><time>2026-04-10T13:20:46.063Z</time></trkpt><trkpt lat="44.6368809" lon="10.323424"><ele>344.0</ele><time>2026-04-10T13:20:47.063Z</time></trkpt><trkpt lat="44.6368295" lon="10.3233612"><ele>346.0</ele><time>2026-04-10T13:20:48.063Z</time></trkpt><trkpt lat="44.636742" lon="10.323252"><ele>348.0</ele><time>2026-04-10T13:20:50.063Z</time></trkpt><trkpt lat="44.6366487" lon="10.3231098"><ele>346.8333333333333</ele><time>2026-04-10T13:20:52.062Z</time></trkpt><trkpt lat="44.636613" lon="10.3230192"><ele>345.6666666666667</ele><time>2026-04-10T13:20:53.063Z</time></trkpt><trkpt lat="44.6365762" lon="10.3229325"><ele>344.5</ele><time>2026-04-10T13:20:54.063Z</time></trkpt><trkpt lat="44.6365354" lon="10.3228414"><ele>343.33333333333337</ele><time>2026-04-10T13:20:55.063Z</time></trkpt><trkpt lat="44.6364819" lon="10.3227663"><ele>342.1666666666667</ele><time>2026-04-10T13:20:56.063Z</time></trkpt><trkpt lat="44.6364085" lon="10.3227258"><ele>341.0</ele><time>2026-04-10T13:20:57.063Z</time></trkpt><trkpt lat="44.6363305" lon="10.3227143"><ele>341.0</ele><time>2026-04-10T13:20:58.062Z</time></trkpt><trkpt lat="44.6362467" lon="10.3227266"><ele>341.0</ele><time>2026-04-10T13:20:59.063Z</time></trkpt><trkpt lat="44.636162" lon="10.3227387"><ele>341.0</ele><time>2026-04-10T13:21:00.063Z</time></trkpt><trkpt lat="44.6360748" lon="10.322736"><ele>341.0</ele><time>2026-04-10T13:21:01.063Z</time></trkpt><trkpt lat="44.6359744" lon="10.3227155"><ele>341.0</ele><time>2026-04-10T13:21:02.063Z</time></trkpt><trkpt lat="44.6358718" lon="10.3226699"><ele>342.25</ele><time>2026-04-10T13:21:03.062Z</time></trkpt><trkpt lat="44.6357637" lon="10.3225969"><ele>343.5</ele><time>2026-04-10T13:21:04.063Z</time></trkpt><trkpt lat="44.6356487" lon="10.3224996"><ele>344.75</ele><time>2026-04-10T13:21:05.063Z</time></trkpt><trkpt lat="44.6355391" lon="10.3223944"><ele>346.0</ele><time>2026-04-10T13:21:06.063Z</time></trkpt><trkpt lat="44.6354349" lon="10.3222793"><ele>345.75</ele><time>2026-04-10T13:21:07.063Z</time></trkpt><trkpt lat="44.6353278" lon="10.3221621"><ele>345.5</ele><time>2026-04-10T13:21:08.063Z</time></trkpt><trkpt lat="44.635215" lon="10.3220483"><ele>345.25</ele><time>2026-04-10T13:21:09.063Z</time></trkpt><trkpt lat="44.6351139" lon="10.3219354"><ele>345.0</ele><time>2026-04-10T13:21:10.063Z</time></trkpt><trkpt lat="44.6350207" lon="10.32183"><ele>345.0</ele><time>2026-04-10T13:21:11.063Z</time></trkpt><trkpt lat="44.6349476" lon="10.3217414"><ele>345.0</ele><time>2026-04-10T13:21:12.063Z</time></trkpt><trkpt lat="44.6348752" lon="10.3216485"><ele>345.0</ele><time>2026-04-10T13:21:13.063Z</time></trkpt><trkpt lat="44.6348108" lon="10.3215682"><ele>345.0</ele><time>2026-04-10T13:21:14.063Z</time></trkpt><trkpt lat="44.6347561" lon="10.3215"><ele>345.0</ele><time>2026-04-10T13:21:15.063Z</time></trkpt><trkpt lat="44.6346947" lon="10.3214548"><ele>345.0</ele><time>2026-04-10T13:21:16.062Z</time></trkpt><trkpt lat="44.634631" lon="10.321418"><ele>345.8333333333333</ele><time>2026-04-10T13:21:17.063Z</time></trkpt><trkpt lat="44.6345638" lon="10.3213964"><ele>346.6666666666667</ele><time>2026-04-10T13:21:18.062Z</time></trkpt><trkpt lat="44.6344828" lon="10.3213847"><ele>347.5</ele><time>2026-04-10T13:21:19.063Z</time></trkpt><trkpt lat="44.6343989" lon="10.3213978"><ele>348.33333333333337</ele><time>2026-04-10T13:21:20.062Z</time></trkpt><trkpt lat="44.6343145" lon="10.3214229"><ele>349.1666666666667</ele><time>2026-04-10T13:21:21.062Z</time></trkpt><trkpt lat="44.6342351" lon="10.3214506"><ele>350.0</ele><time>2026-04-10T13:21:22.063Z</time></trkpt><trkpt lat="44.6341567" lon="10.3214706"><ele>350.0</ele><time>2026-04-10T13:21:23.063Z</time></trkpt><trkpt lat="44.6340819" lon="10.3214907"><ele>350.0</ele><time>2026-04-10T13:21:24.063Z</time></trkpt><trkpt lat="44.6339985" lon="10.3215323"><ele>350.0</ele><time>2026-04-10T13:21:25.063Z</time></trkpt><trkpt lat="44.6339004" lon="10.3215838"><ele>350.0</ele><time>2026-04-10T13:21:26.064Z</time></trkpt><trkpt lat="44.6337945" lon="10.3216499"><ele>350.0</ele><time>2026-04-10T13:21:27.063Z</time></trkpt><trkpt lat="44.633685" lon="10.3217306"><ele>349.2</ele><time>2026-04-10T13:21:28.062Z</time></trkpt><trkpt lat="44.6335724" lon="10.3218193"><ele>348.4</ele><time>2026-04-10T13:21:29.063Z</time></trkpt><trkpt lat="44.6334689" lon="10.3219039"><ele>347.6</ele><time>2026-04-10T13:21:30.063Z</time></trkpt><trkpt lat="44.6333836" lon="10.3219842"><ele>346.8</ele><time>2026-04-10T13:21:31.063Z</time></trkpt><trkpt lat="44.6333111" lon="10.3220619"><ele>346.0</ele><time>2026-04-10T13:21:32.063Z</time></trkpt><trkpt lat="44.6332399" lon="10.3221351"><ele>346.0</ele><time>2026-04-10T13:21:33.063Z</time></trkpt><trkpt lat="44.6331545" lon="10.3221954"><ele>346.0</ele><time>2026-04-10T13:21:34.063Z</time></trkpt><trkpt lat="44.633054" lon="10.3222235"><ele>346.0</ele><time>2026-04-10T13:21:35.063Z</time></trkpt><trkpt lat="44.6329444" lon="10.322214"><ele>346.0</ele><time>2026-04-10T13:21:36.063Z</time></trkpt><trkpt lat="44.6328298" lon="10.3221746"><ele>346.0</ele><time>2026-04-10T13:21:37.063Z</time></trkpt><trkpt lat="44.6327295" lon="10.3221296"><ele>345.8333333333333</ele><time>2026-04-10T13:21:38.063Z</time></trkpt><trkpt lat="44.632632" lon="10.3220903"><ele>345.66666666666663</ele><time>2026-04-10T13:21:39.063Z</time></trkpt><trkpt lat="44.6325423" lon="10.3220475"><ele>345.5</ele><time>2026-04-10T13:21:40.063Z</time></trkpt><trkpt lat="44.6324575" lon="10.3220116"><ele>345.3333333333333</ele><time>2026-04-10T13:21:41.063Z</time></trkpt><trkpt lat="44.632377" lon="10.3219764"><ele>345.1666666666667</ele><time>2026-04-10T13:21:42.063Z</time></trkpt><trkpt lat="44.632303" lon="10.3219353"><ele>345.0</ele><time>2026-04-10T13:21:43.063Z</time></trkpt><trkpt lat="44.6322308" lon="10.3218943"><ele>345.0</ele><time>2026-04-10T13:21:44.063Z</time></trkpt><trkpt lat="44.6321509" lon="10.321857"><ele>345.0</ele><time>2026-04-10T13:21:45.063Z</time></trkpt><trkpt lat="44.6320685" lon="10.3218202"><ele>345.0</ele><time>2026-04-10T13:21:46.063Z</time></trkpt><trkpt lat="44.63199" lon="10.3217764"><ele>345.0</ele><time>2026-04-10T13:21:47.063Z</time></trkpt><trkpt lat="44.6319124" lon="10.3217313"><ele>345.0</ele><time>2026-04-10T13:21:48.062Z</time></trkpt><trkpt lat="44.6318393" lon="10.3216889"><ele>345.0</ele><time>2026-04-10T13:21:49.063Z</time></trkpt><trkpt lat="44.6317811" lon="10.321642"><ele>345.0</ele><time>2026-04-10T13:21:50.063Z</time></trkpt><trkpt lat="44.6317214" lon="10.3216103"><ele>345.0</ele><time>2026-04-10T13:21:51.063Z</time></trkpt><trkpt lat="44.6316434" lon="10.3216379"><ele>345.0</ele><time>2026-04-10T13:21:52.063Z</time></trkpt><trkpt lat="44.6315412" lon="10.3217383"><ele>345.0</ele><time>2026-04-10T13:21:54.063Z</time></trkpt><trkpt lat="44.6314734" lon="10.321885"><ele>345.0</ele><time>2026-04-10T13:21:56.063Z</time></trkpt><trkpt lat="44.6314622" lon="10.3220205"><ele>345.0</ele><time>2026-04-10T13:21:57.063Z</time></trkpt><trkpt lat="44.6314521" lon="10.3221557"><ele>345.0</ele><time>2026-04-10T13:21:58.063Z</time></trkpt><trkpt lat="44.6314219" lon="10.3222723"><ele>345.0</ele><time>2026-04-10T13:21:59.063Z</time></trkpt><trkpt lat="44.6313808" lon="10.3223794"><ele>345.0</ele><time>2026-04-10T13:22:00.063Z</time></trkpt><trkpt lat="44.6313352" lon="10.3224809"><ele>345.0</ele><time>2026-04-10T13:22:01.063Z</time></trkpt><trkpt lat="44.6312745" lon="10.3225941"><ele>345.4</ele><time>2026-04-10T13:22:02.063Z</time></trkpt><trkpt lat="44.6312223" lon="10.3227146"><ele>345.8</ele><time>2026-04-10T13:22:03.063Z</time></trkpt><trkpt lat="44.631161" lon="10.3228425"><ele>346.20000000000005</ele><time>2026-04-10T13:22:04.062Z</time></trkpt><trkpt lat="44.631104" lon="10.3229786"><ele>346.6</ele><time>2026-04-10T13:22:05.063Z</time></trkpt><trkpt lat="44.6310519" lon="10.323117"><ele>347.0</ele><time>2026-04-10T13:22:06.063Z</time></trkpt><trkpt lat="44.6310048" lon="10.3232504"><ele>344.40000000000003</ele><time>2026-04-10T13:22:07.063Z</time></trkpt><trkpt lat="44.6309617" lon="10.3233827"><ele>341.8</ele><time>2026-04-10T13:22:08.063Z</time></trkpt><trkpt lat="44.6309237" lon="10.3235164"><ele>339.2</ele><time>2026-04-10T13:22:09.063Z</time></trkpt><trkpt lat="44.6308877" lon="10.3236452"><ele>336.6</ele><time>2026-04-10T13:22:10.063Z</time></trkpt><trkpt lat="44.6308582" lon="10.3237686"><ele>334.0</ele><time>2026-04-10T13:22:11.062Z</time></trkpt><trkpt lat="44.6308264" lon="10.3238909"><ele>333.5</ele><time>2026-04-10T13:22:12.063Z</time></trkpt><trkpt lat="44.6307974" lon="10.3240022"><ele>333.0</ele><time>2026-04-10T13:22:13.063Z</time></trkpt><trkpt lat="44.630761" lon="10.3241204"><ele>332.5</ele><time>2026-04-10T13:22:14.063Z</time></trkpt><trkpt lat="44.6307333" lon="10.3242286"><ele>332.0</ele><time>2026-04-10T13:22:15.064Z</time></trkpt><trkpt lat="44.6306989" lon="10.3243385"><ele>331.5</ele><time>2026-04-10T13:22:16.063Z</time></trkpt><trkpt lat="44.6306707" lon="10.3244509"><ele>331.0</ele><time>2026-04-10T13:22:17.063Z</time></trkpt><trkpt lat="44.6306504" lon="10.3245434"><ele>331.0</ele><time>2026-04-10T13:22:18.063Z</time></trkpt><trkpt lat="44.6305924" lon="10.3246533"><ele>331.0</ele><time>2026-04-10T13:22:20.064Z</time></trkpt><trkpt lat="44.6305212" lon="10.3246582"><ele>331.0</ele><time>2026-04-10T13:22:22.062Z</time></trkpt><trkpt lat="44.6304318" lon="10.3246234"><ele>331.0</ele><time>2026-04-10T13:22:24.063Z</time></trkpt><trkpt lat="44.6303714" lon="10.3245897"><ele>331.0</ele><time>2026-04-10T13:22:25.063Z</time></trkpt><trkpt lat="44.6302919" lon="10.3245573"><ele>331.0</ele><time>2026-04-10T13:22:26.062Z</time></trkpt><trkpt lat="44.6301967" lon="10.3245179"><ele>330.8</ele><time>2026-04-10T13:22:27.063Z</time></trkpt><trkpt lat="44.6301025" lon="10.3244653"><ele>330.6</ele><time>2026-04-10T13:22:28.063Z</time></trkpt><trkpt lat="44.6300123" lon="10.3244137"><ele>330.4</ele><time>2026-04-10T13:22:29.062Z</time></trkpt><trkpt lat="44.6299147" lon="10.3243706"><ele>330.2</ele><time>2026-04-10T13:22:30.063Z</time></trkpt><trkpt lat="44.6298132" lon="10.3243208"><ele>330.0</ele><time>2026-04-10T13:22:31.063Z</time></trkpt><trkpt lat="44.6297066" lon="10.3242753"><ele>330.0</ele><time>2026-04-10T13:22:32.063Z</time></trkpt><trkpt lat="44.6295993" lon="10.3242205"><ele>330.0</ele><time>2026-04-10T13:22:33.062Z</time></trkpt><trkpt lat="44.6294894" lon="10.3241744"><ele>330.0</ele><time>2026-04-10T13:22:34.062Z</time></trkpt><trkpt lat="44.6293731" lon="10.324138"><ele>330.0</ele><time>2026-04-10T13:22:35.061Z</time></trkpt><trkpt lat="44.6292553" lon="10.3240945"><ele>329.75</ele><time>2026-04-10T13:22:36.062Z</time></trkpt><trkpt lat="44.6291353" lon="10.3240427"><ele>329.5</ele><time>2026-04-10T13:22:37.062Z</time></trkpt><trkpt lat="44.6290167" lon="10.3239784"><ele>329.25</ele><time>2026-04-10T13:22:38.062Z</time></trkpt><trkpt lat="44.6289111" lon="10.3239146"><ele>329.0</ele><time>2026-04-10T13:22:39.061Z</time></trkpt><trkpt lat="44.6288177" lon="10.3238621"><ele>329.0</ele><time>2026-04-10T13:22:40.062Z</time></trkpt><trkpt lat="44.6287364" lon="10.3238376"><ele>329.0</ele><time>2026-04-10T13:22:41.062Z</time></trkpt><trkpt lat="44.6286481" lon="10.3238341"><ele>329.0</ele><time>2026-04-10T13:22:42.062Z</time></trkpt><trkpt lat="44.6285632" lon="10.3238449"><ele>329.0</ele><time>2026-04-10T13:22:43.062Z</time></trkpt><trkpt lat="44.6284903" lon="10.3238804"><ele>329.0</ele><time>2026-04-10T13:22:44.062Z</time></trkpt><trkpt lat="44.6284252" lon="10.3239387"><ele>329.0</ele><time>2026-04-10T13:22:45.062Z</time></trkpt><trkpt lat="44.6283598" lon="10.3240342"><ele>329.6</ele><time>2026-04-10T13:22:46.062Z</time></trkpt><trkpt lat="44.6282836" lon="10.3241462"><ele>330.2</ele><time>2026-04-10T13:22:47.063Z</time></trkpt><trkpt lat="44.6281937" lon="10.3242582"><ele>330.8</ele><time>2026-04-10T13:22:48.063Z</time></trkpt><trkpt lat="44.6280969" lon="10.3243442"><ele>331.40000000000003</ele><time>2026-04-10T13:22:49.061Z</time></trkpt><trkpt lat="44.6280033" lon="10.3244008"><ele>332.0</ele><time>2026-04-10T13:22:50.061Z</time></trkpt><trkpt lat="44.6278901" lon="10.3244274"><ele>331.75</ele><time>2026-04-10T13:22:51.061Z</time></trkpt><trkpt lat="44.6277729" lon="10.3244308"><ele>331.5</ele><time>2026-04-10T13:22:52.061Z</time></trkpt><trkpt lat="44.6276582" lon="10.3244226"><ele>331.25</ele><time>2026-04-10T13:22:53.061Z</time></trkpt><trkpt lat="44.6275377" lon="10.3244177"><ele>331.0</ele><time>2026-04-10T13:22:54.062Z</time></trkpt><trkpt lat="44.6274143" lon="10.3244064"><ele>331.0</ele><time>2026-04-10T13:22:55.061Z</time></trkpt><trkpt lat="44.6272871" lon="10.3243657"><ele>331.0</ele><time>2026-04-10T13:22:56.061Z</time></trkpt><trkpt lat="44.6271507" lon="10.3243032"><ele>331.0</ele><time>2026-04-10T13:22:57.061Z</time></trkpt><trkpt lat="44.6270141" lon="10.3242586"><ele>331.0</ele><time>2026-04-10T13:22:58.061Z</time></trkpt><trkpt lat="44.6268831" lon="10.3242459"><ele>332.3333333333333</ele><time>2026-04-10T13:22:59.062Z</time></trkpt><trkpt lat="44.6267334" lon="10.3242482"><ele>333.6666666666667</ele><time>2026-04-10T13:23:00.062Z</time></trkpt><trkpt lat="44.6265693" lon="10.3242528"><ele>335.0</ele><time>2026-04-10T13:23:01.062Z</time></trkpt><trkpt lat="44.6264177" lon="10.3242594"><ele>335.0</ele><time>2026-04-10T13:23:02.062Z</time></trkpt><trkpt lat="44.6262875" lon="10.3242604"><ele>335.0</ele><time>2026-04-10T13:23:03.062Z</time></trkpt><trkpt lat="44.6261723" lon="10.3242257"><ele>335.0</ele><time>2026-04-10T13:23:04.062Z</time></trkpt><trkpt lat="44.6260627" lon="10.3242031"><ele>335.0</ele><time>2026-04-10T13:23:05.062Z</time></trkpt><trkpt lat="44.6259462" lon="10.3241969"><ele>336.2</ele><time>2026-04-10T13:23:06.062Z</time></trkpt><trkpt lat="44.6258422" lon="10.3241854"><ele>337.4</ele><time>2026-04-10T13:23:07.062Z</time></trkpt><trkpt lat="44.6257497" lon="10.3241466"><ele>338.6</ele><time>2026-04-10T13:23:08.061Z</time></trkpt><trkpt lat="44.6256712" lon="10.3240799"><ele>339.8</ele><time>2026-04-10T13:23:09.061Z</time></trkpt><trkpt lat="44.6256142" lon="10.3239941"><ele>341.0</ele><time>2026-04-10T13:23:10.062Z</time></trkpt><trkpt lat="44.6255735" lon="10.3238752"><ele>341.0</ele><time>2026-04-10T13:23:11.062Z</time></trkpt><trkpt lat="44.6255434" lon="10.3237355"><ele>341.0</ele><time>2026-04-10T13:23:12.062Z</time></trkpt><trkpt lat="44.6255033" lon="10.3235851"><ele>341.0</ele><time>2026-04-10T13:23:13.062Z</time></trkpt><trkpt lat="44.6254382" lon="10.3234548"><ele>341.0</ele><time>2026-04-10T13:23:14.062Z</time></trkpt><trkpt lat="44.6253546" lon="10.3233503"><ele>341.0</ele><time>2026-04-10T13:23:15.062Z</time></trkpt><trkpt lat="44.6252676" lon="10.3232797"><ele>342.8</ele><time>2026-04-10T13:23:16.062Z</time></trkpt><trkpt lat="44.6251972" lon="10.3232081"><ele>344.6</ele><time>2026-04-10T13:23:17.062Z</time></trkpt><trkpt lat="44.6251323" lon="10.3231141"><ele>346.4</ele><time>2026-04-10T13:23:18.062Z</time></trkpt><trkpt lat="44.6250709" lon="10.3229851"><ele>348.2</ele><time>2026-04-10T13:23:19.061Z</time></trkpt><trkpt lat="44.6250232" lon="10.3228638"><ele>350.0</ele><time>2026-04-10T13:23:20.062Z</time></trkpt><trkpt lat="44.6249638" lon="10.3227728"><ele>350.6</ele><time>2026-04-10T13:23:21.062Z</time></trkpt><trkpt lat="44.624886" lon="10.322708"><ele>351.2</ele><time>2026-04-10T13:23:22.063Z</time></trkpt><trkpt lat="44.6247916" lon="10.3226759"><ele>351.79999999999995</ele><time>2026-04-10T13:23:23.062Z</time></trkpt><trkpt lat="44.6246843" lon="10.3226667"><ele>352.4</ele><time>2026-04-10T13:23:24.062Z</time></trkpt><trkpt lat="44.6245755" lon="10.3226649"><ele>353.0</ele><time>2026-04-10T13:23:25.061Z</time></trkpt><trkpt lat="44.6244678" lon="10.3226704"><ele>353.59999999999997</ele><time>2026-04-10T13:23:26.062Z</time></trkpt><trkpt lat="44.6243694" lon="10.3226875"><ele>354.2</ele><time>2026-04-10T13:23:27.061Z</time></trkpt><trkpt lat="44.6242849" lon="10.3227098"><ele>354.8</ele><time>2026-04-10T13:23:28.062Z</time></trkpt><trkpt lat="44.6241964" lon="10.3227436"><ele>355.4</ele><time>2026-04-10T13:23:29.062Z</time></trkpt><trkpt lat="44.6240905" lon="10.3227779"><ele>356.0</ele><time>2026-04-10T13:23:30.062Z</time></trkpt><trkpt lat="44.6239709" lon="10.3227919"><ele>356.0</ele><time>2026-04-10T13:23:31.062Z</time></trkpt><trkpt lat="44.6238608" lon="10.3227784"><ele>356.0</ele><time>2026-04-10T13:23:32.062Z</time></trkpt><trkpt lat="44.6237566" lon="10.3227376"><ele>356.0</ele><time>2026-04-10T13:23:33.062Z</time></trkpt><trkpt lat="44.6236598" lon="10.3226853"><ele>356.0</ele><time>2026-04-10T13:23:34.062Z</time></trkpt><trkpt lat="44.6235674" lon="10.3226462"><ele>356.0</ele><time>2026-04-10T13:23:35.062Z</time></trkpt><trkpt lat="44.6234778" lon="10.3226265"><ele>356.0</ele><time>2026-04-10T13:23:36.061Z</time></trkpt><trkpt lat="44.6233758" lon="10.322626"><ele>356.0</ele><time>2026-04-10T13:23:37.062Z</time></trkpt><trkpt lat="44.62326" lon="10.322643"><ele>356.0</ele><time>2026-04-10T13:23:38.061Z</time></trkpt><trkpt lat="44.6231332" lon="10.3226813"><ele>356.0</ele><time>2026-04-10T13:23:39.061Z</time></trkpt><trkpt lat="44.6230067" lon="10.3227311"><ele>356.0</ele><time>2026-04-10T13:23:40.062Z</time></trkpt><trkpt lat="44.6229051" lon="10.3228016"><ele>356.0</ele><time>2026-04-10T13:23:41.062Z</time></trkpt><trkpt lat="44.62281" lon="10.3228815"><ele>356.0</ele><time>2026-04-10T13:23:42.062Z</time></trkpt><trkpt lat="44.6227312" lon="10.3229119"><ele>356.0</ele><time>2026-04-10T13:23:43.062Z</time></trkpt><trkpt lat="44.6226571" lon="10.3229299"><ele>356.0</ele><time>2026-04-10T13:23:44.062Z</time></trkpt><trkpt lat="44.6225799" lon="10.3229359"><ele>358.0</ele><time>2026-04-10T13:23:45.061Z</time></trkpt><trkpt lat="44.6224935" lon="10.3229294"><ele>360.0</ele><time>2026-04-10T13:23:46.062Z</time></trkpt><trkpt lat="44.6223968" lon="10.3229072"><ele>362.0</ele><time>2026-04-10T13:23:47.062Z</time></trkpt><trkpt lat="44.6222927" lon="10.3228596"><ele>364.0</ele><time>2026-04-10T13:23:48.062Z</time></trkpt><trkpt lat="44.6221899" lon="10.3227981"><ele>366.0</ele><time>2026-04-10T13:23:49.062Z</time></trkpt><trkpt lat="44.6220859" lon="10.3227355"><ele>368.4</ele><time>2026-04-10T13:23:50.061Z</time></trkpt><trkpt lat="44.6219699" lon="10.3226664"><ele>370.8</ele><time>2026-04-10T13:23:51.061Z</time></trkpt><trkpt lat="44.621869" lon="10.3225993"><ele>373.2</ele><time>2026-04-10T13:23:52.062Z</time></trkpt><trkpt lat="44.6217722" lon="10.3225281"><ele>375.59999999999997</ele><time>2026-04-10T13:23:53.062Z</time></trkpt><trkpt lat="44.6216812" lon="10.3224627"><ele>378.0</ele><time>2026-04-10T13:23:54.062Z</time></trkpt><trkpt lat="44.6215963" lon="10.3223889"><ele>378.0</ele><time>2026-04-10T13:23:55.062Z</time></trkpt><trkpt lat="44.6215126" lon="10.3223083"><ele>378.0</ele><time>2026-04-10T13:23:56.063Z</time></trkpt><trkpt lat="44.6214257" lon="10.3222616"><ele>378.0</ele><time>2026-04-10T13:23:57.061Z</time></trkpt><trkpt lat="44.6213293" lon="10.3222371"><ele>378.0</ele><time>2026-04-10T13:23:58.061Z</time></trkpt><trkpt lat="44.6212263" lon="10.3222376"><ele>378.0</ele><time>2026-04-10T13:23:59.062Z</time></trkpt><trkpt lat="44.6211159" lon="10.32225"><ele>379.4</ele><time>2026-04-10T13:24:00.062Z</time></trkpt><trkpt lat="44.6210008" lon="10.322264"><ele>380.79999999999995</ele><time>2026-04-10T13:24:01.062Z</time></trkpt><trkpt lat="44.6208833" lon="10.3222763"><ele>382.2</ele><time>2026-04-10T13:24:02.062Z</time></trkpt><trkpt lat="44.6207744" lon="10.3222904"><ele>383.6</ele><time>2026-04-10T13:24:03.061Z</time></trkpt><trkpt lat="44.6206876" lon="10.3223136"><ele>385.0</ele><time>2026-04-10T13:24:04.062Z</time></trkpt><trkpt lat="44.6206221" lon="10.3223475"><ele>385.00000000000006</ele><time>2026-04-10T13:24:05.062Z</time></trkpt><trkpt lat="44.6205565" lon="10.3223768"><ele>385.0</ele><time>2026-04-10T13:24:06.062Z</time></trkpt><trkpt lat="44.620481" lon="10.3223858"><ele>385.0</ele><time>2026-04-10T13:24:07.062Z</time></trkpt><trkpt lat="44.6204157" lon="10.3223826"><ele>385.0</ele><time>2026-04-10T13:24:08.062Z</time></trkpt><trkpt lat="44.6202987" lon="10.322378"><ele>385.00000000000006</ele><time>2026-04-10T13:24:10.061Z</time></trkpt><trkpt lat="44.6201886" lon="10.3224157"><ele>385.0</ele><time>2026-04-10T13:24:12.061Z</time></trkpt><trkpt lat="44.6201216" lon="10.3224358"><ele>385.8</ele><time>2026-04-10T13:24:13.062Z</time></trkpt><trkpt lat="44.620079" lon="10.322585"><ele>386.6</ele><time>2026-04-10T13:24:14.062Z</time></trkpt><trkpt lat="44.6200207" lon="10.3227"><ele>387.4</ele><time>2026-04-10T13:24:15.062Z</time></trkpt><trkpt lat="44.6199418" lon="10.3228089"><ele>388.2</ele><time>2026-04-10T13:24:16.061Z</time></trkpt><trkpt lat="44.6198776" lon="10.322906"><ele>389.0</ele><time>2026-04-10T13:24:17.062Z</time></trkpt><trkpt lat="44.6198108" lon="10.3229948"><ele>389.16666666666663</ele><time>2026-04-10T13:24:18.062Z</time></trkpt><trkpt lat="44.619748" lon="10.3230827"><ele>389.3333333333333</ele><time>2026-04-10T13:24:19.061Z</time></trkpt><trkpt lat="44.6196884" lon="10.323125"><ele>389.5</ele><time>2026-04-10T13:24:20.062Z</time></trkpt><trkpt lat="44.6196165" lon="10.3231595"><ele>389.66666666666663</ele><time>2026-04-10T13:24:21.062Z</time></trkpt><trkpt lat="44.6195167" lon="10.3231663"><ele>389.8333333333333</ele><time>2026-04-10T13:24:22.062Z</time></trkpt><trkpt lat="44.6194085" lon="10.323149"><ele>390.0</ele><time>2026-04-10T13:24:23.062Z</time></trkpt><trkpt lat="44.6192935" lon="10.3231368"><ele>390.6</ele><time>2026-04-10T13:24:24.062Z</time></trkpt><trkpt lat="44.6191821" lon="10.3231303"><ele>391.2</ele><time>2026-04-10T13:24:25.063Z</time></trkpt><trkpt lat="44.6190793" lon="10.3231412"><ele>391.79999999999995</ele><time>2026-04-10T13:24:26.061Z</time></trkpt><trkpt lat="44.6189838" lon="10.3231691"><ele>392.4</ele><time>2026-04-10T13:24:27.061Z</time></trkpt><trkpt lat="44.6188935" lon="10.3231871"><ele>393.0</ele><time>2026-04-10T13:24:28.062Z</time></trkpt><trkpt lat="44.6188048" lon="10.3232025"><ele>393.0</ele><time>2026-04-10T13:24:29.062Z</time></trkpt><trkpt lat="44.618704" lon="10.3232044"><ele>393.0</ele><time>2026-04-10T13:24:30.062Z</time></trkpt><trkpt lat="44.6185842" lon="10.323193"><ele>393.0</ele><time>2026-04-10T13:24:31.061Z</time></trkpt><trkpt lat="44.6184481" lon="10.3231715"><ele>393.0</ele><time>2026-04-10T13:24:32.062Z</time></trkpt><trkpt lat="44.6183059" lon="10.3231434"><ele>391.59999999999997</ele><time>2026-04-10T13:24:33.062Z</time></trkpt><trkpt lat="44.6181768" lon="10.3231116"><ele>390.2</ele><time>2026-04-10T13:24:34.062Z</time></trkpt><trkpt lat="44.6180625" lon="10.323076"><ele>388.8</ele><time>2026-04-10T13:24:35.062Z</time></trkpt><trkpt lat="44.6179642" lon="10.3230255"><ele>387.4</ele><time>2026-04-10T13:24:36.061Z</time></trkpt><trkpt lat="44.6178767" lon="10.3229864"><ele>386.0</ele><time>2026-04-10T13:24:37.062Z</time></trkpt><trkpt lat="44.6177813" lon="10.3229505"><ele>385.5</ele><time>2026-04-10T13:24:38.062Z</time></trkpt><trkpt lat="44.617676" lon="10.3229162"><ele>385.0</ele><time>2026-04-10T13:24:39.062Z</time></trkpt><trkpt lat="44.6175629" lon="10.3228948"><ele>384.5</ele><time>2026-04-10T13:24:40.061Z</time></trkpt><trkpt lat="44.6174428" lon="10.3228909"><ele>384.0</ele><time>2026-04-10T13:24:41.061Z</time></trkpt><trkpt lat="44.6173177" lon="10.3228989"><ele>384.0</ele><time>2026-04-10T13:24:42.062Z</time></trkpt><trkpt lat="44.6172135" lon="10.3228906"><ele>384.0</ele><time>2026-04-10T13:24:43.061Z</time></trkpt><trkpt lat="44.6171338" lon="10.3228557"><ele>384.0</ele><time>2026-04-10T13:24:44.062Z</time></trkpt><trkpt lat="44.6170667" lon="10.3228048"><ele>384.0</ele><time>2026-04-10T13:24:45.061Z</time></trkpt><trkpt lat="44.616996" lon="10.3227195"><ele>384.0</ele><time>2026-04-10T13:24:46.062Z</time></trkpt><trkpt lat="44.6169224" lon="10.3226138"><ele>387.25</ele><time>2026-04-10T13:24:47.062Z</time></trkpt><trkpt lat="44.616839" lon="10.3225033"><ele>390.5</ele><time>2026-04-10T13:24:48.062Z</time></trkpt><trkpt lat="44.616738" lon="10.3224019"><ele>393.75</ele><time>2026-04-10T13:24:49.062Z</time></trkpt><trkpt lat="44.616635" lon="10.3223023"><ele>397.0</ele><time>2026-04-10T13:24:50.062Z</time></trkpt><trkpt lat="44.6165318" lon="10.3222045"><ele>397.0</ele><time>2026-04-10T13:24:51.062Z</time></trkpt><trkpt lat="44.6164387" lon="10.3221141"><ele>397.0</ele><time>2026-04-10T13:24:52.061Z</time></trkpt><trkpt lat="44.6163406" lon="10.3220235"><ele>397.0</ele><time>2026-04-10T13:24:53.062Z</time></trkpt><trkpt lat="44.6162395" lon="10.3219362"><ele>397.0</ele><time>2026-04-10T13:24:54.062Z</time></trkpt><trkpt lat="44.6161332" lon="10.3218436"><ele>400.25</ele><time>2026-04-10T13:24:55.062Z</time></trkpt><trkpt lat="44.616025" lon="10.3217412"><ele>403.5</ele><time>2026-04-10T13:24:56.062Z</time></trkpt><trkpt lat="44.6159192" lon="10.3216291"><ele>406.75</ele><time>2026-04-10T13:24:57.062Z</time></trkpt><trkpt lat="44.615814" lon="10.3215199"><ele>410.0</ele><time>2026-04-10T13:24:58.062Z</time></trkpt><trkpt lat="44.615725" lon="10.3214258"><ele>409.49999999999994</ele><time>2026-04-10T13:24:59.062Z</time></trkpt><trkpt lat="44.6156481" lon="10.3213491"><ele>409.0</ele><time>2026-04-10T13:25:00.062Z</time></trkpt><trkpt lat="44.6155881" lon="10.3212961"><ele>408.5</ele><time>2026-04-10T13:25:01.062Z</time></trkpt><trkpt lat="44.6155262" lon="10.3212495"><ele>408.0</ele><time>2026-04-10T13:25:02.062Z</time></trkpt><trkpt lat="44.6154424" lon="10.3212022"><ele>407.49999999999994</ele><time>2026-04-10T13:25:04.062Z</time></trkpt><trkpt lat="44.6153724" lon="10.3211571"><ele>407.0</ele><time>2026-04-10T13:25:06.062Z</time></trkpt><trkpt lat="44.6152662" lon="10.3210191"><ele>407.0</ele><time>2026-04-10T13:25:08.062Z</time></trkpt><trkpt lat="44.6152166" lon="10.3209012"><ele>407.0</ele><time>2026-04-10T13:25:09.062Z</time></trkpt><trkpt lat="44.6151598" lon="10.320797"><ele>407.0</ele><time>2026-04-10T13:25:10.062Z</time></trkpt><trkpt lat="44.6151037" lon="10.3206874"><ele>407.0</ele><time>2026-04-10T13:25:11.062Z</time></trkpt><trkpt lat="44.6150546" lon="10.3205783"><ele>407.0</ele><time>2026-04-10T13:25:12.062Z</time></trkpt><trkpt lat="44.6149992" lon="10.320479"><ele>404.6</ele><time>2026-04-10T13:25:13.061Z</time></trkpt><trkpt lat="44.6149481" lon="10.3203817"><ele>402.20000000000005</ele><time>2026-04-10T13:25:14.061Z</time></trkpt><trkpt lat="44.6148801" lon="10.3202904"><ele>399.8</ele><time>2026-04-10T13:25:15.062Z</time></trkpt><trkpt lat="44.6148043" lon="10.3202043"><ele>397.4</ele><time>2026-04-10T13:25:16.062Z</time></trkpt><trkpt lat="44.6147184" lon="10.3200933"><ele>395.0</ele><time>2026-04-10T13:25:17.061Z</time></trkpt><trkpt lat="44.6146568" lon="10.3199781"><ele>395.0</ele><time>2026-04-10T13:25:18.061Z</time></trkpt><trkpt lat="44.6145799" lon="10.3198652"><ele>395.0</ele><time>2026-04-10T13:25:19.061Z</time></trkpt><trkpt lat="44.6145061" lon="10.3197498"><ele>395.0</ele><time>2026-04-10T13:25:20.062Z</time></trkpt><trkpt lat="44.6144263" lon="10.3196451"><ele>395.0</ele><time>2026-04-10T13:25:21.062Z</time></trkpt><trkpt lat="44.6143514" lon="10.3195346"><ele>395.0</ele><time>2026-04-10T13:25:22.062Z</time></trkpt><trkpt lat="44.6142791" lon="10.3194249"><ele>393.6</ele><time>2026-04-10T13:25:23.063Z</time></trkpt><trkpt lat="44.614221" lon="10.3193188"><ele>392.2</ele><time>2026-04-10T13:25:24.062Z</time></trkpt><trkpt lat="44.6141601" lon="10.3192073"><ele>390.79999999999995</ele><time>2026-04-10T13:25:25.062Z</time></trkpt><trkpt lat="44.6141045" lon="10.319079"><ele>389.4</ele><time>2026-04-10T13:25:26.062Z</time></trkpt><trkpt lat="44.6140565" lon="10.3189483"><ele>388.0</ele><time>2026-04-10T13:25:27.061Z</time></trkpt><trkpt lat="44.61402" lon="10.31881"><ele>387.1666666666667</ele><time>2026-04-10T13:25:28.061Z</time></trkpt><trkpt lat="44.6139764" lon="10.3186775"><ele>386.33333333333337</ele><time>2026-04-10T13:25:29.062Z</time></trkpt><trkpt lat="44.6139329" lon="10.3185554"><ele>385.5</ele><time>2026-04-10T13:25:30.062Z</time></trkpt><trkpt lat="44.6138937" lon="10.3184365"><ele>384.6666666666667</ele><time>2026-04-10T13:25:31.062Z</time></trkpt><trkpt lat="44.6138631" lon="10.3183287"><ele>383.83333333333337</ele><time>2026-04-10T13:25:32.062Z</time></trkpt><trkpt lat="44.6138405" lon="10.3182344"><ele>383.0</ele><time>2026-04-10T13:25:33.062Z</time></trkpt><trkpt lat="44.6138159" lon="10.3181125"><ele>383.0</ele><time>2026-04-10T13:25:35.062Z</time></trkpt><trkpt lat="44.6138089" lon="10.31802"><ele>383.0</ele><time>2026-04-10T13:25:38.062Z</time></trkpt><trkpt lat="44.6138087" lon="10.3181707"><ele>383.0</ele><time>2026-04-10T13:28:02.061Z</time></trkpt><trkpt lat="44.6138427" lon="10.3182772"><ele>383.0</ele><time>2026-04-10T13:28:03.06Z</time></trkpt><trkpt lat="44.6138784" lon="10.3183958"><ele>383.0</ele><time>2026-04-10T13:28:04.06Z</time></trkpt><trkpt lat="44.6139198" lon="10.318534"><ele>383.0</ele><time>2026-04-10T13:28:05.061Z</time></trkpt><trkpt lat="44.6139639" lon="10.3186724"><ele>383.0</ele><time>2026-04-10T13:28:06.061Z</time></trkpt><trkpt lat="44.6140014" lon="10.3187906"><ele>383.0</ele><time>2026-04-10T13:28:07.061Z</time></trkpt><trkpt lat="44.6140344" lon="10.3188974"><ele>383.0</ele><time>2026-04-10T13:28:08.061Z</time></trkpt><trkpt lat="44.6140608" lon="10.3189907"><ele>383.0</ele><time>2026-04-10T13:28:09.06Z</time></trkpt><trkpt lat="44.6140931" lon="10.3190851"><ele>383.0</ele><time>2026-04-10T13:28:10.06Z</time></trkpt><trkpt lat="44.6141447" lon="10.3191938"><ele>384.25</ele><time>2026-04-10T13:28:11.061Z</time></trkpt><trkpt lat="44.6142019" lon="10.3192994"><ele>385.5</ele><time>2026-04-10T13:28:12.061Z</time></trkpt><trkpt lat="44.6142799" lon="10.3194231"><ele>386.75</ele><time>2026-04-10T13:28:13.06Z</time></trkpt><trkpt lat="44.6143717" lon="10.3195675"><ele>388.0</ele><time>2026-04-10T13:28:14.061Z</time></trkpt><trkpt lat="44.6144758" lon="10.3197146"><ele>390.33333333333337</ele><time>2026-04-10T13:28:15.061Z</time></trkpt><trkpt lat="44.6145839" lon="10.3198686"><ele>392.66666666666663</ele><time>2026-04-10T13:28:16.062Z</time></trkpt><trkpt lat="44.6146873" lon="10.3200197"><ele>395.0</ele><time>2026-04-10T13:28:17.061Z</time></trkpt><trkpt lat="44.614789" lon="10.3201729"><ele>395.0</ele><time>2026-04-10T13:28:18.06Z</time></trkpt><trkpt lat="44.6148891" lon="10.3203268"><ele>395.0</ele><time>2026-04-10T13:28:19.061Z</time></trkpt><trkpt lat="44.6149751" lon="10.3204812"><ele>395.0</ele><time>2026-04-10T13:28:20.061Z</time></trkpt><trkpt lat="44.6150596" lon="10.3206419"><ele>395.0</ele><time>2026-04-10T13:28:21.061Z</time></trkpt><trkpt lat="44.6151383" lon="10.3207976"><ele>397.0</ele><time>2026-04-10T13:28:22.06Z</time></trkpt><trkpt lat="44.6152052" lon="10.3209333"><ele>399.0</ele><time>2026-04-10T13:28:23.061Z</time></trkpt><trkpt lat="44.6152614" lon="10.3210426"><ele>401.0</ele><time>2026-04-10T13:28:24.061Z</time></trkpt><trkpt lat="44.6153145" lon="10.3211389"><ele>403.0</ele><time>2026-04-10T13:28:25.061Z</time></trkpt><trkpt lat="44.6153391" lon="10.3212346"><ele>405.0</ele><time>2026-04-10T13:28:26.061Z</time></trkpt><trkpt lat="44.6153568" lon="10.3213461"><ele>405.8</ele><time>2026-04-10T13:28:27.06Z</time></trkpt><trkpt lat="44.615352" lon="10.3214699"><ele>406.6</ele><time>2026-04-10T13:28:28.06Z</time></trkpt><trkpt lat="44.6153234" lon="10.321605"><ele>407.4</ele><time>2026-04-10T13:28:29.061Z</time></trkpt><trkpt lat="44.6152822" lon="10.321728"><ele>408.2</ele><time>2026-04-10T13:28:30.061Z</time></trkpt><trkpt lat="44.6152324" lon="10.3218331"><ele>409.0</ele><time>2026-04-10T13:28:31.06Z</time></trkpt><trkpt lat="44.6151851" lon="10.3219141"><ele>409.00000000000006</ele><time>2026-04-10T13:28:32.06Z</time></trkpt><trkpt lat="44.6151415" lon="10.3219836"><ele>409.0</ele><time>2026-04-10T13:28:33.061Z</time></trkpt><trkpt lat="44.6150778" lon="10.3221099"><ele>409.0</ele><time>2026-04-10T13:28:35.061Z</time></trkpt><trkpt lat="44.6150458" lon="10.3222047"><ele>409.0</ele><time>2026-04-10T13:28:49.061Z</time></trkpt><trkpt lat="44.6150176" lon="10.3222856"><ele>409.00000000000006</ele><time>2026-04-10T13:28:51.061Z</time></trkpt><trkpt lat="44.6149788" lon="10.322395"><ele>409.0</ele><time>2026-04-10T13:28:53.061Z</time></trkpt><trkpt lat="44.6149244" lon="10.3225441"><ele>408.33333333333337</ele><time>2026-04-10T13:28:55.061Z</time></trkpt><trkpt lat="44.6148932" lon="10.3226288"><ele>407.6666666666667</ele><time>2026-04-10T13:28:56.061Z</time></trkpt><trkpt lat="44.6148074" lon="10.3227742"><ele>407.0</ele><time>2026-04-10T13:28:58.06Z</time></trkpt><trkpt lat="44.6147609" lon="10.3228473"><ele>406.33333333333337</ele><time>2026-04-10T13:28:59.061Z</time></trkpt><trkpt lat="44.6147127" lon="10.3229169"><ele>405.6666666666667</ele><time>2026-04-10T13:29:00.06Z</time></trkpt><trkpt lat="44.6146615" lon="10.322973"><ele>405.0</ele><time>2026-04-10T13:29:01.06Z</time></trkpt><trkpt lat="44.6146079" lon="10.3230208"><ele>402.8333333333333</ele><time>2026-04-10T13:29:02.061Z</time></trkpt><trkpt lat="44.6145497" lon="10.3230647"><ele>400.66666666666663</ele><time>2026-04-10T13:29:03.061Z</time></trkpt><trkpt lat="44.6144871" lon="10.3230995"><ele>398.5</ele><time>2026-04-10T13:29:04.06Z</time></trkpt><trkpt lat="44.6144257" lon="10.3231194"><ele>396.3333333333333</ele><time>2026-04-10T13:29:05.061Z</time></trkpt><trkpt lat="44.6143013" lon="10.3231548"><ele>394.16666666666663</ele><time>2026-04-10T13:29:07.061Z</time></trkpt><trkpt lat="44.614187" lon="10.3232267"><ele>392.0</ele><time>2026-04-10T13:29:09.061Z</time></trkpt><trkpt lat="44.6141118" lon="10.323346"><ele>391.49999999999994</ele><time>2026-04-10T13:29:11.061Z</time></trkpt><trkpt lat="44.6140507" lon="10.3234835"><ele>391.0</ele><time>2026-04-10T13:29:13.061Z</time></trkpt><trkpt lat="44.6140187" lon="10.3235598"><ele>390.5</ele><time>2026-04-10T13:29:14.061Z</time></trkpt><trkpt lat="44.613982" lon="10.3236357"><ele>390.0</ele><time>2026-04-10T13:29:15.061Z</time></trkpt><trkpt lat="44.6139411" lon="10.3237162"><ele>389.49999999999994</ele><time>2026-04-10T13:29:16.062Z</time></trkpt><trkpt lat="44.6138909" lon="10.3238022"><ele>389.0</ele><time>2026-04-10T13:29:17.061Z</time></trkpt><trkpt lat="44.6138354" lon="10.3238909"><ele>388.6</ele><time>2026-04-10T13:29:18.06Z</time></trkpt><trkpt lat="44.6137752" lon="10.3239835"><ele>388.2</ele><time>2026-04-10T13:29:19.061Z</time></trkpt><trkpt lat="44.6137109" lon="10.3240855"><ele>387.8</ele><time>2026-04-10T13:29:20.061Z</time></trkpt><trkpt lat="44.613645" lon="10.3241933"><ele>387.40000000000003</ele><time>2026-04-10T13:29:21.06Z</time></trkpt><trkpt lat="44.613578" lon="10.3243043"><ele>387.0</ele><time>2026-04-10T13:29:22.061Z</time></trkpt><trkpt lat="44.6135064" lon="10.3244162"><ele>387.40000000000003</ele><time>2026-04-10T13:29:23.061Z</time></trkpt><trkpt lat="44.613432" lon="10.3245304"><ele>387.8</ele><time>2026-04-10T13:29:24.061Z</time></trkpt><trkpt lat="44.6133532" lon="10.3246462"><ele>388.2</ele><time>2026-04-10T13:29:25.061Z</time></trkpt><trkpt lat="44.6132803" lon="10.3247668"><ele>388.6</ele><time>2026-04-10T13:29:26.061Z</time></trkpt><trkpt lat="44.6132202" lon="10.3248802"><ele>389.0</ele><time>2026-04-10T13:29:27.061Z</time></trkpt><trkpt lat="44.6131717" lon="10.3249849"><ele>388.99999999999994</ele><time>2026-04-10T13:29:28.061Z</time></trkpt><trkpt lat="44.6131351" lon="10.3250863"><ele>389.0</ele><time>2026-04-10T13:29:29.06Z</time></trkpt><trkpt lat="44.6131193" lon="10.3251767"><ele>389.0</ele><time>2026-04-10T13:29:30.061Z</time></trkpt><trkpt lat="44.6131214" lon="10.325354"><ele>389.0</ele><time>2026-04-10T13:29:32.062Z</time></trkpt><trkpt lat="44.6131335" lon="10.3254499"><ele>388.99999999999994</ele><time>2026-04-10T13:29:33.061Z</time></trkpt><trkpt lat="44.6131467" lon="10.3255524"><ele>389.0</ele><time>2026-04-10T13:29:34.061Z</time></trkpt><trkpt lat="44.6131562" lon="10.325663"><ele>390.16666666666663</ele><time>2026-04-10T13:29:35.061Z</time></trkpt><trkpt lat="44.6131538" lon="10.3257797"><ele>391.3333333333333</ele><time>2026-04-10T13:29:36.061Z</time></trkpt><trkpt lat="44.6131519" lon="10.3258946"><ele>392.5</ele><time>2026-04-10T13:29:37.06Z</time></trkpt><trkpt lat="44.6131474" lon="10.3259924"><ele>393.66666666666663</ele><time>2026-04-10T13:29:38.061Z</time></trkpt><trkpt lat="44.613166" lon="10.3261063"><ele>394.8333333333333</ele><time>2026-04-10T13:29:40.061Z</time></trkpt><trkpt lat="44.6132069" lon="10.3261833"><ele>396.0</ele><time>2026-04-10T13:29:42.061Z</time></trkpt><trkpt lat="44.6133007" lon="10.3263271"><ele>394.0</ele><time>2026-04-10T13:29:44.061Z</time></trkpt><trkpt lat="44.6133727" lon="10.3264113"><ele>392.0</ele><time>2026-04-10T13:29:45.061Z</time></trkpt><trkpt lat="44.613454" lon="10.3265228"><ele>390.0</ele><time>2026-04-10T13:29:46.061Z</time></trkpt><trkpt lat="44.6135446" lon="10.3266847"><ele>388.0</ele><time>2026-04-10T13:29:47.061Z</time></trkpt><trkpt lat="44.6135939" lon="10.3268157"><ele>388.00000000000006</ele><time>2026-04-10T13:29:48.061Z</time></trkpt><trkpt lat="44.6136252" lon="10.3269398"><ele>388.0</ele><time>2026-04-10T13:29:49.06Z</time></trkpt><trkpt lat="44.6136404" lon="10.3270513"><ele>388.0</ele><time>2026-04-10T13:29:50.061Z</time></trkpt><trkpt lat="44.6136463" lon="10.3271618"><ele>388.0</ele><time>2026-04-10T13:29:51.06Z</time></trkpt><trkpt lat="44.6136481" lon="10.327283"><ele>388.00000000000006</ele><time>2026-04-10T13:29:52.06Z</time></trkpt><trkpt lat="44.6136519" lon="10.3274119"><ele>388.0</ele><time>2026-04-10T13:29:53.061Z</time></trkpt><trkpt lat="44.6136545" lon="10.3275567"><ele>386.2</ele><time>2026-04-10T13:29:54.061Z</time></trkpt><trkpt lat="44.6136468" lon="10.3276969"><ele>384.4</ele><time>2026-04-10T13:29:55.061Z</time></trkpt><trkpt lat="44.6136334" lon="10.3278318"><ele>382.59999999999997</ele><time>2026-04-10T13:29:56.061Z</time></trkpt><trkpt lat="44.6136224" lon="10.3279568"><ele>380.79999999999995</ele><time>2026-04-10T13:29:57.061Z</time></trkpt><trkpt lat="44.6136146" lon="10.3280766"><ele>379.0</ele><time>2026-04-10T13:29:58.061Z</time></trkpt><trkpt lat="44.6136076" lon="10.3281896"><ele>379.3333333333333</ele><time>2026-04-10T13:29:59.061Z</time></trkpt><trkpt lat="44.613604" lon="10.3282898"><ele>379.66666666666663</ele><time>2026-04-10T13:30:00.061Z</time></trkpt><trkpt lat="44.6136113" lon="10.3283932"><ele>380.0</ele><time>2026-04-10T13:30:01.061Z</time></trkpt><trkpt lat="44.6136244" lon="10.3285014"><ele>380.3333333333333</ele><time>2026-04-10T13:30:02.062Z</time></trkpt><trkpt lat="44.6136489" lon="10.3286022"><ele>380.6666666666667</ele><time>2026-04-10T13:30:03.061Z</time></trkpt><trkpt lat="44.613678" lon="10.3287142"><ele>381.0</ele><time>2026-04-10T13:30:04.06Z</time></trkpt><trkpt lat="44.613723" lon="10.3288469"><ele>378.8</ele><time>2026-04-10T13:30:05.061Z</time></trkpt><trkpt lat="44.6137523" lon="10.3289677"><ele>376.6</ele><time>2026-04-10T13:30:06.061Z</time></trkpt><trkpt lat="44.6137935" lon="10.329117"><ele>374.4</ele><time>2026-04-10T13:30:07.061Z</time></trkpt><trkpt lat="44.6138214" lon="10.3292449"><ele>372.2</ele><time>2026-04-10T13:30:08.061Z</time></trkpt><trkpt lat="44.6138321" lon="10.3293701"><ele>370.0</ele><time>2026-04-10T13:30:09.06Z</time></trkpt><trkpt lat="44.6138323" lon="10.3295007"><ele>370.0</ele><time>2026-04-10T13:30:10.06Z</time></trkpt><trkpt lat="44.6138224" lon="10.3296448"><ele>370.0</ele><time>2026-04-10T13:30:11.06Z</time></trkpt><trkpt lat="44.613807" lon="10.3297911"><ele>370.0</ele><time>2026-04-10T13:30:12.06Z</time></trkpt><trkpt lat="44.6137869" lon="10.3299509"><ele>370.0</ele><time>2026-04-10T13:30:13.06Z</time></trkpt><trkpt lat="44.6137604" lon="10.330107"><ele>370.0</ele><time>2026-04-10T13:30:14.06Z</time></trkpt><trkpt lat="44.6137278" lon="10.3302712"><ele>370.0</ele><time>2026-04-10T13:30:15.06Z</time></trkpt><trkpt lat="44.6137004" lon="10.3304329"><ele>370.0</ele><time>2026-04-10T13:30:16.06Z</time></trkpt><trkpt lat="44.6136809" lon="10.3305879"><ele>370.0</ele><time>2026-04-10T13:30:17.06Z</time></trkpt><trkpt lat="44.613667" lon="10.3307319"><ele>370.0</ele><time>2026-04-10T13:30:18.06Z</time></trkpt><trkpt lat="44.6136731" lon="10.3308837"><ele>370.0</ele><time>2026-04-10T13:30:19.06Z</time></trkpt><trkpt lat="44.6136763" lon="10.3310239"><ele>369.8</ele><time>2026-04-10T13:30:20.061Z</time></trkpt><trkpt lat="44.6136837" lon="10.331165"><ele>369.6</ele><time>2026-04-10T13:30:21.06Z</time></trkpt><trkpt lat="44.6136917" lon="10.3313278"><ele>369.4</ele><time>2026-04-10T13:30:22.059Z</time></trkpt><trkpt lat="44.6137031" lon="10.3314969"><ele>369.2</ele><time>2026-04-10T13:30:23.06Z</time></trkpt><trkpt lat="44.6137184" lon="10.3316478"><ele>369.0</ele><time>2026-04-10T13:30:24.06Z</time></trkpt><trkpt lat="44.6137576" lon="10.3317951"><ele>369.75</ele><time>2026-04-10T13:30:25.059Z</time></trkpt><trkpt lat="44.6138189" lon="10.3319393"><ele>370.5</ele><time>2026-04-10T13:30:26.061Z</time></trkpt><trkpt lat="44.6138907" lon="10.3320673"><ele>371.25</ele><time>2026-04-10T13:30:27.061Z</time></trkpt><trkpt lat="44.613946" lon="10.3322119"><ele>372.0</ele><time>2026-04-10T13:30:28.059Z</time></trkpt><trkpt lat="44.6139921" lon="10.3323777"><ele>372.0</ele><time>2026-04-10T13:30:29.059Z</time></trkpt><trkpt lat="44.6140373" lon="10.3325627"><ele>372.0</ele><time>2026-04-10T13:30:30.059Z</time></trkpt><trkpt lat="44.6140579" lon="10.3327379"><ele>372.0</ele><time>2026-04-10T13:30:31.06Z</time></trkpt><trkpt lat="44.614088" lon="10.3328912"><ele>372.0</ele><time>2026-04-10T13:30:32.06Z</time></trkpt><trkpt lat="44.6141302" lon="10.3330274"><ele>372.5</ele><time>2026-04-10T13:30:33.06Z</time></trkpt><trkpt lat="44.6141779" lon="10.3331663"><ele>373.0</ele><time>2026-04-10T13:30:34.06Z</time></trkpt><trkpt lat="44.6142518" lon="10.3333111"><ele>373.5</ele><time>2026-04-10T13:30:35.06Z</time></trkpt><trkpt lat="44.61431" lon="10.3334492"><ele>374.0</ele><time>2026-04-10T13:30:36.06Z</time></trkpt><trkpt lat="44.6143525" lon="10.3335825"><ele>374.0</ele><time>2026-04-10T13:30:37.06Z</time></trkpt><trkpt lat="44.6143897" lon="10.3336895"><ele>374.0</ele><time>2026-04-10T13:30:38.06Z</time></trkpt><trkpt lat="44.61443" lon="10.3338036"><ele>374.0</ele><time>2026-04-10T13:30:39.059Z</time></trkpt><trkpt lat="44.6144652" lon="10.3338934"><ele>374.0</ele><time>2026-04-10T13:30:40.06Z</time></trkpt><trkpt lat="44.6144987" lon="10.3339954"><ele>374.0</ele><time>2026-04-10T13:30:41.059Z</time></trkpt><trkpt lat="44.6145137" lon="10.3340918"><ele>374.0</ele><time>2026-04-10T13:30:42.06Z</time></trkpt><trkpt lat="44.614521" lon="10.3341923"><ele>372.2</ele><time>2026-04-10T13:30:43.06Z</time></trkpt><trkpt lat="44.6145357" lon="10.3342932"><ele>370.4</ele><time>2026-04-10T13:30:44.059Z</time></trkpt><trkpt lat="44.6145117" lon="10.3344492"><ele>368.6</ele><time>2026-04-10T13:30:46.06Z</time></trkpt><trkpt lat="44.614474" lon="10.3345637"><ele>366.8</ele><time>2026-04-10T13:30:48.059Z</time></trkpt><trkpt lat="44.6144287" lon="10.3346983"><ele>365.0</ele><time>2026-04-10T13:30:50.06Z</time></trkpt><trkpt lat="44.6143681" lon="10.334839"><ele>364.2</ele><time>2026-04-10T13:30:52.059Z</time></trkpt><trkpt lat="44.6143091" lon="10.3349443"><ele>363.4</ele><time>2026-04-10T13:30:54.06Z</time></trkpt><trkpt lat="44.6142568" lon="10.3350572"><ele>362.6</ele><time>2026-04-10T13:30:56.06Z</time></trkpt><trkpt lat="44.6141981" lon="10.335161"><ele>361.8</ele><time>2026-04-10T13:30:58.06Z</time></trkpt><trkpt lat="44.6141307" lon="10.3352345"><ele>361.0</ele><time>2026-04-10T13:31:00.06Z</time></trkpt><trkpt lat="44.61403" lon="10.3353183"><ele>361.0</ele><time>2026-04-10T13:31:02.06Z</time></trkpt><trkpt lat="44.613972" lon="10.3353771"><ele>361.0</ele><time>2026-04-10T13:31:03.06Z</time></trkpt><trkpt lat="44.613915" lon="10.3354177"><ele>361.0</ele><time>2026-04-10T13:31:04.059Z</time></trkpt><trkpt lat="44.6137928" lon="10.3355085"><ele>361.0</ele><time>2026-04-10T13:31:06.06Z</time></trkpt><trkpt lat="44.613716" lon="10.3355334"><ele>361.0</ele><time>2026-04-10T13:31:08.06Z</time></trkpt><trkpt lat="44.6136467" lon="10.3355783"><ele>361.0</ele><time>2026-04-10T13:31:10.059Z</time></trkpt><trkpt lat="44.6135714" lon="10.3356426"><ele>357.6</ele><time>2026-04-10T13:31:12.06Z</time></trkpt><trkpt lat="44.6134617" lon="10.335729"><ele>354.20000000000005</ele><time>2026-04-10T13:31:14.06Z</time></trkpt><trkpt lat="44.6133598" lon="10.3357879"><ele>350.79999999999995</ele><time>2026-04-10T13:31:16.06Z</time></trkpt><trkpt lat="44.6132975" lon="10.3358011"><ele>347.4</ele><time>2026-04-10T13:31:17.06Z</time></trkpt><trkpt lat="44.613215" lon="10.3357464"><ele>344.0</ele><time>2026-04-10T13:31:19.06Z</time></trkpt><trkpt lat="44.6131345" lon="10.3356767"><ele>344.0</ele><time>2026-04-10T13:31:21.06Z</time></trkpt><trkpt lat="44.6130616" lon="10.3356059"><ele>344.0</ele><time>2026-04-10T13:31:23.06Z</time></trkpt><trkpt lat="44.6129791" lon="10.335585"><ele>344.0</ele><time>2026-04-10T13:31:25.059Z</time></trkpt><trkpt lat="44.6128883" lon="10.3356088"><ele>344.0</ele><time>2026-04-10T13:31:27.059Z</time></trkpt><trkpt lat="44.6128185" lon="10.3356474"><ele>344.0</ele><time>2026-04-10T13:31:29.06Z</time></trkpt><trkpt lat="44.6127629" lon="10.3357375"><ele>344.0</ele><time>2026-04-10T13:31:31.06Z</time></trkpt><trkpt lat="44.6127486" lon="10.3358454"><ele>344.0</ele><time>2026-04-10T13:31:32.06Z</time></trkpt><trkpt lat="44.6127694" lon="10.3359534"><ele>344.0</ele><time>2026-04-10T13:31:33.059Z</time></trkpt><trkpt lat="44.612762" lon="10.3360838"><ele>344.0</ele><time>2026-04-10T13:31:35.06Z</time></trkpt><trkpt lat="44.6127551" lon="10.3361744"><ele>344.0</ele><time>2026-04-10T13:31:38.06Z</time></trkpt><trkpt lat="44.6127914" lon="10.3362917"><ele>344.0</ele><time>2026-04-10T13:31:41.06Z</time></trkpt><trkpt lat="44.6128558" lon="10.3363338"><ele>344.0</ele><time>2026-04-10T13:31:44.06Z</time></trkpt><trkpt lat="44.612943" lon="10.3364232"><ele>341.0</ele><time>2026-04-10T13:31:46.06Z</time></trkpt><trkpt lat="44.6130037" lon="10.3364888"><ele>338.0</ele><time>2026-04-10T13:31:48.059Z</time></trkpt><trkpt lat="44.6130249" lon="10.3366051"><ele>335.0</ele><time>2026-04-10T13:31:50.06Z</time></trkpt><trkpt lat="44.61301" lon="10.3367107"><ele>332.0</ele><time>2026-04-10T13:31:52.06Z</time></trkpt><trkpt lat="44.6130119" lon="10.336838"><ele>329.0</ele><time>2026-04-10T13:31:54.06Z</time></trkpt><trkpt lat="44.6130014" lon="10.3369471"><ele>326.0</ele><time>2026-04-10T13:31:56.06Z</time></trkpt><trkpt lat="44.612966" lon="10.3370734"><ele>326.0</ele><time>2026-04-10T13:31:59.06Z</time></trkpt><trkpt lat="44.6129288" lon="10.3371575"><ele>326.0</ele><time>2026-04-10T13:32:01.059Z</time></trkpt><trkpt lat="44.6129011" lon="10.3372514"><ele>326.0</ele><time>2026-04-10T13:32:03.06Z</time></trkpt><trkpt lat="44.612898" lon="10.3374012"><ele>326.0</ele><time>2026-04-10T13:32:05.06Z</time></trkpt><trkpt lat="44.6128832" lon="10.337564"><ele>326.0</ele><time>2026-04-10T13:32:07.06Z</time></trkpt><trkpt lat="44.612912" lon="10.3376795"><ele>322.0</ele><time>2026-04-10T13:32:09.06Z</time></trkpt><trkpt lat="44.6129496" lon="10.3377893"><ele>318.0</ele><time>2026-04-10T13:32:11.059Z</time></trkpt><trkpt lat="44.6129835" lon="10.3378806"><ele>314.0</ele><time>2026-04-10T13:32:13.059Z</time></trkpt><trkpt lat="44.6130197" lon="10.3379782"><ele>310.0</ele><time>2026-04-10T13:32:15.059Z</time></trkpt><trkpt lat="44.6130643" lon="10.3380853"><ele>306.0</ele><time>2026-04-10T13:32:17.06Z</time></trkpt><trkpt lat="44.6131024" lon="10.3381794"><ele>302.0</ele><time>2026-04-10T13:32:19.06Z</time></trkpt><trkpt lat="44.6130979" lon="10.3382864"><ele>298.6666666666667</ele><time>2026-04-10T13:32:22.059Z</time></trkpt><trkpt lat="44.6130227" lon="10.338248"><ele>295.33333333333337</ele><time>2026-04-10T13:32:25.06Z</time></trkpt><trkpt lat="44.6129683" lon="10.3381937"><ele>292.0</ele><time>2026-04-10T13:32:27.06Z</time></trkpt><trkpt lat="44.612933" lon="10.3383168"><ele>288.6666666666667</ele><time>2026-04-10T13:32:31.06Z</time></trkpt><trkpt lat="44.6129831" lon="10.3384149"><ele>285.3333333333333</ele><time>2026-04-10T13:32:33.061Z</time></trkpt><trkpt lat="44.613055" lon="10.3384698"><ele>282.0</ele><time>2026-04-10T13:32:36.059Z</time></trkpt><trkpt lat="44.6131053" lon="10.3385377"><ele>282.0</ele><time>2026-04-10T13:32:38.06Z</time></trkpt><trkpt lat="44.6131028" lon="10.3386572"><ele>282.0</ele><time>2026-04-10T13:32:40.06Z</time></trkpt><trkpt lat="44.6130262" lon="10.3387755"><ele>282.0</ele><time>2026-04-10T13:32:42.06Z</time></trkpt><trkpt lat="44.6129319" lon="10.3388478"><ele>282.0</ele><time>2026-04-10T13:32:44.061Z</time></trkpt><trkpt lat="44.6129047" lon="10.3389686"><ele>282.0</ele><time>2026-04-10T13:32:46.059Z</time></trkpt><trkpt lat="44.6129012" lon="10.3391243"><ele>278.6666666666667</ele><time>2026-04-10T13:32:48.06Z</time></trkpt><trkpt lat="44.6128917" lon="10.3392386"><ele>275.3333333333333</ele><time>2026-04-10T13:32:51.059Z</time></trkpt><trkpt lat="44.6128907" lon="10.3393356"><ele>272.0</ele><time>2026-04-10T13:32:54.059Z</time></trkpt><trkpt lat="44.612888" lon="10.3394601"><ele>268.66666666666663</ele><time>2026-04-10T13:32:57.06Z</time></trkpt><trkpt lat="44.6128851" lon="10.3395708"><ele>265.3333333333333</ele><time>2026-04-10T13:33:00.06Z</time></trkpt><trkpt lat="44.6128864" lon="10.3396807"><ele>262.0</ele><time>2026-04-10T13:33:02.06Z</time></trkpt><trkpt lat="44.6128641" lon="10.339794"><ele>258.4</ele><time>2026-04-10T13:33:04.06Z</time></trkpt><trkpt lat="44.6128129" lon="10.3399127"><ele>254.79999999999998</ele><time>2026-04-10T13:33:06.06Z</time></trkpt><trkpt lat="44.6127698" lon="10.3400516"><ele>251.2</ele><time>2026-04-10T13:33:08.059Z</time></trkpt><trkpt lat="44.6127292" lon="10.3402061"><ele>247.6</ele><time>2026-04-10T13:33:10.06Z</time></trkpt><trkpt lat="44.6126748" lon="10.3403627"><ele>244.0</ele><time>2026-04-10T13:33:12.059Z</time></trkpt><trkpt lat="44.6126182" lon="10.3405253"><ele>242.49999999999997</ele><time>2026-04-10T13:33:14.06Z</time></trkpt><trkpt lat="44.6125848" lon="10.3406026"><ele>241.0</ele><time>2026-04-10T13:33:15.059Z</time></trkpt><trkpt lat="44.6125294" lon="10.3407515"><ele>239.5</ele><time>2026-04-10T13:33:17.059Z</time></trkpt><trkpt lat="44.6124987" lon="10.3408751"><ele>238.0</ele><time>2026-04-10T13:33:19.06Z</time></trkpt><trkpt lat="44.6124936" lon="10.3409744"><ele>236.49999999999997</ele><time>2026-04-10T13:33:21.059Z</time></trkpt><trkpt lat="44.6125601" lon="10.3410719"><ele>235.0</ele><time>2026-04-10T13:33:23.06Z</time></trkpt><trkpt lat="44.6126324" lon="10.3411604"><ele>235.0</ele><time>2026-04-10T13:33:24.059Z</time></trkpt><trkpt lat="44.612699" lon="10.3412892"><ele>235.0</ele><time>2026-04-10T13:33:25.06Z</time></trkpt><trkpt lat="44.6127502" lon="10.3414586"><ele>235.0</ele><time>2026-04-10T13:33:26.06Z</time></trkpt><trkpt lat="44.612785" lon="10.341645"><ele>235.0</ele><time>2026-04-10T13:33:27.06Z</time></trkpt><trkpt lat="44.6127929" lon="10.3418312"><ele>236.0</ele><time>2026-04-10T13:33:28.059Z</time></trkpt><trkpt lat="44.6128037" lon="10.3420094"><ele>237.0</ele><time>2026-04-10T13:33:29.06Z</time></trkpt><trkpt lat="44.6128139" lon="10.3421765"><ele>238.0</ele><time>2026-04-10T13:33:30.06Z</time></trkpt><trkpt lat="44.612819" lon="10.3423313"><ele>239.0</ele><time>2026-04-10T13:33:31.06Z</time></trkpt><trkpt lat="44.6128234" lon="10.3424637"><ele>239.0</ele><time>2026-04-10T13:33:32.059Z</time></trkpt><trkpt lat="44.6128308" lon="10.3426052"><ele>238.99999999999997</ele><time>2026-04-10T13:33:33.06Z</time></trkpt><trkpt lat="44.6128379" lon="10.3427559"><ele>238.99999999999997</ele><time>2026-04-10T13:33:34.06Z</time></trkpt><trkpt lat="44.6128561" lon="10.3429192"><ele>239.0</ele><time>2026-04-10T13:33:35.06Z</time></trkpt><trkpt lat="44.6128867" lon="10.3430864"><ele>239.0</ele><time>2026-04-10T13:33:36.06Z</time></trkpt><trkpt lat="44.6129316" lon="10.3432605"><ele>238.0</ele><time>2026-04-10T13:33:37.06Z</time></trkpt><trkpt lat="44.6129936" lon="10.3434373"><ele>237.0</ele><time>2026-04-10T13:33:38.06Z</time></trkpt><trkpt lat="44.6130687" lon="10.3436346"><ele>236.0</ele><time>2026-04-10T13:33:39.06Z</time></trkpt><trkpt lat="44.6131505" lon="10.3438405"><ele>233.33333333333334</ele><time>2026-04-10T13:33:40.06Z</time></trkpt><trkpt lat="44.6132278" lon="10.3440407"><ele>230.66666666666669</ele><time>2026-04-10T13:33:41.06Z</time></trkpt><trkpt lat="44.6133122" lon="10.3442292"><ele>228.0</ele><time>2026-04-10T13:33:42.06Z</time></trkpt><trkpt lat="44.6133876" lon="10.344421"><ele>228.0</ele><time>2026-04-10T13:33:43.06Z</time></trkpt><trkpt lat="44.6134679" lon="10.3446077"><ele>228.0</ele><time>2026-04-10T13:33:44.059Z</time></trkpt><trkpt lat="44.6135453" lon="10.3447895"><ele>228.0</ele><time>2026-04-10T13:33:45.059Z</time></trkpt><trkpt lat="44.6136215" lon="10.344971"><ele>228.0</ele><time>2026-04-10T13:33:46.06Z</time></trkpt><trkpt lat="44.6136962" lon="10.3451556"><ele>228.0</ele><time>2026-04-10T13:33:47.06Z</time></trkpt><trkpt lat="44.6137716" lon="10.3453488"><ele>228.0</ele><time>2026-04-10T13:33:48.06Z</time></trkpt><trkpt lat="44.6138528" lon="10.3455529"><ele>227.33333333333331</ele><time>2026-04-10T13:33:49.059Z</time></trkpt><trkpt lat="44.6139352" lon="10.3457625"><ele>226.66666666666666</ele><time>2026-04-10T13:33:50.06Z</time></trkpt><trkpt lat="44.6140115" lon="10.3459628"><ele>226.0</ele><time>2026-04-10T13:33:51.06Z</time></trkpt><trkpt lat="44.6140849" lon="10.3461492"><ele>226.0</ele><time>2026-04-10T13:33:52.06Z</time></trkpt><trkpt lat="44.6141645" lon="10.3463427"><ele>226.0</ele><time>2026-04-10T13:33:53.059Z</time></trkpt><trkpt lat="44.6142459" lon="10.3465428"><ele>226.0</ele><time>2026-04-10T13:33:54.06Z</time></trkpt><trkpt lat="44.6143285" lon="10.3467525"><ele>225.66666666666666</ele><time>2026-04-10T13:33:55.06Z</time></trkpt><trkpt lat="44.6144177" lon="10.3469726"><ele>225.33333333333331</ele><time>2026-04-10T13:33:56.06Z</time></trkpt><trkpt lat="44.6145148" lon="10.347198"><ele>225.0</ele><time>2026-04-10T13:33:57.06Z</time></trkpt><trkpt lat="44.6146138" lon="10.3474313"><ele>225.0</ele><time>2026-04-10T13:33:58.06Z</time></trkpt><trkpt lat="44.6147008" lon="10.3476549"><ele>225.0</ele><time>2026-04-10T13:33:59.06Z</time></trkpt><trkpt lat="44.6147709" lon="10.3478617"><ele>225.0</ele><time>2026-04-10T13:34:00.06Z</time></trkpt><trkpt lat="44.6148374" lon="10.3480566"><ele>223.25</ele><time>2026-04-10T13:34:01.059Z</time></trkpt><trkpt lat="44.6149093" lon="10.348227"><ele>221.5</ele><time>2026-04-10T13:34:02.06Z</time></trkpt><trkpt lat="44.6149886" lon="10.3483755"><ele>219.75</ele><time>2026-04-10T13:34:03.059Z</time></trkpt><trkpt lat="44.6150691" lon="10.3485112"><ele>218.0</ele><time>2026-04-10T13:34:04.059Z</time></trkpt><trkpt lat="44.6151467" lon="10.348649"><ele>218.0</ele><time>2026-04-10T13:34:05.059Z</time></trkpt><trkpt lat="44.6152287" lon="10.3487852"><ele>218.0</ele><time>2026-04-10T13:34:06.06Z</time></trkpt><trkpt lat="44.6153063" lon="10.3489141"><ele>218.0</ele><time>2026-04-10T13:34:07.06Z</time></trkpt><trkpt lat="44.6153715" lon="10.3490288"><ele>218.0</ele><time>2026-04-10T13:34:08.06Z</time></trkpt><trkpt lat="44.6154176" lon="10.3491156"><ele>218.0</ele><time>2026-04-10T13:34:09.06Z</time></trkpt><trkpt lat="44.6154294" lon="10.3492479"><ele>218.33333333333334</ele><time>2026-04-10T13:34:11.06Z</time></trkpt><trkpt lat="44.6153728" lon="10.3493529"><ele>218.66666666666669</ele><time>2026-04-10T13:34:13.06Z</time></trkpt><trkpt lat="44.6152926" lon="10.3494665"><ele>219.0</ele><time>2026-04-10T13:35:09.059Z</time></trkpt><trkpt lat="44.6152374" lon="10.3495187"><ele>219.33333333333331</ele><time>2026-04-10T13:35:10.058Z</time></trkpt><trkpt lat="44.6151816" lon="10.349579"><ele>219.66666666666666</ele><time>2026-04-10T13:35:11.058Z</time></trkpt><trkpt lat="44.6151141" lon="10.3496397"><ele>220.0</ele><time>2026-04-10T13:35:12.059Z</time></trkpt><trkpt lat="44.6150465" lon="10.3496978"><ele>219.28571428571428</ele><time>2026-04-10T13:35:13.059Z</time></trkpt><trkpt lat="44.6149905" lon="10.3497542"><ele>218.57142857142856</ele><time>2026-04-10T13:35:14.059Z</time></trkpt><trkpt lat="44.6149332" lon="10.3498088"><ele>217.85714285714283</ele><time>2026-04-10T13:35:15.058Z</time></trkpt><trkpt lat="44.6148684" lon="10.3498602"><ele>217.14285714285714</ele><time>2026-04-10T13:35:16.059Z</time></trkpt><trkpt lat="44.6147947" lon="10.3499122"><ele>216.42857142857144</ele><time>2026-04-10T13:35:17.058Z</time></trkpt><trkpt lat="44.6147197" lon="10.3499397"><ele>215.7142857142857</ele><time>2026-04-10T13:35:18.059Z</time></trkpt><trkpt lat="44.6146453" lon="10.3499386"><ele>215.0</ele><time>2026-04-10T13:35:19.06Z</time></trkpt><trkpt lat="44.614545" lon="10.349875"><ele>215.16666666666669</ele><time>2026-04-10T13:35:21.058Z</time></trkpt><trkpt lat="44.6144683" lon="10.3498478"><ele>215.33333333333334</ele><time>2026-04-10T13:35:23.058Z</time></trkpt><trkpt lat="44.614396" lon="10.349894"><ele>215.5</ele><time>2026-04-10T13:35:25.059Z</time></trkpt><trkpt lat="44.6143225" lon="10.3499611"><ele>215.66666666666669</ele><time>2026-04-10T13:35:27.059Z</time></trkpt><trkpt lat="44.6142804" lon="10.3500341"><ele>215.83333333333334</ele><time>2026-04-10T13:35:28.058Z</time></trkpt><trkpt lat="44.6142339" lon="10.350121"><ele>216.0</ele><time>2026-04-10T13:35:29.059Z</time></trkpt><trkpt lat="44.6141779" lon="10.3502117"><ele>216.0</ele><time>2026-04-10T13:35:30.059Z</time></trkpt><trkpt lat="44.614106" lon="10.3503038"><ele>216.00000000000003</ele><time>2026-04-10T13:35:31.059Z</time></trkpt><trkpt lat="44.6140255" lon="10.3503912"><ele>216.00000000000003</ele><time>2026-04-10T13:35:32.06Z</time></trkpt><trkpt lat="44.6139515" lon="10.3504599"><ele>216.0</ele><time>2026-04-10T13:35:33.059Z</time></trkpt><trkpt lat="44.6138669" lon="10.3505172"><ele>216.0</ele><time>2026-04-10T13:35:34.059Z</time></trkpt><trkpt lat="44.6137821" lon="10.3505433"><ele>215.83333333333334</ele><time>2026-04-10T13:35:35.058Z</time></trkpt><trkpt lat="44.6136878" lon="10.350573"><ele>215.66666666666669</ele><time>2026-04-10T13:35:36.059Z</time></trkpt><trkpt lat="44.613599" lon="10.3505947"><ele>215.5</ele><time>2026-04-10T13:35:37.059Z</time></trkpt><trkpt lat="44.6135146" lon="10.350609"><ele>215.33333333333334</ele><time>2026-04-10T13:35:38.059Z</time></trkpt><trkpt lat="44.6134415" lon="10.3506034"><ele>215.16666666666669</ele><time>2026-04-10T13:35:39.059Z</time></trkpt><trkpt lat="44.6133632" lon="10.350604"><ele>215.0</ele><time>2026-04-10T13:35:40.058Z</time></trkpt><trkpt lat="44.6132999" lon="10.3506266"><ele>216.33333333333334</ele><time>2026-04-10T13:35:41.058Z</time></trkpt><trkpt lat="44.6132217" lon="10.3506686"><ele>217.66666666666669</ele><time>2026-04-10T13:35:42.059Z</time></trkpt><trkpt lat="44.613159" lon="10.350705"><ele>219.0</ele><time>2026-04-10T13:35:43.059Z</time></trkpt><trkpt lat="44.6130363" lon="10.3507689"><ele>220.33333333333331</ele><time>2026-04-10T13:35:45.059Z</time></trkpt><trkpt lat="44.6129605" lon="10.3507882"><ele>221.66666666666666</ele><time>2026-04-10T13:35:46.059Z</time></trkpt><trkpt lat="44.6128908" lon="10.3508057"><ele>223.0</ele><time>2026-04-10T13:35:47.059Z</time></trkpt><trkpt lat="44.6128272" lon="10.350803"><ele>224.4</ele><time>2026-04-10T13:35:48.059Z</time></trkpt><trkpt lat="44.6127213" lon="10.3507685"><ele>225.8</ele><time>2026-04-10T13:35:50.058Z</time></trkpt><trkpt lat="44.6126265" lon="10.3506699"><ele>227.2</ele><time>2026-04-10T13:35:52.059Z</time></trkpt><trkpt lat="44.6125574" lon="10.3505923"><ele>228.6</ele><time>2026-04-10T13:35:54.059Z</time></trkpt><trkpt lat="44.6124966" lon="10.3505365"><ele>230.0</ele><time>2026-04-10T13:35:57.058Z</time></trkpt><trkpt lat="44.6124345" lon="10.3504837"><ele>231.0</ele><time>2026-04-10T13:35:59.059Z</time></trkpt><trkpt lat="44.6123366" lon="10.3504109"><ele>232.0</ele><time>2026-04-10T13:36:01.059Z</time></trkpt><trkpt lat="44.6122493" lon="10.3502601"><ele>233.0</ele><time>2026-04-10T13:36:03.059Z</time></trkpt><trkpt lat="44.6122211" lon="10.3501729"><ele>234.0</ele><time>2026-04-10T13:36:04.06Z</time></trkpt><trkpt lat="44.6122249" lon="10.3500021"><ele>235.0</ele><time>2026-04-10T13:36:06.058Z</time></trkpt><trkpt lat="44.6122371" lon="10.3499004"><ele>234.99999999999997</ele><time>2026-04-10T13:36:07.059Z</time></trkpt><trkpt lat="44.6122482" lon="10.3498018"><ele>235.0</ele><time>2026-04-10T13:36:08.059Z</time></trkpt><trkpt lat="44.6121989" lon="10.349702"><ele>235.0</ele><time>2026-04-10T13:36:10.059Z</time></trkpt><trkpt lat="44.612126" lon="10.3496569"><ele>235.0</ele><time>2026-04-10T13:36:12.059Z</time></trkpt><trkpt lat="44.6120357" lon="10.3497085"><ele>234.99999999999997</ele><time>2026-04-10T13:36:13.058Z</time></trkpt><trkpt lat="44.6119464" lon="10.3497515"><ele>235.0</ele><time>2026-04-10T13:36:14.059Z</time></trkpt><trkpt lat="44.6118607" lon="10.3497793"><ele>238.4</ele><time>2026-04-10T13:36:15.058Z</time></trkpt><trkpt lat="44.6117562" lon="10.3498261"><ele>241.8</ele><time>2026-04-10T13:36:16.059Z</time></trkpt><trkpt lat="44.6116676" lon="10.3498456"><ele>245.2</ele><time>2026-04-10T13:36:17.059Z</time></trkpt><trkpt lat="44.6115522" lon="10.3498263"><ele>248.6</ele><time>2026-04-10T13:36:19.059Z</time></trkpt><trkpt lat="44.6114697" lon="10.3497314"><ele>252.0</ele><time>2026-04-10T13:36:21.059Z</time></trkpt><trkpt lat="44.6114017" lon="10.349583"><ele>252.0</ele><time>2026-04-10T13:36:23.059Z</time></trkpt><trkpt lat="44.6113591" lon="10.3495094"><ele>252.0</ele><time>2026-04-10T13:36:24.059Z</time></trkpt><trkpt lat="44.6112825" lon="10.3494628"><ele>252.0</ele><time>2026-04-10T13:36:25.059Z</time></trkpt><trkpt lat="44.6111913" lon="10.349416"><ele>252.0</ele><time>2026-04-10T13:36:26.058Z</time></trkpt><trkpt lat="44.6110931" lon="10.3493599"><ele>252.0</ele><time>2026-04-10T13:36:27.059Z</time></trkpt><trkpt lat="44.6110014" lon="10.3493054"><ele>254.83333333333334</ele><time>2026-04-10T13:36:28.059Z</time></trkpt><trkpt lat="44.610922" lon="10.3492522"><ele>257.6666666666667</ele><time>2026-04-10T13:36:29.059Z</time></trkpt><trkpt lat="44.6108513" lon="10.3492178"><ele>260.5</ele><time>2026-04-10T13:36:30.059Z</time></trkpt><trkpt lat="44.6107749" lon="10.3491949"><ele>263.33333333333337</ele><time>2026-04-10T13:36:31.059Z</time></trkpt><trkpt lat="44.6106918" lon="10.349181"><ele>266.1666666666667</ele><time>2026-04-10T13:36:32.059Z</time></trkpt><trkpt lat="44.6106136" lon="10.3492185"><ele>269.0</ele><time>2026-04-10T13:36:33.059Z</time></trkpt><trkpt lat="44.610531" lon="10.3492585"><ele>269.0</ele><time>2026-04-10T13:36:34.059Z</time></trkpt><trkpt lat="44.6104345" lon="10.3493031"><ele>269.0</ele><time>2026-04-10T13:36:35.059Z</time></trkpt><trkpt lat="44.6103374" lon="10.3493511"><ele>269.0</ele><time>2026-04-10T13:36:36.059Z</time></trkpt><trkpt lat="44.610257" lon="10.3494056"><ele>269.0</ele><time>2026-04-10T13:36:37.059Z</time></trkpt><trkpt lat="44.6101191" lon="10.349444"><ele>269.0</ele><time>2026-04-10T13:36:39.059Z</time></trkpt><trkpt lat="44.61003" lon="10.34947"><ele>271.59999999999997</ele><time>2026-04-10T13:36:40.058Z</time></trkpt><trkpt lat="44.609947" lon="10.3495189"><ele>274.2</ele><time>2026-04-10T13:36:41.058Z</time></trkpt><trkpt lat="44.6098379" lon="10.3495717"><ele>276.79999999999995</ele><time>2026-04-10T13:36:42.058Z</time></trkpt><trkpt lat="44.6097409" lon="10.3496243"><ele>279.4</ele><time>2026-04-10T13:36:43.058Z</time></trkpt><trkpt lat="44.6096373" lon="10.349689"><ele>282.0</ele><time>2026-04-10T13:36:44.059Z</time></trkpt><trkpt lat="44.609527" lon="10.3497471"><ele>284.4</ele><time>2026-04-10T13:36:45.059Z</time></trkpt><trkpt lat="44.6094108" lon="10.3498104"><ele>286.79999999999995</ele><time>2026-04-10T13:36:46.059Z</time></trkpt><trkpt lat="44.6093102" lon="10.3498721"><ele>289.2</ele><time>2026-04-10T13:36:47.059Z</time></trkpt><trkpt lat="44.6092224" lon="10.3499153"><ele>291.59999999999997</ele><time>2026-04-10T13:36:48.059Z</time></trkpt><trkpt lat="44.6091289" lon="10.3499477"><ele>294.0</ele><time>2026-04-10T13:36:49.059Z</time></trkpt><trkpt lat="44.6090398" lon="10.34997"><ele>294.0</ele><time>2026-04-10T13:36:50.059Z</time></trkpt><trkpt lat="44.608956" lon="10.3499901"><ele>294.0</ele><time>2026-04-10T13:36:51.059Z</time></trkpt><trkpt lat="44.6088741" lon="10.3500064"><ele>294.0</ele><time>2026-04-10T13:36:52.059Z</time></trkpt><trkpt lat="44.608789" lon="10.3500277"><ele>294.0</ele><time>2026-04-10T13:36:53.058Z</time></trkpt><trkpt lat="44.6087024" lon="10.3500464"><ele>294.0</ele><time>2026-04-10T13:36:54.059Z</time></trkpt><trkpt lat="44.6086054" lon="10.3500713"><ele>294.0</ele><time>2026-04-10T13:36:55.059Z</time></trkpt><trkpt lat="44.6085187" lon="10.350095"><ele>296.59999999999997</ele><time>2026-04-10T13:36:56.059Z</time></trkpt><trkpt lat="44.6084258" lon="10.3501311"><ele>299.2</ele><time>2026-04-10T13:36:57.06Z</time></trkpt><trkpt lat="44.6083395" lon="10.3501681"><ele>301.79999999999995</ele><time>2026-04-10T13:36:58.059Z</time></trkpt><trkpt lat="44.6082547" lon="10.3502177"><ele>304.4</ele><time>2026-04-10T13:36:59.06Z</time></trkpt><trkpt lat="44.6081767" lon="10.3502747"><ele>307.0</ele><time>2026-04-10T13:37:00.059Z</time></trkpt><trkpt lat="44.6081026" lon="10.350336"><ele>307.0</ele><time>2026-04-10T13:37:01.059Z</time></trkpt><trkpt lat="44.6080277" lon="10.3504"><ele>307.0</ele><time>2026-04-10T13:37:02.059Z</time></trkpt><trkpt lat="44.6079614" lon="10.3504662"><ele>307.0</ele><time>2026-04-10T13:37:03.059Z</time></trkpt><trkpt lat="44.6078965" lon="10.3505487"><ele>307.0</ele><time>2026-04-10T13:37:04.059Z</time></trkpt><trkpt lat="44.6078345" lon="10.350644"><ele>307.0</ele><time>2026-04-10T13:37:05.059Z</time></trkpt><trkpt lat="44.6077853" lon="10.3507251"><ele>307.0</ele><time>2026-04-10T13:37:06.059Z</time></trkpt><trkpt lat="44.6077459" lon="10.3508032"><ele>308.3333333333333</ele><time>2026-04-10T13:37:07.059Z</time></trkpt><trkpt lat="44.6077243" lon="10.350892"><ele>309.66666666666663</ele><time>2026-04-10T13:37:08.059Z</time></trkpt><trkpt lat="44.6077115" lon="10.3509921"><ele>311.0</ele><time>2026-04-10T13:37:09.058Z</time></trkpt><trkpt lat="44.6077121" lon="10.3510939"><ele>312.3333333333333</ele><time>2026-04-10T13:37:10.058Z</time></trkpt><trkpt lat="44.6077047" lon="10.3511927"><ele>313.6666666666667</ele><time>2026-04-10T13:37:11.059Z</time></trkpt><trkpt lat="44.6076937" lon="10.3512923"><ele>315.0</ele><time>2026-04-10T13:37:12.059Z</time></trkpt><trkpt lat="44.6077138" lon="10.3514277"><ele>319.0</ele><time>2026-04-10T13:37:14.059Z</time></trkpt><trkpt lat="44.6077672" lon="10.3515439"><ele>323.0</ele><time>2026-04-10T13:37:16.058Z</time></trkpt><trkpt lat="44.6077672" lon="10.3516424"><ele>327.0</ele><time>2026-04-10T13:37:18.06Z</time></trkpt><trkpt lat="44.6077303" lon="10.351795"><ele>331.0</ele><time>2026-04-10T13:37:20.058Z</time></trkpt><trkpt lat="44.6077035" lon="10.3518789"><ele>335.0</ele><time>2026-04-10T13:37:21.059Z</time></trkpt><trkpt lat="44.6076666" lon="10.3519739"><ele>339.0</ele><time>2026-04-10T13:37:22.058Z</time></trkpt><trkpt lat="44.6076203" lon="10.351901"><ele>339.0</ele><time>2026-04-10T13:37:23.058Z</time></trkpt><trkpt lat="44.6075744" lon="10.3518252"><ele>339.0</ele><time>2026-04-10T13:37:24.059Z</time></trkpt><trkpt lat="44.6075127" lon="10.3517755"><ele>339.0</ele><time>2026-04-10T13:37:26.06Z</time></trkpt><trkpt lat="44.607449" lon="10.3517482"><ele>339.0</ele><time>2026-04-10T13:37:41.058Z</time></trkpt><trkpt lat="44.6073515" lon="10.3518463"><ele>339.0</ele><time>2026-04-10T13:37:49.059Z</time></trkpt><trkpt lat="44.6072463" lon="10.351937"><ele>339.0</ele><time>2026-04-10T13:37:51.059Z</time></trkpt><trkpt lat="44.6071436" lon="10.3520009"><ele>339.0</ele><time>2026-04-10T13:37:53.058Z</time></trkpt><trkpt lat="44.6070755" lon="10.3520461"><ele>339.0</ele><time>2026-04-10T13:37:54.059Z</time></trkpt><trkpt lat="44.6070043" lon="10.3521171"><ele>339.0</ele><time>2026-04-10T13:37:55.059Z</time></trkpt><trkpt lat="44.6069305" lon="10.3521963"><ele>339.0</ele><time>2026-04-10T13:37:56.058Z</time></trkpt><trkpt lat="44.6068626" lon="10.3523626"><ele>342.0</ele><time>2026-04-10T13:37:57.059Z</time></trkpt><trkpt lat="44.6067795" lon="10.3524881"><ele>345.0</ele><time>2026-04-10T13:37:58.059Z</time></trkpt><trkpt lat="44.606702" lon="10.3525372"><ele>348.0</ele><time>2026-04-10T13:37:59.059Z</time></trkpt><trkpt lat="44.6066278" lon="10.3526245"><ele>351.0</ele><time>2026-04-10T13:38:00.059Z</time></trkpt><trkpt lat="44.6065507" lon="10.3527132"><ele>354.0</ele><time>2026-04-10T13:38:01.059Z</time></trkpt><trkpt lat="44.6064917" lon="10.3528382"><ele>354.0</ele><time>2026-04-10T13:38:02.059Z</time></trkpt><trkpt lat="44.6064179" lon="10.3528983"><ele>354.0</ele><time>2026-04-10T13:38:03.059Z</time></trkpt><trkpt lat="44.6063312" lon="10.3529549"><ele>354.0</ele><time>2026-04-10T13:38:04.059Z</time></trkpt><trkpt lat="44.6062428" lon="10.3530064"><ele>354.0</ele><time>2026-04-10T13:38:05.058Z</time></trkpt><trkpt lat="44.6061722" lon="10.3530759"><ele>354.0</ele><time>2026-04-10T13:38:06.058Z</time></trkpt><trkpt lat="44.6060803" lon="10.3531813"><ele>353.6666666666667</ele><time>2026-04-10T13:38:08.058Z</time></trkpt><trkpt lat="44.606075" lon="10.3532768"><ele>353.3333333333333</ele><time>2026-04-10T13:38:10.058Z</time></trkpt><trkpt lat="44.606117" lon="10.353357"><ele>353.0</ele><time>2026-04-10T13:38:14.058Z</time></trkpt><trkpt lat="44.6061738" lon="10.3534579"><ele>352.66666666666663</ele><time>2026-04-10T13:38:16.058Z</time></trkpt><trkpt lat="44.6062381" lon="10.353529"><ele>352.3333333333333</ele><time>2026-04-10T13:38:17.057Z</time></trkpt><trkpt lat="44.6062863" lon="10.3536032"><ele>352.0</ele><time>2026-04-10T13:38:18.058Z</time></trkpt><trkpt lat="44.6062953" lon="10.3537136"><ele>356.8</ele><time>2026-04-10T13:38:19.058Z</time></trkpt><trkpt lat="44.6063102" lon="10.353839"><ele>361.6</ele><time>2026-04-10T13:38:20.057Z</time></trkpt><trkpt lat="44.6063274" lon="10.3539863"><ele>366.40000000000003</ele><time>2026-04-10T13:38:21.059Z</time></trkpt><trkpt lat="44.6063377" lon="10.3541357"><ele>371.20000000000005</ele><time>2026-04-10T13:38:22.058Z</time></trkpt><trkpt lat="44.6063499" lon="10.3542718"><ele>376.0</ele><time>2026-04-10T13:38:23.058Z</time></trkpt><trkpt lat="44.6063711" lon="10.3543816"><ele>376.0</ele><time>2026-04-10T13:38:24.057Z</time></trkpt><trkpt lat="44.6064139" lon="10.3544801"><ele>376.0</ele><time>2026-04-10T13:38:25.058Z</time></trkpt><trkpt lat="44.6064625" lon="10.3545809"><ele>376.0</ele><time>2026-04-10T13:38:26.058Z</time></trkpt><trkpt lat="44.6065172" lon="10.3547055"><ele>376.0</ele><time>2026-04-10T13:38:27.058Z</time></trkpt><trkpt lat="44.6065731" lon="10.3548096"><ele>376.0</ele><time>2026-04-10T13:38:28.057Z</time></trkpt><trkpt lat="44.6065966" lon="10.3549307"><ele>376.0</ele><time>2026-04-10T13:38:29.058Z</time></trkpt><trkpt lat="44.6065835" lon="10.3550331"><ele>376.0</ele><time>2026-04-10T13:38:30.058Z</time></trkpt><trkpt lat="44.6065811" lon="10.3551713"><ele>376.0</ele><time>2026-04-10T13:38:31.058Z</time></trkpt><trkpt lat="44.6065884" lon="10.3553348"><ele>376.0</ele><time>2026-04-10T13:38:32.058Z</time></trkpt><trkpt lat="44.6066046" lon="10.3555027"><ele>376.0</ele><time>2026-04-10T13:38:33.058Z</time></trkpt><trkpt lat="44.6066037" lon="10.3556971"><ele>375.5</ele><time>2026-04-10T13:38:34.058Z</time></trkpt><trkpt lat="44.6065842" lon="10.3559029"><ele>375.0</ele><time>2026-04-10T13:38:35.058Z</time></trkpt><trkpt lat="44.6065591" lon="10.3561157"><ele>374.5</ele><time>2026-04-10T13:38:36.058Z</time></trkpt><trkpt lat="44.6065324" lon="10.3563191"><ele>374.0</ele><time>2026-04-10T13:38:37.057Z</time></trkpt><trkpt lat="44.6064869" lon="10.3565174"><ele>374.0</ele><time>2026-04-10T13:38:38.058Z</time></trkpt><trkpt lat="44.6064567" lon="10.356724"><ele>374.0</ele><time>2026-04-10T13:38:39.058Z</time></trkpt><trkpt lat="44.6064245" lon="10.3568916"><ele>374.0</ele><time>2026-04-10T13:38:40.058Z</time></trkpt><trkpt lat="44.6063899" lon="10.3570529"><ele>374.0</ele><time>2026-04-10T13:38:41.058Z</time></trkpt><trkpt lat="44.6063646" lon="10.3572101"><ele>375.0</ele><time>2026-04-10T13:38:42.058Z</time></trkpt><trkpt lat="44.6063366" lon="10.3573582"><ele>376.0</ele><time>2026-04-10T13:38:43.058Z</time></trkpt><trkpt lat="44.6063038" lon="10.3575089"><ele>377.0</ele><time>2026-04-10T13:38:44.057Z</time></trkpt><trkpt lat="44.606287" lon="10.3576573"><ele>378.0</ele><time>2026-04-10T13:38:45.058Z</time></trkpt><trkpt lat="44.6062676" lon="10.3578225"><ele>379.0</ele><time>2026-04-10T13:38:46.058Z</time></trkpt><trkpt lat="44.6062346" lon="10.3579728"><ele>380.25</ele><time>2026-04-10T13:38:47.058Z</time></trkpt><trkpt lat="44.6062137" lon="10.3581347"><ele>381.5</ele><time>2026-04-10T13:38:48.058Z</time></trkpt><trkpt lat="44.6062197" lon="10.3583308"><ele>382.75</ele><time>2026-04-10T13:38:49.058Z</time></trkpt><trkpt lat="44.6061869" lon="10.3584862"><ele>384.0</ele><time>2026-04-10T13:38:50.058Z</time></trkpt><trkpt lat="44.606164" lon="10.3586422"><ele>376.6</ele><time>2026-04-10T13:38:51.058Z</time></trkpt><trkpt lat="44.6061499" lon="10.3587877"><ele>369.2</ele><time>2026-04-10T13:38:52.058Z</time></trkpt><trkpt lat="44.6061524" lon="10.3589438"><ele>361.8</ele><time>2026-04-10T13:38:53.058Z</time></trkpt><trkpt lat="44.6061434" lon="10.3590976"><ele>354.40000000000003</ele><time>2026-04-10T13:38:54.058Z</time></trkpt><trkpt lat="44.6061261" lon="10.359227"><ele>347.0</ele><time>2026-04-10T13:38:55.058Z</time></trkpt><trkpt lat="44.6060943" lon="10.3593378"><ele>346.6</ele><time>2026-04-10T13:38:56.057Z</time></trkpt><trkpt lat="44.6060391" lon="10.3594345"><ele>346.20000000000005</ele><time>2026-04-10T13:38:57.058Z</time></trkpt><trkpt lat="44.6059697" lon="10.3595213"><ele>345.8</ele><time>2026-04-10T13:38:58.058Z</time></trkpt><trkpt lat="44.6058748" lon="10.3596201"><ele>345.4</ele><time>2026-04-10T13:38:59.057Z</time></trkpt><trkpt lat="44.6057834" lon="10.359719"><ele>345.0</ele><time>2026-04-10T13:39:00.058Z</time></trkpt><trkpt lat="44.6056935" lon="10.3597964"><ele>343.4</ele><time>2026-04-10T13:39:01.058Z</time></trkpt><trkpt lat="44.6056025" lon="10.3598413"><ele>341.8</ele><time>2026-04-10T13:39:02.058Z</time></trkpt><trkpt lat="44.6055077" lon="10.3598339"><ele>340.20000000000005</ele><time>2026-04-10T13:39:03.058Z</time></trkpt><trkpt lat="44.6054075" lon="10.3597836"><ele>338.6</ele><time>2026-04-10T13:39:04.058Z</time></trkpt><trkpt lat="44.6052805" lon="10.3597"><ele>337.0</ele><time>2026-04-10T13:39:05.058Z</time></trkpt><trkpt lat="44.6051446" lon="10.3596128"><ele>334.5</ele><time>2026-04-10T13:39:06.057Z</time></trkpt><trkpt lat="44.6050167" lon="10.3595358"><ele>332.0</ele><time>2026-04-10T13:39:07.058Z</time></trkpt><trkpt lat="44.6049081" lon="10.3594575"><ele>329.5</ele><time>2026-04-10T13:39:08.058Z</time></trkpt><trkpt lat="44.6048042" lon="10.3593727"><ele>327.0</ele><time>2026-04-10T13:39:09.058Z</time></trkpt><trkpt lat="44.6047011" lon="10.3592884"><ele>327.0</ele><time>2026-04-10T13:39:10.057Z</time></trkpt><trkpt lat="44.6046079" lon="10.3592098"><ele>327.0</ele><time>2026-04-10T13:39:11.058Z</time></trkpt><trkpt lat="44.6045177" lon="10.3591458"><ele>327.0</ele><time>2026-04-10T13:39:12.058Z</time></trkpt><trkpt lat="44.6044441" lon="10.3590858"><ele>327.0</ele><time>2026-04-10T13:39:13.057Z</time></trkpt><trkpt lat="44.6043889" lon="10.3590217"><ele>327.0</ele><time>2026-04-10T13:39:14.058Z</time></trkpt><trkpt lat="44.6043549" lon="10.358939"><ele>327.0</ele><time>2026-04-10T13:39:15.057Z</time></trkpt><trkpt lat="44.6044351" lon="10.3587958"><ele>325.0</ele><time>2026-04-10T13:39:17.058Z</time></trkpt><trkpt lat="44.6045149" lon="10.3587613"><ele>323.0</ele><time>2026-04-10T13:39:18.058Z</time></trkpt><trkpt lat="44.6045826" lon="10.3587383"><ele>321.0</ele><time>2026-04-10T13:39:19.058Z</time></trkpt><trkpt lat="44.6046417" lon="10.3586977"><ele>319.0</ele><time>2026-04-10T13:39:20.058Z</time></trkpt><trkpt lat="44.6047253" lon="10.3585595"><ele>317.0</ele><time>2026-04-10T13:39:22.058Z</time></trkpt><trkpt lat="44.6047617" lon="10.3584454"><ele>315.0</ele><time>2026-04-10T13:39:23.058Z</time></trkpt><trkpt lat="44.6047933" lon="10.3583217"><ele>315.0</ele><time>2026-04-10T13:39:24.058Z</time></trkpt><trkpt lat="44.6048066" lon="10.3582304"><ele>315.0</ele><time>2026-04-10T13:39:25.058Z</time></trkpt><trkpt lat="44.6048007" lon="10.3581403"><ele>315.0</ele><time>2026-04-10T13:39:26.058Z</time></trkpt><trkpt lat="44.6047747" lon="10.3580573"><ele>315.0</ele><time>2026-04-10T13:39:27.059Z</time></trkpt><trkpt lat="44.604729" lon="10.3579746"><ele>315.0</ele><time>2026-04-10T13:39:28.058Z</time></trkpt><trkpt lat="44.6046782" lon="10.3578804"><ele>315.0</ele><time>2026-04-10T13:39:29.059Z</time></trkpt><trkpt lat="44.6046343" lon="10.3577756"><ele>315.0</ele><time>2026-04-10T13:39:30.058Z</time></trkpt><trkpt lat="44.6045925" lon="10.3576667"><ele>315.0</ele><time>2026-04-10T13:39:31.058Z</time></trkpt><trkpt lat="44.6045478" lon="10.3575682"><ele>315.0</ele><time>2026-04-10T13:39:32.058Z</time></trkpt><trkpt lat="44.6044971" lon="10.3574696"><ele>315.0</ele><time>2026-04-10T13:39:33.057Z</time></trkpt><trkpt lat="44.6044242" lon="10.3573809"><ele>315.0</ele><time>2026-04-10T13:39:34.057Z</time></trkpt><trkpt lat="44.6043445" lon="10.3572904"><ele>315.0</ele><time>2026-04-10T13:39:35.058Z</time></trkpt><trkpt lat="44.604258" lon="10.3571982"><ele>310.5</ele><time>2026-04-10T13:39:36.058Z</time></trkpt><trkpt lat="44.604167" lon="10.357099"><ele>306.0</ele><time>2026-04-10T13:39:37.058Z</time></trkpt><trkpt lat="44.6040764" lon="10.357"><ele>301.5</ele><time>2026-04-10T13:39:38.057Z</time></trkpt><trkpt lat="44.6039833" lon="10.3569069"><ele>297.0</ele><time>2026-04-10T13:39:39.057Z</time></trkpt><trkpt lat="44.6038902" lon="10.3568107"><ele>297.0</ele><time>2026-04-10T13:39:40.058Z</time></trkpt><trkpt lat="44.6037919" lon="10.3567155"><ele>297.0</ele><time>2026-04-10T13:39:41.058Z</time></trkpt><trkpt lat="44.6036938" lon="10.3566356"><ele>297.0</ele><time>2026-04-10T13:39:42.058Z</time></trkpt><trkpt lat="44.6035865" lon="10.3565591"><ele>297.0</ele><time>2026-04-10T13:39:43.058Z</time></trkpt><trkpt lat="44.6034809" lon="10.3564864"><ele>293.5</ele><time>2026-04-10T13:39:44.058Z</time></trkpt><trkpt lat="44.6033509" lon="10.3563978"><ele>290.0</ele><time>2026-04-10T13:39:45.057Z</time></trkpt><trkpt lat="44.6032297" lon="10.3563132"><ele>286.5</ele><time>2026-04-10T13:39:46.057Z</time></trkpt><trkpt lat="44.6031193" lon="10.3562267"><ele>283.0</ele><time>2026-04-10T13:39:47.057Z</time></trkpt><trkpt lat="44.603016" lon="10.356145"><ele>282.4</ele><time>2026-04-10T13:39:48.058Z</time></trkpt><trkpt lat="44.6029236" lon="10.3560826"><ele>281.8</ele><time>2026-04-10T13:39:49.058Z</time></trkpt><trkpt lat="44.602842" lon="10.3560397"><ele>281.2</ele><time>2026-04-10T13:39:50.059Z</time></trkpt><trkpt lat="44.6027488" lon="10.3560259"><ele>280.6</ele><time>2026-04-10T13:39:51.057Z</time></trkpt><trkpt lat="44.6026384" lon="10.3560323"><ele>280.0</ele><time>2026-04-10T13:39:52.058Z</time></trkpt><trkpt lat="44.6025035" lon="10.356049"><ele>278.0</ele><time>2026-04-10T13:39:53.058Z</time></trkpt><trkpt lat="44.6023581" lon="10.356076"><ele>276.0</ele><time>2026-04-10T13:39:54.058Z</time></trkpt><trkpt lat="44.6022277" lon="10.3560975"><ele>274.0</ele><time>2026-04-10T13:39:55.057Z</time></trkpt><trkpt lat="44.602105" lon="10.3561129"><ele>272.0</ele><time>2026-04-10T13:39:56.058Z</time></trkpt><trkpt lat="44.60199" lon="10.3561324"><ele>271.0</ele><time>2026-04-10T13:39:57.058Z</time></trkpt><trkpt lat="44.6018837" lon="10.3561528"><ele>270.0</ele><time>2026-04-10T13:39:58.059Z</time></trkpt><trkpt lat="44.6017989" lon="10.356191"><ele>269.0</ele><time>2026-04-10T13:39:59.058Z</time></trkpt><trkpt lat="44.60173" lon="10.3562557"><ele>268.0</ele><time>2026-04-10T13:40:00.057Z</time></trkpt><trkpt lat="44.6016713" lon="10.3563445"><ele>267.0</ele><time>2026-04-10T13:40:01.057Z</time></trkpt><trkpt lat="44.6016157" lon="10.356463"><ele>266.2</ele><time>2026-04-10T13:40:02.057Z</time></trkpt><trkpt lat="44.6015747" lon="10.3565747"><ele>265.4</ele><time>2026-04-10T13:40:03.058Z</time></trkpt><trkpt lat="44.6015309" lon="10.3566838"><ele>264.6</ele><time>2026-04-10T13:40:04.058Z</time></trkpt><trkpt lat="44.6014925" lon="10.3567963"><ele>263.8</ele><time>2026-04-10T13:40:05.058Z</time></trkpt><trkpt lat="44.6014459" lon="10.3569233"><ele>263.0</ele><time>2026-04-10T13:40:06.058Z</time></trkpt><trkpt lat="44.6013949" lon="10.357039"><ele>263.0</ele><time>2026-04-10T13:40:07.058Z</time></trkpt><trkpt lat="44.6013418" lon="10.3571235"><ele>263.0</ele><time>2026-04-10T13:40:08.058Z</time></trkpt><trkpt lat="44.6012784" lon="10.3571904"><ele>263.0</ele><time>2026-04-10T13:40:09.058Z</time></trkpt><trkpt lat="44.6011899" lon="10.3572492"><ele>263.0</ele><time>2026-04-10T13:40:10.058Z</time></trkpt><trkpt lat="44.6010967" lon="10.3572903"><ele>263.0</ele><time>2026-04-10T13:40:11.058Z</time></trkpt><trkpt lat="44.6010016" lon="10.3573356"><ele>260.4</ele><time>2026-04-10T13:40:12.058Z</time></trkpt><trkpt lat="44.6009092" lon="10.3573859"><ele>257.8</ele><time>2026-04-10T13:40:13.058Z</time></trkpt><trkpt lat="44.6008169" lon="10.3574371"><ele>255.2</ele><time>2026-04-10T13:40:14.058Z</time></trkpt><trkpt lat="44.6007253" lon="10.3574952"><ele>252.6</ele><time>2026-04-10T13:40:15.058Z</time></trkpt><trkpt lat="44.600633" lon="10.3575738"><ele>250.0</ele><time>2026-04-10T13:40:16.057Z</time></trkpt><trkpt lat="44.6005489" lon="10.3576531"><ele>250.0</ele><time>2026-04-10T13:40:17.058Z</time></trkpt><trkpt lat="44.6004695" lon="10.3577393"><ele>250.0</ele><time>2026-04-10T13:40:18.058Z</time></trkpt><trkpt lat="44.6003889" lon="10.3578283"><ele>250.0</ele><time>2026-04-10T13:40:19.058Z</time></trkpt><trkpt lat="44.6003015" lon="10.3579078"><ele>250.0</ele><time>2026-04-10T13:40:20.058Z</time></trkpt><trkpt lat="44.6002096" lon="10.3579768"><ele>250.0</ele><time>2026-04-10T13:40:21.059Z</time></trkpt><trkpt lat="44.6001164" lon="10.3580356"><ele>247.49999999999997</ele><time>2026-04-10T13:40:22.058Z</time></trkpt><trkpt lat="44.6000266" lon="10.3580851"><ele>245.0</ele><time>2026-04-10T13:40:23.057Z</time></trkpt><trkpt lat="44.5999519" lon="10.3581328"><ele>242.5</ele><time>2026-04-10T13:40:24.058Z</time></trkpt><trkpt lat="44.5998845" lon="10.3581898"><ele>240.0</ele><time>2026-04-10T13:40:25.058Z</time></trkpt><trkpt lat="44.5998253" lon="10.3582577"><ele>237.49999999999997</ele><time>2026-04-10T13:40:26.058Z</time></trkpt><trkpt lat="44.5997784" lon="10.358337"><ele>235.0</ele><time>2026-04-10T13:40:27.058Z</time></trkpt><trkpt lat="44.5997429" lon="10.358432"><ele>235.0</ele><time>2026-04-10T13:40:28.058Z</time></trkpt><trkpt lat="44.5997027" lon="10.3585234"><ele>235.0</ele><time>2026-04-10T13:40:29.058Z</time></trkpt><trkpt lat="44.5996624" lon="10.3586556"><ele>235.0</ele><time>2026-04-10T13:40:30.058Z</time></trkpt><trkpt lat="44.599626" lon="10.3587581"><ele>235.0</ele><time>2026-04-10T13:40:31.058Z</time></trkpt><trkpt lat="44.5995856" lon="10.3588712"><ele>235.0</ele><time>2026-04-10T13:40:32.058Z</time></trkpt><trkpt lat="44.5995534" lon="10.3590081"><ele>235.5</ele><time>2026-04-10T13:40:33.057Z</time></trkpt><trkpt lat="44.5995234" lon="10.359168"><ele>236.0</ele><time>2026-04-10T13:40:34.057Z</time></trkpt><trkpt lat="44.5994995" lon="10.3593252"><ele>236.5</ele><time>2026-04-10T13:40:35.058Z</time></trkpt><trkpt lat="44.5994743" lon="10.3595052"><ele>237.0</ele><time>2026-04-10T13:40:36.058Z</time></trkpt><trkpt lat="44.599463" lon="10.359687"><ele>235.0</ele><time>2026-04-10T13:40:37.058Z</time></trkpt><trkpt lat="44.5994661" lon="10.3598592"><ele>233.0</ele><time>2026-04-10T13:40:38.058Z</time></trkpt><trkpt lat="44.5994699" lon="10.3600145"><ele>231.0</ele><time>2026-04-10T13:40:39.058Z</time></trkpt><trkpt lat="44.5994735" lon="10.3601659"><ele>229.0</ele><time>2026-04-10T13:40:40.058Z</time></trkpt><trkpt lat="44.5994674" lon="10.3603023"><ele>227.0</ele><time>2026-04-10T13:40:41.057Z</time></trkpt><trkpt lat="44.5994722" lon="10.3604276"><ele>226.6</ele><time>2026-04-10T13:40:42.057Z</time></trkpt><trkpt lat="44.599479" lon="10.3605428"><ele>226.2</ele><time>2026-04-10T13:40:43.058Z</time></trkpt><trkpt lat="44.5994897" lon="10.3606364"><ele>225.8</ele><time>2026-04-10T13:40:44.057Z</time></trkpt><trkpt lat="44.5994377" lon="10.3607558"><ele>225.4</ele><time>2026-04-10T13:40:46.058Z</time></trkpt><trkpt lat="44.5993092" lon="10.3607675"><ele>225.0</ele><time>2026-04-10T13:40:48.058Z</time></trkpt><trkpt lat="44.5992168" lon="10.3607465"><ele>225.0</ele><time>2026-04-10T13:40:49.058Z</time></trkpt><trkpt lat="44.5991143" lon="10.3607331"><ele>225.0</ele><time>2026-04-10T13:40:50.058Z</time></trkpt><trkpt lat="44.5990158" lon="10.3607262"><ele>225.0</ele><time>2026-04-10T13:40:51.057Z</time></trkpt><trkpt lat="44.5989246" lon="10.3607116"><ele>225.0</ele><time>2026-04-10T13:40:52.058Z</time></trkpt><trkpt lat="44.5988464" lon="10.3606926"><ele>225.0</ele><time>2026-04-10T13:40:53.058Z</time></trkpt><trkpt lat="44.5987406" lon="10.3606681"><ele>224.25</ele><time>2026-04-10T13:40:55.058Z</time></trkpt><trkpt lat="44.5986154" lon="10.3605598"><ele>223.5</ele><time>2026-04-10T13:40:57.058Z</time></trkpt><trkpt lat="44.5985179" lon="10.3604693"><ele>222.75</ele><time>2026-04-10T13:40:58.058Z</time></trkpt><trkpt lat="44.5984107" lon="10.3603708"><ele>222.0</ele><time>2026-04-10T13:40:59.058Z</time></trkpt><trkpt lat="44.5982987" lon="10.3602698"><ele>222.0</ele><time>2026-04-10T13:41:00.058Z</time></trkpt><trkpt lat="44.5981947" lon="10.3601805"><ele>222.0</ele><time>2026-04-10T13:41:01.058Z</time></trkpt><trkpt lat="44.5980836" lon="10.3600832"><ele>222.0</ele><time>2026-04-10T13:41:02.058Z</time></trkpt><trkpt lat="44.5979633" lon="10.3599727"><ele>222.0</ele><time>2026-04-10T13:41:03.058Z</time></trkpt><trkpt lat="44.5978374" lon="10.3598641"><ele>221.75</ele><time>2026-04-10T13:41:04.058Z</time></trkpt><trkpt lat="44.5977109" lon="10.35976"><ele>221.5</ele><time>2026-04-10T13:41:05.058Z</time></trkpt><trkpt lat="44.597587" lon="10.3596513"><ele>221.25</ele><time>2026-04-10T13:41:06.057Z</time></trkpt><trkpt lat="44.5974626" lon="10.3595454"><ele>221.0</ele><time>2026-04-10T13:41:07.058Z</time></trkpt><trkpt lat="44.5973399" lon="10.3594293"><ele>221.0</ele><time>2026-04-10T13:41:08.058Z</time></trkpt><trkpt lat="44.5972326" lon="10.359294"><ele>221.0</ele><time>2026-04-10T13:41:09.057Z</time></trkpt><trkpt lat="44.5971382" lon="10.3591364"><ele>221.0</ele><time>2026-04-10T13:41:10.058Z</time></trkpt><trkpt lat="44.5970516" lon="10.3589571"><ele>221.0</ele><time>2026-04-10T13:41:11.058Z</time></trkpt><trkpt lat="44.5969674" lon="10.358761"><ele>222.0</ele><time>2026-04-10T13:41:12.058Z</time></trkpt><trkpt lat="44.5968865" lon="10.358559"><ele>223.0</ele><time>2026-04-10T13:41:13.057Z</time></trkpt><trkpt lat="44.5968107" lon="10.3583644"><ele>224.0</ele><time>2026-04-10T13:41:14.058Z</time></trkpt><trkpt lat="44.5967384" lon="10.3581786"><ele>224.75</ele><time>2026-04-10T13:41:15.058Z</time></trkpt><trkpt lat="44.5966797" lon="10.3580088"><ele>225.5</ele><time>2026-04-10T13:41:16.058Z</time></trkpt><trkpt lat="44.5966156" lon="10.3578649"><ele>226.25</ele><time>2026-04-10T13:41:17.058Z</time></trkpt><trkpt lat="44.5965592" lon="10.3577373"><ele>227.0</ele><time>2026-04-10T13:41:18.057Z</time></trkpt><trkpt lat="44.5965145" lon="10.3576212"><ele>227.00000000000003</ele><time>2026-04-10T13:41:19.058Z</time></trkpt><trkpt lat="44.5964669" lon="10.3575194"><ele>227.0</ele><time>2026-04-10T13:41:20.057Z</time></trkpt><trkpt lat="44.5964262" lon="10.3574318"><ele>227.0</ele><time>2026-04-10T13:41:21.058Z</time></trkpt><trkpt lat="44.596375" lon="10.3573736"><ele>227.0</ele><time>2026-04-10T13:41:22.058Z</time></trkpt><trkpt lat="44.5962572" lon="10.357388"><ele>227.00000000000003</ele><time>2026-04-10T13:41:24.058Z</time></trkpt><trkpt lat="44.596182" lon="10.3574275"><ele>227.0</ele><time>2026-04-10T13:41:25.059Z</time></trkpt><trkpt lat="44.5960952" lon="10.3574808"><ele>227.25</ele><time>2026-04-10T13:41:26.057Z</time></trkpt><trkpt lat="44.5959994" lon="10.357546"><ele>227.5</ele><time>2026-04-10T13:41:27.058Z</time></trkpt><trkpt lat="44.5959016" lon="10.3576211"><ele>227.75</ele><time>2026-04-10T13:41:28.058Z</time></trkpt><trkpt lat="44.595786" lon="10.3576966"><ele>228.0</ele><time>2026-04-10T13:41:29.058Z</time></trkpt><trkpt lat="44.5956607" lon="10.357778"><ele>228.0</ele><time>2026-04-10T13:41:30.058Z</time></trkpt><trkpt lat="44.5955349" lon="10.3578635"><ele>228.0</ele><time>2026-04-10T13:41:31.058Z</time></trkpt><trkpt lat="44.595407" lon="10.3579493"><ele>228.0</ele><time>2026-04-10T13:41:32.058Z</time></trkpt><trkpt lat="44.5952807" lon="10.3580261"><ele>228.0</ele><time>2026-04-10T13:41:33.058Z</time></trkpt><trkpt lat="44.5951534" lon="10.3580925"><ele>227.75</ele><time>2026-04-10T13:41:34.058Z</time></trkpt><trkpt lat="44.5950183" lon="10.3581549"><ele>227.5</ele><time>2026-04-10T13:41:35.058Z</time></trkpt><trkpt lat="44.5948968" lon="10.3582068"><ele>227.25</ele><time>2026-04-10T13:41:36.058Z</time></trkpt><trkpt lat="44.5947851" lon="10.3582561"><ele>227.0</ele><time>2026-04-10T13:41:37.057Z</time></trkpt><trkpt lat="44.5946657" lon="10.3583063"><ele>227.0</ele><time>2026-04-10T13:41:38.057Z</time></trkpt><trkpt lat="44.5945484" lon="10.35835"><ele>227.0</ele><time>2026-04-10T13:41:39.057Z</time></trkpt><trkpt lat="44.5944299" lon="10.3583898"><ele>227.0</ele><time>2026-04-10T13:41:40.058Z</time></trkpt><trkpt lat="44.594336" lon="10.3584377"><ele>227.0</ele><time>2026-04-10T13:41:41.058Z</time></trkpt><trkpt lat="44.5942516" lon="10.3584847"><ele>227.0</ele><time>2026-04-10T13:41:42.058Z</time></trkpt><trkpt lat="44.5941654" lon="10.3585556"><ele>227.66666666666669</ele><time>2026-04-10T13:41:43.057Z</time></trkpt><trkpt lat="44.5940947" lon="10.358654"><ele>228.33333333333334</ele><time>2026-04-10T13:41:44.058Z</time></trkpt><trkpt lat="44.5940393" lon="10.3587683"><ele>229.0</ele><time>2026-04-10T13:41:45.058Z</time></trkpt><trkpt lat="44.5939905" lon="10.3588692"><ele>229.66666666666669</ele><time>2026-04-10T13:41:46.058Z</time></trkpt><trkpt lat="44.5939396" lon="10.3589688"><ele>230.33333333333334</ele><time>2026-04-10T13:41:47.057Z</time></trkpt><trkpt lat="44.5938838" lon="10.3590431"><ele>231.0</ele><time>2026-04-10T13:41:48.057Z</time></trkpt><trkpt lat="44.5938146" lon="10.3590952"><ele>231.8</ele><time>2026-04-10T13:41:49.058Z</time></trkpt><trkpt lat="44.5937329" lon="10.3591363"><ele>232.60000000000002</ele><time>2026-04-10T13:41:50.058Z</time></trkpt><trkpt lat="44.5936301" lon="10.3591425"><ele>233.4</ele><time>2026-04-10T13:41:51.057Z</time></trkpt><trkpt lat="44.5935259" lon="10.3591452"><ele>234.2</ele><time>2026-04-10T13:41:52.058Z</time></trkpt><trkpt lat="44.5934356" lon="10.3591624"><ele>235.0</ele><time>2026-04-10T13:41:53.059Z</time></trkpt><trkpt lat="44.5933417" lon="10.3591825"><ele>237.25</ele><time>2026-04-10T13:41:54.058Z</time></trkpt><trkpt lat="44.5932477" lon="10.359229"><ele>239.5</ele><time>2026-04-10T13:41:55.057Z</time></trkpt><trkpt lat="44.5931638" lon="10.3593575"><ele>241.75</ele><time>2026-04-10T13:41:56.058Z</time></trkpt><trkpt lat="44.5930684" lon="10.3594748"><ele>244.0</ele><time>2026-04-10T13:41:57.058Z</time></trkpt><trkpt lat="44.5929535" lon="10.3595712"><ele>244.0</ele><time>2026-04-10T13:41:58.058Z</time></trkpt><trkpt lat="44.5928523" lon="10.3596521"><ele>243.99999999999997</ele><time>2026-04-10T13:41:59.058Z</time></trkpt><trkpt lat="44.5927573" lon="10.3597285"><ele>243.99999999999997</ele><time>2026-04-10T13:42:00.058Z</time></trkpt><trkpt lat="44.592659" lon="10.3598042"><ele>244.0</ele><time>2026-04-10T13:42:01.058Z</time></trkpt><trkpt lat="44.5925811" lon="10.3597517"><ele>244.0</ele><time>2026-04-10T13:42:03.058Z</time></trkpt><trkpt lat="44.5925631" lon="10.3596479"><ele>243.99999999999997</ele><time>2026-04-10T13:42:05.058Z</time></trkpt><trkpt lat="44.5926273" lon="10.3595891"><ele>244.0</ele><time>2026-04-10T13:42:06.057Z</time></trkpt><trkpt lat="44.5926852" lon="10.3595522"><ele>244.0</ele><time>2026-04-10T13:42:07.058Z</time></trkpt><trkpt lat="44.5927516" lon="10.3594844"><ele>244.0</ele><time>2026-04-10T13:42:08.058Z</time></trkpt><trkpt lat="44.5928188" lon="10.3594031"><ele>243.99999999999997</ele><time>2026-04-10T13:42:09.058Z</time></trkpt><trkpt lat="44.5928828" lon="10.3592722"><ele>244.0</ele><time>2026-04-10T13:42:10.058Z</time></trkpt><trkpt lat="44.5929249" lon="10.3591753"><ele>244.0</ele><time>2026-04-10T13:42:11.059Z</time></trkpt><trkpt lat="44.5929402" lon="10.3590229"><ele>244.0</ele><time>2026-04-10T13:42:12.058Z</time></trkpt><trkpt lat="44.5929644" lon="10.3588141"><ele>244.0</ele><time>2026-04-10T13:42:13.058Z</time></trkpt><trkpt lat="44.5929902" lon="10.3586304"><ele>244.0</ele><time>2026-04-10T13:42:14.058Z</time></trkpt><trkpt lat="44.5930061" lon="10.3584683"><ele>244.49999999999997</ele><time>2026-04-10T13:42:15.058Z</time></trkpt><trkpt lat="44.5930303" lon="10.358334"><ele>245.0</ele><time>2026-04-10T13:42:16.057Z</time></trkpt><trkpt lat="44.5930442" lon="10.3582427"><ele>245.5</ele><time>2026-04-10T13:42:17.058Z</time></trkpt><trkpt lat="44.5930741" lon="10.3581448"><ele>246.0</ele><time>2026-04-10T13:42:18.058Z</time></trkpt><trkpt lat="44.5929748" lon="10.358133"><ele>246.49999999999997</ele><time>2026-04-10T13:42:20.057Z</time></trkpt><trkpt lat="44.5929387" lon="10.3582514"><ele>247.0</ele><time>2026-04-10T13:42:22.057Z</time></trkpt><trkpt lat="44.5929251" lon="10.3583749"><ele>247.0</ele><time>2026-04-10T13:42:23.057Z</time></trkpt><trkpt lat="44.592887" lon="10.3584849"><ele>247.0</ele><time>2026-04-10T13:42:24.057Z</time></trkpt><trkpt lat="44.5928491" lon="10.358604"><ele>247.0</ele><time>2026-04-10T13:42:25.057Z</time></trkpt><trkpt lat="44.5927218" lon="10.3587104"><ele>247.0</ele><time>2026-04-10T13:42:26.057Z</time></trkpt><trkpt lat="44.5926279" lon="10.3588209"><ele>250.0</ele><time>2026-04-10T13:42:27.057Z</time></trkpt><trkpt lat="44.5925026" lon="10.3589131"><ele>253.0</ele><time>2026-04-10T13:42:28.057Z</time></trkpt><trkpt lat="44.5924182" lon="10.358985"><ele>256.0</ele><time>2026-04-10T13:42:29.057Z</time></trkpt><trkpt lat="44.5923363" lon="10.3590333"><ele>259.0</ele><time>2026-04-10T13:42:30.057Z</time></trkpt><trkpt lat="44.5922702" lon="10.3590527"><ele>262.0</ele><time>2026-04-10T13:42:31.058Z</time></trkpt><trkpt lat="44.592206" lon="10.3590415"><ele>262.0</ele><time>2026-04-10T13:42:32.057Z</time></trkpt><trkpt lat="44.5921492" lon="10.3589837"><ele>262.0</ele><time>2026-04-10T13:42:33.057Z</time></trkpt><trkpt lat="44.5920752" lon="10.3589285"><ele>262.0</ele><time>2026-04-10T13:42:34.057Z</time></trkpt><trkpt lat="44.5919917" lon="10.3589021"><ele>262.0</ele><time>2026-04-10T13:42:35.057Z</time></trkpt><trkpt lat="44.5918996" lon="10.3589049"><ele>262.0</ele><time>2026-04-10T13:42:36.057Z</time></trkpt><trkpt lat="44.5918401" lon="10.3589771"><ele>262.0</ele><time>2026-04-10T13:42:37.057Z</time></trkpt><trkpt lat="44.5917412" lon="10.3589547"><ele>264.0</ele><time>2026-04-10T13:42:39.057Z</time></trkpt><trkpt lat="44.5917124" lon="10.3588542"><ele>266.0</ele><time>2026-04-10T13:42:41.057Z</time></trkpt><trkpt lat="44.5917885" lon="10.3587987"><ele>268.0</ele><time>2026-04-10T13:42:42.056Z</time></trkpt><trkpt lat="44.5918201" lon="10.3587176"><ele>270.0</ele><time>2026-04-10T13:42:43.056Z</time></trkpt><trkpt lat="44.5918833" lon="10.3586507"><ele>272.0</ele><time>2026-04-10T13:42:44.057Z</time></trkpt><trkpt lat="44.5919755" lon="10.3586189"><ele>274.0</ele><time>2026-04-10T13:42:45.057Z</time></trkpt><trkpt lat="44.5920554" lon="10.3586162"><ele>274.0</ele><time>2026-04-10T13:42:46.057Z</time></trkpt><trkpt lat="44.5921273" lon="10.3585684"><ele>274.0</ele><time>2026-04-10T13:42:47.057Z</time></trkpt><trkpt lat="44.5921915" lon="10.3585068"><ele>274.0</ele><time>2026-04-10T13:42:48.057Z</time></trkpt><trkpt lat="44.5922347" lon="10.358433"><ele>274.0</ele><time>2026-04-10T13:42:49.057Z</time></trkpt><trkpt lat="44.5922356" lon="10.3583233"><ele>274.0</ele><time>2026-04-10T13:42:51.056Z</time></trkpt><trkpt lat="44.5921329" lon="10.3583544"><ele>274.0</ele><time>2026-04-10T13:42:54.057Z</time></trkpt><trkpt lat="44.5920691" lon="10.3584185"><ele>278.0</ele><time>2026-04-10T13:42:55.057Z</time></trkpt><trkpt lat="44.5919875" lon="10.3584586"><ele>282.0</ele><time>2026-04-10T13:42:56.057Z</time></trkpt><trkpt lat="44.5918846" lon="10.3584712"><ele>286.0</ele><time>2026-04-10T13:42:57.057Z</time></trkpt><trkpt lat="44.5917785" lon="10.3584803"><ele>290.0</ele><time>2026-04-10T13:42:58.057Z</time></trkpt><trkpt lat="44.5916811" lon="10.3584805"><ele>294.0</ele><time>2026-04-10T13:42:59.057Z</time></trkpt><trkpt lat="44.5915825" lon="10.358475"><ele>294.0</ele><time>2026-04-10T13:43:01.056Z</time></trkpt><trkpt lat="44.5915475" lon="10.3583771"><ele>294.0</ele><time>2026-04-10T13:43:03.057Z</time></trkpt><trkpt lat="44.591593" lon="10.3582773"><ele>294.0</ele><time>2026-04-10T13:43:05.057Z</time></trkpt><trkpt lat="44.5917436" lon="10.3582339"><ele>294.0</ele><time>2026-04-10T13:43:07.057Z</time></trkpt><trkpt lat="44.5918102" lon="10.3581175"><ele>294.0</ele><time>2026-04-10T13:43:09.057Z</time></trkpt><trkpt lat="44.5918048" lon="10.3579532"><ele>294.5</ele><time>2026-04-10T13:43:11.057Z</time></trkpt><trkpt lat="44.5917823" lon="10.3578677"><ele>295.0</ele><time>2026-04-10T13:43:12.057Z</time></trkpt><trkpt lat="44.5917102" lon="10.3578497"><ele>295.5</ele><time>2026-04-10T13:43:13.057Z</time></trkpt><trkpt lat="44.5916204" lon="10.3578489"><ele>296.0</ele><time>2026-04-10T13:43:15.057Z</time></trkpt><trkpt lat="44.5915622" lon="10.3579168"><ele>296.5</ele><time>2026-04-10T13:43:16.057Z</time></trkpt><trkpt lat="44.5914371" lon="10.3579975"><ele>297.0</ele><time>2026-04-10T13:43:18.057Z</time></trkpt><trkpt lat="44.5913427" lon="10.3578986"><ele>297.0</ele><time>2026-04-10T13:43:19.057Z</time></trkpt><trkpt lat="44.59128" lon="10.3578713"><ele>297.0</ele><time>2026-04-10T13:43:20.057Z</time></trkpt><trkpt lat="44.5912262" lon="10.3577528"><ele>297.0</ele><time>2026-04-10T13:43:21.056Z</time></trkpt><trkpt lat="44.5911557" lon="10.357627"><ele>297.0</ele><time>2026-04-10T13:43:22.056Z</time></trkpt><trkpt lat="44.5910905" lon="10.3575104"><ele>297.0</ele><time>2026-04-10T13:43:23.057Z</time></trkpt><trkpt lat="44.5910055" lon="10.3573906"><ele>299.1666666666667</ele><time>2026-04-10T13:43:24.057Z</time></trkpt><trkpt lat="44.5909378" lon="10.3573144"><ele>301.3333333333333</ele><time>2026-04-10T13:43:25.057Z</time></trkpt><trkpt lat="44.5908568" lon="10.3572448"><ele>303.5</ele><time>2026-04-10T13:43:26.056Z</time></trkpt><trkpt lat="44.5907803" lon="10.3572099"><ele>305.66666666666663</ele><time>2026-04-10T13:43:27.056Z</time></trkpt><trkpt lat="44.5906951" lon="10.3572065"><ele>307.8333333333333</ele><time>2026-04-10T13:43:28.057Z</time></trkpt><trkpt lat="44.5906002" lon="10.3572345"><ele>310.0</ele><time>2026-04-10T13:43:29.057Z</time></trkpt><trkpt lat="44.5905075" lon="10.3572666"><ele>310.0</ele><time>2026-04-10T13:43:30.056Z</time></trkpt><trkpt lat="44.5904111" lon="10.357313"><ele>310.0</ele><time>2026-04-10T13:43:31.057Z</time></trkpt><trkpt lat="44.5903256" lon="10.3574011"><ele>310.0</ele><time>2026-04-10T13:43:32.057Z</time></trkpt><trkpt lat="44.5902455" lon="10.3574622"><ele>310.0</ele><time>2026-04-10T13:43:33.057Z</time></trkpt><trkpt lat="44.5901641" lon="10.3575232"><ele>310.0</ele><time>2026-04-10T13:43:34.057Z</time></trkpt><trkpt lat="44.590082" lon="10.3575773"><ele>312.0</ele><time>2026-04-10T13:43:35.056Z</time></trkpt><trkpt lat="44.5899741" lon="10.357592"><ele>314.0</ele><time>2026-04-10T13:43:36.056Z</time></trkpt><trkpt lat="44.5898757" lon="10.3576088"><ele>316.0</ele><time>2026-04-10T13:43:37.057Z</time></trkpt><trkpt lat="44.589777" lon="10.3576084"><ele>318.0</ele><time>2026-04-10T13:43:38.057Z</time></trkpt><trkpt lat="44.589665" lon="10.3576055"><ele>320.0</ele><time>2026-04-10T13:43:39.057Z</time></trkpt><trkpt lat="44.5895579" lon="10.3576117"><ele>322.5</ele><time>2026-04-10T13:43:40.056Z</time></trkpt><trkpt lat="44.5894699" lon="10.3576129"><ele>325.0</ele><time>2026-04-10T13:43:41.056Z</time></trkpt><trkpt lat="44.5893829" lon="10.3575944"><ele>327.5</ele><time>2026-04-10T13:43:42.057Z</time></trkpt><trkpt lat="44.5893198" lon="10.3575669"><ele>330.0</ele><time>2026-04-10T13:43:43.057Z</time></trkpt><trkpt lat="44.5892617" lon="10.3574953"><ele>332.5</ele><time>2026-04-10T13:43:44.057Z</time></trkpt><trkpt lat="44.5892168" lon="10.3573778"><ele>335.0</ele><time>2026-04-10T13:43:45.056Z</time></trkpt><trkpt lat="44.5891746" lon="10.3572634"><ele>333.5</ele><time>2026-04-10T13:43:46.057Z</time></trkpt><trkpt lat="44.5891685" lon="10.3571656"><ele>332.0</ele><time>2026-04-10T13:43:47.057Z</time></trkpt><trkpt lat="44.5891224" lon="10.3570966"><ele>330.5</ele><time>2026-04-10T13:43:48.057Z</time></trkpt><trkpt lat="44.5890637" lon="10.357042"><ele>329.0</ele><time>2026-04-10T13:43:49.057Z</time></trkpt><trkpt lat="44.5890001" lon="10.3570045"><ele>327.5</ele><time>2026-04-10T13:43:50.056Z</time></trkpt><trkpt lat="44.5888946" lon="10.3570415"><ele>326.0</ele><time>2026-04-10T13:43:51.057Z</time></trkpt><trkpt lat="44.5887932" lon="10.357078"><ele>326.0</ele><time>2026-04-10T13:43:52.057Z</time></trkpt><trkpt lat="44.5886779" lon="10.357126"><ele>326.0</ele><time>2026-04-10T13:43:53.057Z</time></trkpt><trkpt lat="44.588573" lon="10.3571804"><ele>326.0</ele><time>2026-04-10T13:43:54.056Z</time></trkpt><trkpt lat="44.5884722" lon="10.357183"><ele>326.0</ele><time>2026-04-10T13:43:55.056Z</time></trkpt><trkpt lat="44.5883991" lon="10.3571578"><ele>326.0</ele><time>2026-04-10T13:43:56.058Z</time></trkpt><trkpt lat="44.5883207" lon="10.3570753"><ele>327.6666666666667</ele><time>2026-04-10T13:43:57.057Z</time></trkpt><trkpt lat="44.5882734" lon="10.3569779"><ele>329.33333333333337</ele><time>2026-04-10T13:43:58.057Z</time></trkpt><trkpt lat="44.5882175" lon="10.35686"><ele>331.0</ele><time>2026-04-10T13:43:59.057Z</time></trkpt><trkpt lat="44.5881456" lon="10.3567718"><ele>332.6666666666667</ele><time>2026-04-10T13:44:00.056Z</time></trkpt><trkpt lat="44.5880825" lon="10.3567059"><ele>334.3333333333333</ele><time>2026-04-10T13:44:01.057Z</time></trkpt><trkpt lat="44.5880223" lon="10.3566797"><ele>336.0</ele><time>2026-04-10T13:44:02.057Z</time></trkpt><trkpt lat="44.5879383" lon="10.3567452"><ele>336.0</ele><time>2026-04-10T13:44:04.057Z</time></trkpt><trkpt lat="44.5878863" lon="10.3567993"><ele>336.0</ele><time>2026-04-10T13:44:05.056Z</time></trkpt><trkpt lat="44.5878214" lon="10.3568243"><ele>336.0</ele><time>2026-04-10T13:44:06.056Z</time></trkpt><trkpt lat="44.5877344" lon="10.3568374"><ele>336.0</ele><time>2026-04-10T13:44:07.057Z</time></trkpt><trkpt lat="44.5876313" lon="10.3568539"><ele>336.0</ele><time>2026-04-10T13:44:08.057Z</time></trkpt><trkpt lat="44.5875216" lon="10.3568785"><ele>336.0</ele><time>2026-04-10T13:44:09.057Z</time></trkpt><trkpt lat="44.5874007" lon="10.3569083"><ele>337.0</ele><time>2026-04-10T13:44:10.057Z</time></trkpt><trkpt lat="44.5872707" lon="10.3569416"><ele>338.0</ele><time>2026-04-10T13:44:11.057Z</time></trkpt><trkpt lat="44.5871431" lon="10.3569687"><ele>339.0</ele><time>2026-04-10T13:44:12.057Z</time></trkpt><trkpt lat="44.5870302" lon="10.356971"><ele>340.0</ele><time>2026-04-10T13:44:13.057Z</time></trkpt><trkpt lat="44.5869251" lon="10.3569308"><ele>340.75</ele><time>2026-04-10T13:44:14.057Z</time></trkpt><trkpt lat="44.5868406" lon="10.3568444"><ele>341.5</ele><time>2026-04-10T13:44:15.056Z</time></trkpt><trkpt lat="44.5867699" lon="10.3567275"><ele>342.25</ele><time>2026-04-10T13:44:16.056Z</time></trkpt><trkpt lat="44.586705" lon="10.3565714"><ele>343.0</ele><time>2026-04-10T13:44:17.057Z</time></trkpt><trkpt lat="44.5866578" lon="10.3564099"><ele>340.25</ele><time>2026-04-10T13:44:18.057Z</time></trkpt><trkpt lat="44.5865912" lon="10.3562499"><ele>337.5</ele><time>2026-04-10T13:44:19.056Z</time></trkpt><trkpt lat="44.5865353" lon="10.3561142"><ele>334.75</ele><time>2026-04-10T13:44:20.057Z</time></trkpt><trkpt lat="44.5864401" lon="10.3560531"><ele>332.0</ele><time>2026-04-10T13:44:21.057Z</time></trkpt><trkpt lat="44.5863458" lon="10.3559584"><ele>332.0</ele><time>2026-04-10T13:44:22.056Z</time></trkpt><trkpt lat="44.5862579" lon="10.3558875"><ele>332.0</ele><time>2026-04-10T13:44:23.057Z</time></trkpt><trkpt lat="44.5861734" lon="10.3558605"><ele>332.0</ele><time>2026-04-10T13:44:24.057Z</time></trkpt><trkpt lat="44.5861134" lon="10.3557214"><ele>332.0</ele><time>2026-04-10T13:44:26.057Z</time></trkpt><trkpt lat="44.5861014" lon="10.3555778"><ele>332.0</ele><time>2026-04-10T13:44:28.057Z</time></trkpt><trkpt lat="44.5860686" lon="10.3554452"><ele>332.5</ele><time>2026-04-10T13:44:30.057Z</time></trkpt><trkpt lat="44.5860268" lon="10.3553779"><ele>333.0</ele><time>2026-04-10T13:44:31.057Z</time></trkpt><trkpt lat="44.5859634" lon="10.3553063"><ele>333.5</ele><time>2026-04-10T13:44:32.057Z</time></trkpt><trkpt lat="44.5858885" lon="10.3552344"><ele>334.0</ele><time>2026-04-10T13:44:33.057Z</time></trkpt><trkpt lat="44.585814" lon="10.3551643"><ele>334.5</ele><time>2026-04-10T13:44:34.057Z</time></trkpt><trkpt lat="44.5857669" lon="10.3550898"><ele>335.0</ele><time>2026-04-10T13:44:35.057Z</time></trkpt><trkpt lat="44.5857234" lon="10.3550123"><ele>335.0</ele><time>2026-04-10T13:44:36.056Z</time></trkpt><trkpt lat="44.585681" lon="10.3549278"><ele>335.0</ele><time>2026-04-10T13:44:37.057Z</time></trkpt><trkpt lat="44.5856359" lon="10.3548469"><ele>335.0</ele><time>2026-04-10T13:44:38.057Z</time></trkpt><trkpt lat="44.585546" lon="10.3547206"><ele>335.0</ele><time>2026-04-10T13:44:40.057Z</time></trkpt><trkpt lat="44.5854667" lon="10.3546436"><ele>335.0</ele><time>2026-04-10T13:44:42.057Z</time></trkpt><trkpt lat="44.5853842" lon="10.3546057"><ele>335.6666666666667</ele><time>2026-04-10T13:44:44.057Z</time></trkpt><trkpt lat="44.5852742" lon="10.3546013"><ele>336.33333333333337</ele><time>2026-04-10T13:44:46.057Z</time></trkpt><trkpt lat="44.5852054" lon="10.3546082"><ele>337.0</ele><time>2026-04-10T13:44:47.056Z</time></trkpt><trkpt lat="44.5851394" lon="10.3546249"><ele>337.6666666666667</ele><time>2026-04-10T13:44:48.056Z</time></trkpt><trkpt lat="44.5850768" lon="10.3546454"><ele>338.3333333333333</ele><time>2026-04-10T13:44:49.057Z</time></trkpt><trkpt lat="44.5849993" lon="10.3547314"><ele>339.0</ele><time>2026-04-10T13:44:51.057Z</time></trkpt><trkpt lat="44.5849308" lon="10.3548868"><ele>340.0</ele><time>2026-04-10T13:44:53.057Z</time></trkpt><trkpt lat="44.5848715" lon="10.3550106"><ele>341.0</ele><time>2026-04-10T13:44:54.057Z</time></trkpt><trkpt lat="44.5848059" lon="10.3551295"><ele>342.0</ele><time>2026-04-10T13:44:55.056Z</time></trkpt><trkpt lat="44.5847461" lon="10.3552436"><ele>343.0</ele><time>2026-04-10T13:44:56.057Z</time></trkpt><trkpt lat="44.5846891" lon="10.3553434"><ele>344.0</ele><time>2026-04-10T13:44:57.058Z</time></trkpt><trkpt lat="44.584632" lon="10.3554407"><ele>344.79999999999995</ele><time>2026-04-10T13:44:58.057Z</time></trkpt><trkpt lat="44.5845731" lon="10.3555487"><ele>345.59999999999997</ele><time>2026-04-10T13:44:59.057Z</time></trkpt><trkpt lat="44.5845134" lon="10.3556606"><ele>346.4</ele><time>2026-04-10T13:45:00.057Z</time></trkpt><trkpt lat="44.5844577" lon="10.3557696"><ele>347.2</ele><time>2026-04-10T13:45:01.056Z</time></trkpt><trkpt lat="44.5843975" lon="10.3558906"><ele>348.0</ele><time>2026-04-10T13:45:02.056Z</time></trkpt><trkpt lat="44.5843441" lon="10.3559936"><ele>348.0</ele><time>2026-04-10T13:45:03.057Z</time></trkpt><trkpt lat="44.5842949" lon="10.3560864"><ele>348.0</ele><time>2026-04-10T13:45:04.057Z</time></trkpt><trkpt lat="44.5842459" lon="10.3561522"><ele>348.0</ele><time>2026-04-10T13:45:05.057Z</time></trkpt><trkpt lat="44.5841445" lon="10.3561812"><ele>348.0</ele><time>2026-04-10T13:45:07.056Z</time></trkpt><trkpt lat="44.5840363" lon="10.3561447"><ele>348.0</ele><time>2026-04-10T13:45:09.056Z</time></trkpt><trkpt lat="44.5839227" lon="10.3561275"><ele>348.0</ele><time>2026-04-10T13:45:11.057Z</time></trkpt><trkpt lat="44.5838521" lon="10.3561222"><ele>348.0</ele><time>2026-04-10T13:45:12.057Z</time></trkpt><trkpt lat="44.5837556" lon="10.3560999"><ele>348.0</ele><time>2026-04-10T13:45:14.057Z</time></trkpt><trkpt lat="44.5836387" lon="10.3560303"><ele>348.0</ele><time>2026-04-10T13:45:17.057Z</time></trkpt><trkpt lat="44.583478" lon="10.355965"><ele>349.0</ele><time>2026-04-10T13:45:19.057Z</time></trkpt><trkpt lat="44.583404" lon="10.3559429"><ele>350.0</ele><time>2026-04-10T13:45:20.057Z</time></trkpt><trkpt lat="44.5833331" lon="10.3559318"><ele>351.0</ele><time>2026-04-10T13:45:21.057Z</time></trkpt><trkpt lat="44.5832567" lon="10.3559276"><ele>352.0</ele><time>2026-04-10T13:45:22.057Z</time></trkpt><trkpt lat="44.5831262" lon="10.3559203"><ele>353.0</ele><time>2026-04-10T13:45:24.056Z</time></trkpt><trkpt lat="44.5830149" lon="10.3559143"><ele>353.0</ele><time>2026-04-10T13:45:26.057Z</time></trkpt><trkpt lat="44.582891" lon="10.3559131"><ele>353.0</ele><time>2026-04-10T13:45:28.056Z</time></trkpt><trkpt lat="44.5827678" lon="10.3559122"><ele>353.0</ele><time>2026-04-10T13:45:30.057Z</time></trkpt><trkpt lat="44.5826988" lon="10.355911"><ele>353.0</ele><time>2026-04-10T13:45:31.056Z</time></trkpt><trkpt lat="44.5826181" lon="10.3559106"><ele>353.0</ele><time>2026-04-10T13:45:32.057Z</time></trkpt><trkpt lat="44.5825361" lon="10.3559003"><ele>353.83333333333337</ele><time>2026-04-10T13:45:33.057Z</time></trkpt><trkpt lat="44.5824682" lon="10.3558767"><ele>354.6666666666667</ele><time>2026-04-10T13:45:34.057Z</time></trkpt><trkpt lat="44.5823608" lon="10.3558309"><ele>355.5</ele><time>2026-04-10T13:45:36.056Z</time></trkpt><trkpt lat="44.5822451" lon="10.3557787"><ele>356.3333333333333</ele><time>2026-04-10T13:45:38.057Z</time></trkpt><trkpt lat="44.5821765" lon="10.3557523"><ele>357.16666666666663</ele><time>2026-04-10T13:45:39.057Z</time></trkpt><trkpt lat="44.5821047" lon="10.3557272"><ele>358.0</ele><time>2026-04-10T13:45:40.057Z</time></trkpt><trkpt lat="44.5820343" lon="10.3557095"><ele>358.8333333333333</ele><time>2026-04-10T13:45:41.056Z</time></trkpt><trkpt lat="44.5819535" lon="10.3556921"><ele>359.66666666666663</ele><time>2026-04-10T13:45:42.057Z</time></trkpt><trkpt lat="44.5818867" lon="10.3556772"><ele>360.5</ele><time>2026-04-10T13:45:43.057Z</time></trkpt><trkpt lat="44.5818065" lon="10.3556538"><ele>361.3333333333333</ele><time>2026-04-10T13:45:44.057Z</time></trkpt><trkpt lat="44.5817266" lon="10.3556362"><ele>362.1666666666667</ele><time>2026-04-10T13:45:45.056Z</time></trkpt><trkpt lat="44.581638" lon="10.3556286"><ele>363.0</ele><time>2026-04-10T13:45:46.057Z</time></trkpt><trkpt lat="44.5815573" lon="10.3556268"><ele>363.0</ele><time>2026-04-10T13:45:47.057Z</time></trkpt><trkpt lat="44.5814823" lon="10.3556307"><ele>363.0</ele><time>2026-04-10T13:45:48.057Z</time></trkpt><trkpt lat="44.5813947" lon="10.3556385"><ele>363.0</ele><time>2026-04-10T13:45:49.057Z</time></trkpt><trkpt lat="44.5813038" lon="10.3556471"><ele>363.0</ele><time>2026-04-10T13:45:50.057Z</time></trkpt><trkpt lat="44.5812095" lon="10.3556534"><ele>363.0</ele><time>2026-04-10T13:45:51.057Z</time></trkpt><trkpt lat="44.5811132" lon="10.3556647"><ele>363.0</ele><time>2026-04-10T13:45:52.057Z</time></trkpt><trkpt lat="44.5810187" lon="10.3556746"><ele>364.4</ele><time>2026-04-10T13:45:53.057Z</time></trkpt><trkpt lat="44.5809328" lon="10.3556887"><ele>365.79999999999995</ele><time>2026-04-10T13:45:54.057Z</time></trkpt><trkpt lat="44.5808421" lon="10.3557023"><ele>367.2</ele><time>2026-04-10T13:45:55.056Z</time></trkpt><trkpt lat="44.580745" lon="10.3557151"><ele>368.6</ele><time>2026-04-10T13:45:56.057Z</time></trkpt><trkpt lat="44.5806745" lon="10.3557034"><ele>370.0</ele><time>2026-04-10T13:45:57.057Z</time></trkpt><trkpt lat="44.5805577" lon="10.3556799"><ele>370.0</ele><time>2026-04-10T13:45:59.058Z</time></trkpt><trkpt lat="44.5804736" lon="10.3557247"><ele>370.0</ele><time>2026-04-10T13:46:01.057Z</time></trkpt><trkpt lat="44.5803624" lon="10.3558184"><ele>370.0</ele><time>2026-04-10T13:46:03.057Z</time></trkpt><trkpt lat="44.5803076" lon="10.3558757"><ele>370.0</ele><time>2026-04-10T13:46:04.057Z</time></trkpt><trkpt lat="44.5802561" lon="10.3559325"><ele>370.0</ele><time>2026-04-10T13:46:05.057Z</time></trkpt><trkpt lat="44.5801701" lon="10.356068"><ele>370.0</ele><time>2026-04-10T13:46:07.056Z</time></trkpt><trkpt lat="44.5801149" lon="10.3561584"><ele>370.0</ele><time>2026-04-10T13:46:08.057Z</time></trkpt><trkpt lat="44.5800451" lon="10.356256"><ele>370.0</ele><time>2026-04-10T13:46:09.057Z</time></trkpt><trkpt lat="44.5799767" lon="10.3563455"><ele>370.0</ele><time>2026-04-10T13:46:10.057Z</time></trkpt><trkpt lat="44.5799294" lon="10.356414"><ele>370.0</ele><time>2026-04-10T13:46:11.057Z</time></trkpt><trkpt lat="44.5798949" lon="10.3565711"><ele>371.0</ele><time>2026-04-10T13:46:13.057Z</time></trkpt><trkpt lat="44.57991" lon="10.356668"><ele>372.0</ele><time>2026-04-10T13:46:14.057Z</time></trkpt><trkpt lat="44.5799431" lon="10.3567923"><ele>373.0</ele><time>2026-04-10T13:46:15.056Z</time></trkpt><trkpt lat="44.579975" lon="10.3569246"><ele>374.0</ele><time>2026-04-10T13:46:16.057Z</time></trkpt><trkpt lat="44.5799916" lon="10.3570314"><ele>375.0</ele><time>2026-04-10T13:46:17.057Z</time></trkpt><trkpt lat="44.5800043" lon="10.3571274"><ele>376.0</ele><time>2026-04-10T13:46:18.057Z</time></trkpt><trkpt lat="44.5800104" lon="10.3572329"><ele>376.4</ele><time>2026-04-10T13:46:19.056Z</time></trkpt><trkpt lat="44.5800342" lon="10.3573679"><ele>376.8</ele><time>2026-04-10T13:46:20.056Z</time></trkpt><trkpt lat="44.5800651" lon="10.3575266"><ele>377.2</ele><time>2026-04-10T13:46:21.056Z</time></trkpt><trkpt lat="44.5800887" lon="10.3576533"><ele>377.59999999999997</ele><time>2026-04-10T13:46:22.057Z</time></trkpt><trkpt lat="44.5801007" lon="10.3577619"><ele>378.0</ele><time>2026-04-10T13:46:23.057Z</time></trkpt><trkpt lat="44.5801059" lon="10.357855"><ele>378.0</ele><time>2026-04-10T13:46:24.057Z</time></trkpt><trkpt lat="44.5800698" lon="10.3580177"><ele>378.0</ele><time>2026-04-10T13:46:26.057Z</time></trkpt><trkpt lat="44.5800137" lon="10.3581476"><ele>378.0</ele><time>2026-04-10T13:46:28.057Z</time></trkpt><trkpt lat="44.5799358" lon="10.3582801"><ele>378.0</ele><time>2026-04-10T13:46:30.057Z</time></trkpt><trkpt lat="44.5798639" lon="10.3584119"><ele>379.0</ele><time>2026-04-10T13:46:32.056Z</time></trkpt><trkpt lat="44.5797967" lon="10.3585623"><ele>380.0</ele><time>2026-04-10T13:46:34.056Z</time></trkpt><trkpt lat="44.5797633" lon="10.3586512"><ele>381.0</ele><time>2026-04-10T13:46:35.057Z</time></trkpt><trkpt lat="44.5797289" lon="10.3587442"><ele>382.0</ele><time>2026-04-10T13:46:36.057Z</time></trkpt><trkpt lat="44.5796515" lon="10.3588427"><ele>383.0</ele><time>2026-04-10T13:46:38.057Z</time></trkpt><trkpt lat="44.5795301" lon="10.3589036"><ele>384.33333333333337</ele><time>2026-04-10T13:46:40.056Z</time></trkpt><trkpt lat="44.5794618" lon="10.3589193"><ele>385.6666666666667</ele><time>2026-04-10T13:46:41.056Z</time></trkpt><trkpt lat="44.5793856" lon="10.3589228"><ele>387.0</ele><time>2026-04-10T13:46:42.056Z</time></trkpt><trkpt lat="44.5793187" lon="10.3589456"><ele>388.33333333333337</ele><time>2026-04-10T13:46:43.057Z</time></trkpt><trkpt lat="44.5792469" lon="10.3589589"><ele>389.6666666666667</ele><time>2026-04-10T13:46:44.057Z</time></trkpt><trkpt lat="44.5791694" lon="10.3589944"><ele>391.0</ele><time>2026-04-10T13:46:45.056Z</time></trkpt><trkpt lat="44.5790846" lon="10.3590774"><ele>391.00000000000006</ele><time>2026-04-10T13:46:46.056Z</time></trkpt><trkpt lat="44.5789968" lon="10.359142"><ele>391.0</ele><time>2026-04-10T13:46:47.056Z</time></trkpt><trkpt lat="44.5789459" lon="10.3591999"><ele>391.0</ele><time>2026-04-10T13:46:48.057Z</time></trkpt><trkpt lat="44.5788993" lon="10.3592979"><ele>391.0</ele><time>2026-04-10T13:46:49.057Z</time></trkpt><trkpt lat="44.5788517" lon="10.3593721"><ele>391.00000000000006</ele><time>2026-04-10T13:46:50.057Z</time></trkpt><trkpt lat="44.5788017" lon="10.359453"><ele>391.0</ele><time>2026-04-10T13:46:51.057Z</time></trkpt><trkpt lat="44.5787442" lon="10.3595297"><ele>390.8</ele><time>2026-04-10T13:46:52.057Z</time></trkpt><trkpt lat="44.5786322" lon="10.359589"><ele>390.6</ele><time>2026-04-10T13:46:54.058Z</time></trkpt><trkpt lat="44.5785611" lon="10.3595647"><ele>390.4</ele><time>2026-04-10T13:46:55.057Z</time></trkpt><trkpt lat="44.5784597" lon="10.3595284"><ele>390.2</ele><time>2026-04-10T13:46:57.057Z</time></trkpt><trkpt lat="44.5783503" lon="10.3594907"><ele>390.0</ele><time>2026-04-10T13:46:59.057Z</time></trkpt><trkpt lat="44.5782759" lon="10.3594589"><ele>390.0</ele><time>2026-04-10T13:47:00.057Z</time></trkpt><trkpt lat="44.5782013" lon="10.3594588"><ele>390.0</ele><time>2026-04-10T13:47:01.057Z</time></trkpt><trkpt lat="44.5781277" lon="10.3594563"><ele>390.0</ele><time>2026-04-10T13:47:02.057Z</time></trkpt><trkpt lat="44.5780361" lon="10.3594621"><ele>390.0</ele><time>2026-04-10T13:47:03.057Z</time></trkpt><trkpt lat="44.5779532" lon="10.359465"><ele>390.0</ele><time>2026-04-10T13:47:04.057Z</time></trkpt><trkpt lat="44.5778827" lon="10.359463"><ele>390.0</ele><time>2026-04-10T13:47:05.057Z</time></trkpt><trkpt lat="44.5778142" lon="10.3594448"><ele>389.6666666666667</ele><time>2026-04-10T13:47:06.057Z</time></trkpt><trkpt lat="44.5777463" lon="10.3594179"><ele>389.33333333333337</ele><time>2026-04-10T13:47:07.057Z</time></trkpt><trkpt lat="44.577678" lon="10.3593939"><ele>389.0</ele><time>2026-04-10T13:47:08.057Z</time></trkpt><trkpt lat="44.577607" lon="10.3593597"><ele>388.6666666666667</ele><time>2026-04-10T13:47:09.057Z</time></trkpt><trkpt lat="44.5775415" lon="10.359322"><ele>388.33333333333337</ele><time>2026-04-10T13:47:10.057Z</time></trkpt><trkpt lat="44.5774456" lon="10.3592634"><ele>388.0</ele><time>2026-04-10T13:47:12.057Z</time></trkpt><trkpt lat="44.5773717" lon="10.3592302"><ele>388.00000000000006</ele><time>2026-04-10T13:47:14.056Z</time></trkpt><trkpt lat="44.5772955" lon="10.359246"><ele>388.0</ele><time>2026-04-10T13:47:16.057Z</time></trkpt><trkpt lat="44.5771999" lon="10.3592778"><ele>388.0</ele><time>2026-04-10T13:47:18.056Z</time></trkpt><trkpt lat="44.5771063" lon="10.35927"><ele>388.0</ele><time>2026-04-10T13:47:19.056Z</time></trkpt><trkpt lat="44.5770328" lon="10.3592412"><ele>388.00000000000006</ele><time>2026-04-10T13:47:20.055Z</time></trkpt><trkpt lat="44.5769831" lon="10.3591818"><ele>388.0</ele><time>2026-04-10T13:47:21.055Z</time></trkpt><trkpt lat="44.576933" lon="10.3591166"><ele>388.1666666666667</ele><time>2026-04-10T13:47:22.055Z</time></trkpt><trkpt lat="44.5768812" lon="10.3590367"><ele>388.33333333333337</ele><time>2026-04-10T13:47:23.055Z</time></trkpt><trkpt lat="44.5768321" lon="10.3589791"><ele>388.5</ele><time>2026-04-10T13:47:24.056Z</time></trkpt><trkpt lat="44.576786" lon="10.3589181"><ele>388.66666666666663</ele><time>2026-04-10T13:47:25.056Z</time></trkpt><trkpt lat="44.5767331" lon="10.3588554"><ele>388.8333333333333</ele><time>2026-04-10T13:47:26.056Z</time></trkpt><trkpt lat="44.5766569" lon="10.3587433"><ele>389.0</ele><time>2026-04-10T13:47:28.056Z</time></trkpt><trkpt lat="44.5764932" lon="10.3587264"><ele>389.0</ele><time>2026-04-10T13:47:30.055Z</time></trkpt><trkpt lat="44.5764195" lon="10.3586957"><ele>389.0</ele><time>2026-04-10T13:47:31.056Z</time></trkpt><trkpt lat="44.5763645" lon="10.3586313"><ele>389.0</ele><time>2026-04-10T13:47:32.056Z</time></trkpt><trkpt lat="44.5762961" lon="10.3585969"><ele>389.0</ele><time>2026-04-10T13:47:33.055Z</time></trkpt><trkpt lat="44.576228" lon="10.3585558"><ele>389.0</ele><time>2026-04-10T13:47:34.055Z</time></trkpt><trkpt lat="44.5761538" lon="10.3585177"><ele>389.0</ele><time>2026-04-10T13:47:35.056Z</time></trkpt><trkpt lat="44.5760898" lon="10.3584924"><ele>389.0</ele><time>2026-04-10T13:47:36.057Z</time></trkpt><trkpt lat="44.5759949" lon="10.3585125"><ele>390.3333333333333</ele><time>2026-04-10T13:47:38.055Z</time></trkpt><trkpt lat="44.5759419" lon="10.3586236"><ele>391.66666666666663</ele><time>2026-04-10T13:47:40.055Z</time></trkpt><trkpt lat="44.5759165" lon="10.3587633"><ele>393.0</ele><time>2026-04-10T13:47:42.056Z</time></trkpt><trkpt lat="44.5759029" lon="10.3588561"><ele>394.33333333333337</ele><time>2026-04-10T13:47:43.056Z</time></trkpt><trkpt lat="44.5758853" lon="10.3589634"><ele>395.6666666666667</ele><time>2026-04-10T13:47:44.056Z</time></trkpt><trkpt lat="44.5758668" lon="10.3590702"><ele>397.0</ele><time>2026-04-10T13:47:45.056Z</time></trkpt><trkpt lat="44.5758468" lon="10.3592344"><ele>398.6666666666667</ele><time>2026-04-10T13:47:47.055Z</time></trkpt><trkpt lat="44.5758353" lon="10.3593252"><ele>400.33333333333337</ele><time>2026-04-10T13:47:48.056Z</time></trkpt><trkpt lat="44.5758227" lon="10.3594297"><ele>402.0</ele><time>2026-04-10T13:47:49.056Z</time></trkpt><trkpt lat="44.5757946" lon="10.3596129"><ele>403.66666666666663</ele><time>2026-04-10T13:47:51.056Z</time></trkpt><trkpt lat="44.5757842" lon="10.3597243"><ele>405.3333333333333</ele><time>2026-04-10T13:47:52.055Z</time></trkpt><trkpt lat="44.5757871" lon="10.3598457"><ele>407.0</ele><time>2026-04-10T13:47:53.056Z</time></trkpt><trkpt lat="44.5757859" lon="10.3599775"><ele>408.3333333333333</ele><time>2026-04-10T13:47:54.056Z</time></trkpt><trkpt lat="44.575787" lon="10.3600798"><ele>409.66666666666663</ele><time>2026-04-10T13:47:55.056Z</time></trkpt><trkpt lat="44.5757847" lon="10.3601791"><ele>411.0</ele><time>2026-04-10T13:47:56.056Z</time></trkpt><trkpt lat="44.5757935" lon="10.3602908"><ele>412.33333333333337</ele><time>2026-04-10T13:47:57.056Z</time></trkpt><trkpt lat="44.5757897" lon="10.360405"><ele>413.6666666666667</ele><time>2026-04-10T13:47:58.056Z</time></trkpt><trkpt lat="44.5757761" lon="10.3605105"><ele>415.0</ele><time>2026-04-10T13:47:59.056Z</time></trkpt><trkpt lat="44.5757485" lon="10.3605979"><ele>416.6666666666667</ele><time>2026-04-10T13:48:00.056Z</time></trkpt><trkpt lat="44.575714" lon="10.360681"><ele>418.33333333333337</ele><time>2026-04-10T13:48:01.056Z</time></trkpt><trkpt lat="44.5756621" lon="10.3607644"><ele>420.0</ele><time>2026-04-10T13:48:02.056Z</time></trkpt><trkpt lat="44.5755953" lon="10.3608453"><ele>421.66666666666663</ele><time>2026-04-10T13:48:03.056Z</time></trkpt><trkpt lat="44.575526" lon="10.3609339"><ele>423.3333333333333</ele><time>2026-04-10T13:48:04.055Z</time></trkpt><trkpt lat="44.5754466" lon="10.3610129"><ele>425.0</ele><time>2026-04-10T13:48:05.055Z</time></trkpt><trkpt lat="44.5753855" lon="10.3610927"><ele>425.49999999999994</ele><time>2026-04-10T13:48:06.056Z</time></trkpt><trkpt lat="44.5753307" lon="10.3611928"><ele>426.0</ele><time>2026-04-10T13:48:07.056Z</time></trkpt><trkpt lat="44.5752909" lon="10.361282"><ele>426.5</ele><time>2026-04-10T13:48:08.056Z</time></trkpt><trkpt lat="44.5752613" lon="10.3613706"><ele>427.0</ele><time>2026-04-10T13:48:09.056Z</time></trkpt><trkpt lat="44.5752249" lon="10.3614625"><ele>427.49999999999994</ele><time>2026-04-10T13:48:10.056Z</time></trkpt><trkpt lat="44.5751839" lon="10.3615482"><ele>428.0</ele><time>2026-04-10T13:48:11.056Z</time></trkpt><trkpt lat="44.5751421" lon="10.3616399"><ele>428.8333333333333</ele><time>2026-04-10T13:48:12.056Z</time></trkpt><trkpt lat="44.5750997" lon="10.3617408"><ele>429.66666666666663</ele><time>2026-04-10T13:48:13.056Z</time></trkpt><trkpt lat="44.5750642" lon="10.3618475"><ele>430.5</ele><time>2026-04-10T13:48:14.056Z</time></trkpt><trkpt lat="44.5750423" lon="10.3619335"><ele>431.33333333333337</ele><time>2026-04-10T13:48:15.055Z</time></trkpt><trkpt lat="44.5750234" lon="10.3620217"><ele>432.1666666666667</ele><time>2026-04-10T13:48:17.056Z</time></trkpt><trkpt lat="44.5749725" lon="10.3621456"><ele>433.0</ele><time>2026-04-10T13:48:23.056Z</time></trkpt><trkpt lat="44.574937" lon="10.3622218"><ele>434.25</ele><time>2026-04-10T13:48:24.056Z</time></trkpt><trkpt lat="44.574891" lon="10.3623318"><ele>435.5</ele><time>2026-04-10T13:48:25.056Z</time></trkpt><trkpt lat="44.5748258" lon="10.362477"><ele>436.75</ele><time>2026-04-10T13:48:26.055Z</time></trkpt><trkpt lat="44.5747551" lon="10.3626217"><ele>438.0</ele><time>2026-04-10T13:48:27.056Z</time></trkpt><trkpt lat="44.5746866" lon="10.3627453"><ele>438.0</ele><time>2026-04-10T13:48:28.057Z</time></trkpt><trkpt lat="44.5746165" lon="10.3628511"><ele>438.0</ele><time>2026-04-10T13:48:29.056Z</time></trkpt><trkpt lat="44.5745844" lon="10.3629373"><ele>438.0</ele><time>2026-04-10T13:48:30.056Z</time></trkpt><trkpt lat="44.5745357" lon="10.3630117"><ele>438.0</ele><time>2026-04-10T13:48:31.056Z</time></trkpt><trkpt lat="44.5744965" lon="10.3630874"><ele>438.0</ele><time>2026-04-10T13:48:32.055Z</time></trkpt><trkpt lat="44.5744468" lon="10.3631668"><ele>438.0</ele><time>2026-04-10T13:48:33.056Z</time></trkpt><trkpt lat="44.5743781" lon="10.3632341"><ele>439.79999999999995</ele><time>2026-04-10T13:48:34.056Z</time></trkpt><trkpt lat="44.5743022" lon="10.3633519"><ele>441.59999999999997</ele><time>2026-04-10T13:48:36.056Z</time></trkpt><trkpt lat="44.57427" lon="10.3634709"><ele>443.40000000000003</ele><time>2026-04-10T13:48:38.055Z</time></trkpt><trkpt lat="44.5743193" lon="10.3636107"><ele>445.20000000000005</ele><time>2026-04-10T13:48:40.056Z</time></trkpt><trkpt lat="44.5743408" lon="10.3637487"><ele>447.0</ele><time>2026-04-10T13:48:42.056Z</time></trkpt><trkpt lat="44.5742919" lon="10.363854"><ele>449.1666666666667</ele><time>2026-04-10T13:48:44.056Z</time></trkpt><trkpt lat="44.5742354" lon="10.3639011"><ele>451.33333333333337</ele><time>2026-04-10T13:48:45.056Z</time></trkpt><trkpt lat="44.5741726" lon="10.363962"><ele>453.5</ele><time>2026-04-10T13:48:46.055Z</time></trkpt><trkpt lat="44.574111" lon="10.36404"><ele>455.6666666666667</ele><time>2026-04-10T13:48:47.056Z</time></trkpt><trkpt lat="44.5740521" lon="10.3641101"><ele>457.83333333333337</ele><time>2026-04-10T13:48:48.056Z</time></trkpt><trkpt lat="44.5739886" lon="10.3641838"><ele>460.0</ele><time>2026-04-10T13:48:49.056Z</time></trkpt><trkpt lat="44.5739314" lon="10.3642547"><ele>460.00000000000006</ele><time>2026-04-10T13:48:50.056Z</time></trkpt><trkpt lat="44.5738707" lon="10.3643403"><ele>460.0</ele><time>2026-04-10T13:48:51.056Z</time></trkpt><trkpt lat="44.573814" lon="10.364428"><ele>460.0</ele><time>2026-04-10T13:48:52.056Z</time></trkpt><trkpt lat="44.5737744" lon="10.3645225"><ele>460.0</ele><time>2026-04-10T13:48:53.056Z</time></trkpt><trkpt lat="44.5737456" lon="10.3646268"><ele>460.00000000000006</ele><time>2026-04-10T13:48:54.056Z</time></trkpt><trkpt lat="44.5737219" lon="10.3647461"><ele>460.0</ele><time>2026-04-10T13:48:55.056Z</time></trkpt><trkpt lat="44.5736963" lon="10.3648777"><ele>462.8</ele><time>2026-04-10T13:48:56.055Z</time></trkpt><trkpt lat="44.5736667" lon="10.3650248"><ele>465.6</ele><time>2026-04-10T13:48:57.056Z</time></trkpt><trkpt lat="44.5736345" lon="10.3651754"><ele>468.4</ele><time>2026-04-10T13:48:58.056Z</time></trkpt><trkpt lat="44.5736158" lon="10.3652937"><ele>471.2</ele><time>2026-04-10T13:48:59.056Z</time></trkpt><trkpt lat="44.5735985" lon="10.3653989"><ele>474.0</ele><time>2026-04-10T13:49:00.056Z</time></trkpt><trkpt lat="44.5735653" lon="10.3654988"><ele>475.79999999999995</ele><time>2026-04-10T13:49:01.055Z</time></trkpt><trkpt lat="44.573489" lon="10.3655973"><ele>477.59999999999997</ele><time>2026-04-10T13:49:02.056Z</time></trkpt><trkpt lat="44.5734293" lon="10.3657066"><ele>479.4</ele><time>2026-04-10T13:49:03.056Z</time></trkpt><trkpt lat="44.5733633" lon="10.3658034"><ele>481.2</ele><time>2026-04-10T13:49:04.056Z</time></trkpt><trkpt lat="44.5733002" lon="10.3659045"><ele>483.0</ele><time>2026-04-10T13:49:05.056Z</time></trkpt><trkpt lat="44.5732413" lon="10.3659961"><ele>483.0</ele><time>2026-04-10T13:49:06.055Z</time></trkpt><trkpt lat="44.5731813" lon="10.3661023"><ele>482.99999999999994</ele><time>2026-04-10T13:49:07.055Z</time></trkpt><trkpt lat="44.5731195" lon="10.3662287"><ele>482.99999999999994</ele><time>2026-04-10T13:49:08.055Z</time></trkpt><trkpt lat="44.573077" lon="10.3663422"><ele>483.0</ele><time>2026-04-10T13:49:09.056Z</time></trkpt><trkpt lat="44.5730426" lon="10.3664477"><ele>483.0</ele><time>2026-04-10T13:49:10.056Z</time></trkpt><trkpt lat="44.5730051" lon="10.3665487"><ele>483.5</ele><time>2026-04-10T13:49:11.056Z</time></trkpt><trkpt lat="44.5729648" lon="10.3666272"><ele>484.0</ele><time>2026-04-10T13:49:12.056Z</time></trkpt><trkpt lat="44.5728672" lon="10.3666973"><ele>484.5</ele><time>2026-04-10T13:49:14.056Z</time></trkpt><trkpt lat="44.5727957" lon="10.3666935"><ele>485.0</ele><time>2026-04-10T13:49:15.056Z</time></trkpt><trkpt lat="44.5727108" lon="10.3666787"><ele>485.5</ele><time>2026-04-10T13:49:16.055Z</time></trkpt><trkpt lat="44.5726281" lon="10.3666822"><ele>486.0</ele><time>2026-04-10T13:49:17.056Z</time></trkpt><trkpt lat="44.5725567" lon="10.3667118"><ele>486.0</ele><time>2026-04-10T13:49:18.056Z</time></trkpt><trkpt lat="44.5725026" lon="10.3668466"><ele>486.0</ele><time>2026-04-10T13:49:19.056Z</time></trkpt><trkpt lat="44.5724625" lon="10.3669758"><ele>486.0</ele><time>2026-04-10T13:49:20.056Z</time></trkpt><trkpt lat="44.572428" lon="10.3671349"><ele>486.0</ele><time>2026-04-10T13:49:21.056Z</time></trkpt><trkpt lat="44.5723899" lon="10.367302"><ele>485.25</ele><time>2026-04-10T13:49:22.056Z</time></trkpt><trkpt lat="44.5723514" lon="10.3674838"><ele>484.5</ele><time>2026-04-10T13:49:23.056Z</time></trkpt><trkpt lat="44.5723119" lon="10.3676702"><ele>483.75</ele><time>2026-04-10T13:49:24.056Z</time></trkpt><trkpt lat="44.5722743" lon="10.3678499"><ele>483.0</ele><time>2026-04-10T13:49:25.056Z</time></trkpt><trkpt lat="44.5722344" lon="10.3680165"><ele>482.0</ele><time>2026-04-10T13:49:26.056Z</time></trkpt><trkpt lat="44.5721774" lon="10.3681846"><ele>481.0</ele><time>2026-04-10T13:49:27.056Z</time></trkpt><trkpt lat="44.5721076" lon="10.3683524"><ele>480.0</ele><time>2026-04-10T13:49:28.055Z</time></trkpt><trkpt lat="44.5720409" lon="10.3685095"><ele>479.0</ele><time>2026-04-10T13:49:29.055Z</time></trkpt><trkpt lat="44.5719766" lon="10.3686567"><ele>478.25</ele><time>2026-04-10T13:49:30.055Z</time></trkpt><trkpt lat="44.5719106" lon="10.3688067"><ele>477.5</ele><time>2026-04-10T13:49:31.056Z</time></trkpt><trkpt lat="44.5718506" lon="10.3689517"><ele>476.75</ele><time>2026-04-10T13:49:32.056Z</time></trkpt><trkpt lat="44.5717961" lon="10.3690898"><ele>476.0</ele><time>2026-04-10T13:49:33.056Z</time></trkpt><trkpt lat="44.5717394" lon="10.3692175"><ele>475.99999999999994</ele><time>2026-04-10T13:49:34.056Z</time></trkpt><trkpt lat="44.5716904" lon="10.369332"><ele>476.0</ele><time>2026-04-10T13:49:35.056Z</time></trkpt><trkpt lat="44.5716434" lon="10.3694298"><ele>476.0</ele><time>2026-04-10T13:49:36.056Z</time></trkpt><trkpt lat="44.571607" lon="10.3695217"><ele>476.0</ele><time>2026-04-10T13:49:37.056Z</time></trkpt><trkpt lat="44.5715786" lon="10.3696051"><ele>475.99999999999994</ele><time>2026-04-10T13:49:38.056Z</time></trkpt><trkpt lat="44.5715098" lon="10.3697585"><ele>476.0</ele><time>2026-04-10T13:49:40.056Z</time></trkpt><trkpt lat="44.5714542" lon="10.3698437"><ele>475.99999999999994</ele><time>2026-04-10T13:49:41.055Z</time></trkpt><trkpt lat="44.5713862" lon="10.3699434"><ele>476.0</ele><time>2026-04-10T13:49:42.056Z</time></trkpt><trkpt lat="44.5713187" lon="10.3700301"><ele>476.0</ele><time>2026-04-10T13:49:43.056Z</time></trkpt><trkpt lat="44.5712592" lon="10.3701093"><ele>476.0</ele><time>2026-04-10T13:49:44.056Z</time></trkpt><trkpt lat="44.5711962" lon="10.3701828"><ele>475.99999999999994</ele><time>2026-04-10T13:49:45.056Z</time></trkpt><trkpt lat="44.5711405" lon="10.3702612"><ele>476.0</ele><time>2026-04-10T13:49:46.056Z</time></trkpt><trkpt lat="44.5710902" lon="10.3703237"><ele>476.0</ele><time>2026-04-10T13:49:47.056Z</time></trkpt><trkpt lat="44.57102" lon="10.370388"><ele>476.0</ele><time>2026-04-10T13:49:49.056Z</time></trkpt><trkpt lat="44.5709834" lon="10.3704849"><ele>476.0</ele><time>2026-04-10T14:14:18.053Z</time></trkpt><trkpt lat="44.5709101" lon="10.3706032"><ele>476.0</ele><time>2026-04-10T14:14:20.052Z</time></trkpt><trkpt lat="44.570822" lon="10.3707088"><ele>476.0</ele><time>2026-04-10T14:14:22.053Z</time></trkpt><trkpt lat="44.5707738" lon="10.3707763"><ele>476.4</ele><time>2026-04-10T14:14:23.054Z</time></trkpt><trkpt lat="44.5707179" lon="10.3708279"><ele>476.8</ele><time>2026-04-10T14:14:24.053Z</time></trkpt><trkpt lat="44.5706705" lon="10.3708872"><ele>477.19999999999993</ele><time>2026-04-10T14:14:25.053Z</time></trkpt><trkpt lat="44.5705794" lon="10.3709914"><ele>477.59999999999997</ele><time>2026-04-10T14:14:27.053Z</time></trkpt><trkpt lat="44.5704743" lon="10.3710984"><ele>478.0</ele><time>2026-04-10T14:14:29.053Z</time></trkpt><trkpt lat="44.5703979" lon="10.3711556"><ele>477.2</ele><time>2026-04-10T14:14:30.053Z</time></trkpt><trkpt lat="44.5703166" lon="10.3712039"><ele>476.4</ele><time>2026-04-10T14:14:31.053Z</time></trkpt><trkpt lat="44.5702262" lon="10.3712411"><ele>475.59999999999997</ele><time>2026-04-10T14:14:32.053Z</time></trkpt><trkpt lat="44.5701204" lon="10.3712673"><ele>474.79999999999995</ele><time>2026-04-10T14:14:33.052Z</time></trkpt><trkpt lat="44.5700226" lon="10.3712824"><ele>474.0</ele><time>2026-04-10T14:14:34.052Z</time></trkpt><trkpt lat="44.5699143" lon="10.3712926"><ele>474.0</ele><time>2026-04-10T14:14:35.053Z</time></trkpt><trkpt lat="44.569814" lon="10.3712918"><ele>474.0</ele><time>2026-04-10T14:14:36.053Z</time></trkpt><trkpt lat="44.5697195" lon="10.3712883"><ele>474.0</ele><time>2026-04-10T14:14:37.053Z</time></trkpt><trkpt lat="44.56964" lon="10.37128"><ele>474.0</ele><time>2026-04-10T14:14:38.052Z</time></trkpt><trkpt lat="44.5695689" lon="10.3712708"><ele>474.0</ele><time>2026-04-10T14:14:39.053Z</time></trkpt><trkpt lat="44.5694493" lon="10.3712664"><ele>473.5</ele><time>2026-04-10T14:14:41.053Z</time></trkpt><trkpt lat="44.5693403" lon="10.3712588"><ele>473.0</ele><time>2026-04-10T14:14:43.053Z</time></trkpt><trkpt lat="44.5692352" lon="10.3712596"><ele>472.5</ele><time>2026-04-10T14:14:45.052Z</time></trkpt><trkpt lat="44.569155" lon="10.3712569"><ele>472.0</ele><time>2026-04-10T14:14:46.053Z</time></trkpt><trkpt lat="44.5690898" lon="10.3712612"><ele>471.5</ele><time>2026-04-10T14:14:47.053Z</time></trkpt><trkpt lat="44.5690152" lon="10.3712638"><ele>471.0</ele><time>2026-04-10T14:14:48.053Z</time></trkpt><trkpt lat="44.5689333" lon="10.3712466"><ele>471.0</ele><time>2026-04-10T14:14:49.053Z</time></trkpt><trkpt lat="44.5688395" lon="10.3712288"><ele>471.0</ele><time>2026-04-10T14:14:50.052Z</time></trkpt><trkpt lat="44.5687442" lon="10.3711966"><ele>471.0</ele><time>2026-04-10T14:14:51.051Z</time></trkpt><trkpt lat="44.5686476" lon="10.3711664"><ele>471.0</ele><time>2026-04-10T14:14:52.052Z</time></trkpt><trkpt lat="44.5685728" lon="10.3711227"><ele>471.0</ele><time>2026-04-10T14:14:53.052Z</time></trkpt><trkpt lat="44.5684979" lon="10.3710558"><ele>470.20000000000005</ele><time>2026-04-10T14:14:54.052Z</time></trkpt><trkpt lat="44.5684233" lon="10.3709727"><ele>469.40000000000003</ele><time>2026-04-10T14:14:55.052Z</time></trkpt><trkpt lat="44.5683368" lon="10.3708841"><ele>468.6</ele><time>2026-04-10T14:14:56.052Z</time></trkpt><trkpt lat="44.5682368" lon="10.3707956"><ele>467.8</ele><time>2026-04-10T14:14:57.051Z</time></trkpt><trkpt lat="44.5681278" lon="10.3707189"><ele>467.0</ele><time>2026-04-10T14:14:58.052Z</time></trkpt><trkpt lat="44.5680185" lon="10.3706688"><ele>466.99999999999994</ele><time>2026-04-10T14:14:59.051Z</time></trkpt><trkpt lat="44.5679164" lon="10.3706324"><ele>467.0</ele><time>2026-04-10T14:15:00.052Z</time></trkpt><trkpt lat="44.5678221" lon="10.3706414"><ele>467.0</ele><time>2026-04-10T14:15:01.052Z</time></trkpt><trkpt lat="44.5677345" lon="10.3706736"><ele>467.0</ele><time>2026-04-10T14:15:02.052Z</time></trkpt><trkpt lat="44.5676588" lon="10.3707149"><ele>466.99999999999994</ele><time>2026-04-10T14:15:03.052Z</time></trkpt><trkpt lat="44.5675979" lon="10.3707654"><ele>467.0</ele><time>2026-04-10T14:15:04.052Z</time></trkpt><trkpt lat="44.5675305" lon="10.3707921"><ele>466.20000000000005</ele><time>2026-04-10T14:15:05.052Z</time></trkpt><trkpt lat="44.5674671" lon="10.3707849"><ele>465.40000000000003</ele><time>2026-04-10T14:15:06.051Z</time></trkpt><trkpt lat="44.5673888" lon="10.3707762"><ele>464.59999999999997</ele><time>2026-04-10T14:15:07.052Z</time></trkpt><trkpt lat="44.5673454" lon="10.3706605"><ele>463.79999999999995</ele><time>2026-04-10T14:15:08.052Z</time></trkpt><trkpt lat="44.5672915" lon="10.3705391"><ele>463.0</ele><time>2026-04-10T14:15:09.052Z</time></trkpt><trkpt lat="44.5672435" lon="10.3703895"><ele>463.0</ele><time>2026-04-10T14:15:10.052Z</time></trkpt><trkpt lat="44.5671992" lon="10.3702122"><ele>463.0</ele><time>2026-04-10T14:15:11.052Z</time></trkpt><trkpt lat="44.5671534" lon="10.3700443"><ele>463.0</ele><time>2026-04-10T14:15:12.052Z</time></trkpt><trkpt lat="44.5671203" lon="10.3698985"><ele>463.0</ele><time>2026-04-10T14:15:13.051Z</time></trkpt><trkpt lat="44.5670817" lon="10.3697546"><ele>463.0</ele><time>2026-04-10T14:15:14.051Z</time></trkpt><trkpt lat="44.5670296" lon="10.369641"><ele>463.0</ele><time>2026-04-10T14:15:15.052Z</time></trkpt><trkpt lat="44.5669548" lon="10.3695054"><ele>463.0</ele><time>2026-04-10T14:15:16.052Z</time></trkpt><trkpt lat="44.5668705" lon="10.3693455"><ele>463.0</ele><time>2026-04-10T14:15:17.052Z</time></trkpt><trkpt lat="44.5667925" lon="10.3691727"><ele>463.0</ele><time>2026-04-10T14:15:18.051Z</time></trkpt><trkpt lat="44.5667199" lon="10.3689988"><ele>463.0</ele><time>2026-04-10T14:15:19.052Z</time></trkpt><trkpt lat="44.5666564" lon="10.3688133"><ele>463.0</ele><time>2026-04-10T14:15:20.052Z</time></trkpt><trkpt lat="44.5666039" lon="10.3686245"><ele>463.0</ele><time>2026-04-10T14:15:21.052Z</time></trkpt><trkpt lat="44.5665571" lon="10.368446"><ele>464.75</ele><time>2026-04-10T14:15:22.052Z</time></trkpt><trkpt lat="44.5665112" lon="10.3682694"><ele>466.5</ele><time>2026-04-10T14:15:23.052Z</time></trkpt><trkpt lat="44.5664723" lon="10.3680915"><ele>468.25</ele><time>2026-04-10T14:15:24.053Z</time></trkpt><trkpt lat="44.566421" lon="10.3679236"><ele>470.0</ele><time>2026-04-10T14:15:25.051Z</time></trkpt><trkpt lat="44.5663751" lon="10.3677665"><ele>470.5</ele><time>2026-04-10T14:15:26.052Z</time></trkpt><trkpt lat="44.5663318" lon="10.3676162"><ele>471.0</ele><time>2026-04-10T14:15:27.052Z</time></trkpt><trkpt lat="44.5662792" lon="10.3674779"><ele>471.5</ele><time>2026-04-10T14:15:28.051Z</time></trkpt><trkpt lat="44.566195" lon="10.3673376"><ele>472.0</ele><time>2026-04-10T14:15:29.052Z</time></trkpt><trkpt lat="44.5660939" lon="10.3672288"><ele>472.25</ele><time>2026-04-10T14:15:30.052Z</time></trkpt><trkpt lat="44.5659808" lon="10.3671377"><ele>472.5</ele><time>2026-04-10T14:15:31.051Z</time></trkpt><trkpt lat="44.5658683" lon="10.3670603"><ele>472.75</ele><time>2026-04-10T14:15:32.052Z</time></trkpt><trkpt lat="44.5657507" lon="10.3669854"><ele>473.0</ele><time>2026-04-10T14:15:33.052Z</time></trkpt><trkpt lat="44.5656283" lon="10.3669132"><ele>473.0</ele><time>2026-04-10T14:15:34.052Z</time></trkpt><trkpt lat="44.5655035" lon="10.3668364"><ele>473.0</ele><time>2026-04-10T14:15:35.052Z</time></trkpt><trkpt lat="44.5653696" lon="10.3667644"><ele>473.0</ele><time>2026-04-10T14:15:36.052Z</time></trkpt><trkpt lat="44.5652281" lon="10.366676"><ele>473.0</ele><time>2026-04-10T14:15:37.052Z</time></trkpt><trkpt lat="44.5650792" lon="10.3665817"><ele>473.0</ele><time>2026-04-10T14:15:38.051Z</time></trkpt><trkpt lat="44.5649281" lon="10.3664836"><ele>473.0</ele><time>2026-04-10T14:15:39.052Z</time></trkpt><trkpt lat="44.5647856" lon="10.3663932"><ele>473.0</ele><time>2026-04-10T14:15:40.052Z</time></trkpt><trkpt lat="44.5646448" lon="10.3663087"><ele>474.0</ele><time>2026-04-10T14:15:41.052Z</time></trkpt><trkpt lat="44.5645027" lon="10.3662284"><ele>475.0</ele><time>2026-04-10T14:15:42.052Z</time></trkpt><trkpt lat="44.5643575" lon="10.3661484"><ele>476.0</ele><time>2026-04-10T14:15:43.052Z</time></trkpt><trkpt lat="44.5642077" lon="10.366069"><ele>476.0</ele><time>2026-04-10T14:15:44.052Z</time></trkpt><trkpt lat="44.5640601" lon="10.3659975"><ele>476.0</ele><time>2026-04-10T14:15:45.052Z</time></trkpt><trkpt lat="44.5638927" lon="10.3659085"><ele>476.0</ele><time>2026-04-10T14:15:46.052Z</time></trkpt><trkpt lat="44.5637373" lon="10.3658143"><ele>478.3333333333333</ele><time>2026-04-10T14:15:47.052Z</time></trkpt><trkpt lat="44.5635851" lon="10.3657143"><ele>480.66666666666663</ele><time>2026-04-10T14:15:48.052Z</time></trkpt><trkpt lat="44.5634349" lon="10.3656069"><ele>483.0</ele><time>2026-04-10T14:15:49.052Z</time></trkpt><trkpt lat="44.5632896" lon="10.3654928"><ele>483.66666666666663</ele><time>2026-04-10T14:15:50.052Z</time></trkpt><trkpt lat="44.5631406" lon="10.3653916"><ele>484.3333333333333</ele><time>2026-04-10T14:15:51.052Z</time></trkpt><trkpt lat="44.5629972" lon="10.3652847"><ele>485.0</ele><time>2026-04-10T14:15:52.051Z</time></trkpt><trkpt lat="44.5628699" lon="10.3651872"><ele>485.25</ele><time>2026-04-10T14:15:53.052Z</time></trkpt><trkpt lat="44.5627658" lon="10.365079"><ele>485.5</ele><time>2026-04-10T14:15:54.052Z</time></trkpt><trkpt lat="44.5626916" lon="10.3649397"><ele>485.75</ele><time>2026-04-10T14:15:55.053Z</time></trkpt><trkpt lat="44.5626453" lon="10.3647768"><ele>486.0</ele><time>2026-04-10T14:15:56.052Z</time></trkpt><trkpt lat="44.5626115" lon="10.3646086"><ele>488.75</ele><time>2026-04-10T14:15:57.052Z</time></trkpt><trkpt lat="44.5625829" lon="10.3644461"><ele>491.5</ele><time>2026-04-10T14:15:58.051Z</time></trkpt><trkpt lat="44.5625534" lon="10.3642734"><ele>494.25</ele><time>2026-04-10T14:15:59.052Z</time></trkpt><trkpt lat="44.5625046" lon="10.3641024"><ele>497.0</ele><time>2026-04-10T14:16:00.052Z</time></trkpt><trkpt lat="44.5624217" lon="10.3639593"><ele>498.75</ele><time>2026-04-10T14:16:01.051Z</time></trkpt><trkpt lat="44.5623152" lon="10.3638462"><ele>500.5</ele><time>2026-04-10T14:16:02.052Z</time></trkpt><trkpt lat="44.562201" lon="10.3637426"><ele>502.25</ele><time>2026-04-10T14:16:03.051Z</time></trkpt><trkpt lat="44.5620814" lon="10.3636388"><ele>504.0</ele><time>2026-04-10T14:16:04.052Z</time></trkpt><trkpt lat="44.5619579" lon="10.3635322"><ele>504.0</ele><time>2026-04-10T14:16:05.052Z</time></trkpt><trkpt lat="44.561836" lon="10.3634173"><ele>504.0</ele><time>2026-04-10T14:16:06.052Z</time></trkpt><trkpt lat="44.5617203" lon="10.363305"><ele>504.0</ele><time>2026-04-10T14:16:07.052Z</time></trkpt><trkpt lat="44.5616159" lon="10.3631836"><ele>504.0</ele><time>2026-04-10T14:16:08.052Z</time></trkpt><trkpt lat="44.5615429" lon="10.3630301"><ele>505.25</ele><time>2026-04-10T14:16:09.052Z</time></trkpt><trkpt lat="44.5614926" lon="10.3628643"><ele>506.5</ele><time>2026-04-10T14:16:10.052Z</time></trkpt><trkpt lat="44.5614443" lon="10.3626949"><ele>507.75</ele><time>2026-04-10T14:16:11.051Z</time></trkpt><trkpt lat="44.5613879" lon="10.362532"><ele>509.0</ele><time>2026-04-10T14:16:12.051Z</time></trkpt><trkpt lat="44.5613111" lon="10.362404"><ele>509.0</ele><time>2026-04-10T14:16:13.051Z</time></trkpt><trkpt lat="44.5612218" lon="10.3622685"><ele>509.0</ele><time>2026-04-10T14:16:14.051Z</time></trkpt><trkpt lat="44.5610804" lon="10.3621764"><ele>509.0</ele><time>2026-04-10T14:16:15.052Z</time></trkpt><trkpt lat="44.5609419" lon="10.3620804"><ele>509.0</ele><time>2026-04-10T14:16:16.052Z</time></trkpt><trkpt lat="44.560798" lon="10.3619825"><ele>509.0</ele><time>2026-04-10T14:16:17.053Z</time></trkpt><trkpt lat="44.5606498" lon="10.361888"><ele>509.0</ele><time>2026-04-10T14:16:18.052Z</time></trkpt><trkpt lat="44.5605182" lon="10.3617956"><ele>509.0</ele><time>2026-04-10T14:16:19.052Z</time></trkpt><trkpt lat="44.5603932" lon="10.3616787"><ele>509.3333333333333</ele><time>2026-04-10T14:16:20.051Z</time></trkpt><trkpt lat="44.5602768" lon="10.3615327"><ele>509.66666666666663</ele><time>2026-04-10T14:16:21.052Z</time></trkpt><trkpt lat="44.5601605" lon="10.3613703"><ele>510.0</ele><time>2026-04-10T14:16:22.052Z</time></trkpt><trkpt lat="44.5600488" lon="10.3612077"><ele>510.0</ele><time>2026-04-10T14:16:23.052Z</time></trkpt><trkpt lat="44.559951" lon="10.3610539"><ele>510.0</ele><time>2026-04-10T14:16:24.052Z</time></trkpt><trkpt lat="44.5598565" lon="10.3608961"><ele>510.0</ele><time>2026-04-10T14:16:25.052Z</time></trkpt><trkpt lat="44.5597606" lon="10.3607234"><ele>510.0</ele><time>2026-04-10T14:16:26.052Z</time></trkpt><trkpt lat="44.5596756" lon="10.3605334"><ele>510.0</ele><time>2026-04-10T14:16:27.053Z</time></trkpt><trkpt lat="44.559599" lon="10.3603327"><ele>510.0</ele><time>2026-04-10T14:16:28.051Z</time></trkpt><trkpt lat="44.5595244" lon="10.3601281"><ele>509.75</ele><time>2026-04-10T14:16:29.052Z</time></trkpt><trkpt lat="44.5594534" lon="10.3599348"><ele>509.5</ele><time>2026-04-10T14:16:30.051Z</time></trkpt><trkpt lat="44.5593884" lon="10.359759"><ele>509.25</ele><time>2026-04-10T14:16:31.051Z</time></trkpt><trkpt lat="44.5593273" lon="10.3595951"><ele>509.0</ele><time>2026-04-10T14:16:32.052Z</time></trkpt><trkpt lat="44.5592641" lon="10.3594439"><ele>509.0</ele><time>2026-04-10T14:16:33.052Z</time></trkpt><trkpt lat="44.5592106" lon="10.3592898"><ele>509.0</ele><time>2026-04-10T14:16:34.052Z</time></trkpt><trkpt lat="44.5591585" lon="10.3591189"><ele>509.0</ele><time>2026-04-10T14:16:35.052Z</time></trkpt><trkpt lat="44.5591294" lon="10.3589351"><ele>509.0</ele><time>2026-04-10T14:16:36.051Z</time></trkpt><trkpt lat="44.5591052" lon="10.3587454"><ele>507.25</ele><time>2026-04-10T14:16:37.052Z</time></trkpt><trkpt lat="44.5590773" lon="10.3585581"><ele>505.5</ele><time>2026-04-10T14:16:38.052Z</time></trkpt><trkpt lat="44.5590464" lon="10.3583682"><ele>503.75</ele><time>2026-04-10T14:16:39.052Z</time></trkpt><trkpt lat="44.5590126" lon="10.3581698"><ele>502.0</ele><time>2026-04-10T14:16:40.051Z</time></trkpt><trkpt lat="44.5589773" lon="10.357968"><ele>501.25</ele><time>2026-04-10T14:16:41.052Z</time></trkpt><trkpt lat="44.558949" lon="10.3577737"><ele>500.5</ele><time>2026-04-10T14:16:42.052Z</time></trkpt><trkpt lat="44.5589246" lon="10.3575788"><ele>499.75</ele><time>2026-04-10T14:16:43.052Z</time></trkpt><trkpt lat="44.5589116" lon="10.3573909"><ele>499.0</ele><time>2026-04-10T14:16:44.053Z</time></trkpt><trkpt lat="44.5588936" lon="10.3572024"><ele>499.0</ele><time>2026-04-10T14:16:45.051Z</time></trkpt><trkpt lat="44.5588831" lon="10.3570069"><ele>499.0</ele><time>2026-04-10T14:16:46.052Z</time></trkpt><trkpt lat="44.5588827" lon="10.3568127"><ele>499.0</ele><time>2026-04-10T14:16:47.052Z</time></trkpt><trkpt lat="44.5588825" lon="10.3566401"><ele>499.0</ele><time>2026-04-10T14:16:48.051Z</time></trkpt><trkpt lat="44.5588418" lon="10.3564964"><ele>499.2</ele><time>2026-04-10T14:16:49.052Z</time></trkpt><trkpt lat="44.5588161" lon="10.356362"><ele>499.4</ele><time>2026-04-10T14:16:50.052Z</time></trkpt><trkpt lat="44.5587877" lon="10.3562316"><ele>499.6</ele><time>2026-04-10T14:16:51.052Z</time></trkpt><trkpt lat="44.5587816" lon="10.3560718"><ele>499.8</ele><time>2026-04-10T14:16:52.052Z</time></trkpt><trkpt lat="44.558781" lon="10.3559092"><ele>500.0</ele><time>2026-04-10T14:16:53.052Z</time></trkpt><trkpt lat="44.5587807" lon="10.3557381"><ele>500.0</ele><time>2026-04-10T14:16:54.052Z</time></trkpt><trkpt lat="44.5587843" lon="10.3555623"><ele>500.0</ele><time>2026-04-10T14:16:55.052Z</time></trkpt><trkpt lat="44.5587889" lon="10.35537"><ele>500.0</ele><time>2026-04-10T14:16:56.051Z</time></trkpt><trkpt lat="44.5587967" lon="10.3551659"><ele>500.0</ele><time>2026-04-10T14:16:57.051Z</time></trkpt><trkpt lat="44.5587962" lon="10.3549406"><ele>499.75</ele><time>2026-04-10T14:16:58.052Z</time></trkpt><trkpt lat="44.5587898" lon="10.3547362"><ele>499.5</ele><time>2026-04-10T14:16:59.052Z</time></trkpt><trkpt lat="44.5587855" lon="10.3545261"><ele>499.25</ele><time>2026-04-10T14:17:00.052Z</time></trkpt><trkpt lat="44.5587789" lon="10.3543327"><ele>499.0</ele><time>2026-04-10T14:17:01.053Z</time></trkpt><trkpt lat="44.5587786" lon="10.3541669"><ele>499.0</ele><time>2026-04-10T14:17:02.052Z</time></trkpt><trkpt lat="44.5587648" lon="10.3540212"><ele>499.0</ele><time>2026-04-10T14:17:03.051Z</time></trkpt><trkpt lat="44.55874" lon="10.3538676"><ele>499.0</ele><time>2026-04-10T14:17:04.052Z</time></trkpt><trkpt lat="44.5587017" lon="10.353701"><ele>499.0</ele><time>2026-04-10T14:17:05.052Z</time></trkpt><trkpt lat="44.558653" lon="10.3535146"><ele>500.0</ele><time>2026-04-10T14:17:06.052Z</time></trkpt><trkpt lat="44.558619" lon="10.3533451"><ele>501.0</ele><time>2026-04-10T14:17:07.052Z</time></trkpt><trkpt lat="44.5585975" lon="10.3531708"><ele>502.0</ele><time>2026-04-10T14:17:08.051Z</time></trkpt><trkpt lat="44.5585704" lon="10.3529873"><ele>503.0</ele><time>2026-04-10T14:17:09.052Z</time></trkpt><trkpt lat="44.5585467" lon="10.3528165"><ele>504.0</ele><time>2026-04-10T14:17:10.052Z</time></trkpt><trkpt lat="44.5585231" lon="10.3526589"><ele>504.99999999999994</ele><time>2026-04-10T14:17:11.052Z</time></trkpt><trkpt lat="44.5585091" lon="10.3525195"><ele>505.99999999999994</ele><time>2026-04-10T14:17:12.052Z</time></trkpt><trkpt lat="44.5585162" lon="10.3523902"><ele>507.0</ele><time>2026-04-10T14:17:13.052Z</time></trkpt><trkpt lat="44.5585241" lon="10.3522711"><ele>508.0</ele><time>2026-04-10T14:17:14.052Z</time></trkpt><trkpt lat="44.5585597" lon="10.3521279"><ele>508.79999999999995</ele><time>2026-04-10T14:17:15.052Z</time></trkpt><trkpt lat="44.5585792" lon="10.351994"><ele>509.59999999999997</ele><time>2026-04-10T14:17:16.052Z</time></trkpt><trkpt lat="44.5586017" lon="10.3518544"><ele>510.40000000000003</ele><time>2026-04-10T14:17:17.052Z</time></trkpt><trkpt lat="44.5586187" lon="10.3517261"><ele>511.20000000000005</ele><time>2026-04-10T14:17:18.051Z</time></trkpt><trkpt lat="44.5586443" lon="10.3516055"><ele>512.0</ele><time>2026-04-10T14:17:19.052Z</time></trkpt><trkpt lat="44.5586697" lon="10.3514999"><ele>510.40000000000003</ele><time>2026-04-10T14:17:20.052Z</time></trkpt><trkpt lat="44.5587197" lon="10.3513962"><ele>508.80000000000007</ele><time>2026-04-10T14:17:21.052Z</time></trkpt><trkpt lat="44.5587723" lon="10.3512934"><ele>507.2</ele><time>2026-04-10T14:17:22.051Z</time></trkpt><trkpt lat="44.5588489" lon="10.3512023"><ele>505.6</ele><time>2026-04-10T14:17:23.051Z</time></trkpt><trkpt lat="44.5589222" lon="10.3511276"><ele>504.0</ele><time>2026-04-10T14:17:24.052Z</time></trkpt><trkpt lat="44.5590109" lon="10.3510686"><ele>504.0</ele><time>2026-04-10T14:17:25.052Z</time></trkpt><trkpt lat="44.5591103" lon="10.3510232"><ele>504.0</ele><time>2026-04-10T14:17:26.053Z</time></trkpt><trkpt lat="44.5592131" lon="10.3509824"><ele>504.0</ele><time>2026-04-10T14:17:27.052Z</time></trkpt><trkpt lat="44.559306" lon="10.350936"><ele>504.0</ele><time>2026-04-10T14:17:28.051Z</time></trkpt><trkpt lat="44.5593936" lon="10.3508749"><ele>504.0</ele><time>2026-04-10T14:17:29.052Z</time></trkpt><trkpt lat="44.5594846" lon="10.3507979"><ele>503.25</ele><time>2026-04-10T14:17:30.052Z</time></trkpt><trkpt lat="44.5595856" lon="10.3507094"><ele>502.5</ele><time>2026-04-10T14:17:31.052Z</time></trkpt><trkpt lat="44.5596843" lon="10.3506003"><ele>501.75</ele><time>2026-04-10T14:17:32.052Z</time></trkpt><trkpt lat="44.5597836" lon="10.350505"><ele>501.0</ele><time>2026-04-10T14:17:33.052Z</time></trkpt><trkpt lat="44.5598785" lon="10.3503634"><ele>501.0</ele><time>2026-04-10T14:17:34.051Z</time></trkpt><trkpt lat="44.5599754" lon="10.3502302"><ele>501.0</ele><time>2026-04-10T14:17:35.051Z</time></trkpt><trkpt lat="44.5600636" lon="10.3500837"><ele>501.0</ele><time>2026-04-10T14:17:36.051Z</time></trkpt><trkpt lat="44.5601376" lon="10.3499538"><ele>501.0</ele><time>2026-04-10T14:17:37.052Z</time></trkpt><trkpt lat="44.560212" lon="10.3498577"><ele>501.0</ele><time>2026-04-10T14:17:38.052Z</time></trkpt><trkpt lat="44.5602859" lon="10.3497745"><ele>501.0</ele><time>2026-04-10T14:17:39.052Z</time></trkpt><trkpt lat="44.5603739" lon="10.3497027"><ele>501.0</ele><time>2026-04-10T14:17:40.051Z</time></trkpt><trkpt lat="44.5604785" lon="10.3496545"><ele>501.0</ele><time>2026-04-10T14:17:41.052Z</time></trkpt><trkpt lat="44.5605774" lon="10.3496182"><ele>501.0</ele><time>2026-04-10T14:17:42.052Z</time></trkpt><trkpt lat="44.5607044" lon="10.3495852"><ele>499.75</ele><time>2026-04-10T14:17:43.052Z</time></trkpt><trkpt lat="44.5608359" lon="10.349542"><ele>498.5</ele><time>2026-04-10T14:17:44.052Z</time></trkpt><trkpt lat="44.5609575" lon="10.3495043"><ele>497.25</ele><time>2026-04-10T14:17:45.052Z</time></trkpt><trkpt lat="44.5610676" lon="10.349457"><ele>496.0</ele><time>2026-04-10T14:17:46.052Z</time></trkpt><trkpt lat="44.5611807" lon="10.3494084"><ele>496.20000000000005</ele><time>2026-04-10T14:17:47.051Z</time></trkpt><trkpt lat="44.5612857" lon="10.3493935"><ele>496.40000000000003</ele><time>2026-04-10T14:17:48.051Z</time></trkpt><trkpt lat="44.5613816" lon="10.3494044"><ele>496.6</ele><time>2026-04-10T14:17:49.052Z</time></trkpt><trkpt lat="44.5614803" lon="10.3494539"><ele>496.8</ele><time>2026-04-10T14:17:50.052Z</time></trkpt><trkpt lat="44.5615665" lon="10.3495007"><ele>497.0</ele><time>2026-04-10T14:17:51.052Z</time></trkpt><trkpt lat="44.561676" lon="10.3495218"><ele>497.0</ele><time>2026-04-10T14:17:52.052Z</time></trkpt><trkpt lat="44.5617826" lon="10.3495217"><ele>497.00000000000006</ele><time>2026-04-10T14:17:53.052Z</time></trkpt><trkpt lat="44.5618869" lon="10.3495065"><ele>497.00000000000006</ele><time>2026-04-10T14:17:54.051Z</time></trkpt><trkpt lat="44.561991" lon="10.349476"><ele>497.0</ele><time>2026-04-10T14:17:55.052Z</time></trkpt><trkpt lat="44.5620877" lon="10.349443"><ele>497.0</ele><time>2026-04-10T14:17:56.052Z</time></trkpt><trkpt lat="44.5621781" lon="10.349413"><ele>496.16666666666663</ele><time>2026-04-10T14:17:57.052Z</time></trkpt><trkpt lat="44.5622607" lon="10.3493954"><ele>495.3333333333333</ele><time>2026-04-10T14:17:58.051Z</time></trkpt><trkpt lat="44.5623291" lon="10.3493829"><ele>494.5</ele><time>2026-04-10T14:17:59.052Z</time></trkpt><trkpt lat="44.5624462" lon="10.3493494"><ele>493.66666666666663</ele><time>2026-04-10T14:18:01.052Z</time></trkpt><trkpt lat="44.5625437" lon="10.3493072"><ele>492.8333333333333</ele><time>2026-04-10T14:18:03.052Z</time></trkpt><trkpt lat="44.5626044" lon="10.349277"><ele>492.0</ele><time>2026-04-10T14:18:05.052Z</time></trkpt><trkpt lat="44.5626532" lon="10.3492115"><ele>492.0</ele><time>2026-04-10T14:18:08.052Z</time></trkpt><trkpt lat="44.5627036" lon="10.3491177"><ele>492.0</ele><time>2026-04-10T14:18:25.051Z</time></trkpt><trkpt lat="44.5627634" lon="10.3490588"><ele>492.0</ele><time>2026-04-10T14:18:27.052Z</time></trkpt><trkpt lat="44.5628449" lon="10.3490032"><ele>492.0</ele><time>2026-04-10T14:18:29.052Z</time></trkpt><trkpt lat="44.5628996" lon="10.3489478"><ele>492.0</ele><time>2026-04-10T14:18:31.052Z</time></trkpt><trkpt lat="44.5629577" lon="10.3488682"><ele>492.0</ele><time>2026-04-10T14:18:33.052Z</time></trkpt><trkpt lat="44.5630028" lon="10.3487769"><ele>488.40000000000003</ele><time>2026-04-10T14:18:35.052Z</time></trkpt><trkpt lat="44.5630466" lon="10.3486636"><ele>484.80000000000007</ele><time>2026-04-10T14:18:37.052Z</time></trkpt><trkpt lat="44.5631266" lon="10.3485524"><ele>481.2</ele><time>2026-04-10T14:18:39.051Z</time></trkpt><trkpt lat="44.5632019" lon="10.3484411"><ele>477.6</ele><time>2026-04-10T14:18:41.052Z</time></trkpt><trkpt lat="44.5632248" lon="10.348277"><ele>474.0</ele><time>2026-04-10T14:18:43.052Z</time></trkpt><trkpt lat="44.563239" lon="10.3481875"><ele>472.3333333333333</ele><time>2026-04-10T14:18:44.051Z</time></trkpt><trkpt lat="44.5632692" lon="10.3480268"><ele>470.66666666666663</ele><time>2026-04-10T14:18:46.052Z</time></trkpt><trkpt lat="44.5633279" lon="10.3478973"><ele>469.0</ele><time>2026-04-10T14:18:48.051Z</time></trkpt><trkpt lat="44.5633748" lon="10.3478362"><ele>467.3333333333333</ele><time>2026-04-10T14:18:49.052Z</time></trkpt><trkpt lat="44.5634289" lon="10.3477622"><ele>465.66666666666663</ele><time>2026-04-10T14:18:50.053Z</time></trkpt><trkpt lat="44.5634851" lon="10.3476875"><ele>464.0</ele><time>2026-04-10T14:18:51.053Z</time></trkpt><trkpt lat="44.5635416" lon="10.3475964"><ele>464.0</ele><time>2026-04-10T14:18:52.052Z</time></trkpt><trkpt lat="44.5635937" lon="10.3475015"><ele>464.0</ele><time>2026-04-10T14:18:53.052Z</time></trkpt><trkpt lat="44.5636515" lon="10.3473997"><ele>464.0</ele><time>2026-04-10T14:18:54.052Z</time></trkpt><trkpt lat="44.5637122" lon="10.347297"><ele>464.0</ele><time>2026-04-10T14:18:55.051Z</time></trkpt><trkpt lat="44.5637747" lon="10.3471886"><ele>464.0</ele><time>2026-04-10T14:18:56.052Z</time></trkpt><trkpt lat="44.5638352" lon="10.3470854"><ele>462.2</ele><time>2026-04-10T14:18:57.052Z</time></trkpt><trkpt lat="44.5638912" lon="10.3469686"><ele>460.4</ele><time>2026-04-10T14:18:58.052Z</time></trkpt><trkpt lat="44.5639518" lon="10.346861"><ele>458.6</ele><time>2026-04-10T14:18:59.052Z</time></trkpt><trkpt lat="44.5640165" lon="10.3467663"><ele>456.8</ele><time>2026-04-10T14:19:00.052Z</time></trkpt><trkpt lat="44.5640877" lon="10.3466866"><ele>455.0</ele><time>2026-04-10T14:19:01.051Z</time></trkpt><trkpt lat="44.5641346" lon="10.3466101"><ele>455.0</ele><time>2026-04-10T14:19:02.051Z</time></trkpt><trkpt lat="44.5641905" lon="10.3465381"><ele>455.0</ele><time>2026-04-10T14:19:03.052Z</time></trkpt><trkpt lat="44.56429" lon="10.3464001"><ele>455.0</ele><time>2026-04-10T14:19:05.052Z</time></trkpt><trkpt lat="44.5643515" lon="10.3462953"><ele>455.0</ele><time>2026-04-10T14:19:06.052Z</time></trkpt><trkpt lat="44.564413" lon="10.3461742"><ele>455.0</ele><time>2026-04-10T14:19:07.052Z</time></trkpt><trkpt lat="44.5644732" lon="10.3460555"><ele>453.99999999999994</ele><time>2026-04-10T14:19:08.052Z</time></trkpt><trkpt lat="44.5645231" lon="10.3459468"><ele>453.0</ele><time>2026-04-10T14:19:09.052Z</time></trkpt><trkpt lat="44.5645714" lon="10.3458709"><ele>452.0</ele><time>2026-04-10T14:19:10.052Z</time></trkpt><trkpt lat="44.5646328" lon="10.3457984"><ele>451.0</ele><time>2026-04-10T14:19:11.051Z</time></trkpt><trkpt lat="44.5646858" lon="10.345741"><ele>449.99999999999994</ele><time>2026-04-10T14:19:12.052Z</time></trkpt><trkpt lat="44.5647412" lon="10.3456517"><ele>449.0</ele><time>2026-04-10T14:19:14.052Z</time></trkpt><trkpt lat="44.5647408" lon="10.3455524"><ele>448.1428571428571</ele><time>2026-04-10T14:19:16.052Z</time></trkpt><trkpt lat="44.5647372" lon="10.3454588"><ele>447.2857142857142</ele><time>2026-04-10T14:19:18.052Z</time></trkpt><trkpt lat="44.5647246" lon="10.3453663"><ele>446.42857142857144</ele><time>2026-04-10T14:19:20.051Z</time></trkpt><trkpt lat="44.5647177" lon="10.3452734"><ele>445.57142857142856</ele><time>2026-04-10T14:19:22.052Z</time></trkpt><trkpt lat="44.5647132" lon="10.3451722"><ele>444.7142857142857</ele><time>2026-04-10T14:19:24.052Z</time></trkpt><trkpt lat="44.5647087" lon="10.3450772"><ele>443.8571428571429</ele><time>2026-04-10T14:19:26.051Z</time></trkpt><trkpt lat="44.5647113" lon="10.3449672"><ele>443.0</ele><time>2026-04-10T14:19:28.052Z</time></trkpt><trkpt lat="44.5646897" lon="10.3448329"><ele>439.8333333333333</ele><time>2026-04-10T14:19:30.052Z</time></trkpt><trkpt lat="44.5646529" lon="10.3446798"><ele>436.66666666666663</ele><time>2026-04-10T14:19:32.052Z</time></trkpt><trkpt lat="44.564593" lon="10.3445465"><ele>433.5</ele><time>2026-04-10T14:19:34.051Z</time></trkpt><trkpt lat="44.5645637" lon="10.3444618"><ele>430.33333333333337</ele><time>2026-04-10T14:19:35.051Z</time></trkpt><trkpt lat="44.5645417" lon="10.3443647"><ele>427.1666666666667</ele><time>2026-04-10T14:19:36.052Z</time></trkpt><trkpt lat="44.5645236" lon="10.3442538"><ele>424.0</ele><time>2026-04-10T14:19:37.053Z</time></trkpt><trkpt lat="44.5645053" lon="10.3441313"><ele>423.6666666666667</ele><time>2026-04-10T14:19:38.052Z</time></trkpt><trkpt lat="44.564481" lon="10.3440034"><ele>423.33333333333337</ele><time>2026-04-10T14:19:39.052Z</time></trkpt><trkpt lat="44.5644626" lon="10.3438679"><ele>423.0</ele><time>2026-04-10T14:19:40.053Z</time></trkpt><trkpt lat="44.5644454" lon="10.3437417"><ele>422.66666666666663</ele><time>2026-04-10T14:19:41.052Z</time></trkpt><trkpt lat="44.5644339" lon="10.3436355"><ele>422.3333333333333</ele><time>2026-04-10T14:19:42.052Z</time></trkpt><trkpt lat="44.5644316" lon="10.343535"><ele>422.0</ele><time>2026-04-10T14:19:43.051Z</time></trkpt><trkpt lat="44.5644306" lon="10.3434448"><ele>420.8</ele><time>2026-04-10T14:19:44.052Z</time></trkpt><trkpt lat="44.5644156" lon="10.3432626"><ele>419.6</ele><time>2026-04-10T14:19:46.051Z</time></trkpt><trkpt lat="44.5643998" lon="10.3431687"><ele>418.40000000000003</ele><time>2026-04-10T14:19:47.052Z</time></trkpt><trkpt lat="44.5643835" lon="10.3430687"><ele>417.20000000000005</ele><time>2026-04-10T14:19:48.052Z</time></trkpt><trkpt lat="44.5643705" lon="10.3429714"><ele>416.0</ele><time>2026-04-10T14:19:49.052Z</time></trkpt><trkpt lat="44.5643584" lon="10.3428083"><ele>414.20000000000005</ele><time>2026-04-10T14:19:51.051Z</time></trkpt><trkpt lat="44.5643633" lon="10.3426738"><ele>412.40000000000003</ele><time>2026-04-10T14:19:53.052Z</time></trkpt><trkpt lat="44.5643979" lon="10.3425517"><ele>410.6</ele><time>2026-04-10T14:19:55.052Z</time></trkpt><trkpt lat="44.5644387" lon="10.3423893"><ele>408.8</ele><time>2026-04-10T14:19:57.052Z</time></trkpt><trkpt lat="44.5644496" lon="10.3422841"><ele>407.0</ele><time>2026-04-10T14:19:58.052Z</time></trkpt><trkpt lat="44.564461" lon="10.3421674"><ele>405.99999999999994</ele><time>2026-04-10T14:19:59.052Z</time></trkpt><trkpt lat="44.564478" lon="10.3420477"><ele>405.0</ele><time>2026-04-10T14:20:00.052Z</time></trkpt><trkpt lat="44.5644987" lon="10.3419169"><ele>404.0</ele><time>2026-04-10T14:20:01.051Z</time></trkpt><trkpt lat="44.5645176" lon="10.3417915"><ele>403.0</ele><time>2026-04-10T14:20:02.052Z</time></trkpt><trkpt lat="44.5645275" lon="10.341679"><ele>401.99999999999994</ele><time>2026-04-10T14:20:03.052Z</time></trkpt><trkpt lat="44.5645303" lon="10.3415592"><ele>401.0</ele><time>2026-04-10T14:20:04.052Z</time></trkpt><trkpt lat="44.56452" lon="10.341449"><ele>399.4</ele><time>2026-04-10T14:20:05.052Z</time></trkpt><trkpt lat="44.5645167" lon="10.3413097"><ele>397.8</ele><time>2026-04-10T14:20:06.05Z</time></trkpt><trkpt lat="44.5645295" lon="10.3411485"><ele>396.2</ele><time>2026-04-10T14:20:07.051Z</time></trkpt><trkpt lat="44.5645426" lon="10.3409852"><ele>394.59999999999997</ele><time>2026-04-10T14:20:08.051Z</time></trkpt><trkpt lat="44.5645575" lon="10.3408289"><ele>393.0</ele><time>2026-04-10T14:20:09.051Z</time></trkpt><trkpt lat="44.564577" lon="10.3406742"><ele>392.59999999999997</ele><time>2026-04-10T14:20:10.051Z</time></trkpt><trkpt lat="44.5645972" lon="10.3405237"><ele>392.2</ele><time>2026-04-10T14:20:11.051Z</time></trkpt><trkpt lat="44.5646124" lon="10.3403984"><ele>391.8</ele><time>2026-04-10T14:20:12.05Z</time></trkpt><trkpt lat="44.5646279" lon="10.3402659"><ele>391.4</ele><time>2026-04-10T14:20:13.05Z</time></trkpt><trkpt lat="44.5646391" lon="10.3401285"><ele>391.0</ele><time>2026-04-10T14:20:14.05Z</time></trkpt><trkpt lat="44.5646427" lon="10.34001"><ele>391.0</ele><time>2026-04-10T14:20:15.051Z</time></trkpt><trkpt lat="44.5646386" lon="10.3398865"><ele>391.0</ele><time>2026-04-10T14:20:16.051Z</time></trkpt><trkpt lat="44.5646291" lon="10.3397678"><ele>391.0</ele><time>2026-04-10T14:20:17.051Z</time></trkpt><trkpt lat="44.564607" lon="10.3396436"><ele>391.0</ele><time>2026-04-10T14:20:18.05Z</time></trkpt><trkpt lat="44.5645869" lon="10.3395208"><ele>391.0</ele><time>2026-04-10T14:20:19.05Z</time></trkpt><trkpt lat="44.5645719" lon="10.339381"><ele>390.50000000000006</ele><time>2026-04-10T14:20:20.051Z</time></trkpt><trkpt lat="44.5645693" lon="10.3392467"><ele>390.0</ele><time>2026-04-10T14:20:21.051Z</time></trkpt><trkpt lat="44.5645741" lon="10.3391232"><ele>389.5</ele><time>2026-04-10T14:20:22.051Z</time></trkpt><trkpt lat="44.5645853" lon="10.3390037"><ele>389.0</ele><time>2026-04-10T14:20:23.05Z</time></trkpt><trkpt lat="44.5645959" lon="10.3389089"><ele>388.50000000000006</ele><time>2026-04-10T14:20:24.051Z</time></trkpt><trkpt lat="44.5646032" lon="10.3388083"><ele>388.0</ele><time>2026-04-10T14:20:25.051Z</time></trkpt><trkpt lat="44.5646212" lon="10.3386872"><ele>388.00000000000006</ele><time>2026-04-10T14:20:26.05Z</time></trkpt><trkpt lat="44.5646488" lon="10.3385608"><ele>388.0</ele><time>2026-04-10T14:20:27.051Z</time></trkpt><trkpt lat="44.5646854" lon="10.3384592"><ele>388.0</ele><time>2026-04-10T14:20:28.051Z</time></trkpt><trkpt lat="44.564721" lon="10.3383772"><ele>388.0</ele><time>2026-04-10T14:20:29.052Z</time></trkpt><trkpt lat="44.5647644" lon="10.338302"><ele>388.00000000000006</ele><time>2026-04-10T14:20:30.051Z</time></trkpt><trkpt lat="44.5648154" lon="10.338229"><ele>388.0</ele><time>2026-04-10T14:20:31.051Z</time></trkpt><trkpt lat="44.5648732" lon="10.3381558"><ele>388.00000000000006</ele><time>2026-04-10T14:20:32.051Z</time></trkpt><trkpt lat="44.564934" lon="10.3380881"><ele>388.0</ele><time>2026-04-10T14:20:33.051Z</time></trkpt><trkpt lat="44.5649899" lon="10.3380324"><ele>388.0</ele><time>2026-04-10T14:20:34.05Z</time></trkpt><trkpt lat="44.5650627" lon="10.3379191"><ele>388.0</ele><time>2026-04-10T14:20:36.051Z</time></trkpt><trkpt lat="44.5650628" lon="10.3378187"><ele>388.00000000000006</ele><time>2026-04-10T14:20:38.051Z</time></trkpt><trkpt lat="44.5650139" lon="10.3377226"><ele>388.0</ele><time>2026-04-10T14:20:40.051Z</time></trkpt><trkpt lat="44.5649311" lon="10.337631"><ele>387.1666666666667</ele><time>2026-04-10T14:20:42.051Z</time></trkpt><trkpt lat="44.5648248" lon="10.3375516"><ele>386.33333333333337</ele><time>2026-04-10T14:20:44.051Z</time></trkpt><trkpt lat="44.5647609" lon="10.3375063"><ele>385.5</ele><time>2026-04-10T14:20:45.051Z</time></trkpt><trkpt lat="44.5647032" lon="10.3374642"><ele>384.6666666666667</ele><time>2026-04-10T14:20:46.052Z</time></trkpt><trkpt lat="44.5646162" lon="10.3373814"><ele>383.83333333333337</ele><time>2026-04-10T14:20:48.05Z</time></trkpt><trkpt lat="44.5645559" lon="10.3373133"><ele>383.0</ele><time>2026-04-10T14:20:49.051Z</time></trkpt><trkpt lat="44.5645036" lon="10.3372501"><ele>381.1428571428571</ele><time>2026-04-10T14:20:50.05Z</time></trkpt><trkpt lat="44.5644503" lon="10.3371935"><ele>379.2857142857143</ele><time>2026-04-10T14:20:51.052Z</time></trkpt><trkpt lat="44.5643926" lon="10.3371314"><ele>377.42857142857144</ele><time>2026-04-10T14:20:52.051Z</time></trkpt><trkpt lat="44.5643417" lon="10.3370672"><ele>375.57142857142856</ele><time>2026-04-10T14:20:53.051Z</time></trkpt><trkpt lat="44.564303" lon="10.3369893"><ele>373.7142857142857</ele><time>2026-04-10T14:20:54.051Z</time></trkpt><trkpt lat="44.5642528" lon="10.3369064"><ele>371.85714285714283</ele><time>2026-04-10T14:20:55.051Z</time></trkpt><trkpt lat="44.5641951" lon="10.3368146"><ele>370.0</ele><time>2026-04-10T14:20:56.051Z</time></trkpt><trkpt lat="44.5641421" lon="10.3367253"><ele>370.0</ele><time>2026-04-10T14:20:57.051Z</time></trkpt><trkpt lat="44.5640956" lon="10.3366274"><ele>370.0</ele><time>2026-04-10T14:20:58.05Z</time></trkpt><trkpt lat="44.5640527" lon="10.3365371"><ele>370.0</ele><time>2026-04-10T14:20:59.05Z</time></trkpt><trkpt lat="44.5640129" lon="10.3364418"><ele>370.0</ele><time>2026-04-10T14:21:00.051Z</time></trkpt><trkpt lat="44.5639701" lon="10.3363306"><ele>370.0</ele><time>2026-04-10T14:21:01.051Z</time></trkpt><trkpt lat="44.5639224" lon="10.336216"><ele>370.0</ele><time>2026-04-10T14:21:02.05Z</time></trkpt><trkpt lat="44.5638814" lon="10.3361182"><ele>368.8</ele><time>2026-04-10T14:21:03.051Z</time></trkpt><trkpt lat="44.5638494" lon="10.3360211"><ele>367.6</ele><time>2026-04-10T14:21:04.051Z</time></trkpt><trkpt lat="44.5638163" lon="10.3359232"><ele>366.4</ele><time>2026-04-10T14:21:05.051Z</time></trkpt><trkpt lat="44.5637621" lon="10.3357999"><ele>365.2</ele><time>2026-04-10T14:21:06.051Z</time></trkpt><trkpt lat="44.5637171" lon="10.3356738"><ele>364.0</ele><time>2026-04-10T14:21:07.051Z</time></trkpt><trkpt lat="44.5636657" lon="10.3355593"><ele>362.6</ele><time>2026-04-10T14:21:08.05Z</time></trkpt><trkpt lat="44.563621" lon="10.3354543"><ele>361.2</ele><time>2026-04-10T14:21:09.051Z</time></trkpt><trkpt lat="44.5635841" lon="10.3353732"><ele>359.8</ele><time>2026-04-10T14:21:10.051Z</time></trkpt><trkpt lat="44.5635104" lon="10.335259"><ele>358.40000000000003</ele><time>2026-04-10T14:21:12.051Z</time></trkpt><trkpt lat="44.5634286" lon="10.3351439"><ele>357.0</ele><time>2026-04-10T14:21:14.051Z</time></trkpt><trkpt lat="44.5633872" lon="10.3350556"><ele>357.0</ele><time>2026-04-10T14:21:15.051Z</time></trkpt><trkpt lat="44.5633424" lon="10.3349518"><ele>357.0</ele><time>2026-04-10T14:21:16.05Z</time></trkpt><trkpt lat="44.563295" lon="10.3348126"><ele>357.0</ele><time>2026-04-10T14:21:17.051Z</time></trkpt><trkpt lat="44.5632336" lon="10.3346546"><ele>357.0</ele><time>2026-04-10T14:21:18.051Z</time></trkpt><trkpt lat="44.5631724" lon="10.3344986"><ele>355.25</ele><time>2026-04-10T14:21:19.051Z</time></trkpt><trkpt lat="44.5631112" lon="10.3343554"><ele>353.5</ele><time>2026-04-10T14:21:20.051Z</time></trkpt><trkpt lat="44.5630511" lon="10.3342215"><ele>351.75</ele><time>2026-04-10T14:21:21.05Z</time></trkpt><trkpt lat="44.5629732" lon="10.3340786"><ele>350.0</ele><time>2026-04-10T14:21:22.05Z</time></trkpt><trkpt lat="44.5628953" lon="10.3339429"><ele>349.2</ele><time>2026-04-10T14:21:23.051Z</time></trkpt><trkpt lat="44.5628245" lon="10.3338122"><ele>348.4</ele><time>2026-04-10T14:21:24.051Z</time></trkpt><trkpt lat="44.5627556" lon="10.3336776"><ele>347.6</ele><time>2026-04-10T14:21:25.051Z</time></trkpt><trkpt lat="44.5626925" lon="10.3335568"><ele>346.8</ele><time>2026-04-10T14:21:26.05Z</time></trkpt><trkpt lat="44.5626316" lon="10.3334381"><ele>346.0</ele><time>2026-04-10T14:21:27.052Z</time></trkpt><trkpt lat="44.562561" lon="10.3333319"><ele>346.0</ele><time>2026-04-10T14:21:28.051Z</time></trkpt><trkpt lat="44.5625011" lon="10.3332352"><ele>346.0</ele><time>2026-04-10T14:21:29.051Z</time></trkpt><trkpt lat="44.5624438" lon="10.3331504"><ele>346.0</ele><time>2026-04-10T14:21:30.051Z</time></trkpt><trkpt lat="44.5623947" lon="10.3330736"><ele>346.0</ele><time>2026-04-10T14:21:31.051Z</time></trkpt><trkpt lat="44.5623798" lon="10.3329779"><ele>346.0</ele><time>2026-04-10T14:21:32.051Z</time></trkpt><trkpt lat="44.5623914" lon="10.3328717"><ele>346.0</ele><time>2026-04-10T14:21:33.051Z</time></trkpt><trkpt lat="44.5624103" lon="10.3327521"><ele>345.0</ele><time>2026-04-10T14:21:34.051Z</time></trkpt><trkpt lat="44.5624168" lon="10.3326013"><ele>344.0</ele><time>2026-04-10T14:21:35.051Z</time></trkpt><trkpt lat="44.5624009" lon="10.3324587"><ele>343.0</ele><time>2026-04-10T14:21:36.051Z</time></trkpt><trkpt lat="44.5623785" lon="10.3323094"><ele>342.0</ele><time>2026-04-10T14:21:37.051Z</time></trkpt><trkpt lat="44.5623479" lon="10.3321583"><ele>341.0</ele><time>2026-04-10T14:21:38.05Z</time></trkpt><trkpt lat="44.5623267" lon="10.3320112"><ele>339.0</ele><time>2026-04-10T14:21:39.051Z</time></trkpt><trkpt lat="44.5623038" lon="10.3318677"><ele>337.0</ele><time>2026-04-10T14:21:40.051Z</time></trkpt><trkpt lat="44.5622702" lon="10.3317317"><ele>335.0</ele><time>2026-04-10T14:21:41.051Z</time></trkpt><trkpt lat="44.562223" lon="10.3316025"><ele>333.0</ele><time>2026-04-10T14:21:42.051Z</time></trkpt><trkpt lat="44.5621695" lon="10.331501"><ele>331.0</ele><time>2026-04-10T14:21:43.051Z</time></trkpt><trkpt lat="44.5621164" lon="10.3314203"><ele>329.3333333333333</ele><time>2026-04-10T14:21:44.051Z</time></trkpt><trkpt lat="44.5620745" lon="10.3313431"><ele>327.66666666666663</ele><time>2026-04-10T14:21:45.051Z</time></trkpt><trkpt lat="44.5620492" lon="10.3312046"><ele>326.0</ele><time>2026-04-10T14:21:47.051Z</time></trkpt><trkpt lat="44.5621491" lon="10.3311608"><ele>324.3333333333333</ele><time>2026-04-10T14:21:49.051Z</time></trkpt><trkpt lat="44.5622254" lon="10.3311888"><ele>322.6666666666667</ele><time>2026-04-10T14:21:50.051Z</time></trkpt><trkpt lat="44.5623174" lon="10.3312073"><ele>321.0</ele><time>2026-04-10T14:21:51.051Z</time></trkpt><trkpt lat="44.5624121" lon="10.3312105"><ele>321.0</ele><time>2026-04-10T14:21:52.051Z</time></trkpt><trkpt lat="44.5625096" lon="10.3311953"><ele>321.0</ele><time>2026-04-10T14:21:53.051Z</time></trkpt><trkpt lat="44.5625995" lon="10.3311544"><ele>321.0</ele><time>2026-04-10T14:21:54.051Z</time></trkpt><trkpt lat="44.5626644" lon="10.3310843"><ele>321.0</ele><time>2026-04-10T14:21:55.051Z</time></trkpt><trkpt lat="44.5627162" lon="10.3309886"><ele>321.0</ele><time>2026-04-10T14:21:56.051Z</time></trkpt><trkpt lat="44.5627585" lon="10.3308687"><ele>321.0</ele><time>2026-04-10T14:21:57.051Z</time></trkpt><trkpt lat="44.5627893" lon="10.3307412"><ele>321.0</ele><time>2026-04-10T14:21:58.051Z</time></trkpt><trkpt lat="44.5628065" lon="10.3306239"><ele>321.0</ele><time>2026-04-10T14:21:59.05Z</time></trkpt><trkpt lat="44.5628075" lon="10.3304927"><ele>321.0</ele><time>2026-04-10T14:22:00.051Z</time></trkpt><trkpt lat="44.5628038" lon="10.3303603"><ele>321.0</ele><time>2026-04-10T14:22:01.051Z</time></trkpt><trkpt lat="44.5627885" lon="10.3302081"><ele>319.0</ele><time>2026-04-10T14:22:02.051Z</time></trkpt><trkpt lat="44.5627694" lon="10.3300453"><ele>317.0</ele><time>2026-04-10T14:22:03.051Z</time></trkpt><trkpt lat="44.5627531" lon="10.3298867"><ele>315.0</ele><time>2026-04-10T14:22:04.05Z</time></trkpt><trkpt lat="44.5627619" lon="10.329734"><ele>313.0</ele><time>2026-04-10T14:22:05.05Z</time></trkpt><trkpt lat="44.5628096" lon="10.3296034"><ele>311.0</ele><time>2026-04-10T14:22:06.051Z</time></trkpt><trkpt lat="44.5628769" lon="10.329484"><ele>307.5</ele><time>2026-04-10T14:22:07.051Z</time></trkpt><trkpt lat="44.5629647" lon="10.3293531"><ele>304.0</ele><time>2026-04-10T14:22:08.05Z</time></trkpt><trkpt lat="44.563063" lon="10.3291989"><ele>300.5</ele><time>2026-04-10T14:22:09.051Z</time></trkpt><trkpt lat="44.5631607" lon="10.3290487"><ele>297.0</ele><time>2026-04-10T14:22:10.051Z</time></trkpt><trkpt lat="44.56326" lon="10.3289012"><ele>296.25</ele><time>2026-04-10T14:22:11.051Z</time></trkpt><trkpt lat="44.5633595" lon="10.328761"><ele>295.5</ele><time>2026-04-10T14:22:12.051Z</time></trkpt><trkpt lat="44.563463" lon="10.3286267"><ele>294.75</ele><time>2026-04-10T14:22:13.052Z</time></trkpt><trkpt lat="44.563561" lon="10.3285133"><ele>294.0</ele><time>2026-04-10T14:22:14.051Z</time></trkpt><trkpt lat="44.5636466" lon="10.3284178"><ele>294.0</ele><time>2026-04-10T14:22:15.051Z</time></trkpt><trkpt lat="44.5637297" lon="10.3283484"><ele>294.0</ele><time>2026-04-10T14:22:16.051Z</time></trkpt><trkpt lat="44.5638245" lon="10.3283169"><ele>294.0</ele><time>2026-04-10T14:22:17.051Z</time></trkpt><trkpt lat="44.5639242" lon="10.32833"><ele>294.0</ele><time>2026-04-10T14:22:18.051Z</time></trkpt><trkpt lat="44.5640256" lon="10.3283797"><ele>294.0</ele><time>2026-04-10T14:22:19.051Z</time></trkpt><trkpt lat="44.5641354" lon="10.3284513"><ele>294.0</ele><time>2026-04-10T14:22:20.051Z</time></trkpt><trkpt lat="44.5642471" lon="10.3285434"><ele>294.0</ele><time>2026-04-10T14:22:21.051Z</time></trkpt><trkpt lat="44.5643565" lon="10.3286367"><ele>294.0</ele><time>2026-04-10T14:22:22.05Z</time></trkpt><trkpt lat="44.5644538" lon="10.3287137"><ele>294.0</ele><time>2026-04-10T14:22:23.051Z</time></trkpt><trkpt lat="44.5645406" lon="10.3287722"><ele>293.8333333333333</ele><time>2026-04-10T14:22:24.051Z</time></trkpt><trkpt lat="44.5646221" lon="10.3287928"><ele>293.6666666666667</ele><time>2026-04-10T14:22:25.051Z</time></trkpt><trkpt lat="44.5646872" lon="10.3287768"><ele>293.5</ele><time>2026-04-10T14:22:26.051Z</time></trkpt><trkpt lat="44.5647481" lon="10.3287014"><ele>293.33333333333337</ele><time>2026-04-10T14:22:27.05Z</time></trkpt><trkpt lat="44.5648037" lon="10.3286047"><ele>293.1666666666667</ele><time>2026-04-10T14:22:28.051Z</time></trkpt><trkpt lat="44.564861" lon="10.3284715"><ele>293.0</ele><time>2026-04-10T14:22:29.051Z</time></trkpt><trkpt lat="44.5649108" lon="10.3283175"><ele>293.0</ele><time>2026-04-10T14:22:30.051Z</time></trkpt><trkpt lat="44.5649433" lon="10.3281498"><ele>293.0</ele><time>2026-04-10T14:22:31.051Z</time></trkpt><trkpt lat="44.5649676" lon="10.3279962"><ele>293.0</ele><time>2026-04-10T14:22:32.051Z</time></trkpt><trkpt lat="44.5650176" lon="10.3278732"><ele>293.0</ele><time>2026-04-10T14:22:33.051Z</time></trkpt><trkpt lat="44.5650907" lon="10.3277963"><ele>293.0</ele><time>2026-04-10T14:22:34.051Z</time></trkpt><trkpt lat="44.5651947" lon="10.327754"><ele>294.6</ele><time>2026-04-10T14:22:35.051Z</time></trkpt><trkpt lat="44.5653106" lon="10.3277433"><ele>296.20000000000005</ele><time>2026-04-10T14:22:36.051Z</time></trkpt><trkpt lat="44.5654223" lon="10.3277219"><ele>297.8</ele><time>2026-04-10T14:22:37.051Z</time></trkpt><trkpt lat="44.5655189" lon="10.3276886"><ele>299.40000000000003</ele><time>2026-04-10T14:22:38.05Z</time></trkpt><trkpt lat="44.5656216" lon="10.327632"><ele>301.0</ele><time>2026-04-10T14:22:39.05Z</time></trkpt><trkpt lat="44.565721" lon="10.3275492"><ele>301.25</ele><time>2026-04-10T14:22:40.052Z</time></trkpt><trkpt lat="44.5658185" lon="10.3274405"><ele>301.5</ele><time>2026-04-10T14:22:41.051Z</time></trkpt><trkpt lat="44.5659242" lon="10.3273393"><ele>301.75</ele><time>2026-04-10T14:22:42.051Z</time></trkpt><trkpt lat="44.5660408" lon="10.3272671"><ele>302.0</ele><time>2026-04-10T14:22:43.051Z</time></trkpt><trkpt lat="44.5661504" lon="10.327218"><ele>303.0</ele><time>2026-04-10T14:22:44.051Z</time></trkpt><trkpt lat="44.5662445" lon="10.3271755"><ele>304.0</ele><time>2026-04-10T14:22:45.051Z</time></trkpt><trkpt lat="44.5663268" lon="10.3271197"><ele>305.0</ele><time>2026-04-10T14:22:46.052Z</time></trkpt><trkpt lat="44.5664066" lon="10.3270543"><ele>306.0</ele><time>2026-04-10T14:22:47.051Z</time></trkpt><trkpt lat="44.5664468" lon="10.3269126"><ele>307.0</ele><time>2026-04-10T14:22:48.051Z</time></trkpt><trkpt lat="44.5664815" lon="10.326765"><ele>307.0</ele><time>2026-04-10T14:22:49.05Z</time></trkpt><trkpt lat="44.5665099" lon="10.3266028"><ele>307.0</ele><time>2026-04-10T14:22:50.051Z</time></trkpt><trkpt lat="44.566548" lon="10.3264612"><ele>307.0</ele><time>2026-04-10T14:22:51.051Z</time></trkpt><trkpt lat="44.5666093" lon="10.3263554"><ele>307.0</ele><time>2026-04-10T14:22:53.05Z</time></trkpt><trkpt lat="44.5666962" lon="10.3263838"><ele>307.0</ele><time>2026-04-10T14:22:55.051Z</time></trkpt><trkpt lat="44.5667488" lon="10.3264457"><ele>307.0</ele><time>2026-04-10T14:22:56.051Z</time></trkpt><trkpt lat="44.5668154" lon="10.326551"><ele>307.0</ele><time>2026-04-10T14:22:57.051Z</time></trkpt><trkpt lat="44.5668931" lon="10.3266776"><ele>307.0</ele><time>2026-04-10T14:22:58.051Z</time></trkpt><trkpt lat="44.566975" lon="10.3268075"><ele>307.0</ele><time>2026-04-10T14:22:59.052Z</time></trkpt><trkpt lat="44.5670586" lon="10.3269452"><ele>308.0</ele><time>2026-04-10T14:23:00.051Z</time></trkpt><trkpt lat="44.5671437" lon="10.3270829"><ele>309.0</ele><time>2026-04-10T14:23:01.051Z</time></trkpt><trkpt lat="44.5672356" lon="10.3272135"><ele>310.0</ele><time>2026-04-10T14:23:02.05Z</time></trkpt><trkpt lat="44.5673273" lon="10.3273375"><ele>311.0</ele><time>2026-04-10T14:23:03.051Z</time></trkpt><trkpt lat="44.5674194" lon="10.3274511"><ele>311.0</ele><time>2026-04-10T14:23:04.051Z</time></trkpt><trkpt lat="44.5675055" lon="10.3275434"><ele>311.0</ele><time>2026-04-10T14:23:05.051Z</time></trkpt><trkpt lat="44.5675925" lon="10.3276348"><ele>311.0</ele><time>2026-04-10T14:23:06.051Z</time></trkpt><trkpt lat="44.5676684" lon="10.3277167"><ele>311.0</ele><time>2026-04-10T14:23:07.051Z</time></trkpt><trkpt lat="44.5677327" lon="10.3277736"><ele>311.0</ele><time>2026-04-10T14:23:08.05Z</time></trkpt><trkpt lat="44.567839" lon="10.3277804"><ele>311.5</ele><time>2026-04-10T14:23:10.051Z</time></trkpt><trkpt lat="44.5678847" lon="10.3276272"><ele>312.0</ele><time>2026-04-10T14:23:12.05Z</time></trkpt><trkpt lat="44.5679206" lon="10.3275312"><ele>312.5</ele><time>2026-04-10T14:23:13.051Z</time></trkpt><trkpt lat="44.567946" lon="10.3274217"><ele>313.0</ele><time>2026-04-10T14:23:14.051Z</time></trkpt><trkpt lat="44.567974" lon="10.3272967"><ele>313.5</ele><time>2026-04-10T14:23:15.05Z</time></trkpt><trkpt lat="44.5680029" lon="10.3272139"><ele>314.0</ele><time>2026-04-10T14:23:16.051Z</time></trkpt><trkpt lat="44.5680279" lon="10.3271116"><ele>314.5</ele><time>2026-04-10T14:23:17.052Z</time></trkpt><trkpt lat="44.5680543" lon="10.3270246"><ele>315.0</ele><time>2026-04-10T14:23:18.05Z</time></trkpt><trkpt lat="44.5680835" lon="10.3269436"><ele>315.5</ele><time>2026-04-10T14:23:19.051Z</time></trkpt><trkpt lat="44.5681111" lon="10.3268461"><ele>316.0</ele><time>2026-04-10T14:23:20.051Z</time></trkpt><trkpt lat="44.5681404" lon="10.3267385"><ele>316.5</ele><time>2026-04-10T14:23:21.05Z</time></trkpt><trkpt lat="44.5681835" lon="10.3266139"><ele>317.0</ele><time>2026-04-10T14:23:22.051Z</time></trkpt><trkpt lat="44.5682343" lon="10.3264792"><ele>318.0</ele><time>2026-04-10T14:23:23.051Z</time></trkpt><trkpt lat="44.5682877" lon="10.3263228"><ele>319.0</ele><time>2026-04-10T14:23:24.051Z</time></trkpt><trkpt lat="44.5683473" lon="10.3261543"><ele>320.0</ele><time>2026-04-10T14:23:25.052Z</time></trkpt><trkpt lat="44.568399" lon="10.3259909"><ele>321.0</ele><time>2026-04-10T14:23:26.05Z</time></trkpt><trkpt lat="44.5684584" lon="10.3258413"><ele>321.0</ele><time>2026-04-10T14:23:27.051Z</time></trkpt><trkpt lat="44.5685046" lon="10.3256915"><ele>321.0</ele><time>2026-04-10T14:23:28.051Z</time></trkpt><trkpt lat="44.5685427" lon="10.3255365"><ele>321.0</ele><time>2026-04-10T14:23:29.051Z</time></trkpt><trkpt lat="44.5685684" lon="10.3254051"><ele>321.0</ele><time>2026-04-10T14:23:30.051Z</time></trkpt><trkpt lat="44.5685894" lon="10.3252541"><ele>321.0</ele><time>2026-04-10T14:23:31.051Z</time></trkpt><trkpt lat="44.5686146" lon="10.3250967"><ele>322.75</ele><time>2026-04-10T14:23:32.051Z</time></trkpt><trkpt lat="44.5686504" lon="10.3249243"><ele>324.5</ele><time>2026-04-10T14:23:33.051Z</time></trkpt><trkpt lat="44.5686882" lon="10.3247521"><ele>326.25</ele><time>2026-04-10T14:23:34.051Z</time></trkpt><trkpt lat="44.5687124" lon="10.3245839"><ele>328.0</ele><time>2026-04-10T14:23:35.051Z</time></trkpt><trkpt lat="44.5687423" lon="10.3244015"><ele>331.25</ele><time>2026-04-10T14:23:36.05Z</time></trkpt><trkpt lat="44.5687651" lon="10.3242347"><ele>334.5</ele><time>2026-04-10T14:23:37.051Z</time></trkpt><trkpt lat="44.5687877" lon="10.3240453"><ele>337.75</ele><time>2026-04-10T14:23:38.05Z</time></trkpt><trkpt lat="44.5688117" lon="10.3238798"><ele>341.0</ele><time>2026-04-10T14:23:39.051Z</time></trkpt><trkpt lat="44.5688496" lon="10.3237225"><ele>342.25</ele><time>2026-04-10T14:23:40.051Z</time></trkpt><trkpt lat="44.5689061" lon="10.3235725"><ele>343.5</ele><time>2026-04-10T14:23:41.051Z</time></trkpt><trkpt lat="44.568988" lon="10.3234295"><ele>344.75</ele><time>2026-04-10T14:23:42.051Z</time></trkpt><trkpt lat="44.5690807" lon="10.3232817"><ele>346.0</ele><time>2026-04-10T14:23:43.05Z</time></trkpt><trkpt lat="44.5691721" lon="10.3231198"><ele>347.0</ele><time>2026-04-10T14:23:44.051Z</time></trkpt><trkpt lat="44.5692604" lon="10.3229547"><ele>348.0</ele><time>2026-04-10T14:23:45.051Z</time></trkpt><trkpt lat="44.5693523" lon="10.3227949"><ele>349.0</ele><time>2026-04-10T14:23:46.051Z</time></trkpt><trkpt lat="44.5694442" lon="10.3226347"><ele>350.0</ele><time>2026-04-10T14:23:47.051Z</time></trkpt><trkpt lat="44.5695359" lon="10.3224848"><ele>351.0</ele><time>2026-04-10T14:23:48.051Z</time></trkpt><trkpt lat="44.5696251" lon="10.3223296"><ele>352.0</ele><time>2026-04-10T14:23:49.051Z</time></trkpt><trkpt lat="44.5697257" lon="10.3221681"><ele>353.0</ele><time>2026-04-10T14:23:50.052Z</time></trkpt><trkpt lat="44.5698283" lon="10.3220054"><ele>354.25</ele><time>2026-04-10T14:23:51.051Z</time></trkpt><trkpt lat="44.5699215" lon="10.3218443"><ele>355.5</ele><time>2026-04-10T14:23:52.051Z</time></trkpt><trkpt lat="44.5700138" lon="10.3216867"><ele>356.75</ele><time>2026-04-10T14:23:53.05Z</time></trkpt><trkpt lat="44.5701064" lon="10.3215345"><ele>358.0</ele><time>2026-04-10T14:23:54.051Z</time></trkpt><trkpt lat="44.5701977" lon="10.3213689"><ele>359.5</ele><time>2026-04-10T14:23:55.051Z</time></trkpt><trkpt lat="44.5702835" lon="10.3212124"><ele>361.0</ele><time>2026-04-10T14:23:56.051Z</time></trkpt><trkpt lat="44.570367" lon="10.3210637"><ele>362.5</ele><time>2026-04-10T14:23:57.05Z</time></trkpt><trkpt lat="44.5704507" lon="10.3209172"><ele>364.0</ele><time>2026-04-10T14:23:58.051Z</time></trkpt><trkpt lat="44.5705234" lon="10.320753"><ele>366.25</ele><time>2026-04-10T14:23:59.051Z</time></trkpt><trkpt lat="44.5705841" lon="10.3205897"><ele>368.5</ele><time>2026-04-10T14:24:00.052Z</time></trkpt><trkpt lat="44.570644" lon="10.3204201"><ele>370.75</ele><time>2026-04-10T14:24:01.051Z</time></trkpt><trkpt lat="44.5706966" lon="10.3202466"><ele>373.0</ele><time>2026-04-10T14:24:02.051Z</time></trkpt><trkpt lat="44.5707555" lon="10.3200961"><ele>374.3333333333333</ele><time>2026-04-10T14:24:03.051Z</time></trkpt><trkpt lat="44.5708093" lon="10.3199467"><ele>375.66666666666663</ele><time>2026-04-10T14:24:04.051Z</time></trkpt><trkpt lat="44.5708699" lon="10.3198559"><ele>377.0</ele><time>2026-04-10T14:24:05.051Z</time></trkpt><trkpt lat="44.5709173" lon="10.3197691"><ele>378.3333333333333</ele><time>2026-04-10T14:24:06.051Z</time></trkpt><trkpt lat="44.5709686" lon="10.3197015"><ele>379.6666666666667</ele><time>2026-04-10T14:24:07.051Z</time></trkpt><trkpt lat="44.5710114" lon="10.3196218"><ele>381.0</ele><time>2026-04-10T14:24:08.051Z</time></trkpt><trkpt lat="44.5710615" lon="10.319539"><ele>382.20000000000005</ele><time>2026-04-10T14:24:09.051Z</time></trkpt><trkpt lat="44.5711147" lon="10.3194271"><ele>383.40000000000003</ele><time>2026-04-10T14:24:10.05Z</time></trkpt><trkpt lat="44.5711723" lon="10.3193037"><ele>384.6</ele><time>2026-04-10T14:24:11.05Z</time></trkpt><trkpt lat="44.5712291" lon="10.3191803"><ele>385.8</ele><time>2026-04-10T14:24:12.052Z</time></trkpt><trkpt lat="44.5712911" lon="10.3190797"><ele>387.0</ele><time>2026-04-10T14:24:13.051Z</time></trkpt><trkpt lat="44.5713516" lon="10.3189945"><ele>389.8333333333333</ele><time>2026-04-10T14:24:14.051Z</time></trkpt><trkpt lat="44.5714135" lon="10.3189268"><ele>392.66666666666663</ele><time>2026-04-10T14:24:15.051Z</time></trkpt><trkpt lat="44.571488" lon="10.3188732"><ele>395.5</ele><time>2026-04-10T14:24:16.051Z</time></trkpt><trkpt lat="44.5715709" lon="10.3188303"><ele>398.3333333333333</ele><time>2026-04-10T14:24:17.051Z</time></trkpt><trkpt lat="44.571662" lon="10.3187934"><ele>401.16666666666663</ele><time>2026-04-10T14:24:18.051Z</time></trkpt><trkpt lat="44.5717507" lon="10.3187642"><ele>404.0</ele><time>2026-04-10T14:24:19.051Z</time></trkpt><trkpt lat="44.5718691" lon="10.3186859"><ele>404.6</ele><time>2026-04-10T14:24:20.051Z</time></trkpt><trkpt lat="44.5719667" lon="10.3186316"><ele>405.2</ele><time>2026-04-10T14:24:21.051Z</time></trkpt><trkpt lat="44.5720479" lon="10.3185906"><ele>405.8</ele><time>2026-04-10T14:24:22.05Z</time></trkpt><trkpt lat="44.5721054" lon="10.3185523"><ele>406.40000000000003</ele><time>2026-04-10T14:24:23.05Z</time></trkpt><trkpt lat="44.5722009" lon="10.3184233"><ele>407.0</ele><time>2026-04-10T14:24:25.052Z</time></trkpt><trkpt lat="44.5722498" lon="10.3183291"><ele>408.6</ele><time>2026-04-10T14:24:26.051Z</time></trkpt><trkpt lat="44.572326" lon="10.3182105"><ele>410.20000000000005</ele><time>2026-04-10T14:24:27.051Z</time></trkpt><trkpt lat="44.5724072" lon="10.3180891"><ele>411.8</ele><time>2026-04-10T14:24:28.051Z</time></trkpt><trkpt lat="44.5724736" lon="10.3180153"><ele>413.4</ele><time>2026-04-10T14:24:29.051Z</time></trkpt><trkpt lat="44.5725272" lon="10.3179246"><ele>415.0</ele><time>2026-04-10T14:24:30.051Z</time></trkpt><trkpt lat="44.5725763" lon="10.3178273"><ele>416.00000000000006</ele><time>2026-04-10T14:24:31.051Z</time></trkpt><trkpt lat="44.5726285" lon="10.3177202"><ele>417.0</ele><time>2026-04-10T14:24:32.051Z</time></trkpt><trkpt lat="44.5726882" lon="10.3176283"><ele>418.0</ele><time>2026-04-10T14:24:33.051Z</time></trkpt><trkpt lat="44.5727401" lon="10.3175253"><ele>419.0</ele><time>2026-04-10T14:24:34.051Z</time></trkpt><trkpt lat="44.5728031" lon="10.317432"><ele>420.00000000000006</ele><time>2026-04-10T14:24:35.05Z</time></trkpt><trkpt lat="44.5728588" lon="10.3173427"><ele>421.0</ele><time>2026-04-10T14:24:36.051Z</time></trkpt><trkpt lat="44.5729072" lon="10.3172669"><ele>424.4</ele><time>2026-04-10T14:24:37.051Z</time></trkpt><trkpt lat="44.5729663" lon="10.3171839"><ele>427.8</ele><time>2026-04-10T14:24:38.051Z</time></trkpt><trkpt lat="44.5730182" lon="10.317109"><ele>431.19999999999993</ele><time>2026-04-10T14:24:39.051Z</time></trkpt><trkpt lat="44.5730982" lon="10.3170373"><ele>434.59999999999997</ele><time>2026-04-10T14:24:40.051Z</time></trkpt><trkpt lat="44.5731705" lon="10.316973"><ele>438.0</ele><time>2026-04-10T14:24:41.05Z</time></trkpt><trkpt lat="44.573278" lon="10.3168662"><ele>438.0</ele><time>2026-04-10T14:24:43.051Z</time></trkpt><trkpt lat="44.5733519" lon="10.3167873"><ele>437.99999999999994</ele><time>2026-04-10T14:24:44.051Z</time></trkpt><trkpt lat="44.5734332" lon="10.3167176"><ele>437.99999999999994</ele><time>2026-04-10T14:24:45.051Z</time></trkpt><trkpt lat="44.5735169" lon="10.316621"><ele>438.0</ele><time>2026-04-10T14:24:46.051Z</time></trkpt><trkpt lat="44.5735925" lon="10.3165582"><ele>438.0</ele><time>2026-04-10T14:24:47.051Z</time></trkpt><trkpt lat="44.573669" lon="10.3164925"><ele>440.1666666666667</ele><time>2026-04-10T14:24:48.051Z</time></trkpt><trkpt lat="44.57378" lon="10.3164393"><ele>442.33333333333337</ele><time>2026-04-10T14:24:50.05Z</time></trkpt><trkpt lat="44.5738423" lon="10.3164936"><ele>444.5</ele><time>2026-04-10T14:24:51.051Z</time></trkpt><trkpt lat="44.5739133" lon="10.3165328"><ele>446.6666666666667</ele><time>2026-04-10T14:24:52.051Z</time></trkpt><trkpt lat="44.5739769" lon="10.3165809"><ele>448.83333333333337</ele><time>2026-04-10T14:24:53.05Z</time></trkpt><trkpt lat="44.5740377" lon="10.3166494"><ele>451.0</ele><time>2026-04-10T14:24:54.05Z</time></trkpt><trkpt lat="44.5741233" lon="10.3166882"><ele>451.00000000000006</ele><time>2026-04-10T14:24:55.051Z</time></trkpt><trkpt lat="44.5741872" lon="10.3167421"><ele>451.0</ele><time>2026-04-10T14:24:56.051Z</time></trkpt><trkpt lat="44.5742769" lon="10.3168137"><ele>451.0</ele><time>2026-04-10T14:24:58.051Z</time></trkpt><trkpt lat="44.5743273" lon="10.3168937"><ele>451.0</ele><time>2026-04-10T14:25:01.051Z</time></trkpt><trkpt lat="44.5743765" lon="10.3169563"><ele>451.00000000000006</ele><time>2026-04-10T14:25:04.051Z</time></trkpt><trkpt lat="44.5744474" lon="10.3170283"><ele>451.0</ele><time>2026-04-10T14:25:06.051Z</time></trkpt><trkpt lat="44.574505" lon="10.3170903"><ele>452.4</ele><time>2026-04-10T14:25:07.051Z</time></trkpt><trkpt lat="44.574581" lon="10.3171722"><ele>453.8</ele><time>2026-04-10T14:25:08.051Z</time></trkpt><trkpt lat="44.5746572" lon="10.3172513"><ele>455.19999999999993</ele><time>2026-04-10T14:25:09.051Z</time></trkpt><trkpt lat="44.5747486" lon="10.3173081"><ele>456.59999999999997</ele><time>2026-04-10T14:25:10.051Z</time></trkpt><trkpt lat="44.5748369" lon="10.3173845"><ele>458.0</ele><time>2026-04-10T14:25:11.051Z</time></trkpt><trkpt lat="44.5749156" lon="10.3174544"><ele>457.99999999999994</ele><time>2026-04-10T14:25:12.051Z</time></trkpt><trkpt lat="44.5749892" lon="10.3175417"><ele>458.0</ele><time>2026-04-10T14:25:13.051Z</time></trkpt><trkpt lat="44.575063" lon="10.317627"><ele>458.0</ele><time>2026-04-10T14:25:14.051Z</time></trkpt><trkpt lat="44.5751306" lon="10.3177159"><ele>458.0</ele><time>2026-04-10T14:25:15.051Z</time></trkpt><trkpt lat="44.5751648" lon="10.3177925"><ele>457.99999999999994</ele><time>2026-04-10T14:25:16.051Z</time></trkpt><trkpt lat="44.5752374" lon="10.3178407"><ele>458.0</ele><time>2026-04-10T14:25:18.05Z</time></trkpt><trkpt lat="44.5753376" lon="10.3178019"><ele>458.4</ele><time>2026-04-10T14:25:20.05Z</time></trkpt><trkpt lat="44.5754016" lon="10.3177233"><ele>458.79999999999995</ele><time>2026-04-10T14:25:21.05Z</time></trkpt><trkpt lat="44.5754616" lon="10.3176225"><ele>459.2</ele><time>2026-04-10T14:25:22.05Z</time></trkpt><trkpt lat="44.5755102" lon="10.3174897"><ele>459.6</ele><time>2026-04-10T14:25:23.049Z</time></trkpt><trkpt lat="44.5755378" lon="10.3173519"><ele>460.0</ele><time>2026-04-10T14:25:24.05Z</time></trkpt><trkpt lat="44.5755544" lon="10.317194"><ele>460.75</ele><time>2026-04-10T14:25:25.05Z</time></trkpt><trkpt lat="44.5755567" lon="10.3170361"><ele>461.5</ele><time>2026-04-10T14:25:26.05Z</time></trkpt><trkpt lat="44.5755357" lon="10.3168724"><ele>462.25</ele><time>2026-04-10T14:25:27.05Z</time></trkpt><trkpt lat="44.5755106" lon="10.3167095"><ele>463.0</ele><time>2026-04-10T14:25:28.05Z</time></trkpt><trkpt lat="44.5754997" lon="10.3165503"><ele>463.0</ele><time>2026-04-10T14:25:29.05Z</time></trkpt><trkpt lat="44.5754821" lon="10.3164066"><ele>462.99999999999994</ele><time>2026-04-10T14:25:30.05Z</time></trkpt><trkpt lat="44.5754709" lon="10.3162716"><ele>462.99999999999994</ele><time>2026-04-10T14:25:31.05Z</time></trkpt><trkpt lat="44.5754582" lon="10.3161395"><ele>463.0</ele><time>2026-04-10T14:25:32.05Z</time></trkpt><trkpt lat="44.5754419" lon="10.3159998"><ele>463.0</ele><time>2026-04-10T14:25:33.05Z</time></trkpt><trkpt lat="44.5754243" lon="10.3158657"><ele>465.59999999999997</ele><time>2026-04-10T14:25:34.049Z</time></trkpt><trkpt lat="44.5754154" lon="10.3157547"><ele>468.19999999999993</ele><time>2026-04-10T14:25:35.05Z</time></trkpt><trkpt lat="44.5754167" lon="10.3156099"><ele>470.8</ele><time>2026-04-10T14:25:37.05Z</time></trkpt><trkpt lat="44.5754677" lon="10.3155229"><ele>473.4</ele><time>2026-04-10T14:25:39.05Z</time></trkpt><trkpt lat="44.5756114" lon="10.3154988"><ele>476.0</ele><time>2026-04-10T14:25:41.05Z</time></trkpt><trkpt lat="44.5757123" lon="10.3155003"><ele>479.0</ele><time>2026-04-10T14:25:42.05Z</time></trkpt><trkpt lat="44.5758135" lon="10.3154956"><ele>482.0</ele><time>2026-04-10T14:25:43.05Z</time></trkpt><trkpt lat="44.5759269" lon="10.3154455"><ele>485.0</ele><time>2026-04-10T14:25:44.05Z</time></trkpt><trkpt lat="44.5760252" lon="10.3153687"><ele>488.0</ele><time>2026-04-10T14:25:45.05Z</time></trkpt><trkpt lat="44.5761085" lon="10.3152648"><ele>491.0</ele><time>2026-04-10T14:25:46.05Z</time></trkpt><trkpt lat="44.5761831" lon="10.3151172"><ele>489.75</ele><time>2026-04-10T14:25:47.05Z</time></trkpt><trkpt lat="44.5762406" lon="10.3149717"><ele>488.5</ele><time>2026-04-10T14:25:48.05Z</time></trkpt><trkpt lat="44.576282" lon="10.3148045"><ele>487.25</ele><time>2026-04-10T14:25:49.05Z</time></trkpt><trkpt lat="44.5762901" lon="10.3146408"><ele>486.0</ele><time>2026-04-10T14:25:50.05Z</time></trkpt><trkpt lat="44.5762944" lon="10.3144867"><ele>486.0</ele><time>2026-04-10T14:25:51.049Z</time></trkpt><trkpt lat="44.5762854" lon="10.3143269"><ele>486.0</ele><time>2026-04-10T14:25:52.049Z</time></trkpt><trkpt lat="44.5762857" lon="10.3141666"><ele>486.0</ele><time>2026-04-10T14:25:53.05Z</time></trkpt><trkpt lat="44.5763031" lon="10.3140141"><ele>486.0</ele><time>2026-04-10T14:25:54.05Z</time></trkpt><trkpt lat="44.576328" lon="10.3138599"><ele>486.4</ele><time>2026-04-10T14:25:55.05Z</time></trkpt><trkpt lat="44.576356" lon="10.3137116"><ele>486.8</ele><time>2026-04-10T14:25:56.05Z</time></trkpt><trkpt lat="44.5764052" lon="10.3135714"><ele>487.19999999999993</ele><time>2026-04-10T14:25:57.049Z</time></trkpt><trkpt lat="44.5764625" lon="10.3134386"><ele>487.59999999999997</ele><time>2026-04-10T14:25:58.05Z</time></trkpt><trkpt lat="44.5765438" lon="10.3133498"><ele>488.0</ele><time>2026-04-10T14:25:59.05Z</time></trkpt><trkpt lat="44.5766332" lon="10.3132821"><ele>488.0</ele><time>2026-04-10T14:26:00.05Z</time></trkpt><trkpt lat="44.5767413" lon="10.3132843"><ele>488.0</ele><time>2026-04-10T14:26:01.049Z</time></trkpt><trkpt lat="44.5768529" lon="10.3133185"><ele>488.0</ele><time>2026-04-10T14:26:02.05Z</time></trkpt><trkpt lat="44.5769634" lon="10.3133855"><ele>488.0</ele><time>2026-04-10T14:26:03.049Z</time></trkpt><trkpt lat="44.5770698" lon="10.3134738"><ele>489.0</ele><time>2026-04-10T14:26:04.05Z</time></trkpt><trkpt lat="44.5771716" lon="10.3135585"><ele>489.99999999999994</ele><time>2026-04-10T14:26:05.05Z</time></trkpt><trkpt lat="44.5772652" lon="10.3136287"><ele>490.99999999999994</ele><time>2026-04-10T14:26:06.051Z</time></trkpt><trkpt lat="44.5773551" lon="10.3136936"><ele>492.0</ele><time>2026-04-10T14:26:07.05Z</time></trkpt><trkpt lat="44.5774385" lon="10.3137594"><ele>493.0</ele><time>2026-04-10T14:26:08.05Z</time></trkpt><trkpt lat="44.5775297" lon="10.3138156"><ele>493.0</ele><time>2026-04-10T14:26:09.05Z</time></trkpt><trkpt lat="44.5776164" lon="10.3138643"><ele>492.99999999999994</ele><time>2026-04-10T14:26:10.05Z</time></trkpt><trkpt lat="44.5777266" lon="10.313889"><ele>492.99999999999994</ele><time>2026-04-10T14:26:11.05Z</time></trkpt><trkpt lat="44.5778359" lon="10.3138952"><ele>493.0</ele><time>2026-04-10T14:26:12.05Z</time></trkpt><trkpt lat="44.577946" lon="10.3138918"><ele>493.0</ele><time>2026-04-10T14:26:13.05Z</time></trkpt><trkpt lat="44.5780517" lon="10.3138854"><ele>494.75</ele><time>2026-04-10T14:26:14.049Z</time></trkpt><trkpt lat="44.5781694" lon="10.3138664"><ele>496.5</ele><time>2026-04-10T14:26:15.05Z</time></trkpt><trkpt lat="44.5782974" lon="10.3138296"><ele>498.25</ele><time>2026-04-10T14:26:16.05Z</time></trkpt><trkpt lat="44.5784146" lon="10.3137799"><ele>500.0</ele><time>2026-04-10T14:26:17.05Z</time></trkpt><trkpt lat="44.5785338" lon="10.3137036"><ele>500.0</ele><time>2026-04-10T14:26:18.05Z</time></trkpt><trkpt lat="44.5786419" lon="10.313593"><ele>500.0</ele><time>2026-04-10T14:26:19.05Z</time></trkpt><trkpt lat="44.5787534" lon="10.3134651"><ele>500.0</ele><time>2026-04-10T14:26:20.05Z</time></trkpt><trkpt lat="44.5788615" lon="10.3133482"><ele>500.0</ele><time>2026-04-10T14:26:21.05Z</time></trkpt><trkpt lat="44.5789687" lon="10.3132869"><ele>499.75</ele><time>2026-04-10T14:26:22.05Z</time></trkpt><trkpt lat="44.579097" lon="10.3132531"><ele>499.5</ele><time>2026-04-10T14:26:23.05Z</time></trkpt><trkpt lat="44.5792473" lon="10.3133074"><ele>499.25</ele><time>2026-04-10T14:26:24.049Z</time></trkpt><trkpt lat="44.5794015" lon="10.3133277"><ele>499.0</ele><time>2026-04-10T14:26:25.05Z</time></trkpt><trkpt lat="44.5795666" lon="10.3133263"><ele>500.0</ele><time>2026-04-10T14:26:26.049Z</time></trkpt><trkpt lat="44.5797195" lon="10.3133028"><ele>501.0</ele><time>2026-04-10T14:26:27.05Z</time></trkpt><trkpt lat="44.5798489" lon="10.3132895"><ele>502.0</ele><time>2026-04-10T14:26:28.05Z</time></trkpt><trkpt lat="44.5799746" lon="10.3132878"><ele>503.0</ele><time>2026-04-10T14:26:29.05Z</time></trkpt><trkpt lat="44.5800839" lon="10.3132802"><ele>502.99999999999994</ele><time>2026-04-10T14:26:30.05Z</time></trkpt><trkpt lat="44.5801832" lon="10.3132787"><ele>503.0</ele><time>2026-04-10T14:26:31.05Z</time></trkpt><trkpt lat="44.5802779" lon="10.3132779"><ele>503.0</ele><time>2026-04-10T14:26:32.05Z</time></trkpt><trkpt lat="44.5803727" lon="10.3132868"><ele>503.0</ele><time>2026-04-10T14:26:33.05Z</time></trkpt><trkpt lat="44.5804374" lon="10.3133426"><ele>502.99999999999994</ele><time>2026-04-10T14:26:34.05Z</time></trkpt><trkpt lat="44.5805154" lon="10.3133774"><ele>503.0</ele><time>2026-04-10T14:26:35.051Z</time></trkpt><trkpt lat="44.5805917" lon="10.3134792"><ele>506.25</ele><time>2026-04-10T14:26:36.05Z</time></trkpt><trkpt lat="44.5806839" lon="10.313589"><ele>509.5</ele><time>2026-04-10T14:26:37.05Z</time></trkpt><trkpt lat="44.5807839" lon="10.313694"><ele>512.75</ele><time>2026-04-10T14:26:38.05Z</time></trkpt><trkpt lat="44.5808796" lon="10.3137948"><ele>516.0</ele><time>2026-04-10T14:26:39.05Z</time></trkpt><trkpt lat="44.580963" lon="10.3138814"><ele>515.8333333333334</ele><time>2026-04-10T14:26:40.05Z</time></trkpt><trkpt lat="44.5810304" lon="10.3139732"><ele>515.6666666666666</ele><time>2026-04-10T14:26:41.05Z</time></trkpt><trkpt lat="44.5810889" lon="10.3140416"><ele>515.5</ele><time>2026-04-10T14:26:42.05Z</time></trkpt><trkpt lat="44.5811335" lon="10.3141046"><ele>515.3333333333333</ele><time>2026-04-10T14:26:43.05Z</time></trkpt><trkpt lat="44.5811831" lon="10.3141688"><ele>515.1666666666666</ele><time>2026-04-10T14:26:44.05Z</time></trkpt><trkpt lat="44.5812402" lon="10.3142297"><ele>515.0</ele><time>2026-04-10T14:26:45.05Z</time></trkpt><trkpt lat="44.5813536" lon="10.314307"><ele>515.0</ele><time>2026-04-10T14:26:47.05Z</time></trkpt><trkpt lat="44.5814626" lon="10.3143523"><ele>515.0</ele><time>2026-04-10T14:26:49.05Z</time></trkpt><trkpt lat="44.5815306" lon="10.3143887"><ele>515.0</ele><time>2026-04-10T14:26:50.05Z</time></trkpt><trkpt lat="44.5815881" lon="10.314426"><ele>515.0</ele><time>2026-04-10T14:26:51.05Z</time></trkpt><trkpt lat="44.5816492" lon="10.3144588"><ele>515.0</ele><time>2026-04-10T14:26:52.05Z</time></trkpt><trkpt lat="44.5817578" lon="10.3144738"><ele>515.0</ele><time>2026-04-10T14:26:54.049Z</time></trkpt><trkpt lat="44.5818313" lon="10.3144154"><ele>515.0</ele><time>2026-04-10T14:26:57.05Z</time></trkpt><trkpt lat="44.581884" lon="10.314334"><ele>515.0</ele><time>2026-04-10T14:26:59.05Z</time></trkpt><trkpt lat="44.5819605" lon="10.3142287"><ele>515.0</ele><time>2026-04-10T14:27:01.049Z</time></trkpt><trkpt lat="44.582061" lon="10.3142152"><ele>515.0</ele><time>2026-04-10T14:27:03.05Z</time></trkpt><trkpt lat="44.5821678" lon="10.3142665"><ele>515.0</ele><time>2026-04-10T14:27:05.05Z</time></trkpt><trkpt lat="44.5822546" lon="10.3142988"><ele>515.8333333333333</ele><time>2026-04-10T14:27:07.049Z</time></trkpt><trkpt lat="44.582324" lon="10.3143155"><ele>516.6666666666666</ele><time>2026-04-10T14:27:08.049Z</time></trkpt><trkpt lat="44.5824322" lon="10.3143416"><ele>517.5</ele><time>2026-04-10T14:27:10.05Z</time></trkpt><trkpt lat="44.5824806" lon="10.3144224"><ele>518.3333333333334</ele><time>2026-04-10T14:27:12.049Z</time></trkpt><trkpt lat="44.5825086" lon="10.3145612"><ele>519.1666666666667</ele><time>2026-04-10T14:27:14.05Z</time></trkpt><trkpt lat="44.5825358" lon="10.3146826"><ele>520.0</ele><time>2026-04-10T14:27:16.05Z</time></trkpt><trkpt lat="44.5825785" lon="10.3148005"><ele>520.0</ele><time>2026-04-10T14:27:18.049Z</time></trkpt><trkpt lat="44.5826252" lon="10.3148833"><ele>520.0</ele><time>2026-04-10T14:27:20.05Z</time></trkpt><trkpt lat="44.5826469" lon="10.3150054"><ele>520.0</ele><time>2026-04-10T14:27:22.05Z</time></trkpt><trkpt lat="44.5826868" lon="10.3151074"><ele>520.0</ele><time>2026-04-10T14:27:24.05Z</time></trkpt><trkpt lat="44.5827866" lon="10.3152223"><ele>520.0</ele><time>2026-04-10T14:27:26.05Z</time></trkpt><trkpt lat="44.5828508" lon="10.3152893"><ele>522.6666666666667</ele><time>2026-04-10T14:27:27.05Z</time></trkpt><trkpt lat="44.5829261" lon="10.3153582"><ele>525.3333333333334</ele><time>2026-04-10T14:27:28.05Z</time></trkpt><trkpt lat="44.5829979" lon="10.3154043"><ele>528.0</ele><time>2026-04-10T14:27:29.05Z</time></trkpt><trkpt lat="44.5830698" lon="10.3154478"><ele>530.6666666666666</ele><time>2026-04-10T14:27:30.05Z</time></trkpt><trkpt lat="44.5831316" lon="10.3154887"><ele>533.3333333333333</ele><time>2026-04-10T14:27:31.05Z</time></trkpt><trkpt lat="44.5832208" lon="10.3155218"><ele>536.0</ele><time>2026-04-10T14:27:33.05Z</time></trkpt><trkpt lat="44.5832896" lon="10.3155138"><ele>536.0</ele><time>2026-04-10T14:27:34.049Z</time></trkpt><trkpt lat="44.5833696" lon="10.3154785"><ele>536.0</ele><time>2026-04-10T14:27:35.049Z</time></trkpt><trkpt lat="44.5834692" lon="10.3154195"><ele>536.0</ele><time>2026-04-10T14:27:36.049Z</time></trkpt><trkpt lat="44.5835652" lon="10.3153554"><ele>536.0</ele><time>2026-04-10T14:27:37.049Z</time></trkpt><trkpt lat="44.5836548" lon="10.3152307"><ele>536.0</ele><time>2026-04-10T14:27:38.05Z</time></trkpt><trkpt lat="44.5837337" lon="10.3150987"><ele>536.2</ele><time>2026-04-10T14:27:39.05Z</time></trkpt><trkpt lat="44.583795" lon="10.3149551"><ele>536.4000000000001</ele><time>2026-04-10T14:27:40.05Z</time></trkpt><trkpt lat="44.5838416" lon="10.3148375"><ele>536.6</ele><time>2026-04-10T14:27:41.05Z</time></trkpt><trkpt lat="44.5838846" lon="10.3147181"><ele>536.8000000000001</ele><time>2026-04-10T14:27:42.05Z</time></trkpt><trkpt lat="44.583931" lon="10.3145908"><ele>537.0</ele><time>2026-04-10T14:27:43.05Z</time></trkpt><trkpt lat="44.5839932" lon="10.314466"><ele>537.0</ele><time>2026-04-10T14:27:44.05Z</time></trkpt><trkpt lat="44.5840487" lon="10.3143432"><ele>537.0</ele><time>2026-04-10T14:27:45.05Z</time></trkpt><trkpt lat="44.5841706" lon="10.3142725"><ele>537.0</ele><time>2026-04-10T14:27:46.05Z</time></trkpt><trkpt lat="44.5842817" lon="10.314186"><ele>537.0</ele><time>2026-04-10T14:27:47.049Z</time></trkpt><trkpt lat="44.5844109" lon="10.3141169"><ele>536.75</ele><time>2026-04-10T14:27:48.05Z</time></trkpt><trkpt lat="44.5845464" lon="10.3140699"><ele>536.5</ele><time>2026-04-10T14:27:49.05Z</time></trkpt><trkpt lat="44.5846756" lon="10.3140337"><ele>536.25</ele><time>2026-04-10T14:27:50.05Z</time></trkpt><trkpt lat="44.5848041" lon="10.3140175"><ele>536.0</ele><time>2026-04-10T14:27:51.05Z</time></trkpt><trkpt lat="44.5849284" lon="10.3140241"><ele>536.0</ele><time>2026-04-10T14:27:52.049Z</time></trkpt><trkpt lat="44.5850559" lon="10.3140518"><ele>536.0</ele><time>2026-04-10T14:27:53.05Z</time></trkpt><trkpt lat="44.5851868" lon="10.3141002"><ele>536.0</ele><time>2026-04-10T14:27:54.05Z</time></trkpt><trkpt lat="44.5853178" lon="10.3141511"><ele>536.0</ele><time>2026-04-10T14:27:55.05Z</time></trkpt><trkpt lat="44.5854418" lon="10.3141866"><ele>536.25</ele><time>2026-04-10T14:27:56.05Z</time></trkpt><trkpt lat="44.5855531" lon="10.3142241"><ele>536.5</ele><time>2026-04-10T14:27:57.049Z</time></trkpt><trkpt lat="44.585665" lon="10.3142707"><ele>536.75</ele><time>2026-04-10T14:27:58.05Z</time></trkpt><trkpt lat="44.5857684" lon="10.3143596"><ele>537.0</ele><time>2026-04-10T14:27:59.05Z</time></trkpt><trkpt lat="44.5858653" lon="10.3144437"><ele>537.0</ele><time>2026-04-10T14:28:00.05Z</time></trkpt><trkpt lat="44.5859688" lon="10.314511"><ele>537.0</ele><time>2026-04-10T14:28:01.05Z</time></trkpt><trkpt lat="44.5860863" lon="10.3145614"><ele>537.0</ele><time>2026-04-10T14:28:02.05Z</time></trkpt><trkpt lat="44.5862159" lon="10.3146185"><ele>537.0</ele><time>2026-04-10T14:28:03.05Z</time></trkpt><trkpt lat="44.5863473" lon="10.3146822"><ele>535.6</ele><time>2026-04-10T14:28:04.05Z</time></trkpt><trkpt lat="44.5864623" lon="10.3147342"><ele>534.2</ele><time>2026-04-10T14:28:05.05Z</time></trkpt><trkpt lat="44.5865534" lon="10.3147942"><ele>532.8</ele><time>2026-04-10T14:28:06.05Z</time></trkpt><trkpt lat="44.58663" lon="10.3148528"><ele>531.4</ele><time>2026-04-10T14:28:07.05Z</time></trkpt><trkpt lat="44.5866997" lon="10.3149139"><ele>530.0</ele><time>2026-04-10T14:28:08.049Z</time></trkpt><trkpt lat="44.5867777" lon="10.31498"><ele>533.6666666666666</ele><time>2026-04-10T14:28:09.05Z</time></trkpt><trkpt lat="44.5868456" lon="10.3150401"><ele>537.3333333333333</ele><time>2026-04-10T14:28:10.049Z</time></trkpt><trkpt lat="44.5869066" lon="10.3151126"><ele>541.0</ele><time>2026-04-10T14:28:11.05Z</time></trkpt><trkpt lat="44.5869766" lon="10.3151773"><ele>544.6666666666666</ele><time>2026-04-10T14:28:12.05Z</time></trkpt><trkpt lat="44.587054" lon="10.315248"><ele>548.3333333333334</ele><time>2026-04-10T14:28:13.05Z</time></trkpt><trkpt lat="44.5871336" lon="10.3152998"><ele>552.0</ele><time>2026-04-10T14:28:14.05Z</time></trkpt><trkpt lat="44.5872452" lon="10.315337"><ele>552.75</ele><time>2026-04-10T14:28:15.049Z</time></trkpt><trkpt lat="44.5873611" lon="10.3153906"><ele>553.5</ele><time>2026-04-10T14:28:16.05Z</time></trkpt><trkpt lat="44.5874971" lon="10.3154318"><ele>554.25</ele><time>2026-04-10T14:28:17.05Z</time></trkpt><trkpt lat="44.5876055" lon="10.3154799"><ele>555.0</ele><time>2026-04-10T14:28:18.05Z</time></trkpt><trkpt lat="44.5877289" lon="10.3155163"><ele>556.0</ele><time>2026-04-10T14:28:19.05Z</time></trkpt><trkpt lat="44.5878603" lon="10.3155577"><ele>557.0</ele><time>2026-04-10T14:28:20.05Z</time></trkpt><trkpt lat="44.5880108" lon="10.3156029"><ele>558.0</ele><time>2026-04-10T14:28:21.05Z</time></trkpt><trkpt lat="44.5881455" lon="10.3156426"><ele>559.0</ele><time>2026-04-10T14:28:22.05Z</time></trkpt><trkpt lat="44.5882946" lon="10.3156956"><ele>559.0</ele><time>2026-04-10T14:28:23.05Z</time></trkpt><trkpt lat="44.5884222" lon="10.3157422"><ele>559.0</ele><time>2026-04-10T14:28:24.049Z</time></trkpt><trkpt lat="44.5885345" lon="10.3157825"><ele>559.0</ele><time>2026-04-10T14:28:25.05Z</time></trkpt><trkpt lat="44.5886455" lon="10.315812"><ele>559.0</ele><time>2026-04-10T14:28:26.05Z</time></trkpt><trkpt lat="44.5887347" lon="10.3158428"><ele>558.8</ele><time>2026-04-10T14:28:27.05Z</time></trkpt><trkpt lat="44.5888157" lon="10.3158784"><ele>558.5999999999999</ele><time>2026-04-10T14:28:28.05Z</time></trkpt><trkpt lat="44.5889087" lon="10.3159247"><ele>558.4</ele><time>2026-04-10T14:28:29.049Z</time></trkpt><trkpt lat="44.589001" lon="10.3159747"><ele>558.1999999999999</ele><time>2026-04-10T14:28:30.05Z</time></trkpt><trkpt lat="44.5890917" lon="10.3160292"><ele>558.0</ele><time>2026-04-10T14:28:31.05Z</time></trkpt><trkpt lat="44.5891694" lon="10.3160804"><ele>558.0</ele><time>2026-04-10T14:28:32.05Z</time></trkpt><trkpt lat="44.5892586" lon="10.3161248"><ele>558.0</ele><time>2026-04-10T14:28:33.05Z</time></trkpt><trkpt lat="44.589366" lon="10.3161565"><ele>558.0</ele><time>2026-04-10T14:28:35.049Z</time></trkpt><trkpt lat="44.5894334" lon="10.3161497"><ele>558.0</ele><time>2026-04-10T14:28:36.05Z</time></trkpt><trkpt lat="44.5895197" lon="10.3161157"><ele>558.0</ele><time>2026-04-10T14:28:37.05Z</time></trkpt><trkpt lat="44.5896011" lon="10.3160891"><ele>558.0</ele><time>2026-04-10T14:28:38.05Z</time></trkpt><trkpt lat="44.5896777" lon="10.316087"><ele>555.0</ele><time>2026-04-10T14:28:39.049Z</time></trkpt><trkpt lat="44.589759" lon="10.3161031"><ele>552.0</ele><time>2026-04-10T14:28:40.049Z</time></trkpt><trkpt lat="44.5898345" lon="10.316117"><ele>549.0</ele><time>2026-04-10T14:28:41.05Z</time></trkpt><trkpt lat="44.5899352" lon="10.3160887"><ele>546.0</ele><time>2026-04-10T14:28:42.05Z</time></trkpt><trkpt lat="44.5900366" lon="10.3160571"><ele>543.0</ele><time>2026-04-10T14:28:43.049Z</time></trkpt><trkpt lat="44.5901445" lon="10.3160208"><ele>543.0</ele><time>2026-04-10T14:28:44.049Z</time></trkpt><trkpt lat="44.5902549" lon="10.3159755"><ele>543.0</ele><time>2026-04-10T14:28:45.05Z</time></trkpt><trkpt lat="44.5903565" lon="10.3159416"><ele>543.0</ele><time>2026-04-10T14:28:46.05Z</time></trkpt><trkpt lat="44.5904496" lon="10.3159363"><ele>543.0</ele><time>2026-04-10T14:28:47.05Z</time></trkpt><trkpt lat="44.5905389" lon="10.3159365"><ele>543.0</ele><time>2026-04-10T14:28:48.05Z</time></trkpt><trkpt lat="44.5906404" lon="10.3159527"><ele>539.8</ele><time>2026-04-10T14:28:49.049Z</time></trkpt><trkpt lat="44.5907288" lon="10.3160063"><ele>536.5999999999999</ele><time>2026-04-10T14:28:50.049Z</time></trkpt><trkpt lat="44.5908161" lon="10.3160328"><ele>533.4000000000001</ele><time>2026-04-10T14:28:51.05Z</time></trkpt><trkpt lat="44.5909459" lon="10.3160683"><ele>530.2</ele><time>2026-04-10T14:28:53.05Z</time></trkpt><trkpt lat="44.5910103" lon="10.3160663"><ele>527.0</ele><time>2026-04-10T14:28:54.05Z</time></trkpt><trkpt lat="44.5911191" lon="10.3161023"><ele>523.8000000000001</ele><time>2026-04-10T14:28:56.05Z</time></trkpt><trkpt lat="44.5912226" lon="10.3162044"><ele>520.6</ele><time>2026-04-10T14:28:58.05Z</time></trkpt><trkpt lat="44.5912775" lon="10.3162502"><ele>517.4000000000001</ele><time>2026-04-10T14:28:59.05Z</time></trkpt><trkpt lat="44.5913839" lon="10.3163322"><ele>514.2</ele><time>2026-04-10T14:29:01.05Z</time></trkpt><trkpt lat="44.5914792" lon="10.3163513"><ele>511.0</ele><time>2026-04-10T14:29:02.049Z</time></trkpt><trkpt lat="44.5915435" lon="10.3163511"><ele>511.00000000000006</ele><time>2026-04-10T14:29:03.049Z</time></trkpt><trkpt lat="44.5916369" lon="10.3163757"><ele>511.0</ele><time>2026-04-10T14:29:05.05Z</time></trkpt><trkpt lat="44.5917364" lon="10.316365"><ele>511.0</ele><time>2026-04-10T14:29:07.049Z</time></trkpt><trkpt lat="44.5918297" lon="10.3163747"><ele>511.0</ele><time>2026-04-10T14:29:09.05Z</time></trkpt><trkpt lat="44.591906" lon="10.3163745"><ele>511.00000000000006</ele><time>2026-04-10T14:29:10.05Z</time></trkpt><trkpt lat="44.5919741" lon="10.3163332"><ele>511.0</ele><time>2026-04-10T14:29:11.05Z</time></trkpt><trkpt lat="44.5920537" lon="10.3162842"><ele>509.75</ele><time>2026-04-10T14:29:12.05Z</time></trkpt><trkpt lat="44.5921604" lon="10.3162018"><ele>508.5</ele><time>2026-04-10T14:29:13.049Z</time></trkpt><trkpt lat="44.592269" lon="10.3160954"><ele>507.25</ele><time>2026-04-10T14:29:14.049Z</time></trkpt><trkpt lat="44.5923855" lon="10.3159849"><ele>506.0</ele><time>2026-04-10T14:29:15.049Z</time></trkpt><trkpt lat="44.5924713" lon="10.3158788"><ele>505.99999999999994</ele><time>2026-04-10T14:29:16.049Z</time></trkpt><trkpt lat="44.5925455" lon="10.3157908"><ele>506.0</ele><time>2026-04-10T14:29:17.049Z</time></trkpt><trkpt lat="44.5926154" lon="10.315715"><ele>506.0</ele><time>2026-04-10T14:29:18.05Z</time></trkpt><trkpt lat="44.5926588" lon="10.3156496"><ele>506.0</ele><time>2026-04-10T14:29:19.05Z</time></trkpt><trkpt lat="44.5927086" lon="10.3155705"><ele>505.99999999999994</ele><time>2026-04-10T14:29:20.05Z</time></trkpt><trkpt lat="44.5927503" lon="10.3154887"><ele>506.0</ele><time>2026-04-10T14:29:21.05Z</time></trkpt><trkpt lat="44.5927988" lon="10.3153982"><ele>503.49999999999994</ele><time>2026-04-10T14:29:22.05Z</time></trkpt><trkpt lat="44.5928535" lon="10.3153169"><ele>501.0</ele><time>2026-04-10T14:29:23.05Z</time></trkpt><trkpt lat="44.5929074" lon="10.3152592"><ele>498.5</ele><time>2026-04-10T14:29:24.05Z</time></trkpt><trkpt lat="44.5930056" lon="10.315171"><ele>496.0</ele><time>2026-04-10T14:29:26.049Z</time></trkpt><trkpt lat="44.5930811" lon="10.3151222"><ele>493.49999999999994</ele><time>2026-04-10T14:29:28.05Z</time></trkpt><trkpt lat="44.5931071" lon="10.3150011"><ele>491.0</ele><time>2026-04-10T14:29:30.05Z</time></trkpt><trkpt lat="44.5930631" lon="10.3148887"><ele>490.3333333333333</ele><time>2026-04-10T14:29:32.05Z</time></trkpt><trkpt lat="44.5930594" lon="10.3147242"><ele>489.66666666666663</ele><time>2026-04-10T14:29:34.05Z</time></trkpt><trkpt lat="44.5930484" lon="10.3146358"><ele>489.0</ele><time>2026-04-10T14:29:36.05Z</time></trkpt><trkpt lat="44.5930575" lon="10.3145373"><ele>488.33333333333337</ele><time>2026-04-10T14:29:38.05Z</time></trkpt><trkpt lat="44.5931059" lon="10.3144507"><ele>487.6666666666667</ele><time>2026-04-10T14:29:41.05Z</time></trkpt><trkpt lat="44.593171" lon="10.3144701"><ele>487.0</ele><time>2026-04-10T14:29:43.05Z</time></trkpt><trkpt lat="44.5932588" lon="10.3144576"><ele>487.00000000000006</ele><time>2026-04-10T14:29:46.05Z</time></trkpt><trkpt lat="44.5933026" lon="10.3143293"><ele>487.0</ele><time>2026-04-10T14:29:48.05Z</time></trkpt><trkpt lat="44.5933054" lon="10.3142369"><ele>487.0</ele><time>2026-04-10T14:29:50.05Z</time></trkpt><trkpt lat="44.5933148" lon="10.3141333"><ele>487.0</ele><time>2026-04-10T14:29:52.05Z</time></trkpt><trkpt lat="44.5933394" lon="10.3140235"><ele>487.00000000000006</ele><time>2026-04-10T14:29:54.05Z</time></trkpt><trkpt lat="44.593339" lon="10.3139299"><ele>487.0</ele><time>2026-04-10T14:29:56.05Z</time></trkpt><trkpt lat="44.5933062" lon="10.3138416"><ele>484.00000000000006</ele><time>2026-04-10T14:29:58.049Z</time></trkpt><trkpt lat="44.5932824" lon="10.3137311"><ele>481.0</ele><time>2026-04-10T14:30:00.05Z</time></trkpt><trkpt lat="44.5932978" lon="10.3136259"><ele>478.0</ele><time>2026-04-10T14:30:02.049Z</time></trkpt><trkpt lat="44.5933679" lon="10.3136007"><ele>475.0</ele><time>2026-04-10T14:30:04.05Z</time></trkpt><trkpt lat="44.59343" lon="10.3136475"><ele>472.00000000000006</ele><time>2026-04-10T14:30:05.05Z</time></trkpt><trkpt lat="44.5935092" lon="10.313686"><ele>469.0</ele><time>2026-04-10T14:30:07.05Z</time></trkpt><trkpt lat="44.5935899" lon="10.3136823"><ele>469.0</ele><time>2026-04-10T14:30:09.05Z</time></trkpt><trkpt lat="44.5936575" lon="10.3136496"><ele>469.0</ele><time>2026-04-10T14:30:11.05Z</time></trkpt><trkpt lat="44.5937234" lon="10.31359"><ele>469.0</ele><time>2026-04-10T14:30:13.05Z</time></trkpt><trkpt lat="44.5937927" lon="10.3135599"><ele>469.0</ele><time>2026-04-10T14:30:15.05Z</time></trkpt><trkpt lat="44.5938789" lon="10.313486"><ele>469.0</ele><time>2026-04-10T14:30:18.049Z</time></trkpt><trkpt lat="44.5939075" lon="10.3133017"><ele>466.50000000000006</ele><time>2026-04-10T14:30:20.05Z</time></trkpt><trkpt lat="44.5939577" lon="10.3131433"><ele>464.0</ele><time>2026-04-10T14:30:22.049Z</time></trkpt><trkpt lat="44.5940019" lon="10.313072"><ele>461.5</ele><time>2026-04-10T14:30:23.049Z</time></trkpt><trkpt lat="44.5940539" lon="10.3130084"><ele>459.0</ele><time>2026-04-10T14:30:24.05Z</time></trkpt><trkpt lat="44.5941248" lon="10.3129356"><ele>456.50000000000006</ele><time>2026-04-10T14:30:25.05Z</time></trkpt><trkpt lat="44.5941836" lon="10.3128622"><ele>454.0</ele><time>2026-04-10T14:30:26.05Z</time></trkpt><trkpt lat="44.5942314" lon="10.3127976"><ele>452.83333333333337</ele><time>2026-04-10T14:30:27.051Z</time></trkpt><trkpt lat="44.5942998" lon="10.3126344"><ele>451.6666666666667</ele><time>2026-04-10T14:30:29.05Z</time></trkpt><trkpt lat="44.5943339" lon="10.3125538"><ele>450.5</ele><time>2026-04-10T14:30:30.05Z</time></trkpt><trkpt lat="44.5943692" lon="10.3124801"><ele>449.33333333333337</ele><time>2026-04-10T14:30:31.05Z</time></trkpt><trkpt lat="44.5944166" lon="10.3124043"><ele>448.1666666666667</ele><time>2026-04-10T14:30:32.05Z</time></trkpt><trkpt lat="44.5944663" lon="10.3123271"><ele>447.0</ele><time>2026-04-10T14:30:33.049Z</time></trkpt><trkpt lat="44.5945055" lon="10.3122448"><ele>444.40000000000003</ele><time>2026-04-10T14:30:34.05Z</time></trkpt><trkpt lat="44.5945566" lon="10.3121554"><ele>441.80000000000007</ele><time>2026-04-10T14:30:35.05Z</time></trkpt><trkpt lat="44.5946259" lon="10.3120502"><ele>439.2</ele><time>2026-04-10T14:30:36.05Z</time></trkpt><trkpt lat="44.5946965" lon="10.3119671"><ele>436.6</ele><time>2026-04-10T14:30:37.05Z</time></trkpt><trkpt lat="44.594763" lon="10.3118881"><ele>434.0</ele><time>2026-04-10T14:30:38.05Z</time></trkpt><trkpt lat="44.5948344" lon="10.3118121"><ele>433.99999999999994</ele><time>2026-04-10T14:30:39.05Z</time></trkpt><trkpt lat="44.5949092" lon="10.3117441"><ele>434.0</ele><time>2026-04-10T14:30:40.05Z</time></trkpt><trkpt lat="44.5949785" lon="10.311677"><ele>434.0</ele><time>2026-04-10T14:30:41.05Z</time></trkpt><trkpt lat="44.5950484" lon="10.3116204"><ele>434.0</ele><time>2026-04-10T14:30:42.05Z</time></trkpt><trkpt lat="44.5951212" lon="10.3115655"><ele>433.99999999999994</ele><time>2026-04-10T14:30:43.049Z</time></trkpt><trkpt lat="44.5951987" lon="10.311502"><ele>434.0</ele><time>2026-04-10T14:30:44.05Z</time></trkpt><trkpt lat="44.5952649" lon="10.3114097"><ele>430.0</ele><time>2026-04-10T14:30:45.05Z</time></trkpt><trkpt lat="44.5953492" lon="10.3112929"><ele>426.0</ele><time>2026-04-10T14:30:46.05Z</time></trkpt><trkpt lat="44.5954341" lon="10.3111769"><ele>422.0</ele><time>2026-04-10T14:30:47.05Z</time></trkpt><trkpt lat="44.5955266" lon="10.3110487"><ele>418.0</ele><time>2026-04-10T14:30:48.049Z</time></trkpt><trkpt lat="44.5956134" lon="10.3109254"><ele>418.0</ele><time>2026-04-10T14:30:49.049Z</time></trkpt><trkpt lat="44.5956895" lon="10.3108099"><ele>418.0</ele><time>2026-04-10T14:30:50.05Z</time></trkpt><trkpt lat="44.5957469" lon="10.3107024"><ele>418.0</ele><time>2026-04-10T14:30:51.05Z</time></trkpt><trkpt lat="44.5958044" lon="10.3105704"><ele>418.0</ele><time>2026-04-10T14:30:52.051Z</time></trkpt><trkpt lat="44.5958612" lon="10.310449"><ele>418.0</ele><time>2026-04-10T14:30:53.049Z</time></trkpt><trkpt lat="44.5959021" lon="10.3103602"><ele>417.00000000000006</ele><time>2026-04-10T14:30:54.049Z</time></trkpt><trkpt lat="44.5959249" lon="10.3102758"><ele>416.0</ele><time>2026-04-10T14:30:55.05Z</time></trkpt><trkpt lat="44.5959284" lon="10.3101715"><ele>415.0</ele><time>2026-04-10T14:30:56.05Z</time></trkpt><trkpt lat="44.5959325" lon="10.3100439"><ele>414.0</ele><time>2026-04-10T14:30:57.05Z</time></trkpt><trkpt lat="44.5959439" lon="10.3099338"><ele>413.00000000000006</ele><time>2026-04-10T14:30:58.05Z</time></trkpt><trkpt lat="44.5959455" lon="10.3098276"><ele>412.0</ele><time>2026-04-10T14:30:59.05Z</time></trkpt><trkpt lat="44.5959468" lon="10.3097207"><ele>411.0</ele><time>2026-04-10T14:31:00.05Z</time></trkpt><trkpt lat="44.595937" lon="10.3095953"><ele>410.0</ele><time>2026-04-10T14:31:01.05Z</time></trkpt><trkpt lat="44.5959177" lon="10.3094475"><ele>409.0</ele><time>2026-04-10T14:31:02.05Z</time></trkpt><trkpt lat="44.5959051" lon="10.309273"><ele>408.0</ele><time>2026-04-10T14:31:03.05Z</time></trkpt><trkpt lat="44.595911" lon="10.3091318"><ele>407.0</ele><time>2026-04-10T14:31:04.049Z</time></trkpt><trkpt lat="44.5959308" lon="10.3090161"><ele>406.49999999999994</ele><time>2026-04-10T14:31:05.049Z</time></trkpt><trkpt lat="44.5959706" lon="10.3089073"><ele>406.0</ele><time>2026-04-10T14:31:06.049Z</time></trkpt><trkpt lat="44.5959996" lon="10.3088118"><ele>405.5</ele><time>2026-04-10T14:31:07.049Z</time></trkpt><trkpt lat="44.5959935" lon="10.3086395"><ele>405.0</ele><time>2026-04-10T14:31:09.049Z</time></trkpt><trkpt lat="44.5959717" lon="10.3085419"><ele>404.49999999999994</ele><time>2026-04-10T14:31:10.049Z</time></trkpt><trkpt lat="44.5959397" lon="10.3084475"><ele>404.0</ele><time>2026-04-10T14:31:11.049Z</time></trkpt><trkpt lat="44.595805" lon="10.3083089"><ele>404.0</ele><time>2026-04-10T14:31:12.049Z</time></trkpt><trkpt lat="44.5957454" lon="10.3081816"><ele>404.0</ele><time>2026-04-10T14:31:13.048Z</time></trkpt><trkpt lat="44.5956657" lon="10.3080497"><ele>404.0</ele><time>2026-04-10T14:31:14.049Z</time></trkpt><trkpt lat="44.5955907" lon="10.307916"><ele>404.0</ele><time>2026-04-10T14:31:15.049Z</time></trkpt><trkpt lat="44.5955238" lon="10.3077972"><ele>403.2</ele><time>2026-04-10T14:31:16.049Z</time></trkpt><trkpt lat="44.5954581" lon="10.3076869"><ele>402.4</ele><time>2026-04-10T14:31:17.049Z</time></trkpt><trkpt lat="44.5953645" lon="10.3075319"><ele>401.6</ele><time>2026-04-10T14:31:19.049Z</time></trkpt><trkpt lat="44.595304" lon="10.307444"><ele>400.8</ele><time>2026-04-10T14:31:20.049Z</time></trkpt><trkpt lat="44.5952356" lon="10.3073452"><ele>400.0</ele><time>2026-04-10T14:31:21.049Z</time></trkpt><trkpt lat="44.59517" lon="10.3072558"><ele>399.1666666666667</ele><time>2026-04-10T14:31:22.049Z</time></trkpt><trkpt lat="44.5951169" lon="10.3071695"><ele>398.33333333333337</ele><time>2026-04-10T14:31:23.049Z</time></trkpt><trkpt lat="44.5950622" lon="10.30709"><ele>397.5</ele><time>2026-04-10T14:31:24.049Z</time></trkpt><trkpt lat="44.5950145" lon="10.3070021"><ele>396.66666666666663</ele><time>2026-04-10T14:31:25.049Z</time></trkpt><trkpt lat="44.5949459" lon="10.3069392"><ele>395.8333333333333</ele><time>2026-04-10T14:31:26.048Z</time></trkpt><trkpt lat="44.5948931" lon="10.3068722"><ele>395.0</ele><time>2026-04-10T14:31:27.049Z</time></trkpt><trkpt lat="44.5948372" lon="10.3067732"><ele>395.0</ele><time>2026-04-10T14:31:28.049Z</time></trkpt><trkpt lat="44.5947803" lon="10.3066839"><ele>395.0</ele><time>2026-04-10T14:31:29.049Z</time></trkpt><trkpt lat="44.5947287" lon="10.3065929"><ele>395.0</ele><time>2026-04-10T14:31:30.049Z</time></trkpt><trkpt lat="44.5946615" lon="10.3064695"><ele>395.0</ele><time>2026-04-10T14:31:31.049Z</time></trkpt><trkpt lat="44.5946008" lon="10.3063478"><ele>395.0</ele><time>2026-04-10T14:31:32.049Z</time></trkpt><trkpt lat="44.5945482" lon="10.3062341"><ele>392.66666666666663</ele><time>2026-04-10T14:31:33.049Z</time></trkpt><trkpt lat="44.5944938" lon="10.3061348"><ele>390.3333333333333</ele><time>2026-04-10T14:31:34.05Z</time></trkpt><trkpt lat="44.5944499" lon="10.3060391"><ele>388.0</ele><time>2026-04-10T14:31:35.048Z</time></trkpt><trkpt lat="44.5943985" lon="10.30596"><ele>385.66666666666663</ele><time>2026-04-10T14:31:36.049Z</time></trkpt><trkpt lat="44.5943513" lon="10.3058892"><ele>383.3333333333333</ele><time>2026-04-10T14:31:37.049Z</time></trkpt><trkpt lat="44.594299" lon="10.3058143"><ele>381.0</ele><time>2026-04-10T14:31:38.048Z</time></trkpt><trkpt lat="44.5942475" lon="10.3057244"><ele>381.0</ele><time>2026-04-10T14:31:39.048Z</time></trkpt><trkpt lat="44.5941972" lon="10.3056385"><ele>381.0</ele><time>2026-04-10T14:31:40.049Z</time></trkpt><trkpt lat="44.5941544" lon="10.3055286"><ele>381.0</ele><time>2026-04-10T14:31:41.049Z</time></trkpt><trkpt lat="44.594124" lon="10.3054265"><ele>381.0</ele><time>2026-04-10T14:31:42.048Z</time></trkpt><trkpt lat="44.5940994" lon="10.305322"><ele>381.0</ele><time>2026-04-10T14:31:43.048Z</time></trkpt><trkpt lat="44.5940853" lon="10.3052277"><ele>381.0</ele><time>2026-04-10T14:31:44.048Z</time></trkpt><trkpt lat="44.5940872" lon="10.3051199"><ele>380.20000000000005</ele><time>2026-04-10T14:31:45.049Z</time></trkpt><trkpt lat="44.5940677" lon="10.3050266"><ele>379.40000000000003</ele><time>2026-04-10T14:31:46.049Z</time></trkpt><trkpt lat="44.5940488" lon="10.3049347"><ele>378.6</ele><time>2026-04-10T14:31:47.049Z</time></trkpt><trkpt lat="44.5939506" lon="10.3048348"><ele>377.8</ele><time>2026-04-10T14:31:49.048Z</time></trkpt><trkpt lat="44.5938673" lon="10.3047988"><ele>377.0</ele><time>2026-04-10T14:31:51.049Z</time></trkpt><trkpt lat="44.5937827" lon="10.3048836"><ele>377.0</ele><time>2026-04-10T14:31:53.049Z</time></trkpt><trkpt lat="44.5937541" lon="10.3049665"><ele>377.0</ele><time>2026-04-10T14:31:54.049Z</time></trkpt><trkpt lat="44.5937574" lon="10.3050701"><ele>377.0</ele><time>2026-04-10T14:31:55.048Z</time></trkpt><trkpt lat="44.5937504" lon="10.3051769"><ele>377.0</ele><time>2026-04-10T14:31:56.048Z</time></trkpt><trkpt lat="44.5937317" lon="10.3052888"><ele>377.0</ele><time>2026-04-10T14:31:57.048Z</time></trkpt><trkpt lat="44.5937154" lon="10.3053923"><ele>377.0</ele><time>2026-04-10T14:31:58.049Z</time></trkpt><trkpt lat="44.5937181" lon="10.3055124"><ele>377.57142857142856</ele><time>2026-04-10T14:31:59.05Z</time></trkpt><trkpt lat="44.593713" lon="10.3056162"><ele>378.1428571428571</ele><time>2026-04-10T14:32:00.049Z</time></trkpt><trkpt lat="44.593714" lon="10.3057237"><ele>378.71428571428567</ele><time>2026-04-10T14:32:01.049Z</time></trkpt><trkpt lat="44.5937241" lon="10.3058171"><ele>379.2857142857143</ele><time>2026-04-10T14:32:02.049Z</time></trkpt><trkpt lat="44.5937212" lon="10.3059202"><ele>379.8571428571429</ele><time>2026-04-10T14:32:03.048Z</time></trkpt><trkpt lat="44.5937273" lon="10.3060178"><ele>380.4285714285714</ele><time>2026-04-10T14:32:04.048Z</time></trkpt><trkpt lat="44.5937182" lon="10.3061173"><ele>381.0</ele><time>2026-04-10T14:32:06.049Z</time></trkpt><trkpt lat="44.5936397" lon="10.3061043"><ele>374.0</ele><time>2026-04-10T14:32:08.049Z</time></trkpt><trkpt lat="44.593562" lon="10.3059585"><ele>367.0</ele><time>2026-04-10T14:32:10.049Z</time></trkpt><trkpt lat="44.5935374" lon="10.3058528"><ele>360.0</ele><time>2026-04-10T14:32:11.049Z</time></trkpt><trkpt lat="44.5935034" lon="10.3056734"><ele>353.0</ele><time>2026-04-10T14:32:12.049Z</time></trkpt><trkpt lat="44.5934435" lon="10.305511"><ele>353.0</ele><time>2026-04-10T14:32:13.049Z</time></trkpt><trkpt lat="44.5934004" lon="10.3053728"><ele>353.0</ele><time>2026-04-10T14:32:14.049Z</time></trkpt><trkpt lat="44.5933723" lon="10.3052404"><ele>353.0</ele><time>2026-04-10T14:32:15.049Z</time></trkpt><trkpt lat="44.5933326" lon="10.3051121"><ele>353.0</ele><time>2026-04-10T14:32:16.049Z</time></trkpt><trkpt lat="44.5932937" lon="10.304983"><ele>353.0</ele><time>2026-04-10T14:32:17.049Z</time></trkpt><trkpt lat="44.5932667" lon="10.3048754"><ele>351.6666666666667</ele><time>2026-04-10T14:32:18.049Z</time></trkpt><trkpt lat="44.5932203" lon="10.3046924"><ele>350.33333333333337</ele><time>2026-04-10T14:32:20.049Z</time></trkpt><trkpt lat="44.5932073" lon="10.3045853"><ele>349.0</ele><time>2026-04-10T14:32:21.049Z</time></trkpt><trkpt lat="44.5932052" lon="10.3044844"><ele>347.6666666666667</ele><time>2026-04-10T14:32:22.049Z</time></trkpt><trkpt lat="44.5931964" lon="10.3043702"><ele>346.3333333333333</ele><time>2026-04-10T14:32:23.048Z</time></trkpt><trkpt lat="44.5931859" lon="10.3042656"><ele>345.0</ele><time>2026-04-10T14:32:24.048Z</time></trkpt><trkpt lat="44.5931776" lon="10.3041614"><ele>345.0</ele><time>2026-04-10T14:32:25.049Z</time></trkpt><trkpt lat="44.59318" lon="10.3040684"><ele>345.0</ele><time>2026-04-10T14:32:26.049Z</time></trkpt><trkpt lat="44.5931572" lon="10.3038882"><ele>345.0</ele><time>2026-04-10T14:32:28.049Z</time></trkpt><trkpt lat="44.5931399" lon="10.3037972"><ele>345.0</ele><time>2026-04-10T14:32:29.048Z</time></trkpt><trkpt lat="44.593105" lon="10.3037081"><ele>345.0</ele><time>2026-04-10T14:32:30.049Z</time></trkpt><trkpt lat="44.5930664" lon="10.3036148"><ele>345.0</ele><time>2026-04-10T14:32:31.05Z</time></trkpt><trkpt lat="44.5930167" lon="10.3035226"><ele>342.3333333333333</ele><time>2026-04-10T14:32:32.049Z</time></trkpt><trkpt lat="44.5929746" lon="10.3034307"><ele>339.6666666666667</ele><time>2026-04-10T14:32:33.049Z</time></trkpt><trkpt lat="44.5929304" lon="10.3033261"><ele>337.0</ele><time>2026-04-10T14:32:34.049Z</time></trkpt><trkpt lat="44.5928962" lon="10.3032391"><ele>334.33333333333337</ele><time>2026-04-10T14:32:35.049Z</time></trkpt><trkpt lat="44.592861" lon="10.3031434"><ele>331.6666666666667</ele><time>2026-04-10T14:32:36.048Z</time></trkpt><trkpt lat="44.592842" lon="10.3030447"><ele>329.0</ele><time>2026-04-10T14:32:37.049Z</time></trkpt><trkpt lat="44.5928228" lon="10.302954"><ele>326.33333333333337</ele><time>2026-04-10T14:32:38.049Z</time></trkpt><trkpt lat="44.5928352" lon="10.3028501"><ele>323.6666666666667</ele><time>2026-04-10T14:32:39.049Z</time></trkpt><trkpt lat="44.5928244" lon="10.3027494"><ele>321.0</ele><time>2026-04-10T14:32:40.049Z</time></trkpt><trkpt lat="44.5928702" lon="10.3026548"><ele>318.3333333333333</ele><time>2026-04-10T14:32:41.049Z</time></trkpt><trkpt lat="44.592903" lon="10.3025456"><ele>315.66666666666663</ele><time>2026-04-10T14:32:42.049Z</time></trkpt><trkpt lat="44.5929134" lon="10.3024288"><ele>313.0</ele><time>2026-04-10T14:32:43.049Z</time></trkpt><trkpt lat="44.5929246" lon="10.3023092"><ele>311.8333333333333</ele><time>2026-04-10T14:32:44.049Z</time></trkpt><trkpt lat="44.592917" lon="10.3021953"><ele>310.66666666666663</ele><time>2026-04-10T14:32:45.049Z</time></trkpt><trkpt lat="44.5928935" lon="10.3020961"><ele>309.5</ele><time>2026-04-10T14:32:46.049Z</time></trkpt><trkpt lat="44.5928524" lon="10.3020281"><ele>308.3333333333333</ele><time>2026-04-10T14:32:47.049Z</time></trkpt><trkpt lat="44.5927942" lon="10.3019799"><ele>307.1666666666667</ele><time>2026-04-10T14:32:48.048Z</time></trkpt><trkpt lat="44.5927095" lon="10.3019356"><ele>306.0</ele><time>2026-04-10T14:32:49.048Z</time></trkpt><trkpt lat="44.5926114" lon="10.3019177"><ele>306.0</ele><time>2026-04-10T14:32:50.049Z</time></trkpt><trkpt lat="44.5925062" lon="10.3018971"><ele>306.0</ele><time>2026-04-10T14:32:51.049Z</time></trkpt><trkpt lat="44.592411" lon="10.3018619"><ele>306.0</ele><time>2026-04-10T14:32:52.05Z</time></trkpt><trkpt lat="44.5923338" lon="10.301822"><ele>306.0</ele><time>2026-04-10T14:32:53.049Z</time></trkpt><trkpt lat="44.592266" lon="10.3017899"><ele>306.0</ele><time>2026-04-10T14:32:54.049Z</time></trkpt><trkpt lat="44.5921937" lon="10.3017432"><ele>306.0</ele><time>2026-04-10T14:32:55.049Z</time></trkpt><trkpt lat="44.5921208" lon="10.3016718"><ele>306.0</ele><time>2026-04-10T14:32:56.048Z</time></trkpt><trkpt lat="44.5920668" lon="10.301602"><ele>306.0</ele><time>2026-04-10T14:32:57.049Z</time></trkpt><trkpt lat="44.5920233" lon="10.301531"><ele>306.0</ele><time>2026-04-10T14:32:58.05Z</time></trkpt><trkpt lat="44.5919465" lon="10.3013917"><ele>306.0</ele><time>2026-04-10T14:33:00.049Z</time></trkpt><trkpt lat="44.5919207" lon="10.3012438"><ele>306.0</ele><time>2026-04-10T14:33:02.048Z</time></trkpt><trkpt lat="44.5919414" lon="10.3011299"><ele>307.8</ele><time>2026-04-10T14:33:04.05Z</time></trkpt><trkpt lat="44.5920344" lon="10.3011141"><ele>309.6</ele><time>2026-04-10T14:33:06.048Z</time></trkpt><trkpt lat="44.5921094" lon="10.301154"><ele>311.4</ele><time>2026-04-10T14:33:07.048Z</time></trkpt><trkpt lat="44.5921894" lon="10.3012026"><ele>313.2</ele><time>2026-04-10T14:33:08.048Z</time></trkpt><trkpt lat="44.5922827" lon="10.3012599"><ele>315.0</ele><time>2026-04-10T14:33:09.048Z</time></trkpt><trkpt lat="44.5923903" lon="10.3013258"><ele>315.0</ele><time>2026-04-10T14:33:10.049Z</time></trkpt><trkpt lat="44.5925078" lon="10.3013839"><ele>315.0</ele><time>2026-04-10T14:33:11.049Z</time></trkpt><trkpt lat="44.5926396" lon="10.3014114"><ele>315.0</ele><time>2026-04-10T14:33:12.049Z</time></trkpt><trkpt lat="44.592788" lon="10.3014138"><ele>315.0</ele><time>2026-04-10T14:33:13.048Z</time></trkpt><trkpt lat="44.5929364" lon="10.3014113"><ele>316.0</ele><time>2026-04-10T14:33:14.048Z</time></trkpt><trkpt lat="44.5930858" lon="10.3014089"><ele>317.0</ele><time>2026-04-10T14:33:15.049Z</time></trkpt><trkpt lat="44.5932264" lon="10.3014067"><ele>318.0</ele><time>2026-04-10T14:33:16.048Z</time></trkpt><trkpt lat="44.593359" lon="10.3013999"><ele>319.0</ele><time>2026-04-10T14:33:17.048Z</time></trkpt><trkpt lat="44.5934837" lon="10.3014053"><ele>317.59999999999997</ele><time>2026-04-10T14:33:18.049Z</time></trkpt><trkpt lat="44.5935973" lon="10.3014378"><ele>316.2</ele><time>2026-04-10T14:33:19.05Z</time></trkpt><trkpt lat="44.5936974" lon="10.301488"><ele>314.79999999999995</ele><time>2026-04-10T14:33:20.049Z</time></trkpt><trkpt lat="44.5937906" lon="10.3015554"><ele>313.4</ele><time>2026-04-10T14:33:21.049Z</time></trkpt><trkpt lat="44.593875" lon="10.3016392"><ele>312.0</ele><time>2026-04-10T14:33:22.049Z</time></trkpt><trkpt lat="44.5939481" lon="10.3017108"><ele>312.0</ele><time>2026-04-10T14:33:23.048Z</time></trkpt><trkpt lat="44.5940075" lon="10.3017532"><ele>312.0</ele><time>2026-04-10T14:33:24.049Z</time></trkpt><trkpt lat="44.5941402" lon="10.3017676"><ele>312.0</ele><time>2026-04-10T14:33:26.049Z</time></trkpt><trkpt lat="44.5942184" lon="10.3017648"><ele>312.0</ele><time>2026-04-10T14:33:27.049Z</time></trkpt><trkpt lat="44.5943097" lon="10.3017671"><ele>312.0</ele><time>2026-04-10T14:33:28.049Z</time></trkpt><trkpt lat="44.5944245" lon="10.3017798"><ele>314.25</ele><time>2026-04-10T14:33:29.049Z</time></trkpt><trkpt lat="44.5945532" lon="10.3017976"><ele>316.5</ele><time>2026-04-10T14:33:30.049Z</time></trkpt><trkpt lat="44.5946709" lon="10.301812"><ele>318.75</ele><time>2026-04-10T14:33:31.049Z</time></trkpt><trkpt lat="44.5947765" lon="10.3018187"><ele>321.0</ele><time>2026-04-10T14:33:32.048Z</time></trkpt><trkpt lat="44.5948791" lon="10.3018099"><ele>321.0</ele><time>2026-04-10T14:33:33.049Z</time></trkpt><trkpt lat="44.594975" lon="10.3017886"><ele>321.0</ele><time>2026-04-10T14:33:34.049Z</time></trkpt><trkpt lat="44.5950741" lon="10.3017558"><ele>321.0</ele><time>2026-04-10T14:33:35.049Z</time></trkpt><trkpt lat="44.5951699" lon="10.3017144"><ele>321.0</ele><time>2026-04-10T14:33:36.049Z</time></trkpt><trkpt lat="44.5952656" lon="10.30168"><ele>321.0</ele><time>2026-04-10T14:33:37.049Z</time></trkpt><trkpt lat="44.595353" lon="10.3016478"><ele>320.5</ele><time>2026-04-10T14:33:38.049Z</time></trkpt><trkpt lat="44.5954199" lon="10.3016126"><ele>320.0</ele><time>2026-04-10T14:33:39.049Z</time></trkpt><trkpt lat="44.5954884" lon="10.3015805"><ele>319.5</ele><time>2026-04-10T14:33:40.049Z</time></trkpt><trkpt lat="44.5955424" lon="10.3015017"><ele>319.0</ele><time>2026-04-10T14:33:41.049Z</time></trkpt><trkpt lat="44.5956119" lon="10.3014226"><ele>318.5</ele><time>2026-04-10T14:33:42.048Z</time></trkpt><trkpt lat="44.5956763" lon="10.3013236"><ele>318.0</ele><time>2026-04-10T14:33:43.048Z</time></trkpt><trkpt lat="44.5957475" lon="10.3012509"><ele>321.0</ele><time>2026-04-10T14:33:44.049Z</time></trkpt><trkpt lat="44.5958315" lon="10.3011843"><ele>324.0</ele><time>2026-04-10T14:33:45.048Z</time></trkpt><trkpt lat="44.5959331" lon="10.3011425"><ele>327.0</ele><time>2026-04-10T14:33:46.048Z</time></trkpt><trkpt lat="44.5960229" lon="10.3011215"><ele>330.0</ele><time>2026-04-10T14:33:47.048Z</time></trkpt><trkpt lat="44.5961174" lon="10.3011033"><ele>333.0</ele><time>2026-04-10T14:33:48.049Z</time></trkpt><trkpt lat="44.5962035" lon="10.3010649"><ele>333.0</ele><time>2026-04-10T14:33:49.049Z</time></trkpt><trkpt lat="44.5962698" lon="10.3009364"><ele>333.0</ele><time>2026-04-10T14:33:51.049Z</time></trkpt><trkpt lat="44.5963438" lon="10.3008521"><ele>333.0</ele><time>2026-04-10T14:33:52.05Z</time></trkpt><trkpt lat="44.5964395" lon="10.300717"><ele>333.0</ele><time>2026-04-10T14:33:53.049Z</time></trkpt><trkpt lat="44.5965161" lon="10.3005968"><ele>335.1666666666667</ele><time>2026-04-10T14:33:54.05Z</time></trkpt><trkpt lat="44.5965809" lon="10.3004849"><ele>337.3333333333333</ele><time>2026-04-10T14:33:55.049Z</time></trkpt><trkpt lat="44.5966327" lon="10.3003977"><ele>339.5</ele><time>2026-04-10T14:33:56.049Z</time></trkpt><trkpt lat="44.5966903" lon="10.3002969"><ele>341.66666666666663</ele><time>2026-04-10T14:33:57.049Z</time></trkpt><trkpt lat="44.5967413" lon="10.3002109"><ele>343.8333333333333</ele><time>2026-04-10T14:33:58.049Z</time></trkpt><trkpt lat="44.5967751" lon="10.3000997"><ele>346.0</ele><time>2026-04-10T14:33:59.049Z</time></trkpt><trkpt lat="44.5968097" lon="10.3000241"><ele>346.0</ele><time>2026-04-10T14:34:00.049Z</time></trkpt><trkpt lat="44.5968288" lon="10.2999164"><ele>346.0</ele><time>2026-04-10T14:34:01.049Z</time></trkpt><trkpt lat="44.5968636" lon="10.2997868"><ele>346.0</ele><time>2026-04-10T14:34:02.049Z</time></trkpt><trkpt lat="44.5968996" lon="10.2996258"><ele>346.0</ele><time>2026-04-10T14:34:03.049Z</time></trkpt><trkpt lat="44.5969338" lon="10.2994793"><ele>346.0</ele><time>2026-04-10T14:34:04.049Z</time></trkpt><trkpt lat="44.596966" lon="10.2993553"><ele>345.16666666666663</ele><time>2026-04-10T14:34:05.049Z</time></trkpt><trkpt lat="44.5969934" lon="10.2992129"><ele>344.3333333333333</ele><time>2026-04-10T14:34:06.049Z</time></trkpt><trkpt lat="44.5970075" lon="10.299106"><ele>343.5</ele><time>2026-04-10T14:34:07.049Z</time></trkpt><trkpt lat="44.5970216" lon="10.2989955"><ele>342.6666666666667</ele><time>2026-04-10T14:34:08.049Z</time></trkpt><trkpt lat="44.5969701" lon="10.2991345"><ele>341.83333333333337</ele><time>2026-04-10T14:34:31.049Z</time></trkpt><trkpt lat="44.5969468" lon="10.299229"><ele>341.0</ele><time>2026-04-10T14:34:32.048Z</time></trkpt><trkpt lat="44.5968905" lon="10.2993019"><ele>346.20000000000005</ele><time>2026-04-10T14:34:33.05Z</time></trkpt><trkpt lat="44.5968053" lon="10.2993865"><ele>351.40000000000003</ele><time>2026-04-10T14:34:34.049Z</time></trkpt><trkpt lat="44.5966825" lon="10.2994815"><ele>356.6</ele><time>2026-04-10T14:34:36.049Z</time></trkpt><trkpt lat="44.5966159" lon="10.2995273"><ele>361.8</ele><time>2026-04-10T14:34:37.049Z</time></trkpt><trkpt lat="44.5965414" lon="10.2995922"><ele>367.0</ele><time>2026-04-10T14:34:38.049Z</time></trkpt><trkpt lat="44.5964661" lon="10.2996546"><ele>367.0</ele><time>2026-04-10T14:34:39.049Z</time></trkpt><trkpt lat="44.5963833" lon="10.2997475"><ele>367.0</ele><time>2026-04-10T14:34:40.049Z</time></trkpt><trkpt lat="44.5963105" lon="10.2998358"><ele>367.0</ele><time>2026-04-10T14:34:41.049Z</time></trkpt><trkpt lat="44.5962449" lon="10.2998948"><ele>367.0</ele><time>2026-04-10T14:34:42.049Z</time></trkpt><trkpt lat="44.5961872" lon="10.2999582"><ele>367.0</ele><time>2026-04-10T14:34:43.049Z</time></trkpt><trkpt lat="44.5961262" lon="10.3000105"><ele>367.0</ele><time>2026-04-10T14:34:44.049Z</time></trkpt><trkpt lat="44.5959485" lon="10.3000274"><ele>366.20000000000005</ele><time>2026-04-10T14:34:46.05Z</time></trkpt><trkpt lat="44.5958789" lon="10.3000464"><ele>365.4</ele><time>2026-04-10T14:34:47.049Z</time></trkpt><trkpt lat="44.5957729" lon="10.3000389"><ele>364.6</ele><time>2026-04-10T14:34:48.05Z</time></trkpt><trkpt lat="44.5956765" lon="10.3000177"><ele>363.79999999999995</ele><time>2026-04-10T14:34:49.049Z</time></trkpt><trkpt lat="44.5955787" lon="10.3000371"><ele>363.0</ele><time>2026-04-10T14:34:50.049Z</time></trkpt><trkpt lat="44.5954668" lon="10.300039"><ele>363.0</ele><time>2026-04-10T14:34:52.049Z</time></trkpt><trkpt lat="44.595402" lon="10.3000833"><ele>363.0</ele><time>2026-04-10T14:34:54.049Z</time></trkpt><trkpt lat="44.5953641" lon="10.3000026"><ele>363.0</ele><time>2026-04-10T14:34:58.049Z</time></trkpt><trkpt lat="44.5954227" lon="10.299838"><ele>363.0</ele><time>2026-04-10T14:35:00.049Z</time></trkpt><trkpt lat="44.5954721" lon="10.2997366"><ele>363.0</ele><time>2026-04-10T14:35:01.049Z</time></trkpt><trkpt lat="44.5955174" lon="10.2996283"><ele>363.0</ele><time>2026-04-10T14:35:02.049Z</time></trkpt><trkpt lat="44.59557" lon="10.2995152"><ele>368.2</ele><time>2026-04-10T14:35:03.048Z</time></trkpt><trkpt lat="44.5956256" lon="10.2994111"><ele>373.4</ele><time>2026-04-10T14:35:04.049Z</time></trkpt><trkpt lat="44.5956683" lon="10.2993156"><ele>378.59999999999997</ele><time>2026-04-10T14:35:05.049Z</time></trkpt><trkpt lat="44.5957523" lon="10.299265"><ele>383.79999999999995</ele><time>2026-04-10T14:35:07.049Z</time></trkpt><trkpt lat="44.5956961" lon="10.2991903"><ele>389.0</ele><time>2026-04-10T14:35:09.05Z</time></trkpt><trkpt lat="44.5955583" lon="10.2992851"><ele>388.99999999999994</ele><time>2026-04-10T14:35:11.048Z</time></trkpt><trkpt lat="44.5954563" lon="10.2993109"><ele>389.0</ele><time>2026-04-10T14:35:12.049Z</time></trkpt><trkpt lat="44.5953834" lon="10.2992913"><ele>389.0</ele><time>2026-04-10T14:35:13.049Z</time></trkpt><trkpt lat="44.5952978" lon="10.2992682"><ele>389.0</ele><time>2026-04-10T14:35:14.049Z</time></trkpt><trkpt lat="44.5952154" lon="10.2992533"><ele>388.99999999999994</ele><time>2026-04-10T14:35:15.049Z</time></trkpt><trkpt lat="44.5951319" lon="10.2992445"><ele>389.0</ele><time>2026-04-10T14:35:16.049Z</time></trkpt><trkpt lat="44.5950689" lon="10.2992518"><ele>389.0</ele><time>2026-04-10T14:35:17.048Z</time></trkpt><trkpt lat="44.5949946" lon="10.2992418"><ele>389.0</ele><time>2026-04-10T14:35:19.048Z</time></trkpt><trkpt lat="44.5950743" lon="10.2991586"><ele>389.0</ele><time>2026-04-10T14:35:24.048Z</time></trkpt><trkpt lat="44.5951633" lon="10.299126"><ele>389.0</ele><time>2026-04-10T14:35:25.048Z</time></trkpt><trkpt lat="44.5953191" lon="10.2991212"><ele>389.0</ele><time>2026-04-10T14:35:27.049Z</time></trkpt><trkpt lat="44.5953916" lon="10.2990959"><ele>389.0</ele><time>2026-04-10T14:35:28.049Z</time></trkpt><trkpt lat="44.595472" lon="10.2990627"><ele>389.0</ele><time>2026-04-10T14:35:29.049Z</time></trkpt><trkpt lat="44.5955447" lon="10.2989832"><ele>389.0</ele><time>2026-04-10T14:35:30.048Z</time></trkpt><trkpt lat="44.5955717" lon="10.2988539"><ele>389.0</ele><time>2026-04-10T14:35:31.049Z</time></trkpt><trkpt lat="44.5956363" lon="10.2987486"><ele>389.0</ele><time>2026-04-10T14:35:32.049Z</time></trkpt><trkpt lat="44.5956931" lon="10.2985976"><ele>395.75</ele><time>2026-04-10T14:35:33.049Z</time></trkpt><trkpt lat="44.5957715" lon="10.2984584"><ele>402.5</ele><time>2026-04-10T14:35:34.048Z</time></trkpt><trkpt lat="44.5958712" lon="10.2983263"><ele>409.25</ele><time>2026-04-10T14:35:35.048Z</time></trkpt><trkpt lat="44.5960393" lon="10.2982455"><ele>416.0</ele><time>2026-04-10T14:35:36.049Z</time></trkpt><trkpt lat="44.5961467" lon="10.2981605"><ele>416.0</ele><time>2026-04-10T14:35:37.049Z</time></trkpt><trkpt lat="44.596242" lon="10.2980978"><ele>416.0</ele><time>2026-04-10T14:35:38.049Z</time></trkpt><trkpt lat="44.5963474" lon="10.2980249"><ele>416.0</ele><time>2026-04-10T14:35:39.049Z</time></trkpt><trkpt lat="44.5964044" lon="10.2979181"><ele>416.0</ele><time>2026-04-10T14:35:40.049Z</time></trkpt><trkpt lat="44.5964705" lon="10.2978179"><ele>416.0</ele><time>2026-04-10T14:35:41.049Z</time></trkpt><trkpt lat="44.5965298" lon="10.2977097"><ele>416.0</ele><time>2026-04-10T14:35:42.049Z</time></trkpt><trkpt lat="44.5965397" lon="10.2975213"><ele>416.0</ele><time>2026-04-10T14:35:43.049Z</time></trkpt><trkpt lat="44.5965335" lon="10.2973368"><ele>416.0</ele><time>2026-04-10T14:35:44.049Z</time></trkpt><trkpt lat="44.5965759" lon="10.2971783"><ele>416.0</ele><time>2026-04-10T14:35:45.049Z</time></trkpt><trkpt lat="44.5966217" lon="10.2970725"><ele>420.5</ele><time>2026-04-10T14:35:46.049Z</time></trkpt><trkpt lat="44.5966707" lon="10.2969258"><ele>425.0</ele><time>2026-04-10T14:35:47.048Z</time></trkpt><trkpt lat="44.5967534" lon="10.2967963"><ele>429.5</ele><time>2026-04-10T14:35:48.049Z</time></trkpt><trkpt lat="44.5968317" lon="10.2966623"><ele>434.0</ele><time>2026-04-10T14:35:49.049Z</time></trkpt><trkpt lat="44.5968976" lon="10.2964909"><ele>431.25</ele><time>2026-04-10T14:35:50.05Z</time></trkpt><trkpt lat="44.5969725" lon="10.2963305"><ele>428.5</ele><time>2026-04-10T14:35:51.049Z</time></trkpt><trkpt lat="44.5970396" lon="10.2961818"><ele>425.75</ele><time>2026-04-10T14:35:52.049Z</time></trkpt><trkpt lat="44.5971189" lon="10.2960408"><ele>423.0</ele><time>2026-04-10T14:35:53.048Z</time></trkpt><trkpt lat="44.5972056" lon="10.2959168"><ele>423.0</ele><time>2026-04-10T14:35:54.048Z</time></trkpt><trkpt lat="44.5972924" lon="10.2957885"><ele>423.0</ele><time>2026-04-10T14:35:55.049Z</time></trkpt><trkpt lat="44.597403" lon="10.2956851"><ele>423.0</ele><time>2026-04-10T14:35:56.05Z</time></trkpt><trkpt lat="44.5974908" lon="10.2955425"><ele>423.0</ele><time>2026-04-10T14:35:57.049Z</time></trkpt><trkpt lat="44.597586" lon="10.2954031"><ele>418.5</ele><time>2026-04-10T14:35:58.049Z</time></trkpt><trkpt lat="44.5976696" lon="10.2952393"><ele>414.0</ele><time>2026-04-10T14:35:59.048Z</time></trkpt><trkpt lat="44.5977444" lon="10.2950854"><ele>409.5</ele><time>2026-04-10T14:36:00.049Z</time></trkpt><trkpt lat="44.5978086" lon="10.2949538"><ele>405.0</ele><time>2026-04-10T14:36:01.049Z</time></trkpt><trkpt lat="44.5978769" lon="10.2948345"><ele>408.6</ele><time>2026-04-10T14:36:02.048Z</time></trkpt><trkpt lat="44.5979295" lon="10.2947112"><ele>412.2</ele><time>2026-04-10T14:36:03.049Z</time></trkpt><trkpt lat="44.597965" lon="10.2945801"><ele>415.79999999999995</ele><time>2026-04-10T14:36:04.049Z</time></trkpt><trkpt lat="44.5979835" lon="10.2944666"><ele>419.4</ele><time>2026-04-10T14:36:05.049Z</time></trkpt><trkpt lat="44.5979593" lon="10.2943465"><ele>423.0</ele><time>2026-04-10T14:36:06.049Z</time></trkpt><trkpt lat="44.5979424" lon="10.2942097"><ele>423.0</ele><time>2026-04-10T14:36:07.049Z</time></trkpt><trkpt lat="44.5978994" lon="10.294073"><ele>423.0</ele><time>2026-04-10T14:36:08.049Z</time></trkpt><trkpt lat="44.597883" lon="10.2939487"><ele>423.0</ele><time>2026-04-10T14:36:09.048Z</time></trkpt><trkpt lat="44.5979163" lon="10.2938554"><ele>423.0</ele><time>2026-04-10T14:36:10.048Z</time></trkpt><trkpt lat="44.5979796" lon="10.2937935"><ele>423.0</ele><time>2026-04-10T14:36:11.049Z</time></trkpt><trkpt lat="44.598037" lon="10.2937279"><ele>423.0</ele><time>2026-04-10T14:36:12.049Z</time></trkpt><trkpt lat="44.5980896" lon="10.2936616"><ele>425.2</ele><time>2026-04-10T14:36:13.049Z</time></trkpt><trkpt lat="44.598149" lon="10.2935868"><ele>427.4</ele><time>2026-04-10T14:36:14.049Z</time></trkpt><trkpt lat="44.5982039" lon="10.2935031"><ele>429.59999999999997</ele><time>2026-04-10T14:36:15.049Z</time></trkpt><trkpt lat="44.5981983" lon="10.2933946"><ele>431.79999999999995</ele><time>2026-04-10T14:36:16.049Z</time></trkpt><trkpt lat="44.5981446" lon="10.2931995"><ele>434.0</ele><time>2026-04-10T14:36:17.049Z</time></trkpt><trkpt lat="44.5981442" lon="10.2930043"><ele>436.0</ele><time>2026-04-10T14:36:18.049Z</time></trkpt><trkpt lat="44.5981657" lon="10.2928174"><ele>438.0</ele><time>2026-04-10T14:36:19.048Z</time></trkpt><trkpt lat="44.5981944" lon="10.2926122"><ele>440.0</ele><time>2026-04-10T14:36:20.049Z</time></trkpt><trkpt lat="44.5982042" lon="10.2924218"><ele>442.0</ele><time>2026-04-10T14:36:21.049Z</time></trkpt><trkpt lat="44.5982206" lon="10.2922452"><ele>444.0</ele><time>2026-04-10T14:36:22.049Z</time></trkpt><trkpt lat="44.5982352" lon="10.2920877"><ele>446.0</ele><time>2026-04-10T14:36:23.049Z</time></trkpt><trkpt lat="44.5982396" lon="10.2919346"><ele>448.0</ele><time>2026-04-10T14:36:24.048Z</time></trkpt><trkpt lat="44.5982289" lon="10.29177"><ele>450.0</ele><time>2026-04-10T14:36:25.049Z</time></trkpt><trkpt lat="44.5982319" lon="10.291613"><ele>450.0</ele><time>2026-04-10T14:36:26.048Z</time></trkpt><trkpt lat="44.5982719" lon="10.2914938"><ele>450.0</ele><time>2026-04-10T14:36:27.049Z</time></trkpt><trkpt lat="44.5982949" lon="10.2913726"><ele>450.0</ele><time>2026-04-10T14:36:28.049Z</time></trkpt><trkpt lat="44.5983359" lon="10.2912934"><ele>450.0</ele><time>2026-04-10T14:36:30.049Z</time></trkpt><trkpt lat="44.5983508" lon="10.29119"><ele>450.0</ele><time>2026-04-10T14:36:33.049Z</time></trkpt><trkpt lat="44.598288" lon="10.2911749"><ele>450.0</ele><time>2026-04-10T14:36:36.048Z</time></trkpt><trkpt lat="44.5982099" lon="10.2912452"><ele>450.0</ele><time>2026-04-10T14:36:38.048Z</time></trkpt><trkpt lat="44.5981495" lon="10.2912917"><ele>450.0</ele><time>2026-04-10T14:36:39.049Z</time></trkpt><trkpt lat="44.5980771" lon="10.2913122"><ele>450.0</ele><time>2026-04-10T14:36:40.049Z</time></trkpt><trkpt lat="44.5980143" lon="10.2913662"><ele>450.0</ele><time>2026-04-10T14:36:42.049Z</time></trkpt><trkpt lat="44.5980064" lon="10.2914983"><ele>450.0</ele><time>2026-04-10T14:36:44.048Z</time></trkpt><trkpt lat="44.5980696" lon="10.291625"><ele>450.0</ele><time>2026-04-10T14:36:46.048Z</time></trkpt><trkpt lat="44.5980762" lon="10.2917194"><ele>450.0</ele><time>2026-04-10T14:36:47.049Z</time></trkpt><trkpt lat="44.5980347" lon="10.2918236"><ele>450.0</ele><time>2026-04-10T14:36:48.048Z</time></trkpt><trkpt lat="44.5980115" lon="10.291939"><ele>450.0</ele><time>2026-04-10T14:36:49.049Z</time></trkpt><trkpt lat="44.5979707" lon="10.2920367"><ele>450.0</ele><time>2026-04-10T14:36:50.05Z</time></trkpt><trkpt lat="44.5979258" lon="10.2921673"><ele>450.0</ele><time>2026-04-10T14:36:51.049Z</time></trkpt><trkpt lat="44.5979088" lon="10.292287"><ele>450.0</ele><time>2026-04-10T14:36:52.049Z</time></trkpt><trkpt lat="44.5978767" lon="10.2924001"><ele>448.4</ele><time>2026-04-10T14:36:53.05Z</time></trkpt><trkpt lat="44.5978592" lon="10.2925193"><ele>446.8</ele><time>2026-04-10T14:36:54.049Z</time></trkpt><trkpt lat="44.5978347" lon="10.292619"><ele>445.20000000000005</ele><time>2026-04-10T14:36:55.05Z</time></trkpt><trkpt lat="44.5977875" lon="10.292746"><ele>443.6</ele><time>2026-04-10T14:36:56.049Z</time></trkpt><trkpt lat="44.5977281" lon="10.2928404"><ele>442.0</ele><time>2026-04-10T14:36:57.049Z</time></trkpt><trkpt lat="44.597666" lon="10.2929486"><ele>447.8</ele><time>2026-04-10T14:36:58.048Z</time></trkpt><trkpt lat="44.5976412" lon="10.2930848"><ele>453.6</ele><time>2026-04-10T14:37:00.048Z</time></trkpt><trkpt lat="44.5976391" lon="10.2931955"><ele>459.40000000000003</ele><time>2026-04-10T14:37:02.049Z</time></trkpt><trkpt lat="44.5976019" lon="10.2933299"><ele>465.20000000000005</ele><time>2026-04-10T14:37:04.048Z</time></trkpt><trkpt lat="44.5975028" lon="10.2934234"><ele>471.0</ele><time>2026-04-10T14:37:05.049Z</time></trkpt><trkpt lat="44.5974364" lon="10.2935236"><ele>471.0</ele><time>2026-04-10T14:37:06.049Z</time></trkpt><trkpt lat="44.5973857" lon="10.2936137"><ele>471.0</ele><time>2026-04-10T14:37:07.048Z</time></trkpt><trkpt lat="44.5973397" lon="10.2937068"><ele>471.0</ele><time>2026-04-10T14:37:08.049Z</time></trkpt><trkpt lat="44.5973086" lon="10.2938192"><ele>471.0</ele><time>2026-04-10T14:37:09.049Z</time></trkpt><trkpt lat="44.5973393" lon="10.2939906"><ele>471.0</ele><time>2026-04-10T14:37:10.049Z</time></trkpt><trkpt lat="44.5973471" lon="10.2941035"><ele>468.4</ele><time>2026-04-10T14:37:11.049Z</time></trkpt><trkpt lat="44.5973243" lon="10.2942213"><ele>465.8</ele><time>2026-04-10T14:37:12.049Z</time></trkpt><trkpt lat="44.597314" lon="10.2943458"><ele>463.19999999999993</ele><time>2026-04-10T14:37:13.049Z</time></trkpt><trkpt lat="44.5972262" lon="10.2944688"><ele>460.59999999999997</ele><time>2026-04-10T14:37:14.049Z</time></trkpt><trkpt lat="44.5971836" lon="10.2945786"><ele>458.0</ele><time>2026-04-10T14:37:15.049Z</time></trkpt><trkpt lat="44.5971259" lon="10.2946666"><ele>458.0</ele><time>2026-04-10T14:37:16.049Z</time></trkpt><trkpt lat="44.5970723" lon="10.2947389"><ele>457.99999999999994</ele><time>2026-04-10T14:37:17.049Z</time></trkpt><trkpt lat="44.5969982" lon="10.2948141"><ele>457.99999999999994</ele><time>2026-04-10T14:37:18.049Z</time></trkpt><trkpt lat="44.5969385" lon="10.2948984"><ele>458.0</ele><time>2026-04-10T14:37:19.049Z</time></trkpt><trkpt lat="44.596864" lon="10.2949859"><ele>458.0</ele><time>2026-04-10T14:37:20.048Z</time></trkpt><trkpt lat="44.5967931" lon="10.2951199"><ele>458.2</ele><time>2026-04-10T14:37:21.048Z</time></trkpt><trkpt lat="44.5967184" lon="10.2952529"><ele>458.4</ele><time>2026-04-10T14:37:22.049Z</time></trkpt><trkpt lat="44.5966531" lon="10.2953668"><ele>458.59999999999997</ele><time>2026-04-10T14:37:23.049Z</time></trkpt><trkpt lat="44.5965925" lon="10.2955017"><ele>458.79999999999995</ele><time>2026-04-10T14:37:24.049Z</time></trkpt><trkpt lat="44.5965373" lon="10.2956112"><ele>459.0</ele><time>2026-04-10T14:37:25.049Z</time></trkpt><trkpt lat="44.5964771" lon="10.295725"><ele>459.0</ele><time>2026-04-10T14:37:26.049Z</time></trkpt><trkpt lat="44.5964238" lon="10.295818"><ele>459.0</ele><time>2026-04-10T14:37:27.049Z</time></trkpt><trkpt lat="44.5963586" lon="10.2958846"><ele>459.0</ele><time>2026-04-10T14:37:28.048Z</time></trkpt><trkpt lat="44.5962966" lon="10.2959324"><ele>459.0</ele><time>2026-04-10T14:37:29.05Z</time></trkpt><trkpt lat="44.5962157" lon="10.2960591"><ele>459.0</ele><time>2026-04-10T14:37:31.049Z</time></trkpt><trkpt lat="44.5961585" lon="10.2962356"><ele>458.3333333333333</ele><time>2026-04-10T14:37:33.048Z</time></trkpt><trkpt lat="44.5960958" lon="10.2963428"><ele>457.66666666666663</ele><time>2026-04-10T14:37:34.048Z</time></trkpt><trkpt lat="44.5960246" lon="10.2964294"><ele>457.0</ele><time>2026-04-10T14:37:35.048Z</time></trkpt><trkpt lat="44.5959701" lon="10.2964857"><ele>456.3333333333333</ele><time>2026-04-10T14:37:36.048Z</time></trkpt><trkpt lat="44.595907" lon="10.2965312"><ele>455.66666666666663</ele><time>2026-04-10T14:37:38.047Z</time></trkpt><trkpt lat="44.5958435" lon="10.2965615"><ele>455.0</ele><time>2026-04-10T14:37:40.048Z</time></trkpt><trkpt lat="44.5957772" lon="10.2966414"><ele>455.0</ele><time>2026-04-10T14:37:42.048Z</time></trkpt><trkpt lat="44.5956912" lon="10.2967847"><ele>455.0</ele><time>2026-04-10T14:37:44.048Z</time></trkpt><trkpt lat="44.5956413" lon="10.2968565"><ele>455.0</ele><time>2026-04-10T14:37:45.048Z</time></trkpt><trkpt lat="44.5955767" lon="10.2970178"><ele>455.0</ele><time>2026-04-10T14:37:47.048Z</time></trkpt><trkpt lat="44.5955419" lon="10.2971998"><ele>451.4</ele><time>2026-04-10T14:37:49.049Z</time></trkpt><trkpt lat="44.595495" lon="10.2973852"><ele>447.8</ele><time>2026-04-10T14:37:51.047Z</time></trkpt><trkpt lat="44.5954691" lon="10.2974928"><ele>444.20000000000005</ele><time>2026-04-10T14:37:52.047Z</time></trkpt><trkpt lat="44.5954491" lon="10.297612"><ele>440.6</ele><time>2026-04-10T14:37:53.048Z</time></trkpt><trkpt lat="44.5954319" lon="10.2977145"><ele>437.0</ele><time>2026-04-10T14:37:54.049Z</time></trkpt><trkpt lat="44.5954074" lon="10.29781"><ele>436.99999999999994</ele><time>2026-04-10T14:37:55.048Z</time></trkpt><trkpt lat="44.5953729" lon="10.2979805"><ele>437.0</ele><time>2026-04-10T14:37:57.048Z</time></trkpt><trkpt lat="44.5953487" lon="10.2980903"><ele>437.0</ele><time>2026-04-10T14:37:58.048Z</time></trkpt><trkpt lat="44.5953221" lon="10.2981989"><ele>437.0</ele><time>2026-04-10T14:37:59.048Z</time></trkpt><trkpt lat="44.5952997" lon="10.2983063"><ele>436.99999999999994</ele><time>2026-04-10T14:38:00.048Z</time></trkpt><trkpt lat="44.5952872" lon="10.2984106"><ele>437.0</ele><time>2026-04-10T14:38:01.048Z</time></trkpt><trkpt lat="44.5952585" lon="10.2985095"><ele>435.16666666666663</ele><time>2026-04-10T14:38:02.048Z</time></trkpt><trkpt lat="44.5952052" lon="10.2985707"><ele>433.3333333333333</ele><time>2026-04-10T14:38:03.048Z</time></trkpt><trkpt lat="44.5951508" lon="10.2986306"><ele>431.5</ele><time>2026-04-10T14:38:04.048Z</time></trkpt><trkpt lat="44.5950889" lon="10.298677"><ele>429.66666666666663</ele><time>2026-04-10T14:38:05.048Z</time></trkpt><trkpt lat="44.5950098" lon="10.2986859"><ele>427.8333333333333</ele><time>2026-04-10T14:38:07.048Z</time></trkpt><trkpt lat="44.5949012" lon="10.2986114"><ele>426.0</ele><time>2026-04-10T14:38:09.049Z</time></trkpt><trkpt lat="44.5948397" lon="10.2985684"><ele>426.0</ele><time>2026-04-10T14:38:10.048Z</time></trkpt><trkpt lat="44.5947835" lon="10.2985103"><ele>426.0</ele><time>2026-04-10T14:38:11.048Z</time></trkpt><trkpt lat="44.5947155" lon="10.2983918"><ele>426.0</ele><time>2026-04-10T14:38:12.048Z</time></trkpt><trkpt lat="44.5946957" lon="10.2982532"><ele>426.0</ele><time>2026-04-10T14:38:14.048Z</time></trkpt><trkpt lat="44.5946591" lon="10.2981749"><ele>426.0</ele><time>2026-04-10T14:38:15.048Z</time></trkpt><trkpt lat="44.5946008" lon="10.2980576"><ele>426.0</ele><time>2026-04-10T14:38:17.048Z</time></trkpt><trkpt lat="44.5945459" lon="10.2980066"><ele>422.6</ele><time>2026-04-10T14:38:18.048Z</time></trkpt><trkpt lat="44.5944627" lon="10.2979127"><ele>419.20000000000005</ele><time>2026-04-10T14:38:20.048Z</time></trkpt><trkpt lat="44.5943706" lon="10.2978286"><ele>415.79999999999995</ele><time>2026-04-10T14:38:22.048Z</time></trkpt><trkpt lat="44.5942898" lon="10.297793"><ele>412.4</ele><time>2026-04-10T14:38:24.048Z</time></trkpt><trkpt lat="44.5942076" lon="10.2977618"><ele>409.0</ele><time>2026-04-10T14:38:26.048Z</time></trkpt><trkpt lat="44.5941738" lon="10.2976863"><ele>409.0</ele><time>2026-04-10T14:38:28.047Z</time></trkpt><trkpt lat="44.5941772" lon="10.2975839"><ele>409.0</ele><time>2026-04-10T14:38:30.048Z</time></trkpt><trkpt lat="44.5941971" lon="10.297449"><ele>409.0</ele><time>2026-04-10T14:38:32.048Z</time></trkpt><trkpt lat="44.5942204" lon="10.297324"><ele>409.0</ele><time>2026-04-10T14:38:34.047Z</time></trkpt><trkpt lat="44.5942344" lon="10.2971952"><ele>409.0</ele><time>2026-04-10T14:38:36.048Z</time></trkpt><trkpt lat="44.5942488" lon="10.2970403"><ele>409.4</ele><time>2026-04-10T14:38:38.048Z</time></trkpt><trkpt lat="44.5942566" lon="10.2969189"><ele>409.79999999999995</ele><time>2026-04-10T14:38:40.048Z</time></trkpt><trkpt lat="44.5942279" lon="10.296822"><ele>410.20000000000005</ele><time>2026-04-10T14:38:42.048Z</time></trkpt><trkpt lat="44.5942148" lon="10.2967071"><ele>410.6</ele><time>2026-04-10T14:38:44.048Z</time></trkpt><trkpt lat="44.5942453" lon="10.2965779"><ele>411.0</ele><time>2026-04-10T14:38:46.048Z</time></trkpt><trkpt lat="44.5942981" lon="10.2964324"><ele>412.4</ele><time>2026-04-10T14:38:48.048Z</time></trkpt><trkpt lat="44.5943185" lon="10.2963129"><ele>413.8</ele><time>2026-04-10T14:38:50.048Z</time></trkpt><trkpt lat="44.5943776" lon="10.2961624"><ele>415.2</ele><time>2026-04-10T14:38:52.047Z</time></trkpt><trkpt lat="44.594434" lon="10.2960504"><ele>416.59999999999997</ele><time>2026-04-10T14:38:53.048Z</time></trkpt><trkpt lat="44.5944484" lon="10.2959606"><ele>418.0</ele><time>2026-04-10T14:38:54.048Z</time></trkpt><trkpt lat="44.5944429" lon="10.2958227"><ele>418.0</ele><time>2026-04-10T14:38:55.048Z</time></trkpt><trkpt lat="44.5944102" lon="10.2956928"><ele>418.0</ele><time>2026-04-10T14:38:56.048Z</time></trkpt><trkpt lat="44.5943929" lon="10.295552"><ele>418.0</ele><time>2026-04-10T14:38:57.048Z</time></trkpt><trkpt lat="44.5943739" lon="10.2954248"><ele>418.0</ele><time>2026-04-10T14:38:58.049Z</time></trkpt><trkpt lat="44.5943797" lon="10.2952659"><ele>418.0</ele><time>2026-04-10T14:38:59.048Z</time></trkpt><trkpt lat="44.5944014" lon="10.2951143"><ele>420.2</ele><time>2026-04-10T14:39:00.048Z</time></trkpt><trkpt lat="44.5944476" lon="10.2949772"><ele>422.4</ele><time>2026-04-10T14:39:01.048Z</time></trkpt><trkpt lat="44.5944749" lon="10.294834"><ele>424.59999999999997</ele><time>2026-04-10T14:39:02.048Z</time></trkpt><trkpt lat="44.5945117" lon="10.2946822"><ele>426.79999999999995</ele><time>2026-04-10T14:39:03.048Z</time></trkpt><trkpt lat="44.594552" lon="10.2945352"><ele>429.0</ele><time>2026-04-10T14:39:04.048Z</time></trkpt><trkpt lat="44.5946001" lon="10.2944022"><ele>435.3333333333333</ele><time>2026-04-10T14:39:05.048Z</time></trkpt><trkpt lat="44.5946627" lon="10.2943039"><ele>441.66666666666663</ele><time>2026-04-10T14:39:06.047Z</time></trkpt><trkpt lat="44.5946864" lon="10.2942034"><ele>448.0</ele><time>2026-04-10T14:39:07.048Z</time></trkpt><trkpt lat="44.5947269" lon="10.2941079"><ele>454.3333333333333</ele><time>2026-04-10T14:39:08.047Z</time></trkpt><trkpt lat="44.5947612" lon="10.2939959"><ele>460.66666666666663</ele><time>2026-04-10T14:39:09.047Z</time></trkpt><trkpt lat="44.5947172" lon="10.2938649"><ele>467.0</ele><time>2026-04-10T14:39:10.048Z</time></trkpt><trkpt lat="44.594697" lon="10.2937312"><ele>465.25</ele><time>2026-04-10T14:39:11.048Z</time></trkpt><trkpt lat="44.5946398" lon="10.2935933"><ele>463.5</ele><time>2026-04-10T14:39:12.048Z</time></trkpt><trkpt lat="44.5945187" lon="10.2934097"><ele>461.75</ele><time>2026-04-10T14:39:13.048Z</time></trkpt><trkpt lat="44.5944102" lon="10.2933271"><ele>460.0</ele><time>2026-04-10T14:39:14.048Z</time></trkpt><trkpt lat="44.5943293" lon="10.2932501"><ele>460.00000000000006</ele><time>2026-04-10T14:39:15.047Z</time></trkpt><trkpt lat="44.594266" lon="10.2931798"><ele>460.0</ele><time>2026-04-10T14:39:16.047Z</time></trkpt><trkpt lat="44.5942505" lon="10.2930743"><ele>460.0</ele><time>2026-04-10T14:39:17.047Z</time></trkpt><trkpt lat="44.5942437" lon="10.2929857"><ele>460.0</ele><time>2026-04-10T14:39:18.048Z</time></trkpt><trkpt lat="44.5942541" lon="10.2928857"><ele>460.00000000000006</ele><time>2026-04-10T14:39:19.048Z</time></trkpt><trkpt lat="44.594267" lon="10.2927275"><ele>460.0</ele><time>2026-04-10T14:39:20.048Z</time></trkpt><trkpt lat="44.5942813" lon="10.2925873"><ele>463.0</ele><time>2026-04-10T14:39:21.048Z</time></trkpt><trkpt lat="44.5942999" lon="10.2924497"><ele>466.0</ele><time>2026-04-10T14:39:22.048Z</time></trkpt><trkpt lat="44.5942951" lon="10.2922649"><ele>469.0</ele><time>2026-04-10T14:39:24.048Z</time></trkpt><trkpt lat="44.5942473" lon="10.2921593"><ele>472.0</ele><time>2026-04-10T14:39:25.047Z</time></trkpt><trkpt lat="44.594213" lon="10.292059"><ele>475.0</ele><time>2026-04-10T14:39:26.048Z</time></trkpt><trkpt lat="44.5941863" lon="10.2919196"><ele>477.0</ele><time>2026-04-10T14:39:27.048Z</time></trkpt><trkpt lat="44.5941606" lon="10.2917735"><ele>479.0</ele><time>2026-04-10T14:39:28.048Z</time></trkpt><trkpt lat="44.594138" lon="10.291643"><ele>481.0</ele><time>2026-04-10T14:39:29.048Z</time></trkpt><trkpt lat="44.5941115" lon="10.2915256"><ele>483.0</ele><time>2026-04-10T14:39:30.048Z</time></trkpt><trkpt lat="44.5940883" lon="10.2914262"><ele>485.0</ele><time>2026-04-10T14:39:31.048Z</time></trkpt><trkpt lat="44.5940523" lon="10.2913118"><ele>486.6</ele><time>2026-04-10T14:39:32.048Z</time></trkpt><trkpt lat="44.5939948" lon="10.2912065"><ele>488.2</ele><time>2026-04-10T14:39:33.048Z</time></trkpt><trkpt lat="44.593949" lon="10.291103"><ele>489.79999999999995</ele><time>2026-04-10T14:39:34.048Z</time></trkpt><trkpt lat="44.5938795" lon="10.2909843"><ele>491.4</ele><time>2026-04-10T14:39:35.048Z</time></trkpt><trkpt lat="44.5937972" lon="10.2908536"><ele>493.0</ele><time>2026-04-10T14:39:36.048Z</time></trkpt><trkpt lat="44.5937197" lon="10.2907164"><ele>491.59999999999997</ele><time>2026-04-10T14:39:37.047Z</time></trkpt><trkpt lat="44.593637" lon="10.2906071"><ele>490.19999999999993</ele><time>2026-04-10T14:39:38.047Z</time></trkpt><trkpt lat="44.593545" lon="10.290516"><ele>488.8</ele><time>2026-04-10T14:39:39.048Z</time></trkpt><trkpt lat="44.5934645" lon="10.2904551"><ele>487.4</ele><time>2026-04-10T14:39:40.048Z</time></trkpt><trkpt lat="44.5933969" lon="10.2903933"><ele>486.0</ele><time>2026-04-10T14:39:41.048Z</time></trkpt><trkpt lat="44.593348" lon="10.2903218"><ele>486.0</ele><time>2026-04-10T14:39:42.048Z</time></trkpt><trkpt lat="44.5932901" lon="10.2902261"><ele>486.0</ele><time>2026-04-10T14:39:43.047Z</time></trkpt><trkpt lat="44.5932428" lon="10.2901383"><ele>486.0</ele><time>2026-04-10T14:39:44.047Z</time></trkpt><trkpt lat="44.5932667" lon="10.2900194"><ele>486.0</ele><time>2026-04-10T14:39:45.048Z</time></trkpt><trkpt lat="44.5932776" lon="10.2898626"><ele>486.0</ele><time>2026-04-10T14:39:46.048Z</time></trkpt><trkpt lat="44.593301" lon="10.2897061"><ele>486.20000000000005</ele><time>2026-04-10T14:39:47.048Z</time></trkpt><trkpt lat="44.5933207" lon="10.2895653"><ele>486.40000000000003</ele><time>2026-04-10T14:39:48.049Z</time></trkpt><trkpt lat="44.5933664" lon="10.2894097"><ele>486.6</ele><time>2026-04-10T14:39:49.048Z</time></trkpt><trkpt lat="44.5934192" lon="10.2892772"><ele>486.8</ele><time>2026-04-10T14:39:50.048Z</time></trkpt><trkpt lat="44.5934891" lon="10.2891575"><ele>487.0</ele><time>2026-04-10T14:39:51.049Z</time></trkpt><trkpt lat="44.5935623" lon="10.289027"><ele>485.20000000000005</ele><time>2026-04-10T14:39:52.048Z</time></trkpt><trkpt lat="44.5936387" lon="10.2889122"><ele>483.40000000000003</ele><time>2026-04-10T14:39:53.048Z</time></trkpt><trkpt lat="44.5937107" lon="10.2888248"><ele>481.59999999999997</ele><time>2026-04-10T14:39:54.048Z</time></trkpt><trkpt lat="44.5937489" lon="10.2887368"><ele>479.79999999999995</ele><time>2026-04-10T14:39:55.048Z</time></trkpt><trkpt lat="44.5937727" lon="10.28862"><ele>478.0</ele><time>2026-04-10T14:39:56.047Z</time></trkpt><trkpt lat="44.5937889" lon="10.2884898"><ele>485.5</ele><time>2026-04-10T14:39:57.047Z</time></trkpt><trkpt lat="44.593804" lon="10.2883449"><ele>493.0</ele><time>2026-04-10T14:39:58.047Z</time></trkpt><trkpt lat="44.5938071" lon="10.2881589"><ele>500.5</ele><time>2026-04-10T14:39:59.047Z</time></trkpt><trkpt lat="44.5938031" lon="10.2879868"><ele>508.0</ele><time>2026-04-10T14:40:00.047Z</time></trkpt><trkpt lat="44.5937949" lon="10.287806"><ele>508.0</ele><time>2026-04-10T14:40:01.048Z</time></trkpt><trkpt lat="44.5937924" lon="10.2876528"><ele>507.99999999999994</ele><time>2026-04-10T14:40:02.048Z</time></trkpt><trkpt lat="44.5937976" lon="10.2875215"><ele>507.99999999999994</ele><time>2026-04-10T14:40:03.049Z</time></trkpt><trkpt lat="44.5937783" lon="10.2873906"><ele>508.0</ele><time>2026-04-10T14:40:04.048Z</time></trkpt><trkpt lat="44.5937505" lon="10.287244"><ele>508.0</ele><time>2026-04-10T14:40:05.048Z</time></trkpt><trkpt lat="44.593725" lon="10.2871206"><ele>506.0</ele><time>2026-04-10T14:40:06.047Z</time></trkpt><trkpt lat="44.5936924" lon="10.2869856"><ele>503.99999999999994</ele><time>2026-04-10T14:40:07.048Z</time></trkpt><trkpt lat="44.5936545" lon="10.2868517"><ele>501.99999999999994</ele><time>2026-04-10T14:40:08.048Z</time></trkpt><trkpt lat="44.5936121" lon="10.2867211"><ele>500.0</ele><time>2026-04-10T14:40:09.048Z</time></trkpt><trkpt lat="44.5935679" lon="10.2865858"><ele>498.0</ele><time>2026-04-10T14:40:10.047Z</time></trkpt><trkpt lat="44.59353" lon="10.2864486"><ele>502.59999999999997</ele><time>2026-04-10T14:40:11.047Z</time></trkpt><trkpt lat="44.5934903" lon="10.2863191"><ele>507.19999999999993</ele><time>2026-04-10T14:40:12.048Z</time></trkpt><trkpt lat="44.5934197" lon="10.2862141"><ele>511.8</ele><time>2026-04-10T14:40:13.048Z</time></trkpt><trkpt lat="44.593393" lon="10.2861091"><ele>516.4</ele><time>2026-04-10T14:40:14.048Z</time></trkpt><trkpt lat="44.5932841" lon="10.2860589"><ele>521.0</ele><time>2026-04-10T14:40:15.048Z</time></trkpt><trkpt lat="44.5932422" lon="10.285962"><ele>521.0</ele><time>2026-04-10T14:40:16.048Z</time></trkpt><trkpt lat="44.593187" lon="10.2858696"><ele>521.0</ele><time>2026-04-10T14:40:17.047Z</time></trkpt><trkpt lat="44.593147" lon="10.2857509"><ele>521.0</ele><time>2026-04-10T14:40:18.047Z</time></trkpt><trkpt lat="44.5930988" lon="10.2856536"><ele>521.0</ele><time>2026-04-10T14:40:19.047Z</time></trkpt><trkpt lat="44.5930316" lon="10.2855602"><ele>521.0</ele><time>2026-04-10T14:40:20.048Z</time></trkpt><trkpt lat="44.5929796" lon="10.2854869"><ele>521.0</ele><time>2026-04-10T14:40:21.048Z</time></trkpt><trkpt lat="44.5929078" lon="10.2854318"><ele>522.0</ele><time>2026-04-10T14:40:23.048Z</time></trkpt><trkpt lat="44.5927772" lon="10.2853968"><ele>523.0</ele><time>2026-04-10T14:40:25.048Z</time></trkpt><trkpt lat="44.5926828" lon="10.285384"><ele>524.0</ele><time>2026-04-10T14:40:26.048Z</time></trkpt><trkpt lat="44.5925865" lon="10.2853685"><ele>525.0</ele><time>2026-04-10T14:40:27.047Z</time></trkpt><trkpt lat="44.5925007" lon="10.285347"><ele>526.0</ele><time>2026-04-10T14:40:28.048Z</time></trkpt><trkpt lat="44.5924285" lon="10.2853034"><ele>526.0</ele><time>2026-04-10T14:40:29.048Z</time></trkpt><trkpt lat="44.592357" lon="10.2852356"><ele>526.0</ele><time>2026-04-10T14:40:30.048Z</time></trkpt><trkpt lat="44.5922995" lon="10.2851426"><ele>526.0</ele><time>2026-04-10T14:40:31.047Z</time></trkpt><trkpt lat="44.5922558" lon="10.2850407"><ele>526.0</ele><time>2026-04-10T14:40:32.048Z</time></trkpt><trkpt lat="44.5922218" lon="10.2849315"><ele>526.0</ele><time>2026-04-10T14:40:33.048Z</time></trkpt><trkpt lat="44.5921934" lon="10.2848151"><ele>526.0</ele><time>2026-04-10T14:40:34.048Z</time></trkpt><trkpt lat="44.5921502" lon="10.2847007"><ele>524.5</ele><time>2026-04-10T14:40:35.048Z</time></trkpt><trkpt lat="44.5920938" lon="10.2846035"><ele>523.0</ele><time>2026-04-10T14:40:36.048Z</time></trkpt><trkpt lat="44.592022" lon="10.2845241"><ele>521.5</ele><time>2026-04-10T14:40:37.048Z</time></trkpt><trkpt lat="44.5919457" lon="10.2844619"><ele>520.0</ele><time>2026-04-10T14:40:38.048Z</time></trkpt><trkpt lat="44.5918753" lon="10.2844027"><ele>518.5</ele><time>2026-04-10T14:40:39.047Z</time></trkpt><trkpt lat="44.5918145" lon="10.2843454"><ele>517.0</ele><time>2026-04-10T14:40:40.047Z</time></trkpt><trkpt lat="44.5917644" lon="10.2842825"><ele>517.0</ele><time>2026-04-10T14:40:41.048Z</time></trkpt><trkpt lat="44.5917293" lon="10.2842028"><ele>517.0</ele><time>2026-04-10T14:40:42.048Z</time></trkpt><trkpt lat="44.5917041" lon="10.2841048"><ele>517.0</ele><time>2026-04-10T14:40:43.048Z</time></trkpt><trkpt lat="44.5916845" lon="10.2839893"><ele>517.0</ele><time>2026-04-10T14:40:44.048Z</time></trkpt><trkpt lat="44.5916736" lon="10.2838676"><ele>517.0</ele><time>2026-04-10T14:40:45.048Z</time></trkpt><trkpt lat="44.5916703" lon="10.2837584"><ele>517.0</ele><time>2026-04-10T14:40:46.048Z</time></trkpt><trkpt lat="44.591667" lon="10.2836623"><ele>518.0</ele><time>2026-04-10T14:40:47.048Z</time></trkpt><trkpt lat="44.5916667" lon="10.2835603"><ele>519.0</ele><time>2026-04-10T14:40:48.047Z</time></trkpt><trkpt lat="44.5916867" lon="10.2834611"><ele>520.0</ele><time>2026-04-10T14:40:49.047Z</time></trkpt><trkpt lat="44.5917285" lon="10.2833457"><ele>521.0</ele><time>2026-04-10T14:40:50.047Z</time></trkpt><trkpt lat="44.5917489" lon="10.2832137"><ele>522.0</ele><time>2026-04-10T14:40:51.048Z</time></trkpt><trkpt lat="44.5917724" lon="10.2830909"><ele>523.0</ele><time>2026-04-10T14:40:52.048Z</time></trkpt><trkpt lat="44.5917268" lon="10.2829233"><ele>524.0</ele><time>2026-04-10T14:40:53.048Z</time></trkpt><trkpt lat="44.5917133" lon="10.2827701"><ele>525.0</ele><time>2026-04-10T14:40:54.048Z</time></trkpt><trkpt lat="44.5916892" lon="10.2826196"><ele>526.0</ele><time>2026-04-10T14:40:55.048Z</time></trkpt><trkpt lat="44.5916668" lon="10.2824675"><ele>527.0</ele><time>2026-04-10T14:40:56.047Z</time></trkpt><trkpt lat="44.591644" lon="10.2823201"><ele>528.0</ele><time>2026-04-10T14:40:57.048Z</time></trkpt><trkpt lat="44.5916184" lon="10.2821825"><ele>529.8</ele><time>2026-04-10T14:40:58.048Z</time></trkpt><trkpt lat="44.5915835" lon="10.282042"><ele>531.5999999999999</ele><time>2026-04-10T14:40:59.048Z</time></trkpt><trkpt lat="44.5915435" lon="10.2819284"><ele>533.4000000000001</ele><time>2026-04-10T14:41:00.047Z</time></trkpt><trkpt lat="44.5914817" lon="10.2818222"><ele>535.2</ele><time>2026-04-10T14:41:01.047Z</time></trkpt><trkpt lat="44.5914081" lon="10.2817328"><ele>537.0</ele><time>2026-04-10T14:41:02.048Z</time></trkpt><trkpt lat="44.5913227" lon="10.2816611"><ele>537.0</ele><time>2026-04-10T14:41:03.048Z</time></trkpt><trkpt lat="44.5912225" lon="10.2815968"><ele>537.0</ele><time>2026-04-10T14:41:04.048Z</time></trkpt><trkpt lat="44.5911212" lon="10.2815579"><ele>537.0</ele><time>2026-04-10T14:41:05.048Z</time></trkpt><trkpt lat="44.5910247" lon="10.2815326"><ele>537.0</ele><time>2026-04-10T14:41:06.047Z</time></trkpt><trkpt lat="44.5909269" lon="10.2814958"><ele>537.0</ele><time>2026-04-10T14:41:07.049Z</time></trkpt><trkpt lat="44.590822" lon="10.2814537"><ele>536.5</ele><time>2026-04-10T14:41:08.047Z</time></trkpt><trkpt lat="44.5907123" lon="10.2814056"><ele>536.0</ele><time>2026-04-10T14:41:09.048Z</time></trkpt><trkpt lat="44.5906085" lon="10.2813543"><ele>535.5</ele><time>2026-04-10T14:41:10.048Z</time></trkpt><trkpt lat="44.590504" lon="10.2812969"><ele>535.0</ele><time>2026-04-10T14:41:11.049Z</time></trkpt><trkpt lat="44.5903998" lon="10.2812357"><ele>531.0</ele><time>2026-04-10T14:41:12.048Z</time></trkpt><trkpt lat="44.5902976" lon="10.2811654"><ele>527.0</ele><time>2026-04-10T14:41:13.047Z</time></trkpt><trkpt lat="44.5901975" lon="10.2810935"><ele>523.0</ele><time>2026-04-10T14:41:14.048Z</time></trkpt><trkpt lat="44.5901098" lon="10.2810223"><ele>519.0</ele><time>2026-04-10T14:41:15.048Z</time></trkpt><trkpt lat="44.5900343" lon="10.2809543"><ele>515.0</ele><time>2026-04-10T14:41:16.048Z</time></trkpt><trkpt lat="44.589967" lon="10.2809002"><ele>515.0</ele><time>2026-04-10T14:41:17.048Z</time></trkpt><trkpt lat="44.589887" lon="10.2808699"><ele>515.0</ele><time>2026-04-10T14:41:18.048Z</time></trkpt><trkpt lat="44.5898049" lon="10.2808752"><ele>515.0</ele><time>2026-04-10T14:41:19.047Z</time></trkpt><trkpt lat="44.5897215" lon="10.2808995"><ele>515.0</ele><time>2026-04-10T14:41:20.048Z</time></trkpt><trkpt lat="44.5896543" lon="10.2809368"><ele>515.0</ele><time>2026-04-10T14:41:21.048Z</time></trkpt><trkpt lat="44.5895934" lon="10.2809852"><ele>515.0</ele><time>2026-04-10T14:41:22.048Z</time></trkpt><trkpt lat="44.5895271" lon="10.2810052"><ele>513.2</ele><time>2026-04-10T14:41:23.048Z</time></trkpt><trkpt lat="44.5893792" lon="10.2810129"><ele>511.4</ele><time>2026-04-10T14:41:25.047Z</time></trkpt><trkpt lat="44.5892872" lon="10.2810155"><ele>509.6</ele><time>2026-04-10T14:41:26.048Z</time></trkpt><trkpt lat="44.5891931" lon="10.2810075"><ele>507.8</ele><time>2026-04-10T14:41:27.048Z</time></trkpt><trkpt lat="44.5890937" lon="10.2809925"><ele>506.0</ele><time>2026-04-10T14:41:28.048Z</time></trkpt><trkpt lat="44.5889937" lon="10.2809543"><ele>505.99999999999994</ele><time>2026-04-10T14:41:29.049Z</time></trkpt><trkpt lat="44.5888857" lon="10.280942"><ele>506.0</ele><time>2026-04-10T14:41:30.047Z</time></trkpt><trkpt lat="44.5887833" lon="10.280953"><ele>506.0</ele><time>2026-04-10T14:41:31.048Z</time></trkpt><trkpt lat="44.5886885" lon="10.2809699"><ele>506.0</ele><time>2026-04-10T14:41:32.048Z</time></trkpt><trkpt lat="44.5886152" lon="10.2809705"><ele>505.99999999999994</ele><time>2026-04-10T14:41:33.048Z</time></trkpt><trkpt lat="44.5885476" lon="10.2809681"><ele>506.0</ele><time>2026-04-10T14:41:34.048Z</time></trkpt><trkpt lat="44.5884786" lon="10.2809577"><ele>505.66666666666663</ele><time>2026-04-10T14:41:35.048Z</time></trkpt><trkpt lat="44.5884109" lon="10.2809331"><ele>505.3333333333333</ele><time>2026-04-10T14:41:36.047Z</time></trkpt><trkpt lat="44.5883527" lon="10.2808959"><ele>505.0</ele><time>2026-04-10T14:41:37.047Z</time></trkpt><trkpt lat="44.5882809" lon="10.2808449"><ele>504.66666666666663</ele><time>2026-04-10T14:41:38.048Z</time></trkpt><trkpt lat="44.5881975" lon="10.2807899"><ele>504.3333333333333</ele><time>2026-04-10T14:41:39.048Z</time></trkpt><trkpt lat="44.5881205" lon="10.2807371"><ele>504.0</ele><time>2026-04-10T14:41:40.048Z</time></trkpt><trkpt lat="44.5880462" lon="10.2806752"><ele>504.0</ele><time>2026-04-10T14:41:41.048Z</time></trkpt><trkpt lat="44.5879652" lon="10.2806247"><ele>504.0</ele><time>2026-04-10T14:41:42.048Z</time></trkpt><trkpt lat="44.5878935" lon="10.2805801"><ele>504.0</ele><time>2026-04-10T14:41:43.047Z</time></trkpt><trkpt lat="44.587825" lon="10.2805505"><ele>504.0</ele><time>2026-04-10T14:41:44.048Z</time></trkpt><trkpt lat="44.5877585" lon="10.2805325"><ele>504.0</ele><time>2026-04-10T14:41:45.048Z</time></trkpt><trkpt lat="44.5876679" lon="10.2804601"><ele>504.0</ele><time>2026-04-10T14:41:47.048Z</time></trkpt><trkpt lat="44.5876353" lon="10.280318"><ele>502.57142857142856</ele><time>2026-04-10T14:41:49.049Z</time></trkpt><trkpt lat="44.5876373" lon="10.2802179"><ele>501.1428571428571</ele><time>2026-04-10T14:41:50.047Z</time></trkpt><trkpt lat="44.5876375" lon="10.2801188"><ele>499.7142857142857</ele><time>2026-04-10T14:41:51.048Z</time></trkpt><trkpt lat="44.5876399" lon="10.2800183"><ele>498.2857142857143</ele><time>2026-04-10T14:41:52.048Z</time></trkpt><trkpt lat="44.5876384" lon="10.2799259"><ele>496.85714285714283</ele><time>2026-04-10T14:41:53.048Z</time></trkpt><trkpt lat="44.5876268" lon="10.2798383"><ele>495.42857142857144</ele><time>2026-04-10T14:41:54.048Z</time></trkpt><trkpt lat="44.5876098" lon="10.2797502"><ele>494.0</ele><time>2026-04-10T14:41:55.047Z</time></trkpt><trkpt lat="44.58757" lon="10.2796118"><ele>491.4</ele><time>2026-04-10T14:41:57.048Z</time></trkpt><trkpt lat="44.5875244" lon="10.2794603"><ele>488.79999999999995</ele><time>2026-04-10T14:41:59.048Z</time></trkpt><trkpt lat="44.5875156" lon="10.2792855"><ele>486.20000000000005</ele><time>2026-04-10T14:42:01.048Z</time></trkpt><trkpt lat="44.5875222" lon="10.2791973"><ele>483.6</ele><time>2026-04-10T14:42:02.048Z</time></trkpt><trkpt lat="44.5875344" lon="10.2791047"><ele>481.0</ele><time>2026-04-10T14:42:03.048Z</time></trkpt><trkpt lat="44.5875616" lon="10.278944"><ele>478.83333333333337</ele><time>2026-04-10T14:42:05.048Z</time></trkpt><trkpt lat="44.5875524" lon="10.2787974"><ele>476.6666666666667</ele><time>2026-04-10T14:42:07.048Z</time></trkpt><trkpt lat="44.587513" lon="10.2787158"><ele>474.5</ele><time>2026-04-10T14:42:08.048Z</time></trkpt><trkpt lat="44.5874716" lon="10.2786312"><ele>472.33333333333337</ele><time>2026-04-10T14:42:09.048Z</time></trkpt><trkpt lat="44.5874559" lon="10.2785405"><ele>470.1666666666667</ele><time>2026-04-10T14:42:10.048Z</time></trkpt><trkpt lat="44.5874478" lon="10.2784464"><ele>468.0</ele><time>2026-04-10T14:42:11.047Z</time></trkpt><trkpt lat="44.5874056" lon="10.278337"><ele>468.0</ele><time>2026-04-10T14:42:13.048Z</time></trkpt><trkpt lat="44.58732" lon="10.2782912"><ele>467.99999999999994</ele><time>2026-04-10T14:42:15.048Z</time></trkpt><trkpt lat="44.5872439" lon="10.2782681"><ele>467.99999999999994</ele><time>2026-04-10T14:42:16.048Z</time></trkpt><trkpt lat="44.5871853" lon="10.2782111"><ele>468.0</ele><time>2026-04-10T14:42:17.048Z</time></trkpt><trkpt lat="44.5871178" lon="10.2780565"><ele>468.0</ele><time>2026-04-10T14:42:19.047Z</time></trkpt><trkpt lat="44.5870582" lon="10.2779522"><ele>466.6666666666667</ele><time>2026-04-10T14:42:20.048Z</time></trkpt><trkpt lat="44.587005" lon="10.2778584"><ele>465.33333333333337</ele><time>2026-04-10T14:42:21.048Z</time></trkpt><trkpt lat="44.5869622" lon="10.2777696"><ele>464.0</ele><time>2026-04-10T14:42:22.048Z</time></trkpt><trkpt lat="44.5869159" lon="10.27767"><ele>462.6666666666667</ele><time>2026-04-10T14:42:23.048Z</time></trkpt><trkpt lat="44.5868861" lon="10.2775868"><ele>461.33333333333337</ele><time>2026-04-10T14:42:24.048Z</time></trkpt><trkpt lat="44.5868841" lon="10.277439"><ele>460.0</ele><time>2026-04-10T14:42:26.048Z</time></trkpt><trkpt lat="44.5869125" lon="10.2773582"><ele>458.8</ele><time>2026-04-10T14:42:27.047Z</time></trkpt><trkpt lat="44.5869574" lon="10.2772685"><ele>457.6</ele><time>2026-04-10T14:42:28.048Z</time></trkpt><trkpt lat="44.5870002" lon="10.2771996"><ele>456.4</ele><time>2026-04-10T14:42:29.049Z</time></trkpt><trkpt lat="44.5870878" lon="10.2770767"><ele>455.2</ele><time>2026-04-10T14:42:31.048Z</time></trkpt><trkpt lat="44.5871822" lon="10.2770089"><ele>454.0</ele><time>2026-04-10T14:42:33.048Z</time></trkpt><trkpt lat="44.5872849" lon="10.2769124"><ele>451.83333333333337</ele><time>2026-04-10T14:42:35.049Z</time></trkpt><trkpt lat="44.5873528" lon="10.276814"><ele>449.6666666666667</ele><time>2026-04-10T14:42:36.048Z</time></trkpt><trkpt lat="44.587391" lon="10.2767039"><ele>447.5</ele><time>2026-04-10T14:42:37.048Z</time></trkpt><trkpt lat="44.5874506" lon="10.2765957"><ele>445.33333333333337</ele><time>2026-04-10T14:42:38.048Z</time></trkpt><trkpt lat="44.5875092" lon="10.2765005"><ele>443.1666666666667</ele><time>2026-04-10T14:42:39.048Z</time></trkpt><trkpt lat="44.5875533" lon="10.2764313"><ele>441.0</ele><time>2026-04-10T14:42:40.048Z</time></trkpt><trkpt lat="44.587626" lon="10.2763187"><ele>440.1666666666667</ele><time>2026-04-10T14:42:42.048Z</time></trkpt><trkpt lat="44.5877091" lon="10.2761957"><ele>439.33333333333337</ele><time>2026-04-10T14:42:44.048Z</time></trkpt><trkpt lat="44.5877648" lon="10.2761268"><ele>438.5</ele><time>2026-04-10T14:42:45.048Z</time></trkpt><trkpt lat="44.5878106" lon="10.2760539"><ele>437.6666666666667</ele><time>2026-04-10T14:42:46.048Z</time></trkpt><trkpt lat="44.587857" lon="10.275985"><ele>436.83333333333337</ele><time>2026-04-10T14:42:47.049Z</time></trkpt><trkpt lat="44.5879188" lon="10.275927"><ele>436.0</ele><time>2026-04-10T14:42:48.048Z</time></trkpt><trkpt lat="44.587975" lon="10.2758354"><ele>434.2857142857143</ele><time>2026-04-10T14:42:49.048Z</time></trkpt><trkpt lat="44.5880287" lon="10.2757367"><ele>432.57142857142856</ele><time>2026-04-10T14:42:51.049Z</time></trkpt><trkpt lat="44.5880246" lon="10.2756475"><ele>430.8571428571429</ele><time>2026-04-10T14:42:53.048Z</time></trkpt><trkpt lat="44.5880237" lon="10.2755465"><ele>429.1428571428571</ele><time>2026-04-10T14:42:55.048Z</time></trkpt><trkpt lat="44.5880839" lon="10.2754835"><ele>427.4285714285714</ele><time>2026-04-10T14:42:57.048Z</time></trkpt><trkpt lat="44.5881467" lon="10.2754621"><ele>425.7142857142857</ele><time>2026-04-10T14:42:58.047Z</time></trkpt><trkpt lat="44.5882111" lon="10.275453"><ele>424.0</ele><time>2026-04-10T14:42:59.048Z</time></trkpt><trkpt lat="44.588334" lon="10.2754699"><ele>423.6666666666667</ele><time>2026-04-10T14:43:01.048Z</time></trkpt><trkpt lat="44.5884387" lon="10.2754837"><ele>423.33333333333337</ele><time>2026-04-10T14:43:03.048Z</time></trkpt><trkpt lat="44.5885285" lon="10.2754536"><ele>423.0</ele><time>2026-04-10T14:43:05.048Z</time></trkpt><trkpt lat="44.5886134" lon="10.2754357"><ele>422.66666666666663</ele><time>2026-04-10T14:43:06.048Z</time></trkpt><trkpt lat="44.5886852" lon="10.2754074"><ele>422.3333333333333</ele><time>2026-04-10T14:43:07.049Z</time></trkpt><trkpt lat="44.5887504" lon="10.2753814"><ele>422.0</ele><time>2026-04-10T14:43:08.048Z</time></trkpt><trkpt lat="44.5888578" lon="10.2753111"><ele>421.42857142857144</ele><time>2026-04-10T14:43:10.048Z</time></trkpt><trkpt lat="44.588916" lon="10.2752566"><ele>420.8571428571429</ele><time>2026-04-10T14:43:11.048Z</time></trkpt><trkpt lat="44.5889756" lon="10.2752032"><ele>420.2857142857143</ele><time>2026-04-10T14:43:12.048Z</time></trkpt><trkpt lat="44.5890262" lon="10.2751415"><ele>419.7142857142857</ele><time>2026-04-10T14:43:13.048Z</time></trkpt><trkpt lat="44.5890902" lon="10.2750537"><ele>419.1428571428571</ele><time>2026-04-10T14:43:15.048Z</time></trkpt><trkpt lat="44.5891302" lon="10.2749724"><ele>418.57142857142856</ele><time>2026-04-10T14:43:18.047Z</time></trkpt><trkpt lat="44.5891564" lon="10.2750609"><ele>418.0</ele><time>2026-04-10T14:45:22.047Z</time></trkpt><trkpt lat="44.5891278" lon="10.2751485"><ele>418.00000000000006</ele><time>2026-04-10T14:45:24.047Z</time></trkpt><trkpt lat="44.589043" lon="10.2751761"><ele>418.0</ele><time>2026-04-10T14:45:27.047Z</time></trkpt><trkpt lat="44.5890853" lon="10.2750609"><ele>418.0</ele><time>2026-04-10T14:45:30.047Z</time></trkpt><trkpt lat="44.5891281" lon="10.2749865"><ele>418.0</ele><time>2026-04-10T14:45:32.047Z</time></trkpt><trkpt lat="44.5891791" lon="10.2749103"><ele>418.00000000000006</ele><time>2026-04-10T14:45:34.047Z</time></trkpt><trkpt lat="44.5892565" lon="10.2748638"><ele>418.0</ele><time>2026-04-10T14:45:36.046Z</time></trkpt><trkpt lat="44.5893197" lon="10.2748125"><ele>418.83333333333337</ele><time>2026-04-10T14:45:38.047Z</time></trkpt><trkpt lat="44.5893285" lon="10.2747189"><ele>419.6666666666667</ele><time>2026-04-10T14:45:40.047Z</time></trkpt><trkpt lat="44.5893926" lon="10.2746192"><ele>420.5</ele><time>2026-04-10T14:45:43.047Z</time></trkpt><trkpt lat="44.5894556" lon="10.2745425"><ele>421.33333333333337</ele><time>2026-04-10T14:45:45.047Z</time></trkpt><trkpt lat="44.5895084" lon="10.2744487"><ele>422.1666666666667</ele><time>2026-04-10T14:45:46.047Z</time></trkpt><trkpt lat="44.5895621" lon="10.2743643"><ele>423.0</ele><time>2026-04-10T14:45:47.047Z</time></trkpt><trkpt lat="44.5896635" lon="10.2742519"><ele>423.0</ele><time>2026-04-10T14:45:49.047Z</time></trkpt><trkpt lat="44.5897111" lon="10.2741723"><ele>423.0</ele><time>2026-04-10T14:45:50.047Z</time></trkpt><trkpt lat="44.5897838" lon="10.2741284"><ele>423.0</ele><time>2026-04-10T14:45:51.047Z</time></trkpt><trkpt lat="44.5898884" lon="10.2740474"><ele>423.0</ele><time>2026-04-10T14:45:53.047Z</time></trkpt><trkpt lat="44.5899528" lon="10.2739959"><ele>423.0</ele><time>2026-04-10T14:45:54.047Z</time></trkpt><trkpt lat="44.5900336" lon="10.273919"><ele>423.0</ele><time>2026-04-10T14:45:55.047Z</time></trkpt><trkpt lat="44.590145" lon="10.2738615"><ele>423.4</ele><time>2026-04-10T14:45:56.047Z</time></trkpt><trkpt lat="44.5902521" lon="10.2738113"><ele>423.79999999999995</ele><time>2026-04-10T14:45:57.047Z</time></trkpt><trkpt lat="44.5903885" lon="10.2737158"><ele>424.2</ele><time>2026-04-10T14:45:58.047Z</time></trkpt><trkpt lat="44.5904423" lon="10.2736579"><ele>424.6</ele><time>2026-04-10T14:45:59.047Z</time></trkpt><trkpt lat="44.590533" lon="10.2735956"><ele>425.0</ele><time>2026-04-10T14:46:00.047Z</time></trkpt><trkpt lat="44.5906364" lon="10.2735115"><ele>424.99999999999994</ele><time>2026-04-10T14:46:02.047Z</time></trkpt><trkpt lat="44.5906942" lon="10.2734573"><ele>425.0</ele><time>2026-04-10T14:46:03.047Z</time></trkpt><trkpt lat="44.5907564" lon="10.27338"><ele>425.0</ele><time>2026-04-10T14:46:04.047Z</time></trkpt><trkpt lat="44.5908275" lon="10.2733336"><ele>425.0</ele><time>2026-04-10T14:46:06.046Z</time></trkpt><trkpt lat="44.5908895" lon="10.2732157"><ele>424.99999999999994</ele><time>2026-04-10T14:46:08.047Z</time></trkpt><trkpt lat="44.590933" lon="10.2731386"><ele>425.0</ele><time>2026-04-10T14:46:09.048Z</time></trkpt><trkpt lat="44.5910047" lon="10.2730685"><ele>424.4</ele><time>2026-04-10T14:46:10.047Z</time></trkpt><trkpt lat="44.591086" lon="10.2730023"><ele>423.8</ele><time>2026-04-10T14:46:11.047Z</time></trkpt><trkpt lat="44.5911863" lon="10.2729409"><ele>423.20000000000005</ele><time>2026-04-10T14:46:12.047Z</time></trkpt><trkpt lat="44.5912701" lon="10.2728785"><ele>422.6</ele><time>2026-04-10T14:46:13.047Z</time></trkpt><trkpt lat="44.5913269" lon="10.2728217"><ele>422.0</ele><time>2026-04-10T14:46:14.047Z</time></trkpt><trkpt lat="44.5913963" lon="10.2727174"><ele>422.0</ele><time>2026-04-10T14:46:15.047Z</time></trkpt><trkpt lat="44.5914287" lon="10.272589"><ele>422.0</ele><time>2026-04-10T14:46:16.047Z</time></trkpt><trkpt lat="44.5914743" lon="10.2724266"><ele>422.0</ele><time>2026-04-10T14:46:17.047Z</time></trkpt><trkpt lat="44.5915101" lon="10.2722798"><ele>422.0</ele><time>2026-04-10T14:46:18.047Z</time></trkpt><trkpt lat="44.5914985" lon="10.2721373"><ele>422.0</ele><time>2026-04-10T14:46:19.047Z</time></trkpt><trkpt lat="44.591495" lon="10.2719828"><ele>422.8</ele><time>2026-04-10T14:46:20.047Z</time></trkpt><trkpt lat="44.5914888" lon="10.2718242"><ele>423.6</ele><time>2026-04-10T14:46:21.047Z</time></trkpt><trkpt lat="44.5914793" lon="10.2716787"><ele>424.40000000000003</ele><time>2026-04-10T14:46:22.047Z</time></trkpt><trkpt lat="44.5914698" lon="10.2715323"><ele>425.20000000000005</ele><time>2026-04-10T14:46:23.047Z</time></trkpt><trkpt lat="44.5914619" lon="10.2713742"><ele>426.0</ele><time>2026-04-10T14:46:24.047Z</time></trkpt><trkpt lat="44.591474" lon="10.2711968"><ele>426.0</ele><time>2026-04-10T14:46:25.047Z</time></trkpt><trkpt lat="44.5914839" lon="10.2710325"><ele>426.0</ele><time>2026-04-10T14:46:26.047Z</time></trkpt><trkpt lat="44.5915149" lon="10.2708797"><ele>426.0</ele><time>2026-04-10T14:46:27.047Z</time></trkpt><trkpt lat="44.5915187" lon="10.2707155"><ele>426.0</ele><time>2026-04-10T14:46:28.047Z</time></trkpt><trkpt lat="44.59153" lon="10.2705402"><ele>428.25</ele><time>2026-04-10T14:46:29.047Z</time></trkpt><trkpt lat="44.5915703" lon="10.2703157"><ele>430.5</ele><time>2026-04-10T14:46:30.048Z</time></trkpt><trkpt lat="44.591593" lon="10.2701564"><ele>432.75</ele><time>2026-04-10T14:46:31.047Z</time></trkpt><trkpt lat="44.5916159" lon="10.2699997"><ele>435.0</ele><time>2026-04-10T14:46:32.047Z</time></trkpt><trkpt lat="44.5916314" lon="10.2698398"><ele>434.8</ele><time>2026-04-10T14:46:33.047Z</time></trkpt><trkpt lat="44.5916633" lon="10.2697107"><ele>434.6</ele><time>2026-04-10T14:46:34.046Z</time></trkpt><trkpt lat="44.5916924" lon="10.2695759"><ele>434.4</ele><time>2026-04-10T14:46:35.047Z</time></trkpt><trkpt lat="44.5916912" lon="10.2693778"><ele>434.2</ele><time>2026-04-10T14:46:36.047Z</time></trkpt><trkpt lat="44.5917094" lon="10.2692882"><ele>434.0</ele><time>2026-04-10T14:46:37.047Z</time></trkpt><trkpt lat="44.5917266" lon="10.2691534"><ele>433.99999999999994</ele><time>2026-04-10T14:46:38.047Z</time></trkpt><trkpt lat="44.5917305" lon="10.2690586"><ele>434.0</ele><time>2026-04-10T14:46:39.047Z</time></trkpt><trkpt lat="44.5917264" lon="10.2689544"><ele>434.0</ele><time>2026-04-10T14:46:40.047Z</time></trkpt><trkpt lat="44.5917079" lon="10.2688346"><ele>434.0</ele><time>2026-04-10T14:46:41.047Z</time></trkpt><trkpt lat="44.5916086" lon="10.2687174"><ele>433.99999999999994</ele><time>2026-04-10T14:46:42.047Z</time></trkpt><trkpt lat="44.5915611" lon="10.2686122"><ele>434.0</ele><time>2026-04-10T14:46:43.047Z</time></trkpt><trkpt lat="44.5915202" lon="10.2685119"><ele>432.2</ele><time>2026-04-10T14:46:44.047Z</time></trkpt><trkpt lat="44.5914886" lon="10.2684144"><ele>430.4</ele><time>2026-04-10T14:46:45.047Z</time></trkpt><trkpt lat="44.5914917" lon="10.2683"><ele>428.6</ele><time>2026-04-10T14:46:46.047Z</time></trkpt><trkpt lat="44.5915067" lon="10.2681797"><ele>426.8</ele><time>2026-04-10T14:46:47.047Z</time></trkpt><trkpt lat="44.59153" lon="10.268025"><ele>425.0</ele><time>2026-04-10T14:46:48.047Z</time></trkpt><trkpt lat="44.5915639" lon="10.2678916"><ele>424.66666666666663</ele><time>2026-04-10T14:46:49.047Z</time></trkpt><trkpt lat="44.5915783" lon="10.2677522"><ele>424.3333333333333</ele><time>2026-04-10T14:46:50.046Z</time></trkpt><trkpt lat="44.5916148" lon="10.2676149"><ele>424.0</ele><time>2026-04-10T14:46:52.047Z</time></trkpt><trkpt lat="44.5916194" lon="10.2675073"><ele>423.66666666666663</ele><time>2026-04-10T14:46:55.047Z</time></trkpt><trkpt lat="44.5916382" lon="10.2674177"><ele>423.3333333333333</ele><time>2026-04-10T14:47:13.047Z</time></trkpt><trkpt lat="44.5916714" lon="10.267292"><ele>423.0</ele><time>2026-04-10T14:47:17.047Z</time></trkpt><trkpt lat="44.591656" lon="10.2671333"><ele>423.0</ele><time>2026-04-10T14:47:19.046Z</time></trkpt><trkpt lat="44.5916254" lon="10.2669399"><ele>423.0</ele><time>2026-04-10T14:47:21.046Z</time></trkpt><trkpt lat="44.5915977" lon="10.2668217"><ele>423.0</ele><time>2026-04-10T14:47:22.047Z</time></trkpt><trkpt lat="44.5915915" lon="10.2667141"><ele>423.0</ele><time>2026-04-10T14:47:23.047Z</time></trkpt><trkpt lat="44.5916242" lon="10.2666003"><ele>423.0</ele><time>2026-04-10T14:47:24.047Z</time></trkpt><trkpt lat="44.5916202" lon="10.2664855"><ele>423.3333333333333</ele><time>2026-04-10T14:47:25.047Z</time></trkpt><trkpt lat="44.5915887" lon="10.2664058"><ele>423.66666666666663</ele><time>2026-04-10T14:47:26.047Z</time></trkpt><trkpt lat="44.5915656" lon="10.2663191"><ele>424.0</ele><time>2026-04-10T14:47:27.046Z</time></trkpt><trkpt lat="44.591513" lon="10.266228"><ele>424.3333333333333</ele><time>2026-04-10T14:47:28.047Z</time></trkpt><trkpt lat="44.5914716" lon="10.2661427"><ele>424.66666666666663</ele><time>2026-04-10T14:47:29.047Z</time></trkpt><trkpt lat="44.591462" lon="10.2660427"><ele>425.0</ele><time>2026-04-10T14:47:32.047Z</time></trkpt><trkpt lat="44.5914063" lon="10.266165"><ele>424.99999999999994</ele><time>2026-04-10T14:47:38.047Z</time></trkpt><trkpt lat="44.591432" lon="10.2662858"><ele>425.0</ele><time>2026-04-10T14:47:39.047Z</time></trkpt><trkpt lat="44.5914131" lon="10.2664062"><ele>425.0</ele><time>2026-04-10T14:47:40.047Z</time></trkpt><trkpt lat="44.5913646" lon="10.2664891"><ele>425.0</ele><time>2026-04-10T14:47:41.046Z</time></trkpt><trkpt lat="44.5913372" lon="10.2665878"><ele>424.99999999999994</ele><time>2026-04-10T14:47:42.046Z</time></trkpt><trkpt lat="44.5912764" lon="10.2667091"><ele>425.0</ele><time>2026-04-10T14:47:43.047Z</time></trkpt><trkpt lat="44.5912174" lon="10.2668299"><ele>431.8</ele><time>2026-04-10T14:47:44.047Z</time></trkpt><trkpt lat="44.5911501" lon="10.2669438"><ele>438.6</ele><time>2026-04-10T14:47:45.047Z</time></trkpt><trkpt lat="44.5911062" lon="10.2670594"><ele>445.4</ele><time>2026-04-10T14:47:46.047Z</time></trkpt><trkpt lat="44.5910439" lon="10.2672142"><ele>452.2</ele><time>2026-04-10T14:47:47.047Z</time></trkpt><trkpt lat="44.5909996" lon="10.2673501"><ele>459.0</ele><time>2026-04-10T14:47:48.047Z</time></trkpt><trkpt lat="44.5909871" lon="10.2675062"><ele>459.0</ele><time>2026-04-10T14:47:49.046Z</time></trkpt><trkpt lat="44.5909553" lon="10.2676728"><ele>459.0</ele><time>2026-04-10T14:47:50.047Z</time></trkpt><trkpt lat="44.5909345" lon="10.2678279"><ele>459.0</ele><time>2026-04-10T14:47:51.046Z</time></trkpt><trkpt lat="44.5909211" lon="10.2679869"><ele>459.0</ele><time>2026-04-10T14:47:52.046Z</time></trkpt><trkpt lat="44.5909346" lon="10.2681882"><ele>460.0</ele><time>2026-04-10T14:47:53.046Z</time></trkpt><trkpt lat="44.5909402" lon="10.2683816"><ele>461.0</ele><time>2026-04-10T14:47:54.046Z</time></trkpt><trkpt lat="44.5909475" lon="10.2685569"><ele>462.0</ele><time>2026-04-10T14:47:55.046Z</time></trkpt><trkpt lat="44.5909561" lon="10.2687369"><ele>463.0</ele><time>2026-04-10T14:47:56.046Z</time></trkpt><trkpt lat="44.5910485" lon="10.2689045"><ele>464.1666666666667</ele><time>2026-04-10T14:47:58.047Z</time></trkpt><trkpt lat="44.5910917" lon="10.269009"><ele>465.33333333333337</ele><time>2026-04-10T14:47:59.047Z</time></trkpt><trkpt lat="44.5911389" lon="10.2691047"><ele>466.5</ele><time>2026-04-10T14:48:00.047Z</time></trkpt><trkpt lat="44.5911996" lon="10.2692027"><ele>467.66666666666663</ele><time>2026-04-10T14:48:01.047Z</time></trkpt><trkpt lat="44.5912624" lon="10.2692677"><ele>468.8333333333333</ele><time>2026-04-10T14:48:02.046Z</time></trkpt><trkpt lat="44.5912697" lon="10.2693711"><ele>470.0</ele><time>2026-04-10T14:48:04.047Z</time></trkpt><trkpt lat="44.5912094" lon="10.2694632"><ele>469.99999999999994</ele><time>2026-04-10T14:48:07.046Z</time></trkpt><trkpt lat="44.5911435" lon="10.2695082"><ele>470.0</ele><time>2026-04-10T14:48:08.047Z</time></trkpt><trkpt lat="44.5910598" lon="10.2696302"><ele>470.0</ele><time>2026-04-10T14:48:10.047Z</time></trkpt><trkpt lat="44.5910049" lon="10.2696914"><ele>470.0</ele><time>2026-04-10T14:48:11.047Z</time></trkpt><trkpt lat="44.5909497" lon="10.2697497"><ele>469.99999999999994</ele><time>2026-04-10T14:48:12.047Z</time></trkpt><trkpt lat="44.5908883" lon="10.2698329"><ele>470.0</ele><time>2026-04-10T14:48:14.046Z</time></trkpt><trkpt lat="44.5908386" lon="10.2697181"><ele>470.0</ele><time>2026-04-10T14:48:17.047Z</time></trkpt><trkpt lat="44.5908357" lon="10.2696256"><ele>470.0</ele><time>2026-04-10T14:48:18.047Z</time></trkpt><trkpt lat="44.5908435" lon="10.2694517"><ele>470.0</ele><time>2026-04-10T14:48:21.047Z</time></trkpt><trkpt lat="44.5908118" lon="10.2693144"><ele>470.0</ele><time>2026-04-10T14:48:22.047Z</time></trkpt><trkpt lat="44.5907789" lon="10.2691723"><ele>470.0</ele><time>2026-04-10T14:48:23.047Z</time></trkpt><trkpt lat="44.5906832" lon="10.2690193"><ele>468.25</ele><time>2026-04-10T14:48:24.047Z</time></trkpt><trkpt lat="44.5906285" lon="10.2688655"><ele>466.5</ele><time>2026-04-10T14:48:25.047Z</time></trkpt><trkpt lat="44.5905844" lon="10.2686965"><ele>464.75</ele><time>2026-04-10T14:48:26.047Z</time></trkpt><trkpt lat="44.5905413" lon="10.2685408"><ele>463.0</ele><time>2026-04-10T14:48:27.047Z</time></trkpt><trkpt lat="44.5905159" lon="10.2683495"><ele>463.0</ele><time>2026-04-10T14:48:28.047Z</time></trkpt><trkpt lat="44.5904806" lon="10.2681596"><ele>463.0</ele><time>2026-04-10T14:48:29.047Z</time></trkpt><trkpt lat="44.5904433" lon="10.2679561"><ele>463.0</ele><time>2026-04-10T14:48:30.047Z</time></trkpt><trkpt lat="44.5904162" lon="10.267798"><ele>463.0</ele><time>2026-04-10T14:48:31.046Z</time></trkpt><trkpt lat="44.5903827" lon="10.267634"><ele>462.75</ele><time>2026-04-10T14:48:32.047Z</time></trkpt><trkpt lat="44.5903555" lon="10.2674772"><ele>462.5</ele><time>2026-04-10T14:48:33.047Z</time></trkpt><trkpt lat="44.5903999" lon="10.2673211"><ele>462.25</ele><time>2026-04-10T14:48:34.047Z</time></trkpt><trkpt lat="44.5904068" lon="10.2671808"><ele>462.0</ele><time>2026-04-10T14:48:35.047Z</time></trkpt><trkpt lat="44.5904431" lon="10.2670195"><ele>462.0</ele><time>2026-04-10T14:48:36.047Z</time></trkpt><trkpt lat="44.5904916" lon="10.2668599"><ele>462.00000000000006</ele><time>2026-04-10T14:48:37.047Z</time></trkpt><trkpt lat="44.590578" lon="10.2667314"><ele>462.00000000000006</ele><time>2026-04-10T14:48:38.047Z</time></trkpt><trkpt lat="44.5906185" lon="10.2666056"><ele>462.0</ele><time>2026-04-10T14:48:39.047Z</time></trkpt><trkpt lat="44.5906533" lon="10.2665059"><ele>462.0</ele><time>2026-04-10T14:48:40.047Z</time></trkpt><trkpt lat="44.5906811" lon="10.2663839"><ele>460.5</ele><time>2026-04-10T14:48:42.047Z</time></trkpt><trkpt lat="44.5906563" lon="10.2662002"><ele>459.0</ele><time>2026-04-10T14:48:45.047Z</time></trkpt><trkpt lat="44.5906161" lon="10.2660663"><ele>457.5</ele><time>2026-04-10T14:48:46.046Z</time></trkpt><trkpt lat="44.590561" lon="10.2659397"><ele>456.0</ele><time>2026-04-10T14:48:47.046Z</time></trkpt><trkpt lat="44.5904351" lon="10.2658236"><ele>456.0</ele><time>2026-04-10T14:48:48.046Z</time></trkpt><trkpt lat="44.5903648" lon="10.265745"><ele>456.0</ele><time>2026-04-10T14:48:49.045Z</time></trkpt><trkpt lat="44.5902605" lon="10.2656351"><ele>456.0</ele><time>2026-04-10T14:48:50.045Z</time></trkpt><trkpt lat="44.5901629" lon="10.2655687"><ele>456.0</ele><time>2026-04-10T14:48:51.046Z</time></trkpt><trkpt lat="44.5900687" lon="10.265527"><ele>456.0</ele><time>2026-04-10T14:48:52.046Z</time></trkpt><trkpt lat="44.589992" lon="10.2654947"><ele>454.6</ele><time>2026-04-10T14:48:53.046Z</time></trkpt><trkpt lat="44.589885" lon="10.2655057"><ele>453.20000000000005</ele><time>2026-04-10T14:48:54.046Z</time></trkpt><trkpt lat="44.5897758" lon="10.2655193"><ele>451.79999999999995</ele><time>2026-04-10T14:48:55.046Z</time></trkpt><trkpt lat="44.5896888" lon="10.2655321"><ele>450.4</ele><time>2026-04-10T14:48:56.046Z</time></trkpt><trkpt lat="44.5895979" lon="10.2655368"><ele>449.0</ele><time>2026-04-10T14:48:58.046Z</time></trkpt><trkpt lat="44.5895306" lon="10.2655499"><ele>449.8333333333333</ele><time>2026-04-10T14:49:00.046Z</time></trkpt><trkpt lat="44.5894497" lon="10.2655447"><ele>450.66666666666663</ele><time>2026-04-10T14:52:01.046Z</time></trkpt><trkpt lat="44.5893879" lon="10.2655168"><ele>451.5</ele><time>2026-04-10T14:52:02.046Z</time></trkpt><trkpt lat="44.5893066" lon="10.2654672"><ele>452.33333333333337</ele><time>2026-04-10T14:52:03.046Z</time></trkpt><trkpt lat="44.5892321" lon="10.2654075"><ele>453.1666666666667</ele><time>2026-04-10T14:52:04.045Z</time></trkpt><trkpt lat="44.5891732" lon="10.2653602"><ele>454.0</ele><time>2026-04-10T14:52:05.045Z</time></trkpt><trkpt lat="44.5890549" lon="10.265337"><ele>454.0</ele><time>2026-04-10T14:52:07.046Z</time></trkpt><trkpt lat="44.5889501" lon="10.2653679"><ele>454.0</ele><time>2026-04-10T14:52:09.046Z</time></trkpt><trkpt lat="44.5888153" lon="10.2653538"><ele>454.0</ele><time>2026-04-10T14:52:11.047Z</time></trkpt><trkpt lat="44.5887078" lon="10.2653364"><ele>454.0</ele><time>2026-04-10T14:52:12.046Z</time></trkpt><trkpt lat="44.5885906" lon="10.2653126"><ele>453.0</ele><time>2026-04-10T14:52:13.046Z</time></trkpt><trkpt lat="44.5884416" lon="10.2652853"><ele>452.0</ele><time>2026-04-10T14:52:14.046Z</time></trkpt><trkpt lat="44.5882849" lon="10.2652527"><ele>451.0</ele><time>2026-04-10T14:52:15.046Z</time></trkpt><trkpt lat="44.5881288" lon="10.2652121"><ele>451.0</ele><time>2026-04-10T14:52:16.045Z</time></trkpt><trkpt lat="44.5879628" lon="10.2651642"><ele>451.0</ele><time>2026-04-10T14:52:17.045Z</time></trkpt><trkpt lat="44.5878027" lon="10.2651096"><ele>451.0</ele><time>2026-04-10T14:52:18.045Z</time></trkpt><trkpt lat="44.5876592" lon="10.2650398"><ele>451.25</ele><time>2026-04-10T14:52:19.046Z</time></trkpt><trkpt lat="44.5875203" lon="10.2649526"><ele>451.5</ele><time>2026-04-10T14:52:20.046Z</time></trkpt><trkpt lat="44.5874031" lon="10.264844"><ele>451.75</ele><time>2026-04-10T14:52:21.046Z</time></trkpt><trkpt lat="44.5873152" lon="10.2646892"><ele>452.0</ele><time>2026-04-10T14:52:22.045Z</time></trkpt><trkpt lat="44.5872288" lon="10.2645068"><ele>452.0</ele><time>2026-04-10T14:52:23.045Z</time></trkpt><trkpt lat="44.5871479" lon="10.2642844"><ele>452.0</ele><time>2026-04-10T14:52:24.046Z</time></trkpt><trkpt lat="44.5870652" lon="10.2640607"><ele>452.0</ele><time>2026-04-10T14:52:25.046Z</time></trkpt><trkpt lat="44.5870047" lon="10.26383"><ele>460.0</ele><time>2026-04-10T14:52:26.046Z</time></trkpt><trkpt lat="44.586937" lon="10.2635917"><ele>468.0</ele><time>2026-04-10T14:52:27.046Z</time></trkpt><trkpt lat="44.5868606" lon="10.2633759"><ele>476.0</ele><time>2026-04-10T14:52:28.046Z</time></trkpt><trkpt lat="44.5867865" lon="10.2631668"><ele>473.5</ele><time>2026-04-10T14:52:29.046Z</time></trkpt><trkpt lat="44.5867113" lon="10.2629673"><ele>471.0</ele><time>2026-04-10T14:52:30.046Z</time></trkpt><trkpt lat="44.5866558" lon="10.2628244"><ele>468.5</ele><time>2026-04-10T14:52:31.046Z</time></trkpt><trkpt lat="44.5865945" lon="10.2626952"><ele>466.0</ele><time>2026-04-10T14:52:32.046Z</time></trkpt><trkpt lat="44.5865491" lon="10.2625718"><ele>466.0</ele><time>2026-04-10T14:52:33.046Z</time></trkpt><trkpt lat="44.5864729" lon="10.2626325"><ele>466.0</ele><time>2026-04-10T14:52:34.046Z</time></trkpt><trkpt lat="44.5863832" lon="10.2628176"><ele>466.0</ele><time>2026-04-10T14:52:36.046Z</time></trkpt><trkpt lat="44.586332" lon="10.2629569"><ele>466.0</ele><time>2026-04-10T14:52:37.046Z</time></trkpt><trkpt lat="44.5862656" lon="10.2631394"><ele>468.5</ele><time>2026-04-10T14:52:38.046Z</time></trkpt><trkpt lat="44.5861715" lon="10.2633315"><ele>471.0</ele><time>2026-04-10T14:52:39.046Z</time></trkpt><trkpt lat="44.5860944" lon="10.2634929"><ele>473.5</ele><time>2026-04-10T14:52:40.046Z</time></trkpt><trkpt lat="44.5860381" lon="10.2636428"><ele>476.0</ele><time>2026-04-10T14:52:41.046Z</time></trkpt><trkpt lat="44.5860013" lon="10.2637839"><ele>476.0</ele><time>2026-04-10T14:52:42.046Z</time></trkpt><trkpt lat="44.5859969" lon="10.2639452"><ele>476.0</ele><time>2026-04-10T14:52:43.046Z</time></trkpt><trkpt lat="44.5860345" lon="10.264113"><ele>476.0</ele><time>2026-04-10T14:52:44.046Z</time></trkpt><trkpt lat="44.5861066" lon="10.2643001"><ele>476.0</ele><time>2026-04-10T14:52:45.045Z</time></trkpt><trkpt lat="44.5862194" lon="10.2645018"><ele>479.0</ele><time>2026-04-10T14:52:46.045Z</time></trkpt><trkpt lat="44.5863084" lon="10.264687"><ele>482.0</ele><time>2026-04-10T14:52:47.046Z</time></trkpt><trkpt lat="44.5863942" lon="10.26487"><ele>485.0</ele><time>2026-04-10T14:52:48.046Z</time></trkpt><trkpt lat="44.5864773" lon="10.2650438"><ele>486.75</ele><time>2026-04-10T14:52:49.046Z</time></trkpt><trkpt lat="44.5865492" lon="10.2652166"><ele>488.5</ele><time>2026-04-10T14:52:50.046Z</time></trkpt><trkpt lat="44.5866114" lon="10.265385"><ele>490.25</ele><time>2026-04-10T14:52:51.046Z</time></trkpt><trkpt lat="44.5866588" lon="10.2655416"><ele>492.0</ele><time>2026-04-10T14:52:52.045Z</time></trkpt><trkpt lat="44.5866881" lon="10.2656869"><ele>493.5</ele><time>2026-04-10T14:52:53.045Z</time></trkpt><trkpt lat="44.5866994" lon="10.2658454"><ele>495.0</ele><time>2026-04-10T14:52:54.044Z</time></trkpt><trkpt lat="44.5867063" lon="10.2660264"><ele>496.5</ele><time>2026-04-10T14:52:55.045Z</time></trkpt><trkpt lat="44.5867172" lon="10.2662206"><ele>498.0</ele><time>2026-04-10T14:52:56.044Z</time></trkpt><trkpt lat="44.5867365" lon="10.2664296"><ele>499.33333333333337</ele><time>2026-04-10T14:52:57.045Z</time></trkpt><trkpt lat="44.58676" lon="10.2666433"><ele>500.6666666666667</ele><time>2026-04-10T14:52:58.045Z</time></trkpt><trkpt lat="44.5867822" lon="10.2668566"><ele>502.0</ele><time>2026-04-10T14:52:59.045Z</time></trkpt><trkpt lat="44.5867764" lon="10.2670696"><ele>502.0</ele><time>2026-04-10T14:53:00.046Z</time></trkpt><trkpt lat="44.586768" lon="10.2672769"><ele>502.0</ele><time>2026-04-10T14:53:01.044Z</time></trkpt><trkpt lat="44.5867474" lon="10.2674744"><ele>502.0</ele><time>2026-04-10T14:53:02.045Z</time></trkpt><trkpt lat="44.5867101" lon="10.2676649"><ele>502.0</ele><time>2026-04-10T14:53:03.044Z</time></trkpt><trkpt lat="44.5866664" lon="10.2678529"><ele>504.0</ele><time>2026-04-10T14:53:04.045Z</time></trkpt><trkpt lat="44.5865923" lon="10.2680623"><ele>506.0</ele><time>2026-04-10T14:53:05.045Z</time></trkpt><trkpt lat="44.5865231" lon="10.2682771"><ele>508.0</ele><time>2026-04-10T14:53:06.045Z</time></trkpt><trkpt lat="44.586444" lon="10.2684903"><ele>510.0</ele><time>2026-04-10T14:53:07.045Z</time></trkpt><trkpt lat="44.5863769" lon="10.2687099"><ele>512.0</ele><time>2026-04-10T14:53:08.045Z</time></trkpt><trkpt lat="44.5863254" lon="10.268931"><ele>514.0</ele><time>2026-04-10T14:53:09.045Z</time></trkpt><trkpt lat="44.5862765" lon="10.2691399"><ele>514.5</ele><time>2026-04-10T14:53:10.045Z</time></trkpt><trkpt lat="44.5862325" lon="10.2693365"><ele>515.0</ele><time>2026-04-10T14:53:11.045Z</time></trkpt><trkpt lat="44.58618" lon="10.2695104"><ele>515.5</ele><time>2026-04-10T14:53:12.045Z</time></trkpt><trkpt lat="44.5861045" lon="10.2696818"><ele>516.0</ele><time>2026-04-10T14:53:13.045Z</time></trkpt><trkpt lat="44.586015" lon="10.2698337"><ele>516.0</ele><time>2026-04-10T14:53:14.045Z</time></trkpt><trkpt lat="44.5859255" lon="10.2699573"><ele>516.0</ele><time>2026-04-10T14:53:15.044Z</time></trkpt><trkpt lat="44.5858443" lon="10.2700594"><ele>516.0</ele><time>2026-04-10T14:53:16.045Z</time></trkpt><trkpt lat="44.585757" lon="10.2701465"><ele>516.0</ele><time>2026-04-10T14:53:17.045Z</time></trkpt><trkpt lat="44.5856687" lon="10.2702137"><ele>516.0</ele><time>2026-04-10T14:53:18.044Z</time></trkpt><trkpt lat="44.5855795" lon="10.2702433"><ele>516.0</ele><time>2026-04-10T14:53:19.044Z</time></trkpt><trkpt lat="44.5854865" lon="10.270248"><ele>516.0</ele><time>2026-04-10T14:53:20.044Z</time></trkpt><trkpt lat="44.5853985" lon="10.2702529"><ele>516.0</ele><time>2026-04-10T14:53:21.044Z</time></trkpt><trkpt lat="44.585317" lon="10.2702555"><ele>516.0</ele><time>2026-04-10T14:53:22.045Z</time></trkpt><trkpt lat="44.5852296" lon="10.2702604"><ele>516.0</ele><time>2026-04-10T14:53:23.045Z</time></trkpt><trkpt lat="44.5851553" lon="10.2702635"><ele>516.0</ele><time>2026-04-10T14:53:24.045Z</time></trkpt><trkpt lat="44.5850862" lon="10.2702685"><ele>516.5</ele><time>2026-04-10T14:53:25.045Z</time></trkpt><trkpt lat="44.5850217" lon="10.2702743"><ele>517.0</ele><time>2026-04-10T14:53:26.045Z</time></trkpt><trkpt lat="44.5849239" lon="10.2702765"><ele>517.5</ele><time>2026-04-10T14:53:28.044Z</time></trkpt><trkpt lat="44.584983" lon="10.2703168"><ele>518.0</ele><time>2026-04-10T14:54:06.045Z</time></trkpt><trkpt lat="44.5850768" lon="10.2702902"><ele>518.5</ele><time>2026-04-10T14:54:08.044Z</time></trkpt><trkpt lat="44.5851421" lon="10.2702781"><ele>519.0</ele><time>2026-04-10T14:54:09.045Z</time></trkpt><trkpt lat="44.5852799" lon="10.2702541"><ele>518.5</ele><time>2026-04-10T14:54:11.045Z</time></trkpt><trkpt lat="44.5853666" lon="10.2702558"><ele>518.0</ele><time>2026-04-10T14:54:12.044Z</time></trkpt><trkpt lat="44.5854492" lon="10.2702569"><ele>517.5</ele><time>2026-04-10T14:54:13.045Z</time></trkpt><trkpt lat="44.585536" lon="10.270255"><ele>517.0</ele><time>2026-04-10T14:54:14.044Z</time></trkpt><trkpt lat="44.5856266" lon="10.2702381"><ele>516.5</ele><time>2026-04-10T14:54:15.044Z</time></trkpt><trkpt lat="44.5857143" lon="10.2701891"><ele>516.0</ele><time>2026-04-10T14:54:16.045Z</time></trkpt><trkpt lat="44.585802" lon="10.2701089"><ele>516.0</ele><time>2026-04-10T14:54:17.046Z</time></trkpt><trkpt lat="44.585891" lon="10.2700056"><ele>516.0</ele><time>2026-04-10T14:54:18.045Z</time></trkpt><trkpt lat="44.585964" lon="10.2699014"><ele>516.0</ele><time>2026-04-10T14:54:19.045Z</time></trkpt><trkpt lat="44.5860298" lon="10.2697815"><ele>516.0</ele><time>2026-04-10T14:54:20.045Z</time></trkpt><trkpt lat="44.5860937" lon="10.2696535"><ele>516.0</ele><time>2026-04-10T14:54:21.044Z</time></trkpt><trkpt lat="44.5861585" lon="10.269514"><ele>515.5</ele><time>2026-04-10T14:54:22.045Z</time></trkpt><trkpt lat="44.5862111" lon="10.2693593"><ele>515.0</ele><time>2026-04-10T14:54:23.045Z</time></trkpt><trkpt lat="44.5862557" lon="10.2691924"><ele>514.5</ele><time>2026-04-10T14:54:24.045Z</time></trkpt><trkpt lat="44.586294" lon="10.2690143"><ele>514.0</ele><time>2026-04-10T14:54:25.045Z</time></trkpt><trkpt lat="44.5863394" lon="10.2688325"><ele>514.0</ele><time>2026-04-10T14:54:26.045Z</time></trkpt><trkpt lat="44.586392" lon="10.2686431"><ele>514.0</ele><time>2026-04-10T14:54:27.044Z</time></trkpt><trkpt lat="44.5864555" lon="10.2684563"><ele>514.0</ele><time>2026-04-10T14:54:28.045Z</time></trkpt><trkpt lat="44.5865207" lon="10.2682843"><ele>514.0</ele><time>2026-04-10T14:54:29.045Z</time></trkpt><trkpt lat="44.5865826" lon="10.2681282"><ele>512.8</ele><time>2026-04-10T14:54:30.045Z</time></trkpt><trkpt lat="44.5866407" lon="10.2679761"><ele>511.59999999999997</ele><time>2026-04-10T14:54:31.044Z</time></trkpt><trkpt lat="44.5866782" lon="10.2678443"><ele>510.4</ele><time>2026-04-10T14:54:32.045Z</time></trkpt><trkpt lat="44.5867157" lon="10.2677075"><ele>509.2</ele><time>2026-04-10T14:54:33.045Z</time></trkpt><trkpt lat="44.5867484" lon="10.2675826"><ele>508.0</ele><time>2026-04-10T14:54:34.045Z</time></trkpt><trkpt lat="44.5867726" lon="10.2674582"><ele>508.0</ele><time>2026-04-10T14:54:35.045Z</time></trkpt><trkpt lat="44.5867894" lon="10.2673325"><ele>507.99999999999994</ele><time>2026-04-10T14:54:36.044Z</time></trkpt><trkpt lat="44.5867973" lon="10.267196"><ele>507.99999999999994</ele><time>2026-04-10T14:54:37.045Z</time></trkpt><trkpt lat="44.5867937" lon="10.2670592"><ele>508.0</ele><time>2026-04-10T14:54:38.044Z</time></trkpt><trkpt lat="44.5867895" lon="10.2669224"><ele>508.0</ele><time>2026-04-10T14:54:39.044Z</time></trkpt><trkpt lat="44.5867767" lon="10.26679"><ele>507.00000000000006</ele><time>2026-04-10T14:54:40.045Z</time></trkpt><trkpt lat="44.5867563" lon="10.2666539"><ele>506.0</ele><time>2026-04-10T14:54:41.045Z</time></trkpt><trkpt lat="44.5867342" lon="10.2665215"><ele>505.0</ele><time>2026-04-10T14:54:42.045Z</time></trkpt><trkpt lat="44.5867126" lon="10.2664107"><ele>504.0</ele><time>2026-04-10T14:54:43.045Z</time></trkpt><trkpt lat="44.586696" lon="10.2663155"><ele>503.00000000000006</ele><time>2026-04-10T14:54:44.045Z</time></trkpt><trkpt lat="44.5866983" lon="10.2662243"><ele>502.0</ele><time>2026-04-10T14:54:53.046Z</time></trkpt><trkpt lat="44.5867021" lon="10.2660507"><ele>501.20000000000005</ele><time>2026-04-10T14:54:55.045Z</time></trkpt><trkpt lat="44.586704" lon="10.2659217"><ele>500.40000000000003</ele><time>2026-04-10T14:54:56.046Z</time></trkpt><trkpt lat="44.5867025" lon="10.2657818"><ele>499.59999999999997</ele><time>2026-04-10T14:54:57.045Z</time></trkpt><trkpt lat="44.586687" lon="10.265653"><ele>498.79999999999995</ele><time>2026-04-10T14:54:58.045Z</time></trkpt><trkpt lat="44.5866561" lon="10.2655261"><ele>498.0</ele><time>2026-04-10T14:54:59.045Z</time></trkpt><trkpt lat="44.5866123" lon="10.2653859"><ele>496.5</ele><time>2026-04-10T14:55:00.045Z</time></trkpt><trkpt lat="44.5865588" lon="10.2652352"><ele>495.0</ele><time>2026-04-10T14:55:01.045Z</time></trkpt><trkpt lat="44.5864982" lon="10.2650911"><ele>493.5</ele><time>2026-04-10T14:55:02.045Z</time></trkpt><trkpt lat="44.5864368" lon="10.2649531"><ele>492.0</ele><time>2026-04-10T14:55:03.044Z</time></trkpt><trkpt lat="44.5863749" lon="10.2648261"><ele>490.6</ele><time>2026-04-10T14:55:04.045Z</time></trkpt><trkpt lat="44.5863182" lon="10.2647025"><ele>489.20000000000005</ele><time>2026-04-10T14:55:05.045Z</time></trkpt><trkpt lat="44.5862623" lon="10.2645841"><ele>487.8</ele><time>2026-04-10T14:55:06.045Z</time></trkpt><trkpt lat="44.5862062" lon="10.2644731"><ele>486.4</ele><time>2026-04-10T14:55:07.045Z</time></trkpt><trkpt lat="44.586151" lon="10.2643607"><ele>485.0</ele><time>2026-04-10T14:55:08.045Z</time></trkpt><trkpt lat="44.5860984" lon="10.2642496"><ele>484.2</ele><time>2026-04-10T14:55:09.045Z</time></trkpt><trkpt lat="44.5860532" lon="10.2641347"><ele>483.4</ele><time>2026-04-10T14:55:10.044Z</time></trkpt><trkpt lat="44.5860187" lon="10.2640123"><ele>482.6</ele><time>2026-04-10T14:55:11.045Z</time></trkpt><trkpt lat="44.5859998" lon="10.2638762"><ele>481.8</ele><time>2026-04-10T14:55:12.045Z</time></trkpt><trkpt lat="44.5860129" lon="10.2637364"><ele>481.0</ele><time>2026-04-10T14:55:13.045Z</time></trkpt><trkpt lat="44.5860521" lon="10.2635992"><ele>479.75</ele><time>2026-04-10T14:55:14.045Z</time></trkpt><trkpt lat="44.5861126" lon="10.2634743"><ele>478.5</ele><time>2026-04-10T14:55:15.045Z</time></trkpt><trkpt lat="44.5861772" lon="10.2633335"><ele>477.25</ele><time>2026-04-10T14:55:16.045Z</time></trkpt><trkpt lat="44.5862435" lon="10.2631916"><ele>476.0</ele><time>2026-04-10T14:55:17.045Z</time></trkpt><trkpt lat="44.5862938" lon="10.2630506"><ele>474.3333333333333</ele><time>2026-04-10T14:55:18.045Z</time></trkpt><trkpt lat="44.5863319" lon="10.262926"><ele>472.66666666666663</ele><time>2026-04-10T14:55:19.045Z</time></trkpt><trkpt lat="44.5863681" lon="10.2628137"><ele>471.0</ele><time>2026-04-10T14:55:20.044Z</time></trkpt><trkpt lat="44.5864045" lon="10.2627224"><ele>469.33333333333337</ele><time>2026-04-10T14:55:21.045Z</time></trkpt><trkpt lat="44.5864555" lon="10.2626652"><ele>467.6666666666667</ele><time>2026-04-10T14:55:22.045Z</time></trkpt><trkpt lat="44.5865736" lon="10.2627041"><ele>466.0</ele><time>2026-04-10T14:55:24.045Z</time></trkpt><trkpt lat="44.5866313" lon="10.2627844"><ele>466.0</ele><time>2026-04-10T14:55:25.045Z</time></trkpt><trkpt lat="44.5866739" lon="10.2628916"><ele>466.0</ele><time>2026-04-10T14:55:26.045Z</time></trkpt><trkpt lat="44.586733" lon="10.263002"><ele>466.0</ele><time>2026-04-10T14:55:27.045Z</time></trkpt><trkpt lat="44.5867829" lon="10.2631339"><ele>466.0</ele><time>2026-04-10T14:55:28.044Z</time></trkpt><trkpt lat="44.5868447" lon="10.263255"><ele>466.0</ele><time>2026-04-10T14:55:29.045Z</time></trkpt><trkpt lat="44.5868916" lon="10.2634022"><ele>468.5</ele><time>2026-04-10T14:55:30.045Z</time></trkpt><trkpt lat="44.586923" lon="10.2635545"><ele>471.0</ele><time>2026-04-10T14:55:31.045Z</time></trkpt><trkpt lat="44.5869648" lon="10.263714"><ele>473.5</ele><time>2026-04-10T14:55:32.045Z</time></trkpt><trkpt lat="44.5870041" lon="10.2638797"><ele>476.0</ele><time>2026-04-10T14:55:33.045Z</time></trkpt><trkpt lat="44.5870531" lon="10.2640437"><ele>470.0</ele><time>2026-04-10T14:55:34.045Z</time></trkpt><trkpt lat="44.5871152" lon="10.2642068"><ele>464.0</ele><time>2026-04-10T14:55:35.045Z</time></trkpt><trkpt lat="44.5871822" lon="10.2643749"><ele>458.0</ele><time>2026-04-10T14:55:36.044Z</time></trkpt><trkpt lat="44.5872465" lon="10.2645468"><ele>452.0</ele><time>2026-04-10T14:55:37.045Z</time></trkpt><trkpt lat="44.587323" lon="10.2647095"><ele>454.25</ele><time>2026-04-10T14:55:38.045Z</time></trkpt><trkpt lat="44.5874064" lon="10.2648441"><ele>456.5</ele><time>2026-04-10T14:55:39.046Z</time></trkpt><trkpt lat="44.5875093" lon="10.2649495"><ele>458.75</ele><time>2026-04-10T14:55:40.045Z</time></trkpt><trkpt lat="44.5876233" lon="10.2650326"><ele>461.0</ele><time>2026-04-10T14:55:41.045Z</time></trkpt><trkpt lat="44.5877572" lon="10.2651048"><ele>458.5</ele><time>2026-04-10T14:55:42.045Z</time></trkpt><trkpt lat="44.5878925" lon="10.2651561"><ele>456.0</ele><time>2026-04-10T14:55:43.045Z</time></trkpt><trkpt lat="44.5880315" lon="10.265193"><ele>453.5</ele><time>2026-04-10T14:55:44.044Z</time></trkpt><trkpt lat="44.5881579" lon="10.2652241"><ele>451.0</ele><time>2026-04-10T14:55:45.045Z</time></trkpt><trkpt lat="44.5882759" lon="10.2652528"><ele>451.0</ele><time>2026-04-10T14:55:46.045Z</time></trkpt><trkpt lat="44.5883877" lon="10.2652772"><ele>451.0</ele><time>2026-04-10T14:55:47.045Z</time></trkpt><trkpt lat="44.5884974" lon="10.2653"><ele>451.0</ele><time>2026-04-10T14:55:48.045Z</time></trkpt><trkpt lat="44.5886112" lon="10.2653206"><ele>451.0</ele><time>2026-04-10T14:55:49.045Z</time></trkpt><trkpt lat="44.5887241" lon="10.2653349"><ele>451.6</ele><time>2026-04-10T14:55:50.045Z</time></trkpt><trkpt lat="44.5888378" lon="10.2653415"><ele>452.20000000000005</ele><time>2026-04-10T14:55:51.045Z</time></trkpt><trkpt lat="44.5889425" lon="10.2653533"><ele>452.79999999999995</ele><time>2026-04-10T14:55:52.045Z</time></trkpt><trkpt lat="44.5890278" lon="10.2653475"><ele>453.4</ele><time>2026-04-10T14:55:53.045Z</time></trkpt><trkpt lat="44.5890967" lon="10.2653391"><ele>454.0</ele><time>2026-04-10T14:55:54.044Z</time></trkpt><trkpt lat="44.5891911" lon="10.2653343"><ele>454.0</ele><time>2026-04-10T14:55:56.045Z</time></trkpt><trkpt lat="44.5891296" lon="10.2652729"><ele>454.0</ele><time>2026-04-10T14:55:58.044Z</time></trkpt><trkpt lat="44.5890334" lon="10.2653192"><ele>454.0</ele><time>2026-04-10T14:56:01.045Z</time></trkpt><trkpt lat="44.5889357" lon="10.2653535"><ele>454.0</ele><time>2026-04-10T14:56:03.045Z</time></trkpt><trkpt lat="44.5888185" lon="10.2653437"><ele>454.0</ele><time>2026-04-10T14:56:05.044Z</time></trkpt><trkpt lat="44.5887542" lon="10.2653261"><ele>454.00000000000006</ele><time>2026-04-10T14:56:06.045Z</time></trkpt><trkpt lat="44.5886874" lon="10.2653097"><ele>454.0</ele><time>2026-04-10T14:56:07.044Z</time></trkpt><trkpt lat="44.5886168" lon="10.2653026"><ele>454.0</ele><time>2026-04-10T14:56:08.045Z</time></trkpt><trkpt lat="44.5885433" lon="10.2652955"><ele>454.0</ele><time>2026-04-10T14:56:09.045Z</time></trkpt><trkpt lat="44.5884668" lon="10.2652883"><ele>454.00000000000006</ele><time>2026-04-10T14:56:10.044Z</time></trkpt><trkpt lat="44.5883867" lon="10.2652738"><ele>454.0</ele><time>2026-04-10T14:56:11.045Z</time></trkpt><trkpt lat="44.5883055" lon="10.2652542"><ele>453.4</ele><time>2026-04-10T14:56:12.045Z</time></trkpt><trkpt lat="44.5882212" lon="10.2652375"><ele>452.79999999999995</ele><time>2026-04-10T14:56:13.045Z</time></trkpt><trkpt lat="44.5881325" lon="10.2652179"><ele>452.20000000000005</ele><time>2026-04-10T14:56:14.045Z</time></trkpt><trkpt lat="44.5880396" lon="10.2651939"><ele>451.6</ele><time>2026-04-10T14:56:15.044Z</time></trkpt><trkpt lat="44.5879455" lon="10.2651684"><ele>451.0</ele><time>2026-04-10T14:56:16.045Z</time></trkpt><trkpt lat="44.5878543" lon="10.2651405"><ele>453.0</ele><time>2026-04-10T14:56:17.045Z</time></trkpt><trkpt lat="44.5877638" lon="10.2651114"><ele>455.0</ele><time>2026-04-10T14:56:18.045Z</time></trkpt><trkpt lat="44.587677" lon="10.2650715"><ele>457.0</ele><time>2026-04-10T14:56:19.045Z</time></trkpt><trkpt lat="44.5875904" lon="10.2650184"><ele>459.0</ele><time>2026-04-10T14:56:20.045Z</time></trkpt><trkpt lat="44.5875082" lon="10.2649539"><ele>461.0</ele><time>2026-04-10T14:56:21.045Z</time></trkpt><trkpt lat="44.5874261" lon="10.264882"><ele>461.0</ele><time>2026-04-10T14:56:22.045Z</time></trkpt><trkpt lat="44.5873509" lon="10.2647931"><ele>461.0</ele><time>2026-04-10T14:56:23.045Z</time></trkpt><trkpt lat="44.5872918" lon="10.2646829"><ele>461.0</ele><time>2026-04-10T14:56:24.045Z</time></trkpt><trkpt lat="44.5872394" lon="10.2645681"><ele>461.0</ele><time>2026-04-10T14:56:25.045Z</time></trkpt><trkpt lat="44.5871958" lon="10.2644576"><ele>461.0</ele><time>2026-04-10T14:56:26.044Z</time></trkpt><trkpt lat="44.5871529" lon="10.2643328"><ele>459.20000000000005</ele><time>2026-04-10T14:56:27.044Z</time></trkpt><trkpt lat="44.5871113" lon="10.2642231"><ele>457.40000000000003</ele><time>2026-04-10T14:56:28.044Z</time></trkpt><trkpt lat="44.5870643" lon="10.2641058"><ele>455.6</ele><time>2026-04-10T14:56:29.045Z</time></trkpt><trkpt lat="44.5870258" lon="10.2639835"><ele>453.8</ele><time>2026-04-10T14:56:30.045Z</time></trkpt><trkpt lat="44.5870003" lon="10.2638556"><ele>452.0</ele><time>2026-04-10T14:56:31.045Z</time></trkpt><trkpt lat="44.5869757" lon="10.2637339"><ele>452.0</ele><time>2026-04-10T14:56:32.044Z</time></trkpt><trkpt lat="44.5869508" lon="10.2636304"><ele>452.00000000000006</ele><time>2026-04-10T14:56:33.045Z</time></trkpt><trkpt lat="44.5869333" lon="10.2635199"><ele>452.00000000000006</ele><time>2026-04-10T14:56:35.045Z</time></trkpt><trkpt lat="44.5869683" lon="10.263728"><ele>452.0</ele><time>2026-04-10T15:01:38.043Z</time></trkpt><trkpt lat="44.5870237" lon="10.2639032"><ele>452.0</ele><time>2026-04-10T15:01:39.044Z</time></trkpt><trkpt lat="44.5870747" lon="10.2640845"><ele>452.0</ele><time>2026-04-10T15:01:40.044Z</time></trkpt><trkpt lat="44.5871326" lon="10.2642815"><ele>452.0</ele><time>2026-04-10T15:01:41.044Z</time></trkpt><trkpt lat="44.5872046" lon="10.2644558"><ele>452.0</ele><time>2026-04-10T15:01:42.044Z</time></trkpt><trkpt lat="44.5872789" lon="10.2646329"><ele>452.0</ele><time>2026-04-10T15:01:43.044Z</time></trkpt><trkpt lat="44.5873573" lon="10.264768"><ele>454.25</ele><time>2026-04-10T15:01:44.044Z</time></trkpt><trkpt lat="44.5874388" lon="10.2648939"><ele>456.5</ele><time>2026-04-10T15:01:45.044Z</time></trkpt><trkpt lat="44.5875718" lon="10.2649929"><ele>458.75</ele><time>2026-04-10T15:01:46.044Z</time></trkpt><trkpt lat="44.5876988" lon="10.2650748"><ele>461.0</ele><time>2026-04-10T15:01:47.044Z</time></trkpt><trkpt lat="44.5878346" lon="10.2651359"><ele>458.5</ele><time>2026-04-10T15:01:48.044Z</time></trkpt><trkpt lat="44.5879829" lon="10.2651831"><ele>456.0</ele><time>2026-04-10T15:01:49.043Z</time></trkpt><trkpt lat="44.5881231" lon="10.2652262"><ele>453.5</ele><time>2026-04-10T15:01:50.044Z</time></trkpt><trkpt lat="44.5882556" lon="10.2652585"><ele>451.0</ele><time>2026-04-10T15:01:51.044Z</time></trkpt><trkpt lat="44.5883672" lon="10.2652832"><ele>451.0</ele><time>2026-04-10T15:01:52.044Z</time></trkpt><trkpt lat="44.588487" lon="10.2653015"><ele>451.0</ele><time>2026-04-10T15:01:53.044Z</time></trkpt><trkpt lat="44.5886071" lon="10.2653176"><ele>451.0</ele><time>2026-04-10T15:01:54.043Z</time></trkpt><trkpt lat="44.5887143" lon="10.2653361"><ele>451.0</ele><time>2026-04-10T15:01:55.044Z</time></trkpt><trkpt lat="44.5888141" lon="10.265355"><ele>451.50000000000006</ele><time>2026-04-10T15:01:56.044Z</time></trkpt><trkpt lat="44.5889107" lon="10.2653662"><ele>452.0</ele><time>2026-04-10T15:01:57.044Z</time></trkpt><trkpt lat="44.5889952" lon="10.2653492"><ele>452.5</ele><time>2026-04-10T15:01:58.044Z</time></trkpt><trkpt lat="44.5890576" lon="10.2652774"><ele>453.0</ele><time>2026-04-10T15:01:59.044Z</time></trkpt><trkpt lat="44.5891055" lon="10.2651838"><ele>453.50000000000006</ele><time>2026-04-10T15:02:00.043Z</time></trkpt><trkpt lat="44.5891425" lon="10.2650622"><ele>454.0</ele><time>2026-04-10T15:02:01.043Z</time></trkpt><trkpt lat="44.5891691" lon="10.2649179"><ele>452.75</ele><time>2026-04-10T15:02:02.044Z</time></trkpt><trkpt lat="44.5891988" lon="10.2647588"><ele>451.5</ele><time>2026-04-10T15:02:03.044Z</time></trkpt><trkpt lat="44.5892342" lon="10.2645816"><ele>450.25</ele><time>2026-04-10T15:02:04.044Z</time></trkpt><trkpt lat="44.5892731" lon="10.2643887"><ele>449.0</ele><time>2026-04-10T15:02:05.044Z</time></trkpt><trkpt lat="44.5893164" lon="10.2641721"><ele>446.0</ele><time>2026-04-10T15:02:06.044Z</time></trkpt><trkpt lat="44.5893697" lon="10.2639419"><ele>443.0</ele><time>2026-04-10T15:02:07.044Z</time></trkpt><trkpt lat="44.5894211" lon="10.2637337"><ele>440.0</ele><time>2026-04-10T15:02:08.044Z</time></trkpt><trkpt lat="44.5894887" lon="10.2635277"><ele>442.25</ele><time>2026-04-10T15:02:09.044Z</time></trkpt><trkpt lat="44.5895501" lon="10.263335"><ele>444.5</ele><time>2026-04-10T15:02:10.044Z</time></trkpt><trkpt lat="44.5896201" lon="10.2631522"><ele>446.75</ele><time>2026-04-10T15:02:11.044Z</time></trkpt><trkpt lat="44.589687" lon="10.2629623"><ele>449.0</ele><time>2026-04-10T15:02:12.044Z</time></trkpt><trkpt lat="44.5897465" lon="10.262759"><ele>449.0</ele><time>2026-04-10T15:02:13.044Z</time></trkpt><trkpt lat="44.5897921" lon="10.262559"><ele>449.0</ele><time>2026-04-10T15:02:14.044Z</time></trkpt><trkpt lat="44.5898223" lon="10.2623669"><ele>449.0</ele><time>2026-04-10T15:02:15.044Z</time></trkpt><trkpt lat="44.5898463" lon="10.2621777"><ele>449.0</ele><time>2026-04-10T15:02:16.044Z</time></trkpt><trkpt lat="44.5898845" lon="10.2620053"><ele>447.0</ele><time>2026-04-10T15:02:17.043Z</time></trkpt><trkpt lat="44.589935" lon="10.2618629"><ele>445.0</ele><time>2026-04-10T15:02:18.044Z</time></trkpt><trkpt lat="44.5900143" lon="10.2617368"><ele>443.0</ele><time>2026-04-10T15:02:19.044Z</time></trkpt><trkpt lat="44.5901115" lon="10.261664"><ele>441.0</ele><time>2026-04-10T15:02:20.043Z</time></trkpt><trkpt lat="44.5902179" lon="10.26165"><ele>441.0</ele><time>2026-04-10T15:02:21.044Z</time></trkpt><trkpt lat="44.5903274" lon="10.2616991"><ele>441.0</ele><time>2026-04-10T15:02:22.044Z</time></trkpt><trkpt lat="44.5904346" lon="10.26175"><ele>441.0</ele><time>2026-04-10T15:02:23.044Z</time></trkpt><trkpt lat="44.5905392" lon="10.2619218"><ele>441.0</ele><time>2026-04-10T15:02:24.044Z</time></trkpt><trkpt lat="44.5906194" lon="10.2620808"><ele>438.5</ele><time>2026-04-10T15:02:25.044Z</time></trkpt><trkpt lat="44.5906675" lon="10.2622635"><ele>436.0</ele><time>2026-04-10T15:02:26.044Z</time></trkpt><trkpt lat="44.5906971" lon="10.2624691"><ele>433.5</ele><time>2026-04-10T15:02:27.044Z</time></trkpt><trkpt lat="44.5907066" lon="10.2626818"><ele>431.0</ele><time>2026-04-10T15:02:28.045Z</time></trkpt><trkpt lat="44.5907069" lon="10.2628932"><ele>431.0</ele><time>2026-04-10T15:02:29.044Z</time></trkpt><trkpt lat="44.5906917" lon="10.2630957"><ele>431.0</ele><time>2026-04-10T15:02:30.042Z</time></trkpt><trkpt lat="44.5906626" lon="10.2632874"><ele>431.0</ele><time>2026-04-10T15:02:31.043Z</time></trkpt><trkpt lat="44.5906102" lon="10.263461"><ele>431.0</ele><time>2026-04-10T15:02:32.043Z</time></trkpt><trkpt lat="44.5905374" lon="10.2636349"><ele>430.5</ele><time>2026-04-10T15:02:33.043Z</time></trkpt><trkpt lat="44.590452" lon="10.2637954"><ele>430.0</ele><time>2026-04-10T15:02:34.043Z</time></trkpt><trkpt lat="44.5903814" lon="10.2639377"><ele>429.5</ele><time>2026-04-10T15:02:35.043Z</time></trkpt><trkpt lat="44.5903274" lon="10.2640551"><ele>429.0</ele><time>2026-04-10T15:02:36.042Z</time></trkpt><trkpt lat="44.5903051" lon="10.2641846"><ele>427.66666666666663</ele><time>2026-04-10T15:02:37.043Z</time></trkpt><trkpt lat="44.5902946" lon="10.264302"><ele>426.3333333333333</ele><time>2026-04-10T15:02:38.043Z</time></trkpt><trkpt lat="44.5903614" lon="10.2644619"><ele>425.0</ele><time>2026-04-10T15:02:40.043Z</time></trkpt><trkpt lat="44.5906259" lon="10.2645394"><ele>425.0</ele><time>2026-04-10T15:02:42.042Z</time></trkpt><trkpt lat="44.5907693" lon="10.2645209"><ele>425.0</ele><time>2026-04-10T15:02:43.043Z</time></trkpt><trkpt lat="44.5909059" lon="10.2645023"><ele>425.0</ele><time>2026-04-10T15:02:44.043Z</time></trkpt><trkpt lat="44.5910406" lon="10.2644781"><ele>425.0</ele><time>2026-04-10T15:02:45.042Z</time></trkpt><trkpt lat="44.5911719" lon="10.2644462"><ele>420.5</ele><time>2026-04-10T15:02:46.044Z</time></trkpt><trkpt lat="44.5912944" lon="10.2644091"><ele>416.0</ele><time>2026-04-10T15:02:47.043Z</time></trkpt><trkpt lat="44.5914181" lon="10.2643472"><ele>411.5</ele><time>2026-04-10T15:02:48.043Z</time></trkpt><trkpt lat="44.5915464" lon="10.2642974"><ele>407.0</ele><time>2026-04-10T15:02:49.043Z</time></trkpt><trkpt lat="44.5916587" lon="10.264298"><ele>407.0</ele><time>2026-04-10T15:02:50.043Z</time></trkpt><trkpt lat="44.5917544" lon="10.2643553"><ele>407.0</ele><time>2026-04-10T15:02:51.042Z</time></trkpt><trkpt lat="44.5918395" lon="10.2644558"><ele>407.0</ele><time>2026-04-10T15:02:52.043Z</time></trkpt><trkpt lat="44.5918745" lon="10.264611"><ele>407.0</ele><time>2026-04-10T15:02:53.043Z</time></trkpt><trkpt lat="44.591908" lon="10.2647935"><ele>411.3333333333333</ele><time>2026-04-10T15:02:54.043Z</time></trkpt><trkpt lat="44.5919329" lon="10.2650049"><ele>415.66666666666663</ele><time>2026-04-10T15:02:55.043Z</time></trkpt><trkpt lat="44.5919639" lon="10.2652091"><ele>420.0</ele><time>2026-04-10T15:02:56.043Z</time></trkpt><trkpt lat="44.5919574" lon="10.2654298"><ele>421.66666666666663</ele><time>2026-04-10T15:02:57.044Z</time></trkpt><trkpt lat="44.5919588" lon="10.2656444"><ele>423.3333333333333</ele><time>2026-04-10T15:02:58.043Z</time></trkpt><trkpt lat="44.5919558" lon="10.2658508"><ele>425.0</ele><time>2026-04-10T15:02:59.043Z</time></trkpt><trkpt lat="44.5919538" lon="10.2660642"><ele>425.0</ele><time>2026-04-10T15:03:00.043Z</time></trkpt><trkpt lat="44.5919514" lon="10.2662791"><ele>425.0</ele><time>2026-04-10T15:03:01.043Z</time></trkpt><trkpt lat="44.59197" lon="10.2664795"><ele>425.0</ele><time>2026-04-10T15:03:02.043Z</time></trkpt><trkpt lat="44.5920055" lon="10.266678"><ele>425.0</ele><time>2026-04-10T15:03:03.043Z</time></trkpt><trkpt lat="44.5920389" lon="10.2668612"><ele>416.25</ele><time>2026-04-10T15:03:04.043Z</time></trkpt><trkpt lat="44.592074" lon="10.2670454"><ele>407.5</ele><time>2026-04-10T15:03:05.043Z</time></trkpt><trkpt lat="44.5921705" lon="10.2671983"><ele>398.75</ele><time>2026-04-10T15:03:06.043Z</time></trkpt><trkpt lat="44.5922509" lon="10.2673455"><ele>390.0</ele><time>2026-04-10T15:03:07.043Z</time></trkpt><trkpt lat="44.5923403" lon="10.2675142"><ele>390.0</ele><time>2026-04-10T15:03:08.042Z</time></trkpt><trkpt lat="44.5924117" lon="10.267686"><ele>390.0</ele><time>2026-04-10T15:03:09.043Z</time></trkpt><trkpt lat="44.5924386" lon="10.2678679"><ele>390.0</ele><time>2026-04-10T15:03:10.043Z</time></trkpt><trkpt lat="44.5924567" lon="10.2680406"><ele>390.0</ele><time>2026-04-10T15:03:11.043Z</time></trkpt><trkpt lat="44.5924609" lon="10.2682237"><ele>391.0</ele><time>2026-04-10T15:03:12.042Z</time></trkpt><trkpt lat="44.5924415" lon="10.2684059"><ele>392.0</ele><time>2026-04-10T15:03:13.042Z</time></trkpt><trkpt lat="44.5924176" lon="10.2685806"><ele>393.0</ele><time>2026-04-10T15:03:14.042Z</time></trkpt><trkpt lat="44.592419" lon="10.2687578"><ele>394.0</ele><time>2026-04-10T15:03:15.043Z</time></trkpt><trkpt lat="44.5924372" lon="10.268938"><ele>393.25</ele><time>2026-04-10T15:03:16.043Z</time></trkpt><trkpt lat="44.5924502" lon="10.26913"><ele>392.5</ele><time>2026-04-10T15:03:17.043Z</time></trkpt><trkpt lat="44.5924957" lon="10.2693114"><ele>391.75</ele><time>2026-04-10T15:03:18.043Z</time></trkpt><trkpt lat="44.5925113" lon="10.2694883"><ele>391.0</ele><time>2026-04-10T15:03:19.042Z</time></trkpt><trkpt lat="44.592518" lon="10.2696651"><ele>390.25</ele><time>2026-04-10T15:03:20.042Z</time></trkpt><trkpt lat="44.5925132" lon="10.2698344"><ele>389.5</ele><time>2026-04-10T15:03:21.042Z</time></trkpt><trkpt lat="44.5925109" lon="10.27"><ele>388.75</ele><time>2026-04-10T15:03:22.042Z</time></trkpt><trkpt lat="44.592506" lon="10.2701537"><ele>388.0</ele><time>2026-04-10T15:03:23.044Z</time></trkpt><trkpt lat="44.5925154" lon="10.2703165"><ele>388.0</ele><time>2026-04-10T15:03:24.042Z</time></trkpt><trkpt lat="44.5925264" lon="10.270487"><ele>388.0</ele><time>2026-04-10T15:03:25.043Z</time></trkpt><trkpt lat="44.5925385" lon="10.2706909"><ele>388.0</ele><time>2026-04-10T15:03:26.043Z</time></trkpt><trkpt lat="44.5925766" lon="10.2708868"><ele>388.0</ele><time>2026-04-10T15:03:27.043Z</time></trkpt><trkpt lat="44.5927111" lon="10.2710503"><ele>387.5</ele><time>2026-04-10T15:03:28.043Z</time></trkpt><trkpt lat="44.5928051" lon="10.2711977"><ele>387.0</ele><time>2026-04-10T15:03:29.042Z</time></trkpt><trkpt lat="44.5929154" lon="10.2713246"><ele>386.5</ele><time>2026-04-10T15:03:30.043Z</time></trkpt><trkpt lat="44.5930329" lon="10.2714432"><ele>386.0</ele><time>2026-04-10T15:03:31.043Z</time></trkpt><trkpt lat="44.5931523" lon="10.2715226"><ele>380.0</ele><time>2026-04-10T15:03:32.042Z</time></trkpt><trkpt lat="44.5932731" lon="10.2715524"><ele>374.0</ele><time>2026-04-10T15:03:33.043Z</time></trkpt><trkpt lat="44.5934078" lon="10.2715327"><ele>368.0</ele><time>2026-04-10T15:03:34.042Z</time></trkpt><trkpt lat="44.5935475" lon="10.2714535"><ele>362.0</ele><time>2026-04-10T15:03:35.043Z</time></trkpt><trkpt lat="44.5936904" lon="10.2713435"><ele>360.0</ele><time>2026-04-10T15:03:36.043Z</time></trkpt><trkpt lat="44.5938052" lon="10.2712441"><ele>358.0</ele><time>2026-04-10T15:03:37.043Z</time></trkpt><trkpt lat="44.5939038" lon="10.2711384"><ele>356.0</ele><time>2026-04-10T15:03:38.043Z</time></trkpt><trkpt lat="44.5939853" lon="10.2710182"><ele>354.0</ele><time>2026-04-10T15:03:39.042Z</time></trkpt><trkpt lat="44.5940411" lon="10.2708682"><ele>354.0</ele><time>2026-04-10T15:03:40.043Z</time></trkpt><trkpt lat="44.5940656" lon="10.2706852"><ele>354.0</ele><time>2026-04-10T15:03:41.043Z</time></trkpt><trkpt lat="44.5940605" lon="10.2704832"><ele>354.0</ele><time>2026-04-10T15:03:42.043Z</time></trkpt><trkpt lat="44.5940484" lon="10.2702876"><ele>354.0</ele><time>2026-04-10T15:03:43.043Z</time></trkpt><trkpt lat="44.594041" lon="10.2700972"><ele>353.25</ele><time>2026-04-10T15:03:44.043Z</time></trkpt><trkpt lat="44.5940385" lon="10.2699124"><ele>352.5</ele><time>2026-04-10T15:03:45.043Z</time></trkpt><trkpt lat="44.594041" lon="10.2697308"><ele>351.75</ele><time>2026-04-10T15:03:46.044Z</time></trkpt><trkpt lat="44.5940515" lon="10.2695337"><ele>351.0</ele><time>2026-04-10T15:03:47.042Z</time></trkpt><trkpt lat="44.5940759" lon="10.2693319"><ele>349.3333333333333</ele><time>2026-04-10T15:03:48.043Z</time></trkpt><trkpt lat="44.5941133" lon="10.2691306"><ele>347.66666666666663</ele><time>2026-04-10T15:03:49.043Z</time></trkpt><trkpt lat="44.5941649" lon="10.2689278"><ele>346.0</ele><time>2026-04-10T15:03:50.043Z</time></trkpt><trkpt lat="44.5942423" lon="10.2687327"><ele>346.0</ele><time>2026-04-10T15:03:51.043Z</time></trkpt><trkpt lat="44.5943132" lon="10.2685362"><ele>346.0</ele><time>2026-04-10T15:03:52.043Z</time></trkpt><trkpt lat="44.5943636" lon="10.2683396"><ele>346.0</ele><time>2026-04-10T15:03:53.042Z</time></trkpt><trkpt lat="44.594387" lon="10.2681471"><ele>346.0</ele><time>2026-04-10T15:03:54.043Z</time></trkpt><trkpt lat="44.5944059" lon="10.2679597"><ele>346.0</ele><time>2026-04-10T15:03:55.042Z</time></trkpt><trkpt lat="44.5944287" lon="10.2677808"><ele>346.0</ele><time>2026-04-10T15:03:56.043Z</time></trkpt><trkpt lat="44.5944673" lon="10.2676128"><ele>346.0</ele><time>2026-04-10T15:03:57.043Z</time></trkpt><trkpt lat="44.5945341" lon="10.2674731"><ele>346.0</ele><time>2026-04-10T15:03:58.043Z</time></trkpt><trkpt lat="44.5946253" lon="10.2673685"><ele>342.75</ele><time>2026-04-10T15:03:59.043Z</time></trkpt><trkpt lat="44.5947409" lon="10.2672866"><ele>339.5</ele><time>2026-04-10T15:04:00.043Z</time></trkpt><trkpt lat="44.5948674" lon="10.2671961"><ele>336.25</ele><time>2026-04-10T15:04:01.043Z</time></trkpt><trkpt lat="44.5949937" lon="10.2670896"><ele>333.0</ele><time>2026-04-10T15:04:02.043Z</time></trkpt><trkpt lat="44.5951129" lon="10.2669771"><ele>333.0</ele><time>2026-04-10T15:04:03.043Z</time></trkpt><trkpt lat="44.5953298" lon="10.2667557"><ele>333.0</ele><time>2026-04-10T15:04:05.043Z</time></trkpt><trkpt lat="44.5954451" lon="10.2666277"><ele>333.0</ele><time>2026-04-10T15:04:06.043Z</time></trkpt><trkpt lat="44.5955602" lon="10.2665024"><ele>329.6666666666667</ele><time>2026-04-10T15:04:07.043Z</time></trkpt><trkpt lat="44.5956726" lon="10.2663645"><ele>326.33333333333337</ele><time>2026-04-10T15:04:08.043Z</time></trkpt><trkpt lat="44.5957543" lon="10.266197"><ele>323.0</ele><time>2026-04-10T15:04:09.043Z</time></trkpt><trkpt lat="44.5958283" lon="10.2660006"><ele>323.0</ele><time>2026-04-10T15:04:10.043Z</time></trkpt><trkpt lat="44.5958963" lon="10.2657831"><ele>323.0</ele><time>2026-04-10T15:04:11.042Z</time></trkpt><trkpt lat="44.5959418" lon="10.2655763"><ele>323.0</ele><time>2026-04-10T15:04:12.043Z</time></trkpt><trkpt lat="44.5959693" lon="10.2653915"><ele>322.75</ele><time>2026-04-10T15:04:13.044Z</time></trkpt><trkpt lat="44.5959706" lon="10.2652159"><ele>322.5</ele><time>2026-04-10T15:04:14.043Z</time></trkpt><trkpt lat="44.5959455" lon="10.2650351"><ele>322.25</ele><time>2026-04-10T15:04:15.044Z</time></trkpt><trkpt lat="44.5958946" lon="10.2648358"><ele>322.0</ele><time>2026-04-10T15:04:16.043Z</time></trkpt><trkpt lat="44.5958724" lon="10.264649"><ele>320.25</ele><time>2026-04-10T15:04:17.043Z</time></trkpt><trkpt lat="44.5958748" lon="10.264476"><ele>318.5</ele><time>2026-04-10T15:04:18.043Z</time></trkpt><trkpt lat="44.5959136" lon="10.2643215"><ele>316.75</ele><time>2026-04-10T15:04:19.043Z</time></trkpt><trkpt lat="44.5959886" lon="10.2642008"><ele>315.0</ele><time>2026-04-10T15:04:20.043Z</time></trkpt><trkpt lat="44.5960881" lon="10.2641392"><ele>312.25</ele><time>2026-04-10T15:04:21.042Z</time></trkpt><trkpt lat="44.5962024" lon="10.2641062"><ele>309.5</ele><time>2026-04-10T15:04:22.042Z</time></trkpt><trkpt lat="44.5963366" lon="10.2641349"><ele>306.75</ele><time>2026-04-10T15:04:23.042Z</time></trkpt><trkpt lat="44.5964676" lon="10.2642166"><ele>304.0</ele><time>2026-04-10T15:04:24.042Z</time></trkpt><trkpt lat="44.5965696" lon="10.2643436"><ele>304.0</ele><time>2026-04-10T15:04:25.042Z</time></trkpt><trkpt lat="44.5966448" lon="10.2644901"><ele>304.0</ele><time>2026-04-10T15:04:26.042Z</time></trkpt><trkpt lat="44.596692" lon="10.2646742"><ele>304.0</ele><time>2026-04-10T15:04:27.043Z</time></trkpt><trkpt lat="44.5967013" lon="10.264872"><ele>304.0</ele><time>2026-04-10T15:04:28.043Z</time></trkpt><trkpt lat="44.5966747" lon="10.2650788"><ele>303.66666666666663</ele><time>2026-04-10T15:04:29.043Z</time></trkpt><trkpt lat="44.5966534" lon="10.2652908"><ele>303.3333333333333</ele><time>2026-04-10T15:04:30.043Z</time></trkpt><trkpt lat="44.5966569" lon="10.2655079"><ele>303.0</ele><time>2026-04-10T15:04:31.043Z</time></trkpt><trkpt lat="44.5966937" lon="10.2657114"><ele>302.0</ele><time>2026-04-10T15:04:32.043Z</time></trkpt><trkpt lat="44.5967413" lon="10.2659056"><ele>301.0</ele><time>2026-04-10T15:04:33.043Z</time></trkpt><trkpt lat="44.5968042" lon="10.2660893"><ele>300.0</ele><time>2026-04-10T15:04:34.043Z</time></trkpt><trkpt lat="44.5968652" lon="10.2662851"><ele>299.0</ele><time>2026-04-10T15:04:35.043Z</time></trkpt><trkpt lat="44.5969152" lon="10.2664772"><ele>299.0</ele><time>2026-04-10T15:04:36.042Z</time></trkpt><trkpt lat="44.5969474" lon="10.2666551"><ele>299.0</ele><time>2026-04-10T15:04:37.043Z</time></trkpt><trkpt lat="44.5969745" lon="10.2668251"><ele>299.0</ele><time>2026-04-10T15:04:38.043Z</time></trkpt><trkpt lat="44.5970002" lon="10.2669804"><ele>299.0</ele><time>2026-04-10T15:04:39.042Z</time></trkpt><trkpt lat="44.5970332" lon="10.2671218"><ele>299.2</ele><time>2026-04-10T15:04:40.043Z</time></trkpt><trkpt lat="44.597092" lon="10.2672396"><ele>299.4</ele><time>2026-04-10T15:04:41.043Z</time></trkpt><trkpt lat="44.5971666" lon="10.2673137"><ele>299.6</ele><time>2026-04-10T15:04:42.043Z</time></trkpt><trkpt lat="44.5972498" lon="10.2673767"><ele>299.8</ele><time>2026-04-10T15:04:43.043Z</time></trkpt><trkpt lat="44.5973519" lon="10.2673435"><ele>300.0</ele><time>2026-04-10T15:04:44.042Z</time></trkpt><trkpt lat="44.5974262" lon="10.2672554"><ele>299.0</ele><time>2026-04-10T15:04:45.043Z</time></trkpt><trkpt lat="44.5974805" lon="10.2671344"><ele>298.0</ele><time>2026-04-10T15:04:46.043Z</time></trkpt><trkpt lat="44.5974966" lon="10.266965"><ele>297.0</ele><time>2026-04-10T15:04:47.042Z</time></trkpt><trkpt lat="44.5975044" lon="10.2667849"><ele>296.0</ele><time>2026-04-10T15:04:48.043Z</time></trkpt><trkpt lat="44.5975114" lon="10.2666099"><ele>294.75</ele><time>2026-04-10T15:04:49.043Z</time></trkpt><trkpt lat="44.5975437" lon="10.2664391"><ele>293.5</ele><time>2026-04-10T15:04:50.043Z</time></trkpt><trkpt lat="44.5975987" lon="10.266286"><ele>292.25</ele><time>2026-04-10T15:04:51.043Z</time></trkpt><trkpt lat="44.5976713" lon="10.2661405"><ele>291.0</ele><time>2026-04-10T15:04:52.042Z</time></trkpt><trkpt lat="44.5977623" lon="10.2659877"><ele>290.0</ele><time>2026-04-10T15:04:53.043Z</time></trkpt><trkpt lat="44.5978714" lon="10.2658548"><ele>289.0</ele><time>2026-04-10T15:04:54.043Z</time></trkpt><trkpt lat="44.5979796" lon="10.2657405"><ele>288.0</ele><time>2026-04-10T15:04:55.042Z</time></trkpt><trkpt lat="44.5980837" lon="10.2656289"><ele>287.0</ele><time>2026-04-10T15:04:56.043Z</time></trkpt><trkpt lat="44.5981761" lon="10.265525"><ele>286.2</ele><time>2026-04-10T15:04:57.043Z</time></trkpt><trkpt lat="44.5982711" lon="10.2654536"><ele>285.4</ele><time>2026-04-10T15:04:58.043Z</time></trkpt><trkpt lat="44.5983738" lon="10.2654229"><ele>284.6</ele><time>2026-04-10T15:04:59.043Z</time></trkpt><trkpt lat="44.5984811" lon="10.2654322"><ele>283.8</ele><time>2026-04-10T15:05:00.043Z</time></trkpt><trkpt lat="44.5985866" lon="10.2654895"><ele>283.0</ele><time>2026-04-10T15:05:01.043Z</time></trkpt><trkpt lat="44.5986941" lon="10.2655722"><ele>281.75</ele><time>2026-04-10T15:05:02.043Z</time></trkpt><trkpt lat="44.598809" lon="10.2656779"><ele>280.5</ele><time>2026-04-10T15:05:03.043Z</time></trkpt><trkpt lat="44.598928" lon="10.2657886"><ele>279.25</ele><time>2026-04-10T15:05:04.043Z</time></trkpt><trkpt lat="44.5990454" lon="10.2658964"><ele>278.0</ele><time>2026-04-10T15:05:05.043Z</time></trkpt><trkpt lat="44.5991521" lon="10.2659892"><ele>278.0</ele><time>2026-04-10T15:05:06.043Z</time></trkpt><trkpt lat="44.5992551" lon="10.2660716"><ele>278.0</ele><time>2026-04-10T15:05:07.042Z</time></trkpt><trkpt lat="44.5993567" lon="10.266149"><ele>278.0</ele><time>2026-04-10T15:05:08.043Z</time></trkpt><trkpt lat="44.5994616" lon="10.2662425"><ele>278.0</ele><time>2026-04-10T15:05:09.043Z</time></trkpt><trkpt lat="44.5995715" lon="10.2663325"><ele>278.25</ele><time>2026-04-10T15:05:10.042Z</time></trkpt><trkpt lat="44.5996834" lon="10.2664329"><ele>278.5</ele><time>2026-04-10T15:05:11.043Z</time></trkpt><trkpt lat="44.5998" lon="10.2665351"><ele>278.75</ele><time>2026-04-10T15:05:12.043Z</time></trkpt><trkpt lat="44.5999224" lon="10.2666372"><ele>279.0</ele><time>2026-04-10T15:05:13.043Z</time></trkpt><trkpt lat="44.6000487" lon="10.2667389"><ele>279.0</ele><time>2026-04-10T15:05:14.043Z</time></trkpt><trkpt lat="44.6001701" lon="10.2668554"><ele>279.0</ele><time>2026-04-10T15:05:15.043Z</time></trkpt><trkpt lat="44.6002836" lon="10.2669879"><ele>279.0</ele><time>2026-04-10T15:05:16.043Z</time></trkpt><trkpt lat="44.6003869" lon="10.2671456"><ele>279.0</ele><time>2026-04-10T15:05:17.043Z</time></trkpt><trkpt lat="44.6004828" lon="10.2673218"><ele>279.0</ele><time>2026-04-10T15:05:18.043Z</time></trkpt><trkpt lat="44.6005769" lon="10.2675127"><ele>279.0</ele><time>2026-04-10T15:05:19.042Z</time></trkpt><trkpt lat="44.6006581" lon="10.2676947"><ele>279.0</ele><time>2026-04-10T15:05:20.043Z</time></trkpt><trkpt lat="44.6007366" lon="10.2678621"><ele>279.0</ele><time>2026-04-10T15:05:21.043Z</time></trkpt><trkpt lat="44.6008172" lon="10.2680026"><ele>279.0</ele><time>2026-04-10T15:05:22.043Z</time></trkpt><trkpt lat="44.6009081" lon="10.2681396"><ele>279.0</ele><time>2026-04-10T15:05:23.044Z</time></trkpt><trkpt lat="44.6010109" lon="10.2682689"><ele>279.0</ele><time>2026-04-10T15:05:24.043Z</time></trkpt><trkpt lat="44.6011341" lon="10.2683926"><ele>278.0</ele><time>2026-04-10T15:05:25.043Z</time></trkpt><trkpt lat="44.6012582" lon="10.2685112"><ele>277.0</ele><time>2026-04-10T15:05:26.043Z</time></trkpt><trkpt lat="44.6013813" lon="10.2686179"><ele>276.0</ele><time>2026-04-10T15:05:27.043Z</time></trkpt><trkpt lat="44.6014937" lon="10.2687045"><ele>275.0</ele><time>2026-04-10T15:05:28.043Z</time></trkpt><trkpt lat="44.6016028" lon="10.2687872"><ele>275.0</ele><time>2026-04-10T15:05:29.043Z</time></trkpt><trkpt lat="44.6017043" lon="10.2688672"><ele>275.0</ele><time>2026-04-10T15:05:30.043Z</time></trkpt><trkpt lat="44.6018098" lon="10.2689515"><ele>275.0</ele><time>2026-04-10T15:05:31.042Z</time></trkpt><trkpt lat="44.6019228" lon="10.269043"><ele>275.0</ele><time>2026-04-10T15:05:32.043Z</time></trkpt><trkpt lat="44.6020404" lon="10.2691422"><ele>274.75</ele><time>2026-04-10T15:05:33.043Z</time></trkpt><trkpt lat="44.6021614" lon="10.2692501"><ele>274.5</ele><time>2026-04-10T15:05:34.043Z</time></trkpt><trkpt lat="44.6022897" lon="10.2693648"><ele>274.25</ele><time>2026-04-10T15:05:35.043Z</time></trkpt><trkpt lat="44.602413" lon="10.2694755"><ele>274.0</ele><time>2026-04-10T15:05:36.043Z</time></trkpt><trkpt lat="44.6025246" lon="10.2695775"><ele>274.0</ele><time>2026-04-10T15:05:37.043Z</time></trkpt><trkpt lat="44.6026308" lon="10.2696695"><ele>274.0</ele><time>2026-04-10T15:05:38.042Z</time></trkpt><trkpt lat="44.6027346" lon="10.2697589"><ele>274.0</ele><time>2026-04-10T15:05:39.043Z</time></trkpt><trkpt lat="44.6028421" lon="10.2698527"><ele>274.0</ele><time>2026-04-10T15:05:40.043Z</time></trkpt><trkpt lat="44.6029547" lon="10.2699559"><ele>273.75</ele><time>2026-04-10T15:05:41.043Z</time></trkpt><trkpt lat="44.6030661" lon="10.2700576"><ele>273.5</ele><time>2026-04-10T15:05:42.042Z</time></trkpt><trkpt lat="44.6031832" lon="10.2701713"><ele>273.25</ele><time>2026-04-10T15:05:43.043Z</time></trkpt><trkpt lat="44.603299" lon="10.2702915"><ele>273.0</ele><time>2026-04-10T15:05:44.043Z</time></trkpt><trkpt lat="44.6034235" lon="10.2704156"><ele>273.0</ele><time>2026-04-10T15:05:45.043Z</time></trkpt><trkpt lat="44.6035458" lon="10.2705341"><ele>273.0</ele><time>2026-04-10T15:05:46.043Z</time></trkpt><trkpt lat="44.6036801" lon="10.2706618"><ele>273.0</ele><time>2026-04-10T15:05:47.043Z</time></trkpt><trkpt lat="44.6038035" lon="10.2707898"><ele>272.3333333333333</ele><time>2026-04-10T15:05:48.042Z</time></trkpt><trkpt lat="44.6039314" lon="10.2709102"><ele>271.66666666666663</ele><time>2026-04-10T15:05:49.043Z</time></trkpt><trkpt lat="44.6040568" lon="10.2710269"><ele>271.0</ele><time>2026-04-10T15:05:50.043Z</time></trkpt><trkpt lat="44.6041858" lon="10.2711381"><ele>271.0</ele><time>2026-04-10T15:05:51.043Z</time></trkpt><trkpt lat="44.604309" lon="10.2712522"><ele>271.0</ele><time>2026-04-10T15:05:52.043Z</time></trkpt><trkpt lat="44.604434" lon="10.2713699"><ele>271.0</ele><time>2026-04-10T15:05:53.043Z</time></trkpt><trkpt lat="44.6045503" lon="10.2714782"><ele>271.0</ele><time>2026-04-10T15:05:54.044Z</time></trkpt><trkpt lat="44.6046678" lon="10.2715858"><ele>270.25</ele><time>2026-04-10T15:05:55.043Z</time></trkpt><trkpt lat="44.6047906" lon="10.2716991"><ele>269.5</ele><time>2026-04-10T15:05:56.043Z</time></trkpt><trkpt lat="44.6049143" lon="10.2718071"><ele>268.75</ele><time>2026-04-10T15:05:57.043Z</time></trkpt><trkpt lat="44.6050348" lon="10.2719241"><ele>268.0</ele><time>2026-04-10T15:05:58.043Z</time></trkpt><trkpt lat="44.6051576" lon="10.2720391"><ele>268.0</ele><time>2026-04-10T15:05:59.044Z</time></trkpt><trkpt lat="44.6052841" lon="10.2721534"><ele>268.0</ele><time>2026-04-10T15:06:00.042Z</time></trkpt><trkpt lat="44.6054075" lon="10.2722659"><ele>268.0</ele><time>2026-04-10T15:06:01.043Z</time></trkpt><trkpt lat="44.6055299" lon="10.2723729"><ele>268.0</ele><time>2026-04-10T15:06:02.043Z</time></trkpt><trkpt lat="44.6056426" lon="10.2724776"><ele>268.25</ele><time>2026-04-10T15:06:03.042Z</time></trkpt><trkpt lat="44.6057549" lon="10.2725752"><ele>268.5</ele><time>2026-04-10T15:06:04.043Z</time></trkpt><trkpt lat="44.6058684" lon="10.272676"><ele>268.75</ele><time>2026-04-10T15:06:05.043Z</time></trkpt><trkpt lat="44.6059833" lon="10.2727856"><ele>269.0</ele><time>2026-04-10T15:06:06.042Z</time></trkpt><trkpt lat="44.6060924" lon="10.2729068"><ele>267.75</ele><time>2026-04-10T15:06:07.043Z</time></trkpt><trkpt lat="44.6062031" lon="10.2730338"><ele>266.5</ele><time>2026-04-10T15:06:08.043Z</time></trkpt><trkpt lat="44.6063092" lon="10.273165"><ele>265.25</ele><time>2026-04-10T15:06:09.043Z</time></trkpt><trkpt lat="44.606422" lon="10.2733016"><ele>264.0</ele><time>2026-04-10T15:06:10.043Z</time></trkpt><trkpt lat="44.6065337" lon="10.2734517"><ele>264.0</ele><time>2026-04-10T15:06:11.042Z</time></trkpt><trkpt lat="44.6066431" lon="10.2735981"><ele>264.0</ele><time>2026-04-10T15:06:12.043Z</time></trkpt><trkpt lat="44.6067543" lon="10.2737472"><ele>264.0</ele><time>2026-04-10T15:06:13.043Z</time></trkpt><trkpt lat="44.6068708" lon="10.2738979"><ele>263.6666666666667</ele><time>2026-04-10T15:06:14.043Z</time></trkpt><trkpt lat="44.6069837" lon="10.2740518"><ele>263.33333333333337</ele><time>2026-04-10T15:06:15.043Z</time></trkpt><trkpt lat="44.6070959" lon="10.2742007"><ele>263.0</ele><time>2026-04-10T15:06:16.043Z</time></trkpt><trkpt lat="44.6072049" lon="10.2743475"><ele>263.0</ele><time>2026-04-10T15:06:17.043Z</time></trkpt><trkpt lat="44.6073112" lon="10.2744873"><ele>263.0</ele><time>2026-04-10T15:06:18.043Z</time></trkpt><trkpt lat="44.6074018" lon="10.2746167"><ele>263.0</ele><time>2026-04-10T15:06:19.043Z</time></trkpt><trkpt lat="44.6074959" lon="10.2747444"><ele>263.0</ele><time>2026-04-10T15:06:20.044Z</time></trkpt><trkpt lat="44.6075927" lon="10.2748616"><ele>262.75</ele><time>2026-04-10T15:06:21.043Z</time></trkpt><trkpt lat="44.6076948" lon="10.2749777"><ele>262.5</ele><time>2026-04-10T15:06:22.042Z</time></trkpt><trkpt lat="44.6077982" lon="10.2750833"><ele>262.25</ele><time>2026-04-10T15:06:23.043Z</time></trkpt><trkpt lat="44.6079095" lon="10.275174"><ele>262.0</ele><time>2026-04-10T15:06:24.043Z</time></trkpt><trkpt lat="44.608016" lon="10.275253"><ele>262.0</ele><time>2026-04-10T15:06:25.044Z</time></trkpt><trkpt lat="44.6081178" lon="10.2753328"><ele>262.0</ele><time>2026-04-10T15:06:26.042Z</time></trkpt><trkpt lat="44.6082122" lon="10.2754235"><ele>262.0</ele><time>2026-04-10T15:06:27.043Z</time></trkpt><trkpt lat="44.6083074" lon="10.2755259"><ele>262.0</ele><time>2026-04-10T15:06:28.043Z</time></trkpt><trkpt lat="44.6083993" lon="10.2756384"><ele>262.0</ele><time>2026-04-10T15:06:29.042Z</time></trkpt><trkpt lat="44.6084914" lon="10.2757609"><ele>262.0</ele><time>2026-04-10T15:06:30.042Z</time></trkpt><trkpt lat="44.6085777" lon="10.2758903"><ele>262.0</ele><time>2026-04-10T15:06:31.043Z</time></trkpt><trkpt lat="44.6086478" lon="10.2760274"><ele>262.0</ele><time>2026-04-10T15:06:32.043Z</time></trkpt><trkpt lat="44.6087166" lon="10.2761591"><ele>262.0</ele><time>2026-04-10T15:06:33.042Z</time></trkpt><trkpt lat="44.6087836" lon="10.2762766"><ele>262.0</ele><time>2026-04-10T15:06:34.042Z</time></trkpt><trkpt lat="44.6088543" lon="10.2763785"><ele>262.0</ele><time>2026-04-10T15:06:35.043Z</time></trkpt><trkpt lat="44.6089299" lon="10.276468"><ele>262.0</ele><time>2026-04-10T15:06:36.043Z</time></trkpt><trkpt lat="44.6090103" lon="10.2765505"><ele>262.0</ele><time>2026-04-10T15:06:37.043Z</time></trkpt><trkpt lat="44.6090956" lon="10.2766313"><ele>262.6</ele><time>2026-04-10T15:06:38.043Z</time></trkpt><trkpt lat="44.6091561" lon="10.276702"><ele>263.2</ele><time>2026-04-10T15:06:39.044Z</time></trkpt><trkpt lat="44.6092467" lon="10.2767964"><ele>263.8</ele><time>2026-04-10T15:06:41.043Z</time></trkpt><trkpt lat="44.6093288" lon="10.276886"><ele>264.4</ele><time>2026-04-10T15:06:43.043Z</time></trkpt><trkpt lat="44.6094237" lon="10.2769985"><ele>265.0</ele><time>2026-04-10T15:06:45.043Z</time></trkpt><trkpt lat="44.6094802" lon="10.2770624"><ele>264.71428571428567</ele><time>2026-04-10T15:06:46.043Z</time></trkpt><trkpt lat="44.6095435" lon="10.2771258"><ele>264.42857142857144</ele><time>2026-04-10T15:06:47.043Z</time></trkpt><trkpt lat="44.6096066" lon="10.2771895"><ele>264.1428571428571</ele><time>2026-04-10T15:06:48.043Z</time></trkpt><trkpt lat="44.6096682" lon="10.2772425"><ele>263.85714285714283</ele><time>2026-04-10T15:06:49.043Z</time></trkpt><trkpt lat="44.6097278" lon="10.2772968"><ele>263.57142857142856</ele><time>2026-04-10T15:06:50.043Z</time></trkpt><trkpt lat="44.6097895" lon="10.2773462"><ele>263.2857142857143</ele><time>2026-04-10T15:06:51.043Z</time></trkpt><trkpt lat="44.6098506" lon="10.2773908"><ele>263.0</ele><time>2026-04-10T15:06:52.043Z</time></trkpt><trkpt lat="44.6099081" lon="10.2774354"><ele>263.0</ele><time>2026-04-10T15:06:53.043Z</time></trkpt><trkpt lat="44.6100335" lon="10.2774743"><ele>263.0</ele><time>2026-04-10T15:06:55.042Z</time></trkpt><trkpt lat="44.6101125" lon="10.2774839"><ele>263.0</ele><time>2026-04-10T15:06:56.043Z</time></trkpt><trkpt lat="44.6102163" lon="10.2774834"><ele>263.0</ele><time>2026-04-10T15:06:57.043Z</time></trkpt><trkpt lat="44.6103305" lon="10.2774734"><ele>263.0</ele><time>2026-04-10T15:06:58.043Z</time></trkpt><trkpt lat="44.6104467" lon="10.2774595"><ele>262.25</ele><time>2026-04-10T15:06:59.043Z</time></trkpt><trkpt lat="44.6105691" lon="10.2774195"><ele>261.5</ele><time>2026-04-10T15:07:00.042Z</time></trkpt><trkpt lat="44.6107019" lon="10.2773335"><ele>260.75</ele><time>2026-04-10T15:07:01.043Z</time></trkpt><trkpt lat="44.6108236" lon="10.2772081"><ele>260.0</ele><time>2026-04-10T15:07:02.043Z</time></trkpt><trkpt lat="44.6109282" lon="10.2770419"><ele>259.33333333333337</ele><time>2026-04-10T15:07:03.043Z</time></trkpt><trkpt lat="44.611028" lon="10.2768496"><ele>258.6666666666667</ele><time>2026-04-10T15:07:04.042Z</time></trkpt><trkpt lat="44.6111174" lon="10.276661"><ele>258.0</ele><time>2026-04-10T15:07:05.043Z</time></trkpt><trkpt lat="44.6112025" lon="10.276466"><ele>257.6666666666667</ele><time>2026-04-10T15:07:06.043Z</time></trkpt><trkpt lat="44.611287" lon="10.2762729"><ele>257.33333333333337</ele><time>2026-04-10T15:07:07.043Z</time></trkpt><trkpt lat="44.6113682" lon="10.2760792"><ele>257.0</ele><time>2026-04-10T15:07:08.043Z</time></trkpt><trkpt lat="44.6114591" lon="10.2758784"><ele>257.0</ele><time>2026-04-10T15:07:09.042Z</time></trkpt><trkpt lat="44.611543" lon="10.2756793"><ele>257.0</ele><time>2026-04-10T15:07:10.043Z</time></trkpt><trkpt lat="44.6116311" lon="10.2754826"><ele>257.0</ele><time>2026-04-10T15:07:11.043Z</time></trkpt><trkpt lat="44.6117222" lon="10.2752832"><ele>256.6666666666667</ele><time>2026-04-10T15:07:12.043Z</time></trkpt><trkpt lat="44.611811" lon="10.2750822"><ele>256.3333333333333</ele><time>2026-04-10T15:07:13.043Z</time></trkpt><trkpt lat="44.6118973" lon="10.2748882"><ele>256.0</ele><time>2026-04-10T15:07:14.042Z</time></trkpt><trkpt lat="44.6119759" lon="10.2747079"><ele>255.0</ele><time>2026-04-10T15:07:15.043Z</time></trkpt><trkpt lat="44.6120543" lon="10.2745351"><ele>254.0</ele><time>2026-04-10T15:07:16.043Z</time></trkpt><trkpt lat="44.6121312" lon="10.2743545"><ele>253.0</ele><time>2026-04-10T15:07:17.042Z</time></trkpt><trkpt lat="44.6122112" lon="10.2741672"><ele>253.0</ele><time>2026-04-10T15:07:18.042Z</time></trkpt><trkpt lat="44.6122931" lon="10.2739738"><ele>253.0</ele><time>2026-04-10T15:07:19.044Z</time></trkpt><trkpt lat="44.6123763" lon="10.2737803"><ele>253.0</ele><time>2026-04-10T15:07:20.043Z</time></trkpt><trkpt lat="44.6124565" lon="10.2735875"><ele>253.0</ele><time>2026-04-10T15:07:21.042Z</time></trkpt><trkpt lat="44.6125345" lon="10.2734117"><ele>253.0</ele><time>2026-04-10T15:07:22.044Z</time></trkpt><trkpt lat="44.612606" lon="10.2732489"><ele>253.0</ele><time>2026-04-10T15:07:23.043Z</time></trkpt><trkpt lat="44.6126749" lon="10.2730968"><ele>253.0</ele><time>2026-04-10T15:07:24.043Z</time></trkpt><trkpt lat="44.6127385" lon="10.2729496"><ele>253.0</ele><time>2026-04-10T15:07:25.042Z</time></trkpt><trkpt lat="44.6128075" lon="10.2727928"><ele>253.0</ele><time>2026-04-10T15:07:26.043Z</time></trkpt><trkpt lat="44.6128714" lon="10.2726455"><ele>253.0</ele><time>2026-04-10T15:07:27.043Z</time></trkpt><trkpt lat="44.6129319" lon="10.2725044"><ele>253.0</ele><time>2026-04-10T15:07:28.044Z</time></trkpt><trkpt lat="44.612993" lon="10.2723577"><ele>253.5</ele><time>2026-04-10T15:07:29.042Z</time></trkpt><trkpt lat="44.6130562" lon="10.2722113"><ele>254.0</ele><time>2026-04-10T15:07:30.043Z</time></trkpt><trkpt lat="44.6131213" lon="10.27206"><ele>254.5</ele><time>2026-04-10T15:07:31.043Z</time></trkpt><trkpt lat="44.6131873" lon="10.2719087"><ele>255.0</ele><time>2026-04-10T15:07:32.042Z</time></trkpt><trkpt lat="44.6132513" lon="10.2717602"><ele>255.0</ele><time>2026-04-10T15:07:33.043Z</time></trkpt><trkpt lat="44.6133128" lon="10.2716202"><ele>255.0</ele><time>2026-04-10T15:07:34.043Z</time></trkpt><trkpt lat="44.6133732" lon="10.2714911"><ele>255.0</ele><time>2026-04-10T15:07:35.043Z</time></trkpt><trkpt lat="44.6134261" lon="10.2713638"><ele>255.0</ele><time>2026-04-10T15:07:36.043Z</time></trkpt><trkpt lat="44.6134816" lon="10.2712368"><ele>255.0</ele><time>2026-04-10T15:07:37.042Z</time></trkpt><trkpt lat="44.6135414" lon="10.2711162"><ele>255.8</ele><time>2026-04-10T15:07:38.043Z</time></trkpt><trkpt lat="44.6136033" lon="10.2709869"><ele>256.6</ele><time>2026-04-10T15:07:39.043Z</time></trkpt><trkpt lat="44.6136622" lon="10.270863"><ele>257.4</ele><time>2026-04-10T15:07:40.043Z</time></trkpt><trkpt lat="44.6137119" lon="10.270737"><ele>258.2</ele><time>2026-04-10T15:07:41.043Z</time></trkpt><trkpt lat="44.6137654" lon="10.2706168"><ele>259.0</ele><time>2026-04-10T15:07:42.043Z</time></trkpt><trkpt lat="44.6138159" lon="10.2705096"><ele>259.3333333333333</ele><time>2026-04-10T15:07:43.043Z</time></trkpt><trkpt lat="44.6138589" lon="10.270406"><ele>259.66666666666663</ele><time>2026-04-10T15:07:44.043Z</time></trkpt><trkpt lat="44.6138972" lon="10.2703195"><ele>260.0</ele><time>2026-04-10T15:07:45.043Z</time></trkpt><trkpt lat="44.6139401" lon="10.2702066"><ele>260.3333333333333</ele><time>2026-04-10T15:07:47.043Z</time></trkpt><trkpt lat="44.6139782" lon="10.2701113"><ele>260.6666666666667</ele><time>2026-04-10T15:07:50.043Z</time></trkpt><trkpt lat="44.6139793" lon="10.270017"><ele>261.0</ele><time>2026-04-10T15:07:54.043Z</time></trkpt><trkpt lat="44.6139011" lon="10.2699645"><ele>261.0</ele><time>2026-04-10T15:07:56.043Z</time></trkpt><trkpt lat="44.6138448" lon="10.2698932"><ele>261.0</ele><time>2026-04-10T15:07:57.043Z</time></trkpt><trkpt lat="44.6137948" lon="10.2698007"><ele>261.0</ele><time>2026-04-10T15:07:58.043Z</time></trkpt><trkpt lat="44.613734" lon="10.2696929"><ele>261.0</ele><time>2026-04-10T15:07:59.043Z</time></trkpt><trkpt lat="44.6136612" lon="10.2695952"><ele>261.0</ele><time>2026-04-10T15:08:00.043Z</time></trkpt><trkpt lat="44.6135722" lon="10.2694961"><ele>261.2</ele><time>2026-04-10T15:08:01.043Z</time></trkpt><trkpt lat="44.6134692" lon="10.2693951"><ele>261.40000000000003</ele><time>2026-04-10T15:08:02.043Z</time></trkpt><trkpt lat="44.6133788" lon="10.2693165"><ele>261.6</ele><time>2026-04-10T15:08:03.042Z</time></trkpt><trkpt lat="44.6132877" lon="10.2692393"><ele>261.8</ele><time>2026-04-10T15:08:04.042Z</time></trkpt><trkpt lat="44.6131929" lon="10.2691666"><ele>262.0</ele><time>2026-04-10T15:08:05.042Z</time></trkpt><trkpt lat="44.613093" lon="10.2690939"><ele>262.0</ele><time>2026-04-10T15:08:06.042Z</time></trkpt><trkpt lat="44.6129966" lon="10.2690056"><ele>262.0</ele><time>2026-04-10T15:08:07.042Z</time></trkpt><trkpt lat="44.6128932" lon="10.2689175"><ele>262.0</ele><time>2026-04-10T15:08:08.043Z</time></trkpt><trkpt lat="44.6127929" lon="10.2688302"><ele>262.0</ele><time>2026-04-10T15:08:09.042Z</time></trkpt><trkpt lat="44.6126908" lon="10.2687465"><ele>262.0</ele><time>2026-04-10T15:08:10.042Z</time></trkpt><trkpt lat="44.6125879" lon="10.2686625"><ele>262.0</ele><time>2026-04-10T15:08:11.043Z</time></trkpt><trkpt lat="44.6124804" lon="10.2685791"><ele>262.0</ele><time>2026-04-10T15:08:12.043Z</time></trkpt><trkpt lat="44.6123746" lon="10.2684904"><ele>262.0</ele><time>2026-04-10T15:08:13.043Z</time></trkpt><trkpt lat="44.6122713" lon="10.268398"><ele>262.0</ele><time>2026-04-10T15:08:14.042Z</time></trkpt><trkpt lat="44.6121763" lon="10.2683136"><ele>262.0</ele><time>2026-04-10T15:08:15.042Z</time></trkpt><trkpt lat="44.6120731" lon="10.2682287"><ele>262.0</ele><time>2026-04-10T15:08:16.043Z</time></trkpt><trkpt lat="44.6119763" lon="10.2681418"><ele>262.0</ele><time>2026-04-10T15:08:17.043Z</time></trkpt><trkpt lat="44.6118837" lon="10.2680829"><ele>262.0</ele><time>2026-04-10T15:08:18.043Z</time></trkpt><trkpt lat="44.611806" lon="10.2680193"><ele>262.0</ele><time>2026-04-10T15:08:19.043Z</time></trkpt><trkpt lat="44.6117359" lon="10.2679665"><ele>262.0</ele><time>2026-04-10T15:08:20.042Z</time></trkpt><trkpt lat="44.6116309" lon="10.2679764"><ele>262.0</ele><time>2026-04-10T15:08:22.042Z</time></trkpt><trkpt lat="44.6115246" lon="10.2681011"><ele>262.0</ele><time>2026-04-10T15:08:24.042Z</time></trkpt><trkpt lat="44.6114682" lon="10.2682035"><ele>262.0</ele><time>2026-04-10T15:08:25.042Z</time></trkpt><trkpt lat="44.6114052" lon="10.2683254"><ele>262.16666666666663</ele><time>2026-04-10T15:08:26.042Z</time></trkpt><trkpt lat="44.6113466" lon="10.2684411"><ele>262.3333333333333</ele><time>2026-04-10T15:08:27.042Z</time></trkpt><trkpt lat="44.6113017" lon="10.2685378"><ele>262.5</ele><time>2026-04-10T15:08:28.042Z</time></trkpt><trkpt lat="44.6112596" lon="10.2686201"><ele>262.6666666666667</ele><time>2026-04-10T15:08:29.042Z</time></trkpt><trkpt lat="44.6111957" lon="10.2686765"><ele>262.83333333333337</ele><time>2026-04-10T15:08:31.042Z</time></trkpt><trkpt lat="44.6110845" lon="10.2686499"><ele>263.0</ele><time>2026-04-10T15:08:33.042Z</time></trkpt><trkpt lat="44.611023" lon="10.2686095"><ele>263.0</ele><time>2026-04-10T15:08:34.042Z</time></trkpt><trkpt lat="44.6109167" lon="10.2684926"><ele>263.0</ele><time>2026-04-10T15:08:35.042Z</time></trkpt><trkpt lat="44.6108063" lon="10.2684079"><ele>263.0</ele><time>2026-04-10T15:08:36.042Z</time></trkpt><trkpt lat="44.6106885" lon="10.2682923"><ele>263.0</ele><time>2026-04-10T15:08:37.041Z</time></trkpt><trkpt lat="44.6105755" lon="10.2681998"><ele>263.0</ele><time>2026-04-10T15:08:38.042Z</time></trkpt><trkpt lat="44.6104538" lon="10.268114"><ele>263.0</ele><time>2026-04-10T15:08:39.042Z</time></trkpt><trkpt lat="44.6103443" lon="10.2680419"><ele>263.0</ele><time>2026-04-10T15:08:40.042Z</time></trkpt><trkpt lat="44.6102454" lon="10.2679517"><ele>263.0</ele><time>2026-04-10T15:08:41.043Z</time></trkpt><trkpt lat="44.6101615" lon="10.2678802"><ele>263.0</ele><time>2026-04-10T15:08:42.042Z</time></trkpt><trkpt lat="44.6100611" lon="10.2677961"><ele>263.0</ele><time>2026-04-10T15:08:43.042Z</time></trkpt><trkpt lat="44.6099521" lon="10.2677132"><ele>263.0</ele><time>2026-04-10T15:08:44.042Z</time></trkpt><trkpt lat="44.6098581" lon="10.2676078"><ele>263.0</ele><time>2026-04-10T15:08:45.042Z</time></trkpt><trkpt lat="44.6097467" lon="10.2675067"><ele>263.0</ele><time>2026-04-10T15:08:46.041Z</time></trkpt><trkpt lat="44.6096337" lon="10.2674106"><ele>263.0</ele><time>2026-04-10T15:08:47.041Z</time></trkpt><trkpt lat="44.609519" lon="10.2673131"><ele>263.0</ele><time>2026-04-10T15:08:48.042Z</time></trkpt><trkpt lat="44.6094053" lon="10.2672214"><ele>263.0</ele><time>2026-04-10T15:08:49.042Z</time></trkpt><trkpt lat="44.6092955" lon="10.2671112"><ele>263.5</ele><time>2026-04-10T15:08:50.042Z</time></trkpt><trkpt lat="44.6091778" lon="10.2670099"><ele>264.0</ele><time>2026-04-10T15:08:51.043Z</time></trkpt><trkpt lat="44.6090394" lon="10.2669216"><ele>264.5</ele><time>2026-04-10T15:08:52.042Z</time></trkpt><trkpt lat="44.6089139" lon="10.2668256"><ele>265.0</ele><time>2026-04-10T15:08:53.042Z</time></trkpt><trkpt lat="44.6087892" lon="10.2667196"><ele>265.0</ele><time>2026-04-10T15:08:54.043Z</time></trkpt><trkpt lat="44.6086571" lon="10.266617"><ele>265.0</ele><time>2026-04-10T15:08:55.042Z</time></trkpt><trkpt lat="44.6085299" lon="10.2665102"><ele>265.0</ele><time>2026-04-10T15:08:56.042Z</time></trkpt><trkpt lat="44.6084014" lon="10.2663988"><ele>265.75</ele><time>2026-04-10T15:08:57.043Z</time></trkpt><trkpt lat="44.6082722" lon="10.2662871"><ele>266.5</ele><time>2026-04-10T15:08:58.042Z</time></trkpt><trkpt lat="44.6081515" lon="10.2661987"><ele>267.25</ele><time>2026-04-10T15:08:59.042Z</time></trkpt><trkpt lat="44.6080424" lon="10.2661059"><ele>268.0</ele><time>2026-04-10T15:09:00.042Z</time></trkpt><trkpt lat="44.6079277" lon="10.2660287"><ele>267.75</ele><time>2026-04-10T15:09:01.042Z</time></trkpt><trkpt lat="44.6078071" lon="10.2659349"><ele>267.5</ele><time>2026-04-10T15:09:02.041Z</time></trkpt><trkpt lat="44.6076773" lon="10.265834"><ele>267.25</ele><time>2026-04-10T15:09:03.042Z</time></trkpt><trkpt lat="44.6075434" lon="10.2657194"><ele>267.0</ele><time>2026-04-10T15:09:04.042Z</time></trkpt><trkpt lat="44.6074141" lon="10.2655874"><ele>267.0</ele><time>2026-04-10T15:09:05.042Z</time></trkpt><trkpt lat="44.6072982" lon="10.265432"><ele>267.0</ele><time>2026-04-10T15:09:06.043Z</time></trkpt><trkpt lat="44.607188" lon="10.265225"><ele>267.0</ele><time>2026-04-10T15:09:07.041Z</time></trkpt><trkpt lat="44.6070863" lon="10.2650332"><ele>267.0</ele><time>2026-04-10T15:09:08.042Z</time></trkpt><trkpt lat="44.6069706" lon="10.2648691"><ele>267.0</ele><time>2026-04-10T15:09:09.042Z</time></trkpt><trkpt lat="44.6068501" lon="10.2647172"><ele>267.0</ele><time>2026-04-10T15:09:10.041Z</time></trkpt><trkpt lat="44.6067132" lon="10.2645666"><ele>267.0</ele><time>2026-04-10T15:09:11.041Z</time></trkpt><trkpt lat="44.6065692" lon="10.2644381"><ele>267.0</ele><time>2026-04-10T15:09:12.041Z</time></trkpt><trkpt lat="44.6064483" lon="10.2643481"><ele>267.0</ele><time>2026-04-10T15:09:13.041Z</time></trkpt><trkpt lat="44.6063508" lon="10.2642631"><ele>267.0</ele><time>2026-04-10T15:09:14.041Z</time></trkpt><trkpt lat="44.6062476" lon="10.2641749"><ele>267.0</ele><time>2026-04-10T15:09:15.041Z</time></trkpt><trkpt lat="44.6061523" lon="10.2640845"><ele>267.0</ele><time>2026-04-10T15:09:16.041Z</time></trkpt><trkpt lat="44.6060448" lon="10.263986"><ele>267.0</ele><time>2026-04-10T15:09:17.041Z</time></trkpt><trkpt lat="44.6059561" lon="10.2638992"><ele>267.0</ele><time>2026-04-10T15:09:18.041Z</time></trkpt><trkpt lat="44.6058629" lon="10.2638142"><ele>267.5</ele><time>2026-04-10T15:09:19.041Z</time></trkpt><trkpt lat="44.6057658" lon="10.2637114"><ele>268.0</ele><time>2026-04-10T15:09:20.041Z</time></trkpt><trkpt lat="44.6056428" lon="10.2636207"><ele>268.5</ele><time>2026-04-10T15:09:21.042Z</time></trkpt><trkpt lat="44.605526" lon="10.2635179"><ele>269.0</ele><time>2026-04-10T15:09:22.042Z</time></trkpt><trkpt lat="44.6053979" lon="10.2634186"><ele>269.0</ele><time>2026-04-10T15:09:23.042Z</time></trkpt><trkpt lat="44.6052617" lon="10.2632878"><ele>269.0</ele><time>2026-04-10T15:09:24.042Z</time></trkpt><trkpt lat="44.6051198" lon="10.2631657"><ele>269.0</ele><time>2026-04-10T15:09:25.041Z</time></trkpt><trkpt lat="44.60498" lon="10.2630298"><ele>269.33333333333337</ele><time>2026-04-10T15:09:26.041Z</time></trkpt><trkpt lat="44.6048387" lon="10.2629321"><ele>269.6666666666667</ele><time>2026-04-10T15:09:27.042Z</time></trkpt><trkpt lat="44.6047087" lon="10.2627966"><ele>270.0</ele><time>2026-04-10T15:09:28.042Z</time></trkpt><trkpt lat="44.6045741" lon="10.2626788"><ele>270.3333333333333</ele><time>2026-04-10T15:09:29.043Z</time></trkpt><trkpt lat="44.6044454" lon="10.2625552"><ele>270.66666666666663</ele><time>2026-04-10T15:09:30.042Z</time></trkpt><trkpt lat="44.6043102" lon="10.262432"><ele>271.0</ele><time>2026-04-10T15:09:31.041Z</time></trkpt><trkpt lat="44.6041828" lon="10.26231"><ele>271.66666666666663</ele><time>2026-04-10T15:09:32.042Z</time></trkpt><trkpt lat="44.6040421" lon="10.2621728"><ele>272.3333333333333</ele><time>2026-04-10T15:09:33.042Z</time></trkpt><trkpt lat="44.6039033" lon="10.2620327"><ele>273.0</ele><time>2026-04-10T15:09:34.042Z</time></trkpt><trkpt lat="44.6037622" lon="10.261899"><ele>272.0</ele><time>2026-04-10T15:09:35.042Z</time></trkpt><trkpt lat="44.6036266" lon="10.2617764"><ele>271.0</ele><time>2026-04-10T15:09:36.042Z</time></trkpt><trkpt lat="44.6034819" lon="10.2616501"><ele>270.0</ele><time>2026-04-10T15:09:37.042Z</time></trkpt><trkpt lat="44.6033488" lon="10.2615349"><ele>271.3333333333333</ele><time>2026-04-10T15:09:38.041Z</time></trkpt><trkpt lat="44.6032134" lon="10.261419"><ele>272.66666666666663</ele><time>2026-04-10T15:09:39.042Z</time></trkpt><trkpt lat="44.6030803" lon="10.2613029"><ele>274.0</ele><time>2026-04-10T15:09:40.042Z</time></trkpt><trkpt lat="44.6029601" lon="10.2611606"><ele>274.0</ele><time>2026-04-10T15:09:41.041Z</time></trkpt><trkpt lat="44.6028549" lon="10.2609796"><ele>274.0</ele><time>2026-04-10T15:09:42.042Z</time></trkpt><trkpt lat="44.6027799" lon="10.2607888"><ele>274.0</ele><time>2026-04-10T15:09:43.041Z</time></trkpt><trkpt lat="44.6027341" lon="10.2605873"><ele>274.0</ele><time>2026-04-10T15:09:44.042Z</time></trkpt><trkpt lat="44.6027103" lon="10.2603704"><ele>274.0</ele><time>2026-04-10T15:09:45.042Z</time></trkpt><trkpt lat="44.6027156" lon="10.2601483"><ele>274.0</ele><time>2026-04-10T15:09:46.042Z</time></trkpt><trkpt lat="44.6027195" lon="10.2599229"><ele>274.5</ele><time>2026-04-10T15:09:47.042Z</time></trkpt><trkpt lat="44.6027206" lon="10.2597185"><ele>275.0</ele><time>2026-04-10T15:09:48.042Z</time></trkpt><trkpt lat="44.6027303" lon="10.2595285"><ele>275.5</ele><time>2026-04-10T15:09:49.041Z</time></trkpt><trkpt lat="44.6027513" lon="10.2593602"><ele>276.0</ele><time>2026-04-10T15:09:50.042Z</time></trkpt><trkpt lat="44.6027948" lon="10.2592099"><ele>276.5</ele><time>2026-04-10T15:09:51.042Z</time></trkpt><trkpt lat="44.6028521" lon="10.2590816"><ele>277.0</ele><time>2026-04-10T15:09:52.042Z</time></trkpt><trkpt lat="44.6029008" lon="10.2589813"><ele>277.5</ele><time>2026-04-10T15:09:53.042Z</time></trkpt><trkpt lat="44.6029437" lon="10.2588982"><ele>278.0</ele><time>2026-04-10T15:09:54.042Z</time></trkpt><trkpt lat="44.602977" lon="10.2588124"><ele>278.5</ele><time>2026-04-10T15:09:56.042Z</time></trkpt><trkpt lat="44.6029794" lon="10.2587096"><ele>279.0</ele><time>2026-04-10T15:10:01.042Z</time></trkpt><trkpt lat="44.6029571" lon="10.2586096"><ele>279.59999999999997</ele><time>2026-04-10T15:10:02.042Z</time></trkpt><trkpt lat="44.6029261" lon="10.2584971"><ele>280.2</ele><time>2026-04-10T15:10:03.042Z</time></trkpt><trkpt lat="44.6029025" lon="10.2583566"><ele>280.79999999999995</ele><time>2026-04-10T15:10:04.042Z</time></trkpt><trkpt lat="44.6029051" lon="10.2582133"><ele>281.4</ele><time>2026-04-10T15:10:05.041Z</time></trkpt><trkpt lat="44.6029419" lon="10.2580607"><ele>282.0</ele><time>2026-04-10T15:10:06.042Z</time></trkpt><trkpt lat="44.6030061" lon="10.2579095"><ele>282.0</ele><time>2026-04-10T15:10:07.042Z</time></trkpt><trkpt lat="44.6030645" lon="10.2577714"><ele>282.0</ele><time>2026-04-10T15:10:08.043Z</time></trkpt><trkpt lat="44.6031198" lon="10.25764"><ele>282.0</ele><time>2026-04-10T15:10:09.042Z</time></trkpt><trkpt lat="44.6031769" lon="10.2574823"><ele>282.0</ele><time>2026-04-10T15:10:10.041Z</time></trkpt><trkpt lat="44.6032375" lon="10.2573176"><ele>282.2</ele><time>2026-04-10T15:10:11.042Z</time></trkpt><trkpt lat="44.603287" lon="10.2571671"><ele>282.4</ele><time>2026-04-10T15:10:12.042Z</time></trkpt><trkpt lat="44.6033271" lon="10.2570305"><ele>282.6</ele><time>2026-04-10T15:10:13.042Z</time></trkpt><trkpt lat="44.6033543" lon="10.2569105"><ele>282.8</ele><time>2026-04-10T15:10:14.041Z</time></trkpt><trkpt lat="44.6033729" lon="10.2568096"><ele>283.0</ele><time>2026-04-10T15:10:15.042Z</time></trkpt><trkpt lat="44.6033906" lon="10.2566929"><ele>283.0</ele><time>2026-04-10T15:10:16.041Z</time></trkpt><trkpt lat="44.6034065" lon="10.2565468"><ele>283.0</ele><time>2026-04-10T15:10:17.042Z</time></trkpt><trkpt lat="44.6034233" lon="10.2563731"><ele>283.0</ele><time>2026-04-10T15:10:18.043Z</time></trkpt><trkpt lat="44.6034361" lon="10.256179"><ele>283.0</ele><time>2026-04-10T15:10:19.042Z</time></trkpt><trkpt lat="44.6034442" lon="10.2559694"><ele>283.6</ele><time>2026-04-10T15:10:20.042Z</time></trkpt><trkpt lat="44.6034476" lon="10.2557793"><ele>284.20000000000005</ele><time>2026-04-10T15:10:21.041Z</time></trkpt><trkpt lat="44.6034538" lon="10.2556286"><ele>284.8</ele><time>2026-04-10T15:10:22.042Z</time></trkpt><trkpt lat="44.6034329" lon="10.255508"><ele>285.40000000000003</ele><time>2026-04-10T15:10:23.042Z</time></trkpt><trkpt lat="44.6033887" lon="10.255424"><ele>286.0</ele><time>2026-04-10T15:10:24.042Z</time></trkpt><trkpt lat="44.6032853" lon="10.2553705"><ele>287.0</ele><time>2026-04-10T15:10:26.042Z</time></trkpt><trkpt lat="44.6032129" lon="10.2553069"><ele>288.0</ele><time>2026-04-10T15:10:28.042Z</time></trkpt><trkpt lat="44.6033155" lon="10.2552615"><ele>289.0</ele><time>2026-04-10T15:10:31.042Z</time></trkpt><trkpt lat="44.6034043" lon="10.2552821"><ele>290.0</ele><time>2026-04-10T15:10:32.041Z</time></trkpt><trkpt lat="44.6035171" lon="10.2552922"><ele>291.0</ele><time>2026-04-10T15:10:33.041Z</time></trkpt><trkpt lat="44.6036415" lon="10.2553045"><ele>291.0</ele><time>2026-04-10T15:10:34.041Z</time></trkpt><trkpt lat="44.6037823" lon="10.2553242"><ele>291.0</ele><time>2026-04-10T15:10:35.041Z</time></trkpt><trkpt lat="44.6039306" lon="10.2553423"><ele>291.0</ele><time>2026-04-10T15:10:36.041Z</time></trkpt><trkpt lat="44.6040805" lon="10.2553655"><ele>291.0</ele><time>2026-04-10T15:10:37.041Z</time></trkpt><trkpt lat="44.6042358" lon="10.255385"><ele>291.0</ele><time>2026-04-10T15:10:38.041Z</time></trkpt><trkpt lat="44.6043855" lon="10.255402"><ele>291.0</ele><time>2026-04-10T15:10:39.041Z</time></trkpt><trkpt lat="44.6045247" lon="10.255428"><ele>291.0</ele><time>2026-04-10T15:10:40.041Z</time></trkpt><trkpt lat="44.6046627" lon="10.2554755"><ele>291.0</ele><time>2026-04-10T15:10:41.042Z</time></trkpt><trkpt lat="44.6047904" lon="10.25553"><ele>290.6</ele><time>2026-04-10T15:10:42.042Z</time></trkpt><trkpt lat="44.6049046" lon="10.2556004"><ele>290.20000000000005</ele><time>2026-04-10T15:10:43.042Z</time></trkpt><trkpt lat="44.6050044" lon="10.2556564"><ele>289.79999999999995</ele><time>2026-04-10T15:10:44.043Z</time></trkpt><trkpt lat="44.6050917" lon="10.2556891"><ele>289.4</ele><time>2026-04-10T15:10:45.042Z</time></trkpt><trkpt lat="44.6051703" lon="10.2556843"><ele>289.0</ele><time>2026-04-10T15:10:46.042Z</time></trkpt><trkpt lat="44.6052347" lon="10.2556375"><ele>290.2</ele><time>2026-04-10T15:10:47.042Z</time></trkpt><trkpt lat="44.6053161" lon="10.2555622"><ele>291.4</ele><time>2026-04-10T15:10:48.042Z</time></trkpt><trkpt lat="44.6054125" lon="10.2554825"><ele>292.6</ele><time>2026-04-10T15:10:49.042Z</time></trkpt><trkpt lat="44.6055291" lon="10.2554336"><ele>293.8</ele><time>2026-04-10T15:10:50.042Z</time></trkpt><trkpt lat="44.6056421" lon="10.2554328"><ele>295.0</ele><time>2026-04-10T15:10:51.042Z</time></trkpt><trkpt lat="44.6057689" lon="10.2554713"><ele>294.75</ele><time>2026-04-10T15:10:52.042Z</time></trkpt><trkpt lat="44.605891" lon="10.2555564"><ele>294.5</ele><time>2026-04-10T15:10:53.042Z</time></trkpt><trkpt lat="44.6060022" lon="10.2556856"><ele>294.25</ele><time>2026-04-10T15:10:54.041Z</time></trkpt><trkpt lat="44.6060975" lon="10.2558049"><ele>294.0</ele><time>2026-04-10T15:10:55.042Z</time></trkpt><trkpt lat="44.606176" lon="10.2558951"><ele>294.6666666666667</ele><time>2026-04-10T15:10:56.041Z</time></trkpt><trkpt lat="44.6062364" lon="10.2559697"><ele>295.3333333333333</ele><time>2026-04-10T15:10:57.042Z</time></trkpt><trkpt lat="44.6062912" lon="10.2560209"><ele>296.0</ele><time>2026-04-10T15:10:58.042Z</time></trkpt><trkpt lat="44.6063695" lon="10.256077"><ele>296.66666666666663</ele><time>2026-04-10T15:11:00.042Z</time></trkpt><trkpt lat="44.6064328" lon="10.2560908"><ele>297.3333333333333</ele><time>2026-04-10T15:11:03.042Z</time></trkpt><trkpt lat="44.6065027" lon="10.2561301"><ele>298.0</ele><time>2026-04-10T15:11:11.043Z</time></trkpt><trkpt lat="44.6065613" lon="10.2562121"><ele>298.0</ele><time>2026-04-10T15:11:13.042Z</time></trkpt><trkpt lat="44.6066397" lon="10.2562902"><ele>298.0</ele><time>2026-04-10T15:11:15.042Z</time></trkpt><trkpt lat="44.6066963" lon="10.2563492"><ele>298.0</ele><time>2026-04-10T15:11:16.042Z</time></trkpt><trkpt lat="44.6067556" lon="10.2564173"><ele>298.0</ele><time>2026-04-10T15:11:17.041Z</time></trkpt><trkpt lat="44.6068227" lon="10.2564931"><ele>298.0</ele><time>2026-04-10T15:11:18.041Z</time></trkpt><trkpt lat="44.6068913" lon="10.2565704"><ele>298.0</ele><time>2026-04-10T15:11:19.041Z</time></trkpt><trkpt lat="44.6069578" lon="10.2566432"><ele>300.4</ele><time>2026-04-10T15:11:20.041Z</time></trkpt><trkpt lat="44.6070263" lon="10.2567241"><ele>302.8</ele><time>2026-04-10T15:11:21.042Z</time></trkpt><trkpt lat="44.6071" lon="10.2568013"><ele>305.2</ele><time>2026-04-10T15:11:22.042Z</time></trkpt><trkpt lat="44.607157" lon="10.2568653"><ele>307.6</ele><time>2026-04-10T15:11:23.042Z</time></trkpt><trkpt lat="44.6072408" lon="10.2569525"><ele>310.0</ele><time>2026-04-10T15:11:25.042Z</time></trkpt><trkpt lat="44.6073377" lon="10.2570511"><ele>310.0</ele><time>2026-04-10T15:11:27.043Z</time></trkpt><trkpt lat="44.6073964" lon="10.2571144"><ele>310.0</ele><time>2026-04-10T15:11:28.042Z</time></trkpt><trkpt lat="44.6074583" lon="10.2571818"><ele>310.0</ele><time>2026-04-10T15:11:29.041Z</time></trkpt><trkpt lat="44.6075195" lon="10.2572501"><ele>310.0</ele><time>2026-04-10T15:11:30.042Z</time></trkpt><trkpt lat="44.6075842" lon="10.2573148"><ele>310.0</ele><time>2026-04-10T15:11:31.042Z</time></trkpt><trkpt lat="44.6076543" lon="10.2573805"><ele>310.0</ele><time>2026-04-10T15:11:32.042Z</time></trkpt><trkpt lat="44.6077303" lon="10.2574506"><ele>309.0</ele><time>2026-04-10T15:11:33.042Z</time></trkpt><trkpt lat="44.6078063" lon="10.2575259"><ele>308.0</ele><time>2026-04-10T15:11:34.042Z</time></trkpt><trkpt lat="44.6078897" lon="10.2576094"><ele>307.0</ele><time>2026-04-10T15:11:35.042Z</time></trkpt><trkpt lat="44.6079718" lon="10.2576877"><ele>306.0</ele><time>2026-04-10T15:11:36.042Z</time></trkpt><trkpt lat="44.6080518" lon="10.2577584"><ele>305.0</ele><time>2026-04-10T15:11:37.043Z</time></trkpt><trkpt lat="44.6081201" lon="10.2578198"><ele>307.33333333333337</ele><time>2026-04-10T15:11:38.041Z</time></trkpt><trkpt lat="44.608183" lon="10.2578689"><ele>309.6666666666667</ele><time>2026-04-10T15:11:39.042Z</time></trkpt><trkpt lat="44.6082859" lon="10.2579055"><ele>312.0</ele><time>2026-04-10T15:11:41.041Z</time></trkpt><trkpt lat="44.6083766" lon="10.2578603"><ele>314.3333333333333</ele><time>2026-04-10T15:11:43.041Z</time></trkpt><trkpt lat="44.6083965" lon="10.2577327"><ele>316.66666666666663</ele><time>2026-04-10T15:11:45.042Z</time></trkpt><trkpt lat="44.6083931" lon="10.257618"><ele>319.0</ele><time>2026-04-10T15:11:46.043Z</time></trkpt><trkpt lat="44.6083932" lon="10.2574881"><ele>319.0</ele><time>2026-04-10T15:11:47.042Z</time></trkpt><trkpt lat="44.6083946" lon="10.2573697"><ele>319.0</ele><time>2026-04-10T15:11:48.042Z</time></trkpt><trkpt lat="44.6083922" lon="10.2572657"><ele>319.0</ele><time>2026-04-10T15:11:49.042Z</time></trkpt><trkpt lat="44.6083857" lon="10.2571698"><ele>319.0</ele><time>2026-04-10T15:11:50.041Z</time></trkpt><trkpt lat="44.6083655" lon="10.2570723"><ele>319.0</ele><time>2026-04-10T15:11:51.041Z</time></trkpt><trkpt lat="44.6083483" lon="10.2569777"><ele>319.0</ele><time>2026-04-10T15:11:52.042Z</time></trkpt><trkpt lat="44.6083623" lon="10.2568109"><ele>320.8333333333333</ele><time>2026-04-10T15:11:54.042Z</time></trkpt><trkpt lat="44.6083959" lon="10.2567121"><ele>322.66666666666663</ele><time>2026-04-10T15:11:55.042Z</time></trkpt><trkpt lat="44.6084386" lon="10.2566089"><ele>324.5</ele><time>2026-04-10T15:11:56.042Z</time></trkpt><trkpt lat="44.6084767" lon="10.2565207"><ele>326.3333333333333</ele><time>2026-04-10T15:11:57.041Z</time></trkpt><trkpt lat="44.6085082" lon="10.2564293"><ele>328.1666666666667</ele><time>2026-04-10T15:11:58.041Z</time></trkpt><trkpt lat="44.6085576" lon="10.2562701"><ele>330.0</ele><time>2026-04-10T15:12:00.041Z</time></trkpt><trkpt lat="44.6085862" lon="10.2561867"><ele>330.2</ele><time>2026-04-10T15:12:01.041Z</time></trkpt><trkpt lat="44.6086227" lon="10.2560716"><ele>330.4</ele><time>2026-04-10T15:12:02.042Z</time></trkpt><trkpt lat="44.6086652" lon="10.2559327"><ele>330.6</ele><time>2026-04-10T15:12:03.042Z</time></trkpt><trkpt lat="44.608708" lon="10.2557878"><ele>330.8</ele><time>2026-04-10T15:12:04.042Z</time></trkpt><trkpt lat="44.608742" lon="10.2556727"><ele>331.0</ele><time>2026-04-10T15:12:05.042Z</time></trkpt><trkpt lat="44.6087806" lon="10.2555535"><ele>333.0</ele><time>2026-04-10T15:12:06.042Z</time></trkpt><trkpt lat="44.6088224" lon="10.2554207"><ele>335.0</ele><time>2026-04-10T15:12:07.042Z</time></trkpt><trkpt lat="44.6088616" lon="10.2552807"><ele>337.0</ele><time>2026-04-10T15:12:08.042Z</time></trkpt><trkpt lat="44.6089022" lon="10.2551452"><ele>339.0</ele><time>2026-04-10T15:12:09.043Z</time></trkpt><trkpt lat="44.6089349" lon="10.2550303"><ele>341.0</ele><time>2026-04-10T15:12:10.042Z</time></trkpt><trkpt lat="44.6089712" lon="10.2549229"><ele>341.0</ele><time>2026-04-10T15:12:11.042Z</time></trkpt><trkpt lat="44.6090114" lon="10.254798"><ele>341.0</ele><time>2026-04-10T15:12:12.042Z</time></trkpt><trkpt lat="44.6090511" lon="10.2546787"><ele>341.0</ele><time>2026-04-10T15:12:13.041Z</time></trkpt><trkpt lat="44.6090942" lon="10.2545368"><ele>341.0</ele><time>2026-04-10T15:12:14.041Z</time></trkpt><trkpt lat="44.6091442" lon="10.2543821"><ele>341.0</ele><time>2026-04-10T15:12:15.042Z</time></trkpt><trkpt lat="44.6091948" lon="10.2542167"><ele>342.75</ele><time>2026-04-10T15:12:16.042Z</time></trkpt><trkpt lat="44.6092434" lon="10.2540543"><ele>344.5</ele><time>2026-04-10T15:12:17.042Z</time></trkpt><trkpt lat="44.6092944" lon="10.2538939"><ele>346.25</ele><time>2026-04-10T15:12:18.042Z</time></trkpt><trkpt lat="44.6093465" lon="10.2537264"><ele>348.0</ele><time>2026-04-10T15:12:19.042Z</time></trkpt><trkpt lat="44.6093903" lon="10.2536026"><ele>349.4</ele><time>2026-04-10T15:12:20.042Z</time></trkpt><trkpt lat="44.6094355" lon="10.2534999"><ele>350.79999999999995</ele><time>2026-04-10T15:12:21.041Z</time></trkpt><trkpt lat="44.6094944" lon="10.2534135"><ele>352.2</ele><time>2026-04-10T15:12:22.042Z</time></trkpt><trkpt lat="44.6095815" lon="10.2533275"><ele>353.6</ele><time>2026-04-10T15:12:23.042Z</time></trkpt><trkpt lat="44.6096887" lon="10.2532525"><ele>355.0</ele><time>2026-04-10T15:12:24.041Z</time></trkpt><trkpt lat="44.6098029" lon="10.2531765"><ele>357.5</ele><time>2026-04-10T15:12:25.042Z</time></trkpt><trkpt lat="44.6099142" lon="10.2531064"><ele>360.0</ele><time>2026-04-10T15:12:26.042Z</time></trkpt><trkpt lat="44.6100352" lon="10.2530361"><ele>362.5</ele><time>2026-04-10T15:12:27.042Z</time></trkpt><trkpt lat="44.6101527" lon="10.2529644"><ele>365.0</ele><time>2026-04-10T15:12:28.042Z</time></trkpt><trkpt lat="44.6102551" lon="10.2529029"><ele>365.8</ele><time>2026-04-10T15:12:29.042Z</time></trkpt><trkpt lat="44.6103365" lon="10.2528467"><ele>366.6</ele><time>2026-04-10T15:12:30.041Z</time></trkpt><trkpt lat="44.6104137" lon="10.2527798"><ele>367.4</ele><time>2026-04-10T15:12:31.041Z</time></trkpt><trkpt lat="44.6104775" lon="10.2526883"><ele>368.2</ele><time>2026-04-10T15:12:32.042Z</time></trkpt><trkpt lat="44.610524" lon="10.2525682"><ele>369.0</ele><time>2026-04-10T15:12:33.042Z</time></trkpt><trkpt lat="44.6105664" lon="10.2524169"><ele>371.75</ele><time>2026-04-10T15:12:34.041Z</time></trkpt><trkpt lat="44.6106052" lon="10.2522486"><ele>374.5</ele><time>2026-04-10T15:12:35.041Z</time></trkpt><trkpt lat="44.6106361" lon="10.2520735"><ele>377.25</ele><time>2026-04-10T15:12:36.042Z</time></trkpt><trkpt lat="44.6106745" lon="10.2519206"><ele>380.0</ele><time>2026-04-10T15:12:37.042Z</time></trkpt><trkpt lat="44.6107056" lon="10.251773"><ele>380.0</ele><time>2026-04-10T15:12:38.042Z</time></trkpt><trkpt lat="44.6107305" lon="10.2516504"><ele>380.0</ele><time>2026-04-10T15:12:39.042Z</time></trkpt><trkpt lat="44.6107587" lon="10.2515288"><ele>380.0</ele><time>2026-04-10T15:12:40.042Z</time></trkpt><trkpt lat="44.6107801" lon="10.2514015"><ele>380.0</ele><time>2026-04-10T15:12:41.042Z</time></trkpt><trkpt lat="44.6108031" lon="10.2512913"><ele>380.0</ele><time>2026-04-10T15:12:42.041Z</time></trkpt><trkpt lat="44.6108282" lon="10.2511726"><ele>380.0</ele><time>2026-04-10T15:12:43.041Z</time></trkpt><trkpt lat="44.6108517" lon="10.2510432"><ele>381.33333333333337</ele><time>2026-04-10T15:12:44.042Z</time></trkpt><trkpt lat="44.6108656" lon="10.2509104"><ele>382.6666666666667</ele><time>2026-04-10T15:12:45.042Z</time></trkpt><trkpt lat="44.6108771" lon="10.2508105"><ele>384.0</ele><time>2026-04-10T15:12:46.042Z</time></trkpt><trkpt lat="44.6108885" lon="10.2507054"><ele>385.33333333333337</ele><time>2026-04-10T15:12:47.041Z</time></trkpt><trkpt lat="44.6108982" lon="10.250589"><ele>386.6666666666667</ele><time>2026-04-10T15:12:48.041Z</time></trkpt><trkpt lat="44.6109032" lon="10.2504654"><ele>388.0</ele><time>2026-04-10T15:12:49.041Z</time></trkpt><trkpt lat="44.6109092" lon="10.2503296"><ele>388.83333333333337</ele><time>2026-04-10T15:12:50.042Z</time></trkpt><trkpt lat="44.610912" lon="10.2502033"><ele>389.6666666666667</ele><time>2026-04-10T15:12:51.042Z</time></trkpt><trkpt lat="44.6109283" lon="10.2500752"><ele>390.5</ele><time>2026-04-10T15:12:52.042Z</time></trkpt><trkpt lat="44.6109671" lon="10.2499847"><ele>391.33333333333337</ele><time>2026-04-10T15:12:53.042Z</time></trkpt><trkpt lat="44.6109952" lon="10.2498713"><ele>392.1666666666667</ele><time>2026-04-10T15:12:54.042Z</time></trkpt><trkpt lat="44.6110321" lon="10.2497769"><ele>393.0</ele><time>2026-04-10T15:12:55.041Z</time></trkpt><trkpt lat="44.6110795" lon="10.2496936"><ele>393.0</ele><time>2026-04-10T15:12:56.041Z</time></trkpt><trkpt lat="44.6111251" lon="10.24959"><ele>393.0</ele><time>2026-04-10T15:12:57.042Z</time></trkpt><trkpt lat="44.6111701" lon="10.2494877"><ele>393.0</ele><time>2026-04-10T15:12:58.042Z</time></trkpt><trkpt lat="44.6112118" lon="10.2493867"><ele>393.0</ele><time>2026-04-10T15:12:59.041Z</time></trkpt><trkpt lat="44.6112428" lon="10.2492937"><ele>393.0</ele><time>2026-04-10T15:13:00.043Z</time></trkpt><trkpt lat="44.6112793" lon="10.2492076"><ele>393.0</ele><time>2026-04-10T15:13:01.042Z</time></trkpt><trkpt lat="44.6113151" lon="10.2491225"><ele>394.3333333333333</ele><time>2026-04-10T15:13:02.042Z</time></trkpt><trkpt lat="44.6113463" lon="10.2490435"><ele>395.66666666666663</ele><time>2026-04-10T15:13:03.042Z</time></trkpt><trkpt lat="44.6113783" lon="10.2489407"><ele>397.0</ele><time>2026-04-10T15:13:04.041Z</time></trkpt><trkpt lat="44.6114014" lon="10.2488347"><ele>398.3333333333333</ele><time>2026-04-10T15:13:05.041Z</time></trkpt><trkpt lat="44.6114191" lon="10.248741"><ele>399.66666666666663</ele><time>2026-04-10T15:13:06.042Z</time></trkpt><trkpt lat="44.6114438" lon="10.2486444"><ele>401.0</ele><time>2026-04-10T15:13:07.042Z</time></trkpt><trkpt lat="44.6114553" lon="10.2485154"><ele>402.0</ele><time>2026-04-10T15:13:08.042Z</time></trkpt><trkpt lat="44.6114696" lon="10.2483604"><ele>403.0</ele><time>2026-04-10T15:13:09.042Z</time></trkpt><trkpt lat="44.6114898" lon="10.2481877"><ele>404.0</ele><time>2026-04-10T15:13:10.042Z</time></trkpt><trkpt lat="44.6115103" lon="10.2480068"><ele>405.0</ele><time>2026-04-10T15:13:11.041Z</time></trkpt><trkpt lat="44.6115366" lon="10.2478374"><ele>405.0</ele><time>2026-04-10T15:13:12.042Z</time></trkpt><trkpt lat="44.6115685" lon="10.24769"><ele>405.0</ele><time>2026-04-10T15:13:13.042Z</time></trkpt><trkpt lat="44.6116174" lon="10.2475558"><ele>405.0</ele><time>2026-04-10T15:13:14.042Z</time></trkpt><trkpt lat="44.6116946" lon="10.2474223"><ele>405.0</ele><time>2026-04-10T15:13:15.042Z</time></trkpt><trkpt lat="44.6117653" lon="10.2472855"><ele>404.75</ele><time>2026-04-10T15:13:16.042Z</time></trkpt><trkpt lat="44.6118259" lon="10.2471311"><ele>404.5</ele><time>2026-04-10T15:13:17.041Z</time></trkpt><trkpt lat="44.6118702" lon="10.2469669"><ele>404.25</ele><time>2026-04-10T15:13:18.042Z</time></trkpt><trkpt lat="44.6119023" lon="10.2467931"><ele>404.0</ele><time>2026-04-10T15:13:19.042Z</time></trkpt><trkpt lat="44.6119211" lon="10.2466132"><ele>405.75</ele><time>2026-04-10T15:13:20.042Z</time></trkpt><trkpt lat="44.6119275" lon="10.2464234"><ele>407.5</ele><time>2026-04-10T15:13:21.042Z</time></trkpt><trkpt lat="44.6119275" lon="10.2462318"><ele>409.25</ele><time>2026-04-10T15:13:22.042Z</time></trkpt><trkpt lat="44.6119174" lon="10.2460408"><ele>411.0</ele><time>2026-04-10T15:13:23.041Z</time></trkpt><trkpt lat="44.6119063" lon="10.2458599"><ele>411.0</ele><time>2026-04-10T15:13:24.042Z</time></trkpt><trkpt lat="44.6118872" lon="10.245675"><ele>411.0</ele><time>2026-04-10T15:13:25.042Z</time></trkpt><trkpt lat="44.611875" lon="10.2454922"><ele>411.0</ele><time>2026-04-10T15:13:26.042Z</time></trkpt><trkpt lat="44.6118753" lon="10.245304"><ele>411.0</ele><time>2026-04-10T15:13:27.042Z</time></trkpt><trkpt lat="44.6118838" lon="10.245119"><ele>413.75</ele><time>2026-04-10T15:13:28.041Z</time></trkpt><trkpt lat="44.6118972" lon="10.2449299"><ele>416.5</ele><time>2026-04-10T15:13:29.042Z</time></trkpt><trkpt lat="44.6119076" lon="10.2447351"><ele>419.25</ele><time>2026-04-10T15:13:30.041Z</time></trkpt><trkpt lat="44.6119058" lon="10.2445458"><ele>422.0</ele><time>2026-04-10T15:13:31.042Z</time></trkpt><trkpt lat="44.611883" lon="10.2443878"><ele>423.40000000000003</ele><time>2026-04-10T15:13:32.042Z</time></trkpt><trkpt lat="44.611848" lon="10.2442641"><ele>424.8</ele><time>2026-04-10T15:13:33.042Z</time></trkpt><trkpt lat="44.6118088" lon="10.2441756"><ele>426.2</ele><time>2026-04-10T15:13:34.041Z</time></trkpt><trkpt lat="44.611759" lon="10.2440429"><ele>427.6</ele><time>2026-04-10T15:13:36.042Z</time></trkpt><trkpt lat="44.6118144" lon="10.243954"><ele>429.0</ele><time>2026-04-10T15:13:38.042Z</time></trkpt><trkpt lat="44.6119366" lon="10.244004"><ele>430.4</ele><time>2026-04-10T15:13:40.042Z</time></trkpt><trkpt lat="44.6120031" lon="10.2440411"><ele>431.79999999999995</ele><time>2026-04-10T15:13:41.041Z</time></trkpt><trkpt lat="44.6120804" lon="10.2441245"><ele>433.20000000000005</ele><time>2026-04-10T15:13:42.042Z</time></trkpt><trkpt lat="44.6121488" lon="10.2441716"><ele>434.6</ele><time>2026-04-10T15:13:43.042Z</time></trkpt><trkpt lat="44.6122679" lon="10.2442152"><ele>436.0</ele><time>2026-04-10T15:13:44.042Z</time></trkpt><trkpt lat="44.6123604" lon="10.2442565"><ele>436.00000000000006</ele><time>2026-04-10T15:13:45.042Z</time></trkpt><trkpt lat="44.6124295" lon="10.2442901"><ele>436.0</ele><time>2026-04-10T15:13:46.043Z</time></trkpt><trkpt lat="44.6125355" lon="10.244361"><ele>436.0</ele><time>2026-04-10T15:13:48.042Z</time></trkpt><trkpt lat="44.6125967" lon="10.244405"><ele>436.0</ele><time>2026-04-10T15:13:49.042Z</time></trkpt><trkpt lat="44.6126696" lon="10.2444407"><ele>436.00000000000006</ele><time>2026-04-10T15:13:50.042Z</time></trkpt><trkpt lat="44.6127518" lon="10.2444575"><ele>436.0</ele><time>2026-04-10T15:13:51.041Z</time></trkpt><trkpt lat="44.6128346" lon="10.244449"><ele>434.8</ele><time>2026-04-10T15:13:52.042Z</time></trkpt><trkpt lat="44.6129177" lon="10.2444157"><ele>433.6</ele><time>2026-04-10T15:13:53.043Z</time></trkpt><trkpt lat="44.6130054" lon="10.2443749"><ele>432.4</ele><time>2026-04-10T15:13:54.042Z</time></trkpt><trkpt lat="44.6130916" lon="10.2443279"><ele>431.2</ele><time>2026-04-10T15:13:55.042Z</time></trkpt><trkpt lat="44.6131736" lon="10.2442828"><ele>430.0</ele><time>2026-04-10T15:13:56.041Z</time></trkpt><trkpt lat="44.6132602" lon="10.2442358"><ele>430.00000000000006</ele><time>2026-04-10T15:13:57.042Z</time></trkpt><trkpt lat="44.6133585" lon="10.2441896"><ele>430.0</ele><time>2026-04-10T15:13:58.042Z</time></trkpt><trkpt lat="44.6134501" lon="10.2441525"><ele>430.0</ele><time>2026-04-10T15:13:59.042Z</time></trkpt><trkpt lat="44.6135379" lon="10.2441316"><ele>430.0</ele><time>2026-04-10T15:14:00.041Z</time></trkpt><trkpt lat="44.6136196" lon="10.2441183"><ele>430.00000000000006</ele><time>2026-04-10T15:14:01.042Z</time></trkpt><trkpt lat="44.6136906" lon="10.2441079"><ele>430.0</ele><time>2026-04-10T15:14:02.042Z</time></trkpt><trkpt lat="44.6137616" lon="10.2440902"><ele>428.6666666666667</ele><time>2026-04-10T15:14:03.042Z</time></trkpt><trkpt lat="44.6138269" lon="10.2440608"><ele>427.33333333333337</ele><time>2026-04-10T15:14:04.042Z</time></trkpt><trkpt lat="44.6138846" lon="10.2440127"><ele>426.0</ele><time>2026-04-10T15:14:05.042Z</time></trkpt><trkpt lat="44.6139479" lon="10.2439403"><ele>424.66666666666663</ele><time>2026-04-10T15:14:06.041Z</time></trkpt><trkpt lat="44.6140116" lon="10.2438597"><ele>423.3333333333333</ele><time>2026-04-10T15:14:07.042Z</time></trkpt><trkpt lat="44.6140795" lon="10.2437763"><ele>422.0</ele><time>2026-04-10T15:14:08.041Z</time></trkpt><trkpt lat="44.6141404" lon="10.2436579"><ele>422.0</ele><time>2026-04-10T15:14:09.041Z</time></trkpt><trkpt lat="44.6142103" lon="10.2436052"><ele>422.0</ele><time>2026-04-10T15:14:10.042Z</time></trkpt><trkpt lat="44.6142903" lon="10.2435959"><ele>422.0</ele><time>2026-04-10T15:14:11.042Z</time></trkpt><trkpt lat="44.614378" lon="10.2435962"><ele>422.0</ele><time>2026-04-10T15:14:12.042Z</time></trkpt><trkpt lat="44.6144988" lon="10.2436222"><ele>422.0</ele><time>2026-04-10T15:14:13.042Z</time></trkpt><trkpt lat="44.6146213" lon="10.243664"><ele>422.0</ele><time>2026-04-10T15:14:14.042Z</time></trkpt><trkpt lat="44.6147473" lon="10.2437315"><ele>422.0</ele><time>2026-04-10T15:14:15.041Z</time></trkpt><trkpt lat="44.6148579" lon="10.2437949"><ele>422.0</ele><time>2026-04-10T15:14:16.042Z</time></trkpt><trkpt lat="44.6149607" lon="10.243847"><ele>422.0</ele><time>2026-04-10T15:14:17.042Z</time></trkpt><trkpt lat="44.6150794" lon="10.2438861"><ele>422.0</ele><time>2026-04-10T15:14:18.042Z</time></trkpt><trkpt lat="44.6152146" lon="10.2439145"><ele>422.0</ele><time>2026-04-10T15:14:19.042Z</time></trkpt><trkpt lat="44.6153494" lon="10.2439521"><ele>422.0</ele><time>2026-04-10T15:14:20.042Z</time></trkpt><trkpt lat="44.6154602" lon="10.243982"><ele>422.0</ele><time>2026-04-10T15:14:21.042Z</time></trkpt><trkpt lat="44.6155588" lon="10.2439994"><ele>422.49999999999994</ele><time>2026-04-10T15:14:22.042Z</time></trkpt><trkpt lat="44.6156384" lon="10.2440053"><ele>423.0</ele><time>2026-04-10T15:14:23.041Z</time></trkpt><trkpt lat="44.6157411" lon="10.2439784"><ele>423.5</ele><time>2026-04-10T15:14:25.041Z</time></trkpt><trkpt lat="44.6157708" lon="10.2438885"><ele>424.0</ele><time>2026-04-10T15:14:27.042Z</time></trkpt><trkpt lat="44.6157518" lon="10.2437505"><ele>424.49999999999994</ele><time>2026-04-10T15:14:29.042Z</time></trkpt><trkpt lat="44.6157329" lon="10.2436597"><ele>425.0</ele><time>2026-04-10T15:14:30.041Z</time></trkpt><trkpt lat="44.615709" lon="10.243542"><ele>425.0</ele><time>2026-04-10T15:14:31.042Z</time></trkpt><trkpt lat="44.6156911" lon="10.2434138"><ele>425.0</ele><time>2026-04-10T15:14:32.041Z</time></trkpt><trkpt lat="44.6156788" lon="10.2432581"><ele>425.0</ele><time>2026-04-10T15:14:33.041Z</time></trkpt><trkpt lat="44.6156697" lon="10.2430782"><ele>425.0</ele><time>2026-04-10T15:14:34.041Z</time></trkpt><trkpt lat="44.6156667" lon="10.2428953"><ele>427.5</ele><time>2026-04-10T15:14:35.04Z</time></trkpt><trkpt lat="44.6156617" lon="10.2427176"><ele>430.0</ele><time>2026-04-10T15:14:36.041Z</time></trkpt><trkpt lat="44.6156496" lon="10.2425611"><ele>432.5</ele><time>2026-04-10T15:14:37.041Z</time></trkpt><trkpt lat="44.6156417" lon="10.2424082"><ele>435.0</ele><time>2026-04-10T15:14:38.04Z</time></trkpt><trkpt lat="44.6156365" lon="10.2422642"><ele>436.4</ele><time>2026-04-10T15:14:39.041Z</time></trkpt><trkpt lat="44.6156305" lon="10.2421258"><ele>437.8</ele><time>2026-04-10T15:14:40.04Z</time></trkpt><trkpt lat="44.6156329" lon="10.2419881"><ele>439.20000000000005</ele><time>2026-04-10T15:14:41.041Z</time></trkpt><trkpt lat="44.6156252" lon="10.2418368"><ele>440.6</ele><time>2026-04-10T15:14:42.042Z</time></trkpt><trkpt lat="44.6156087" lon="10.2416884"><ele>442.0</ele><time>2026-04-10T15:14:43.04Z</time></trkpt><trkpt lat="44.6155854" lon="10.2415505"><ele>444.00000000000006</ele><time>2026-04-10T15:14:44.041Z</time></trkpt><trkpt lat="44.6155545" lon="10.2414219"><ele>446.0</ele><time>2026-04-10T15:14:45.04Z</time></trkpt><trkpt lat="44.6155274" lon="10.2413239"><ele>448.0</ele><time>2026-04-10T15:14:46.041Z</time></trkpt><trkpt lat="44.6154951" lon="10.2412195"><ele>450.0</ele><time>2026-04-10T15:14:47.041Z</time></trkpt><trkpt lat="44.6154672" lon="10.2411164"><ele>452.00000000000006</ele><time>2026-04-10T15:14:48.04Z</time></trkpt><trkpt lat="44.6154394" lon="10.2410251"><ele>454.0</ele><time>2026-04-10T15:14:49.041Z</time></trkpt><trkpt lat="44.6154099" lon="10.2409432"><ele>454.0</ele><time>2026-04-10T15:14:50.042Z</time></trkpt><trkpt lat="44.6153857" lon="10.2408592"><ele>454.00000000000006</ele><time>2026-04-10T15:14:51.04Z</time></trkpt><trkpt lat="44.6153626" lon="10.2407762"><ele>454.0</ele><time>2026-04-10T15:14:52.041Z</time></trkpt><trkpt lat="44.6153376" lon="10.2406873"><ele>454.0</ele><time>2026-04-10T15:14:53.041Z</time></trkpt><trkpt lat="44.6153032" lon="10.2405896"><ele>454.00000000000006</ele><time>2026-04-10T15:14:54.042Z</time></trkpt><trkpt lat="44.615267" lon="10.2405059"><ele>454.0</ele><time>2026-04-10T15:14:55.04Z</time></trkpt><trkpt lat="44.6152348" lon="10.2404228"><ele>454.0</ele><time>2026-04-10T15:14:56.041Z</time></trkpt><trkpt lat="44.6152136" lon="10.2403346"><ele>455.28571428571433</ele><time>2026-04-10T15:14:57.041Z</time></trkpt><trkpt lat="44.6151933" lon="10.2402396"><ele>456.5714285714286</ele><time>2026-04-10T15:14:58.041Z</time></trkpt><trkpt lat="44.6151825" lon="10.240137"><ele>457.8571428571429</ele><time>2026-04-10T15:14:59.041Z</time></trkpt><trkpt lat="44.6151506" lon="10.2400319"><ele>459.1428571428571</ele><time>2026-04-10T15:15:00.04Z</time></trkpt><trkpt lat="44.6151276" lon="10.2399267"><ele>460.4285714285714</ele><time>2026-04-10T15:15:01.041Z</time></trkpt><trkpt lat="44.6151052" lon="10.2398319"><ele>461.71428571428567</ele><time>2026-04-10T15:15:02.041Z</time></trkpt><trkpt lat="44.6150843" lon="10.2397388"><ele>463.0</ele><time>2026-04-10T15:15:03.041Z</time></trkpt><trkpt lat="44.6150825" lon="10.2396407"><ele>464.83333333333337</ele><time>2026-04-10T15:15:04.041Z</time></trkpt><trkpt lat="44.6151066" lon="10.2395058"><ele>466.6666666666667</ele><time>2026-04-10T15:15:05.042Z</time></trkpt><trkpt lat="44.615107" lon="10.2394103"><ele>468.5</ele><time>2026-04-10T15:15:06.041Z</time></trkpt><trkpt lat="44.6151091" lon="10.2393035"><ele>470.33333333333337</ele><time>2026-04-10T15:15:07.041Z</time></trkpt><trkpt lat="44.6151122" lon="10.239178"><ele>472.1666666666667</ele><time>2026-04-10T15:15:08.041Z</time></trkpt><trkpt lat="44.6151046" lon="10.2390816"><ele>474.0</ele><time>2026-04-10T15:15:09.041Z</time></trkpt><trkpt lat="44.6150779" lon="10.2389826"><ele>475.79999999999995</ele><time>2026-04-10T15:15:10.041Z</time></trkpt><trkpt lat="44.6150866" lon="10.238881"><ele>477.59999999999997</ele><time>2026-04-10T15:15:11.041Z</time></trkpt><trkpt lat="44.6150761" lon="10.2387283"><ele>479.4</ele><time>2026-04-10T15:15:12.041Z</time></trkpt><trkpt lat="44.615067" lon="10.2385818"><ele>481.2</ele><time>2026-04-10T15:15:13.041Z</time></trkpt><trkpt lat="44.6150404" lon="10.2384473"><ele>483.0</ele><time>2026-04-10T15:15:14.042Z</time></trkpt><trkpt lat="44.6150283" lon="10.2383342"><ele>483.0</ele><time>2026-04-10T15:15:15.04Z</time></trkpt><trkpt lat="44.6149799" lon="10.2382106"><ele>483.0</ele><time>2026-04-10T15:15:16.041Z</time></trkpt><trkpt lat="44.6149631" lon="10.2381028"><ele>483.0</ele><time>2026-04-10T15:15:17.041Z</time></trkpt><trkpt lat="44.6149495" lon="10.2379891"><ele>483.0</ele><time>2026-04-10T15:15:18.041Z</time></trkpt><trkpt lat="44.6149641" lon="10.2378814"><ele>483.0</ele><time>2026-04-10T15:15:19.041Z</time></trkpt><trkpt lat="44.6149755" lon="10.2377792"><ele>483.0</ele><time>2026-04-10T15:15:20.041Z</time></trkpt><trkpt lat="44.6149647" lon="10.2376768"><ele>484.5</ele><time>2026-04-10T15:15:21.041Z</time></trkpt><trkpt lat="44.6149856" lon="10.2375541"><ele>486.0</ele><time>2026-04-10T15:15:22.041Z</time></trkpt><trkpt lat="44.6150247" lon="10.2374292"><ele>487.5</ele><time>2026-04-10T15:15:23.04Z</time></trkpt><trkpt lat="44.6150553" lon="10.2373017"><ele>489.0</ele><time>2026-04-10T15:15:24.041Z</time></trkpt><trkpt lat="44.615096" lon="10.2372084"><ele>490.5</ele><time>2026-04-10T15:15:25.041Z</time></trkpt><trkpt lat="44.6151259" lon="10.2370969"><ele>492.0</ele><time>2026-04-10T15:15:26.041Z</time></trkpt><trkpt lat="44.615162" lon="10.2369947"><ele>493.5</ele><time>2026-04-10T15:15:27.041Z</time></trkpt><trkpt lat="44.6152071" lon="10.2369055"><ele>495.0</ele><time>2026-04-10T15:15:28.04Z</time></trkpt><trkpt lat="44.6152353" lon="10.2367705"><ele>496.5</ele><time>2026-04-10T15:15:29.04Z</time></trkpt><trkpt lat="44.6152718" lon="10.2366631"><ele>498.0</ele><time>2026-04-10T15:15:30.041Z</time></trkpt><trkpt lat="44.615296" lon="10.2365359"><ele>499.5</ele><time>2026-04-10T15:15:31.04Z</time></trkpt><trkpt lat="44.6152948" lon="10.2364089"><ele>501.0</ele><time>2026-04-10T15:15:32.04Z</time></trkpt><trkpt lat="44.6152713" lon="10.2362852"><ele>502.20000000000005</ele><time>2026-04-10T15:15:33.041Z</time></trkpt><trkpt lat="44.6152361" lon="10.2361614"><ele>503.40000000000003</ele><time>2026-04-10T15:15:34.041Z</time></trkpt><trkpt lat="44.6152071" lon="10.2360339"><ele>504.6</ele><time>2026-04-10T15:15:35.041Z</time></trkpt><trkpt lat="44.6151912" lon="10.2358937"><ele>505.8</ele><time>2026-04-10T15:15:36.04Z</time></trkpt><trkpt lat="44.6151809" lon="10.2357457"><ele>507.0</ele><time>2026-04-10T15:15:37.041Z</time></trkpt><trkpt lat="44.615175" lon="10.2356092"><ele>508.6</ele><time>2026-04-10T15:15:38.041Z</time></trkpt><trkpt lat="44.6151741" lon="10.2354666"><ele>510.20000000000005</ele><time>2026-04-10T15:15:39.042Z</time></trkpt><trkpt lat="44.6151689" lon="10.2353216"><ele>511.8</ele><time>2026-04-10T15:15:40.041Z</time></trkpt><trkpt lat="44.6151745" lon="10.2352022"><ele>513.4</ele><time>2026-04-10T15:15:41.041Z</time></trkpt><trkpt lat="44.6151684" lon="10.2350857"><ele>515.0</ele><time>2026-04-10T15:15:42.041Z</time></trkpt><trkpt lat="44.6151372" lon="10.2349854"><ele>515.0</ele><time>2026-04-10T15:15:43.041Z</time></trkpt><trkpt lat="44.6151094" lon="10.2348707"><ele>515.0</ele><time>2026-04-10T15:15:44.042Z</time></trkpt><trkpt lat="44.6150224" lon="10.2347779"><ele>515.0</ele><time>2026-04-10T15:15:45.041Z</time></trkpt><trkpt lat="44.6149482" lon="10.2346709"><ele>515.0</ele><time>2026-04-10T15:15:46.041Z</time></trkpt><trkpt lat="44.6148695" lon="10.2345824"><ele>515.0</ele><time>2026-04-10T15:15:47.041Z</time></trkpt><trkpt lat="44.6147927" lon="10.2345001"><ele>515.8333333333333</ele><time>2026-04-10T15:15:48.042Z</time></trkpt><trkpt lat="44.6147206" lon="10.2344342"><ele>516.6666666666666</ele><time>2026-04-10T15:15:49.041Z</time></trkpt><trkpt lat="44.614657" lon="10.2343873"><ele>517.5</ele><time>2026-04-10T15:15:50.041Z</time></trkpt><trkpt lat="44.6145986" lon="10.2343506"><ele>518.3333333333334</ele><time>2026-04-10T15:15:51.04Z</time></trkpt><trkpt lat="44.6145401" lon="10.2342992"><ele>519.1666666666667</ele><time>2026-04-10T15:15:52.041Z</time></trkpt><trkpt lat="44.6144678" lon="10.2341636"><ele>520.0</ele><time>2026-04-10T15:15:54.04Z</time></trkpt><trkpt lat="44.6144793" lon="10.2339752"><ele>520.75</ele><time>2026-04-10T15:15:56.04Z</time></trkpt><trkpt lat="44.6145123" lon="10.2338424"><ele>521.5</ele><time>2026-04-10T15:15:57.041Z</time></trkpt><trkpt lat="44.6145751" lon="10.2336751"><ele>522.25</ele><time>2026-04-10T15:15:58.04Z</time></trkpt><trkpt lat="44.6146398" lon="10.233492"><ele>523.0</ele><time>2026-04-10T15:15:59.041Z</time></trkpt><trkpt lat="44.6147097" lon="10.2332898"><ele>523.8</ele><time>2026-04-10T15:16:00.041Z</time></trkpt><trkpt lat="44.6147685" lon="10.2331234"><ele>524.5999999999999</ele><time>2026-04-10T15:16:01.041Z</time></trkpt><trkpt lat="44.6148075" lon="10.2329762"><ele>525.4000000000001</ele><time>2026-04-10T15:16:02.041Z</time></trkpt><trkpt lat="44.6148278" lon="10.2328493"><ele>526.2</ele><time>2026-04-10T15:16:03.04Z</time></trkpt><trkpt lat="44.614836" lon="10.2327442"><ele>527.0</ele><time>2026-04-10T15:16:04.04Z</time></trkpt><trkpt lat="44.6148314" lon="10.2326539"><ele>527.0</ele><time>2026-04-10T15:16:05.041Z</time></trkpt><trkpt lat="44.614829" lon="10.2325103"><ele>527.0</ele><time>2026-04-10T15:16:07.041Z</time></trkpt><trkpt lat="44.6149249" lon="10.232492"><ele>527.0</ele><time>2026-04-10T15:16:10.041Z</time></trkpt><trkpt lat="44.6149826" lon="10.2325457"><ele>527.0</ele><time>2026-04-10T15:16:11.041Z</time></trkpt><trkpt lat="44.6150986" lon="10.232619"><ele>527.0</ele><time>2026-04-10T15:16:13.041Z</time></trkpt><trkpt lat="44.61518" lon="10.2326325"><ele>527.0</ele><time>2026-04-10T15:16:14.041Z</time></trkpt><trkpt lat="44.6152918" lon="10.2326128"><ele>527.0</ele><time>2026-04-10T15:16:16.041Z</time></trkpt><trkpt lat="44.6153646" lon="10.2325257"><ele>527.0</ele><time>2026-04-10T15:16:18.04Z</time></trkpt><trkpt lat="44.6153919" lon="10.2324389"><ele>527.0</ele><time>2026-04-10T15:16:19.041Z</time></trkpt><trkpt lat="44.6154198" lon="10.2323405"><ele>527.0</ele><time>2026-04-10T15:16:20.041Z</time></trkpt><trkpt lat="44.6154522" lon="10.2322316"><ele>527.0</ele><time>2026-04-10T15:16:21.042Z</time></trkpt><trkpt lat="44.6154915" lon="10.2321233"><ele>531.5</ele><time>2026-04-10T15:16:22.041Z</time></trkpt><trkpt lat="44.6155306" lon="10.2320164"><ele>536.0</ele><time>2026-04-10T15:16:23.041Z</time></trkpt><trkpt lat="44.6155791" lon="10.2319139"><ele>540.5</ele><time>2026-04-10T15:16:24.041Z</time></trkpt><trkpt lat="44.6156308" lon="10.2318048"><ele>545.0</ele><time>2026-04-10T15:16:25.041Z</time></trkpt><trkpt lat="44.6156796" lon="10.2316875"><ele>549.5</ele><time>2026-04-10T15:16:26.041Z</time></trkpt><trkpt lat="44.6157191" lon="10.2316029"><ele>554.0</ele><time>2026-04-10T15:16:27.041Z</time></trkpt><trkpt lat="44.615745" lon="10.2315214"><ele>554.0</ele><time>2026-04-10T15:16:28.041Z</time></trkpt><trkpt lat="44.6157483" lon="10.2314057"><ele>554.0</ele><time>2026-04-10T15:16:30.041Z</time></trkpt><trkpt lat="44.6158265" lon="10.2314128"><ele>554.0</ele><time>2026-04-10T15:16:33.041Z</time></trkpt><trkpt lat="44.6159544" lon="10.2315385"><ele>554.0</ele><time>2026-04-10T15:16:35.042Z</time></trkpt><trkpt lat="44.6160284" lon="10.2316213"><ele>554.0</ele><time>2026-04-10T15:16:36.041Z</time></trkpt><trkpt lat="44.6160846" lon="10.2316989"><ele>558.2</ele><time>2026-04-10T15:16:37.041Z</time></trkpt><trkpt lat="44.6161677" lon="10.2317961"><ele>562.4</ele><time>2026-04-10T15:16:38.041Z</time></trkpt><trkpt lat="44.6162284" lon="10.2318612"><ele>566.6</ele><time>2026-04-10T15:16:39.04Z</time></trkpt><trkpt lat="44.6162971" lon="10.2319372"><ele>570.8</ele><time>2026-04-10T15:16:40.041Z</time></trkpt><trkpt lat="44.6163658" lon="10.2320048"><ele>575.0</ele><time>2026-04-10T15:16:41.041Z</time></trkpt><trkpt lat="44.6164492" lon="10.232072"><ele>575.0</ele><time>2026-04-10T15:16:42.041Z</time></trkpt><trkpt lat="44.6165151" lon="10.2321285"><ele>575.0</ele><time>2026-04-10T15:16:43.041Z</time></trkpt><trkpt lat="44.6166204" lon="10.2321453"><ele>575.0</ele><time>2026-04-10T15:16:44.041Z</time></trkpt><trkpt lat="44.6166972" lon="10.2321748"><ele>575.0</ele><time>2026-04-10T15:16:45.041Z</time></trkpt><trkpt lat="44.6168102" lon="10.2321763"><ele>575.0</ele><time>2026-04-10T15:16:46.041Z</time></trkpt><trkpt lat="44.6168956" lon="10.2321717"><ele>577.2</ele><time>2026-04-10T15:16:47.041Z</time></trkpt><trkpt lat="44.6170085" lon="10.2321818"><ele>579.4</ele><time>2026-04-10T15:16:48.041Z</time></trkpt><trkpt lat="44.6171093" lon="10.2321144"><ele>581.6</ele><time>2026-04-10T15:16:49.041Z</time></trkpt><trkpt lat="44.6171916" lon="10.2320573"><ele>583.8</ele><time>2026-04-10T15:16:50.04Z</time></trkpt><trkpt lat="44.6172849" lon="10.2320045"><ele>586.0</ele><time>2026-04-10T15:16:51.041Z</time></trkpt><trkpt lat="44.6173885" lon="10.2319595"><ele>586.0</ele><time>2026-04-10T15:16:52.041Z</time></trkpt><trkpt lat="44.6174836" lon="10.2318972"><ele>586.0</ele><time>2026-04-10T15:16:53.041Z</time></trkpt><trkpt lat="44.6175618" lon="10.2318532"><ele>586.0</ele><time>2026-04-10T15:16:54.041Z</time></trkpt><trkpt lat="44.6176441" lon="10.2318113"><ele>586.0</ele><time>2026-04-10T15:16:55.041Z</time></trkpt><trkpt lat="44.6177628" lon="10.231729"><ele>586.0</ele><time>2026-04-10T15:16:57.041Z</time></trkpt><trkpt lat="44.6178641" lon="10.2316838"><ele>582.2</ele><time>2026-04-10T15:16:59.04Z</time></trkpt><trkpt lat="44.61796" lon="10.231689"><ele>578.4000000000001</ele><time>2026-04-10T15:17:01.04Z</time></trkpt><trkpt lat="44.6180527" lon="10.2317262"><ele>574.6</ele><time>2026-04-10T15:17:03.04Z</time></trkpt><trkpt lat="44.6181636" lon="10.2317937"><ele>570.8000000000001</ele><time>2026-04-10T15:17:05.04Z</time></trkpt><trkpt lat="44.6182531" lon="10.2318612"><ele>567.0</ele><time>2026-04-10T15:17:07.041Z</time></trkpt><trkpt lat="44.6183142" lon="10.2319386"><ele>567.0</ele><time>2026-04-10T15:17:08.041Z</time></trkpt><trkpt lat="44.6183775" lon="10.2319704"><ele>567.0</ele><time>2026-04-10T15:17:10.042Z</time></trkpt><trkpt lat="44.618485" lon="10.2319211"><ele>567.0</ele><time>2026-04-10T15:17:12.041Z</time></trkpt><trkpt lat="44.6185669" lon="10.2317999"><ele>567.0</ele><time>2026-04-10T15:17:14.04Z</time></trkpt><trkpt lat="44.6185776" lon="10.2316475"><ele>567.0</ele><time>2026-04-10T15:17:16.041Z</time></trkpt><trkpt lat="44.6185317" lon="10.2314945"><ele>567.0</ele><time>2026-04-10T15:17:18.04Z</time></trkpt><trkpt lat="44.6184673" lon="10.2314149"><ele>567.0</ele><time>2026-04-10T15:17:19.041Z</time></trkpt><trkpt lat="44.6184148" lon="10.2313"><ele>567.0</ele><time>2026-04-10T15:17:21.04Z</time></trkpt><trkpt lat="44.6183785" lon="10.2312266"><ele>567.0</ele><time>2026-04-10T15:17:22.041Z</time></trkpt><trkpt lat="44.6184552" lon="10.2312015"><ele>567.0</ele><time>2026-04-10T15:17:23.041Z</time></trkpt><trkpt lat="44.6185808" lon="10.2312215"><ele>567.0</ele><time>2026-04-10T15:17:25.041Z</time></trkpt><trkpt lat="44.6186391" lon="10.2312603"><ele>567.0</ele><time>2026-04-10T15:17:26.041Z</time></trkpt><trkpt lat="44.6186966" lon="10.2313009"><ele>567.0</ele><time>2026-04-10T15:17:27.041Z</time></trkpt><trkpt lat="44.6187522" lon="10.2313505"><ele>567.0</ele><time>2026-04-10T15:17:28.04Z</time></trkpt><trkpt lat="44.6188275" lon="10.2313544"><ele>567.0</ele><time>2026-04-10T15:17:29.041Z</time></trkpt><trkpt lat="44.6189099" lon="10.2313096"><ele>567.0</ele><time>2026-04-10T15:17:31.041Z</time></trkpt><trkpt lat="44.6189714" lon="10.2312682"><ele>567.0</ele><time>2026-04-10T15:17:32.041Z</time></trkpt><trkpt lat="44.6190383" lon="10.2311763"><ele>562.2</ele><time>2026-04-10T15:17:33.04Z</time></trkpt><trkpt lat="44.6191081" lon="10.2310585"><ele>557.4000000000001</ele><time>2026-04-10T15:17:34.04Z</time></trkpt><trkpt lat="44.6191711" lon="10.2309693"><ele>552.5999999999999</ele><time>2026-04-10T15:17:35.04Z</time></trkpt><trkpt lat="44.6192289" lon="10.2308849"><ele>547.8</ele><time>2026-04-10T15:17:36.04Z</time></trkpt><trkpt lat="44.6192968" lon="10.2307927"><ele>543.0</ele><time>2026-04-10T15:17:37.04Z</time></trkpt><trkpt lat="44.6193407" lon="10.2306496"><ele>543.3333333333334</ele><time>2026-04-10T15:17:38.04Z</time></trkpt><trkpt lat="44.6193401" lon="10.2305223"><ele>543.6666666666666</ele><time>2026-04-10T15:17:39.04Z</time></trkpt><trkpt lat="44.6193686" lon="10.2304301"><ele>544.0</ele><time>2026-04-10T15:17:40.04Z</time></trkpt><trkpt lat="44.6194222" lon="10.2303524"><ele>544.3333333333333</ele><time>2026-04-10T15:17:41.04Z</time></trkpt><trkpt lat="44.6194577" lon="10.2302667"><ele>544.6666666666666</ele><time>2026-04-10T15:17:42.041Z</time></trkpt><trkpt lat="44.6195317" lon="10.2301511"><ele>545.0</ele><time>2026-04-10T15:17:43.041Z</time></trkpt><trkpt lat="44.6195814" lon="10.2300528"><ele>545.2</ele><time>2026-04-10T15:17:44.042Z</time></trkpt><trkpt lat="44.6196347" lon="10.2299827"><ele>545.4</ele><time>2026-04-10T15:17:45.041Z</time></trkpt><trkpt lat="44.6197363" lon="10.2299233"><ele>545.6</ele><time>2026-04-10T15:17:47.041Z</time></trkpt><trkpt lat="44.6198049" lon="10.2299495"><ele>545.8</ele><time>2026-04-10T15:17:49.042Z</time></trkpt><trkpt lat="44.6198749" lon="10.2300193"><ele>546.0</ele><time>2026-04-10T15:17:51.041Z</time></trkpt><trkpt lat="44.6199231" lon="10.230162"><ele>546.0</ele><time>2026-04-10T15:17:53.041Z</time></trkpt><trkpt lat="44.619974" lon="10.2302358"><ele>546.0</ele><time>2026-04-10T15:17:54.041Z</time></trkpt><trkpt lat="44.6200185" lon="10.2303068"><ele>546.0</ele><time>2026-04-10T15:17:55.041Z</time></trkpt><trkpt lat="44.6200618" lon="10.2304194"><ele>546.0</ele><time>2026-04-10T15:17:56.041Z</time></trkpt><trkpt lat="44.6200931" lon="10.2305295"><ele>546.0</ele><time>2026-04-10T15:17:57.041Z</time></trkpt><trkpt lat="44.6201005" lon="10.230641"><ele>546.0</ele><time>2026-04-10T15:17:58.041Z</time></trkpt><trkpt lat="44.6201052" lon="10.2307478"><ele>545.3333333333334</ele><time>2026-04-10T15:17:59.041Z</time></trkpt><trkpt lat="44.6201288" lon="10.2308403"><ele>544.6666666666666</ele><time>2026-04-10T15:18:00.041Z</time></trkpt><trkpt lat="44.6201705" lon="10.2309593"><ele>544.0</ele><time>2026-04-10T15:18:01.041Z</time></trkpt><trkpt lat="44.6202009" lon="10.2310812"><ele>543.3333333333333</ele><time>2026-04-10T15:18:02.041Z</time></trkpt><trkpt lat="44.6202309" lon="10.2311906"><ele>542.6666666666666</ele><time>2026-04-10T15:18:03.041Z</time></trkpt><trkpt lat="44.6203061" lon="10.2312617"><ele>542.0</ele><time>2026-04-10T15:18:04.041Z</time></trkpt><trkpt lat="44.6203585" lon="10.231371"><ele>544.2</ele><time>2026-04-10T15:18:05.041Z</time></trkpt><trkpt lat="44.6204333" lon="10.2314274"><ele>546.4000000000001</ele><time>2026-04-10T15:18:06.041Z</time></trkpt><trkpt lat="44.6205168" lon="10.2315162"><ele>548.5999999999999</ele><time>2026-04-10T15:18:07.041Z</time></trkpt><trkpt lat="44.6206105" lon="10.2315957"><ele>550.8</ele><time>2026-04-10T15:18:08.041Z</time></trkpt><trkpt lat="44.6206943" lon="10.2316727"><ele>553.0</ele><time>2026-04-10T15:18:09.041Z</time></trkpt><trkpt lat="44.6207874" lon="10.2317534"><ele>553.0</ele><time>2026-04-10T15:18:10.041Z</time></trkpt><trkpt lat="44.6208687" lon="10.2318312"><ele>553.0</ele><time>2026-04-10T15:18:11.041Z</time></trkpt><trkpt lat="44.620962" lon="10.2319009"><ele>553.0</ele><time>2026-04-10T15:18:12.041Z</time></trkpt><trkpt lat="44.6210486" lon="10.2319696"><ele>553.0</ele><time>2026-04-10T15:18:13.041Z</time></trkpt><trkpt lat="44.6211277" lon="10.2320106"><ele>553.0</ele><time>2026-04-10T15:18:14.04Z</time></trkpt><trkpt lat="44.6212152" lon="10.2320493"><ele>552.8</ele><time>2026-04-10T15:18:15.041Z</time></trkpt><trkpt lat="44.6213051" lon="10.2320734"><ele>552.5999999999999</ele><time>2026-04-10T15:18:16.04Z</time></trkpt><trkpt lat="44.6214127" lon="10.2321058"><ele>552.4000000000001</ele><time>2026-04-10T15:18:17.041Z</time></trkpt><trkpt lat="44.6215119" lon="10.2321409"><ele>552.2</ele><time>2026-04-10T15:18:18.04Z</time></trkpt><trkpt lat="44.6216115" lon="10.2322459"><ele>552.0</ele><time>2026-04-10T15:18:19.041Z</time></trkpt><trkpt lat="44.6217082" lon="10.2323194"><ele>552.0</ele><time>2026-04-10T15:18:20.041Z</time></trkpt><trkpt lat="44.6218217" lon="10.2323725"><ele>552.0</ele><time>2026-04-10T15:18:21.04Z</time></trkpt><trkpt lat="44.6219323" lon="10.2324335"><ele>552.0</ele><time>2026-04-10T15:18:22.04Z</time></trkpt><trkpt lat="44.622033" lon="10.2325036"><ele>552.0</ele><time>2026-04-10T15:18:23.04Z</time></trkpt><trkpt lat="44.6221283" lon="10.2325801"><ele>553.1666666666666</ele><time>2026-04-10T15:18:24.041Z</time></trkpt><trkpt lat="44.6222101" lon="10.2326522"><ele>554.3333333333334</ele><time>2026-04-10T15:18:25.041Z</time></trkpt><trkpt lat="44.6222893" lon="10.232723"><ele>555.5</ele><time>2026-04-10T15:18:26.04Z</time></trkpt><trkpt lat="44.62237" lon="10.2327772"><ele>556.6666666666667</ele><time>2026-04-10T15:18:27.04Z</time></trkpt><trkpt lat="44.6224538" lon="10.2327991"><ele>557.8333333333334</ele><time>2026-04-10T15:18:28.04Z</time></trkpt><trkpt lat="44.622536" lon="10.2328118"><ele>559.0</ele><time>2026-04-10T15:18:29.041Z</time></trkpt><trkpt lat="44.6226158" lon="10.2328159"><ele>559.0</ele><time>2026-04-10T15:18:30.041Z</time></trkpt><trkpt lat="44.6227085" lon="10.232814"><ele>559.0</ele><time>2026-04-10T15:18:31.041Z</time></trkpt><trkpt lat="44.6227993" lon="10.2328123"><ele>559.0</ele><time>2026-04-10T15:18:32.041Z</time></trkpt><trkpt lat="44.6229028" lon="10.2328091"><ele>559.0</ele><time>2026-04-10T15:18:33.04Z</time></trkpt><trkpt lat="44.6229916" lon="10.2328192"><ele>559.0</ele><time>2026-04-10T15:18:34.041Z</time></trkpt><trkpt lat="44.6230778" lon="10.2328403"><ele>560.5</ele><time>2026-04-10T15:18:35.041Z</time></trkpt><trkpt lat="44.6231495" lon="10.2328472"><ele>562.0</ele><time>2026-04-10T15:18:36.041Z</time></trkpt><trkpt lat="44.6232314" lon="10.2328442"><ele>563.5</ele><time>2026-04-10T15:18:37.041Z</time></trkpt><trkpt lat="44.6233032" lon="10.2328294"><ele>565.0</ele><time>2026-04-10T15:18:38.041Z</time></trkpt><trkpt lat="44.6233952" lon="10.2328119"><ele>566.5</ele><time>2026-04-10T15:18:39.041Z</time></trkpt><trkpt lat="44.6234923" lon="10.2327889"><ele>568.0</ele><time>2026-04-10T15:18:40.04Z</time></trkpt><trkpt lat="44.6235795" lon="10.2327578"><ele>568.0</ele><time>2026-04-10T15:18:41.04Z</time></trkpt><trkpt lat="44.623644" lon="10.2327231"><ele>568.0</ele><time>2026-04-10T15:18:42.04Z</time></trkpt><trkpt lat="44.6237065" lon="10.2326851"><ele>568.0</ele><time>2026-04-10T15:18:43.04Z</time></trkpt><trkpt lat="44.623819" lon="10.2326702"><ele>568.0</ele><time>2026-04-10T15:18:45.042Z</time></trkpt><trkpt lat="44.6239078" lon="10.2327272"><ele>568.0</ele><time>2026-04-10T15:18:46.041Z</time></trkpt><trkpt lat="44.623971" lon="10.2327531"><ele>568.0</ele><time>2026-04-10T15:18:47.041Z</time></trkpt><trkpt lat="44.6240391" lon="10.2328007"><ele>568.5</ele><time>2026-04-10T15:18:48.041Z</time></trkpt><trkpt lat="44.6241165" lon="10.2328616"><ele>569.0</ele><time>2026-04-10T15:18:49.041Z</time></trkpt><trkpt lat="44.6241711" lon="10.232926"><ele>569.5</ele><time>2026-04-10T15:18:50.04Z</time></trkpt><trkpt lat="44.6242461" lon="10.2329914"><ele>570.0</ele><time>2026-04-10T15:18:51.04Z</time></trkpt><trkpt lat="44.6243114" lon="10.2330479"><ele>570.5</ele><time>2026-04-10T15:18:52.041Z</time></trkpt><trkpt lat="44.6244111" lon="10.2331066"><ele>571.0</ele><time>2026-04-10T15:18:53.041Z</time></trkpt><trkpt lat="44.6245333" lon="10.233176"><ele>571.0</ele><time>2026-04-10T15:18:54.041Z</time></trkpt><trkpt lat="44.6246389" lon="10.2332426"><ele>571.0</ele><time>2026-04-10T15:18:55.041Z</time></trkpt><trkpt lat="44.6247388" lon="10.233325"><ele>571.0</ele><time>2026-04-10T15:18:56.041Z</time></trkpt><trkpt lat="44.624843" lon="10.2334059"><ele>571.0</ele><time>2026-04-10T15:18:57.041Z</time></trkpt><trkpt lat="44.6249203" lon="10.2334734"><ele>571.0</ele><time>2026-04-10T15:18:58.041Z</time></trkpt><trkpt lat="44.6250028" lon="10.2335444"><ele>571.0</ele><time>2026-04-10T15:18:59.041Z</time></trkpt><trkpt lat="44.6250781" lon="10.2336293"><ele>571.0</ele><time>2026-04-10T15:19:00.041Z</time></trkpt><trkpt lat="44.6251534" lon="10.2337002"><ele>571.0</ele><time>2026-04-10T15:19:01.041Z</time></trkpt><trkpt lat="44.6252399" lon="10.2338566"><ele>571.0</ele><time>2026-04-10T15:19:03.041Z</time></trkpt><trkpt lat="44.6252975" lon="10.2339205"><ele>571.0</ele><time>2026-04-10T15:19:04.041Z</time></trkpt><trkpt lat="44.6253567" lon="10.2339916"><ele>569.8</ele><time>2026-04-10T15:19:05.041Z</time></trkpt><trkpt lat="44.6254224" lon="10.2340373"><ele>568.6</ele><time>2026-04-10T15:19:06.042Z</time></trkpt><trkpt lat="44.6255529" lon="10.2340607"><ele>567.4</ele><time>2026-04-10T15:19:07.041Z</time></trkpt><trkpt lat="44.6256368" lon="10.2340928"><ele>566.2</ele><time>2026-04-10T15:19:08.042Z</time></trkpt><trkpt lat="44.6257552" lon="10.2341178"><ele>565.0</ele><time>2026-04-10T15:19:09.041Z</time></trkpt><trkpt lat="44.6258617" lon="10.23413"><ele>565.0</ele><time>2026-04-10T15:19:10.041Z</time></trkpt><trkpt lat="44.6259493" lon="10.2341747"><ele>565.0</ele><time>2026-04-10T15:19:11.041Z</time></trkpt><trkpt lat="44.6260393" lon="10.2342059"><ele>565.0</ele><time>2026-04-10T15:19:12.041Z</time></trkpt><trkpt lat="44.62612" lon="10.2342408"><ele>565.0</ele><time>2026-04-10T15:19:13.041Z</time></trkpt><trkpt lat="44.6262103" lon="10.2342674"><ele>565.0</ele><time>2026-04-10T15:19:14.041Z</time></trkpt><trkpt lat="44.6262926" lon="10.2343017"><ele>565.0</ele><time>2026-04-10T15:19:15.041Z</time></trkpt><trkpt lat="44.6263938" lon="10.2342828"><ele>565.0</ele><time>2026-04-10T15:19:16.041Z</time></trkpt><trkpt lat="44.6265247" lon="10.2342928"><ele>565.0</ele><time>2026-04-10T15:19:17.041Z</time></trkpt><trkpt lat="44.6266338" lon="10.2343062"><ele>565.0</ele><time>2026-04-10T15:19:18.041Z</time></trkpt><trkpt lat="44.6267389" lon="10.2343304"><ele>565.0</ele><time>2026-04-10T15:19:19.041Z</time></trkpt><trkpt lat="44.6268413" lon="10.2343518"><ele>565.0</ele><time>2026-04-10T15:19:20.041Z</time></trkpt><trkpt lat="44.6269499" lon="10.2343735"><ele>565.0</ele><time>2026-04-10T15:19:21.041Z</time></trkpt><trkpt lat="44.6270426" lon="10.2343749"><ele>565.0</ele><time>2026-04-10T15:19:22.041Z</time></trkpt><trkpt lat="44.6271274" lon="10.2342886"><ele>565.0</ele><time>2026-04-10T15:19:23.041Z</time></trkpt><trkpt lat="44.6272187" lon="10.234241"><ele>565.0</ele><time>2026-04-10T15:19:24.041Z</time></trkpt><trkpt lat="44.6273129" lon="10.2341851"><ele>565.0</ele><time>2026-04-10T15:19:25.041Z</time></trkpt><trkpt lat="44.6274029" lon="10.2341139"><ele>565.0</ele><time>2026-04-10T15:19:26.041Z</time></trkpt><trkpt lat="44.6274911" lon="10.2340175"><ele>565.0</ele><time>2026-04-10T15:19:27.041Z</time></trkpt><trkpt lat="44.6275723" lon="10.2339669"><ele>565.0</ele><time>2026-04-10T15:19:28.041Z</time></trkpt><trkpt lat="44.62769" lon="10.2339624"><ele>565.0</ele><time>2026-04-10T15:19:29.04Z</time></trkpt><trkpt lat="44.6278024" lon="10.2339385"><ele>565.25</ele><time>2026-04-10T15:19:30.04Z</time></trkpt><trkpt lat="44.627932" lon="10.2339054"><ele>565.5</ele><time>2026-04-10T15:19:31.04Z</time></trkpt><trkpt lat="44.6280551" lon="10.2338839"><ele>565.75</ele><time>2026-04-10T15:19:32.04Z</time></trkpt><trkpt lat="44.6281436" lon="10.2338776"><ele>566.0</ele><time>2026-04-10T15:19:33.041Z</time></trkpt><trkpt lat="44.6282512" lon="10.2338003"><ele>566.0</ele><time>2026-04-10T15:19:35.041Z</time></trkpt><trkpt lat="44.6282978" lon="10.2337164"><ele>566.0</ele><time>2026-04-10T15:19:36.041Z</time></trkpt><trkpt lat="44.6283771" lon="10.2336335"><ele>566.0</ele><time>2026-04-10T15:19:37.041Z</time></trkpt><trkpt lat="44.6284568" lon="10.2335331"><ele>566.0</ele><time>2026-04-10T15:19:38.041Z</time></trkpt><trkpt lat="44.6285238" lon="10.2334546"><ele>566.0</ele><time>2026-04-10T15:19:39.041Z</time></trkpt><trkpt lat="44.6285756" lon="10.233377"><ele>566.0</ele><time>2026-04-10T15:19:40.041Z</time></trkpt><trkpt lat="44.6286272" lon="10.2333209"><ele>562.2</ele><time>2026-04-10T15:19:41.041Z</time></trkpt><trkpt lat="44.6287102" lon="10.233218"><ele>558.4000000000001</ele><time>2026-04-10T15:19:43.041Z</time></trkpt><trkpt lat="44.6288024" lon="10.2331203"><ele>554.6</ele><time>2026-04-10T15:19:45.041Z</time></trkpt><trkpt lat="44.628893" lon="10.2330495"><ele>550.8000000000001</ele><time>2026-04-10T15:19:47.041Z</time></trkpt><trkpt lat="44.6289765" lon="10.2329618"><ele>547.0</ele><time>2026-04-10T15:19:49.041Z</time></trkpt><trkpt lat="44.6290308" lon="10.2329033"><ele>547.0</ele><time>2026-04-10T15:19:50.042Z</time></trkpt><trkpt lat="44.6291402" lon="10.2327907"><ele>547.0</ele><time>2026-04-10T15:19:52.041Z</time></trkpt><trkpt lat="44.6291959" lon="10.2327417"><ele>547.0</ele><time>2026-04-10T15:19:53.041Z</time></trkpt><trkpt lat="44.6292432" lon="10.2326435"><ele>547.0</ele><time>2026-04-10T15:19:54.041Z</time></trkpt><trkpt lat="44.629297" lon="10.2325714"><ele>547.0</ele><time>2026-04-10T15:19:55.041Z</time></trkpt><trkpt lat="44.6293617" lon="10.2324761"><ele>547.0</ele><time>2026-04-10T15:19:56.041Z</time></trkpt><trkpt lat="44.6294274" lon="10.2323649"><ele>547.0</ele><time>2026-04-10T15:19:57.041Z</time></trkpt><trkpt lat="44.6294978" lon="10.2322567"><ele>547.0</ele><time>2026-04-10T15:19:58.041Z</time></trkpt><trkpt lat="44.6295666" lon="10.2321581"><ele>547.0</ele><time>2026-04-10T15:19:59.04Z</time></trkpt><trkpt lat="44.6296017" lon="10.2320549"><ele>547.0</ele><time>2026-04-10T15:20:00.041Z</time></trkpt><trkpt lat="44.6296612" lon="10.2319537"><ele>543.0</ele><time>2026-04-10T15:20:01.041Z</time></trkpt><trkpt lat="44.6297175" lon="10.2318552"><ele>539.0</ele><time>2026-04-10T15:20:02.041Z</time></trkpt><trkpt lat="44.6297694" lon="10.2317733"><ele>535.0</ele><time>2026-04-10T15:20:03.041Z</time></trkpt><trkpt lat="44.6298199" lon="10.2316876"><ele>531.0</ele><time>2026-04-10T15:20:04.041Z</time></trkpt><trkpt lat="44.6298821" lon="10.2315758"><ele>527.0</ele><time>2026-04-10T15:20:06.04Z</time></trkpt><trkpt lat="44.6298941" lon="10.2314756"><ele>523.0</ele><time>2026-04-10T15:20:08.041Z</time></trkpt><trkpt lat="44.6298389" lon="10.2314063"><ele>522.6</ele><time>2026-04-10T15:20:10.041Z</time></trkpt><trkpt lat="44.6297718" lon="10.231347"><ele>522.1999999999999</ele><time>2026-04-10T15:20:11.041Z</time></trkpt><trkpt lat="44.6296916" lon="10.2312679"><ele>521.8</ele><time>2026-04-10T15:20:12.041Z</time></trkpt><trkpt lat="44.6295945" lon="10.2311843"><ele>521.4</ele><time>2026-04-10T15:20:13.041Z</time></trkpt><trkpt lat="44.6294913" lon="10.2311032"><ele>521.0</ele><time>2026-04-10T15:20:14.041Z</time></trkpt><trkpt lat="44.6293938" lon="10.2310014"><ele>521.0</ele><time>2026-04-10T15:20:15.041Z</time></trkpt><trkpt lat="44.6293146" lon="10.2308961"><ele>521.0</ele><time>2026-04-10T15:20:16.041Z</time></trkpt><trkpt lat="44.6292493" lon="10.2307995"><ele>521.0</ele><time>2026-04-10T15:20:17.041Z</time></trkpt><trkpt lat="44.6291745" lon="10.2306983"><ele>521.0</ele><time>2026-04-10T15:20:18.041Z</time></trkpt><trkpt lat="44.6290873" lon="10.2305786"><ele>521.0</ele><time>2026-04-10T15:20:19.042Z</time></trkpt><trkpt lat="44.6289893" lon="10.2304614"><ele>522.6</ele><time>2026-04-10T15:20:20.041Z</time></trkpt><trkpt lat="44.6288996" lon="10.2303624"><ele>524.2</ele><time>2026-04-10T15:20:21.041Z</time></trkpt><trkpt lat="44.6288149" lon="10.230265"><ele>525.8</ele><time>2026-04-10T15:20:22.041Z</time></trkpt><trkpt lat="44.6287456" lon="10.2301547"><ele>527.4</ele><time>2026-04-10T15:20:23.041Z</time></trkpt><trkpt lat="44.6286882" lon="10.2300212"><ele>529.0</ele><time>2026-04-10T15:20:24.041Z</time></trkpt><trkpt lat="44.6286379" lon="10.2298851"><ele>527.25</ele><time>2026-04-10T15:20:25.041Z</time></trkpt><trkpt lat="44.6285924" lon="10.2297273"><ele>525.5</ele><time>2026-04-10T15:20:26.041Z</time></trkpt><trkpt lat="44.6285428" lon="10.2295654"><ele>523.75</ele><time>2026-04-10T15:20:27.04Z</time></trkpt><trkpt lat="44.6285128" lon="10.229391"><ele>522.0</ele><time>2026-04-10T15:20:28.04Z</time></trkpt><trkpt lat="44.6284941" lon="10.2292445"><ele>522.0</ele><time>2026-04-10T15:20:29.04Z</time></trkpt><trkpt lat="44.6284645" lon="10.2291132"><ele>522.0</ele><time>2026-04-10T15:20:30.041Z</time></trkpt><trkpt lat="44.6284274" lon="10.229006"><ele>522.0</ele><time>2026-04-10T15:20:31.041Z</time></trkpt><trkpt lat="44.628381" lon="10.2289103"><ele>522.0</ele><time>2026-04-10T15:20:32.041Z</time></trkpt><trkpt lat="44.6283287" lon="10.2287877"><ele>522.0</ele><time>2026-04-10T15:20:33.041Z</time></trkpt><trkpt lat="44.6282897" lon="10.2286751"><ele>522.3333333333334</ele><time>2026-04-10T15:20:34.04Z</time></trkpt><trkpt lat="44.6282564" lon="10.2285805"><ele>522.6666666666666</ele><time>2026-04-10T15:20:35.04Z</time></trkpt><trkpt lat="44.6282626" lon="10.2284735"><ele>523.0</ele><time>2026-04-10T15:20:36.04Z</time></trkpt><trkpt lat="44.6282739" lon="10.2283642"><ele>523.3333333333333</ele><time>2026-04-10T15:20:37.041Z</time></trkpt><trkpt lat="44.6282824" lon="10.22826"><ele>523.6666666666666</ele><time>2026-04-10T15:20:38.04Z</time></trkpt><trkpt lat="44.6283246" lon="10.2281864"><ele>524.0</ele><time>2026-04-10T15:20:39.041Z</time></trkpt><trkpt lat="44.6284488" lon="10.22811"><ele>523.0</ele><time>2026-04-10T15:20:41.041Z</time></trkpt><trkpt lat="44.6285178" lon="10.2281091"><ele>522.0</ele><time>2026-04-10T15:20:42.041Z</time></trkpt><trkpt lat="44.6285955" lon="10.2280959"><ele>521.0</ele><time>2026-04-10T15:20:43.04Z</time></trkpt><trkpt lat="44.6286662" lon="10.2280819"><ele>520.0</ele><time>2026-04-10T15:20:44.04Z</time></trkpt><trkpt lat="44.6287355" lon="10.2280602"><ele>519.0</ele><time>2026-04-10T15:20:45.04Z</time></trkpt><trkpt lat="44.6288049" lon="10.2280224"><ele>518.0</ele><time>2026-04-10T15:20:46.04Z</time></trkpt><trkpt lat="44.6288682" lon="10.2279501"><ele>517.0</ele><time>2026-04-10T15:20:47.041Z</time></trkpt><trkpt lat="44.6289329" lon="10.2278504"><ele>514.2</ele><time>2026-04-10T15:20:48.041Z</time></trkpt><trkpt lat="44.6289975" lon="10.2277712"><ele>511.40000000000003</ele><time>2026-04-10T15:20:49.04Z</time></trkpt><trkpt lat="44.629059" lon="10.2277035"><ele>508.59999999999997</ele><time>2026-04-10T15:20:50.04Z</time></trkpt><trkpt lat="44.6291474" lon="10.2276506"><ele>505.79999999999995</ele><time>2026-04-10T15:20:51.042Z</time></trkpt><trkpt lat="44.6292422" lon="10.2275865"><ele>503.0</ele><time>2026-04-10T15:20:52.041Z</time></trkpt><trkpt lat="44.6293381" lon="10.2275326"><ele>503.0</ele><time>2026-04-10T15:20:53.041Z</time></trkpt><trkpt lat="44.6294565" lon="10.2274745"><ele>503.0</ele><time>2026-04-10T15:20:54.041Z</time></trkpt><trkpt lat="44.6295677" lon="10.2274188"><ele>503.0</ele><time>2026-04-10T15:20:55.04Z</time></trkpt><trkpt lat="44.6296904" lon="10.2273635"><ele>503.0</ele><time>2026-04-10T15:20:56.04Z</time></trkpt><trkpt lat="44.6298057" lon="10.2273055"><ele>499.5</ele><time>2026-04-10T15:20:57.041Z</time></trkpt><trkpt lat="44.6299238" lon="10.2272442"><ele>496.0</ele><time>2026-04-10T15:20:58.041Z</time></trkpt><trkpt lat="44.6300343" lon="10.2271898"><ele>492.5</ele><time>2026-04-10T15:20:59.041Z</time></trkpt><trkpt lat="44.6301479" lon="10.2271245"><ele>489.0</ele><time>2026-04-10T15:21:00.041Z</time></trkpt><trkpt lat="44.6302601" lon="10.2270657"><ele>488.75</ele><time>2026-04-10T15:21:01.041Z</time></trkpt><trkpt lat="44.630379" lon="10.2270049"><ele>488.5</ele><time>2026-04-10T15:21:02.041Z</time></trkpt><trkpt lat="44.6304886" lon="10.2269375"><ele>488.25</ele><time>2026-04-10T15:21:03.041Z</time></trkpt><trkpt lat="44.6306046" lon="10.2268551"><ele>488.0</ele><time>2026-04-10T15:21:04.041Z</time></trkpt><trkpt lat="44.6307314" lon="10.2267743"><ele>488.0</ele><time>2026-04-10T15:21:05.041Z</time></trkpt><trkpt lat="44.6308506" lon="10.2267031"><ele>488.0</ele><time>2026-04-10T15:21:06.041Z</time></trkpt><trkpt lat="44.6309748" lon="10.2266572"><ele>488.0</ele><time>2026-04-10T15:21:07.041Z</time></trkpt><trkpt lat="44.6311096" lon="10.2266215"><ele>488.0</ele><time>2026-04-10T15:21:08.04Z</time></trkpt><trkpt lat="44.6312432" lon="10.2265862"><ele>487.4</ele><time>2026-04-10T15:21:09.041Z</time></trkpt><trkpt lat="44.6313655" lon="10.2265545"><ele>486.79999999999995</ele><time>2026-04-10T15:21:10.041Z</time></trkpt><trkpt lat="44.631478" lon="10.2265261"><ele>486.2</ele><time>2026-04-10T15:21:11.041Z</time></trkpt><trkpt lat="44.6315796" lon="10.2265193"><ele>485.6</ele><time>2026-04-10T15:21:12.041Z</time></trkpt><trkpt lat="44.6316838" lon="10.2265307"><ele>485.0</ele><time>2026-04-10T15:21:13.041Z</time></trkpt><trkpt lat="44.6318152" lon="10.2265597"><ele>485.0</ele><time>2026-04-10T15:21:14.042Z</time></trkpt><trkpt lat="44.6319533" lon="10.2266217"><ele>485.0</ele><time>2026-04-10T15:21:15.041Z</time></trkpt><trkpt lat="44.6320863" lon="10.2266703"><ele>485.0</ele><time>2026-04-10T15:21:16.041Z</time></trkpt><trkpt lat="44.6322318" lon="10.2267443"><ele>485.0</ele><time>2026-04-10T15:21:17.041Z</time></trkpt><trkpt lat="44.6323819" lon="10.2267997"><ele>482.0</ele><time>2026-04-10T15:21:18.041Z</time></trkpt><trkpt lat="44.6325298" lon="10.226857"><ele>479.0</ele><time>2026-04-10T15:21:19.041Z</time></trkpt><trkpt lat="44.6326662" lon="10.2269171"><ele>476.0</ele><time>2026-04-10T15:21:20.041Z</time></trkpt><trkpt lat="44.6327927" lon="10.2269632"><ele>473.0</ele><time>2026-04-10T15:21:21.041Z</time></trkpt><trkpt lat="44.6329005" lon="10.2270032"><ele>470.59999999999997</ele><time>2026-04-10T15:21:22.04Z</time></trkpt><trkpt lat="44.6329881" lon="10.2270359"><ele>468.19999999999993</ele><time>2026-04-10T15:21:23.041Z</time></trkpt><trkpt lat="44.6330617" lon="10.2270618"><ele>465.8</ele><time>2026-04-10T15:21:24.042Z</time></trkpt><trkpt lat="44.6331465" lon="10.22705"><ele>463.4</ele><time>2026-04-10T15:21:26.041Z</time></trkpt><trkpt lat="44.6331644" lon="10.2269526"><ele>461.0</ele><time>2026-04-10T15:21:28.041Z</time></trkpt><trkpt lat="44.6330623" lon="10.2267722"><ele>461.0</ele><time>2026-04-10T15:21:30.041Z</time></trkpt><trkpt lat="44.632989" lon="10.2266447"><ele>461.0</ele><time>2026-04-10T15:21:31.041Z</time></trkpt><trkpt lat="44.6329086" lon="10.226504"><ele>461.0</ele><time>2026-04-10T15:21:32.041Z</time></trkpt><trkpt lat="44.6328245" lon="10.2263566"><ele>461.0</ele><time>2026-04-10T15:21:33.04Z</time></trkpt><trkpt lat="44.6327417" lon="10.2262102"><ele>461.75</ele><time>2026-04-10T15:21:34.041Z</time></trkpt><trkpt lat="44.6326566" lon="10.2260577"><ele>462.5</ele><time>2026-04-10T15:21:35.041Z</time></trkpt><trkpt lat="44.6325665" lon="10.225903"><ele>463.25</ele><time>2026-04-10T15:21:36.041Z</time></trkpt><trkpt lat="44.6324779" lon="10.2257464"><ele>464.0</ele><time>2026-04-10T15:21:37.041Z</time></trkpt><trkpt lat="44.6323915" lon="10.2255983"><ele>461.75</ele><time>2026-04-10T15:21:38.041Z</time></trkpt><trkpt lat="44.6323054" lon="10.225467"><ele>459.5</ele><time>2026-04-10T15:21:39.041Z</time></trkpt><trkpt lat="44.6322282" lon="10.2253778"><ele>457.25</ele><time>2026-04-10T15:21:40.041Z</time></trkpt><trkpt lat="44.632119" lon="10.2253119"><ele>455.0</ele><time>2026-04-10T15:21:41.041Z</time></trkpt><trkpt lat="44.6319915" lon="10.2252786"><ele>456.5</ele><time>2026-04-10T15:21:42.041Z</time></trkpt><trkpt lat="44.6318528" lon="10.2252667"><ele>458.0</ele><time>2026-04-10T15:21:43.041Z</time></trkpt><trkpt lat="44.6317156" lon="10.2252343"><ele>459.5</ele><time>2026-04-10T15:21:44.04Z</time></trkpt><trkpt lat="44.6315787" lon="10.2251726"><ele>461.0</ele><time>2026-04-10T15:21:45.04Z</time></trkpt><trkpt lat="44.6314488" lon="10.2250665"><ele>461.0</ele><time>2026-04-10T15:21:46.041Z</time></trkpt><trkpt lat="44.6313251" lon="10.2249265"><ele>461.0</ele><time>2026-04-10T15:21:47.041Z</time></trkpt><trkpt lat="44.6312068" lon="10.2247605"><ele>461.0</ele><time>2026-04-10T15:21:48.042Z</time></trkpt><trkpt lat="44.6310901" lon="10.2245914"><ele>459.3333333333333</ele><time>2026-04-10T15:21:49.041Z</time></trkpt><trkpt lat="44.6309756" lon="10.2244069"><ele>457.66666666666663</ele><time>2026-04-10T15:21:50.041Z</time></trkpt><trkpt lat="44.6308676" lon="10.2242179"><ele>456.0</ele><time>2026-04-10T15:21:51.04Z</time></trkpt><trkpt lat="44.6307616" lon="10.224033"><ele>454.0</ele><time>2026-04-10T15:21:52.041Z</time></trkpt><trkpt lat="44.6306571" lon="10.2238494"><ele>452.0</ele><time>2026-04-10T15:21:53.041Z</time></trkpt><trkpt lat="44.6305498" lon="10.2236667"><ele>450.0</ele><time>2026-04-10T15:21:54.04Z</time></trkpt><trkpt lat="44.6304448" lon="10.2234886"><ele>450.0</ele><time>2026-04-10T15:21:55.041Z</time></trkpt><trkpt lat="44.6303344" lon="10.2233273"><ele>450.0</ele><time>2026-04-10T15:21:56.041Z</time></trkpt><trkpt lat="44.6302147" lon="10.2231856"><ele>450.0</ele><time>2026-04-10T15:21:57.041Z</time></trkpt><trkpt lat="44.6300887" lon="10.2230765"><ele>451.5</ele><time>2026-04-10T15:21:58.041Z</time></trkpt><trkpt lat="44.6299597" lon="10.2230032"><ele>453.0</ele><time>2026-04-10T15:21:59.04Z</time></trkpt><trkpt lat="44.6298372" lon="10.2229553"><ele>454.5</ele><time>2026-04-10T15:22:00.04Z</time></trkpt><trkpt lat="44.6297265" lon="10.2229095"><ele>456.0</ele><time>2026-04-10T15:22:01.04Z</time></trkpt><trkpt lat="44.6296369" lon="10.2228554"><ele>456.0</ele><time>2026-04-10T15:22:02.04Z</time></trkpt><trkpt lat="44.6295641" lon="10.2227789"><ele>456.0</ele><time>2026-04-10T15:22:03.039Z</time></trkpt><trkpt lat="44.6295174" lon="10.2226788"><ele>456.0</ele><time>2026-04-10T15:22:04.04Z</time></trkpt><trkpt lat="44.6295003" lon="10.2225614"><ele>456.0</ele><time>2026-04-10T15:22:05.04Z</time></trkpt><trkpt lat="44.6295041" lon="10.2224487"><ele>456.0</ele><time>2026-04-10T15:22:06.04Z</time></trkpt><trkpt lat="44.6295176" lon="10.2223448"><ele>456.0</ele><time>2026-04-10T15:22:07.04Z</time></trkpt><trkpt lat="44.6295478" lon="10.2222329"><ele>457.5</ele><time>2026-04-10T15:22:08.04Z</time></trkpt><trkpt lat="44.6296051" lon="10.2221082"><ele>459.0</ele><time>2026-04-10T15:22:09.039Z</time></trkpt><trkpt lat="44.6296843" lon="10.2219975"><ele>460.5</ele><time>2026-04-10T15:22:10.04Z</time></trkpt><trkpt lat="44.6297845" lon="10.2218969"><ele>462.0</ele><time>2026-04-10T15:22:11.04Z</time></trkpt><trkpt lat="44.6298823" lon="10.221789"><ele>462.0</ele><time>2026-04-10T15:22:12.039Z</time></trkpt><trkpt lat="44.6299698" lon="10.2216578"><ele>462.0</ele><time>2026-04-10T15:22:13.039Z</time></trkpt><trkpt lat="44.6300465" lon="10.221534"><ele>462.0</ele><time>2026-04-10T15:22:14.039Z</time></trkpt><trkpt lat="44.6301416" lon="10.2214097"><ele>462.0</ele><time>2026-04-10T15:22:15.04Z</time></trkpt><trkpt lat="44.6302417" lon="10.2213376"><ele>462.20000000000005</ele><time>2026-04-10T15:22:16.04Z</time></trkpt><trkpt lat="44.6303348" lon="10.2213043"><ele>462.40000000000003</ele><time>2026-04-10T15:22:17.039Z</time></trkpt><trkpt lat="44.6304401" lon="10.2212684"><ele>462.59999999999997</ele><time>2026-04-10T15:22:18.039Z</time></trkpt><trkpt lat="44.630542" lon="10.2212016"><ele>462.79999999999995</ele><time>2026-04-10T15:22:19.04Z</time></trkpt><trkpt lat="44.6306358" lon="10.2210901"><ele>463.0</ele><time>2026-04-10T15:22:20.039Z</time></trkpt><trkpt lat="44.6307199" lon="10.2209372"><ele>463.0</ele><time>2026-04-10T15:22:21.039Z</time></trkpt><trkpt lat="44.6307947" lon="10.2207676"><ele>463.0</ele><time>2026-04-10T15:22:22.039Z</time></trkpt><trkpt lat="44.6308558" lon="10.2205769"><ele>463.0</ele><time>2026-04-10T15:22:23.041Z</time></trkpt><trkpt lat="44.6308919" lon="10.2203732"><ele>463.0</ele><time>2026-04-10T15:22:24.04Z</time></trkpt><trkpt lat="44.6309124" lon="10.2201783"><ele>465.33333333333337</ele><time>2026-04-10T15:22:25.04Z</time></trkpt><trkpt lat="44.6309105" lon="10.2199593"><ele>467.66666666666663</ele><time>2026-04-10T15:22:26.041Z</time></trkpt><trkpt lat="44.6308569" lon="10.2197302"><ele>470.0</ele><time>2026-04-10T15:22:27.039Z</time></trkpt><trkpt lat="44.6308561" lon="10.2195207"><ele>470.75</ele><time>2026-04-10T15:22:28.04Z</time></trkpt><trkpt lat="44.6308679" lon="10.2193279"><ele>471.5</ele><time>2026-04-10T15:22:29.04Z</time></trkpt><trkpt lat="44.6308956" lon="10.2191405"><ele>472.25</ele><time>2026-04-10T15:22:30.041Z</time></trkpt><trkpt lat="44.6309257" lon="10.218961"><ele>473.0</ele><time>2026-04-10T15:22:31.04Z</time></trkpt><trkpt lat="44.630952" lon="10.2187891"><ele>474.5</ele><time>2026-04-10T15:22:32.041Z</time></trkpt><trkpt lat="44.6309698" lon="10.2186205"><ele>476.0</ele><time>2026-04-10T15:22:33.04Z</time></trkpt><trkpt lat="44.6309768" lon="10.2184411"><ele>477.5</ele><time>2026-04-10T15:22:34.04Z</time></trkpt><trkpt lat="44.6309782" lon="10.218258"><ele>479.0</ele><time>2026-04-10T15:22:35.04Z</time></trkpt><trkpt lat="44.6309531" lon="10.2180672"><ele>479.25</ele><time>2026-04-10T15:22:36.04Z</time></trkpt><trkpt lat="44.6309426" lon="10.217873"><ele>479.5</ele><time>2026-04-10T15:22:37.04Z</time></trkpt><trkpt lat="44.6309935" lon="10.2176962"><ele>479.75</ele><time>2026-04-10T15:22:38.039Z</time></trkpt><trkpt lat="44.6310623" lon="10.2175363"><ele>480.0</ele><time>2026-04-10T15:22:39.04Z</time></trkpt><trkpt lat="44.6311274" lon="10.2173763"><ele>473.75</ele><time>2026-04-10T15:22:40.04Z</time></trkpt><trkpt lat="44.6311768" lon="10.2172119"><ele>467.5</ele><time>2026-04-10T15:22:41.04Z</time></trkpt><trkpt lat="44.6312303" lon="10.2170492"><ele>461.25</ele><time>2026-04-10T15:22:42.04Z</time></trkpt><trkpt lat="44.6312712" lon="10.2168748"><ele>455.0</ele><time>2026-04-10T15:22:43.04Z</time></trkpt><trkpt lat="44.6312842" lon="10.2166895"><ele>454.75</ele><time>2026-04-10T15:22:44.04Z</time></trkpt><trkpt lat="44.6312703" lon="10.216482"><ele>454.5</ele><time>2026-04-10T15:22:45.04Z</time></trkpt><trkpt lat="44.6312379" lon="10.2162777"><ele>454.25</ele><time>2026-04-10T15:22:46.04Z</time></trkpt><trkpt lat="44.6311973" lon="10.2160766"><ele>454.0</ele><time>2026-04-10T15:22:47.04Z</time></trkpt><trkpt lat="44.6311431" lon="10.2158793"><ele>457.5</ele><time>2026-04-10T15:22:48.041Z</time></trkpt><trkpt lat="44.6310923" lon="10.2156865"><ele>461.0</ele><time>2026-04-10T15:22:49.04Z</time></trkpt><trkpt lat="44.6310466" lon="10.2154933"><ele>464.5</ele><time>2026-04-10T15:22:50.039Z</time></trkpt><trkpt lat="44.6310188" lon="10.2152763"><ele>468.0</ele><time>2026-04-10T15:22:51.04Z</time></trkpt><trkpt lat="44.6310199" lon="10.215076"><ele>468.0</ele><time>2026-04-10T15:22:52.04Z</time></trkpt><trkpt lat="44.6310372" lon="10.2148702"><ele>468.0</ele><time>2026-04-10T15:22:53.039Z</time></trkpt><trkpt lat="44.6310844" lon="10.214674"><ele>468.0</ele><time>2026-04-10T15:22:54.04Z</time></trkpt><trkpt lat="44.631156" lon="10.214489"><ele>468.0</ele><time>2026-04-10T15:22:55.041Z</time></trkpt><trkpt lat="44.631236" lon="10.2143087"><ele>468.75</ele><time>2026-04-10T15:22:56.04Z</time></trkpt><trkpt lat="44.6313102" lon="10.2141298"><ele>469.5</ele><time>2026-04-10T15:22:57.04Z</time></trkpt><trkpt lat="44.6313809" lon="10.2139572"><ele>470.25</ele><time>2026-04-10T15:22:58.04Z</time></trkpt><trkpt lat="44.6314511" lon="10.2137951"><ele>471.0</ele><time>2026-04-10T15:22:59.04Z</time></trkpt><trkpt lat="44.6315335" lon="10.2136452"><ele>471.0</ele><time>2026-04-10T15:23:00.04Z</time></trkpt><trkpt lat="44.6316337" lon="10.2135232"><ele>471.0</ele><time>2026-04-10T15:23:01.04Z</time></trkpt><trkpt lat="44.6317545" lon="10.2134241"><ele>471.0</ele><time>2026-04-10T15:23:02.04Z</time></trkpt><trkpt lat="44.6318752" lon="10.2133313"><ele>471.0</ele><time>2026-04-10T15:23:03.04Z</time></trkpt><trkpt lat="44.6319767" lon="10.2132545"><ele>471.3333333333333</ele><time>2026-04-10T15:23:04.04Z</time></trkpt><trkpt lat="44.632063" lon="10.2131836"><ele>471.66666666666663</ele><time>2026-04-10T15:23:05.041Z</time></trkpt><trkpt lat="44.6321262" lon="10.2131222"><ele>472.0</ele><time>2026-04-10T15:23:06.04Z</time></trkpt><trkpt lat="44.6321767" lon="10.2130584"><ele>472.3333333333333</ele><time>2026-04-10T15:23:07.04Z</time></trkpt><trkpt lat="44.6321925" lon="10.2129308"><ele>472.66666666666663</ele><time>2026-04-10T15:23:09.04Z</time></trkpt><trkpt lat="44.6321049" lon="10.2128914"><ele>473.0</ele><time>2026-04-10T15:23:12.039Z</time></trkpt><trkpt lat="44.632037" lon="10.2128821"><ele>474.59999999999997</ele><time>2026-04-10T15:23:13.04Z</time></trkpt><trkpt lat="44.631957" lon="10.2128466"><ele>476.19999999999993</ele><time>2026-04-10T15:23:14.041Z</time></trkpt><trkpt lat="44.6318764" lon="10.2127752"><ele>477.8</ele><time>2026-04-10T15:23:15.04Z</time></trkpt><trkpt lat="44.631787" lon="10.2126763"><ele>479.4</ele><time>2026-04-10T15:23:16.04Z</time></trkpt><trkpt lat="44.631686" lon="10.212567"><ele>481.0</ele><time>2026-04-10T15:23:17.04Z</time></trkpt><trkpt lat="44.6315813" lon="10.2124549"><ele>481.0</ele><time>2026-04-10T15:23:18.039Z</time></trkpt><trkpt lat="44.6314625" lon="10.2123415"><ele>481.0</ele><time>2026-04-10T15:23:19.04Z</time></trkpt><trkpt lat="44.6313461" lon="10.2122231"><ele>481.0</ele><time>2026-04-10T15:23:20.04Z</time></trkpt><trkpt lat="44.6312604" lon="10.2121122"><ele>481.0</ele><time>2026-04-10T15:23:21.04Z</time></trkpt><trkpt lat="44.6311854" lon="10.2119913"><ele>483.4</ele><time>2026-04-10T15:23:22.04Z</time></trkpt><trkpt lat="44.6311121" lon="10.2118991"><ele>485.8</ele><time>2026-04-10T15:23:23.039Z</time></trkpt><trkpt lat="44.6310181" lon="10.2118264"><ele>488.19999999999993</ele><time>2026-04-10T15:23:24.04Z</time></trkpt><trkpt lat="44.6309" lon="10.2117774"><ele>490.59999999999997</ele><time>2026-04-10T15:23:25.041Z</time></trkpt><trkpt lat="44.6307889" lon="10.2117589"><ele>493.0</ele><time>2026-04-10T15:23:26.04Z</time></trkpt><trkpt lat="44.6306891" lon="10.2117429"><ele>493.0</ele><time>2026-04-10T15:23:27.039Z</time></trkpt><trkpt lat="44.6306002" lon="10.211694"><ele>492.99999999999994</ele><time>2026-04-10T15:23:28.04Z</time></trkpt><trkpt lat="44.6305169" lon="10.2115941"><ele>492.99999999999994</ele><time>2026-04-10T15:23:29.04Z</time></trkpt><trkpt lat="44.6304424" lon="10.2114656"><ele>493.0</ele><time>2026-04-10T15:23:30.04Z</time></trkpt><trkpt lat="44.6303767" lon="10.2113253"><ele>493.0</ele><time>2026-04-10T15:23:31.039Z</time></trkpt><trkpt lat="44.6303153" lon="10.211199"><ele>495.79999999999995</ele><time>2026-04-10T15:23:32.04Z</time></trkpt><trkpt lat="44.6302515" lon="10.2111054"><ele>498.59999999999997</ele><time>2026-04-10T15:23:33.04Z</time></trkpt><trkpt lat="44.6301754" lon="10.2110398"><ele>501.40000000000003</ele><time>2026-04-10T15:23:34.04Z</time></trkpt><trkpt lat="44.6300801" lon="10.2110099"><ele>504.20000000000005</ele><time>2026-04-10T15:23:35.039Z</time></trkpt><trkpt lat="44.6299808" lon="10.211035"><ele>507.0</ele><time>2026-04-10T15:23:36.04Z</time></trkpt><trkpt lat="44.6298895" lon="10.2110902"><ele>507.0</ele><time>2026-04-10T15:23:37.04Z</time></trkpt><trkpt lat="44.6298207" lon="10.2111439"><ele>507.00000000000006</ele><time>2026-04-10T15:23:38.04Z</time></trkpt><trkpt lat="44.6297488" lon="10.2111749"><ele>507.00000000000006</ele><time>2026-04-10T15:23:39.04Z</time></trkpt><trkpt lat="44.6297085" lon="10.2111056"><ele>507.0</ele><time>2026-04-10T15:23:40.039Z</time></trkpt><trkpt lat="44.6296532" lon="10.2109406"><ele>507.0</ele><time>2026-04-10T15:23:42.04Z</time></trkpt><trkpt lat="44.6297118" lon="10.2107629"><ele>508.8</ele><time>2026-04-10T15:23:44.039Z</time></trkpt><trkpt lat="44.6297487" lon="10.2106196"><ele>510.6</ele><time>2026-04-10T15:23:45.04Z</time></trkpt><trkpt lat="44.6297341" lon="10.2104492"><ele>512.4000000000001</ele><time>2026-04-10T15:23:46.04Z</time></trkpt><trkpt lat="44.629739" lon="10.2103137"><ele>514.2</ele><time>2026-04-10T15:23:47.039Z</time></trkpt><trkpt lat="44.6297398" lon="10.2101859"><ele>516.0</ele><time>2026-04-10T15:23:48.04Z</time></trkpt><trkpt lat="44.6298106" lon="10.2100811"><ele>516.0</ele><time>2026-04-10T15:23:49.04Z</time></trkpt><trkpt lat="44.6298911" lon="10.2099709"><ele>516.0</ele><time>2026-04-10T15:23:50.04Z</time></trkpt><trkpt lat="44.6299821" lon="10.2098693"><ele>516.0</ele><time>2026-04-10T15:23:51.04Z</time></trkpt><trkpt lat="44.6300841" lon="10.2097886"><ele>516.0</ele><time>2026-04-10T15:23:52.04Z</time></trkpt><trkpt lat="44.6301922" lon="10.2097571"><ele>517.2</ele><time>2026-04-10T15:23:53.04Z</time></trkpt><trkpt lat="44.6302785" lon="10.2097318"><ele>518.4000000000001</ele><time>2026-04-10T15:23:54.039Z</time></trkpt><trkpt lat="44.6303693" lon="10.2097073"><ele>519.6</ele><time>2026-04-10T15:23:55.04Z</time></trkpt><trkpt lat="44.6304122" lon="10.2095608"><ele>520.8000000000001</ele><time>2026-04-10T15:23:57.04Z</time></trkpt><trkpt lat="44.6303885" lon="10.2094773"><ele>522.0</ele><time>2026-04-10T15:23:58.04Z</time></trkpt><trkpt lat="44.6303026" lon="10.2093378"><ele>522.0</ele><time>2026-04-10T15:24:00.041Z</time></trkpt><trkpt lat="44.6301275" lon="10.2093729"><ele>522.0</ele><time>2026-04-10T15:24:01.04Z</time></trkpt><trkpt lat="44.6300184" lon="10.2093433"><ele>522.0</ele><time>2026-04-10T15:24:02.04Z</time></trkpt><trkpt lat="44.6299087" lon="10.2093016"><ele>522.0</ele><time>2026-04-10T15:24:03.04Z</time></trkpt><trkpt lat="44.6297856" lon="10.2092467"><ele>522.0</ele><time>2026-04-10T15:24:04.04Z</time></trkpt><trkpt lat="44.6296954" lon="10.2091532"><ele>522.0</ele><time>2026-04-10T15:24:05.039Z</time></trkpt><trkpt lat="44.6296136" lon="10.2090427"><ele>522.0</ele><time>2026-04-10T15:24:06.039Z</time></trkpt><trkpt lat="44.6295477" lon="10.2089311"><ele>522.0</ele><time>2026-04-10T15:24:07.04Z</time></trkpt><trkpt lat="44.6294838" lon="10.2088207"><ele>522.0</ele><time>2026-04-10T15:24:08.04Z</time></trkpt><trkpt lat="44.6295024" lon="10.2086518"><ele>522.0</ele><time>2026-04-10T15:24:09.039Z</time></trkpt><trkpt lat="44.6295181" lon="10.2085156"><ele>522.0</ele><time>2026-04-10T15:24:10.04Z</time></trkpt><trkpt lat="44.6295668" lon="10.2084069"><ele>522.0</ele><time>2026-04-10T15:24:11.039Z</time></trkpt><trkpt lat="44.6295821" lon="10.2082986"><ele>522.0</ele><time>2026-04-10T15:24:12.04Z</time></trkpt><trkpt lat="44.6295881" lon="10.2081981"><ele>522.0</ele><time>2026-04-10T15:24:13.039Z</time></trkpt><trkpt lat="44.6295062" lon="10.2080407"><ele>528.75</ele><time>2026-04-10T15:24:15.04Z</time></trkpt><trkpt lat="44.6294087" lon="10.2079799"><ele>535.5</ele><time>2026-04-10T15:24:16.041Z</time></trkpt><trkpt lat="44.6293198" lon="10.2078797"><ele>542.25</ele><time>2026-04-10T15:24:17.04Z</time></trkpt><trkpt lat="44.629233" lon="10.2077825"><ele>549.0</ele><time>2026-04-10T15:24:18.04Z</time></trkpt><trkpt lat="44.6291779" lon="10.2076315"><ele>549.0</ele><time>2026-04-10T15:24:19.04Z</time></trkpt><trkpt lat="44.6291965" lon="10.2074438"><ele>549.0</ele><time>2026-04-10T15:24:20.04Z</time></trkpt><trkpt lat="44.6291608" lon="10.207277"><ele>549.0</ele><time>2026-04-10T15:24:21.04Z</time></trkpt><trkpt lat="44.6291194" lon="10.2071028"><ele>549.0</ele><time>2026-04-10T15:24:22.039Z</time></trkpt><trkpt lat="44.6290232" lon="10.2069024"><ele>549.0</ele><time>2026-04-10T15:24:23.039Z</time></trkpt><trkpt lat="44.6289487" lon="10.2067787"><ele>549.0</ele><time>2026-04-10T15:24:24.04Z</time></trkpt><trkpt lat="44.6288779" lon="10.2066326"><ele>549.0</ele><time>2026-04-10T15:24:25.041Z</time></trkpt><trkpt lat="44.6288288" lon="10.2065063"><ele>549.0</ele><time>2026-04-10T15:24:26.04Z</time></trkpt><trkpt lat="44.6287725" lon="10.2063843"><ele>549.0</ele><time>2026-04-10T15:24:27.04Z</time></trkpt><trkpt lat="44.6287837" lon="10.2062431"><ele>549.0</ele><time>2026-04-10T15:24:28.04Z</time></trkpt><trkpt lat="44.6287862" lon="10.2060573"><ele>549.0</ele><time>2026-04-10T15:24:29.04Z</time></trkpt><trkpt lat="44.6288107" lon="10.2058889"><ele>549.0</ele><time>2026-04-10T15:24:30.04Z</time></trkpt><trkpt lat="44.6288235" lon="10.2057475"><ele>549.0</ele><time>2026-04-10T15:24:31.04Z</time></trkpt><trkpt lat="44.628856" lon="10.2056338"><ele>549.0</ele><time>2026-04-10T15:24:32.04Z</time></trkpt><trkpt lat="44.6288373" lon="10.2055231"><ele>549.2</ele><time>2026-04-10T15:24:33.04Z</time></trkpt><trkpt lat="44.6288169" lon="10.2054184"><ele>549.4</ele><time>2026-04-10T15:24:34.04Z</time></trkpt><trkpt lat="44.6287734" lon="10.2053083"><ele>549.6</ele><time>2026-04-10T15:24:35.04Z</time></trkpt><trkpt lat="44.6287185" lon="10.2051712"><ele>549.8</ele><time>2026-04-10T15:24:36.04Z</time></trkpt><trkpt lat="44.6286692" lon="10.2050695"><ele>550.0</ele><time>2026-04-10T15:24:37.04Z</time></trkpt><trkpt lat="44.6286503" lon="10.2049494"><ele>554.75</ele><time>2026-04-10T15:24:38.04Z</time></trkpt><trkpt lat="44.6286419" lon="10.2048053"><ele>559.5</ele><time>2026-04-10T15:24:39.041Z</time></trkpt><trkpt lat="44.6286311" lon="10.2046553"><ele>564.25</ele><time>2026-04-10T15:24:40.04Z</time></trkpt><trkpt lat="44.6286213" lon="10.2044959"><ele>569.0</ele><time>2026-04-10T15:24:41.04Z</time></trkpt><trkpt lat="44.6286171" lon="10.2043143"><ele>569.0</ele><time>2026-04-10T15:24:42.04Z</time></trkpt><trkpt lat="44.6286228" lon="10.2041429"><ele>569.0</ele><time>2026-04-10T15:24:43.04Z</time></trkpt><trkpt lat="44.6286402" lon="10.2039863"><ele>569.0</ele><time>2026-04-10T15:24:44.04Z</time></trkpt><trkpt lat="44.6286638" lon="10.2038568"><ele>569.0</ele><time>2026-04-10T15:24:45.039Z</time></trkpt><trkpt lat="44.6286915" lon="10.2037524"><ele>569.0</ele><time>2026-04-10T15:24:46.04Z</time></trkpt><trkpt lat="44.6287153" lon="10.2035969"><ele>568.6</ele><time>2026-04-10T15:24:48.039Z</time></trkpt><trkpt lat="44.6287085" lon="10.2034442"><ele>568.2</ele><time>2026-04-10T15:24:50.04Z</time></trkpt><trkpt lat="44.6286395" lon="10.2033867"><ele>567.8000000000001</ele><time>2026-04-10T15:24:51.04Z</time></trkpt><trkpt lat="44.6284987" lon="10.2033059"><ele>567.4</ele><time>2026-04-10T15:24:53.04Z</time></trkpt><trkpt lat="44.6284409" lon="10.2032225"><ele>567.0</ele><time>2026-04-10T15:24:54.04Z</time></trkpt><trkpt lat="44.6283923" lon="10.203136"><ele>564.8000000000001</ele><time>2026-04-10T15:24:55.04Z</time></trkpt><trkpt lat="44.6283282" lon="10.2030147"><ele>562.6</ele><time>2026-04-10T15:24:56.04Z</time></trkpt><trkpt lat="44.6282692" lon="10.2029017"><ele>560.4000000000001</ele><time>2026-04-10T15:24:57.04Z</time></trkpt><trkpt lat="44.6281984" lon="10.202787"><ele>558.2</ele><time>2026-04-10T15:24:58.04Z</time></trkpt><trkpt lat="44.6281252" lon="10.2026655"><ele>556.0</ele><time>2026-04-10T15:24:59.04Z</time></trkpt><trkpt lat="44.6280638" lon="10.2025543"><ele>556.0</ele><time>2026-04-10T15:25:00.041Z</time></trkpt><trkpt lat="44.6279996" lon="10.2024566"><ele>556.0</ele><time>2026-04-10T15:25:01.04Z</time></trkpt><trkpt lat="44.6279257" lon="10.2023759"><ele>556.0</ele><time>2026-04-10T15:25:02.04Z</time></trkpt><trkpt lat="44.6278504" lon="10.2022885"><ele>556.0</ele><time>2026-04-10T15:25:03.039Z</time></trkpt><trkpt lat="44.6277534" lon="10.2022042"><ele>556.0</ele><time>2026-04-10T15:25:04.04Z</time></trkpt><trkpt lat="44.6276539" lon="10.202132"><ele>556.2</ele><time>2026-04-10T15:25:05.04Z</time></trkpt><trkpt lat="44.627566" lon="10.2020658"><ele>556.4000000000001</ele><time>2026-04-10T15:25:06.04Z</time></trkpt><trkpt lat="44.6274945" lon="10.2019871"><ele>556.6</ele><time>2026-04-10T15:25:07.039Z</time></trkpt><trkpt lat="44.627432" lon="10.2018865"><ele>556.8000000000001</ele><time>2026-04-10T15:25:08.039Z</time></trkpt><trkpt lat="44.627379" lon="10.2017448"><ele>557.0</ele><time>2026-04-10T15:25:09.04Z</time></trkpt><trkpt lat="44.6273332" lon="10.2016023"><ele>556.0</ele><time>2026-04-10T15:25:10.04Z</time></trkpt><trkpt lat="44.6272952" lon="10.2014427"><ele>555.0</ele><time>2026-04-10T15:25:11.04Z</time></trkpt><trkpt lat="44.6272535" lon="10.2012919"><ele>554.0</ele><time>2026-04-10T15:25:12.04Z</time></trkpt><trkpt lat="44.6272305" lon="10.2011605"><ele>553.0</ele><time>2026-04-10T15:25:13.04Z</time></trkpt><trkpt lat="44.6272306" lon="10.2010253"><ele>552.0</ele><time>2026-04-10T15:25:14.04Z</time></trkpt><trkpt lat="44.6272548" lon="10.2008772"><ele>552.0</ele><time>2026-04-10T15:25:15.04Z</time></trkpt><trkpt lat="44.6272954" lon="10.2007353"><ele>552.0</ele><time>2026-04-10T15:25:16.04Z</time></trkpt><trkpt lat="44.6273499" lon="10.2005925"><ele>552.0</ele><time>2026-04-10T15:25:17.04Z</time></trkpt><trkpt lat="44.6274017" lon="10.2004534"><ele>552.0</ele><time>2026-04-10T15:25:18.04Z</time></trkpt><trkpt lat="44.6274492" lon="10.2003156"><ele>552.0</ele><time>2026-04-10T15:25:19.04Z</time></trkpt><trkpt lat="44.6274853" lon="10.2001817"><ele>552.25</ele><time>2026-04-10T15:25:20.041Z</time></trkpt><trkpt lat="44.6275084" lon="10.2000444"><ele>552.5</ele><time>2026-04-10T15:25:21.04Z</time></trkpt><trkpt lat="44.6275184" lon="10.199887"><ele>552.75</ele><time>2026-04-10T15:25:22.04Z</time></trkpt><trkpt lat="44.6275448" lon="10.1997058"><ele>553.0</ele><time>2026-04-10T15:25:23.04Z</time></trkpt><trkpt lat="44.6275637" lon="10.1995533"><ele>553.6</ele><time>2026-04-10T15:25:24.04Z</time></trkpt><trkpt lat="44.6275865" lon="10.1993891"><ele>554.1999999999999</ele><time>2026-04-10T15:25:25.04Z</time></trkpt><trkpt lat="44.6276378" lon="10.1992774"><ele>554.8</ele><time>2026-04-10T15:25:26.04Z</time></trkpt><trkpt lat="44.6276814" lon="10.1991586"><ele>555.4</ele><time>2026-04-10T15:25:27.04Z</time></trkpt><trkpt lat="44.6277231" lon="10.1990481"><ele>556.0</ele><time>2026-04-10T15:25:28.04Z</time></trkpt><trkpt lat="44.6277568" lon="10.1989626"><ele>556.75</ele><time>2026-04-10T15:25:29.04Z</time></trkpt><trkpt lat="44.6277382" lon="10.1987879"><ele>557.5</ele><time>2026-04-10T15:25:31.039Z</time></trkpt><trkpt lat="44.6277234" lon="10.1986529"><ele>558.25</ele><time>2026-04-10T15:25:32.039Z</time></trkpt><trkpt lat="44.627668" lon="10.1984979"><ele>559.0</ele><time>2026-04-10T15:25:33.039Z</time></trkpt><trkpt lat="44.6276694" lon="10.1983168"><ele>560.5</ele><time>2026-04-10T15:25:34.039Z</time></trkpt><trkpt lat="44.6276861" lon="10.1981146"><ele>562.0</ele><time>2026-04-10T15:25:35.039Z</time></trkpt><trkpt lat="44.6277189" lon="10.1979455"><ele>563.5</ele><time>2026-04-10T15:25:36.04Z</time></trkpt><trkpt lat="44.6277729" lon="10.1977796"><ele>565.0</ele><time>2026-04-10T15:25:37.04Z</time></trkpt><trkpt lat="44.6278294" lon="10.1976323"><ele>557.6</ele><time>2026-04-10T15:25:38.04Z</time></trkpt><trkpt lat="44.6278861" lon="10.1974845"><ele>550.2</ele><time>2026-04-10T15:25:39.04Z</time></trkpt><trkpt lat="44.6279374" lon="10.1973882"><ele>542.8</ele><time>2026-04-10T15:25:40.04Z</time></trkpt><trkpt lat="44.6279698" lon="10.1972579"><ele>535.4</ele><time>2026-04-10T15:25:41.039Z</time></trkpt><trkpt lat="44.627989" lon="10.1971185"><ele>528.0</ele><time>2026-04-10T15:25:42.039Z</time></trkpt><trkpt lat="44.6279946" lon="10.196957"><ele>527.6</ele><time>2026-04-10T15:25:43.04Z</time></trkpt><trkpt lat="44.6280098" lon="10.1968157"><ele>527.1999999999999</ele><time>2026-04-10T15:25:44.04Z</time></trkpt><trkpt lat="44.6279925" lon="10.1966814"><ele>526.8</ele><time>2026-04-10T15:25:45.039Z</time></trkpt><trkpt lat="44.6279681" lon="10.1965535"><ele>526.4</ele><time>2026-04-10T15:25:46.04Z</time></trkpt><trkpt lat="44.6279344" lon="10.1964025"><ele>526.0</ele><time>2026-04-10T15:25:47.04Z</time></trkpt><trkpt lat="44.6278678" lon="10.1962984"><ele>524.6</ele><time>2026-04-10T15:25:48.039Z</time></trkpt><trkpt lat="44.627812" lon="10.1961743"><ele>523.2</ele><time>2026-04-10T15:25:49.039Z</time></trkpt><trkpt lat="44.6277706" lon="10.1960185"><ele>521.8</ele><time>2026-04-10T15:25:50.04Z</time></trkpt><trkpt lat="44.6277409" lon="10.195876"><ele>520.4</ele><time>2026-04-10T15:25:51.04Z</time></trkpt><trkpt lat="44.6277409" lon="10.195724"><ele>519.0</ele><time>2026-04-10T15:25:52.04Z</time></trkpt><trkpt lat="44.6277543" lon="10.1955729"><ele>520.0</ele><time>2026-04-10T15:25:53.04Z</time></trkpt><trkpt lat="44.6277617" lon="10.1954216"><ele>521.0</ele><time>2026-04-10T15:25:54.04Z</time></trkpt><trkpt lat="44.627818" lon="10.1952983"><ele>522.0</ele><time>2026-04-10T15:25:55.04Z</time></trkpt><trkpt lat="44.6278572" lon="10.1951658"><ele>523.0</ele><time>2026-04-10T15:25:56.039Z</time></trkpt><trkpt lat="44.627894" lon="10.1950322"><ele>524.0</ele><time>2026-04-10T15:25:57.039Z</time></trkpt><trkpt lat="44.6279341" lon="10.194904"><ele>525.0</ele><time>2026-04-10T15:25:58.04Z</time></trkpt><trkpt lat="44.6279699" lon="10.1947761"><ele>526.0</ele><time>2026-04-10T15:25:59.04Z</time></trkpt><trkpt lat="44.627924" lon="10.1946222"><ele>527.0</ele><time>2026-04-10T15:26:00.04Z</time></trkpt><trkpt lat="44.6279204" lon="10.1944828"><ele>528.0</ele><time>2026-04-10T15:26:01.039Z</time></trkpt><trkpt lat="44.6279321" lon="10.1943502"><ele>529.0</ele><time>2026-04-10T15:26:02.04Z</time></trkpt><trkpt lat="44.6279426" lon="10.1942198"><ele>529.0</ele><time>2026-04-10T15:26:03.04Z</time></trkpt><trkpt lat="44.6279524" lon="10.194095"><ele>529.0</ele><time>2026-04-10T15:26:04.04Z</time></trkpt><trkpt lat="44.6279722" lon="10.1939689"><ele>529.0</ele><time>2026-04-10T15:26:05.04Z</time></trkpt><trkpt lat="44.6280045" lon="10.1938238"><ele>529.0</ele><time>2026-04-10T15:26:06.04Z</time></trkpt><trkpt lat="44.6280508" lon="10.1936667"><ele>529.0</ele><time>2026-04-10T15:26:07.039Z</time></trkpt><trkpt lat="44.6281009" lon="10.193506"><ele>527.5</ele><time>2026-04-10T15:26:08.04Z</time></trkpt><trkpt lat="44.6281502" lon="10.1933341"><ele>526.0</ele><time>2026-04-10T15:26:09.04Z</time></trkpt><trkpt lat="44.628205" lon="10.1931513"><ele>524.5</ele><time>2026-04-10T15:26:10.04Z</time></trkpt><trkpt lat="44.6282612" lon="10.1929924"><ele>523.0</ele><time>2026-04-10T15:26:11.04Z</time></trkpt><trkpt lat="44.6283183" lon="10.1928155"><ele>519.75</ele><time>2026-04-10T15:26:12.04Z</time></trkpt><trkpt lat="44.6283809" lon="10.1926391"><ele>516.5</ele><time>2026-04-10T15:26:13.04Z</time></trkpt><trkpt lat="44.6284403" lon="10.1924844"><ele>513.25</ele><time>2026-04-10T15:26:14.04Z</time></trkpt><trkpt lat="44.6284997" lon="10.1923372"><ele>510.0</ele><time>2026-04-10T15:26:15.04Z</time></trkpt><trkpt lat="44.6285544" lon="10.1922024"><ele>509.0</ele><time>2026-04-10T15:26:16.04Z</time></trkpt><trkpt lat="44.6286067" lon="10.1920775"><ele>508.0</ele><time>2026-04-10T15:26:17.04Z</time></trkpt><trkpt lat="44.6286587" lon="10.191961"><ele>507.0</ele><time>2026-04-10T15:26:18.04Z</time></trkpt><trkpt lat="44.6287161" lon="10.1918436"><ele>506.0</ele><time>2026-04-10T15:26:19.039Z</time></trkpt><trkpt lat="44.6287766" lon="10.1917321"><ele>505.0</ele><time>2026-04-10T15:26:20.039Z</time></trkpt><trkpt lat="44.628837" lon="10.1916121"><ele>507.6</ele><time>2026-04-10T15:26:21.04Z</time></trkpt><trkpt lat="44.6288997" lon="10.1914922"><ele>510.2</ele><time>2026-04-10T15:26:22.04Z</time></trkpt><trkpt lat="44.6289719" lon="10.1913954"><ele>512.8</ele><time>2026-04-10T15:26:23.041Z</time></trkpt><trkpt lat="44.6290185" lon="10.1912722"><ele>515.4</ele><time>2026-04-10T15:26:24.04Z</time></trkpt><trkpt lat="44.6290611" lon="10.1911527"><ele>518.0</ele><time>2026-04-10T15:26:25.04Z</time></trkpt><trkpt lat="44.629109" lon="10.1910221"><ele>518.0</ele><time>2026-04-10T15:26:26.04Z</time></trkpt><trkpt lat="44.6291747" lon="10.1909165"><ele>518.0</ele><time>2026-04-10T15:26:27.04Z</time></trkpt><trkpt lat="44.6292341" lon="10.1907844"><ele>518.0</ele><time>2026-04-10T15:26:28.04Z</time></trkpt><trkpt lat="44.6292937" lon="10.1906467"><ele>518.0</ele><time>2026-04-10T15:26:29.04Z</time></trkpt><trkpt lat="44.6293375" lon="10.1904682"><ele>517.25</ele><time>2026-04-10T15:26:30.04Z</time></trkpt><trkpt lat="44.6293873" lon="10.1903056"><ele>516.5</ele><time>2026-04-10T15:26:31.04Z</time></trkpt><trkpt lat="44.6294355" lon="10.1901508"><ele>515.75</ele><time>2026-04-10T15:26:32.04Z</time></trkpt><trkpt lat="44.6294847" lon="10.1900082"><ele>515.0</ele><time>2026-04-10T15:26:33.04Z</time></trkpt><trkpt lat="44.6295314" lon="10.1898823"><ele>515.25</ele><time>2026-04-10T15:26:34.04Z</time></trkpt><trkpt lat="44.629585" lon="10.1897519"><ele>515.5</ele><time>2026-04-10T15:26:35.04Z</time></trkpt><trkpt lat="44.629641" lon="10.1896195"><ele>515.75</ele><time>2026-04-10T15:26:36.04Z</time></trkpt><trkpt lat="44.629692" lon="10.1894733"><ele>516.0</ele><time>2026-04-10T15:26:37.041Z</time></trkpt><trkpt lat="44.6297402" lon="10.1893055"><ele>516.0</ele><time>2026-04-10T15:26:38.041Z</time></trkpt><trkpt lat="44.6297795" lon="10.1891468"><ele>516.0</ele><time>2026-04-10T15:26:39.039Z</time></trkpt><trkpt lat="44.6298164" lon="10.1890052"><ele>516.0</ele><time>2026-04-10T15:26:40.039Z</time></trkpt><trkpt lat="44.6298486" lon="10.1888727"><ele>516.0</ele><time>2026-04-10T15:26:41.04Z</time></trkpt><trkpt lat="44.6298105" lon="10.1887223"><ele>516.0</ele><time>2026-04-10T15:26:42.04Z</time></trkpt><trkpt lat="44.6297946" lon="10.1885799"><ele>517.2</ele><time>2026-04-10T15:26:43.04Z</time></trkpt><trkpt lat="44.6297676" lon="10.1884221"><ele>518.4000000000001</ele><time>2026-04-10T15:26:44.04Z</time></trkpt><trkpt lat="44.6297453" lon="10.1882689"><ele>519.6</ele><time>2026-04-10T15:26:45.04Z</time></trkpt><trkpt lat="44.6297417" lon="10.188133"><ele>520.8000000000001</ele><time>2026-04-10T15:26:46.039Z</time></trkpt><trkpt lat="44.6297598" lon="10.1880086"><ele>522.0</ele><time>2026-04-10T15:26:47.039Z</time></trkpt><trkpt lat="44.6297742" lon="10.1878823"><ele>525.8000000000001</ele><time>2026-04-10T15:26:48.039Z</time></trkpt><trkpt lat="44.6298549" lon="10.1877817"><ele>529.6</ele><time>2026-04-10T15:26:49.039Z</time></trkpt><trkpt lat="44.6299045" lon="10.1876641"><ele>533.4000000000001</ele><time>2026-04-10T15:26:50.04Z</time></trkpt><trkpt lat="44.6299498" lon="10.1875373"><ele>537.2</ele><time>2026-04-10T15:26:51.04Z</time></trkpt><trkpt lat="44.6299848" lon="10.1874042"><ele>541.0</ele><time>2026-04-10T15:26:52.039Z</time></trkpt><trkpt lat="44.6300137" lon="10.1872827"><ele>542.8</ele><time>2026-04-10T15:26:53.039Z</time></trkpt><trkpt lat="44.630043" lon="10.1871372"><ele>544.6</ele><time>2026-04-10T15:26:54.039Z</time></trkpt><trkpt lat="44.6300679" lon="10.1869629"><ele>546.4</ele><time>2026-04-10T15:26:55.039Z</time></trkpt><trkpt lat="44.6300906" lon="10.1868127"><ele>548.2</ele><time>2026-04-10T15:26:56.04Z</time></trkpt><trkpt lat="44.6301049" lon="10.1866824"><ele>550.0</ele><time>2026-04-10T15:26:57.04Z</time></trkpt><trkpt lat="44.6301167" lon="10.186568"><ele>548.3333333333334</ele><time>2026-04-10T15:26:58.04Z</time></trkpt><trkpt lat="44.630131" lon="10.1864634"><ele>546.6666666666667</ele><time>2026-04-10T15:26:59.04Z</time></trkpt><trkpt lat="44.6301574" lon="10.1863823"><ele>545.0</ele><time>2026-04-10T15:27:00.04Z</time></trkpt><trkpt lat="44.6301802" lon="10.1862634"><ele>543.3333333333334</ele><time>2026-04-10T15:27:01.04Z</time></trkpt><trkpt lat="44.6301986" lon="10.1861507"><ele>541.6666666666666</ele><time>2026-04-10T15:27:02.04Z</time></trkpt><trkpt lat="44.630222" lon="10.186047"><ele>540.0</ele><time>2026-04-10T15:27:03.04Z</time></trkpt><trkpt lat="44.6302476" lon="10.1859362"><ele>540.0</ele><time>2026-04-10T15:27:04.039Z</time></trkpt><trkpt lat="44.6302822" lon="10.1858065"><ele>540.0</ele><time>2026-04-10T15:27:05.04Z</time></trkpt><trkpt lat="44.6303203" lon="10.1856808"><ele>540.0</ele><time>2026-04-10T15:27:06.04Z</time></trkpt><trkpt lat="44.6303528" lon="10.1855648"><ele>540.0</ele><time>2026-04-10T15:27:07.04Z</time></trkpt><trkpt lat="44.630375" lon="10.185456"><ele>540.0</ele><time>2026-04-10T15:27:08.04Z</time></trkpt><trkpt lat="44.6304051" lon="10.1853401"><ele>537.6</ele><time>2026-04-10T15:27:09.04Z</time></trkpt><trkpt lat="44.6304294" lon="10.1852314"><ele>535.2</ele><time>2026-04-10T15:27:10.04Z</time></trkpt><trkpt lat="44.6304495" lon="10.1851269"><ele>532.8</ele><time>2026-04-10T15:27:11.04Z</time></trkpt><trkpt lat="44.6304662" lon="10.1849758"><ele>530.4</ele><time>2026-04-10T15:27:13.04Z</time></trkpt><trkpt lat="44.6304539" lon="10.1848789"><ele>528.0</ele><time>2026-04-10T15:27:14.04Z</time></trkpt><trkpt lat="44.6304182" lon="10.184712"><ele>526.8333333333334</ele><time>2026-04-10T15:27:16.04Z</time></trkpt><trkpt lat="44.6304389" lon="10.1845256"><ele>525.6666666666666</ele><time>2026-04-10T15:27:18.04Z</time></trkpt><trkpt lat="44.6304959" lon="10.1844329"><ele>524.5</ele><time>2026-04-10T15:27:19.04Z</time></trkpt><trkpt lat="44.6305082" lon="10.1843401"><ele>523.3333333333333</ele><time>2026-04-10T15:27:20.039Z</time></trkpt><trkpt lat="44.630512" lon="10.184238"><ele>522.1666666666666</ele><time>2026-04-10T15:27:21.04Z</time></trkpt><trkpt lat="44.630515" lon="10.1841406"><ele>521.0</ele><time>2026-04-10T15:27:22.04Z</time></trkpt><trkpt lat="44.6305231" lon="10.1840128"><ele>519.2</ele><time>2026-04-10T15:27:23.04Z</time></trkpt><trkpt lat="44.6305238" lon="10.1838545"><ele>517.4000000000001</ele><time>2026-04-10T15:27:24.04Z</time></trkpt><trkpt lat="44.6305251" lon="10.1837035"><ele>515.6</ele><time>2026-04-10T15:27:25.04Z</time></trkpt><trkpt lat="44.6305304" lon="10.1835589"><ele>513.8000000000001</ele><time>2026-04-10T15:27:26.04Z</time></trkpt><trkpt lat="44.6305448" lon="10.1834046"><ele>512.0</ele><time>2026-04-10T15:27:27.04Z</time></trkpt><trkpt lat="44.6305634" lon="10.1832552"><ele>510.8333333333333</ele><time>2026-04-10T15:27:28.039Z</time></trkpt><trkpt lat="44.630588" lon="10.1831212"><ele>509.66666666666663</ele><time>2026-04-10T15:27:29.04Z</time></trkpt><trkpt lat="44.630613" lon="10.183009"><ele>508.5</ele><time>2026-04-10T15:27:30.041Z</time></trkpt><trkpt lat="44.6306364" lon="10.1829093"><ele>507.33333333333337</ele><time>2026-04-10T15:27:31.039Z</time></trkpt><trkpt lat="44.6306646" lon="10.1828296"><ele>506.1666666666667</ele><time>2026-04-10T15:27:32.04Z</time></trkpt><trkpt lat="44.6306879" lon="10.1827473"><ele>505.0</ele><time>2026-04-10T15:27:33.04Z</time></trkpt><trkpt lat="44.6307269" lon="10.1826315"><ele>505.00000000000006</ele><time>2026-04-10T15:27:35.04Z</time></trkpt><trkpt lat="44.6307711" lon="10.1825605"><ele>505.0</ele><time>2026-04-10T15:27:37.04Z</time></trkpt><trkpt lat="44.630777" lon="10.182443"><ele>505.0</ele><time>2026-04-10T15:27:39.039Z</time></trkpt><trkpt lat="44.6307957" lon="10.1823504"><ele>505.0</ele><time>2026-04-10T15:27:41.04Z</time></trkpt><trkpt lat="44.6307844" lon="10.1822108"><ele>505.00000000000006</ele><time>2026-04-10T15:27:42.04Z</time></trkpt><trkpt lat="44.6307579" lon="10.1821095"><ele>505.0</ele><time>2026-04-10T15:27:43.04Z</time></trkpt><trkpt lat="44.6307539" lon="10.1820033"><ele>502.0</ele><time>2026-04-10T15:27:44.039Z</time></trkpt><trkpt lat="44.630735" lon="10.181915"><ele>499.0</ele><time>2026-04-10T15:27:45.039Z</time></trkpt><trkpt lat="44.6307319" lon="10.1818123"><ele>496.0</ele><time>2026-04-10T15:27:46.04Z</time></trkpt><trkpt lat="44.6307634" lon="10.1816532"><ele>493.0</ele><time>2026-04-10T15:27:48.04Z</time></trkpt><trkpt lat="44.6307914" lon="10.1815217"><ele>490.0</ele><time>2026-04-10T15:27:50.04Z</time></trkpt><trkpt lat="44.6308197" lon="10.1813715"><ele>487.50000000000006</ele><time>2026-04-10T15:27:52.041Z</time></trkpt><trkpt lat="44.6308141" lon="10.1812707"><ele>485.0</ele><time>2026-04-10T15:27:53.04Z</time></trkpt><trkpt lat="44.6308101" lon="10.1811783"><ele>482.5</ele><time>2026-04-10T15:27:54.04Z</time></trkpt><trkpt lat="44.6308199" lon="10.1810901"><ele>480.0</ele><time>2026-04-10T15:27:55.04Z</time></trkpt><trkpt lat="44.6308296" lon="10.1809924"><ele>477.50000000000006</ele><time>2026-04-10T15:27:56.04Z</time></trkpt><trkpt lat="44.6308684" lon="10.1808452"><ele>475.0</ele><time>2026-04-10T15:27:58.04Z</time></trkpt><trkpt lat="44.6309117" lon="10.1807372"><ele>473.83333333333337</ele><time>2026-04-10T15:28:00.04Z</time></trkpt><trkpt lat="44.6309599" lon="10.180578"><ele>472.6666666666667</ele><time>2026-04-10T15:28:02.04Z</time></trkpt><trkpt lat="44.6309701" lon="10.1804677"><ele>471.5</ele><time>2026-04-10T15:28:03.04Z</time></trkpt><trkpt lat="44.6309851" lon="10.1803647"><ele>470.33333333333337</ele><time>2026-04-10T15:28:04.039Z</time></trkpt><trkpt lat="44.6309718" lon="10.1802433"><ele>469.1666666666667</ele><time>2026-04-10T15:28:05.039Z</time></trkpt><trkpt lat="44.6309782" lon="10.1801436"><ele>468.0</ele><time>2026-04-10T15:28:06.039Z</time></trkpt><trkpt lat="44.6309845" lon="10.1800401"><ele>468.0</ele><time>2026-04-10T15:28:07.039Z</time></trkpt><trkpt lat="44.6309922" lon="10.1799317"><ele>468.0</ele><time>2026-04-10T15:28:08.039Z</time></trkpt><trkpt lat="44.6309981" lon="10.1798166"><ele>468.0</ele><time>2026-04-10T15:28:09.04Z</time></trkpt><trkpt lat="44.6310164" lon="10.1797045"><ele>468.0</ele><time>2026-04-10T15:28:10.04Z</time></trkpt><trkpt lat="44.631085" lon="10.1796318"><ele>468.0</ele><time>2026-04-10T15:28:11.04Z</time></trkpt><trkpt lat="44.631171" lon="10.1795232"><ele>468.0</ele><time>2026-04-10T15:28:13.04Z</time></trkpt><trkpt lat="44.6312402" lon="10.1794394"><ele>464.4</ele><time>2026-04-10T15:28:15.039Z</time></trkpt><trkpt lat="44.6312479" lon="10.1792995"><ele>460.79999999999995</ele><time>2026-04-10T15:28:17.04Z</time></trkpt><trkpt lat="44.6312148" lon="10.179167"><ele>457.2</ele><time>2026-04-10T15:28:19.04Z</time></trkpt><trkpt lat="44.6311536" lon="10.1790478"><ele>453.6</ele><time>2026-04-10T15:28:21.04Z</time></trkpt><trkpt lat="44.6311221" lon="10.1789453"><ele>450.0</ele><time>2026-04-10T15:28:23.04Z</time></trkpt><trkpt lat="44.6312139" lon="10.1788378"><ele>447.0</ele><time>2026-04-10T15:28:26.04Z</time></trkpt><trkpt lat="44.6313013" lon="10.1788451"><ele>444.0</ele><time>2026-04-10T15:28:28.04Z</time></trkpt><trkpt lat="44.631436" lon="10.178844"><ele>441.0</ele><time>2026-04-10T15:28:30.04Z</time></trkpt><trkpt lat="44.6315255" lon="10.1788598"><ele>438.0</ele><time>2026-04-10T15:28:32.041Z</time></trkpt><trkpt lat="44.6316325" lon="10.1788804"><ele>435.0</ele><time>2026-04-10T15:28:34.04Z</time></trkpt><trkpt lat="44.631695" lon="10.1789093"><ele>435.0</ele><time>2026-04-10T15:28:35.039Z</time></trkpt><trkpt lat="44.6317747" lon="10.1789484"><ele>435.0</ele><time>2026-04-10T15:28:37.041Z</time></trkpt><trkpt lat="44.6318463" lon="10.1789889"><ele>435.0</ele><time>2026-04-10T15:28:39.04Z</time></trkpt><trkpt lat="44.6319103" lon="10.1789641"><ele>435.0</ele><time>2026-04-10T15:28:41.04Z</time></trkpt><trkpt lat="44.6319762" lon="10.1789318"><ele>435.0</ele><time>2026-04-10T15:28:42.04Z</time></trkpt><trkpt lat="44.6320235" lon="10.1788608"><ele>435.0</ele><time>2026-04-10T15:28:43.04Z</time></trkpt><trkpt lat="44.6320827" lon="10.17874"><ele>433.4</ele><time>2026-04-10T15:28:44.039Z</time></trkpt><trkpt lat="44.6321177" lon="10.1786332"><ele>431.8</ele><time>2026-04-10T15:28:45.04Z</time></trkpt><trkpt lat="44.6321561" lon="10.1785352"><ele>430.20000000000005</ele><time>2026-04-10T15:28:46.04Z</time></trkpt><trkpt lat="44.6321956" lon="10.1784411"><ele>428.6</ele><time>2026-04-10T15:28:47.04Z</time></trkpt><trkpt lat="44.6323007" lon="10.1783816"><ele>427.0</ele><time>2026-04-10T15:28:49.04Z</time></trkpt><trkpt lat="44.6323752" lon="10.178247"><ele>424.83333333333337</ele><time>2026-04-10T15:28:51.04Z</time></trkpt><trkpt lat="44.6324235" lon="10.1781796"><ele>422.6666666666667</ele><time>2026-04-10T15:28:52.04Z</time></trkpt><trkpt lat="44.6324812" lon="10.1780659"><ele>420.5</ele><time>2026-04-10T15:28:54.041Z</time></trkpt><trkpt lat="44.6324858" lon="10.1779771"><ele>418.33333333333337</ele><time>2026-04-10T15:28:56.04Z</time></trkpt><trkpt lat="44.6324342" lon="10.1778949"><ele>416.1666666666667</ele><time>2026-04-10T15:28:57.041Z</time></trkpt><trkpt lat="44.6323323" lon="10.1778964"><ele>414.0</ele><time>2026-04-10T15:28:58.039Z</time></trkpt><trkpt lat="44.6322225" lon="10.1778887"><ele>414.0</ele><time>2026-04-10T15:28:59.039Z</time></trkpt><trkpt lat="44.632101" lon="10.1779074"><ele>414.0</ele><time>2026-04-10T15:29:00.04Z</time></trkpt><trkpt lat="44.6319714" lon="10.1779571"><ele>414.0</ele><time>2026-04-10T15:29:01.04Z</time></trkpt><trkpt lat="44.6318494" lon="10.1779959"><ele>414.0</ele><time>2026-04-10T15:29:02.04Z</time></trkpt><trkpt lat="44.6317278" lon="10.1780002"><ele>413.75</ele><time>2026-04-10T15:29:03.04Z</time></trkpt><trkpt lat="44.6316205" lon="10.1779645"><ele>413.5</ele><time>2026-04-10T15:29:04.04Z</time></trkpt><trkpt lat="44.6315254" lon="10.1778855"><ele>413.25</ele><time>2026-04-10T15:29:05.039Z</time></trkpt><trkpt lat="44.6314342" lon="10.1777755"><ele>413.0</ele><time>2026-04-10T15:29:06.04Z</time></trkpt><trkpt lat="44.6313242" lon="10.1776884"><ele>413.0</ele><time>2026-04-10T15:29:07.04Z</time></trkpt><trkpt lat="44.6312185" lon="10.1776024"><ele>413.0</ele><time>2026-04-10T15:29:08.04Z</time></trkpt><trkpt lat="44.6310689" lon="10.1775868"><ele>413.0</ele><time>2026-04-10T15:29:09.04Z</time></trkpt><trkpt lat="44.6309583" lon="10.1775015"><ele>413.0</ele><time>2026-04-10T15:29:10.04Z</time></trkpt><trkpt lat="44.6308675" lon="10.1773895"><ele>412.0</ele><time>2026-04-10T15:29:11.04Z</time></trkpt><trkpt lat="44.6307958" lon="10.1772371"><ele>411.0</ele><time>2026-04-10T15:29:12.04Z</time></trkpt><trkpt lat="44.6307386" lon="10.1770754"><ele>410.0</ele><time>2026-04-10T15:29:13.04Z</time></trkpt><trkpt lat="44.6306749" lon="10.1768862"><ele>409.0</ele><time>2026-04-10T15:29:14.04Z</time></trkpt><trkpt lat="44.6306244" lon="10.1767197"><ele>409.0</ele><time>2026-04-10T15:29:15.04Z</time></trkpt><trkpt lat="44.6305769" lon="10.1765865"><ele>409.0</ele><time>2026-04-10T15:29:16.04Z</time></trkpt><trkpt lat="44.6305244" lon="10.1764686"><ele>409.0</ele><time>2026-04-10T15:29:17.04Z</time></trkpt><trkpt lat="44.6304708" lon="10.1763759"><ele>409.0</ele><time>2026-04-10T15:29:18.04Z</time></trkpt><trkpt lat="44.6303981" lon="10.1762793"><ele>409.0</ele><time>2026-04-10T15:29:20.04Z</time></trkpt><trkpt lat="44.6303436" lon="10.1762123"><ele>408.57142857142856</ele><time>2026-04-10T15:29:22.04Z</time></trkpt><trkpt lat="44.6302782" lon="10.17615"><ele>408.14285714285717</ele><time>2026-04-10T15:29:25.041Z</time></trkpt><trkpt lat="44.6302702" lon="10.1762403"><ele>407.7142857142857</ele><time>2026-04-10T15:29:28.039Z</time></trkpt><trkpt lat="44.6303355" lon="10.1762345"><ele>407.2857142857143</ele><time>2026-04-10T15:29:30.039Z</time></trkpt><trkpt lat="44.6304185" lon="10.1762268"><ele>406.8571428571429</ele><time>2026-04-10T15:29:33.04Z</time></trkpt><trkpt lat="44.6304811" lon="10.1762579"><ele>406.42857142857144</ele><time>2026-04-10T15:29:35.04Z</time></trkpt><trkpt lat="44.6305391" lon="10.176318"><ele>406.0</ele><time>2026-04-10T15:29:36.04Z</time></trkpt><trkpt lat="44.6305968" lon="10.1763681"><ele>406.50000000000006</ele><time>2026-04-10T15:29:37.04Z</time></trkpt><trkpt lat="44.6306577" lon="10.1764206"><ele>407.0</ele><time>2026-04-10T15:29:38.04Z</time></trkpt><trkpt lat="44.63072" lon="10.1764699"><ele>407.5</ele><time>2026-04-10T15:29:39.04Z</time></trkpt><trkpt lat="44.630788" lon="10.1765319"><ele>408.0</ele><time>2026-04-10T15:29:40.04Z</time></trkpt><trkpt lat="44.6308682" lon="10.1765755"><ele>408.50000000000006</ele><time>2026-04-10T15:29:41.04Z</time></trkpt><trkpt lat="44.6309283" lon="10.1766343"><ele>409.0</ele><time>2026-04-10T15:29:42.04Z</time></trkpt><trkpt lat="44.6310053" lon="10.1766651"><ele>409.0</ele><time>2026-04-10T15:29:43.04Z</time></trkpt><trkpt lat="44.6310701" lon="10.1766572"><ele>409.0</ele><time>2026-04-10T15:29:44.04Z</time></trkpt><trkpt lat="44.631175" lon="10.1766338"><ele>409.0</ele><time>2026-04-10T15:29:46.04Z</time></trkpt><trkpt lat="44.6312873" lon="10.1765825"><ele>409.0</ele><time>2026-04-10T15:29:48.04Z</time></trkpt><trkpt lat="44.6313699" lon="10.1765234"><ele>409.0</ele><time>2026-04-10T15:29:50.039Z</time></trkpt><trkpt lat="44.6313658" lon="10.1763837"><ele>403.0</ele><time>2026-04-10T15:29:53.039Z</time></trkpt><trkpt lat="44.6313313" lon="10.1762363"><ele>397.0</ele><time>2026-04-10T15:29:55.04Z</time></trkpt><trkpt lat="44.6313444" lon="10.1761258"><ele>391.0</ele><time>2026-04-10T15:29:57.04Z</time></trkpt><trkpt lat="44.6313774" lon="10.1760156"><ele>385.0</ele><time>2026-04-10T15:29:59.04Z</time></trkpt><trkpt lat="44.6314454" lon="10.1758798"><ele>379.0</ele><time>2026-04-10T15:30:01.04Z</time></trkpt><trkpt lat="44.6315225" lon="10.1757491"><ele>379.0</ele><time>2026-04-10T15:30:03.041Z</time></trkpt><trkpt lat="44.6316144" lon="10.1757653"><ele>379.0</ele><time>2026-04-10T15:30:05.04Z</time></trkpt><trkpt lat="44.63159" lon="10.1756552"><ele>379.0</ele><time>2026-04-10T15:30:06.04Z</time></trkpt><trkpt lat="44.6316231" lon="10.1755414"><ele>379.0</ele><time>2026-04-10T15:30:08.04Z</time></trkpt><trkpt lat="44.6316673" lon="10.1754305"><ele>379.0</ele><time>2026-04-10T15:30:10.039Z</time></trkpt><trkpt lat="44.6317088" lon="10.1753376"><ele>379.0</ele><time>2026-04-10T15:30:12.039Z</time></trkpt><trkpt lat="44.6317154" lon="10.1751889"><ele>375.79999999999995</ele><time>2026-04-10T15:30:15.04Z</time></trkpt><trkpt lat="44.6317137" lon="10.1750045"><ele>372.59999999999997</ele><time>2026-04-10T15:30:17.039Z</time></trkpt><trkpt lat="44.631725" lon="10.1749141"><ele>369.4</ele><time>2026-04-10T15:30:18.04Z</time></trkpt><trkpt lat="44.6317102" lon="10.1748114"><ele>366.2</ele><time>2026-04-10T15:30:19.04Z</time></trkpt><trkpt lat="44.6317317" lon="10.1746681"><ele>363.0</ele><time>2026-04-10T15:30:21.04Z</time></trkpt><trkpt lat="44.6317765" lon="10.1745313"><ele>361.3333333333333</ele><time>2026-04-10T15:30:23.039Z</time></trkpt><trkpt lat="44.6318169" lon="10.1743873"><ele>359.6666666666667</ele><time>2026-04-10T15:30:25.04Z</time></trkpt><trkpt lat="44.6318309" lon="10.1742793"><ele>358.0</ele><time>2026-04-10T15:30:26.039Z</time></trkpt><trkpt lat="44.6318627" lon="10.1741767"><ele>356.33333333333337</ele><time>2026-04-10T15:30:27.04Z</time></trkpt><trkpt lat="44.6318789" lon="10.1740898"><ele>354.6666666666667</ele><time>2026-04-10T15:30:28.04Z</time></trkpt><trkpt lat="44.6318959" lon="10.1739994"><ele>353.0</ele><time>2026-04-10T15:30:29.04Z</time></trkpt><trkpt lat="44.6319096" lon="10.1739106"><ele>350.2</ele><time>2026-04-10T15:30:30.04Z</time></trkpt><trkpt lat="44.6319199" lon="10.1737654"><ele>347.4</ele><time>2026-04-10T15:30:32.04Z</time></trkpt><trkpt lat="44.6319273" lon="10.1736327"><ele>344.59999999999997</ele><time>2026-04-10T15:30:34.039Z</time></trkpt><trkpt lat="44.6319281" lon="10.1735169"><ele>341.79999999999995</ele><time>2026-04-10T15:30:36.039Z</time></trkpt><trkpt lat="44.6318601" lon="10.1733878"><ele>339.0</ele><time>2026-04-10T15:30:38.039Z</time></trkpt><trkpt lat="44.631762" lon="10.1732926"><ele>339.0</ele><time>2026-04-10T15:30:40.039Z</time></trkpt><trkpt lat="44.6316863" lon="10.1732006"><ele>339.0</ele><time>2026-04-10T15:30:42.04Z</time></trkpt><trkpt lat="44.6316404" lon="10.1731232"><ele>339.0</ele><time>2026-04-10T15:30:44.039Z</time></trkpt><trkpt lat="44.6316259" lon="10.1729743"><ele>339.0</ele><time>2026-04-10T15:30:47.039Z</time></trkpt><trkpt lat="44.6316176" lon="10.1728798"><ele>339.0</ele><time>2026-04-10T15:30:48.04Z</time></trkpt><trkpt lat="44.6315974" lon="10.1726893"><ele>335.79999999999995</ele><time>2026-04-10T15:30:50.04Z</time></trkpt><trkpt lat="44.6316031" lon="10.1725142"><ele>332.59999999999997</ele><time>2026-04-10T15:30:52.039Z</time></trkpt><trkpt lat="44.6316098" lon="10.1723804"><ele>329.4</ele><time>2026-04-10T15:30:54.04Z</time></trkpt><trkpt lat="44.6316155" lon="10.172281"><ele>326.2</ele><time>2026-04-10T15:30:56.04Z</time></trkpt><trkpt lat="44.6317012" lon="10.1722161"><ele>323.0</ele><time>2026-04-10T15:30:58.04Z</time></trkpt><trkpt lat="44.6317984" lon="10.1721965"><ele>320.25</ele><time>2026-04-10T15:30:59.039Z</time></trkpt><trkpt lat="44.6319096" lon="10.1721986"><ele>317.5</ele><time>2026-04-10T15:31:00.04Z</time></trkpt><trkpt lat="44.6320329" lon="10.1721697"><ele>314.75</ele><time>2026-04-10T15:31:01.04Z</time></trkpt><trkpt lat="44.6321635" lon="10.172114"><ele>312.0</ele><time>2026-04-10T15:31:02.04Z</time></trkpt><trkpt lat="44.6322981" lon="10.1720238"><ele>312.0</ele><time>2026-04-10T15:31:03.04Z</time></trkpt><trkpt lat="44.6324322" lon="10.1719123"><ele>312.0</ele><time>2026-04-10T15:31:04.04Z</time></trkpt><trkpt lat="44.6325596" lon="10.1717992"><ele>312.0</ele><time>2026-04-10T15:31:05.041Z</time></trkpt><trkpt lat="44.6326951" lon="10.1717096"><ele>312.25</ele><time>2026-04-10T15:31:06.04Z</time></trkpt><trkpt lat="44.6328294" lon="10.171648"><ele>312.5</ele><time>2026-04-10T15:31:07.04Z</time></trkpt><trkpt lat="44.632967" lon="10.1716235"><ele>312.75</ele><time>2026-04-10T15:31:08.04Z</time></trkpt><trkpt lat="44.6330969" lon="10.171623"><ele>313.0</ele><time>2026-04-10T15:31:09.039Z</time></trkpt><trkpt lat="44.6332294" lon="10.1716653"><ele>313.0</ele><time>2026-04-10T15:31:10.04Z</time></trkpt><trkpt lat="44.6333592" lon="10.1717297"><ele>313.0</ele><time>2026-04-10T15:31:11.04Z</time></trkpt><trkpt lat="44.6334974" lon="10.1718025"><ele>313.0</ele><time>2026-04-10T15:31:12.038Z</time></trkpt><trkpt lat="44.6336468" lon="10.171873"><ele>313.0</ele><time>2026-04-10T15:31:13.039Z</time></trkpt><trkpt lat="44.6337974" lon="10.1719349"><ele>311.25</ele><time>2026-04-10T15:31:14.039Z</time></trkpt><trkpt lat="44.6339395" lon="10.1719795"><ele>309.5</ele><time>2026-04-10T15:31:15.038Z</time></trkpt><trkpt lat="44.6340728" lon="10.1720216"><ele>307.75</ele><time>2026-04-10T15:31:16.039Z</time></trkpt><trkpt lat="44.6342088" lon="10.1720647"><ele>306.0</ele><time>2026-04-10T15:31:17.039Z</time></trkpt><trkpt lat="44.6343454" lon="10.1721047"><ele>305.5</ele><time>2026-04-10T15:31:18.039Z</time></trkpt><trkpt lat="44.6344846" lon="10.1721536"><ele>305.0</ele><time>2026-04-10T15:31:19.038Z</time></trkpt><trkpt lat="44.6346227" lon="10.172221"><ele>304.5</ele><time>2026-04-10T15:31:20.039Z</time></trkpt><trkpt lat="44.6347616" lon="10.1723154"><ele>304.0</ele><time>2026-04-10T15:31:21.039Z</time></trkpt><trkpt lat="44.634902" lon="10.172431"><ele>303.66666666666663</ele><time>2026-04-10T15:31:22.039Z</time></trkpt><trkpt lat="44.6350437" lon="10.1725656"><ele>303.3333333333333</ele><time>2026-04-10T15:31:23.039Z</time></trkpt><trkpt lat="44.6351778" lon="10.1727081"><ele>303.0</ele><time>2026-04-10T15:31:24.039Z</time></trkpt><trkpt lat="44.6353069" lon="10.1728587"><ele>303.0</ele><time>2026-04-10T15:31:25.039Z</time></trkpt><trkpt lat="44.635432" lon="10.1730054"><ele>303.0</ele><time>2026-04-10T15:31:26.039Z</time></trkpt><trkpt lat="44.6355476" lon="10.1731409"><ele>303.0</ele><time>2026-04-10T15:31:27.039Z</time></trkpt><trkpt lat="44.6356603" lon="10.1732747"><ele>303.0</ele><time>2026-04-10T15:31:28.039Z</time></trkpt><trkpt lat="44.6357732" lon="10.1734102"><ele>303.0</ele><time>2026-04-10T15:31:29.039Z</time></trkpt><trkpt lat="44.635885" lon="10.1735417"><ele>303.0</ele><time>2026-04-10T15:31:30.039Z</time></trkpt><trkpt lat="44.6360001" lon="10.1736767"><ele>303.0</ele><time>2026-04-10T15:31:31.039Z</time></trkpt><trkpt lat="44.6361155" lon="10.1738149"><ele>302.3333333333333</ele><time>2026-04-10T15:31:32.038Z</time></trkpt><trkpt lat="44.6362345" lon="10.173965"><ele>301.66666666666663</ele><time>2026-04-10T15:31:33.038Z</time></trkpt><trkpt lat="44.6363511" lon="10.1741064"><ele>301.0</ele><time>2026-04-10T15:31:34.038Z</time></trkpt><trkpt lat="44.6364621" lon="10.1742373"><ele>301.0</ele><time>2026-04-10T15:31:35.038Z</time></trkpt><trkpt lat="44.6365849" lon="10.1743752"><ele>301.0</ele><time>2026-04-10T15:31:36.039Z</time></trkpt><trkpt lat="44.6367018" lon="10.1745174"><ele>301.0</ele><time>2026-04-10T15:31:37.039Z</time></trkpt><trkpt lat="44.6368169" lon="10.1746602"><ele>301.0</ele><time>2026-04-10T15:31:38.038Z</time></trkpt><trkpt lat="44.636935" lon="10.1748105"><ele>301.0</ele><time>2026-04-10T15:31:39.039Z</time></trkpt><trkpt lat="44.6370567" lon="10.1749602"><ele>301.0</ele><time>2026-04-10T15:31:40.038Z</time></trkpt><trkpt lat="44.6371723" lon="10.1751012"><ele>300.5</ele><time>2026-04-10T15:31:41.039Z</time></trkpt><trkpt lat="44.6372823" lon="10.1752319"><ele>300.0</ele><time>2026-04-10T15:31:42.039Z</time></trkpt><trkpt lat="44.6373925" lon="10.1753685"><ele>299.5</ele><time>2026-04-10T15:31:43.039Z</time></trkpt><trkpt lat="44.6375116" lon="10.1755086"><ele>299.0</ele><time>2026-04-10T15:31:44.038Z</time></trkpt><trkpt lat="44.6376321" lon="10.175655"><ele>298.6666666666667</ele><time>2026-04-10T15:31:45.039Z</time></trkpt><trkpt lat="44.6377528" lon="10.1758013"><ele>298.3333333333333</ele><time>2026-04-10T15:31:46.038Z</time></trkpt><trkpt lat="44.6378764" lon="10.1759518"><ele>298.0</ele><time>2026-04-10T15:31:47.039Z</time></trkpt><trkpt lat="44.6380044" lon="10.1761057"><ele>297.0</ele><time>2026-04-10T15:31:48.039Z</time></trkpt><trkpt lat="44.6381326" lon="10.1762571"><ele>296.0</ele><time>2026-04-10T15:31:49.039Z</time></trkpt><trkpt lat="44.6382641" lon="10.17641"><ele>295.0</ele><time>2026-04-10T15:31:50.038Z</time></trkpt><trkpt lat="44.6383928" lon="10.1765681"><ele>295.0</ele><time>2026-04-10T15:31:51.039Z</time></trkpt><trkpt lat="44.6385253" lon="10.1767303"><ele>295.0</ele><time>2026-04-10T15:31:52.039Z</time></trkpt><trkpt lat="44.6386612" lon="10.1768885"><ele>295.0</ele><time>2026-04-10T15:31:53.038Z</time></trkpt><trkpt lat="44.6387958" lon="10.1770507"><ele>294.66666666666663</ele><time>2026-04-10T15:31:54.039Z</time></trkpt><trkpt lat="44.6389326" lon="10.1772157"><ele>294.3333333333333</ele><time>2026-04-10T15:31:55.039Z</time></trkpt><trkpt lat="44.6390701" lon="10.1773852"><ele>294.0</ele><time>2026-04-10T15:31:56.039Z</time></trkpt><trkpt lat="44.6392072" lon="10.1775528"><ele>294.0</ele><time>2026-04-10T15:31:57.038Z</time></trkpt><trkpt lat="44.6393463" lon="10.1777215"><ele>294.0</ele><time>2026-04-10T15:31:58.039Z</time></trkpt><trkpt lat="44.6394842" lon="10.1778882"><ele>294.0</ele><time>2026-04-10T15:31:59.039Z</time></trkpt><trkpt lat="44.6396156" lon="10.1780489"><ele>293.6666666666667</ele><time>2026-04-10T15:32:00.038Z</time></trkpt><trkpt lat="44.6397512" lon="10.178211"><ele>293.33333333333337</ele><time>2026-04-10T15:32:01.039Z</time></trkpt><trkpt lat="44.6398881" lon="10.1783832"><ele>293.0</ele><time>2026-04-10T15:32:02.039Z</time></trkpt><trkpt lat="44.6400266" lon="10.1785572"><ele>293.0</ele><time>2026-04-10T15:32:03.038Z</time></trkpt><trkpt lat="44.6401688" lon="10.1787314"><ele>293.0</ele><time>2026-04-10T15:32:04.039Z</time></trkpt><trkpt lat="44.6403193" lon="10.1788995"><ele>293.0</ele><time>2026-04-10T15:32:05.039Z</time></trkpt><trkpt lat="44.6404754" lon="10.1790567"><ele>293.0</ele><time>2026-04-10T15:32:06.039Z</time></trkpt><trkpt lat="44.6406362" lon="10.1792033"><ele>293.0</ele><time>2026-04-10T15:32:07.039Z</time></trkpt><trkpt lat="44.6408048" lon="10.1793557"><ele>293.0</ele><time>2026-04-10T15:32:08.039Z</time></trkpt><trkpt lat="44.640978" lon="10.1795064"><ele>293.0</ele><time>2026-04-10T15:32:09.039Z</time></trkpt><trkpt lat="44.641151" lon="10.1796622"><ele>293.0</ele><time>2026-04-10T15:32:10.039Z</time></trkpt><trkpt lat="44.6413237" lon="10.1798249"><ele>293.0</ele><time>2026-04-10T15:32:11.039Z</time></trkpt><trkpt lat="44.6414987" lon="10.1799939"><ele>293.0</ele><time>2026-04-10T15:32:12.039Z</time></trkpt><trkpt lat="44.6416744" lon="10.1801577"><ele>293.0</ele><time>2026-04-10T15:32:13.039Z</time></trkpt><trkpt lat="44.6418502" lon="10.1803254"><ele>293.0</ele><time>2026-04-10T15:32:14.038Z</time></trkpt><trkpt lat="44.64203" lon="10.1804951"><ele>293.0</ele><time>2026-04-10T15:32:15.039Z</time></trkpt><trkpt lat="44.6422095" lon="10.1806657"><ele>293.0</ele><time>2026-04-10T15:32:16.039Z</time></trkpt><trkpt lat="44.642394" lon="10.1808367"><ele>293.0</ele><time>2026-04-10T15:32:17.039Z</time></trkpt><trkpt lat="44.6425808" lon="10.1810091"><ele>293.0</ele><time>2026-04-10T15:32:18.038Z</time></trkpt><trkpt lat="44.6427649" lon="10.1811824"><ele>293.0</ele><time>2026-04-10T15:32:19.039Z</time></trkpt><trkpt lat="44.6429419" lon="10.1813473"><ele>293.0</ele><time>2026-04-10T15:32:20.039Z</time></trkpt><trkpt lat="44.6431072" lon="10.1815044"><ele>293.0</ele><time>2026-04-10T15:32:21.039Z</time></trkpt><trkpt lat="44.6432644" lon="10.1816491"><ele>293.0</ele><time>2026-04-10T15:32:22.038Z</time></trkpt><trkpt lat="44.6434151" lon="10.1817959"><ele>293.0</ele><time>2026-04-10T15:32:23.039Z</time></trkpt><trkpt lat="44.6435659" lon="10.18194"><ele>293.6666666666667</ele><time>2026-04-10T15:32:24.039Z</time></trkpt><trkpt lat="44.6437017" lon="10.1820891"><ele>294.3333333333333</ele><time>2026-04-10T15:32:25.038Z</time></trkpt><trkpt lat="44.6438191" lon="10.1822472"><ele>295.0</ele><time>2026-04-10T15:32:26.039Z</time></trkpt><trkpt lat="44.6439276" lon="10.1823984"><ele>295.0</ele><time>2026-04-10T15:32:27.039Z</time></trkpt><trkpt lat="44.6440344" lon="10.1825444"><ele>295.0</ele><time>2026-04-10T15:32:28.039Z</time></trkpt><trkpt lat="44.6441508" lon="10.1826772"><ele>295.0</ele><time>2026-04-10T15:32:29.039Z</time></trkpt><trkpt lat="44.644287" lon="10.1827768"><ele>295.0</ele><time>2026-04-10T15:32:30.039Z</time></trkpt><trkpt lat="44.6444174" lon="10.1828639"><ele>295.0</ele><time>2026-04-10T15:32:31.039Z</time></trkpt><trkpt lat="44.6445838" lon="10.1829026"><ele>295.0</ele><time>2026-04-10T15:32:32.039Z</time></trkpt><trkpt lat="44.6447233" lon="10.1829621"><ele>296.3333333333333</ele><time>2026-04-10T15:32:33.039Z</time></trkpt><trkpt lat="44.644893" lon="10.1830265"><ele>297.6666666666667</ele><time>2026-04-10T15:32:34.039Z</time></trkpt><trkpt lat="44.6450641" lon="10.1831173"><ele>299.0</ele><time>2026-04-10T15:32:35.039Z</time></trkpt><trkpt lat="44.6452381" lon="10.1832346"><ele>296.0</ele><time>2026-04-10T15:32:36.038Z</time></trkpt><trkpt lat="44.6454124" lon="10.1833533"><ele>293.0</ele><time>2026-04-10T15:32:37.038Z</time></trkpt><trkpt lat="44.6455992" lon="10.1834718"><ele>290.0</ele><time>2026-04-10T15:32:38.039Z</time></trkpt><trkpt lat="44.6457792" lon="10.1835898"><ele>290.0</ele><time>2026-04-10T15:32:39.039Z</time></trkpt><trkpt lat="44.6459499" lon="10.1837222"><ele>290.0</ele><time>2026-04-10T15:32:40.039Z</time></trkpt><trkpt lat="44.6461107" lon="10.183885"><ele>290.0</ele><time>2026-04-10T15:32:41.039Z</time></trkpt><trkpt lat="44.6462545" lon="10.1840449"><ele>289.6666666666667</ele><time>2026-04-10T15:32:42.039Z</time></trkpt><trkpt lat="44.6463984" lon="10.1841852"><ele>289.3333333333333</ele><time>2026-04-10T15:32:43.039Z</time></trkpt><trkpt lat="44.6465385" lon="10.1842834"><ele>289.0</ele><time>2026-04-10T15:32:44.039Z</time></trkpt><trkpt lat="44.6467221" lon="10.184306"><ele>289.0</ele><time>2026-04-10T15:32:45.039Z</time></trkpt><trkpt lat="44.6469037" lon="10.1843213"><ele>289.0</ele><time>2026-04-10T15:32:46.039Z</time></trkpt><trkpt lat="44.6470937" lon="10.1843121"><ele>289.0</ele><time>2026-04-10T15:32:47.039Z</time></trkpt><trkpt lat="44.6472971" lon="10.1843034"><ele>288.66666666666663</ele><time>2026-04-10T15:32:48.039Z</time></trkpt><trkpt lat="44.6475143" lon="10.1842844"><ele>288.3333333333333</ele><time>2026-04-10T15:32:49.039Z</time></trkpt><trkpt lat="44.6477317" lon="10.1842639"><ele>288.0</ele><time>2026-04-10T15:32:50.038Z</time></trkpt><trkpt lat="44.6479524" lon="10.184243"><ele>287.6666666666667</ele><time>2026-04-10T15:32:51.039Z</time></trkpt><trkpt lat="44.6481747" lon="10.1842179"><ele>287.33333333333337</ele><time>2026-04-10T15:32:52.039Z</time></trkpt><trkpt lat="44.6483917" lon="10.1841929"><ele>287.0</ele><time>2026-04-10T15:32:53.039Z</time></trkpt><trkpt lat="44.6486114" lon="10.1841794"><ele>286.33333333333337</ele><time>2026-04-10T15:32:54.039Z</time></trkpt><trkpt lat="44.6488289" lon="10.1841922"><ele>285.6666666666667</ele><time>2026-04-10T15:32:55.039Z</time></trkpt><trkpt lat="44.6490449" lon="10.1842358"><ele>285.0</ele><time>2026-04-10T15:32:56.039Z</time></trkpt><trkpt lat="44.6492591" lon="10.184319"><ele>283.3333333333333</ele><time>2026-04-10T15:32:57.04Z</time></trkpt><trkpt lat="44.6494695" lon="10.1844237"><ele>281.66666666666663</ele><time>2026-04-10T15:32:58.038Z</time></trkpt><trkpt lat="44.6496699" lon="10.1845377"><ele>280.0</ele><time>2026-04-10T15:32:59.039Z</time></trkpt><trkpt lat="44.6498698" lon="10.1846483"><ele>280.0</ele><time>2026-04-10T15:33:00.04Z</time></trkpt><trkpt lat="44.6500709" lon="10.1847645"><ele>280.0</ele><time>2026-04-10T15:33:01.038Z</time></trkpt><trkpt lat="44.6502697" lon="10.1848777"><ele>280.0</ele><time>2026-04-10T15:33:02.039Z</time></trkpt><trkpt lat="44.6504623" lon="10.1849953"><ele>279.66666666666663</ele><time>2026-04-10T15:33:03.039Z</time></trkpt><trkpt lat="44.6506563" lon="10.185111"><ele>279.3333333333333</ele><time>2026-04-10T15:33:04.039Z</time></trkpt><trkpt lat="44.6508489" lon="10.1852289"><ele>279.0</ele><time>2026-04-10T15:33:05.039Z</time></trkpt><trkpt lat="44.651042" lon="10.1853384"><ele>279.0</ele><time>2026-04-10T15:33:06.039Z</time></trkpt><trkpt lat="44.6512361" lon="10.1854498"><ele>279.0</ele><time>2026-04-10T15:33:07.038Z</time></trkpt><trkpt lat="44.6514278" lon="10.1855657"><ele>279.0</ele><time>2026-04-10T15:33:08.04Z</time></trkpt><trkpt lat="44.6516161" lon="10.1856833"><ele>279.0</ele><time>2026-04-10T15:33:09.039Z</time></trkpt><trkpt lat="44.6518066" lon="10.1858001"><ele>279.0</ele><time>2026-04-10T15:33:10.039Z</time></trkpt><trkpt lat="44.6519941" lon="10.185907"><ele>279.0</ele><time>2026-04-10T15:33:11.038Z</time></trkpt><trkpt lat="44.6521774" lon="10.186019"><ele>277.0</ele><time>2026-04-10T15:33:12.039Z</time></trkpt><trkpt lat="44.6523553" lon="10.1861473"><ele>275.0</ele><time>2026-04-10T15:33:13.039Z</time></trkpt><trkpt lat="44.6525239" lon="10.1863027"><ele>273.0</ele><time>2026-04-10T15:33:14.039Z</time></trkpt><trkpt lat="44.6526847" lon="10.1864729"><ele>272.3333333333333</ele><time>2026-04-10T15:33:15.038Z</time></trkpt><trkpt lat="44.6528463" lon="10.1866541"><ele>271.66666666666663</ele><time>2026-04-10T15:33:16.039Z</time></trkpt><trkpt lat="44.6530111" lon="10.1868385"><ele>271.0</ele><time>2026-04-10T15:33:17.04Z</time></trkpt><trkpt lat="44.6531783" lon="10.1870168"><ele>271.0</ele><time>2026-04-10T15:33:18.039Z</time></trkpt><trkpt lat="44.6533442" lon="10.1871995"><ele>271.0</ele><time>2026-04-10T15:33:19.039Z</time></trkpt><trkpt lat="44.6535088" lon="10.1873839"><ele>271.0</ele><time>2026-04-10T15:33:20.039Z</time></trkpt><trkpt lat="44.6536736" lon="10.1875637"><ele>270.0</ele><time>2026-04-10T15:33:21.039Z</time></trkpt><trkpt lat="44.6538382" lon="10.1877411"><ele>269.0</ele><time>2026-04-10T15:33:22.039Z</time></trkpt><trkpt lat="44.6539977" lon="10.1879172"><ele>268.0</ele><time>2026-04-10T15:33:23.039Z</time></trkpt><trkpt lat="44.6541634" lon="10.188092"><ele>267.66666666666663</ele><time>2026-04-10T15:33:24.039Z</time></trkpt><trkpt lat="44.6543235" lon="10.1882727"><ele>267.3333333333333</ele><time>2026-04-10T15:33:25.039Z</time></trkpt><trkpt lat="44.6544815" lon="10.1884427"><ele>267.0</ele><time>2026-04-10T15:33:26.039Z</time></trkpt><trkpt lat="44.6546375" lon="10.1886124"><ele>267.0</ele><time>2026-04-10T15:33:27.039Z</time></trkpt><trkpt lat="44.6547935" lon="10.1887819"><ele>267.0</ele><time>2026-04-10T15:33:28.039Z</time></trkpt><trkpt lat="44.6549494" lon="10.1889477"><ele>267.0</ele><time>2026-04-10T15:33:29.039Z</time></trkpt><trkpt lat="44.6551039" lon="10.1891096"><ele>267.0</ele><time>2026-04-10T15:33:30.039Z</time></trkpt><trkpt lat="44.6552583" lon="10.1892662"><ele>267.0</ele><time>2026-04-10T15:33:31.038Z</time></trkpt><trkpt lat="44.655414" lon="10.1894154"><ele>267.0</ele><time>2026-04-10T15:33:32.039Z</time></trkpt><trkpt lat="44.655571" lon="10.1895609"><ele>267.0</ele><time>2026-04-10T15:33:33.039Z</time></trkpt><trkpt lat="44.6557306" lon="10.1897056"><ele>267.0</ele><time>2026-04-10T15:33:34.04Z</time></trkpt><trkpt lat="44.6558882" lon="10.1898546"><ele>267.0</ele><time>2026-04-10T15:33:35.038Z</time></trkpt><trkpt lat="44.6560469" lon="10.1900025"><ele>266.3333333333333</ele><time>2026-04-10T15:33:36.039Z</time></trkpt><trkpt lat="44.6562044" lon="10.1901453"><ele>265.66666666666663</ele><time>2026-04-10T15:33:37.039Z</time></trkpt><trkpt lat="44.6563583" lon="10.1902888"><ele>265.0</ele><time>2026-04-10T15:33:38.039Z</time></trkpt><trkpt lat="44.6565137" lon="10.1904314"><ele>265.0</ele><time>2026-04-10T15:33:39.038Z</time></trkpt><trkpt lat="44.6566642" lon="10.1905721"><ele>265.0</ele><time>2026-04-10T15:33:40.038Z</time></trkpt><trkpt lat="44.6568098" lon="10.1907157"><ele>265.0</ele><time>2026-04-10T15:33:41.039Z</time></trkpt><trkpt lat="44.6569569" lon="10.1908666"><ele>265.3333333333333</ele><time>2026-04-10T15:33:42.039Z</time></trkpt><trkpt lat="44.6571005" lon="10.1910331"><ele>265.6666666666667</ele><time>2026-04-10T15:33:43.039Z</time></trkpt><trkpt lat="44.6572341" lon="10.191216"><ele>266.0</ele><time>2026-04-10T15:33:44.038Z</time></trkpt><trkpt lat="44.6573545" lon="10.1914202"><ele>267.0</ele><time>2026-04-10T15:33:45.04Z</time></trkpt><trkpt lat="44.6574613" lon="10.1916432"><ele>268.0</ele><time>2026-04-10T15:33:46.04Z</time></trkpt><trkpt lat="44.657566" lon="10.1918715"><ele>269.0</ele><time>2026-04-10T15:33:47.039Z</time></trkpt><trkpt lat="44.6576725" lon="10.1921022"><ele>269.0</ele><time>2026-04-10T15:33:48.038Z</time></trkpt><trkpt lat="44.6577837" lon="10.1923324"><ele>269.0</ele><time>2026-04-10T15:33:49.039Z</time></trkpt><trkpt lat="44.6578952" lon="10.1925598"><ele>269.0</ele><time>2026-04-10T15:33:50.039Z</time></trkpt><trkpt lat="44.6580029" lon="10.1927895"><ele>269.33333333333337</ele><time>2026-04-10T15:33:51.038Z</time></trkpt><trkpt lat="44.6581086" lon="10.193021"><ele>269.6666666666667</ele><time>2026-04-10T15:33:52.038Z</time></trkpt><trkpt lat="44.6582114" lon="10.193254"><ele>270.0</ele><time>2026-04-10T15:33:53.039Z</time></trkpt><trkpt lat="44.658313" lon="10.1934882"><ele>270.0</ele><time>2026-04-10T15:33:54.039Z</time></trkpt><trkpt lat="44.6584179" lon="10.1937152"><ele>270.0</ele><time>2026-04-10T15:33:55.039Z</time></trkpt><trkpt lat="44.6585233" lon="10.1939408"><ele>270.0</ele><time>2026-04-10T15:33:56.038Z</time></trkpt><trkpt lat="44.6586262" lon="10.1941581"><ele>269.0</ele><time>2026-04-10T15:33:57.039Z</time></trkpt><trkpt lat="44.6587221" lon="10.1943745"><ele>268.0</ele><time>2026-04-10T15:33:58.039Z</time></trkpt><trkpt lat="44.6588114" lon="10.19458"><ele>267.0</ele><time>2026-04-10T15:33:59.038Z</time></trkpt><trkpt lat="44.6589001" lon="10.1947771"><ele>267.0</ele><time>2026-04-10T15:34:00.039Z</time></trkpt><trkpt lat="44.6589854" lon="10.1949722"><ele>267.0</ele><time>2026-04-10T15:34:01.039Z</time></trkpt><trkpt lat="44.6590722" lon="10.1951517"><ele>267.0</ele><time>2026-04-10T15:34:02.038Z</time></trkpt><trkpt lat="44.6591551" lon="10.1953286"><ele>267.0</ele><time>2026-04-10T15:34:03.039Z</time></trkpt><trkpt lat="44.6592493" lon="10.1955056"><ele>267.0</ele><time>2026-04-10T15:34:04.039Z</time></trkpt><trkpt lat="44.6593491" lon="10.1956852"><ele>267.0</ele><time>2026-04-10T15:34:05.039Z</time></trkpt><trkpt lat="44.6594566" lon="10.1958612"><ele>266.5</ele><time>2026-04-10T15:34:06.039Z</time></trkpt><trkpt lat="44.6595654" lon="10.1960242"><ele>266.0</ele><time>2026-04-10T15:34:07.039Z</time></trkpt><trkpt lat="44.6596714" lon="10.1961699"><ele>265.5</ele><time>2026-04-10T15:34:08.039Z</time></trkpt><trkpt lat="44.6597789" lon="10.1963002"><ele>265.0</ele><time>2026-04-10T15:34:09.038Z</time></trkpt><trkpt lat="44.6598896" lon="10.1964235"><ele>265.25</ele><time>2026-04-10T15:34:10.038Z</time></trkpt><trkpt lat="44.660005" lon="10.1965498"><ele>265.5</ele><time>2026-04-10T15:34:11.039Z</time></trkpt><trkpt lat="44.6601224" lon="10.1966855"><ele>265.75</ele><time>2026-04-10T15:34:12.039Z</time></trkpt><trkpt lat="44.660242" lon="10.1968157"><ele>266.0</ele><time>2026-04-10T15:34:13.039Z</time></trkpt><trkpt lat="44.6603553" lon="10.1969384"><ele>265.6</ele><time>2026-04-10T15:34:14.039Z</time></trkpt><trkpt lat="44.6604579" lon="10.1970495"><ele>265.20000000000005</ele><time>2026-04-10T15:34:15.038Z</time></trkpt><trkpt lat="44.6605509" lon="10.19715"><ele>264.79999999999995</ele><time>2026-04-10T15:34:16.038Z</time></trkpt><trkpt lat="44.6606316" lon="10.1972372"><ele>264.4</ele><time>2026-04-10T15:34:17.039Z</time></trkpt><trkpt lat="44.6606824" lon="10.1973024"><ele>264.0</ele><time>2026-04-10T15:34:18.039Z</time></trkpt><trkpt lat="44.6607464" lon="10.1974394"><ele>264.0</ele><time>2026-04-10T15:34:20.039Z</time></trkpt><trkpt lat="44.6607931" lon="10.1975233"><ele>264.0</ele><time>2026-04-10T15:34:22.039Z</time></trkpt><trkpt lat="44.6608549" lon="10.1975472"><ele>264.0</ele><time>2026-04-10T15:35:48.039Z</time></trkpt><trkpt lat="44.6609555" lon="10.1975925"><ele>264.0</ele><time>2026-04-10T15:35:50.039Z</time></trkpt><trkpt lat="44.6610181" lon="10.1976407"><ele>264.0</ele><time>2026-04-10T15:35:51.039Z</time></trkpt><trkpt lat="44.6610751" lon="10.1976979"><ele>264.0</ele><time>2026-04-10T15:35:52.039Z</time></trkpt><trkpt lat="44.6611428" lon="10.1977535"><ele>263.5</ele><time>2026-04-10T15:35:53.039Z</time></trkpt><trkpt lat="44.661277" lon="10.1978786"><ele>263.0</ele><time>2026-04-10T15:35:54.039Z</time></trkpt><trkpt lat="44.6613866" lon="10.1979879"><ele>262.5</ele><time>2026-04-10T15:35:55.039Z</time></trkpt><trkpt lat="44.6615082" lon="10.1981096"><ele>262.0</ele><time>2026-04-10T15:35:56.039Z</time></trkpt><trkpt lat="44.6616223" lon="10.1982239"><ele>262.0</ele><time>2026-04-10T15:35:57.039Z</time></trkpt><trkpt lat="44.6617199" lon="10.1983254"><ele>262.0</ele><time>2026-04-10T15:35:58.039Z</time></trkpt><trkpt lat="44.6617981" lon="10.1984201"><ele>262.0</ele><time>2026-04-10T15:35:59.039Z</time></trkpt><trkpt lat="44.6618614" lon="10.198537"><ele>262.0</ele><time>2026-04-10T15:36:00.039Z</time></trkpt><trkpt lat="44.6619075" lon="10.1986701"><ele>262.0</ele><time>2026-04-10T15:36:01.039Z</time></trkpt><trkpt lat="44.6619306" lon="10.1988192"><ele>262.0</ele><time>2026-04-10T15:36:02.039Z</time></trkpt><trkpt lat="44.6619388" lon="10.1989692"><ele>262.0</ele><time>2026-04-10T15:36:03.039Z</time></trkpt><trkpt lat="44.661958" lon="10.1990957"><ele>262.0</ele><time>2026-04-10T15:36:04.038Z</time></trkpt><trkpt lat="44.6619992" lon="10.1991977"><ele>262.0</ele><time>2026-04-10T15:36:05.039Z</time></trkpt><trkpt lat="44.6620616" lon="10.1992437"><ele>262.0</ele><time>2026-04-10T15:36:06.038Z</time></trkpt><trkpt lat="44.6621382" lon="10.1992651"><ele>262.0</ele><time>2026-04-10T15:36:07.039Z</time></trkpt><trkpt lat="44.6622252" lon="10.1992717"><ele>261.0</ele><time>2026-04-10T15:36:08.039Z</time></trkpt><trkpt lat="44.6623322" lon="10.1992837"><ele>260.0</ele><time>2026-04-10T15:36:09.039Z</time></trkpt><trkpt lat="44.6624521" lon="10.1993181"><ele>259.0</ele><time>2026-04-10T15:36:10.039Z</time></trkpt><trkpt lat="44.6625781" lon="10.1993679"><ele>258.0</ele><time>2026-04-10T15:36:11.039Z</time></trkpt><trkpt lat="44.6627132" lon="10.1994357"><ele>255.0</ele><time>2026-04-10T15:36:12.039Z</time></trkpt><trkpt lat="44.6628496" lon="10.1995281"><ele>252.0</ele><time>2026-04-10T15:36:13.039Z</time></trkpt><trkpt lat="44.6629852" lon="10.1996459"><ele>249.0</ele><time>2026-04-10T15:36:14.038Z</time></trkpt><trkpt lat="44.6631215" lon="10.1997752"><ele>250.25</ele><time>2026-04-10T15:36:15.039Z</time></trkpt><trkpt lat="44.6632561" lon="10.1999143"><ele>251.5</ele><time>2026-04-10T15:36:16.039Z</time></trkpt><trkpt lat="44.6633747" lon="10.2000335"><ele>252.75</ele><time>2026-04-10T15:36:17.039Z</time></trkpt><trkpt lat="44.663476" lon="10.2001404"><ele>254.0</ele><time>2026-04-10T15:36:18.039Z</time></trkpt><trkpt lat="44.6635592" lon="10.200225"><ele>253.16666666666669</ele><time>2026-04-10T15:36:19.039Z</time></trkpt><trkpt lat="44.6636224" lon="10.2002888"><ele>252.33333333333334</ele><time>2026-04-10T15:36:20.039Z</time></trkpt><trkpt lat="44.6637087" lon="10.2003775"><ele>251.5</ele><time>2026-04-10T15:36:22.039Z</time></trkpt><trkpt lat="44.663795" lon="10.2004414"><ele>250.66666666666669</ele><time>2026-04-10T15:36:24.039Z</time></trkpt><trkpt lat="44.6638513" lon="10.2005021"><ele>249.83333333333334</ele><time>2026-04-10T15:36:25.039Z</time></trkpt><trkpt lat="44.6639281" lon="10.2005731"><ele>249.0</ele><time>2026-04-10T15:36:26.039Z</time></trkpt><trkpt lat="44.6640141" lon="10.2006522"><ele>249.25</ele><time>2026-04-10T15:36:27.038Z</time></trkpt><trkpt lat="44.664115" lon="10.2007374"><ele>249.5</ele><time>2026-04-10T15:36:28.039Z</time></trkpt><trkpt lat="44.6642311" lon="10.2008302"><ele>249.75</ele><time>2026-04-10T15:36:29.039Z</time></trkpt><trkpt lat="44.6643622" lon="10.2009324"><ele>250.0</ele><time>2026-04-10T15:36:30.039Z</time></trkpt><trkpt lat="44.6644983" lon="10.2010359"><ele>250.0</ele><time>2026-04-10T15:36:31.039Z</time></trkpt><trkpt lat="44.664639" lon="10.2011423"><ele>250.0</ele><time>2026-04-10T15:36:32.039Z</time></trkpt><trkpt lat="44.6647879" lon="10.2012549"><ele>250.0</ele><time>2026-04-10T15:36:33.039Z</time></trkpt><trkpt lat="44.6649438" lon="10.2013724"><ele>250.0</ele><time>2026-04-10T15:36:34.039Z</time></trkpt><trkpt lat="44.6651032" lon="10.2014916"><ele>250.0</ele><time>2026-04-10T15:36:35.038Z</time></trkpt><trkpt lat="44.6652651" lon="10.2016054"><ele>250.0</ele><time>2026-04-10T15:36:36.039Z</time></trkpt><trkpt lat="44.6654249" lon="10.2017253"><ele>250.0</ele><time>2026-04-10T15:36:37.039Z</time></trkpt><trkpt lat="44.6655787" lon="10.2018395"><ele>250.0</ele><time>2026-04-10T15:36:38.038Z</time></trkpt><trkpt lat="44.6657286" lon="10.2019494"><ele>250.0</ele><time>2026-04-10T15:36:39.038Z</time></trkpt><trkpt lat="44.6658846" lon="10.2020666"><ele>250.0</ele><time>2026-04-10T15:36:40.039Z</time></trkpt><trkpt lat="44.6660429" lon="10.2021794"><ele>250.0</ele><time>2026-04-10T15:36:41.039Z</time></trkpt><trkpt lat="44.6662065" lon="10.2022988"><ele>250.0</ele><time>2026-04-10T15:36:42.04Z</time></trkpt><trkpt lat="44.6663679" lon="10.2024229"><ele>249.0</ele><time>2026-04-10T15:36:43.038Z</time></trkpt><trkpt lat="44.6665288" lon="10.2025381"><ele>248.0</ele><time>2026-04-10T15:36:44.039Z</time></trkpt><trkpt lat="44.666692" lon="10.2026585"><ele>247.0</ele><time>2026-04-10T15:36:45.039Z</time></trkpt><trkpt lat="44.6668491" lon="10.2027889"><ele>246.33333333333331</ele><time>2026-04-10T15:36:46.039Z</time></trkpt><trkpt lat="44.6669996" lon="10.202942"><ele>245.66666666666669</ele><time>2026-04-10T15:36:47.039Z</time></trkpt><trkpt lat="44.6671376" lon="10.2031166"><ele>245.0</ele><time>2026-04-10T15:36:48.039Z</time></trkpt><trkpt lat="44.6672626" lon="10.2033172"><ele>245.0</ele><time>2026-04-10T15:36:49.038Z</time></trkpt><trkpt lat="44.6673833" lon="10.2035193"><ele>245.0</ele><time>2026-04-10T15:36:50.038Z</time></trkpt><trkpt lat="44.6675083" lon="10.2037235"><ele>245.0</ele><time>2026-04-10T15:36:51.039Z</time></trkpt><trkpt lat="44.6676388" lon="10.2039363"><ele>244.66666666666669</ele><time>2026-04-10T15:36:52.039Z</time></trkpt><trkpt lat="44.6677688" lon="10.2041444"><ele>244.33333333333331</ele><time>2026-04-10T15:36:53.039Z</time></trkpt><trkpt lat="44.6679027" lon="10.2043601"><ele>244.0</ele><time>2026-04-10T15:36:54.039Z</time></trkpt><trkpt lat="44.6680329" lon="10.2045704"><ele>243.66666666666666</ele><time>2026-04-10T15:36:55.039Z</time></trkpt><trkpt lat="44.6681585" lon="10.2047792"><ele>243.33333333333331</ele><time>2026-04-10T15:36:56.039Z</time></trkpt><trkpt lat="44.6682846" lon="10.2049849"><ele>243.0</ele><time>2026-04-10T15:36:57.039Z</time></trkpt><trkpt lat="44.6684109" lon="10.2051925"><ele>242.33333333333331</ele><time>2026-04-10T15:36:58.039Z</time></trkpt><trkpt lat="44.668543" lon="10.2054041"><ele>241.66666666666666</ele><time>2026-04-10T15:36:59.039Z</time></trkpt><trkpt lat="44.6686745" lon="10.2056215"><ele>241.0</ele><time>2026-04-10T15:37:00.038Z</time></trkpt><trkpt lat="44.6688036" lon="10.2058289"><ele>239.33333333333331</ele><time>2026-04-10T15:37:01.039Z</time></trkpt><trkpt lat="44.6689296" lon="10.2060349"><ele>237.66666666666669</ele><time>2026-04-10T15:37:02.038Z</time></trkpt><trkpt lat="44.6690489" lon="10.2062254"><ele>236.0</ele><time>2026-04-10T15:37:03.039Z</time></trkpt><trkpt lat="44.6691612" lon="10.2063969"><ele>236.0</ele><time>2026-04-10T15:37:04.038Z</time></trkpt><trkpt lat="44.6692735" lon="10.2065516"><ele>236.0</ele><time>2026-04-10T15:37:05.039Z</time></trkpt><trkpt lat="44.6693933" lon="10.2066972"><ele>236.0</ele><time>2026-04-10T15:37:06.039Z</time></trkpt><trkpt lat="44.6695256" lon="10.2067908"><ele>235.66666666666669</ele><time>2026-04-10T15:37:07.039Z</time></trkpt><trkpt lat="44.6696717" lon="10.2068582"><ele>235.33333333333331</ele><time>2026-04-10T15:37:08.038Z</time></trkpt><trkpt lat="44.6698286" lon="10.2069053"><ele>235.0</ele><time>2026-04-10T15:37:09.038Z</time></trkpt><trkpt lat="44.669987" lon="10.2069427"><ele>235.0</ele><time>2026-04-10T15:37:10.039Z</time></trkpt><trkpt lat="44.6701451" lon="10.2069714"><ele>235.0</ele><time>2026-04-10T15:37:11.039Z</time></trkpt><trkpt lat="44.6702927" lon="10.2070005"><ele>235.0</ele><time>2026-04-10T15:37:12.038Z</time></trkpt><trkpt lat="44.6704347" lon="10.2070282"><ele>234.25</ele><time>2026-04-10T15:37:13.039Z</time></trkpt><trkpt lat="44.6705694" lon="10.2070573"><ele>233.5</ele><time>2026-04-10T15:37:14.038Z</time></trkpt><trkpt lat="44.6707061" lon="10.2070825"><ele>232.75</ele><time>2026-04-10T15:37:15.039Z</time></trkpt><trkpt lat="44.6708373" lon="10.2071037"><ele>232.0</ele><time>2026-04-10T15:37:16.038Z</time></trkpt><trkpt lat="44.6709637" lon="10.2071245"><ele>232.0</ele><time>2026-04-10T15:37:17.039Z</time></trkpt><trkpt lat="44.6710852" lon="10.2071581"><ele>232.0</ele><time>2026-04-10T15:37:18.039Z</time></trkpt><trkpt lat="44.6712046" lon="10.207211"><ele>232.0</ele><time>2026-04-10T15:37:19.038Z</time></trkpt><trkpt lat="44.6713246" lon="10.2072868"><ele>232.0</ele><time>2026-04-10T15:37:20.038Z</time></trkpt><trkpt lat="44.6714376" lon="10.2073769"><ele>232.25</ele><time>2026-04-10T15:37:21.039Z</time></trkpt><trkpt lat="44.671546" lon="10.2074814"><ele>232.5</ele><time>2026-04-10T15:37:22.039Z</time></trkpt><trkpt lat="44.671655" lon="10.2076038"><ele>232.75</ele><time>2026-04-10T15:37:23.039Z</time></trkpt><trkpt lat="44.6717641" lon="10.2077289"><ele>233.0</ele><time>2026-04-10T15:37:24.038Z</time></trkpt><trkpt lat="44.6718752" lon="10.207856"><ele>233.0</ele><time>2026-04-10T15:37:25.039Z</time></trkpt><trkpt lat="44.6719913" lon="10.2079882"><ele>233.0</ele><time>2026-04-10T15:37:26.039Z</time></trkpt><trkpt lat="44.672109" lon="10.2081217"><ele>233.0</ele><time>2026-04-10T15:37:27.04Z</time></trkpt><trkpt lat="44.6722282" lon="10.2082577"><ele>233.0</ele><time>2026-04-10T15:37:28.039Z</time></trkpt><trkpt lat="44.6723481" lon="10.208399"><ele>233.0</ele><time>2026-04-10T15:37:29.039Z</time></trkpt><trkpt lat="44.672469" lon="10.2085445"><ele>233.0</ele><time>2026-04-10T15:37:30.039Z</time></trkpt><trkpt lat="44.6725913" lon="10.2086897"><ele>233.0</ele><time>2026-04-10T15:37:31.039Z</time></trkpt><trkpt lat="44.6727155" lon="10.2088391"><ele>233.0</ele><time>2026-04-10T15:37:32.039Z</time></trkpt><trkpt lat="44.6728444" lon="10.2089901"><ele>233.0</ele><time>2026-04-10T15:37:33.038Z</time></trkpt><trkpt lat="44.672977" lon="10.2091434"><ele>232.33333333333334</ele><time>2026-04-10T15:37:34.038Z</time></trkpt><trkpt lat="44.6730993" lon="10.2092938"><ele>231.66666666666669</ele><time>2026-04-10T15:37:35.039Z</time></trkpt><trkpt lat="44.6732235" lon="10.2094392"><ele>231.0</ele><time>2026-04-10T15:37:36.039Z</time></trkpt><trkpt lat="44.6733605" lon="10.2096038"><ele>231.0</ele><time>2026-04-10T15:37:37.039Z</time></trkpt><trkpt lat="44.6734972" lon="10.2097632"><ele>231.0</ele><time>2026-04-10T15:37:38.039Z</time></trkpt><trkpt lat="44.6736382" lon="10.2099284"><ele>231.0</ele><time>2026-04-10T15:37:39.039Z</time></trkpt><trkpt lat="44.673776" lon="10.2100906"><ele>230.33333333333331</ele><time>2026-04-10T15:37:40.038Z</time></trkpt><trkpt lat="44.6739232" lon="10.2102605"><ele>229.66666666666666</ele><time>2026-04-10T15:37:41.039Z</time></trkpt><trkpt lat="44.6740701" lon="10.2104357"><ele>229.0</ele><time>2026-04-10T15:37:42.039Z</time></trkpt><trkpt lat="44.6742187" lon="10.2106206"><ele>229.66666666666666</ele><time>2026-04-10T15:37:43.039Z</time></trkpt><trkpt lat="44.6743644" lon="10.2108104"><ele>230.33333333333331</ele><time>2026-04-10T15:37:44.039Z</time></trkpt><trkpt lat="44.6745135" lon="10.2110015"><ele>231.0</ele><time>2026-04-10T15:37:45.039Z</time></trkpt><trkpt lat="44.6746708" lon="10.2111849"><ele>230.0</ele><time>2026-04-10T15:37:46.038Z</time></trkpt><trkpt lat="44.6748326" lon="10.2113598"><ele>229.0</ele><time>2026-04-10T15:37:47.039Z</time></trkpt><trkpt lat="44.6750038" lon="10.2115225"><ele>228.0</ele><time>2026-04-10T15:37:48.039Z</time></trkpt><trkpt lat="44.6751799" lon="10.2116783"><ele>226.33333333333331</ele><time>2026-04-10T15:37:49.039Z</time></trkpt><trkpt lat="44.6753594" lon="10.2118269"><ele>224.66666666666666</ele><time>2026-04-10T15:37:50.038Z</time></trkpt><trkpt lat="44.6755371" lon="10.2119751"><ele>223.0</ele><time>2026-04-10T15:37:51.039Z</time></trkpt><trkpt lat="44.6757101" lon="10.2121315"><ele>223.0</ele><time>2026-04-10T15:37:52.039Z</time></trkpt><trkpt lat="44.6758705" lon="10.2123031"><ele>223.0</ele><time>2026-04-10T15:37:53.039Z</time></trkpt><trkpt lat="44.6760243" lon="10.2124824"><ele>223.0</ele><time>2026-04-10T15:37:54.039Z</time></trkpt><trkpt lat="44.6761775" lon="10.2126612"><ele>222.66666666666666</ele><time>2026-04-10T15:37:55.038Z</time></trkpt><trkpt lat="44.6763342" lon="10.2128481"><ele>222.33333333333331</ele><time>2026-04-10T15:37:56.039Z</time></trkpt><trkpt lat="44.676493" lon="10.2130364"><ele>222.0</ele><time>2026-04-10T15:37:57.039Z</time></trkpt><trkpt lat="44.6766521" lon="10.2132287"><ele>221.66666666666669</ele><time>2026-04-10T15:37:58.039Z</time></trkpt><trkpt lat="44.6768124" lon="10.2134258"><ele>221.33333333333334</ele><time>2026-04-10T15:37:59.038Z</time></trkpt><trkpt lat="44.6769751" lon="10.2136265"><ele>221.0</ele><time>2026-04-10T15:38:00.039Z</time></trkpt><trkpt lat="44.6771458" lon="10.2138092"><ele>220.0</ele><time>2026-04-10T15:38:01.039Z</time></trkpt><trkpt lat="44.6773196" lon="10.2139669"><ele>219.0</ele><time>2026-04-10T15:38:02.039Z</time></trkpt><trkpt lat="44.6775017" lon="10.2141077"><ele>218.0</ele><time>2026-04-10T15:38:03.038Z</time></trkpt><trkpt lat="44.6776922" lon="10.2142315"><ele>216.66666666666669</ele><time>2026-04-10T15:38:04.039Z</time></trkpt><trkpt lat="44.6778894" lon="10.2143566"><ele>215.33333333333331</ele><time>2026-04-10T15:38:05.039Z</time></trkpt><trkpt lat="44.6780909" lon="10.2144635"><ele>214.0</ele><time>2026-04-10T15:38:06.039Z</time></trkpt><trkpt lat="44.6782968" lon="10.2145628"><ele>214.0</ele><time>2026-04-10T15:38:07.039Z</time></trkpt><trkpt lat="44.6785062" lon="10.2146488"><ele>214.0</ele><time>2026-04-10T15:38:08.039Z</time></trkpt><trkpt lat="44.6787118" lon="10.2147246"><ele>214.0</ele><time>2026-04-10T15:38:09.039Z</time></trkpt><trkpt lat="44.6789164" lon="10.2147975"><ele>214.0</ele><time>2026-04-10T15:38:10.038Z</time></trkpt><trkpt lat="44.6791151" lon="10.2148857"><ele>214.0</ele><time>2026-04-10T15:38:11.039Z</time></trkpt><trkpt lat="44.6793132" lon="10.2149861"><ele>214.0</ele><time>2026-04-10T15:38:12.038Z</time></trkpt><trkpt lat="44.6795068" lon="10.2150998"><ele>213.66666666666666</ele><time>2026-04-10T15:38:13.039Z</time></trkpt><trkpt lat="44.6796992" lon="10.2152271"><ele>213.33333333333331</ele><time>2026-04-10T15:38:14.038Z</time></trkpt><trkpt lat="44.6798841" lon="10.2153717"><ele>213.0</ele><time>2026-04-10T15:38:15.037Z</time></trkpt><trkpt lat="44.6800582" lon="10.2155364"><ele>212.66666666666669</ele><time>2026-04-10T15:38:16.038Z</time></trkpt><trkpt lat="44.6802242" lon="10.2157186"><ele>212.33333333333334</ele><time>2026-04-10T15:38:17.038Z</time></trkpt><trkpt lat="44.6803798" lon="10.2159139"><ele>212.0</ele><time>2026-04-10T15:38:18.038Z</time></trkpt><trkpt lat="44.6805345" lon="10.2161059"><ele>211.66666666666669</ele><time>2026-04-10T15:38:19.039Z</time></trkpt><trkpt lat="44.6806894" lon="10.2163015"><ele>211.33333333333331</ele><time>2026-04-10T15:38:20.038Z</time></trkpt><trkpt lat="44.6808429" lon="10.2164917"><ele>211.0</ele><time>2026-04-10T15:38:21.039Z</time></trkpt><trkpt lat="44.6809953" lon="10.2166823"><ele>210.66666666666666</ele><time>2026-04-10T15:38:22.038Z</time></trkpt><trkpt lat="44.6811482" lon="10.2168736"><ele>210.33333333333331</ele><time>2026-04-10T15:38:23.038Z</time></trkpt><trkpt lat="44.6813005" lon="10.2170583"><ele>210.0</ele><time>2026-04-10T15:38:24.038Z</time></trkpt><trkpt lat="44.6814531" lon="10.2172443"><ele>210.0</ele><time>2026-04-10T15:38:25.038Z</time></trkpt><trkpt lat="44.6816042" lon="10.2174287"><ele>210.0</ele><time>2026-04-10T15:38:26.038Z</time></trkpt><trkpt lat="44.6817557" lon="10.2176103"><ele>210.0</ele><time>2026-04-10T15:38:27.037Z</time></trkpt><trkpt lat="44.6819057" lon="10.2177841"><ele>209.33333333333331</ele><time>2026-04-10T15:38:28.038Z</time></trkpt><trkpt lat="44.6820559" lon="10.2179597"><ele>208.66666666666666</ele><time>2026-04-10T15:38:29.038Z</time></trkpt><trkpt lat="44.6822024" lon="10.2181384"><ele>208.0</ele><time>2026-04-10T15:38:30.037Z</time></trkpt><trkpt lat="44.6823505" lon="10.2183112"><ele>208.0</ele><time>2026-04-10T15:38:31.038Z</time></trkpt><trkpt lat="44.6824973" lon="10.2184807"><ele>208.0</ele><time>2026-04-10T15:38:32.038Z</time></trkpt><trkpt lat="44.6826403" lon="10.2186442"><ele>208.0</ele><time>2026-04-10T15:38:33.037Z</time></trkpt><trkpt lat="44.6827736" lon="10.2187993"><ele>208.0</ele><time>2026-04-10T15:38:34.038Z</time></trkpt><trkpt lat="44.6829058" lon="10.2189524"><ele>208.0</ele><time>2026-04-10T15:38:35.038Z</time></trkpt><trkpt lat="44.6830375" lon="10.2190992"><ele>208.0</ele><time>2026-04-10T15:38:36.037Z</time></trkpt><trkpt lat="44.6831747" lon="10.2192461"><ele>208.0</ele><time>2026-04-10T15:38:37.038Z</time></trkpt><trkpt lat="44.683317" lon="10.2193988"><ele>208.0</ele><time>2026-04-10T15:38:38.038Z</time></trkpt><trkpt lat="44.6834619" lon="10.2195583"><ele>208.0</ele><time>2026-04-10T15:38:39.038Z</time></trkpt><trkpt lat="44.6836066" lon="10.2197196"><ele>207.66666666666666</ele><time>2026-04-10T15:38:40.038Z</time></trkpt><trkpt lat="44.6837477" lon="10.2198876"><ele>207.33333333333331</ele><time>2026-04-10T15:38:41.038Z</time></trkpt><trkpt lat="44.6838938" lon="10.2200562"><ele>207.0</ele><time>2026-04-10T15:38:42.038Z</time></trkpt><trkpt lat="44.6840361" lon="10.2202261"><ele>207.0</ele><time>2026-04-10T15:38:43.037Z</time></trkpt><trkpt lat="44.6841812" lon="10.2204006"><ele>207.0</ele><time>2026-04-10T15:38:44.038Z</time></trkpt><trkpt lat="44.6843282" lon="10.2205714"><ele>207.0</ele><time>2026-04-10T15:38:45.038Z</time></trkpt><trkpt lat="44.6844799" lon="10.2207326"><ele>206.66666666666669</ele><time>2026-04-10T15:38:46.038Z</time></trkpt><trkpt lat="44.6846311" lon="10.2208972"><ele>206.33333333333334</ele><time>2026-04-10T15:38:47.038Z</time></trkpt><trkpt lat="44.6847808" lon="10.2210687"><ele>206.0</ele><time>2026-04-10T15:38:48.037Z</time></trkpt><trkpt lat="44.6849258" lon="10.2212399"><ele>206.0</ele><time>2026-04-10T15:38:49.038Z</time></trkpt><trkpt lat="44.6850697" lon="10.221412"><ele>206.0</ele><time>2026-04-10T15:38:50.038Z</time></trkpt><trkpt lat="44.6852152" lon="10.2215938"><ele>206.0</ele><time>2026-04-10T15:38:51.039Z</time></trkpt><trkpt lat="44.6853582" lon="10.2217857"><ele>206.0</ele><time>2026-04-10T15:38:52.038Z</time></trkpt><trkpt lat="44.6855048" lon="10.2219792"><ele>206.0</ele><time>2026-04-10T15:38:53.038Z</time></trkpt><trkpt lat="44.6856528" lon="10.2221788"><ele>206.0</ele><time>2026-04-10T15:38:54.038Z</time></trkpt><trkpt lat="44.6858033" lon="10.2223809"><ele>206.0</ele><time>2026-04-10T15:38:55.038Z</time></trkpt><trkpt lat="44.6859543" lon="10.2225827"><ele>206.0</ele><time>2026-04-10T15:38:56.038Z</time></trkpt><trkpt lat="44.6861061" lon="10.2227872"><ele>206.0</ele><time>2026-04-10T15:38:57.037Z</time></trkpt><trkpt lat="44.6862583" lon="10.2230002"><ele>205.0</ele><time>2026-04-10T15:38:58.038Z</time></trkpt><trkpt lat="44.6864098" lon="10.2232107"><ele>204.0</ele><time>2026-04-10T15:38:59.038Z</time></trkpt><trkpt lat="44.6865631" lon="10.223421"><ele>203.0</ele><time>2026-04-10T15:39:00.037Z</time></trkpt><trkpt lat="44.6867172" lon="10.2236308"><ele>203.0</ele><time>2026-04-10T15:39:01.038Z</time></trkpt><trkpt lat="44.6868754" lon="10.2238415"><ele>203.0</ele><time>2026-04-10T15:39:02.038Z</time></trkpt><trkpt lat="44.687031" lon="10.2240555"><ele>203.0</ele><time>2026-04-10T15:39:03.037Z</time></trkpt><trkpt lat="44.687183" lon="10.2242734"><ele>202.0</ele><time>2026-04-10T15:39:04.039Z</time></trkpt><trkpt lat="44.6873353" lon="10.2244897"><ele>201.0</ele><time>2026-04-10T15:39:05.038Z</time></trkpt><trkpt lat="44.6874897" lon="10.2246982"><ele>200.0</ele><time>2026-04-10T15:39:06.038Z</time></trkpt><trkpt lat="44.6876444" lon="10.2249087"><ele>199.33333333333334</ele><time>2026-04-10T15:39:07.038Z</time></trkpt><trkpt lat="44.6877978" lon="10.2251108"><ele>198.66666666666669</ele><time>2026-04-10T15:39:08.038Z</time></trkpt><trkpt lat="44.6879552" lon="10.2253063"><ele>198.0</ele><time>2026-04-10T15:39:09.038Z</time></trkpt><trkpt lat="44.6881197" lon="10.225495"><ele>198.33333333333331</ele><time>2026-04-10T15:39:10.037Z</time></trkpt><trkpt lat="44.6882822" lon="10.2256746"><ele>198.66666666666666</ele><time>2026-04-10T15:39:11.038Z</time></trkpt><trkpt lat="44.6884495" lon="10.2258593"><ele>199.0</ele><time>2026-04-10T15:39:12.038Z</time></trkpt><trkpt lat="44.6886161" lon="10.2260365"><ele>199.0</ele><time>2026-04-10T15:39:13.038Z</time></trkpt><trkpt lat="44.6887807" lon="10.2262143"><ele>199.0</ele><time>2026-04-10T15:39:14.038Z</time></trkpt><trkpt lat="44.688947" lon="10.2263905"><ele>199.0</ele><time>2026-04-10T15:39:15.038Z</time></trkpt><trkpt lat="44.6891156" lon="10.2265715"><ele>198.66666666666666</ele><time>2026-04-10T15:39:16.039Z</time></trkpt><trkpt lat="44.6892858" lon="10.226752"><ele>198.33333333333331</ele><time>2026-04-10T15:39:17.038Z</time></trkpt><trkpt lat="44.6894565" lon="10.2269303"><ele>198.0</ele><time>2026-04-10T15:39:18.038Z</time></trkpt><trkpt lat="44.6896263" lon="10.227109"><ele>197.66666666666669</ele><time>2026-04-10T15:39:19.038Z</time></trkpt><trkpt lat="44.6897944" lon="10.2272948"><ele>197.33333333333334</ele><time>2026-04-10T15:39:20.038Z</time></trkpt><trkpt lat="44.6899656" lon="10.2274774"><ele>197.0</ele><time>2026-04-10T15:39:21.038Z</time></trkpt><trkpt lat="44.6901393" lon="10.2276618"><ele>196.66666666666669</ele><time>2026-04-10T15:39:22.037Z</time></trkpt><trkpt lat="44.6903133" lon="10.2278416"><ele>196.33333333333331</ele><time>2026-04-10T15:39:23.038Z</time></trkpt><trkpt lat="44.6904945" lon="10.2280106"><ele>196.0</ele><time>2026-04-10T15:39:24.038Z</time></trkpt><trkpt lat="44.6906831" lon="10.2281661"><ele>196.0</ele><time>2026-04-10T15:39:25.038Z</time></trkpt><trkpt lat="44.6908771" lon="10.2283075"><ele>196.0</ele><time>2026-04-10T15:39:26.038Z</time></trkpt><trkpt lat="44.691076" lon="10.2284402"><ele>196.0</ele><time>2026-04-10T15:39:27.038Z</time></trkpt><trkpt lat="44.6912761" lon="10.2285739"><ele>195.66666666666666</ele><time>2026-04-10T15:39:28.037Z</time></trkpt><trkpt lat="44.6914793" lon="10.2287035"><ele>195.33333333333331</ele><time>2026-04-10T15:39:29.038Z</time></trkpt><trkpt lat="44.6916771" lon="10.2288296"><ele>195.0</ele><time>2026-04-10T15:39:30.038Z</time></trkpt><trkpt lat="44.6918746" lon="10.2289539"><ele>194.33333333333331</ele><time>2026-04-10T15:39:31.038Z</time></trkpt><trkpt lat="44.6920709" lon="10.2290838"><ele>193.66666666666666</ele><time>2026-04-10T15:39:32.037Z</time></trkpt><trkpt lat="44.6922712" lon="10.2292144"><ele>193.0</ele><time>2026-04-10T15:39:33.038Z</time></trkpt><trkpt lat="44.6924735" lon="10.2293419"><ele>193.0</ele><time>2026-04-10T15:39:34.038Z</time></trkpt><trkpt lat="44.6926748" lon="10.2294628"><ele>193.0</ele><time>2026-04-10T15:39:35.038Z</time></trkpt><trkpt lat="44.69288" lon="10.2295831"><ele>193.0</ele><time>2026-04-10T15:39:36.037Z</time></trkpt><trkpt lat="44.693086" lon="10.229689"><ele>192.66666666666666</ele><time>2026-04-10T15:39:37.038Z</time></trkpt><trkpt lat="44.6932946" lon="10.2297972"><ele>192.33333333333331</ele><time>2026-04-10T15:39:38.038Z</time></trkpt><trkpt lat="44.6935035" lon="10.2299033"><ele>192.0</ele><time>2026-04-10T15:39:39.038Z</time></trkpt><trkpt lat="44.6937121" lon="10.2300046"><ele>191.0</ele><time>2026-04-10T15:39:40.037Z</time></trkpt><trkpt lat="44.6939197" lon="10.2301057"><ele>190.0</ele><time>2026-04-10T15:39:41.038Z</time></trkpt><trkpt lat="44.6941314" lon="10.2302112"><ele>189.0</ele><time>2026-04-10T15:39:42.038Z</time></trkpt><trkpt lat="44.6943415" lon="10.230316"><ele>188.33333333333334</ele><time>2026-04-10T15:39:43.037Z</time></trkpt><trkpt lat="44.6945517" lon="10.2304187"><ele>187.66666666666669</ele><time>2026-04-10T15:39:44.037Z</time></trkpt><trkpt lat="44.6947555" lon="10.230523"><ele>187.0</ele><time>2026-04-10T15:39:45.038Z</time></trkpt><trkpt lat="44.6949442" lon="10.2306183"><ele>187.33333333333334</ele><time>2026-04-10T15:39:46.038Z</time></trkpt><trkpt lat="44.6951243" lon="10.2307065"><ele>187.66666666666666</ele><time>2026-04-10T15:39:47.039Z</time></trkpt><trkpt lat="44.6952884" lon="10.2307918"><ele>188.0</ele><time>2026-04-10T15:39:48.037Z</time></trkpt><trkpt lat="44.6954312" lon="10.2308747"><ele>187.5</ele><time>2026-04-10T15:39:49.038Z</time></trkpt><trkpt lat="44.6955613" lon="10.2309611"><ele>187.0</ele><time>2026-04-10T15:39:50.038Z</time></trkpt><trkpt lat="44.6956706" lon="10.231057"><ele>186.5</ele><time>2026-04-10T15:39:51.037Z</time></trkpt><trkpt lat="44.6957738" lon="10.2311364"><ele>186.0</ele><time>2026-04-10T15:39:52.037Z</time></trkpt><trkpt lat="44.6958807" lon="10.2311807"><ele>186.0</ele><time>2026-04-10T15:39:53.039Z</time></trkpt><trkpt lat="44.6959851" lon="10.2312128"><ele>186.0</ele><time>2026-04-10T15:39:54.037Z</time></trkpt><trkpt lat="44.6960983" lon="10.2312624"><ele>186.0</ele><time>2026-04-10T15:39:55.037Z</time></trkpt><trkpt lat="44.696225" lon="10.2313367"><ele>186.0</ele><time>2026-04-10T15:39:56.038Z</time></trkpt><trkpt lat="44.6963615" lon="10.2314264"><ele>185.33333333333334</ele><time>2026-04-10T15:39:57.038Z</time></trkpt><trkpt lat="44.6965089" lon="10.2315159"><ele>184.66666666666669</ele><time>2026-04-10T15:39:58.038Z</time></trkpt><trkpt lat="44.6966701" lon="10.2316217"><ele>184.0</ele><time>2026-04-10T15:39:59.038Z</time></trkpt><trkpt lat="44.6968363" lon="10.2317352"><ele>184.66666666666669</ele><time>2026-04-10T15:40:00.038Z</time></trkpt><trkpt lat="44.6969974" lon="10.2318472"><ele>185.33333333333334</ele><time>2026-04-10T15:40:01.037Z</time></trkpt><trkpt lat="44.6971497" lon="10.2319478"><ele>186.0</ele><time>2026-04-10T15:40:02.038Z</time></trkpt><trkpt lat="44.6972948" lon="10.2320314"><ele>186.0</ele><time>2026-04-10T15:40:03.038Z</time></trkpt><trkpt lat="44.6974286" lon="10.232095"><ele>186.0</ele><time>2026-04-10T15:40:04.038Z</time></trkpt><trkpt lat="44.6975527" lon="10.232153"><ele>186.0</ele><time>2026-04-10T15:40:05.038Z</time></trkpt><trkpt lat="44.6976728" lon="10.2322151"><ele>186.0</ele><time>2026-04-10T15:40:06.038Z</time></trkpt><trkpt lat="44.6977876" lon="10.2322758"><ele>185.5</ele><time>2026-04-10T15:40:07.038Z</time></trkpt><trkpt lat="44.6978938" lon="10.2323329"><ele>185.0</ele><time>2026-04-10T15:40:08.038Z</time></trkpt><trkpt lat="44.6980039" lon="10.2323902"><ele>184.5</ele><time>2026-04-10T15:40:09.037Z</time></trkpt><trkpt lat="44.6981376" lon="10.2324535"><ele>184.0</ele><time>2026-04-10T15:40:10.038Z</time></trkpt><trkpt lat="44.6982926" lon="10.2325221"><ele>184.0</ele><time>2026-04-10T15:40:11.038Z</time></trkpt><trkpt lat="44.6984503" lon="10.2326029"><ele>184.0</ele><time>2026-04-10T15:40:12.037Z</time></trkpt><trkpt lat="44.698615" lon="10.2326838"><ele>184.0</ele><time>2026-04-10T15:40:13.038Z</time></trkpt><trkpt lat="44.6987869" lon="10.2327673"><ele>183.66666666666669</ele><time>2026-04-10T15:40:14.038Z</time></trkpt><trkpt lat="44.6989582" lon="10.2328485"><ele>183.33333333333334</ele><time>2026-04-10T15:40:15.038Z</time></trkpt><trkpt lat="44.6991294" lon="10.2329265"><ele>183.0</ele><time>2026-04-10T15:40:16.037Z</time></trkpt><trkpt lat="44.6992971" lon="10.2330057"><ele>182.66666666666666</ele><time>2026-04-10T15:40:17.038Z</time></trkpt><trkpt lat="44.6994635" lon="10.2330842"><ele>182.33333333333331</ele><time>2026-04-10T15:40:18.038Z</time></trkpt><trkpt lat="44.6996223" lon="10.2331596"><ele>182.0</ele><time>2026-04-10T15:40:19.038Z</time></trkpt><trkpt lat="44.6997798" lon="10.2332299"><ele>181.66666666666666</ele><time>2026-04-10T15:40:20.038Z</time></trkpt><trkpt lat="44.6999321" lon="10.233308"><ele>181.33333333333334</ele><time>2026-04-10T15:40:21.038Z</time></trkpt><trkpt lat="44.7000749" lon="10.23339"><ele>181.0</ele><time>2026-04-10T15:40:22.037Z</time></trkpt><trkpt lat="44.7002126" lon="10.2334853"><ele>180.33333333333334</ele><time>2026-04-10T15:40:23.038Z</time></trkpt><trkpt lat="44.7003404" lon="10.2335875"><ele>179.66666666666666</ele><time>2026-04-10T15:40:24.038Z</time></trkpt><trkpt lat="44.7004691" lon="10.2337042"><ele>179.0</ele><time>2026-04-10T15:40:25.038Z</time></trkpt><trkpt lat="44.7005922" lon="10.2338343"><ele>179.0</ele><time>2026-04-10T15:40:26.037Z</time></trkpt><trkpt lat="44.7007122" lon="10.2339738"><ele>179.0</ele><time>2026-04-10T15:40:27.038Z</time></trkpt><trkpt lat="44.7008397" lon="10.2341198"><ele>179.0</ele><time>2026-04-10T15:40:28.038Z</time></trkpt><trkpt lat="44.7009738" lon="10.2342699"><ele>178.66666666666666</ele><time>2026-04-10T15:40:29.037Z</time></trkpt><trkpt lat="44.7011102" lon="10.2344306"><ele>178.33333333333334</ele><time>2026-04-10T15:40:30.039Z</time></trkpt><trkpt lat="44.7012568" lon="10.2345962"><ele>178.0</ele><time>2026-04-10T15:40:31.038Z</time></trkpt><trkpt lat="44.7014046" lon="10.2347699"><ele>178.0</ele><time>2026-04-10T15:40:32.038Z</time></trkpt><trkpt lat="44.7015421" lon="10.2349432"><ele>178.0</ele><time>2026-04-10T15:40:33.038Z</time></trkpt><trkpt lat="44.7016597" lon="10.2350993"><ele>178.0</ele><time>2026-04-10T15:40:34.038Z</time></trkpt><trkpt lat="44.7017596" lon="10.2352362"><ele>178.0</ele><time>2026-04-10T15:40:35.037Z</time></trkpt><trkpt lat="44.7018472" lon="10.2353703"><ele>178.0</ele><time>2026-04-10T15:40:36.038Z</time></trkpt><trkpt lat="44.7019132" lon="10.235498"><ele>178.0</ele><time>2026-04-10T15:40:37.038Z</time></trkpt><trkpt lat="44.7019536" lon="10.2356145"><ele>178.0</ele><time>2026-04-10T15:40:38.038Z</time></trkpt><trkpt lat="44.7019624" lon="10.235712"><ele>178.0</ele><time>2026-04-10T15:40:39.038Z</time></trkpt><trkpt lat="44.7019681" lon="10.2358053"><ele>177.60000000000002</ele><time>2026-04-10T15:40:40.038Z</time></trkpt><trkpt lat="44.7019549" lon="10.2359683"><ele>177.20000000000002</ele><time>2026-04-10T15:40:42.037Z</time></trkpt><trkpt lat="44.7019809" lon="10.2361199"><ele>176.8</ele><time>2026-04-10T15:40:44.038Z</time></trkpt><trkpt lat="44.7020829" lon="10.2362164"><ele>176.4</ele><time>2026-04-10T15:40:46.039Z</time></trkpt><trkpt lat="44.7021532" lon="10.2362207"><ele>176.0</ele><time>2026-04-10T15:40:47.037Z</time></trkpt><trkpt lat="44.7022294" lon="10.2362038"><ele>176.0</ele><time>2026-04-10T15:40:48.038Z</time></trkpt><trkpt lat="44.7023134" lon="10.2362063"><ele>176.0</ele><time>2026-04-10T15:40:49.038Z</time></trkpt><trkpt lat="44.7024075" lon="10.2362234"><ele>176.0</ele><time>2026-04-10T15:40:50.039Z</time></trkpt><trkpt lat="44.7025122" lon="10.2362493"><ele>176.0</ele><time>2026-04-10T15:40:51.038Z</time></trkpt><trkpt lat="44.7026293" lon="10.2362905"><ele>176.0</ele><time>2026-04-10T15:40:52.038Z</time></trkpt><trkpt lat="44.7027699" lon="10.2363453"><ele>175.33333333333331</ele><time>2026-04-10T15:40:53.038Z</time></trkpt><trkpt lat="44.7029209" lon="10.2364311"><ele>174.66666666666666</ele><time>2026-04-10T15:40:54.038Z</time></trkpt><trkpt lat="44.7030666" lon="10.2365456"><ele>174.0</ele><time>2026-04-10T15:40:55.038Z</time></trkpt><trkpt lat="44.703222" lon="10.2366695"><ele>173.66666666666666</ele><time>2026-04-10T15:40:56.038Z</time></trkpt><trkpt lat="44.7033747" lon="10.2367874"><ele>173.33333333333331</ele><time>2026-04-10T15:40:57.038Z</time></trkpt><trkpt lat="44.7035131" lon="10.2368959"><ele>173.0</ele><time>2026-04-10T15:40:58.038Z</time></trkpt><trkpt lat="44.70365" lon="10.2369894"><ele>173.66666666666666</ele><time>2026-04-10T15:40:59.038Z</time></trkpt><trkpt lat="44.7037912" lon="10.2370839"><ele>174.33333333333334</ele><time>2026-04-10T15:41:00.038Z</time></trkpt><trkpt lat="44.703929" lon="10.2371878"><ele>175.0</ele><time>2026-04-10T15:41:01.038Z</time></trkpt><trkpt lat="44.7040652" lon="10.237293"><ele>174.75</ele><time>2026-04-10T15:41:02.037Z</time></trkpt><trkpt lat="44.704197" lon="10.2373916"><ele>174.5</ele><time>2026-04-10T15:41:03.038Z</time></trkpt><trkpt lat="44.7043182" lon="10.2374816"><ele>174.25</ele><time>2026-04-10T15:41:04.038Z</time></trkpt><trkpt lat="44.7044292" lon="10.2375678"><ele>174.0</ele><time>2026-04-10T15:41:05.037Z</time></trkpt><trkpt lat="44.7045282" lon="10.2376521"><ele>174.0</ele><time>2026-04-10T15:41:06.038Z</time></trkpt><trkpt lat="44.7046255" lon="10.2377357"><ele>174.0</ele><time>2026-04-10T15:41:07.039Z</time></trkpt><trkpt lat="44.7047225" lon="10.23782"><ele>174.0</ele><time>2026-04-10T15:41:08.038Z</time></trkpt><trkpt lat="44.7048148" lon="10.2379089"><ele>174.0</ele><time>2026-04-10T15:41:09.038Z</time></trkpt><trkpt lat="44.7048998" lon="10.2380046"><ele>174.0</ele><time>2026-04-10T15:41:10.038Z</time></trkpt><trkpt lat="44.7049733" lon="10.2381039"><ele>173.83333333333334</ele><time>2026-04-10T15:41:11.038Z</time></trkpt><trkpt lat="44.705033" lon="10.2382028"><ele>173.66666666666666</ele><time>2026-04-10T15:41:12.037Z</time></trkpt><trkpt lat="44.7050704" lon="10.2383044"><ele>173.5</ele><time>2026-04-10T15:41:13.037Z</time></trkpt><trkpt lat="44.7050921" lon="10.2384136"><ele>173.33333333333331</ele><time>2026-04-10T15:41:14.038Z</time></trkpt><trkpt lat="44.705113" lon="10.2385232"><ele>173.16666666666666</ele><time>2026-04-10T15:41:15.038Z</time></trkpt><trkpt lat="44.7051354" lon="10.238621"><ele>173.0</ele><time>2026-04-10T15:41:16.037Z</time></trkpt><trkpt lat="44.7051734" lon="10.2386956"><ele>172.5</ele><time>2026-04-10T15:41:17.038Z</time></trkpt><trkpt lat="44.7052612" lon="10.2387841"><ele>172.0</ele><time>2026-04-10T15:41:19.038Z</time></trkpt><trkpt lat="44.7053235" lon="10.238798"><ele>171.5</ele><time>2026-04-10T15:41:20.037Z</time></trkpt><trkpt lat="44.705395" lon="10.2387827"><ele>171.0</ele><time>2026-04-10T15:41:21.038Z</time></trkpt><trkpt lat="44.7054741" lon="10.2387505"><ele>170.5</ele><time>2026-04-10T15:41:22.037Z</time></trkpt><trkpt lat="44.7055585" lon="10.2387115"><ele>170.0</ele><time>2026-04-10T15:41:23.039Z</time></trkpt><trkpt lat="44.7056565" lon="10.2386992"><ele>170.0</ele><time>2026-04-10T15:41:24.038Z</time></trkpt><trkpt lat="44.7057669" lon="10.238697"><ele>170.0</ele><time>2026-04-10T15:41:25.037Z</time></trkpt><trkpt lat="44.7058785" lon="10.2387029"><ele>170.0</ele><time>2026-04-10T15:41:26.038Z</time></trkpt><trkpt lat="44.7059963" lon="10.2387263"><ele>170.0</ele><time>2026-04-10T15:41:27.038Z</time></trkpt><trkpt lat="44.7061091" lon="10.2387697"><ele>170.25</ele><time>2026-04-10T15:41:28.038Z</time></trkpt><trkpt lat="44.7062244" lon="10.2388226"><ele>170.5</ele><time>2026-04-10T15:41:29.037Z</time></trkpt><trkpt lat="44.7063394" lon="10.238883"><ele>170.75</ele><time>2026-04-10T15:41:30.038Z</time></trkpt><trkpt lat="44.7064479" lon="10.2389537"><ele>171.0</ele><time>2026-04-10T15:41:31.038Z</time></trkpt><trkpt lat="44.7065535" lon="10.2390178"><ele>171.0</ele><time>2026-04-10T15:41:32.038Z</time></trkpt><trkpt lat="44.7066502" lon="10.2390753"><ele>171.0</ele><time>2026-04-10T15:41:33.038Z</time></trkpt><trkpt lat="44.7067397" lon="10.2391275"><ele>171.0</ele><time>2026-04-10T15:41:34.039Z</time></trkpt><trkpt lat="44.7068249" lon="10.239173"><ele>171.0</ele><time>2026-04-10T15:41:35.038Z</time></trkpt><trkpt lat="44.7069169" lon="10.2392295"><ele>171.0</ele><time>2026-04-10T15:41:36.038Z</time></trkpt><trkpt lat="44.7070153" lon="10.2392965"><ele>171.0</ele><time>2026-04-10T15:41:37.038Z</time></trkpt><trkpt lat="44.7071234" lon="10.2393764"><ele>171.0</ele><time>2026-04-10T15:41:38.038Z</time></trkpt><trkpt lat="44.7072385" lon="10.2394633"><ele>171.0</ele><time>2026-04-10T15:41:39.037Z</time></trkpt><trkpt lat="44.7073629" lon="10.2395454"><ele>171.0</ele><time>2026-04-10T15:41:40.038Z</time></trkpt><trkpt lat="44.7074942" lon="10.2396254"><ele>171.0</ele><time>2026-04-10T15:41:41.038Z</time></trkpt><trkpt lat="44.7076269" lon="10.2397072"><ele>171.0</ele><time>2026-04-10T15:41:42.037Z</time></trkpt><trkpt lat="44.7077599" lon="10.239785"><ele>171.0</ele><time>2026-04-10T15:41:43.038Z</time></trkpt><trkpt lat="44.7078977" lon="10.2398515"><ele>171.0</ele><time>2026-04-10T15:41:44.038Z</time></trkpt><trkpt lat="44.7080377" lon="10.239907"><ele>171.0</ele><time>2026-04-10T15:41:45.038Z</time></trkpt><trkpt lat="44.7081818" lon="10.2399449"><ele>171.0</ele><time>2026-04-10T15:41:46.038Z</time></trkpt><trkpt lat="44.7083067" lon="10.2399757"><ele>171.0</ele><time>2026-04-10T15:41:47.038Z</time></trkpt><trkpt lat="44.7084086" lon="10.2400226"><ele>171.0</ele><time>2026-04-10T15:41:48.038Z</time></trkpt><trkpt lat="44.7084806" lon="10.2400796"><ele>171.0</ele><time>2026-04-10T15:41:49.038Z</time></trkpt><trkpt lat="44.708543" lon="10.2401427"><ele>171.0</ele><time>2026-04-10T15:41:50.038Z</time></trkpt><trkpt lat="44.7085975" lon="10.240208"><ele>171.0</ele><time>2026-04-10T15:41:51.038Z</time></trkpt><trkpt lat="44.7086651" lon="10.240274"><ele>171.0</ele><time>2026-04-10T15:41:52.037Z</time></trkpt><trkpt lat="44.7087479" lon="10.2403132"><ele>171.0</ele><time>2026-04-10T15:41:53.037Z</time></trkpt><trkpt lat="44.7088343" lon="10.2403013"><ele>171.0</ele><time>2026-04-10T15:41:54.038Z</time></trkpt><trkpt lat="44.7089033" lon="10.2402433"><ele>171.0</ele><time>2026-04-10T15:41:55.038Z</time></trkpt><trkpt lat="44.7089492" lon="10.2401463"><ele>171.0</ele><time>2026-04-10T15:41:56.038Z</time></trkpt><trkpt lat="44.708975" lon="10.2400207"><ele>171.0</ele><time>2026-04-10T15:41:57.037Z</time></trkpt><trkpt lat="44.7089838" lon="10.239872"><ele>171.0</ele><time>2026-04-10T15:41:58.038Z</time></trkpt><trkpt lat="44.7090141" lon="10.2397098"><ele>171.0</ele><time>2026-04-10T15:41:59.039Z</time></trkpt><trkpt lat="44.7090836" lon="10.2395461"><ele>171.0</ele><time>2026-04-10T15:42:00.037Z</time></trkpt><trkpt lat="44.7091634" lon="10.2393708"><ele>171.0</ele><time>2026-04-10T15:42:01.039Z</time></trkpt><trkpt lat="44.7092477" lon="10.2391776"><ele>171.0</ele><time>2026-04-10T15:42:02.037Z</time></trkpt><trkpt lat="44.7093347" lon="10.2389773"><ele>169.66666666666666</ele><time>2026-04-10T15:42:03.038Z</time></trkpt><trkpt lat="44.7094281" lon="10.2387685"><ele>168.33333333333331</ele><time>2026-04-10T15:42:04.038Z</time></trkpt><trkpt lat="44.7095164" lon="10.238562"><ele>167.0</ele><time>2026-04-10T15:42:05.038Z</time></trkpt><trkpt lat="44.7096024" lon="10.2383536"><ele>167.0</ele><time>2026-04-10T15:42:06.038Z</time></trkpt><trkpt lat="44.7096915" lon="10.2381489"><ele>167.0</ele><time>2026-04-10T15:42:07.038Z</time></trkpt><trkpt lat="44.7097797" lon="10.2379432"><ele>167.0</ele><time>2026-04-10T15:42:08.038Z</time></trkpt><trkpt lat="44.7098608" lon="10.2377375"><ele>166.66666666666666</ele><time>2026-04-10T15:42:09.038Z</time></trkpt><trkpt lat="44.7099459" lon="10.2375365"><ele>166.33333333333334</ele><time>2026-04-10T15:42:10.038Z</time></trkpt><trkpt lat="44.7100305" lon="10.2373337"><ele>166.0</ele><time>2026-04-10T15:42:11.038Z</time></trkpt><trkpt lat="44.7101163" lon="10.2371364"><ele>165.0</ele><time>2026-04-10T15:42:12.038Z</time></trkpt><trkpt lat="44.7102014" lon="10.236937"><ele>164.0</ele><time>2026-04-10T15:42:13.038Z</time></trkpt><trkpt lat="44.7102874" lon="10.2367367"><ele>163.0</ele><time>2026-04-10T15:42:14.038Z</time></trkpt><trkpt lat="44.7103725" lon="10.2365355"><ele>163.0</ele><time>2026-04-10T15:42:15.038Z</time></trkpt><trkpt lat="44.7104598" lon="10.2363332"><ele>163.0</ele><time>2026-04-10T15:42:16.038Z</time></trkpt><trkpt lat="44.7105423" lon="10.2361264"><ele>163.0</ele><time>2026-04-10T15:42:17.037Z</time></trkpt><trkpt lat="44.7106298" lon="10.2359223"><ele>163.0</ele><time>2026-04-10T15:42:18.038Z</time></trkpt><trkpt lat="44.7107191" lon="10.235722"><ele>163.0</ele><time>2026-04-10T15:42:19.038Z</time></trkpt><trkpt lat="44.7108089" lon="10.2355242"><ele>163.0</ele><time>2026-04-10T15:42:20.037Z</time></trkpt><trkpt lat="44.7108986" lon="10.235324"><ele>163.0</ele><time>2026-04-10T15:42:21.038Z</time></trkpt><trkpt lat="44.7109841" lon="10.2351211"><ele>163.0</ele><time>2026-04-10T15:42:22.038Z</time></trkpt><trkpt lat="44.7110744" lon="10.234915"><ele>163.0</ele><time>2026-04-10T15:42:23.038Z</time></trkpt><trkpt lat="44.7111625" lon="10.2347113"><ele>163.33333333333334</ele><time>2026-04-10T15:42:24.037Z</time></trkpt><trkpt lat="44.7112525" lon="10.2345121"><ele>163.66666666666666</ele><time>2026-04-10T15:42:25.038Z</time></trkpt><trkpt lat="44.711342" lon="10.2343087"><ele>164.0</ele><time>2026-04-10T15:42:26.038Z</time></trkpt><trkpt lat="44.711432" lon="10.2341067"><ele>165.0</ele><time>2026-04-10T15:42:27.038Z</time></trkpt><trkpt lat="44.7115224" lon="10.2339038"><ele>166.0</ele><time>2026-04-10T15:42:28.038Z</time></trkpt><trkpt lat="44.711609" lon="10.233703"><ele>167.0</ele><time>2026-04-10T15:42:29.038Z</time></trkpt><trkpt lat="44.7116963" lon="10.2335018"><ele>167.0</ele><time>2026-04-10T15:42:30.038Z</time></trkpt><trkpt lat="44.7117831" lon="10.2333053"><ele>167.0</ele><time>2026-04-10T15:42:31.038Z</time></trkpt><trkpt lat="44.7118709" lon="10.2331099"><ele>167.0</ele><time>2026-04-10T15:42:32.038Z</time></trkpt><trkpt lat="44.7119543" lon="10.2329214"><ele>167.0</ele><time>2026-04-10T15:42:33.038Z</time></trkpt><trkpt lat="44.7120342" lon="10.2327445"><ele>167.0</ele><time>2026-04-10T15:42:34.037Z</time></trkpt><trkpt lat="44.712109" lon="10.2325821"><ele>167.0</ele><time>2026-04-10T15:42:35.039Z</time></trkpt><trkpt lat="44.7121749" lon="10.2324324"><ele>167.0</ele><time>2026-04-10T15:42:36.038Z</time></trkpt><trkpt lat="44.7122356" lon="10.2322906"><ele>166.75</ele><time>2026-04-10T15:42:37.038Z</time></trkpt><trkpt lat="44.712296" lon="10.2321614"><ele>166.5</ele><time>2026-04-10T15:42:38.038Z</time></trkpt><trkpt lat="44.7123578" lon="10.2320459"><ele>166.25</ele><time>2026-04-10T15:42:39.038Z</time></trkpt><trkpt lat="44.7124391" lon="10.2319331"><ele>166.0</ele><time>2026-04-10T15:42:40.038Z</time></trkpt><trkpt lat="44.7125416" lon="10.2318337"><ele>166.0</ele><time>2026-04-10T15:42:41.038Z</time></trkpt><trkpt lat="44.7126628" lon="10.2317539"><ele>166.0</ele><time>2026-04-10T15:42:42.038Z</time></trkpt><trkpt lat="44.7127917" lon="10.231688"><ele>166.0</ele><time>2026-04-10T15:42:43.038Z</time></trkpt><trkpt lat="44.7129271" lon="10.2316393"><ele>166.0</ele><time>2026-04-10T15:42:44.037Z</time></trkpt><trkpt lat="44.7130605" lon="10.2315883"><ele>166.0</ele><time>2026-04-10T15:42:45.039Z</time></trkpt><trkpt lat="44.7131929" lon="10.2315357"><ele>166.0</ele><time>2026-04-10T15:42:46.038Z</time></trkpt><trkpt lat="44.7133252" lon="10.2314848"><ele>166.0</ele><time>2026-04-10T15:42:47.038Z</time></trkpt><trkpt lat="44.7134592" lon="10.2314301"><ele>166.0</ele><time>2026-04-10T15:42:48.038Z</time></trkpt><trkpt lat="44.7135924" lon="10.2313733"><ele>166.0</ele><time>2026-04-10T15:42:49.038Z</time></trkpt><trkpt lat="44.7137277" lon="10.2313175"><ele>166.0</ele><time>2026-04-10T15:42:50.038Z</time></trkpt><trkpt lat="44.7138624" lon="10.2312696"><ele>166.0</ele><time>2026-04-10T15:42:51.038Z</time></trkpt><trkpt lat="44.7140017" lon="10.2312492"><ele>166.0</ele><time>2026-04-10T15:42:52.038Z</time></trkpt><trkpt lat="44.7141459" lon="10.23126"><ele>166.0</ele><time>2026-04-10T15:42:53.038Z</time></trkpt><trkpt lat="44.7142889" lon="10.2312993"><ele>166.0</ele><time>2026-04-10T15:42:54.038Z</time></trkpt><trkpt lat="44.7144327" lon="10.2313477"><ele>166.0</ele><time>2026-04-10T15:42:55.037Z</time></trkpt><trkpt lat="44.7145763" lon="10.2313941"><ele>166.0</ele><time>2026-04-10T15:42:56.038Z</time></trkpt><trkpt lat="44.7147166" lon="10.2314414"><ele>165.25</ele><time>2026-04-10T15:42:57.038Z</time></trkpt><trkpt lat="44.7148504" lon="10.2314884"><ele>164.5</ele><time>2026-04-10T15:42:58.037Z</time></trkpt><trkpt lat="44.7149794" lon="10.2315355"><ele>163.75</ele><time>2026-04-10T15:42:59.038Z</time></trkpt><trkpt lat="44.7151106" lon="10.2315793"><ele>163.0</ele><time>2026-04-10T15:43:00.038Z</time></trkpt><trkpt lat="44.7152307" lon="10.2316172"><ele>163.0</ele><time>2026-04-10T15:43:01.037Z</time></trkpt><trkpt lat="44.7153458" lon="10.2316547"><ele>163.0</ele><time>2026-04-10T15:43:02.038Z</time></trkpt><trkpt lat="44.7154551" lon="10.2316915"><ele>163.0</ele><time>2026-04-10T15:43:03.038Z</time></trkpt><trkpt lat="44.7155685" lon="10.2317262"><ele>163.0</ele><time>2026-04-10T15:43:04.038Z</time></trkpt><trkpt lat="44.7156903" lon="10.2317635"><ele>163.0</ele><time>2026-04-10T15:43:05.037Z</time></trkpt><trkpt lat="44.7158185" lon="10.2318022"><ele>163.0</ele><time>2026-04-10T15:43:06.038Z</time></trkpt><trkpt lat="44.7159523" lon="10.2318402"><ele>163.0</ele><time>2026-04-10T15:43:07.037Z</time></trkpt><trkpt lat="44.7160859" lon="10.2318698"><ele>163.0</ele><time>2026-04-10T15:43:08.038Z</time></trkpt><trkpt lat="44.7162188" lon="10.2318997"><ele>162.75</ele><time>2026-04-10T15:43:09.038Z</time></trkpt><trkpt lat="44.7163511" lon="10.231931"><ele>162.5</ele><time>2026-04-10T15:43:10.038Z</time></trkpt><trkpt lat="44.7164882" lon="10.2319739"><ele>162.25</ele><time>2026-04-10T15:43:11.038Z</time></trkpt><trkpt lat="44.7166267" lon="10.2320189"><ele>162.0</ele><time>2026-04-10T15:43:12.038Z</time></trkpt><trkpt lat="44.7167647" lon="10.2320637"><ele>161.25</ele><time>2026-04-10T15:43:13.037Z</time></trkpt><trkpt lat="44.7169066" lon="10.2321123"><ele>160.5</ele><time>2026-04-10T15:43:14.038Z</time></trkpt><trkpt lat="44.7170502" lon="10.2321592"><ele>159.75</ele><time>2026-04-10T15:43:15.038Z</time></trkpt><trkpt lat="44.7171928" lon="10.2322068"><ele>159.0</ele><time>2026-04-10T15:43:16.037Z</time></trkpt><trkpt lat="44.7173377" lon="10.2322583"><ele>159.0</ele><time>2026-04-10T15:43:17.038Z</time></trkpt><trkpt lat="44.7174813" lon="10.2323097"><ele>159.0</ele><time>2026-04-10T15:43:18.038Z</time></trkpt><trkpt lat="44.7176216" lon="10.2323525"><ele>159.0</ele><time>2026-04-10T15:43:19.039Z</time></trkpt><trkpt lat="44.71776" lon="10.2323941"><ele>159.0</ele><time>2026-04-10T15:43:20.038Z</time></trkpt><trkpt lat="44.717896" lon="10.2324363"><ele>158.75</ele><time>2026-04-10T15:43:21.037Z</time></trkpt><trkpt lat="44.7180333" lon="10.2324785"><ele>158.5</ele><time>2026-04-10T15:43:22.037Z</time></trkpt><trkpt lat="44.7181715" lon="10.2325209"><ele>158.25</ele><time>2026-04-10T15:43:23.038Z</time></trkpt><trkpt lat="44.7183124" lon="10.232563"><ele>158.0</ele><time>2026-04-10T15:43:24.037Z</time></trkpt><trkpt lat="44.7184525" lon="10.2326152"><ele>157.75</ele><time>2026-04-10T15:43:25.038Z</time></trkpt><trkpt lat="44.7185931" lon="10.2326571"><ele>157.5</ele><time>2026-04-10T15:43:26.038Z</time></trkpt><trkpt lat="44.7187325" lon="10.2327006"><ele>157.25</ele><time>2026-04-10T15:43:27.038Z</time></trkpt><trkpt lat="44.7188703" lon="10.232743"><ele>157.0</ele><time>2026-04-10T15:43:28.037Z</time></trkpt><trkpt lat="44.7190031" lon="10.2327812"><ele>157.0</ele><time>2026-04-10T15:43:29.038Z</time></trkpt><trkpt lat="44.7191366" lon="10.2328215"><ele>157.0</ele><time>2026-04-10T15:43:30.038Z</time></trkpt><trkpt lat="44.7192783" lon="10.2328654"><ele>157.0</ele><time>2026-04-10T15:43:31.038Z</time></trkpt><trkpt lat="44.7194196" lon="10.2329059"><ele>157.0</ele><time>2026-04-10T15:43:32.037Z</time></trkpt><trkpt lat="44.7195661" lon="10.232946"><ele>157.0</ele><time>2026-04-10T15:43:33.038Z</time></trkpt><trkpt lat="44.719713" lon="10.2329932"><ele>157.0</ele><time>2026-04-10T15:43:34.038Z</time></trkpt><trkpt lat="44.7198615" lon="10.2330363"><ele>157.0</ele><time>2026-04-10T15:43:35.038Z</time></trkpt><trkpt lat="44.7200081" lon="10.2330793"><ele>157.0</ele><time>2026-04-10T15:43:36.038Z</time></trkpt><trkpt lat="44.720159" lon="10.2331271"><ele>157.0</ele><time>2026-04-10T15:43:37.038Z</time></trkpt><trkpt lat="44.720311" lon="10.2331829"><ele>157.0</ele><time>2026-04-10T15:43:38.037Z</time></trkpt><trkpt lat="44.7204614" lon="10.2332415"><ele>156.66666666666669</ele><time>2026-04-10T15:43:39.038Z</time></trkpt><trkpt lat="44.7206106" lon="10.233301"><ele>156.33333333333334</ele><time>2026-04-10T15:43:40.038Z</time></trkpt><trkpt lat="44.7207585" lon="10.2333505"><ele>156.0</ele><time>2026-04-10T15:43:41.038Z</time></trkpt><trkpt lat="44.7209109" lon="10.2333932"><ele>156.0</ele><time>2026-04-10T15:43:42.038Z</time></trkpt><trkpt lat="44.7210577" lon="10.2334319"><ele>156.0</ele><time>2026-04-10T15:43:43.038Z</time></trkpt><trkpt lat="44.7211967" lon="10.2334655"><ele>156.0</ele><time>2026-04-10T15:43:44.038Z</time></trkpt><trkpt lat="44.721322" lon="10.2334939"><ele>156.0</ele><time>2026-04-10T15:43:45.038Z</time></trkpt><trkpt lat="44.721439" lon="10.2335136"><ele>155.4</ele><time>2026-04-10T15:43:46.038Z</time></trkpt><trkpt lat="44.7215512" lon="10.2335397"><ele>154.8</ele><time>2026-04-10T15:43:47.038Z</time></trkpt><trkpt lat="44.721656" lon="10.2335703"><ele>154.20000000000002</ele><time>2026-04-10T15:43:48.038Z</time></trkpt><trkpt lat="44.7217544" lon="10.2336038"><ele>153.6</ele><time>2026-04-10T15:43:49.038Z</time></trkpt><trkpt lat="44.7218586" lon="10.2336393"><ele>153.0</ele><time>2026-04-10T15:43:50.037Z</time></trkpt><trkpt lat="44.7219758" lon="10.2336719"><ele>153.0</ele><time>2026-04-10T15:43:51.038Z</time></trkpt><trkpt lat="44.7221018" lon="10.233716"><ele>153.0</ele><time>2026-04-10T15:43:52.039Z</time></trkpt><trkpt lat="44.7222341" lon="10.233758"><ele>153.0</ele><time>2026-04-10T15:43:53.037Z</time></trkpt><trkpt lat="44.7223728" lon="10.2338024"><ele>153.0</ele><time>2026-04-10T15:43:54.038Z</time></trkpt><trkpt lat="44.7225154" lon="10.2338509"><ele>153.0</ele><time>2026-04-10T15:43:55.038Z</time></trkpt><trkpt lat="44.7226606" lon="10.2338964"><ele>153.0</ele><time>2026-04-10T15:43:56.038Z</time></trkpt><trkpt lat="44.7228104" lon="10.2339422"><ele>153.0</ele><time>2026-04-10T15:43:57.038Z</time></trkpt><trkpt lat="44.7229583" lon="10.2339836"><ele>152.66666666666666</ele><time>2026-04-10T15:43:58.037Z</time></trkpt><trkpt lat="44.7231088" lon="10.2340306"><ele>152.33333333333331</ele><time>2026-04-10T15:43:59.038Z</time></trkpt><trkpt lat="44.7232595" lon="10.234078"><ele>152.0</ele><time>2026-04-10T15:44:00.038Z</time></trkpt><trkpt lat="44.7234153" lon="10.2341232"><ele>151.0</ele><time>2026-04-10T15:44:01.038Z</time></trkpt><trkpt lat="44.7235713" lon="10.2341666"><ele>150.0</ele><time>2026-04-10T15:44:02.038Z</time></trkpt><trkpt lat="44.7237254" lon="10.2342078"><ele>149.0</ele><time>2026-04-10T15:44:03.038Z</time></trkpt><trkpt lat="44.7238795" lon="10.2342463"><ele>149.0</ele><time>2026-04-10T15:44:04.038Z</time></trkpt><trkpt lat="44.7240284" lon="10.2342898"><ele>149.0</ele><time>2026-04-10T15:44:05.038Z</time></trkpt><trkpt lat="44.7241764" lon="10.2343337"><ele>149.0</ele><time>2026-04-10T15:44:06.038Z</time></trkpt><trkpt lat="44.7243209" lon="10.2343775"><ele>148.75</ele><time>2026-04-10T15:44:07.038Z</time></trkpt><trkpt lat="44.724458" lon="10.2344215"><ele>148.5</ele><time>2026-04-10T15:44:08.038Z</time></trkpt><trkpt lat="44.7245876" lon="10.2344597"><ele>148.25</ele><time>2026-04-10T15:44:09.037Z</time></trkpt><trkpt lat="44.7247271" lon="10.2345009"><ele>148.0</ele><time>2026-04-10T15:44:10.038Z</time></trkpt><trkpt lat="44.7248763" lon="10.2345419"><ele>148.0</ele><time>2026-04-10T15:44:11.038Z</time></trkpt><trkpt lat="44.7250284" lon="10.2345841"><ele>148.0</ele><time>2026-04-10T15:44:12.037Z</time></trkpt><trkpt lat="44.7251862" lon="10.2346315"><ele>148.0</ele><time>2026-04-10T15:44:13.038Z</time></trkpt><trkpt lat="44.7253507" lon="10.2346866"><ele>148.0</ele><time>2026-04-10T15:44:14.038Z</time></trkpt><trkpt lat="44.7255141" lon="10.2347394"><ele>148.0</ele><time>2026-04-10T15:44:15.038Z</time></trkpt><trkpt lat="44.7256874" lon="10.2347878"><ele>148.0</ele><time>2026-04-10T15:44:16.038Z</time></trkpt><trkpt lat="44.7258538" lon="10.2348404"><ele>148.0</ele><time>2026-04-10T15:44:17.038Z</time></trkpt><trkpt lat="44.7260236" lon="10.234893"><ele>148.0</ele><time>2026-04-10T15:44:18.038Z</time></trkpt><trkpt lat="44.726193" lon="10.2349454"><ele>148.0</ele><time>2026-04-10T15:44:19.037Z</time></trkpt><trkpt lat="44.7263595" lon="10.234995"><ele>148.0</ele><time>2026-04-10T15:44:20.038Z</time></trkpt><trkpt lat="44.7265294" lon="10.2350449"><ele>148.0</ele><time>2026-04-10T15:44:21.038Z</time></trkpt><trkpt lat="44.7266908" lon="10.2350881"><ele>148.0</ele><time>2026-04-10T15:44:22.037Z</time></trkpt><trkpt lat="44.7268548" lon="10.235141"><ele>147.33333333333334</ele><time>2026-04-10T15:44:23.038Z</time></trkpt><trkpt lat="44.7270173" lon="10.2351973"><ele>146.66666666666666</ele><time>2026-04-10T15:44:24.038Z</time></trkpt><trkpt lat="44.7271843" lon="10.235254"><ele>146.0</ele><time>2026-04-10T15:44:25.038Z</time></trkpt><trkpt lat="44.7273503" lon="10.2353076"><ele>146.0</ele><time>2026-04-10T15:44:26.037Z</time></trkpt><trkpt lat="44.7275143" lon="10.2353541"><ele>146.0</ele><time>2026-04-10T15:44:27.038Z</time></trkpt><trkpt lat="44.7276794" lon="10.2354032"><ele>146.0</ele><time>2026-04-10T15:44:28.038Z</time></trkpt><trkpt lat="44.727845" lon="10.235451"><ele>145.66666666666666</ele><time>2026-04-10T15:44:29.037Z</time></trkpt><trkpt lat="44.7280123" lon="10.2355057"><ele>145.33333333333334</ele><time>2026-04-10T15:44:30.038Z</time></trkpt><trkpt lat="44.7281783" lon="10.235554"><ele>145.0</ele><time>2026-04-10T15:44:31.038Z</time></trkpt><trkpt lat="44.7283451" lon="10.2356021"><ele>144.66666666666669</ele><time>2026-04-10T15:44:32.038Z</time></trkpt><trkpt lat="44.7285141" lon="10.2356548"><ele>144.33333333333334</ele><time>2026-04-10T15:44:33.038Z</time></trkpt><trkpt lat="44.7286829" lon="10.2357105"><ele>144.0</ele><time>2026-04-10T15:44:34.038Z</time></trkpt><trkpt lat="44.7288562" lon="10.2357613"><ele>143.66666666666666</ele><time>2026-04-10T15:44:35.038Z</time></trkpt><trkpt lat="44.7290252" lon="10.2358166"><ele>143.33333333333331</ele><time>2026-04-10T15:44:36.038Z</time></trkpt><trkpt lat="44.7291967" lon="10.2358748"><ele>143.0</ele><time>2026-04-10T15:44:37.037Z</time></trkpt><trkpt lat="44.7293675" lon="10.23593"><ele>142.33333333333331</ele><time>2026-04-10T15:44:38.037Z</time></trkpt><trkpt lat="44.7295389" lon="10.2359798"><ele>141.66666666666666</ele><time>2026-04-10T15:44:39.038Z</time></trkpt><trkpt lat="44.7297134" lon="10.2360345"><ele>141.0</ele><time>2026-04-10T15:44:40.038Z</time></trkpt><trkpt lat="44.7298889" lon="10.2360888"><ele>141.0</ele><time>2026-04-10T15:44:41.038Z</time></trkpt><trkpt lat="44.7300644" lon="10.2361401"><ele>141.0</ele><time>2026-04-10T15:44:42.038Z</time></trkpt><trkpt lat="44.7302366" lon="10.2361889"><ele>141.0</ele><time>2026-04-10T15:44:43.038Z</time></trkpt><trkpt lat="44.730411" lon="10.2362409"><ele>140.66666666666666</ele><time>2026-04-10T15:44:44.038Z</time></trkpt><trkpt lat="44.730583" lon="10.2362924"><ele>140.33333333333331</ele><time>2026-04-10T15:44:45.038Z</time></trkpt><trkpt lat="44.7307623" lon="10.236351"><ele>140.0</ele><time>2026-04-10T15:44:46.038Z</time></trkpt><trkpt lat="44.7309471" lon="10.2364102"><ele>139.66666666666666</ele><time>2026-04-10T15:44:47.038Z</time></trkpt><trkpt lat="44.7311306" lon="10.2364698"><ele>139.33333333333334</ele><time>2026-04-10T15:44:48.038Z</time></trkpt><trkpt lat="44.7313138" lon="10.236522"><ele>139.0</ele><time>2026-04-10T15:44:49.037Z</time></trkpt><trkpt lat="44.7314976" lon="10.2365768"><ele>139.0</ele><time>2026-04-10T15:44:50.038Z</time></trkpt><trkpt lat="44.7316823" lon="10.2366331"><ele>139.0</ele><time>2026-04-10T15:44:51.038Z</time></trkpt><trkpt lat="44.7318664" lon="10.2366947"><ele>139.0</ele><time>2026-04-10T15:44:52.038Z</time></trkpt><trkpt lat="44.7320561" lon="10.2367602"><ele>138.66666666666669</ele><time>2026-04-10T15:44:53.037Z</time></trkpt><trkpt lat="44.7322492" lon="10.2368225"><ele>138.33333333333334</ele><time>2026-04-10T15:44:54.038Z</time></trkpt><trkpt lat="44.7324382" lon="10.2368779"><ele>138.0</ele><time>2026-04-10T15:44:55.038Z</time></trkpt><trkpt lat="44.7326286" lon="10.2369347"><ele>136.33333333333334</ele><time>2026-04-10T15:44:56.038Z</time></trkpt><trkpt lat="44.7328199" lon="10.236987"><ele>134.66666666666669</ele><time>2026-04-10T15:44:57.038Z</time></trkpt><trkpt lat="44.7330094" lon="10.2370487"><ele>133.0</ele><time>2026-04-10T15:44:58.038Z</time></trkpt><trkpt lat="44.7332031" lon="10.2371095"><ele>133.0</ele><time>2026-04-10T15:44:59.037Z</time></trkpt><trkpt lat="44.733396" lon="10.2371688"><ele>133.0</ele><time>2026-04-10T15:45:00.038Z</time></trkpt><trkpt lat="44.7335879" lon="10.2372253"><ele>133.0</ele><time>2026-04-10T15:45:01.038Z</time></trkpt><trkpt lat="44.7337801" lon="10.2372886"><ele>133.66666666666669</ele><time>2026-04-10T15:45:02.038Z</time></trkpt><trkpt lat="44.7339698" lon="10.2373454"><ele>134.33333333333334</ele><time>2026-04-10T15:45:03.037Z</time></trkpt><trkpt lat="44.7341599" lon="10.237408"><ele>135.0</ele><time>2026-04-10T15:45:04.038Z</time></trkpt><trkpt lat="44.7343505" lon="10.2374679"><ele>135.33333333333334</ele><time>2026-04-10T15:45:05.038Z</time></trkpt><trkpt lat="44.7345421" lon="10.237524"><ele>135.66666666666669</ele><time>2026-04-10T15:45:06.037Z</time></trkpt><trkpt lat="44.7347341" lon="10.2375827"><ele>136.0</ele><time>2026-04-10T15:45:07.038Z</time></trkpt><trkpt lat="44.7349249" lon="10.2376411"><ele>136.0</ele><time>2026-04-10T15:45:08.038Z</time></trkpt><trkpt lat="44.7351156" lon="10.2376957"><ele>136.0</ele><time>2026-04-10T15:45:09.038Z</time></trkpt><trkpt lat="44.7353088" lon="10.2377591"><ele>136.0</ele><time>2026-04-10T15:45:10.037Z</time></trkpt><trkpt lat="44.735498" lon="10.237815"><ele>135.66666666666669</ele><time>2026-04-10T15:45:11.038Z</time></trkpt><trkpt lat="44.7356893" lon="10.2378693"><ele>135.33333333333334</ele><time>2026-04-10T15:45:12.038Z</time></trkpt><trkpt lat="44.7358809" lon="10.2379242"><ele>135.0</ele><time>2026-04-10T15:45:13.037Z</time></trkpt><trkpt lat="44.7360763" lon="10.2379843"><ele>134.0</ele><time>2026-04-10T15:45:14.038Z</time></trkpt><trkpt lat="44.736273" lon="10.2380429"><ele>133.0</ele><time>2026-04-10T15:45:15.038Z</time></trkpt><trkpt lat="44.7364714" lon="10.2381032"><ele>132.0</ele><time>2026-04-10T15:45:16.037Z</time></trkpt><trkpt lat="44.7366694" lon="10.2381671"><ele>132.0</ele><time>2026-04-10T15:45:17.038Z</time></trkpt><trkpt lat="44.7368661" lon="10.2382301"><ele>132.0</ele><time>2026-04-10T15:45:18.038Z</time></trkpt><trkpt lat="44.7370638" lon="10.2382885"><ele>132.0</ele><time>2026-04-10T15:45:19.037Z</time></trkpt><trkpt lat="44.7372619" lon="10.2383476"><ele>132.0</ele><time>2026-04-10T15:45:20.039Z</time></trkpt><trkpt lat="44.737461" lon="10.2384068"><ele>132.0</ele><time>2026-04-10T15:45:21.038Z</time></trkpt><trkpt lat="44.7376654" lon="10.238472"><ele>132.0</ele><time>2026-04-10T15:45:22.038Z</time></trkpt><trkpt lat="44.7378642" lon="10.2385288"><ele>130.0</ele><time>2026-04-10T15:45:23.037Z</time></trkpt><trkpt lat="44.738061" lon="10.2385844"><ele>128.0</ele><time>2026-04-10T15:45:24.038Z</time></trkpt><trkpt lat="44.7382596" lon="10.2386443"><ele>126.0</ele><time>2026-04-10T15:45:25.038Z</time></trkpt><trkpt lat="44.7384566" lon="10.2387036"><ele>127.0</ele><time>2026-04-10T15:45:26.038Z</time></trkpt><trkpt lat="44.738653" lon="10.2387592"><ele>128.0</ele><time>2026-04-10T15:45:27.038Z</time></trkpt><trkpt lat="44.7388513" lon="10.2388218"><ele>129.0</ele><time>2026-04-10T15:45:28.038Z</time></trkpt><trkpt lat="44.7390496" lon="10.2388839"><ele>129.0</ele><time>2026-04-10T15:45:29.037Z</time></trkpt><trkpt lat="44.7392452" lon="10.238944"><ele>129.0</ele><time>2026-04-10T15:45:30.038Z</time></trkpt><trkpt lat="44.7394388" lon="10.2389997"><ele>129.0</ele><time>2026-04-10T15:45:31.038Z</time></trkpt><trkpt lat="44.7396295" lon="10.2390629"><ele>128.0</ele><time>2026-04-10T15:45:32.038Z</time></trkpt><trkpt lat="44.7398197" lon="10.239119"><ele>127.0</ele><time>2026-04-10T15:45:33.038Z</time></trkpt><trkpt lat="44.7400087" lon="10.2391737"><ele>126.0</ele><time>2026-04-10T15:45:34.038Z</time></trkpt><trkpt lat="44.7401984" lon="10.2392284"><ele>126.0</ele><time>2026-04-10T15:45:35.038Z</time></trkpt><trkpt lat="44.7403831" lon="10.2392852"><ele>126.0</ele><time>2026-04-10T15:45:36.038Z</time></trkpt><trkpt lat="44.7405697" lon="10.2393412"><ele>126.0</ele><time>2026-04-10T15:45:37.038Z</time></trkpt><trkpt lat="44.7407525" lon="10.2394002"><ele>126.0</ele><time>2026-04-10T15:45:38.038Z</time></trkpt><trkpt lat="44.7409367" lon="10.2394566"><ele>126.0</ele><time>2026-04-10T15:45:39.037Z</time></trkpt><trkpt lat="44.7411224" lon="10.2395125"><ele>126.0</ele><time>2026-04-10T15:45:40.038Z</time></trkpt><trkpt lat="44.7412985" lon="10.2395644"><ele>126.0</ele><time>2026-04-10T15:45:41.038Z</time></trkpt><trkpt lat="44.7414582" lon="10.2396104"><ele>126.0</ele><time>2026-04-10T15:45:42.038Z</time></trkpt><trkpt lat="44.7416029" lon="10.2396561"><ele>126.0</ele><time>2026-04-10T15:45:43.038Z</time></trkpt><trkpt lat="44.7417266" lon="10.2397051"><ele>126.0</ele><time>2026-04-10T15:45:44.038Z</time></trkpt><trkpt lat="44.7418372" lon="10.2397718"><ele>124.5</ele><time>2026-04-10T15:45:45.037Z</time></trkpt><trkpt lat="44.7419384" lon="10.2398443"><ele>123.0</ele><time>2026-04-10T15:45:46.038Z</time></trkpt><trkpt lat="44.7420602" lon="10.2398873"><ele>121.5</ele><time>2026-04-10T15:45:47.038Z</time></trkpt><trkpt lat="44.74219" lon="10.2398828"><ele>120.0</ele><time>2026-04-10T15:45:48.037Z</time></trkpt><trkpt lat="44.742336" lon="10.2398882"><ele>120.0</ele><time>2026-04-10T15:45:49.038Z</time></trkpt><trkpt lat="44.7424874" lon="10.2399273"><ele>120.0</ele><time>2026-04-10T15:45:50.038Z</time></trkpt><trkpt lat="44.742637" lon="10.2399647"><ele>120.0</ele><time>2026-04-10T15:45:51.038Z</time></trkpt><trkpt lat="44.7427784" lon="10.2400057"><ele>120.33333333333334</ele><time>2026-04-10T15:45:52.038Z</time></trkpt><trkpt lat="44.7429319" lon="10.240051"><ele>120.66666666666667</ele><time>2026-04-10T15:45:53.038Z</time></trkpt><trkpt lat="44.7430967" lon="10.2401003"><ele>121.0</ele><time>2026-04-10T15:45:54.037Z</time></trkpt><trkpt lat="44.7432685" lon="10.2401487"><ele>121.0</ele><time>2026-04-10T15:45:55.038Z</time></trkpt><trkpt lat="44.7434452" lon="10.2401983"><ele>121.0</ele><time>2026-04-10T15:45:56.037Z</time></trkpt><trkpt lat="44.7436295" lon="10.2402465"><ele>121.0</ele><time>2026-04-10T15:45:57.038Z</time></trkpt><trkpt lat="44.7438168" lon="10.2402888"><ele>121.0</ele><time>2026-04-10T15:45:58.038Z</time></trkpt><trkpt lat="44.7440083" lon="10.2403181"><ele>121.0</ele><time>2026-04-10T15:45:59.038Z</time></trkpt><trkpt lat="44.7442011" lon="10.2403423"><ele>121.0</ele><time>2026-04-10T15:46:00.038Z</time></trkpt><trkpt lat="44.7443923" lon="10.2403608"><ele>121.0</ele><time>2026-04-10T15:46:01.038Z</time></trkpt><trkpt lat="44.7445779" lon="10.2403845"><ele>121.0</ele><time>2026-04-10T15:46:02.038Z</time></trkpt><trkpt lat="44.7447616" lon="10.2404074"><ele>121.0</ele><time>2026-04-10T15:46:03.038Z</time></trkpt><trkpt lat="44.7449439" lon="10.2404301"><ele>121.0</ele><time>2026-04-10T15:46:04.039Z</time></trkpt><trkpt lat="44.7451257" lon="10.2404513"><ele>121.0</ele><time>2026-04-10T15:46:05.038Z</time></trkpt><trkpt lat="44.7453085" lon="10.2404762"><ele>121.0</ele><time>2026-04-10T15:46:06.038Z</time></trkpt><trkpt lat="44.745498" lon="10.2405079"><ele>121.0</ele><time>2026-04-10T15:46:07.038Z</time></trkpt><trkpt lat="44.7456859" lon="10.2405544"><ele>121.0</ele><time>2026-04-10T15:46:08.038Z</time></trkpt><trkpt lat="44.7458731" lon="10.240613"><ele>121.0</ele><time>2026-04-10T15:46:09.038Z</time></trkpt><trkpt lat="44.7460615" lon="10.2406758"><ele>120.66666666666667</ele><time>2026-04-10T15:46:10.038Z</time></trkpt><trkpt lat="44.7462467" lon="10.2407373"><ele>120.33333333333334</ele><time>2026-04-10T15:46:11.038Z</time></trkpt><trkpt lat="44.7464285" lon="10.2408001"><ele>120.0</ele><time>2026-04-10T15:46:12.038Z</time></trkpt><trkpt lat="44.7466091" lon="10.2408516"><ele>120.0</ele><time>2026-04-10T15:46:13.038Z</time></trkpt><trkpt lat="44.7467884" lon="10.2409091"><ele>120.0</ele><time>2026-04-10T15:46:14.038Z</time></trkpt><trkpt lat="44.74697" lon="10.240973"><ele>120.0</ele><time>2026-04-10T15:46:15.038Z</time></trkpt><trkpt lat="44.7471527" lon="10.241033"><ele>119.33333333333334</ele><time>2026-04-10T15:46:16.037Z</time></trkpt><trkpt lat="44.7473356" lon="10.2410941"><ele>118.66666666666667</ele><time>2026-04-10T15:46:17.038Z</time></trkpt><trkpt lat="44.7475189" lon="10.2411567"><ele>118.0</ele><time>2026-04-10T15:46:18.037Z</time></trkpt><trkpt lat="44.7477024" lon="10.2412189"><ele>118.0</ele><time>2026-04-10T15:46:19.038Z</time></trkpt><trkpt lat="44.7478869" lon="10.2412803"><ele>118.0</ele><time>2026-04-10T15:46:20.038Z</time></trkpt><trkpt lat="44.7480725" lon="10.2413435"><ele>118.0</ele><time>2026-04-10T15:46:21.038Z</time></trkpt><trkpt lat="44.7482554" lon="10.2414054"><ele>118.33333333333334</ele><time>2026-04-10T15:46:22.037Z</time></trkpt><trkpt lat="44.7484397" lon="10.2414676"><ele>118.66666666666666</ele><time>2026-04-10T15:46:23.038Z</time></trkpt><trkpt lat="44.7486262" lon="10.2415318"><ele>119.0</ele><time>2026-04-10T15:46:24.038Z</time></trkpt><trkpt lat="44.7488061" lon="10.241596"><ele>119.0</ele><time>2026-04-10T15:46:25.038Z</time></trkpt><trkpt lat="44.7489876" lon="10.2416561"><ele>119.0</ele><time>2026-04-10T15:46:26.038Z</time></trkpt><trkpt lat="44.7491673" lon="10.2417173"><ele>119.0</ele><time>2026-04-10T15:46:27.037Z</time></trkpt><trkpt lat="44.7493469" lon="10.2417812"><ele>118.66666666666666</ele><time>2026-04-10T15:46:28.038Z</time></trkpt><trkpt lat="44.7495246" lon="10.2418477"><ele>118.33333333333334</ele><time>2026-04-10T15:46:29.038Z</time></trkpt><trkpt lat="44.7497027" lon="10.2419086"><ele>118.0</ele><time>2026-04-10T15:46:30.037Z</time></trkpt><trkpt lat="44.7498832" lon="10.2419727"><ele>118.0</ele><time>2026-04-10T15:46:31.038Z</time></trkpt><trkpt lat="44.7500642" lon="10.2420312"><ele>118.0</ele><time>2026-04-10T15:46:32.038Z</time></trkpt><trkpt lat="44.7502472" lon="10.2420984"><ele>118.0</ele><time>2026-04-10T15:46:33.038Z</time></trkpt><trkpt lat="44.7504331" lon="10.2421658"><ele>117.33333333333334</ele><time>2026-04-10T15:46:34.038Z</time></trkpt><trkpt lat="44.7506202" lon="10.2422317"><ele>116.66666666666666</ele><time>2026-04-10T15:46:35.038Z</time></trkpt><trkpt lat="44.7508063" lon="10.2422947"><ele>116.0</ele><time>2026-04-10T15:46:36.038Z</time></trkpt><trkpt lat="44.7509909" lon="10.2423549"><ele>115.33333333333333</ele><time>2026-04-10T15:46:37.037Z</time></trkpt><trkpt lat="44.7511768" lon="10.2424122"><ele>114.66666666666666</ele><time>2026-04-10T15:46:38.038Z</time></trkpt><trkpt lat="44.7513592" lon="10.2424743"><ele>114.0</ele><time>2026-04-10T15:46:39.038Z</time></trkpt><trkpt lat="44.75154" lon="10.2425405"><ele>114.0</ele><time>2026-04-10T15:46:40.037Z</time></trkpt><trkpt lat="44.7517236" lon="10.2426036"><ele>114.0</ele><time>2026-04-10T15:46:41.038Z</time></trkpt><trkpt lat="44.7519069" lon="10.2426669"><ele>114.0</ele><time>2026-04-10T15:46:42.038Z</time></trkpt><trkpt lat="44.752085" lon="10.2427358"><ele>114.0</ele><time>2026-04-10T15:46:43.037Z</time></trkpt><trkpt lat="44.7522581" lon="10.2428045"><ele>114.0</ele><time>2026-04-10T15:46:44.038Z</time></trkpt><trkpt lat="44.7524225" lon="10.2428923"><ele>114.0</ele><time>2026-04-10T15:46:45.038Z</time></trkpt><trkpt lat="44.7525806" lon="10.2429998"><ele>114.0</ele><time>2026-04-10T15:46:46.038Z</time></trkpt><trkpt lat="44.7527332" lon="10.2431263"><ele>114.0</ele><time>2026-04-10T15:46:47.037Z</time></trkpt><trkpt lat="44.7528745" lon="10.243269"><ele>114.0</ele><time>2026-04-10T15:46:48.039Z</time></trkpt><trkpt lat="44.7530131" lon="10.2434177"><ele>112.66666666666666</ele><time>2026-04-10T15:46:49.038Z</time></trkpt><trkpt lat="44.7531552" lon="10.2435609"><ele>111.33333333333333</ele><time>2026-04-10T15:46:50.038Z</time></trkpt><trkpt lat="44.7532963" lon="10.243692"><ele>110.0</ele><time>2026-04-10T15:46:51.038Z</time></trkpt><trkpt lat="44.7534346" lon="10.2438191"><ele>110.0</ele><time>2026-04-10T15:46:52.038Z</time></trkpt><trkpt lat="44.7535748" lon="10.2439326"><ele>110.0</ele><time>2026-04-10T15:46:53.037Z</time></trkpt><trkpt lat="44.7537286" lon="10.2440225"><ele>110.0</ele><time>2026-04-10T15:46:54.038Z</time></trkpt><trkpt lat="44.7539008" lon="10.2440873"><ele>110.33333333333333</ele><time>2026-04-10T15:46:55.038Z</time></trkpt><trkpt lat="44.7540978" lon="10.2441436"><ele>110.66666666666666</ele><time>2026-04-10T15:46:56.037Z</time></trkpt><trkpt lat="44.7543116" lon="10.2442135"><ele>111.0</ele><time>2026-04-10T15:46:57.039Z</time></trkpt><trkpt lat="44.7545291" lon="10.2442922"><ele>111.0</ele><time>2026-04-10T15:46:58.039Z</time></trkpt><trkpt lat="44.7547485" lon="10.2443722"><ele>111.0</ele><time>2026-04-10T15:46:59.038Z</time></trkpt><trkpt lat="44.7549751" lon="10.2444472"><ele>112.5</ele><time>2026-04-10T15:47:00.037Z</time></trkpt><trkpt lat="44.7552132" lon="10.2445234"><ele>114.0</ele><time>2026-04-10T15:47:01.037Z</time></trkpt><trkpt lat="44.7554597" lon="10.244603"><ele>114.0</ele><time>2026-04-10T15:47:02.037Z</time></trkpt><trkpt lat="44.7557024" lon="10.2446908"><ele>114.0</ele><time>2026-04-10T15:47:03.038Z</time></trkpt><trkpt lat="44.755936" lon="10.2447799"><ele>115.0</ele><time>2026-04-10T15:47:04.038Z</time></trkpt><trkpt lat="44.7561686" lon="10.2448609"><ele>116.0</ele><time>2026-04-10T15:47:05.038Z</time></trkpt><trkpt lat="44.7563976" lon="10.24494"><ele>116.0</ele><time>2026-04-10T15:47:06.039Z</time></trkpt><trkpt lat="44.756621" lon="10.2450193"><ele>116.0</ele><time>2026-04-10T15:47:07.038Z</time></trkpt><trkpt lat="44.7568445" lon="10.2451032"><ele>114.0</ele><time>2026-04-10T15:47:08.038Z</time></trkpt><trkpt lat="44.7570605" lon="10.2451803"><ele>112.0</ele><time>2026-04-10T15:47:09.038Z</time></trkpt><trkpt lat="44.7572771" lon="10.2452586"><ele>110.0</ele><time>2026-04-10T15:47:10.037Z</time></trkpt><trkpt lat="44.7574934" lon="10.2453407"><ele>109.5</ele><time>2026-04-10T15:47:11.038Z</time></trkpt><trkpt lat="44.7577123" lon="10.2454264"><ele>109.0</ele><time>2026-04-10T15:47:12.038Z</time></trkpt><trkpt lat="44.7579332" lon="10.2455147"><ele>109.0</ele><time>2026-04-10T15:47:13.038Z</time></trkpt><trkpt lat="44.7581551" lon="10.2456046"><ele>109.0</ele><time>2026-04-10T15:47:14.037Z</time></trkpt><trkpt lat="44.7583786" lon="10.2456989"><ele>108.0</ele><time>2026-04-10T15:47:15.038Z</time></trkpt><trkpt lat="44.7586017" lon="10.245791"><ele>107.0</ele><time>2026-04-10T15:47:16.038Z</time></trkpt><trkpt lat="44.7588234" lon="10.24588"><ele>107.0</ele><time>2026-04-10T15:47:17.037Z</time></trkpt><trkpt lat="44.7590385" lon="10.2459634"><ele>107.0</ele><time>2026-04-10T15:47:18.037Z</time></trkpt><trkpt lat="44.759237" lon="10.246049"><ele>107.0</ele><time>2026-04-10T15:47:19.038Z</time></trkpt><trkpt lat="44.7594285" lon="10.2461207"><ele>106.33333333333333</ele><time>2026-04-10T15:47:20.038Z</time></trkpt><trkpt lat="44.7596101" lon="10.2461512"><ele>105.66666666666666</ele><time>2026-04-10T15:47:21.039Z</time></trkpt><trkpt lat="44.7597832" lon="10.2461374"><ele>105.0</ele><time>2026-04-10T15:47:22.038Z</time></trkpt><trkpt lat="44.7599592" lon="10.2460854"><ele>105.0</ele><time>2026-04-10T15:47:23.038Z</time></trkpt><trkpt lat="44.7601282" lon="10.2459797"><ele>105.0</ele><time>2026-04-10T15:47:24.037Z</time></trkpt><trkpt lat="44.7602929" lon="10.2458296"><ele>105.0</ele><time>2026-04-10T15:47:25.038Z</time></trkpt><trkpt lat="44.7604573" lon="10.2456506"><ele>105.0</ele><time>2026-04-10T15:47:26.038Z</time></trkpt><trkpt lat="44.760615" lon="10.2454626"><ele>105.0</ele><time>2026-04-10T15:47:27.038Z</time></trkpt><trkpt lat="44.7607682" lon="10.2452779"><ele>105.0</ele><time>2026-04-10T15:47:28.037Z</time></trkpt><trkpt lat="44.7609111" lon="10.2451039"><ele>104.66666666666666</ele><time>2026-04-10T15:47:29.038Z</time></trkpt><trkpt lat="44.7610461" lon="10.244943"><ele>104.33333333333333</ele><time>2026-04-10T15:47:30.037Z</time></trkpt><trkpt lat="44.76117" lon="10.2448066"><ele>104.0</ele><time>2026-04-10T15:47:31.038Z</time></trkpt><trkpt lat="44.7612985" lon="10.2447041"><ele>103.5</ele><time>2026-04-10T15:47:32.037Z</time></trkpt><trkpt lat="44.7614279" lon="10.2446484"><ele>103.0</ele><time>2026-04-10T15:47:33.038Z</time></trkpt><trkpt lat="44.7615543" lon="10.2446259"><ele>102.5</ele><time>2026-04-10T15:47:34.038Z</time></trkpt><trkpt lat="44.7616728" lon="10.2446518"><ele>102.0</ele><time>2026-04-10T15:47:35.038Z</time></trkpt><trkpt lat="44.7617755" lon="10.2447013"><ele>102.0</ele><time>2026-04-10T15:47:36.038Z</time></trkpt><trkpt lat="44.7618722" lon="10.2447867"><ele>102.0</ele><time>2026-04-10T15:47:37.038Z</time></trkpt><trkpt lat="44.7619615" lon="10.2449086"><ele>102.0</ele><time>2026-04-10T15:47:38.038Z</time></trkpt><trkpt lat="44.7620405" lon="10.2450507"><ele>102.0</ele><time>2026-04-10T15:47:39.038Z</time></trkpt><trkpt lat="44.7621219" lon="10.2452015"><ele>102.0</ele><time>2026-04-10T15:47:40.038Z</time></trkpt><trkpt lat="44.7622091" lon="10.2453661"><ele>102.0</ele><time>2026-04-10T15:47:41.038Z</time></trkpt><trkpt lat="44.7622943" lon="10.245541"><ele>102.0</ele><time>2026-04-10T15:47:42.038Z</time></trkpt><trkpt lat="44.7623935" lon="10.2457364"><ele>102.66666666666666</ele><time>2026-04-10T15:47:43.038Z</time></trkpt><trkpt lat="44.7624962" lon="10.2459402"><ele>103.33333333333333</ele><time>2026-04-10T15:47:44.037Z</time></trkpt><trkpt lat="44.7625909" lon="10.2461399"><ele>104.0</ele><time>2026-04-10T15:47:45.038Z</time></trkpt><trkpt lat="44.7626884" lon="10.2463364"><ele>103.66666666666666</ele><time>2026-04-10T15:47:46.038Z</time></trkpt><trkpt lat="44.7627822" lon="10.2465391"><ele>103.33333333333334</ele><time>2026-04-10T15:47:47.038Z</time></trkpt><trkpt lat="44.7628761" lon="10.2467387"><ele>103.0</ele><time>2026-04-10T15:47:48.037Z</time></trkpt><trkpt lat="44.7629684" lon="10.2469327"><ele>103.0</ele><time>2026-04-10T15:47:49.038Z</time></trkpt><trkpt lat="44.7630537" lon="10.2471161"><ele>103.0</ele><time>2026-04-10T15:47:50.038Z</time></trkpt><trkpt lat="44.7631365" lon="10.2472848"><ele>103.0</ele><time>2026-04-10T15:47:51.037Z</time></trkpt><trkpt lat="44.763215" lon="10.247444"><ele>103.0</ele><time>2026-04-10T15:47:52.038Z</time></trkpt><trkpt lat="44.7632873" lon="10.2475945"><ele>103.4</ele><time>2026-04-10T15:47:53.038Z</time></trkpt><trkpt lat="44.7633507" lon="10.247734"><ele>103.80000000000001</ele><time>2026-04-10T15:47:54.037Z</time></trkpt><trkpt lat="44.7634095" lon="10.2478611"><ele>104.2</ele><time>2026-04-10T15:47:55.038Z</time></trkpt><trkpt lat="44.7634595" lon="10.247959"><ele>104.6</ele><time>2026-04-10T15:47:56.038Z</time></trkpt><trkpt lat="44.7635049" lon="10.2480518"><ele>105.0</ele><time>2026-04-10T15:47:57.038Z</time></trkpt><trkpt lat="44.7635479" lon="10.2481422"><ele>104.33333333333333</ele><time>2026-04-10T15:47:58.037Z</time></trkpt><trkpt lat="44.7635914" lon="10.2482257"><ele>103.66666666666666</ele><time>2026-04-10T15:47:59.038Z</time></trkpt><trkpt lat="44.7636356" lon="10.2483142"><ele>103.0</ele><time>2026-04-10T15:48:00.038Z</time></trkpt><trkpt lat="44.7636848" lon="10.2484167"><ele>102.33333333333333</ele><time>2026-04-10T15:48:01.038Z</time></trkpt><trkpt lat="44.7637342" lon="10.2485226"><ele>101.66666666666666</ele><time>2026-04-10T15:48:02.037Z</time></trkpt><trkpt lat="44.7637821" lon="10.2486346"><ele>101.0</ele><time>2026-04-10T15:48:03.038Z</time></trkpt><trkpt lat="44.7638358" lon="10.2487516"><ele>101.0</ele><time>2026-04-10T15:48:04.038Z</time></trkpt><trkpt lat="44.7638884" lon="10.2488682"><ele>101.0</ele><time>2026-04-10T15:48:05.038Z</time></trkpt><trkpt lat="44.7639399" lon="10.2489959"><ele>101.0</ele><time>2026-04-10T15:48:06.038Z</time></trkpt><trkpt lat="44.7639966" lon="10.2491201"><ele>101.0</ele><time>2026-04-10T15:48:07.038Z</time></trkpt><trkpt lat="44.7640537" lon="10.2492513"><ele>101.0</ele><time>2026-04-10T15:48:08.038Z</time></trkpt><trkpt lat="44.7641229" lon="10.2493888"><ele>101.25</ele><time>2026-04-10T15:48:09.038Z</time></trkpt><trkpt lat="44.7641953" lon="10.24954"><ele>101.5</ele><time>2026-04-10T15:48:10.038Z</time></trkpt><trkpt lat="44.7642671" lon="10.2496915"><ele>101.75</ele><time>2026-04-10T15:48:11.038Z</time></trkpt><trkpt lat="44.7643301" lon="10.2498456"><ele>102.0</ele><time>2026-04-10T15:48:12.038Z</time></trkpt><trkpt lat="44.7644007" lon="10.2499733"><ele>98.0</ele><time>2026-04-10T15:48:13.038Z</time></trkpt><trkpt lat="44.764469" lon="10.2501211"><ele>98.0</ele><time>2026-04-10T15:48:14.038Z</time></trkpt><trkpt lat="44.7645357" lon="10.2502679"><ele>98.0</ele><time>2026-04-10T15:48:15.038Z</time></trkpt></trkseg></trk></gpx>